
Distance (Route):
Temperature : 0°C
Humidity : 0%
Pressure : 0hPa| Receiver | Frames | First received | Last received |
|---|---|---|---|
| DF8AY | 492 | 2026-08-31 09:51:17 | 2026-08-31 12:00:45 |
| DO3DL | 434 | 2026-08-31 09:04:34 | 2026-08-31 10:34:55 |
| DL1XH-west | 434 | 2026-08-31 09:35:05 | 2026-08-31 11:29:20 |
| DM0DOS-11 | 389 | 2026-08-31 08:57:41 | 2026-08-31 11:06:50 |
| BIOWL1-15 | 311 | 2026-08-31 08:56:42 | 2026-08-31 11:00:59 |
| DL1NUX | 305 | 2026-08-31 09:36:01 | 2026-08-31 11:38:23 |
| HSKMA3-T | 278 | 2026-08-31 09:37:38 | 2026-08-31 11:33:33 |
| DO2JMG | 267 | 2026-08-31 09:43:10 | 2026-08-31 11:23:06 |
| DO3MHA-11 | 265 | 2026-08-31 09:33:53 | 2026-08-31 10:59:33 |
| GOEST3-10 | 244 | 2026-08-31 09:56:49 | 2026-08-31 10:39:35 |
| DL1XH-15 | 200 | 2026-08-31 09:49:25 | 2026-08-31 11:27:06 |
| DF2AP-13 | 161 | 2026-08-31 09:35:27 | 2026-08-31 12:01:43 |
| AA1-15 | 158 | 2026-08-31 09:56:35 | 2026-08-31 10:42:39 |
| DD1CC2-15 | 109 | 2026-08-31 09:16:37 | 2026-08-31 10:37:40 |
| DO2KSM | 96 | 2026-08-31 08:57:19 | 2026-08-31 09:53:08 |
| DB0NH | 93 | 2026-08-31 09:06:40 | 2026-08-31 11:33:52 |
| DO2SHX-10 | 85 | 2026-08-31 10:10:15 | 2026-08-31 10:43:17 |
| DB0UT-7 | 81 | 2026-08-31 08:50:16 | 2026-08-31 09:31:46 |
| SO1NDE-10 | 79 | 2026-08-31 09:35:50 | 2026-08-31 11:38:18 |
| NBG1-10 | 75 | 2026-08-31 09:07:29 | 2026-08-31 10:06:37 |
| DO8TBO-1 | 75 | 2026-08-31 09:46:19 | 2026-08-31 11:09:33 |
| DL3OBA | 71 | 2026-08-31 09:39:24 | 2026-08-31 11:21:40 |
| DJTTGO | 57 | 2026-08-31 09:55:06 | 2026-08-31 10:44:34 |
| THATR2-17 | 41 | 2026-08-31 09:37:56 | 2026-08-31 11:58:15 |
| DF5WG-10 | 41 | 2026-08-31 10:21:44 | 2026-08-31 10:41:44 |
| DM7RM-13 | 39 | 2026-08-31 10:17:01 | 2026-08-31 10:45:40 |
| BIOWL7-15 | 29 | 2026-08-31 08:57:59 | 2026-08-31 09:54:50 |
| AM1SDL-15 | 29 | 2026-08-31 11:24:33 | 2026-08-31 11:37:58 |
| DK7TD | 28 | 2026-08-31 10:32:21 | 2026-08-31 10:44:51 |
| DJ3KS | 23 | 2026-08-31 09:01:29 | 2026-08-31 09:51:46 |
| DL8DAS-15 | 22 | 2026-08-31 08:59:04 | 2026-08-31 10:40:46 |
| DH3RM | 20 | 2026-08-31 09:16:36 | 2026-08-31 09:25:43 |
| DF1GD-15 | 20 | 2026-08-31 10:15:46 | 2026-08-31 10:39:09 |
| DL1CLM-18 | 18 | 2026-08-31 09:27:33 | 2026-08-31 11:11:03 |
| DL3AQ-11 | 11 | 2026-08-31 09:29:05 | 2026-08-31 10:23:05 |
| DB0ND-19 | 9 | 2026-08-31 08:51:30 | 2026-08-31 09:54:05 |
| DO1YAY-16 | 8 | 2026-08-31 08:51:38 | 2026-08-31 09:33:03 |
| OE3JTB-15 | 7 | 2026-08-31 10:17:29 | 2026-08-31 10:21:40 |
| SONCRA | 7 | 2026-08-31 10:28:02 | 2026-08-31 11:26:05 |
| DL8DAS-14 | 6 | 2026-08-31 09:00:04 | 2026-08-31 09:44:02 |
| SP3BTT-10 | 6 | 2026-08-31 10:26:51 | 2026-08-31 10:29:37 |
| TFSTFS | 6 | 2026-08-31 11:36:03 | 2026-08-31 11:47:38 |
| DD1CC8 | 5 | 2026-08-31 09:37:57 | 2026-08-31 09:56:04 |
| S3001 | 5 | 2026-08-31 11:01:21 | 2026-08-31 11:21:05 |
| EDDB2-11 | 4 | 2026-08-31 09:51:56 | 2026-08-31 11:26:04 |
| DF7PN | 3 | 2026-08-31 09:22:05 | 2026-08-31 09:36:04 |
| WPPR-10 | 3 | 2026-08-31 09:30:07 | 2026-08-31 09:42:02 |
| DC6BW-12 | 3 | 2026-08-31 09:44:14 | 2026-08-31 09:47:00 |
| D01LWL | 3 | 2026-08-31 10:04:04 | 2026-08-31 11:00:58 |
| DC4HF-4 | 2 | 2026-08-31 10:25:04 | 2026-08-31 11:01:08 |
| DL1ZP-14 | 1 | 2026-08-31 09:30:03 | 2026-08-31 09:30:03 |
| BIOWL9-15 | 1 | 2026-08-31 09:49:03 | 2026-08-31 09:49:03 |
| SMARD9-10 | 1 | 2026-08-31 10:17:34 | 2026-08-31 10:17:34 |
| BUE01 | 1 | 2026-08-31 10:36:02 | 2026-08-31 10:36:02 |
| Receiver | Date | Latitude | Longitude | Direction | Speed | Altitude | Climb | Temperature | Humidity | Pressure | Voltage | Killtimer | Uptime | BKT | XDATA |
|---|---|---|---|---|---|---|---|---|---|---|---|---|---|---|---|
| DF2AP-13 | 2026-08-31 12:01:43 | 51.59587 | 10.70698 | 69° | 51km/h | 2302m | -1.5m/s | 0°C | 0% | 0hPa | 5.1V | 00:00:00 | 00:00:00 | 00:00:00 | |
| DF2AP-13 | 2026-08-31 12:01:22 | 51.59489 | 10.70293 | 70° | 53km/h | 2335m | -1.5m/s | 0°C | 0% | 0hPa | 5.1V | 00:00:00 | 00:00:00 | 00:00:00 | |
| DF2AP-13 | 2026-08-31 12:01:02 | 51.59393 | 10.69899 | 69° | 53km/h | 2367m | -1.6m/s | 0°C | 0% | 0hPa | 5.1V | 00:00:00 | 00:00:00 | 00:00:00 | |
| DF8AY | 2026-08-31 12:00:45 | 51.59258 | 10.69382 | 68° | 53km/h | 2410m | -1.8m/s | 1.8°C | 0% | 0hPa | 5.1V | 00:00:00 | 00:00:00 | 00:00:00 | |
| DF2AP-13 | 2026-08-31 12:00:41 | 51.59284 | 10.69481 | 68° | 53km/h | 2403m | -1.8m/s | 0°C | 0% | 0hPa | 5.1V | 00:00:00 | 00:00:00 | 00:00:00 | |
| DF8AY | 2026-08-31 12:00:22 | 51.59182 | 10.69084 | 67° | 53km/h | 2437m | -1.7m/s | 1.6°C | 0% | 0hPa | 5.1V | 00:00:00 | 00:00:00 | 00:00:00 | |
| DF2AP-13 | 2026-08-31 12:00:21 | 51.59182 | 10.69084 | 68° | 53km/h | 2439m | -1.9m/s | 0°C | 0% | 0hPa | 5.1V | 00:00:00 | 00:00:00 | 00:00:00 | |
| DF8AY | 2026-08-31 12:00:09 | 51.59115 | 10.68823 | 69° | 53km/h | 2460m | -1.8m/s | 1.3°C | 0% | 0hPa | 5.1V | 00:00:00 | 00:00:00 | 00:00:00 | |
| DF2AP-13 | 2026-08-31 12:00:01 | 51.59080 | 10.68684 | 68° | 53km/h | 2474m | -1.8m/s | 0°C | 0% | 0hPa | 5.1V | 00:00:00 | 00:00:00 | 00:00:00 | |
| DF8AY | 2026-08-31 11:59:58 | 51.59055 | 10.68581 | 69° | 53km/h | 2481m | -1.7m/s | 1.7°C | 0% | 0hPa | 5.1V | 00:00:00 | 00:00:00 | 00:00:00 | |
| DF8AY | 2026-08-31 11:59:41 | 51.58973 | 10.68257 | 69° | 55km/h | 2512m | -1.8m/s | 1.6°C | 0% | 0hPa | 5.1V | 00:00:00 | 00:00:00 | 00:00:00 | |
| DF2AP-13 | 2026-08-31 11:59:41 | 51.58978 | 10.68278 | 70° | 55km/h | 2512m | -1.7m/s | 0°C | 0% | 0hPa | 5.1V | 00:00:00 | 00:00:00 | 00:00:00 | |
| DF8AY | 2026-08-31 11:59:26 | 51.58900 | 10.67947 | 69° | 57km/h | 2541m | -1.8m/s | 1.4°C | 0% | 0hPa | 5.1V | 00:00:00 | 00:00:00 | 00:00:00 | |
| DF2AP-13 | 2026-08-31 11:59:21 | 51.58881 | 10.67860 | 72° | 57km/h | 2550m | -2.0m/s | 0°C | 0% | 0hPa | 5.1V | 00:00:00 | 00:00:00 | 00:00:00 | |
| DF8AY | 2026-08-31 11:59:16 | 51.58834 | 10.67620 | 74° | 57km/h | 2569m | -1.9m/s | 1.3°C | 0% | 0hPa | 5.1V | 00:00:00 | 00:00:00 | 00:00:00 | |
| DF8AY | 2026-08-31 11:59:01 | 51.58775 | 10.67310 | 74° | 57km/h | 2597m | -1.9m/s | 1.1°C | 0% | 0hPa | 5.1V | 00:00:00 | 00:00:00 | 00:00:00 | |
| DF8AY | 2026-08-31 11:58:50 | 51.58706 | 10.66956 | 73° | 57km/h | 2630m | -2.1m/s | 0.8°C | 0% | 0hPa | 5.1V | 00:00:00 | 00:00:00 | 00:00:00 | |
| DF2AP-13 | 2026-08-31 11:58:49 | 51.58744 | 10.67153 | 71° | 58km/h | 2611m | -2.0m/s | 0°C | 0% | 0hPa | 5.1V | 00:00:00 | 00:00:00 | 00:00:00 | |
| DF8AY | 2026-08-31 11:58:40 | 51.58632 | 10.66549 | 75° | 57km/h | 2672m | -2.1m/s | 0.4°C | 0% | 0hPa | 5.1V | 00:00:00 | 00:00:00 | 00:00:00 | |
| DF8AY | 2026-08-31 11:58:31 | 51.58628 | 10.66526 | 74° | 58km/h | 2673m | -2.1m/s | 0.4°C | 0% | 0hPa | 5.1V | 00:00:00 | 00:00:00 | 00:00:00 | |
| DF8AY | 2026-08-31 11:58:16 | 51.58600 | 10.66367 | 74° | 58km/h | 2688m | -2m/s | 0.3°C | 0% | 0hPa | 5.1V | 00:00:00 | 00:00:00 | 00:00:00 | |
| THATR2-17 | 2026-08-31 11:58:15 | 51.58600 | 10.66367 | 74° | 58km/h | 2688m | 0m/s | 0°C | 0% | 0hPa | 5.1V | 00:00:00 | 00:00:00 | 00:00:00 | |
| DF8AY | 2026-08-31 11:58:04 | 51.58559 | 10.66113 | 76° | 58km/h | 2711m | -1.8m/s | 0°C | 0% | 0hPa | 5.1V | 00:00:00 | 00:00:00 | 00:00:00 | |
| DF8AY | 2026-08-31 11:57:53 | 51.58517 | 10.65854 | 77° | 60km/h | 2733m | -1.9m/s | -0.1°C | 0% | 0hPa | 5.1V | 00:00:00 | 00:00:00 | 00:00:00 | |
| DF2AP-13 | 2026-08-31 11:57:46 | 51.58495 | 10.65714 | 75° | 60km/h | 2746m | -1.8m/s | 0°C | 0% | 0hPa | 5.1V | 00:00:00 | 00:00:00 | 00:00:00 | |
| DF8AY | 2026-08-31 11:57:43 | 51.58479 | 10.65621 | 76° | 60km/h | 2752m | -1.9m/s | -0.3°C | 0% | 0hPa | 5.1V | 00:00:00 | 00:00:00 | 00:00:00 | |
| DF8AY | 2026-08-31 11:57:33 | 51.58440 | 10.65360 | 74° | 60km/h | 2775m | -2.1m/s | -0.5°C | 0% | 0hPa | 5.1V | 00:00:00 | 00:00:00 | 00:00:00 | |
| DF2AP-13 | 2026-08-31 11:57:26 | 51.58419 | 10.65240 | 75° | 62km/h | 2787m | -1.8m/s | 0°C | 0% | 0hPa | 5.1V | 00:00:00 | 00:00:00 | 00:00:00 | |
| DF8AY | 2026-08-31 11:57:22 | 51.58377 | 10.64996 | 75° | 62km/h | 2805m | -1.8m/s | -0.7°C | 0% | 0hPa | 5.1V | 00:00:00 | 00:00:00 | 00:00:00 | |
| DF8AY | 2026-08-31 11:57:06 | 51.58331 | 10.64723 | 75° | 64km/h | 2827m | -1.8m/s | -0.7°C | 0% | 0hPa | 5.1V | 00:00:00 | 00:00:00 | 00:00:00 | |
| DF2AP-13 | 2026-08-31 11:57:06 | 51.58336 | 10.64747 | 76° | 64km/h | 2828m | -1.7m/s | 0°C | 0% | 0hPa | 5.1V | 00:00:00 | 00:00:00 | 00:00:00 | |
| DF8AY | 2026-08-31 11:56:55 | 51.58287 | 10.64447 | 75° | 64km/h | 2849m | -1.9m/s | -0.9°C | 0% | 0hPa | 5.1V | 00:00:00 | 00:00:00 | 00:00:00 | |
| DF2AP-13 | 2026-08-31 11:56:46 | 51.58253 | 10.64247 | 75° | 64km/h | 2867m | -1.8m/s | 0°C | 0% | 0hPa | 5.1V | 00:00:00 | 00:00:00 | 00:00:00 | |
| DF8AY | 2026-08-31 11:56:45 | 51.58244 | 10.64197 | 75° | 64km/h | 2867m | -1.8m/s | -1.1°C | 0% | 0hPa | 5.1V | 00:00:00 | 00:00:00 | 00:00:00 | |
| DF8AY | 2026-08-31 11:56:34 | 51.58197 | 10.63922 | 74° | 64km/h | 2887m | -1.8m/s | -1.2°C | 0% | 0hPa | 5.1V | 00:00:00 | 00:00:00 | 00:00:00 | |
| DF2AP-13 | 2026-08-31 11:56:25 | 51.58164 | 10.63727 | 75° | 62km/h | 2903m | -1.7m/s | 0°C | 0% | 0hPa | 5.1V | 00:00:00 | 00:00:00 | 00:00:00 | |
| DF8AY | 2026-08-31 11:56:23 | 51.58151 | 10.63654 | 74° | 62km/h | 2906m | -1.7m/s | -1.3°C | 0% | 0hPa | 5.1V | 00:00:00 | 00:00:00 | 00:00:00 | |
| DF8AY | 2026-08-31 11:56:12 | 51.58055 | 10.63127 | 74° | 60km/h | 2944m | -1.6m/s | -1.4°C | 0% | 0hPa | 5.1V | 00:00:00 | 00:00:00 | 00:00:00 | |
| DF2AP-13 | 2026-08-31 11:56:05 | 51.58077 | 10.63245 | 74° | 60km/h | 2937m | -1.7m/s | 0°C | 0% | 0hPa | 5.1V | 00:00:00 | 00:00:00 | 00:00:00 | |
| DF8AY | 2026-08-31 11:55:57 | 51.58038 | 10.63033 | 73° | 60km/h | 2950m | -1.6m/s | -1.4°C | 0% | 0hPa | 5.1V | 00:00:00 | 00:00:00 | 00:00:00 | |
| DF8AY | 2026-08-31 11:55:47 | 51.57988 | 10.62774 | 70° | 60km/h | 2966m | -1.2m/s | -1.4°C | 0% | 0hPa | 5.1V | 00:00:00 | 00:00:00 | 00:00:00 | |
| DF2AP-13 | 2026-08-31 11:55:45 | 51.57988 | 10.62774 | 71° | 60km/h | 2968m | -1.2m/s | 0°C | 0% | 0hPa | 5.1V | 00:00:00 | 00:00:00 | 00:00:00 | |
| DF8AY | 2026-08-31 11:55:33 | 51.57917 | 10.62475 | 67° | 60km/h | 2982m | -1.1m/s | -1.3°C | 0% | 0hPa | 5.1V | 00:00:00 | 00:00:00 | 00:00:00 | |
| DF2AP-13 | 2026-08-31 11:55:25 | 51.57875 | 10.62317 | 67° | 60km/h | 2992m | -1.0m/s | 0°C | 0% | 0hPa | 5.1V | 00:00:00 | 00:00:00 | 00:00:00 | |
| DF8AY | 2026-08-31 11:55:23 | 51.57857 | 10.62249 | 66° | 60km/h | 2994m | -1m/s | -0.2°C | 0% | 0hPa | 5.1V | 00:00:00 | 00:00:00 | 00:00:00 | |
| DF8AY | 2026-08-31 11:55:12 | 51.57790 | 10.62002 | 68° | 60km/h | 3007m | -1.3m/s | 0.4°C | 0% | 0hPa | 5.1V | 00:00:00 | 00:00:00 | 00:00:00 | |
| THATR2-17 | 2026-08-31 11:55:09 | 51.57630 | 10.61383 | 67° | 66km/h | 3040m | 0m/s | 0°C | 0% | 0hPa | 5.1V | 00:00:00 | 00:00:00 | 00:00:00 | |
| DF2AP-13 | 2026-08-31 11:55:05 | 51.57755 | 10.61862 | 70° | 66km/h | 3017m | -0.9m/s | 0°C | 0% | 0hPa | 5.1V | 00:00:00 | 00:00:00 | 00:00:00 | |
| DF8AY | 2026-08-31 11:55:03 | 51.57733 | 10.61766 | 69° | 62km/h | 3020m | -1.2m/s | 0.4°C | 0% | 0hPa | 5.1V | 00:00:00 | 00:00:00 | 00:00:00 | |
| DF8AY | 2026-08-31 11:54:50 | 51.57657 | 10.61478 | 64° | 62km/h | 3036m | -1m/s | 0.5°C | 0% | 0hPa | 5.1V | 00:00:00 | 00:00:00 | 00:00:00 | |
| DF8AY | 2026-08-31 11:54:40 | 51.57591 | 10.61231 | 68° | 68km/h | 3047m | -1.1m/s | 0.5°C | 0% | 0hPa | 5V | 00:00:00 | 00:00:00 | 00:00:00 | |
| DF2AP-13 | 2026-08-31 11:54:35 | 51.57565 | 10.61131 | 67° | 66km/h | 3054m | -1.2m/s | 0°C | 0% | 0hPa | 5V | 00:00:00 | 00:00:00 | 00:00:00 | |
| DF8AY | 2026-08-31 11:54:29 | 51.57522 | 10.60961 | 69° | 64km/h | 3062m | -1.3m/s | 0.7°C | 0% | 0hPa | 5V | 00:00:00 | 00:00:00 | 00:00:00 | |
| DF8AY | 2026-08-31 11:54:17 | 51.57448 | 10.60664 | 69° | 66km/h | 3080m | -1.6m/s | 0.9°C | 0% | 0hPa | 5V | 00:00:00 | 00:00:00 | 00:00:00 | |
| DF8AY | 2026-08-31 11:54:05 | 51.57376 | 10.60358 | 69° | 66km/h | 3102m | -2m/s | 0.7°C | 0% | 0hPa | 5V | 00:00:00 | 00:00:00 | 00:00:00 | |
| DF2AP-13 | 2026-08-31 11:54:05 | 51.57382 | 10.60383 | 69° | 66km/h | 3102m | -1.9m/s | 0°C | 0% | 0hPa | 5V | 00:00:00 | 00:00:00 | 00:00:00 | |
| DF8AY | 2026-08-31 11:53:54 | 51.57281 | 10.59958 | 69° | 66km/h | 3136m | -2.2m/s | 0.5°C | 0% | 0hPa | 5V | 00:00:00 | 00:00:00 | 00:00:00 | |
| DF8AY | 2026-08-31 11:53:44 | 51.57253 | 10.59832 | 71° | 66km/h | 3147m | -1.9m/s | 0.5°C | 0% | 0hPa | 5V | 00:00:00 | 00:00:00 | 00:00:00 | |
| DF2AP-13 | 2026-08-31 11:53:35 | 51.57205 | 10.59627 | 70° | 69km/h | 3166m | -2.0m/s | 0°C | 0% | 0hPa | 5V | 00:00:00 | 00:00:00 | 00:00:00 | |
| DF8AY | 2026-08-31 11:53:34 | 51.57187 | 10.59549 | 70° | 68km/h | 3171m | -2.1m/s | 0.3°C | 0% | 0hPa | 5V | 00:00:00 | 00:00:00 | 00:00:00 | |
| DF8AY | 2026-08-31 11:53:25 | 51.57109 | 10.59207 | 70° | 69km/h | 3198m | -1.9m/s | 0.3°C | 0% | 0hPa | 5V | 00:00:00 | 00:00:00 | 00:00:00 | |
| DF8AY | 2026-08-31 11:53:09 | 51.57044 | 10.58912 | 71° | 69km/h | 3220m | -2m/s | 0.4°C | 0% | 0hPa | 5V | 00:00:00 | 00:00:00 | 00:00:00 | |
| DF8AY | 2026-08-31 11:52:58 | 51.56959 | 10.58509 | 72° | 69km/h | 3252m | -2.2m/s | 0.2°C | 0% | 0hPa | 5V | 00:00:00 | 00:00:00 | 00:00:00 | |
| DF8AY | 2026-08-31 11:52:41 | 51.56887 | 10.58159 | 71° | 69km/h | 3280m | -2.1m/s | -0°C | 0% | 0hPa | 5V | 00:00:00 | 00:00:00 | 00:00:00 | |
| DF8AY | 2026-08-31 11:52:31 | 51.56832 | 10.57890 | 71° | 68km/h | 3302m | -2.2m/s | -0.2°C | 0% | 0hPa | 5V | 00:00:00 | 00:00:00 | 00:00:00 | |
| DF8AY | 2026-08-31 11:52:19 | 51.56749 | 10.57488 | 72° | 69km/h | 3338m | -2.3m/s | -0.5°C | 0% | 0hPa | 5V | 00:00:00 | 00:00:00 | 00:00:00 | |
| DF8AY | 2026-08-31 11:52:09 | 51.56711 | 10.57296 | 72° | 69km/h | 3357m | -2.6m/s | -0.6°C | 0% | 0hPa | 5V | 00:00:00 | 00:00:00 | 00:00:00 | |
| DF8AY | 2026-08-31 11:51:56 | 51.56640 | 10.56946 | 71° | 69km/h | 3392m | -2.8m/s | -1°C | 0% | 0hPa | 5V | 00:00:00 | 00:00:00 | 00:00:00 | |
| DF2AP-13 | 2026-08-31 11:51:52 | 51.56623 | 10.56867 | 72° | 69km/h | 3402m | -2.6m/s | 0°C | 0% | 0hPa | 5V | 00:00:00 | 00:00:00 | 00:00:00 | |
| DF8AY | 2026-08-31 11:51:46 | 51.56584 | 10.56679 | 72° | 69km/h | 3418m | -2.6m/s | -1.2°C | 0% | 0hPa | 5V | 00:00:00 | 00:00:00 | 00:00:00 | |
| DF8AY | 2026-08-31 11:51:34 | 51.56515 | 10.56361 | 71° | 69km/h | 3452m | -2.8m/s | -1.6°C | 0% | 0hPa | 5V | 00:00:00 | 00:00:00 | 00:00:00 | |
| THATR2-17 | 2026-08-31 11:51:31 | 51.56457 | 10.56095 | 70° | 68km/h | 3482m | 0m/s | 0°C | 0% | 0hPa | 5V | 00:00:00 | 00:00:00 | 00:00:00 | |
| DF8AY | 2026-08-31 11:51:23 | 51.56451 | 10.56068 | 70° | 69km/h | 3485m | -3m/s | -1.9°C | 0% | 0hPa | 5V | 00:00:00 | 00:00:00 | 00:00:00 | |
| DF2AP-13 | 2026-08-31 11:51:21 | 51.56445 | 10.56041 | 71° | 69km/h | 3488m | -3.1m/s | 0°C | 0% | 0hPa | 5V | 00:00:00 | 00:00:00 | 00:00:00 | |
| DF8AY | 2026-08-31 11:51:13 | 51.56391 | 10.55802 | 70° | 69km/h | 3516m | -3.1m/s | -2.2°C | 0% | 0hPa | 5V | 00:00:00 | 00:00:00 | 00:00:00 | |
| DF8AY | 2026-08-31 11:51:00 | 51.56276 | 10.55302 | 69° | 69km/h | 3577m | -3.2m/s | -2.7°C | 0% | 0hPa | 5V | 00:00:00 | 00:00:00 | 00:00:00 | |
| DF2AP-13 | 2026-08-31 11:50:51 | 51.56264 | 10.55250 | 71° | 68km/h | 3586m | -3.2m/s | 0°C | 0% | 0hPa | 5V | 00:00:00 | 00:00:00 | 00:00:00 | |
| DF8AY | 2026-08-31 11:50:43 | 51.56210 | 10.55015 | 69° | 68km/h | 3612m | -3.4m/s | -3.1°C | 0% | 0hPa | 5V | 00:00:00 | 00:00:00 | 00:00:00 | |
| DF8AY | 2026-08-31 11:50:31 | 51.56132 | 10.54679 | 69° | 68km/h | 3654m | -3m/s | -3.4°C | 0% | 0hPa | 5V | 00:00:00 | 00:00:00 | 00:00:00 | |
| DF2AP-13 | 2026-08-31 11:50:21 | 51.56083 | 10.54474 | 70° | 68km/h | 3682m | -3.1m/s | 0°C | 0% | 0hPa | 5V | 00:00:00 | 00:00:00 | 00:00:00 | |
| DF8AY | 2026-08-31 11:50:19 | 51.56065 | 10.54398 | 69° | 68km/h | 3689m | -3m/s | -3.7°C | 0% | 0hPa | 5V | 00:00:00 | 00:00:00 | 00:00:00 | |
| DF8AY | 2026-08-31 11:50:08 | 51.55998 | 10.54120 | 69° | 66km/h | 3723m | -3.2m/s | -4°C | 0% | 0hPa | 5V | 00:00:00 | 00:00:00 | 00:00:00 | |
| DF8AY | 2026-08-31 11:49:57 | 51.55933 | 10.53842 | 69° | 68km/h | 3757m | -2.9m/s | -4.3°C | 0% | 0hPa | 5V | 00:00:00 | 00:00:00 | 00:00:00 | |
| DF2AP-13 | 2026-08-31 11:49:51 | 51.55903 | 10.53716 | 71° | 69km/h | 3776m | -3.1m/s | 0°C | 0% | 0hPa | 5V | 00:00:00 | 00:00:00 | 00:00:00 | |
| DF8AY | 2026-08-31 11:49:47 | 51.55835 | 10.53438 | 69° | 69km/h | 3807m | -3m/s | -4.7°C | 0% | 0hPa | 5V | 00:00:00 | 00:00:00 | 00:00:00 | |
| DF8AY | 2026-08-31 11:49:36 | 51.55802 | 10.53307 | 67° | 69km/h | 3822m | -3m/s | -4.9°C | 0% | 0hPa | 5V | 00:00:00 | 00:00:00 | 00:00:00 | |
| DF8AY | 2026-08-31 11:49:24 | 51.55715 | 10.52993 | 66° | 71km/h | 3858m | -3m/s | -5°C | 0% | 0hPa | 5V | 00:00:00 | 00:00:00 | 00:00:00 | |
| DF2AP-13 | 2026-08-31 11:49:21 | 51.55700 | 10.52940 | 65° | 71km/h | 3867m | -2.8m/s | 0°C | 0% | 0hPa | 5V | 00:00:00 | 00:00:00 | 00:00:00 | |
| DF8AY | 2026-08-31 11:49:12 | 51.55622 | 10.52679 | 64° | 71km/h | 3895m | -3.1m/s | -5.3°C | 0% | 0hPa | 5V | 00:00:00 | 00:00:00 | 00:00:00 | |
| DF8AY | 2026-08-31 11:49:00 | 51.55528 | 10.52366 | 64° | 71km/h | 3930m | -3m/s | -5.6°C | 0% | 0hPa | 5V | 00:00:00 | 00:00:00 | 00:00:00 | |
| DF2AP-13 | 2026-08-31 11:48:51 | 51.55464 | 10.52152 | 66° | 73km/h | 3957m | -2.7m/s | 0°C | 0% | 0hPa | 5V | 00:00:00 | 00:00:00 | 00:00:00 | |
| DF8AY | 2026-08-31 11:48:48 | 51.55432 | 10.52045 | 65° | 73km/h | 3966m | -3m/s | -5.9°C | 0% | 0hPa | 5V | 00:00:00 | 00:00:00 | 00:00:00 | |
| DF8AY | 2026-08-31 11:48:38 | 51.55355 | 10.51774 | 65° | 75km/h | 3998m | -2.9m/s | -6.1°C | 0% | 0hPa | 5V | 00:00:00 | 00:00:00 | 00:00:00 | |
| DF8AY | 2026-08-31 11:48:29 | 51.55238 | 10.51362 | 65° | 75km/h | 4040m | -2.7m/s | -6.5°C | 0% | 0hPa | 4.9V | 00:00:00 | 00:00:00 | 00:00:00 | |
| DF2AP-13 | 2026-08-31 11:48:21 | 51.55230 | 10.51335 | 66° | 75km/h | 4045m | -2.7m/s | 0°C | 0% | 0hPa | 5V | 00:00:00 | 00:00:00 | 00:00:00 | |
| DF8AY | 2026-08-31 11:48:12 | 51.55074 | 10.50777 | 66° | 75km/h | 4095m | -2.4m/s | -7°C | 0% | 0hPa | 5V | 00:00:00 | 00:00:00 | 00:00:00 | |
| DF8AY | 2026-08-31 11:47:51 | 51.54988 | 10.50464 | 67° | 77km/h | 4122m | -2.2m/s | -7.2°C | 0% | 0hPa | 5V | 00:00:00 | 00:00:00 | 00:00:00 | |
| DF2AP-13 | 2026-08-31 11:47:51 | 51.54995 | 10.50493 | 67° | 78km/h | 4122m | -2.2m/s | 0°C | 0% | 0hPa | 4.9V | 00:00:00 | 00:00:00 | 00:00:00 | |
| DF8AY | 2026-08-31 11:47:40 | 51.54835 | 10.49876 | 68° | 78km/h | 4164m | -1.9m/s | -7.5°C | 0% | 0hPa | 4.9V | 00:00:00 | 00:00:00 | 00:00:00 | |
| TFSTFS | 2026-08-31 11:47:38 | 51.54888 | 10.50084 | 69° | 78km/h | 4150m | -2.1m/s | -7.4°C | 0% | 0hPa | 4.9V | 00:00:00 | 00:00:00 | 00:00:00 | |
| DF8AY | 2026-08-31 11:47:27 | 51.54806 | 10.49756 | 68° | 80km/h | 4171m | -1.8m/s | -7.5°C | 0% | 0hPa | 4.9V | 00:00:00 | 00:00:00 | 00:00:00 | |
| THATR2-17 | 2026-08-31 11:47:23 | 51.54541 | 10.48769 | 65° | 80km/h | 4222m | 0m/s | 0°C | 0% | 0hPa | 4.9V | 00:00:00 | 00:00:00 | 00:00:00 | |
| DF2AP-13 | 2026-08-31 11:47:21 | 51.54766 | 10.49607 | 68° | 80km/h | 4182m | -1.5m/s | 0°C | 0% | 0hPa | 4.9V | 00:00:00 | 00:00:00 | 00:00:00 | |
| DF8AY | 2026-08-31 11:47:13 | 51.54601 | 10.48980 | 66° | 80km/h | 4212m | -1.4m/s | -7.8°C | 0% | 0hPa | 4.9V | 00:00:00 | 00:00:00 | 00:00:00 | |
| DF8AY | 2026-08-31 11:47:02 | 51.54566 | 10.48860 | 66° | 82km/h | 4218m | -1.3m/s | -7.9°C | 0% | 0hPa | 4.9V | 00:00:00 | 00:00:00 | 00:00:00 | |
| THATR2-17 | 2026-08-31 11:46:52 | 51.54507 | 10.48648 | 65° | 80km/h | 4227m | 0m/s | 0°C | 0% | 0hPa | 4.9V | 00:00:00 | 00:00:00 | 00:00:00 | |
| DF2AP-13 | 2026-08-31 11:46:51 | 51.54524 | 10.48708 | 66° | 84km/h | 4226m | -1.1m/s | 0°C | 0% | 0hPa | 4.9V | 00:00:00 | 00:00:00 | 00:00:00 | |
| DF8AY | 2026-08-31 11:46:48 | 51.54490 | 10.48587 | 66° | 82km/h | 4230m | -1m/s | -7.8°C | 0% | 0hPa | 4.9V | 00:00:00 | 00:00:00 | 00:00:00 | |
| DF8AY | 2026-08-31 11:46:37 | 51.54386 | 10.48221 | 65° | 84km/h | 4242m | -1m/s | -7.7°C | 0% | 0hPa | 4.9V | 00:00:00 | 00:00:00 | 00:00:00 | |
| DF8AY | 2026-08-31 11:46:26 | 51.54299 | 10.47908 | 66° | 84km/h | 4250m | -0.8m/s | -7.7°C | 0% | 0hPa | 4.9V | 00:00:00 | 00:00:00 | 00:00:00 | |
| DF2AP-13 | 2026-08-31 11:46:21 | 51.54265 | 10.47782 | 67° | 84km/h | 4255m | -0.8m/s | 0°C | 0% | 0hPa | 4.9V | 00:00:00 | 00:00:00 | 00:00:00 | |
| DF8AY | 2026-08-31 11:46:15 | 51.54204 | 10.47563 | 66° | 84km/h | 4260m | -0.7m/s | -7.7°C | 0% | 0hPa | 4.9V | 00:00:00 | 00:00:00 | 00:00:00 | |
| DF8AY | 2026-08-31 11:46:03 | 51.54098 | 10.47190 | 65° | 84km/h | 4269m | -0.7m/s | -7.7°C | 0% | 0hPa | 4.9V | 00:00:00 | 00:00:00 | 00:00:00 | |
| TFSTFS | 2026-08-31 11:45:53 | 51.54010 | 10.46880 | 66° | 84km/h | 4277m | -0.9m/s | -7.7°C | 0% | 0hPa | 4.9V | 00:00:00 | 00:00:00 | 00:00:00 | |
| DF8AY | 2026-08-31 11:45:52 | 51.54001 | 10.46849 | 65° | 84km/h | 4278m | -0.8m/s | -7.7°C | 0% | 0hPa | 4.9V | 00:00:00 | 00:00:00 | 00:00:00 | |
| DF2AP-13 | 2026-08-31 11:45:51 | 51.54001 | 10.46849 | 66° | 84km/h | 4279m | -0.8m/s | 0°C | 0% | 0hPa | 4.9V | 00:00:00 | 00:00:00 | 00:00:00 | |
| DF8AY | 2026-08-31 11:45:41 | 51.53850 | 10.46320 | 65° | 84km/h | 4291m | -0.7m/s | -7.7°C | 0% | 0hPa | 4.9V | 00:00:00 | 00:00:00 | 00:00:00 | |
| DF8AY | 2026-08-31 11:45:28 | 51.53761 | 10.46011 | 65° | 84km/h | 4299m | -0.8m/s | -7.7°C | 0% | 0hPa | 4.9V | 00:00:00 | 00:00:00 | 00:00:00 | |
| DF2AP-13 | 2026-08-31 11:45:21 | 51.53734 | 10.45917 | 66° | 82km/h | 4302m | -0.8m/s | 0°C | 0% | 0hPa | 4.9V | 00:00:00 | 00:00:00 | 00:00:00 | |
| DF8AY | 2026-08-31 11:45:18 | 51.53672 | 10.45700 | 65° | 84km/h | 4307m | -0.7m/s | -7.7°C | 0% | 0hPa | 4.9V | 00:00:00 | 00:00:00 | 00:00:00 | |
| DF8AY | 2026-08-31 11:45:12 | 51.53603 | 10.45455 | 65° | 84km/h | 4314m | -0.9m/s | -7.8°C | 0% | 0hPa | 4.9V | 00:00:00 | 00:00:00 | 00:00:00 | |
| DF8AY | 2026-08-31 11:44:56 | 51.53508 | 10.45122 | 65° | 82km/h | 4325m | -0.9m/s | -7.8°C | 0% | 0hPa | 4.9V | 00:00:00 | 00:00:00 | 00:00:00 | |
| DF2AP-13 | 2026-08-31 11:44:51 | 51.53474 | 10.45001 | 66° | 80km/h | 4330m | -0.9m/s | 0°C | 0% | 0hPa | 4.9V | 00:00:00 | 00:00:00 | 00:00:00 | |
| DF8AY | 2026-08-31 11:44:46 | 51.53381 | 10.44669 | 66° | 80km/h | 4341m | -1.3m/s | -7.9°C | 0% | 0hPa | 4.9V | 00:00:00 | 00:00:00 | 00:00:00 | |
| DF8AY | 2026-08-31 11:44:31 | 51.53290 | 10.44341 | 66° | 80km/h | 4355m | -1.2m/s | -7.9°C | 0% | 0hPa | 4.9V | 00:00:00 | 00:00:00 | 00:00:00 | |
| DF8AY | 2026-08-31 11:44:21 | 51.53217 | 10.44071 | 67° | 80km/h | 4367m | -1.5m/s | -7.9°C | 0% | 0hPa | 4.9V | 00:00:00 | 00:00:00 | 00:00:00 | |
| DF2AP-13 | 2026-08-31 11:44:21 | 51.53225 | 10.44101 | 67° | 80km/h | 4367m | -1.4m/s | 0°C | 0% | 0hPa | 4.9V | 00:00:00 | 00:00:00 | 00:00:00 | |
| DF8AY | 2026-08-31 11:44:11 | 51.53135 | 10.43770 | 67° | 82km/h | 4383m | -1.6m/s | -8°C | 0% | 0hPa | 4.9V | 00:00:00 | 00:00:00 | 00:00:00 | |
| DF8AY | 2026-08-31 11:44:00 | 51.53045 | 10.43439 | 66° | 80km/h | 4401m | -1.7m/s | -8.1°C | 0% | 0hPa | 4.9V | 00:00:00 | 00:00:00 | 00:00:00 | |
| DF2AP-13 | 2026-08-31 11:43:51 | 51.52978 | 10.43201 | 67° | 78km/h | 4417m | -1.7m/s | 0°C | 0% | 0hPa | 4.9V | 00:00:00 | 00:00:00 | 00:00:00 | |
| DF8AY | 2026-08-31 11:43:50 | 51.52962 | 10.43142 | 66° | 78km/h | 4418m | -1.8m/s | -8.2°C | 0% | 0hPa | 4.9V | 00:00:00 | 00:00:00 | 00:00:00 | |
| DF8AY | 2026-08-31 11:43:39 | 51.52829 | 10.42678 | 65° | 78km/h | 4450m | -2.3m/s | -8.4°C | 0% | 0hPa | 4.9V | 00:00:00 | 00:00:00 | 00:00:00 | |
| DF8AY | 2026-08-31 11:43:23 | 51.52732 | 10.42365 | 64° | 78km/h | 4473m | -2.1m/s | -8.5°C | 0% | 0hPa | 4.9V | 00:00:00 | 00:00:00 | 00:00:00 | |
| DF2AP-13 | 2026-08-31 11:43:21 | 51.52724 | 10.42336 | 64° | 77km/h | 4477m | -2.0m/s | 0°C | 0% | 0hPa | 4.9V | 00:00:00 | 00:00:00 | 00:00:00 | |
| DF8AY | 2026-08-31 11:43:11 | 51.52627 | 10.42027 | 64° | 77km/h | 4499m | -2.3m/s | -8.6°C | 0% | 0hPa | 4.9V | 00:00:00 | 00:00:00 | 00:00:00 | |
| DF8AY | 2026-08-31 11:43:01 | 51.52460 | 10.41468 | 64° | 77km/h | 4545m | -2.2m/s | -8.9°C | 0% | 0hPa | 4.9V | 00:00:00 | 00:00:00 | 00:00:00 | |
| DF2AP-13 | 2026-08-31 11:42:51 | 51.52469 | 10.41496 | 64° | 77km/h | 4545m | -2.2m/s | 0°C | 0% | 0hPa | 4.9V | 00:00:00 | 00:00:00 | 00:00:00 | |
| THATR2-17 | 2026-08-31 11:42:43 | 51.52162 | 10.40534 | 61° | 77km/h | 4631m | 0m/s | 0°C | 0% | 0hPa | 4.9V | 00:00:00 | 00:00:00 | 00:00:00 | |
| DF8AY | 2026-08-31 11:42:38 | 51.52352 | 10.41109 | 63° | 75km/h | 4576m | -2.4m/s | -9.2°C | 0% | 0hPa | 4.9V | 00:00:00 | 00:00:00 | 00:00:00 | |
| DF8AY | 2026-08-31 11:42:27 | 51.52253 | 10.40809 | 61° | 77km/h | 4604m | -2.6m/s | -9.3°C | 0% | 0hPa | 4.9V | 00:00:00 | 00:00:00 | 00:00:00 | |
| DF2AP-13 | 2026-08-31 11:42:21 | 51.52207 | 10.40674 | 62° | 78km/h | 4620m | -2.6m/s | 0°C | 0% | 0hPa | 4.9V | 00:00:00 | 00:00:00 | 00:00:00 | |
| DF8AY | 2026-08-31 11:42:16 | 51.52152 | 10.40506 | 62° | 78km/h | 4634m | -2.7m/s | -9.4°C | 0% | 0hPa | 4.9V | 00:00:00 | 00:00:00 | 00:00:00 | |
| THATR2-17 | 2026-08-31 11:42:12 | 51.52115 | 10.40394 | 61° | 78km/h | 4644m | 0m/s | 0°C | 0% | 0hPa | 4.8V | 00:00:00 | 00:00:00 | 00:00:00 | |
| DF8AY | 2026-08-31 11:42:06 | 51.52057 | 10.40225 | 61° | 80km/h | 4661m | -2.6m/s | -9.5°C | 0% | 0hPa | 4.8V | 00:00:00 | 00:00:00 | 00:00:00 | |
| DF8AY | 2026-08-31 11:41:55 | 51.51951 | 10.39915 | 62° | 78km/h | 4691m | -2.8m/s | -9.5°C | 0% | 0hPa | 4.8V | 00:00:00 | 00:00:00 | 00:00:00 | |
| DF2AP-13 | 2026-08-31 11:41:51 | 51.51923 | 10.39830 | 63° | 80km/h | 4702m | -2.8m/s | 0°C | 0% | 0hPa | 4.9V | 00:00:00 | 00:00:00 | 00:00:00 | |
| TFSTFS | 2026-08-31 11:41:50 | 51.51914 | 10.39801 | 63° | 78km/h | 4702m | -2.8m/s | 0°C | 0% | 0hPa | 4.9V | 00:00:00 | 00:00:00 | 00:00:00 | |
| DF8AY | 2026-08-31 11:41:44 | 51.51849 | 10.39602 | 63° | 78km/h | 4721m | -2.9m/s | -9.5°C | 0% | 0hPa | 4.9V | 00:00:00 | 00:00:00 | 00:00:00 | |
| DF8AY | 2026-08-31 11:41:35 | 51.51757 | 10.39314 | 63° | 80km/h | 4750m | -2.7m/s | -9.5°C | 0% | 0hPa | 4.8V | 00:00:00 | 00:00:00 | 00:00:00 | |
| DF8AY | 2026-08-31 11:41:23 | 51.51657 | 10.38991 | 63° | 80km/h | 4781m | -3m/s | -9.7°C | 0% | 0hPa | 4.8V | 00:00:00 | 00:00:00 | 00:00:00 | |
| DF2AP-13 | 2026-08-31 11:41:21 | 51.51648 | 10.38962 | 64° | 82km/h | 4787m | -2.9m/s | 0°C | 0% | 0hPa | 4.8V | 00:00:00 | 00:00:00 | 00:00:00 | |
| DF8AY | 2026-08-31 11:41:13 | 51.51560 | 10.38670 | 63° | 82km/h | 4815m | -3m/s | -9.9°C | 0% | 0hPa | 4.8V | 00:00:00 | 00:00:00 | 00:00:00 | |
| DF8AY | 2026-08-31 11:41:01 | 51.51456 | 10.38342 | 62° | 82km/h | 4849m | -3.1m/s | -10.2°C | 0% | 0hPa | 4.8V | 00:00:00 | 00:00:00 | 00:00:00 | |
| DF2AP-13 | 2026-08-31 11:40:51 | 51.51371 | 10.38075 | 65° | 84km/h | 4880m | -2.9m/s | 0°C | 0% | 0hPa | 4.8V | 00:00:00 | 00:00:00 | 00:00:00 | |
| DF8AY | 2026-08-31 11:40:50 | 51.51353 | 10.38015 | 64° | 84km/h | 4883m | -3m/s | -10.4°C | 0% | 0hPa | 4.8V | 00:00:00 | 00:00:00 | 00:00:00 | |
| DF8AY | 2026-08-31 11:40:38 | 51.51198 | 10.37532 | 63° | 86km/h | 4933m | -3m/s | -10.8°C | 0% | 0hPa | 4.8V | 00:00:00 | 00:00:00 | 00:00:00 | |
| DF8AY | 2026-08-31 11:40:27 | 51.51081 | 10.37165 | 63° | 86km/h | 4970m | -3m/s | -11.1°C | 0% | 0hPa | 4.8V | 00:00:00 | 00:00:00 | 00:00:00 | |
| DF2AP-13 | 2026-08-31 11:40:21 | 51.51081 | 10.37165 | 63° | 86km/h | 4973m | -2.9m/s | 0°C | 0% | 0hPa | 4.8V | 00:00:00 | 00:00:00 | 00:00:00 | |
| DF8AY | 2026-08-31 11:40:11 | 51.50971 | 10.36826 | 64° | 86km/h | 5004m | -3m/s | -11.4°C | 0% | 0hPa | 4.8V | 00:00:00 | 00:00:00 | 00:00:00 | |
| TFSTFS | 2026-08-31 11:40:05 | 51.50922 | 10.36670 | 64° | 86km/h | 5019m | -3.2m/s | -11.5°C | 0% | 0hPa | 4.8V | 00:00:00 | 00:00:00 | 00:00:00 | |
| DF8AY | 2026-08-31 11:40:01 | 51.50871 | 10.36516 | 62° | 86km/h | 5035m | -3.1m/s | -11.6°C | 0% | 0hPa | 4.8V | 00:00:00 | 00:00:00 | 00:00:00 | |
| DF8AY | 2026-08-31 11:39:51 | 51.50760 | 10.36175 | 61° | 86km/h | 5070m | -3.2m/s | -11.9°C | 0% | 0hPa | 4.8V | 00:00:00 | 00:00:00 | 00:00:00 | |
| DF2AP-13 | 2026-08-31 11:39:51 | 51.50780 | 10.36236 | 62° | 86km/h | 5067m | -3.1m/s | 0°C | 0% | 0hPa | 4.8V | 00:00:00 | 00:00:00 | 00:00:00 | |
| DF8AY | 2026-08-31 11:39:39 | 51.50647 | 10.35835 | 61° | 86km/h | 5106m | -3m/s | -12.2°C | 0% | 0hPa | 4.8V | 00:00:00 | 00:00:00 | 00:00:00 | |
| DF8AY | 2026-08-31 11:39:28 | 51.50532 | 10.35498 | 61° | 86km/h | 5139m | -3.2m/s | -12.5°C | 0% | 0hPa | 4.8V | 00:00:00 | 00:00:00 | 00:00:00 | |
| DF2AP-13 | 2026-08-31 11:39:21 | 51.50469 | 10.35314 | 62° | 88km/h | 5161m | -3.0m/s | 0°C | 0% | 0hPa | 4.8V | 00:00:00 | 00:00:00 | 00:00:00 | |
| DF8AY | 2026-08-31 11:39:18 | 51.50427 | 10.35191 | 61° | 86km/h | 5171m | -3.1m/s | -12.8°C | 0% | 0hPa | 4.8V | 00:00:00 | 00:00:00 | 00:00:00 | |
| TFSTFS | 2026-08-31 11:39:09 | 51.50330 | 10.34915 | 62° | 88km/h | 5198m | -3.0m/s | -13.0°C | 0% | 0hPa | 4.8V | 00:00:00 | 00:00:00 | 00:00:00 | |
| DF8AY | 2026-08-31 11:39:07 | 51.50309 | 10.34853 | 60° | 88km/h | 5204m | -3.1m/s | -13.1°C | 0% | 0hPa | 4.8V | 00:00:00 | 00:00:00 | 00:00:00 | |
| THATR2-17 | 2026-08-31 11:39:06 | 51.50211 | 10.34577 | 60° | 86km/h | 5232m | 0m/s | 0°C | 0% | 0hPa | 4.8V | 00:00:00 | 00:00:00 | 00:00:00 | |
| DF8AY | 2026-08-31 11:38:55 | 51.50179 | 10.34484 | 60° | 88km/h | 5242m | -3.1m/s | -13.4°C | 0% | 0hPa | 4.8V | 00:00:00 | 00:00:00 | 00:00:00 | |
| DF2AP-13 | 2026-08-31 11:38:51 | 51.50146 | 10.34391 | 61° | 88km/h | 5255m | -3.0m/s | 0°C | 0% | 0hPa | 4.8V | 00:00:00 | 00:00:00 | 00:00:00 | |
| DF8AY | 2026-08-31 11:38:43 | 51.50046 | 10.34113 | 60° | 89km/h | 5280m | -3.2m/s | -13.7°C | 0% | 0hPa | 4.8V | 00:00:00 | 00:00:00 | 00:00:00 | |
| DF8AY | 2026-08-31 11:38:32 | 51.49923 | 10.33771 | 60° | 89km/h | 5316m | -3.1m/s | -13.9°C | 0% | 0hPa | 4.8V | 00:00:00 | 00:00:00 | 00:00:00 | |
| DL1NUX | 2026-08-31 11:38:23 | 51.49776 | 10.33367 | 59° | 88km/h | 5370m | -3m/s | 0°C | 0% | 0hPa | 0V | 00:00:00 | 00:00:00 | 00:00:00 | |
| DF8AY | 2026-08-31 11:38:22 | 51.49810 | 10.33460 | 60° | 89km/h | 5348m | -3.1m/s | -14.2°C | 0% | 0hPa | 4.8V | 00:00:00 | 00:00:00 | 00:00:00 | |
| DF2AP-13 | 2026-08-31 11:38:21 | 51.49810 | 10.33460 | 60° | 89km/h | 5351m | -3.1m/s | 0°C | 0% | 0hPa | 4.8V | 00:00:00 | 00:00:00 | 00:00:00 | |
| SO1NDE-10 | 2026-08-31 11:38:18 | 51.49776 | 10.33367 | 60° | 89km/h | 5370m | -3.0m/s | 0°C | 0% | 0hPa | 4.8V | 00:00:00 | 00:00:00 | 00:00:00 | |
| DF8AY | 2026-08-31 11:38:11 | 51.49695 | 10.33151 | 59° | 89km/h | 5379m | -3m/s | -14.5°C | 0% | 0hPa | 4.8V | 00:00:00 | 00:00:00 | 00:00:00 | |
| DL1NUX | 2026-08-31 11:38:09 | 51.49614 | 10.32936 | 58° | 88km/h | 5400m | -3m/s | 0°C | 0% | 0hPa | 0V | 00:00:00 | 00:00:00 | 00:00:00 | |
| THATR2-17 | 2026-08-31 11:38:04 | 51.49335 | 10.32193 | 59° | 88km/h | 5473m | 0m/s | 0°C | 0% | 0hPa | 4.8V | 00:00:00 | 00:00:00 | 00:00:00 | |
| DF8AY | 2026-08-31 11:38:01 | 51.49567 | 10.32814 | 58° | 89km/h | 5412m | -2.9m/s | -14.8°C | 0% | 0hPa | 4.8V | 00:00:00 | 00:00:00 | 00:00:00 | |
| AM1SDL-15 | 2026-08-31 11:37:58 | 51.49544 | 10.32752 | 59° | 89km/h | 5418m | -3.1m/s | 0°C | 0% | 0hPa | 4.7V | 00:00:00 | 00:00:00 | 00:00:00 | |
| DF2AP-13 | 2026-08-31 11:37:51 | 51.49462 | 10.32535 | 59° | 89km/h | 5443m | -2.9m/s | 0°C | 0% | 0hPa | 4.7V | 00:00:00 | 00:00:00 | 00:00:00 | |
| DF8AY | 2026-08-31 11:37:50 | 51.49439 | 10.32474 | 59° | 89km/h | 5446m | -3.1m/s | -15°C | 0% | 0hPa | 4.7V | 00:00:00 | 00:00:00 | 00:00:00 | |
| DL1NUX | 2026-08-31 11:37:43 | 51.49323 | 10.32162 | 59° | 89km/h | 5479m | -3m/s | 0°C | 0% | 0hPa | 0V | 00:00:00 | 00:00:00 | 00:00:00 | |
| AM1SDL-15 | 2026-08-31 11:37:42 | 51.49357 | 10.32256 | 60° | 89km/h | 5485m | -3.1m/s | 0°C | 0% | 0hPa | 4.8V | 00:00:00 | 00:00:00 | 00:00:00 | |
| DF8AY | 2026-08-31 11:37:39 | 51.49311 | 10.32131 | 59° | 89km/h | 5479m | -3m/s | -15.3°C | 0% | 0hPa | 4.8V | 00:00:00 | 00:00:00 | 00:00:00 | |
| THATR2-17 | 2026-08-31 11:37:33 | 51.49242 | 10.31944 | 59° | 88km/h | 5497m | 0m/s | 0°C | 0% | 0hPa | 0V | 00:00:00 | 00:00:00 | 00:00:00 | |
| DL1NUX | 2026-08-31 11:37:29 | 51.49208 | 10.31851 | 59° | 89km/h | 5510m | -3m/s | 0°C | 0% | 0hPa | 0V | 00:00:00 | 00:00:00 | 00:00:00 | |
| DF8AY | 2026-08-31 11:37:28 | 51.49185 | 10.31788 | 60° | 89km/h | 5513m | -2.9m/s | -15.6°C | 0% | 0hPa | 4.8V | 00:00:00 | 00:00:00 | 00:00:00 | |
| DL1NUX | 2026-08-31 11:37:23 | 51.49094 | 10.31535 | 60° | 89km/h | 5539m | -2.9m/s | 0°C | 0% | 0hPa | 0V | 00:00:00 | 00:00:00 | 00:00:00 | |
| DF2AP-13 | 2026-08-31 11:37:21 | 51.49116 | 10.31598 | 61° | 91km/h | 5533m | -3.0m/s | 0°C | 0% | 0hPa | 4.8V | 00:00:00 | 00:00:00 | 00:00:00 | |
| SO1NDE-10 | 2026-08-31 11:37:20 | 51.49105 | 10.31566 | 61° | 91km/h | 5536m | -2.9m/s | 0°C | 0% | 0hPa | 4.8V | 00:00:00 | 00:00:00 | 00:00:00 | |
| DF8AY | 2026-08-31 11:37:17 | 51.49060 | 10.31439 | 61° | 91km/h | 5545m | -2.8m/s | -15.9°C | 0% | 0hPa | 4.8V | 00:00:00 | 00:00:00 | 00:00:00 | |
| AM1SDL-15 | 2026-08-31 11:37:14 | 51.49037 | 10.31375 | 61° | 91km/h | 5567m | -2.8m/s | 0°C | 0% | 0hPa | 0V | 00:00:00 | 00:00:00 | 00:00:00 | |
| DL1NUX | 2026-08-31 11:37:09 | 51.48968 | 10.31181 | 59° | 91km/h | 5573m | -3m/s | 0°C | 0% | 0hPa | 0V | 00:00:00 | 00:00:00 | 00:00:00 | |
| DF8AY | 2026-08-31 11:37:06 | 51.48934 | 10.31085 | 60° | 91km/h | 5579m | -2.8m/s | -16.1°C | 0% | 0hPa | 4.8V | 00:00:00 | 00:00:00 | 00:00:00 | |
| DL1NUX | 2026-08-31 11:37:02 | 51.48840 | 10.30825 | 59° | 93km/h | 5608m | -2.9m/s | 0°C | 0% | 0hPa | 0V | 00:00:00 | 00:00:00 | 00:00:00 | |
| DF8AY | 2026-08-31 11:36:55 | 51.48805 | 10.30728 | 60° | 91km/h | 5611m | -2.9m/s | -16.4°C | 0% | 0hPa | 4.8V | 00:00:00 | 00:00:00 | 00:00:00 | |
| DF2AP-13 | 2026-08-31 11:36:51 | 51.48769 | 10.30632 | 60° | 93km/h | 5623m | -2.9m/s | 0°C | 0% | 0hPa | 0V | 00:00:00 | 00:00:00 | 00:00:00 | |
| SO1NDE-10 | 2026-08-31 11:36:50 | 51.48758 | 10.30599 | 60° | 95km/h | 5629m | -2.9m/s | 0°C | 0% | 0hPa | 0V | 00:00:00 | 00:00:00 | 00:00:00 | |
| DL1NUX | 2026-08-31 11:36:49 | 51.48711 | 10.30470 | 59° | 91km/h | 5644m | -2.9m/s | 0°C | 0% | 0hPa | 0V | 00:00:00 | 00:00:00 | 00:00:00 | |
| AM1SDL-15 | 2026-08-31 11:36:49 | 51.48746 | 10.30567 | 60° | 91km/h | 5626m | -2.9m/s | 0°C | 0% | 0hPa | 4.7V | 00:00:00 | 00:00:00 | 00:00:00 | |
| DF8AY | 2026-08-31 11:36:45 | 51.48688 | 10.30405 | 60° | 93km/h | 5641m | -2.9m/s | -16.6°C | 0% | 0hPa | 4.7V | 00:00:00 | 00:00:00 | 00:00:00 | |
| AM1SDL-15 | 2026-08-31 11:36:36 | 51.48594 | 10.30147 | 61° | 93km/h | 5668m | -3.0m/s | 0°C | 0% | 0hPa | 4.7V | 00:00:00 | 00:00:00 | 00:00:00 | |
| DF8AY | 2026-08-31 11:36:35 | 51.48571 | 10.30082 | 60° | 91km/h | 5671m | -3m/s | -16.8°C | 0% | 0hPa | 4.7V | 00:00:00 | 00:00:00 | 00:00:00 | |
| DF8AY | 2026-08-31 11:36:24 | 51.48443 | 10.29725 | 61° | 93km/h | 5703m | -3m/s | -17.1°C | 0% | 0hPa | 4.7V | 00:00:00 | 00:00:00 | 00:00:00 | |
| DF2AP-13 | 2026-08-31 11:36:21 | 51.48420 | 10.29660 | 61° | 93km/h | 5713m | -2.8m/s | 0°C | 0% | 0hPa | 4.7V | 00:00:00 | 00:00:00 | 00:00:00 | |
| DF8AY | 2026-08-31 11:36:13 | 51.48210 | 10.29069 | 60° | 93km/h | 5762m | -2.8m/s | -17.7°C | 0% | 0hPa | 4.7V | 00:00:00 | 00:00:00 | 00:00:00 | |
| AM1SDL-15 | 2026-08-31 11:36:09 | 51.48280 | 10.29266 | 61° | 93km/h | 5748m | -2.7m/s | 0°C | 0% | 0hPa | 4.7V | 00:00:00 | 00:00:00 | 00:00:00 | |
| TFSTFS | 2026-08-31 11:36:03 | 51.48210 | 10.29069 | 61° | 93km/h | 5762m | -2.8m/s | 0°C | 0% | 0hPa | 4.7V | 00:00:00 | 00:00:00 | 00:00:00 | |
| DF8AY | 2026-08-31 11:35:58 | 51.48140 | 10.28872 | 60° | 95km/h | 5779m | -2.8m/s | -17.8°C | 0% | 0hPa | 4.7V | 00:00:00 | 00:00:00 | 00:00:00 | |
| DF2AP-13 | 2026-08-31 11:35:51 | 51.48068 | 10.28675 | 60° | 93km/h | 5799m | -2.6m/s | 0°C | 0% | 0hPa | 4.7V | 00:00:00 | 00:00:00 | 00:00:00 | |
| DF8AY | 2026-08-31 11:35:47 | 51.48009 | 10.28512 | 60° | 93km/h | 5810m | -2.6m/s | -18.1°C | 0% | 0hPa | 4.7V | 00:00:00 | 00:00:00 | 00:00:00 | |
| AM1SDL-15 | 2026-08-31 11:35:45 | 51.47997 | 10.28479 | 60° | 93km/h | 5816m | -2.6m/s | 0°C | 0% | 0hPa | 4.7V | 00:00:00 | 00:00:00 | 00:00:00 | |
| DF8AY | 2026-08-31 11:35:36 | 51.47875 | 10.28152 | 59° | 93km/h | 5840m | -2.6m/s | -18.4°C | 0% | 0hPa | 4.7V | 00:00:00 | 00:00:00 | 00:00:00 | |
| AM1SDL-15 | 2026-08-31 11:35:30 | 51.47814 | 10.27988 | 60° | 95km/h | 5855m | -2.5m/s | 0°C | 0% | 0hPa | 4.7V | 00:00:00 | 00:00:00 | 00:00:00 | |
| DF8AY | 2026-08-31 11:35:25 | 51.47741 | 10.27791 | 59° | 93km/h | 5869m | -2.5m/s | -18.6°C | 0% | 0hPa | 4.7V | 00:00:00 | 00:00:00 | 00:00:00 | |
| DF2AP-13 | 2026-08-31 11:35:21 | 51.47705 | 10.27692 | 60° | 95km/h | 5879m | -2.6m/s | 0°C | 0% | 0hPa | 0V | 00:00:00 | 00:00:00 | 00:00:00 | |
| DL1NUX | 2026-08-31 11:35:15 | 51.47583 | 10.27361 | 59° | 95km/h | 5928m | -2.6m/s | 0°C | 0% | 0hPa | 0V | 00:00:00 | 00:00:00 | 00:00:00 | |
| DF8AY | 2026-08-31 11:35:14 | 51.47607 | 10.27428 | 59° | 95km/h | 5897m | -2.5m/s | -18.8°C | 0% | 0hPa | 4.7V | 00:00:00 | 00:00:00 | 00:00:00 | |
| DF8AY | 2026-08-31 11:35:03 | 51.47473 | 10.27063 | 59° | 95km/h | 5925m | -2.4m/s | -19.1°C | 0% | 0hPa | 4.7V | 00:00:00 | 00:00:00 | 00:00:00 | |
| DF8AY | 2026-08-31 11:34:53 | 51.47349 | 10.26734 | 59° | 95km/h | 5951m | -2.4m/s | -19.3°C | 0% | 0hPa | 4.7V | 00:00:00 | 00:00:00 | 00:00:00 | |
| DF2AP-13 | 2026-08-31 11:34:52 | 51.47336 | 10.26701 | 59° | 95km/h | 5955m | -2.3m/s | 0°C | 0% | 0hPa | 4.7V | 00:00:00 | 00:00:00 | 00:00:00 | |
| DF8AY | 2026-08-31 11:34:42 | 51.47212 | 10.26375 | 58° | 95km/h | 5977m | -2.4m/s | -19.5°C | 0% | 0hPa | 4.7V | 00:00:00 | 00:00:00 | 00:00:00 | |
| DF8AY | 2026-08-31 11:34:31 | 51.47073 | 10.26013 | 59° | 95km/h | 6002m | -2.3m/s | -19.8°C | 0% | 0hPa | 4.7V | 00:00:00 | 00:00:00 | 00:00:00 | |
| THATR2-17 | 2026-08-31 11:34:26 | 51.46935 | 10.25648 | 58° | 95km/h | 6029m | 0m/s | 0°C | 0% | 0hPa | 4.7V | 00:00:00 | 00:00:00 | 00:00:00 | |
| DF8AY | 2026-08-31 11:34:21 | 51.46948 | 10.25681 | 59° | 97km/h | 6027m | -2.2m/s | -20°C | 0% | 0hPa | 4.7V | 00:00:00 | 00:00:00 | 00:00:00 | |
| DF2AP-13 | 2026-08-31 11:34:21 | 51.46960 | 10.25715 | 59° | 97km/h | 6027m | -2.2m/s | 0°C | 0% | 0hPa | 4.7V | 00:00:00 | 00:00:00 | 00:00:00 | |
| DF8AY | 2026-08-31 11:34:10 | 51.46810 | 10.25315 | 59° | 95km/h | 6051m | -2.1m/s | -20.2°C | 0% | 0hPa | 4.7V | 00:00:00 | 00:00:00 | 00:00:00 | |
| DF8AY | 2026-08-31 11:34:00 | 51.46683 | 10.24985 | 59° | 97km/h | 6074m | -2.2m/s | -20.4°C | 0% | 0hPa | 4.7V | 00:00:00 | 00:00:00 | 00:00:00 | |
| DB0NH | 2026-08-31 11:33:52 | 51.46594 | 10.24753 | 59° | 95km/h | 6097m | -2.1m/s | 0°C | 0% | 0hPa | 6.8V | 00:00:00 | 00:00:00 | 00:00:00 | |
| DF2AP-13 | 2026-08-31 11:33:51 | 51.46581 | 10.24720 | 59° | 95km/h | 6094m | -2.1m/s | 0°C | 0% | 0hPa | 6.8V | 00:00:00 | 00:00:00 | 00:00:00 | |
| DF8AY | 2026-08-31 11:33:50 | 51.46543 | 10.24621 | 58° | 97km/h | 6099m | -2.1m/s | -20.6°C | 0% | 0hPa | 6.8V | 00:00:00 | 00:00:00 | 00:00:00 | |
| DL1NUX | 2026-08-31 11:33:39 | 51.46414 | 10.24291 | 58° | 97km/h | 6150m | -2.2m/s | 0°C | 0% | 0hPa | 0V | 00:00:00 | 00:00:00 | 00:00:00 | |
| DF8AY | 2026-08-31 11:33:37 | 51.46388 | 10.24225 | 58° | 97km/h | 6126m | -2.2m/s | -20.8°C | 0% | 0hPa | 4.7V | 00:00:00 | 00:00:00 | 00:00:00 | |
| HSKMA3-T | 2026-08-31 11:33:33 | 50.96709 | 8.94363 | 1° | 16km/h | 18731m | -6.5m/s | -49.3°C | 0% | 0hPa | 4.6V | 00:00:00 | 00:00:00 | 00:00:00 | |
| DL1NUX | 2026-08-31 11:33:29 | 51.46246 | 10.23864 | 57° | 97km/h | 0m | -245.4m/s | 0°C | 0% | 0hPa | 0V | 00:00:00 | 00:00:00 | 00:00:00 | |
| DF8AY | 2026-08-31 11:33:26 | 51.46247 | 10.23864 | 58° | 97km/h | 6150m | -2.2m/s | -21°C | 0% | 0hPa | 4.7V | 00:00:00 | 00:00:00 | 00:00:00 | |
| HSKMA3-T | 2026-08-31 11:33:22 | 50.96626 | 8.94233 | 93° | 38km/h | 18798m | -6.7m/s | 0°C | 0% | 0hPa | 4.6V | 00:00:00 | 00:00:00 | 00:00:00 | |
| DF2AP-13 | 2026-08-31 11:33:21 | 51.46195 | 10.23733 | 59° | 95km/h | 6161m | -2.1m/s | 0°C | 0% | 0hPa | 0V | 00:00:00 | 00:00:00 | 00:00:00 | |
| DL1NUX | 2026-08-31 11:33:20 | 51.46170 | 10.23667 | 58° | 95km/h | 6168m | -2.1m/s | 0°C | 0% | 0hPa | 0V | 00:00:00 | 00:00:00 | 00:00:00 | |
| DF8AY | 2026-08-31 11:33:16 | 51.46119 | 10.23536 | 58° | 95km/h | 6172m | -2.1m/s | -21.2°C | 0% | 0hPa | 4.7V | 00:00:00 | 00:00:00 | 00:00:00 | |
| SO1NDE-10 | 2026-08-31 11:33:15 | 51.46119 | 10.23536 | 58° | 95km/h | 6176m | -2.1m/s | 0°C | 0% | 0hPa | 4.6V | 00:00:00 | 00:00:00 | 00:00:00 | |
| DB0NH | 2026-08-31 11:33:14 | 51.46106 | 10.23503 | 58° | 97km/h | 6176m | -2.1m/s | 0°C | 0% | 0hPa | 4.6V | 00:00:00 | 00:00:00 | 00:00:00 | |
| HSKMA3-T | 2026-08-31 11:33:10 | 50.96542 | 8.94068 | 86° | 40km/h | 18886m | -6.7m/s | 0°C | 0% | 0hPa | 4.6V | 00:00:00 | 00:00:00 | 00:00:00 | |
| DL1NUX | 2026-08-31 11:33:09 | 51.46043 | 10.23340 | 58° | 95km/h | 6188m | -2.1m/s | 0°C | 0% | 0hPa | 0V | 00:00:00 | 00:00:00 | 00:00:00 | |
| DF8AY | 2026-08-31 11:33:08 | 51.45953 | 10.23112 | 58° | 95km/h | 6201m | -2.2m/s | -21.5°C | 0% | 0hPa | 4.7V | 00:00:00 | 00:00:00 | 00:00:00 | |
| DL1NUX | 2026-08-31 11:33:04 | 51.45915 | 10.23014 | 57° | 95km/h | 6210m | -2.2m/s | 0°C | 0% | 0hPa | 0V | 00:00:00 | 00:00:00 | 00:00:00 | |
| DF8AY | 2026-08-31 11:32:52 | 51.45813 | 10.22755 | 58° | 93km/h | 6227m | -2.2m/s | -21.7°C | 0% | 0hPa | 4.7V | 00:00:00 | 00:00:00 | 00:00:00 | |
| DF2AP-13 | 2026-08-31 11:32:51 | 51.45813 | 10.22755 | 58° | 97km/h | 6229m | -2.2m/s | 0°C | 0% | 0hPa | 0V | 00:00:00 | 00:00:00 | 00:00:00 | |
| DL1NUX | 2026-08-31 11:32:49 | 51.45788 | 10.22691 | 58° | 95km/h | 6234m | -2.2m/s | 0°C | 0% | 0hPa | 0V | 00:00:00 | 00:00:00 | 00:00:00 | |
| SO1NDE-10 | 2026-08-31 11:32:42 | 51.45698 | 10.22462 | 58° | 97km/h | 6250m | -2.2m/s | 0°C | 0% | 0hPa | 0V | 00:00:00 | 00:00:00 | 00:00:00 | |
| DL1NUX | 2026-08-31 11:32:39 | 51.45659 | 10.22364 | 57° | 97km/h | 6257m | -2.2m/s | 0°C | 0% | 0hPa | 0V | 00:00:00 | 00:00:00 | 00:00:00 | |
| HSKMA3-T | 2026-08-31 11:32:39 | 51.45646 | 10.22331 | 58° | 97km/h | 6257m | -2.3m/s | -22°C | 0% | 0hPa | 4.6V | 00:00:00 | 00:00:00 | 00:00:00 | |
| AM1SDL-15 | 2026-08-31 11:32:36 | 51.45620 | 10.22264 | 58° | 99km/h | 6276m | -2.4m/s | 0°C | 0% | 0hPa | 4.7V | 00:00:00 | 00:00:00 | 00:00:00 | |
| DF8AY | 2026-08-31 11:32:30 | 51.45543 | 10.22065 | 58° | 97km/h | 6276m | -2.4m/s | -22.2°C | 0% | 0hPa | 4.7V | 00:00:00 | 00:00:00 | 00:00:00 | |
| HSKMA3-T | 2026-08-31 11:32:22 | 51.45438 | 10.21796 | 58° | 99km/h | 6295m | -2.3m/s | -22.3°C | 0% | 0hPa | 0V | 00:00:00 | 00:00:00 | 00:00:00 | |
| DF2AP-13 | 2026-08-31 11:32:21 | 51.45425 | 10.21762 | 59° | 99km/h | 6300m | -2.3m/s | 0°C | 0% | 0hPa | 4.7V | 00:00:00 | 00:00:00 | 00:00:00 | |
| DF8AY | 2026-08-31 11:32:20 | 51.45399 | 10.21695 | 58° | 99km/h | 6303m | -2.4m/s | -22.4°C | 0% | 0hPa | 4.7V | 00:00:00 | 00:00:00 | 00:00:00 | |
| DL1NUX | 2026-08-31 11:32:19 | 51.45399 | 10.21695 | 57° | 99km/h | 6305m | -2.4m/s | 0°C | 0% | 0hPa | 0V | 00:00:00 | 00:00:00 | 00:00:00 | |
| AM1SDL-15 | 2026-08-31 11:32:17 | 51.45372 | 10.21627 | 58° | 99km/h | 6312m | -2.4m/s | 0°C | 0% | 0hPa | 4.6V | 00:00:00 | 00:00:00 | 00:00:00 | |
| SO1NDE-10 | 2026-08-31 11:32:12 | 51.45305 | 10.21458 | 59° | 99km/h | 6322m | -2.3m/s | 0°C | 0% | 0hPa | 4.6V | 00:00:00 | 00:00:00 | 00:00:00 | |
| HSKMA3-T | 2026-08-31 11:32:11 | 51.45279 | 10.21391 | 58° | 99km/h | 6324m | -2.3m/s | -22.6°C | 0% | 0hPa | 4.6V | 00:00:00 | 00:00:00 | 00:00:00 | |
| DF8AY | 2026-08-31 11:32:09 | 51.45252 | 10.21323 | 58° | 99km/h | 6329m | -2.6m/s | -22.6°C | 0% | 0hPa | 4.7V | 00:00:00 | 00:00:00 | 00:00:00 | |
| AM1SDL-15 | 2026-08-31 11:32:04 | 51.45199 | 10.21187 | 57° | 99km/h | 6342m | -2.3m/s | 0°C | 0% | 0hPa | 4.6V | 00:00:00 | 00:00:00 | 00:00:00 | |
| DF8AY | 2026-08-31 11:31:58 | 51.45104 | 10.20952 | 58° | 99km/h | 6358m | -2.4m/s | -22.8°C | 0% | 0hPa | 4.6V | 00:00:00 | 00:00:00 | 00:00:00 | |
| AM1SDL-15 | 2026-08-31 11:31:52 | 51.45037 | 10.20782 | 58° | 99km/h | 6373m | -2.5m/s | 0°C | 0% | 0hPa | 4.6V | 00:00:00 | 00:00:00 | 00:00:00 | |
| DF2AP-13 | 2026-08-31 11:31:51 | 51.45023 | 10.20749 | 58° | 99km/h | 6375m | -2.4m/s | 0°C | 0% | 0hPa | 4.6V | 00:00:00 | 00:00:00 | 00:00:00 | |
| DF8AY | 2026-08-31 11:31:47 | 51.44956 | 10.20580 | 58° | 99km/h | 6385m | -2.5m/s | -23°C | 0% | 0hPa | 4.6V | 00:00:00 | 00:00:00 | 00:00:00 | |
| AM1SDL-15 | 2026-08-31 11:31:40 | 51.44875 | 10.20374 | 58° | 99km/h | 6403m | -2.5m/s | 0°C | 0% | 0hPa | 4.6V | 00:00:00 | 00:00:00 | 00:00:00 | |
| DF8AY | 2026-08-31 11:31:37 | 51.44821 | 10.20239 | 58° | 99km/h | 6411m | -2.6m/s | -23.2°C | 0% | 0hPa | 4.6V | 00:00:00 | 00:00:00 | 00:00:00 | |
| AM1SDL-15 | 2026-08-31 11:31:28 | 51.44714 | 10.19965 | 58° | 100km/h | 6434m | -2.6m/s | 0°C | 0% | 0hPa | 4.6V | 00:00:00 | 00:00:00 | 00:00:00 | |
| DF8AY | 2026-08-31 11:31:26 | 51.44674 | 10.19863 | 57° | 99km/h | 6439m | -2.5m/s | -23.5°C | 0% | 0hPa | 4.6V | 00:00:00 | 00:00:00 | 00:00:00 | |
| DF2AP-13 | 2026-08-31 11:31:21 | 51.44621 | 10.19727 | 60° | 99km/h | 6453m | -2.4m/s | 0°C | 0% | 0hPa | 4.6V | 00:00:00 | 00:00:00 | 00:00:00 | |
| THATR2-17 | 2026-08-31 11:31:20 | 51.44286 | 10.18831 | 60° | 100km/h | 6520m | 0m/s | 0°C | 0% | 0hPa | 4.6V | 00:00:00 | 00:00:00 | 00:00:00 | |
| AM1SDL-15 | 2026-08-31 11:31:16 | 51.44556 | 10.19551 | 59° | 99km/h | 6466m | -2.6m/s | 0°C | 0% | 0hPa | 4.6V | 00:00:00 | 00:00:00 | 00:00:00 | |
| DF8AY | 2026-08-31 11:31:15 | 51.44529 | 10.19483 | 58° | 100km/h | 6469m | -2.6m/s | -23.8°C | 0% | 0hPa | 4.6V | 00:00:00 | 00:00:00 | 00:00:00 | |
| DF8AY | 2026-08-31 11:31:04 | 51.44391 | 10.19104 | 59° | 99km/h | 6498m | -2.5m/s | -24.1°C | 0% | 0hPa | 4.6V | 00:00:00 | 00:00:00 | 00:00:00 | |
| DF8AY | 2026-08-31 11:30:54 | 51.44261 | 10.18761 | 60° | 100km/h | 6525m | -2.6m/s | -24.2°C | 0% | 0hPa | 4.6V | 00:00:00 | 00:00:00 | 00:00:00 | |
| DF2AP-13 | 2026-08-31 11:30:51 | 51.44235 | 10.18690 | 60° | 99km/h | 6533m | -2.8m/s | 0°C | 0% | 0hPa | 4.6V | 00:00:00 | 00:00:00 | 00:00:00 | |
| THATR2-17 | 2026-08-31 11:30:49 | 51.44196 | 10.18589 | 57° | 99km/h | 6539m | 0m/s | 0°C | 0% | 0hPa | 4.6V | 00:00:00 | 00:00:00 | 00:00:00 | |
| DF8AY | 2026-08-31 11:30:43 | 51.44117 | 10.18386 | 58° | 99km/h | 6557m | -2.7m/s | -24.4°C | 0% | 0hPa | 4.6V | 00:00:00 | 00:00:00 | 00:00:00 | |
| DF8AY | 2026-08-31 11:30:33 | 51.43982 | 10.18048 | 57° | 99km/h | 6583m | -2.6m/s | -24.6°C | 0% | 0hPa | 4.6V | 00:00:00 | 00:00:00 | 00:00:00 | |
| DL1NUX | 2026-08-31 11:30:29 | 51.43942 | 10.17947 | 57° | 99km/h | 6594m | -2.7m/s | 0°C | 0% | 0hPa | 0V | 00:00:00 | 00:00:00 | 00:00:00 | |
| DF8AY | 2026-08-31 11:30:21 | 51.43820 | 10.17644 | 57° | 100km/h | 6615m | -2.6m/s | -24.8°C | 0% | 0hPa | 4.6V | 00:00:00 | 00:00:00 | 00:00:00 | |
| DF2AP-13 | 2026-08-31 11:30:21 | 51.43834 | 10.17678 | 58° | 100km/h | 6615m | -2.5m/s | 0°C | 0% | 0hPa | 0V | 00:00:00 | 00:00:00 | 00:00:00 | |
| DB0NH | 2026-08-31 11:30:17 | 51.43779 | 10.17541 | 58° | 104km/h | 6628m | -2.6m/s | 0°C | 0% | 0hPa | 0V | 00:00:00 | 00:00:00 | 00:00:00 | |
| DL1NUX | 2026-08-31 11:30:14 | 51.43671 | 10.17269 | 57° | 100km/h | 6646m | -2.6m/s | 0°C | 0% | 0hPa | 0V | 00:00:00 | 00:00:00 | 00:00:00 | |
| SO1NDE-10 | 2026-08-31 11:30:12 | 51.43712 | 10.17371 | 58° | 102km/h | 6646m | -2.5m/s | 0°C | 0% | 0hPa | 4.6V | 00:00:00 | 00:00:00 | 00:00:00 | |
| DF8AY | 2026-08-31 11:30:10 | 51.43671 | 10.17269 | 57° | 100km/h | 6644m | -2.7m/s | -25°C | 0% | 0hPa | 4.6V | 00:00:00 | 00:00:00 | 00:00:00 | |
| DF8AY | 2026-08-31 11:30:05 | 51.43533 | 10.16926 | 57° | 100km/h | 6670m | -2.5m/s | -25.2°C | 0% | 0hPa | 4.6V | 00:00:00 | 00:00:00 | 00:00:00 | |
| DL1NUX | 2026-08-31 11:30:02 | 51.43533 | 10.16926 | 56° | 100km/h | 0m | -286.4m/s | 0°C | 0% | 0hPa | 0V | 00:00:00 | 00:00:00 | 00:00:00 | |
| DL1NUX | 2026-08-31 11:29:57 | 51.43477 | 10.16788 | 57° | 102km/h | 0m | -286.4m/s | 0°C | 0% | 0hPa | 0V | 00:00:00 | 00:00:00 | 00:00:00 | |
| DL1NUX | 2026-08-31 11:29:52 | 51.43422 | 10.16649 | 57° | 102km/h | 6690m | -2.5m/s | 0°C | 0% | 0hPa | 0V | 00:00:00 | 00:00:00 | 00:00:00 | |
| DF2AP-13 | 2026-08-31 11:29:51 | 51.43421 | 10.16649 | 57° | 104km/h | 6692m | -2.5m/s | 0°C | 0% | 0hPa | 4.6V | 00:00:00 | 00:00:00 | 00:00:00 | |
| DF8AY | 2026-08-31 11:29:49 | 51.43379 | 10.16546 | 57° | 102km/h | 6698m | -2.4m/s | -25.4°C | 0% | 0hPa | 4.6V | 00:00:00 | 00:00:00 | 00:00:00 | |
| THATR2-17 | 2026-08-31 11:29:47 | 51.43266 | 10.16266 | 56° | 102km/h | 6718m | 0m/s | 0°C | 0% | 0hPa | 0V | 00:00:00 | 00:00:00 | 00:00:00 | |
| DL1NUX | 2026-08-31 11:29:42 | 51.43280 | 10.16301 | 57° | 104km/h | 6718m | -2.5m/s | 0°C | 0% | 0hPa | 0V | 00:00:00 | 00:00:00 | 00:00:00 | |
| SO1NDE-10 | 2026-08-31 11:29:41 | 51.43280 | 10.16301 | 58° | 104km/h | 6718m | -2.4m/s | 0°C | 0% | 0hPa | 4.6V | 00:00:00 | 00:00:00 | 00:00:00 | |
| DF8AY | 2026-08-31 11:29:38 | 51.43223 | 10.16160 | 57° | 102km/h | 6725m | -2.5m/s | -25.6°C | 0% | 0hPa | 4.6V | 00:00:00 | 00:00:00 | 00:00:00 | |
| DL1NUX | 2026-08-31 11:29:35 | 51.43137 | 10.15950 | 57° | 104km/h | 6742m | -2.5m/s | 0°C | 0% | 0hPa | 0V | 00:00:00 | 00:00:00 | 00:00:00 | |
| DF8AY | 2026-08-31 11:29:27 | 51.43066 | 10.15773 | 57° | 104km/h | 6753m | -2.5m/s | -25.9°C | 0% | 0hPa | 4.6V | 00:00:00 | 00:00:00 | 00:00:00 | |
| DL1NUX | 2026-08-31 11:29:22 | 51.42995 | 10.15598 | 57° | 102km/h | 6767m | -2.5m/s | 0°C | 0% | 0hPa | 0V | 00:00:00 | 00:00:00 | 00:00:00 | |
| DF2AP-13 | 2026-08-31 11:29:21 | 51.42995 | 10.15598 | 58° | 104km/h | 6767m | -2.4m/s | 0°C | 0% | 0hPa | 4.6V | 00:00:00 | 00:00:00 | 00:00:00 | |
| DL1XH-west | 2026-08-31 11:29:20 | 51.42980 | 10.15562 | 58° | 104km/h | 6767m | -2.5m/s | -26°C | 0% | 0hPa | 4.6V | 00:00:00 | 00:00:00 | 00:00:00 | |
| DF8AY | 2026-08-31 11:29:17 | 51.42924 | 10.15420 | 58° | 104km/h | 6777m | -2.5m/s | -26.1°C | 0% | 0hPa | 4.6V | 00:00:00 | 00:00:00 | 00:00:00 | |
| DL1NUX | 2026-08-31 11:29:14 | 51.42854 | 10.15243 | 56° | 102km/h | 6792m | -2.3m/s | 0°C | 0% | 0hPa | 0V | 00:00:00 | 00:00:00 | 00:00:00 | |
| SO1NDE-10 | 2026-08-31 11:29:11 | 51.42854 | 10.15243 | 57° | 104km/h | 6792m | -2.2m/s | 0°C | 0% | 0hPa | 4.6V | 00:00:00 | 00:00:00 | 00:00:00 | |
| HSKMA3-T | 2026-08-31 11:29:05 | 51.42769 | 10.15030 | 58° | 104km/h | 6804m | -2.3m/s | -26.3°C | 0% | 0hPa | 4.6V | 00:00:00 | 00:00:00 | 00:00:00 | |
| DL1XH-west | 2026-08-31 11:29:04 | 51.42755 | 10.14995 | 57° | 104km/h | 6806m | -2.4m/s | -26.3°C | 0% | 0hPa | 31V | 00:00:00 | 00:00:00 | 00:00:00 | |
| DL1NUX | 2026-08-31 11:29:04 | 51.42712 | 10.14889 | 56° | 104km/h | 6816m | -2.2m/s | 0°C | 0% | 0hPa | 0V | 00:00:00 | 00:00:00 | 00:00:00 | |
| DF8AY | 2026-08-31 11:29:04 | 51.42740 | 10.14959 | 57° | 104km/h | 6809m | -2.4m/s | -26.3°C | 0% | 0hPa | 4.6V | 00:00:00 | 00:00:00 | 00:00:00 | |
| HSKMA3-T | 2026-08-31 11:28:55 | 51.42626 | 10.14677 | 57° | 104km/h | 6828m | -2.3m/s | -26.5°C | 0% | 0hPa | 4.6V | 00:00:00 | 00:00:00 | 00:00:00 | |
| DL1XH-west | 2026-08-31 11:28:52 | 51.42583 | 10.14571 | 56° | 104km/h | 6835m | -2.3m/s | -26.6°C | 0% | 0hPa | 31V | 00:00:00 | 00:00:00 | 00:00:00 | |
| DF2AP-13 | 2026-08-31 11:28:51 | 51.42569 | 10.14536 | 58° | 104km/h | 6839m | -2.3m/s | 0°C | 0% | 0hPa | 0V | 00:00:00 | 00:00:00 | 00:00:00 | |
| DL1NUX | 2026-08-31 11:28:46 | 51.42428 | 10.14182 | 57° | 104km/h | 6862m | -2m/s | 0°C | 0% | 0hPa | 0V | 00:00:00 | 00:00:00 | 00:00:00 | |
| DF8AY | 2026-08-31 11:28:42 | 51.42428 | 10.14182 | 58° | 104km/h | 6860m | -2.2m/s | -26.8°C | 0% | 0hPa | 4.6V | 00:00:00 | 00:00:00 | 00:00:00 | |
| SO1NDE-10 | 2026-08-31 11:28:41 | 51.42427 | 10.14182 | 58° | 106km/h | 6862m | -2.0m/s | 0°C | 0% | 0hPa | 4.6V | 00:00:00 | 00:00:00 | 00:00:00 | |
| DL1XH-west | 2026-08-31 11:28:40 | 51.42399 | 10.14111 | 57° | 104km/h | 6864m | -2.3m/s | -26.8°C | 0% | 0hPa | 4.6V | 00:00:00 | 00:00:00 | 00:00:00 | |
| DF8AY | 2026-08-31 11:28:31 | 51.42273 | 10.13792 | 57° | 104km/h | 6884m | -2.1m/s | -27°C | 0% | 0hPa | 4.6V | 00:00:00 | 00:00:00 | 00:00:00 | |
| DL1XH-west | 2026-08-31 11:28:29 | 51.42244 | 10.13722 | 57° | 104km/h | 6888m | -2m/s | -27°C | 0% | 0hPa | 4.6V | 00:00:00 | 00:00:00 | 00:00:00 | |
| DF2AP-13 | 2026-08-31 11:28:21 | 51.42144 | 10.13473 | 58° | 106km/h | 6905m | -2.0m/s | 0°C | 0% | 0hPa | 0V | 00:00:00 | 00:00:00 | 00:00:00 | |
| DL1NUX | 2026-08-31 11:28:20 | 51.42115 | 10.13402 | 56° | 104km/h | 6909m | -2.2m/s | 0°C | 0% | 0hPa | 0V | 00:00:00 | 00:00:00 | 00:00:00 | |
| DL1XH-west | 2026-08-31 11:28:14 | 51.42028 | 10.13188 | 57° | 104km/h | 6919m | -2m/s | -27.3°C | 0% | 0hPa | 4.6V | 00:00:00 | 00:00:00 | 00:00:00 | |
| DL1NUX | 2026-08-31 11:28:14 | 51.41972 | 10.13043 | 57° | 106km/h | 6929m | -2m/s | 0°C | 0% | 0hPa | 0V | 00:00:00 | 00:00:00 | 00:00:00 | |
| DB0NH | 2026-08-31 11:28:11 | 51.42000 | 10.13116 | 59° | 106km/h | 6927m | -2.0m/s | 0°C | 0% | 0hPa | 4.6V | 00:00:00 | 00:00:00 | 00:00:00 | |
| HSKMA3-T | 2026-08-31 11:28:10 | 51.41972 | 10.13043 | 58° | 106km/h | 6927m | -2m/s | -27.3°C | 0% | 0hPa | 4.6V | 00:00:00 | 00:00:00 | 00:00:00 | |
| SO1NDE-10 | 2026-08-31 11:28:07 | 51.41943 | 10.12970 | 58° | 106km/h | 6934m | -2.0m/s | 0°C | 0% | 0hPa | 4.6V | 00:00:00 | 00:00:00 | 00:00:00 | |
| DL1XH-west | 2026-08-31 11:28:03 | 51.41870 | 10.12788 | 58° | 108km/h | 6942m | -2m/s | -27.4°C | 0% | 0hPa | 4.6V | 00:00:00 | 00:00:00 | 00:00:00 | |
| DL1NUX | 2026-08-31 11:28:01 | 51.41827 | 10.12679 | 58° | 106km/h | 6950m | -2m/s | 0°C | 0% | 0hPa | 0V | 00:00:00 | 00:00:00 | 00:00:00 | |
| HSKMA3-T | 2026-08-31 11:27:59 | 51.41813 | 10.12642 | 59° | 106km/h | 6950m | -2m/s | -27.5°C | 0% | 0hPa | 4.6V | 00:00:00 | 00:00:00 | 00:00:00 | |
| DL1NUX | 2026-08-31 11:27:54 | 51.41684 | 10.12310 | 58° | 106km/h | 6970m | -1.7m/s | 0°C | 0% | 0hPa | 0V | 00:00:00 | 00:00:00 | 00:00:00 | |
| DL1XH-west | 2026-08-31 11:27:52 | 51.41728 | 10.12420 | 58° | 108km/h | 6963m | -2m/s | -27.5°C | 0% | 0hPa | 4.6V | 00:00:00 | 00:00:00 | 00:00:00 | |
| DF2AP-13 | 2026-08-31 11:27:51 | 51.41713 | 10.12383 | 58° | 106km/h | 6967m | -1.9m/s | 0°C | 0% | 0hPa | 4.6V | 00:00:00 | 00:00:00 | 00:00:00 | |
| HSKMA3-T | 2026-08-31 11:27:48 | 51.41656 | 10.12237 | 59° | 106km/h | 6972m | -2m/s | -27.6°C | 0% | 0hPa | 4.6V | 00:00:00 | 00:00:00 | 00:00:00 | |
| DL1NUX | 2026-08-31 11:27:40 | 51.41547 | 10.11944 | 58° | 104km/h | 6991m | -2.1m/s | 0°C | 0% | 0hPa | 0V | 00:00:00 | 00:00:00 | 00:00:00 | |
| DB0NH | 2026-08-31 11:27:39 | 51.41547 | 10.11944 | 59° | 106km/h | 6991m | -2.1m/s | 0°C | 0% | 0hPa | 4.6V | 00:00:00 | 00:00:00 | 00:00:00 | |
| HSKMA3-T | 2026-08-31 11:27:38 | 51.41519 | 10.11872 | 58° | 106km/h | 6993m | -2.1m/s | -27.8°C | 0% | 0hPa | 4.6V | 00:00:00 | 00:00:00 | 00:00:00 | |
| SO1NDE-10 | 2026-08-31 11:27:37 | 51.41519 | 10.11871 | 59° | 106km/h | 6995m | -1.9m/s | 0°C | 0% | 0hPa | 0V | 00:00:00 | 00:00:00 | 00:00:00 | |
| AM1SDL-15 | 2026-08-31 11:27:35 | 51.41491 | 10.11799 | 59° | 104km/h | 6997m | -2.0m/s | 0°C | 0% | 0hPa | 0V | 00:00:00 | 00:00:00 | 00:00:00 | |
| DL1NUX | 2026-08-31 11:27:34 | 51.41396 | 10.11544 | 58° | 104km/h | 7013m | -1.9m/s | 0°C | 0% | 0hPa | 0V | 00:00:00 | 00:00:00 | 00:00:00 | |
| DL1XH-west | 2026-08-31 11:27:29 | 51.41382 | 10.11508 | 59° | 104km/h | 7013m | -1.9m/s | -28°C | 0% | 0hPa | 4.5V | 00:00:00 | 00:00:00 | 00:00:00 | |
| HSKMA3-T | 2026-08-31 11:27:27 | 51.41368 | 10.11472 | 59° | 104km/h | 7015m | -1.8m/s | -28°C | 0% | 0hPa | 4.5V | 00:00:00 | 00:00:00 | 00:00:00 | |
| AM1SDL-15 | 2026-08-31 11:27:23 | 51.41327 | 10.11362 | 60° | 106km/h | 7023m | -1.9m/s | 0°C | 0% | 0hPa | 0V | 00:00:00 | 00:00:00 | 00:00:00 | |
| DF2AP-13 | 2026-08-31 11:27:22 | 51.41300 | 10.11289 | 61° | 106km/h | 7027m | -2.0m/s | 0°C | 0% | 0hPa | 0V | 00:00:00 | 00:00:00 | 00:00:00 | |
| DL1NUX | 2026-08-31 11:27:18 | 51.41247 | 10.11140 | 60° | 106km/h | 7035m | -1.7m/s | 0°C | 0% | 0hPa | 0V | 00:00:00 | 00:00:00 | 00:00:00 | |
| DL1XH-west | 2026-08-31 11:27:15 | 51.41220 | 10.11066 | 60° | 106km/h | 7037m | -1.8m/s | -28.2°C | 0% | 0hPa | 4.5V | 00:00:00 | 00:00:00 | 00:00:00 | |
| AM1SDL-15 | 2026-08-31 11:27:11 | 51.41166 | 10.10919 | 60° | 106km/h | 7047m | -1.9m/s | 0°C | 0% | 0hPa | 0V | 00:00:00 | 00:00:00 | 00:00:00 | |
| DB0NH | 2026-08-31 11:27:09 | 51.41138 | 10.10846 | 60° | 106km/h | 7057m | -1.9m/s | 0°C | 0% | 0hPa | 0V | 00:00:00 | 00:00:00 | 00:00:00 | |
| DL1NUX | 2026-08-31 11:27:08 | 51.41111 | 10.10772 | 59° | 106km/h | 7055m | -1.9m/s | 0°C | 0% | 0hPa | 0V | 00:00:00 | 00:00:00 | 00:00:00 | |
| SO1NDE-10 | 2026-08-31 11:27:07 | 51.41111 | 10.10771 | 60° | 106km/h | 7055m | -1.8m/s | 0°C | 0% | 0hPa | 0V | 00:00:00 | 00:00:00 | 00:00:00 | |
| DL1XH-15 | 2026-08-31 11:27:06 | 51.41031 | 10.10549 | 59° | 106km/h | 7065m | -2m/s | 0°C | 0% | 0hPa | 0V | 00:00:00 | 00:00:00 | 00:00:00 | |
| DL1XH-west | 2026-08-31 11:27:05 | 51.41071 | 10.10660 | 60° | 106km/h | 7059m | -2m/s | -28.4°C | 0% | 0hPa | 4.6V | 00:00:00 | 00:00:00 | 00:00:00 | |
| DL1NUX | 2026-08-31 11:26:58 | 51.40977 | 10.10402 | 59° | 106km/h | 7075m | -1.9m/s | 0°C | 0% | 0hPa | 0V | 00:00:00 | 00:00:00 | 00:00:00 | |
| AM1SDL-15 | 2026-08-31 11:26:58 | 51.40990 | 10.10438 | 60° | 106km/h | 7073m | -1.9m/s | 0°C | 0% | 0hPa | 4.6V | 00:00:00 | 00:00:00 | 00:00:00 | |
| HSKMA3-T | 2026-08-31 11:26:54 | 51.40936 | 10.10291 | 60° | 106km/h | 7079m | -1.9m/s | 0°C | 0% | 0hPa | 4.6V | 00:00:00 | 00:00:00 | 00:00:00 | |
| DL1XH-west | 2026-08-31 11:26:54 | 51.40922 | 10.10253 | 60° | 108km/h | 7081m | -1.9m/s | -28.5°C | 0% | 0hPa | 4.5V | 00:00:00 | 00:00:00 | 00:00:00 | |
| DL1XH-15 | 2026-08-31 11:26:53 | 51.40895 | 10.10179 | 59° | 106km/h | 7109m | -1.9m/s | 0°C | 0% | 0hPa | 0V | 00:00:00 | 00:00:00 | 00:00:00 | |
| DF2AP-13 | 2026-08-31 11:26:51 | 51.40895 | 10.10179 | 60° | 106km/h | 7087m | -2.0m/s | 0°C | 0% | 0hPa | 0V | 00:00:00 | 00:00:00 | 00:00:00 | |
| DL1NUX | 2026-08-31 11:26:48 | 51.40842 | 10.10030 | 59° | 106km/h | 7095m | -2m/s | 0°C | 0% | 0hPa | 0V | 00:00:00 | 00:00:00 | 00:00:00 | |
| AM1SDL-15 | 2026-08-31 11:26:46 | 51.40828 | 10.09992 | 60° | 106km/h | 7097m | -1.8m/s | 0°C | 0% | 0hPa | 4.5V | 00:00:00 | 00:00:00 | 00:00:00 | |
| DL1XH-west | 2026-08-31 11:26:43 | 51.40788 | 10.09881 | 60° | 106km/h | 7101m | -1.9m/s | -28.7°C | 0% | 0hPa | 4.5V | 00:00:00 | 00:00:00 | 00:00:00 | |
| DL1XH-15 | 2026-08-31 11:26:42 | 51.40720 | 10.09697 | 59° | 106km/h | 7113m | -1.9m/s | 0°C | 0% | 0hPa | 0V | 00:00:00 | 00:00:00 | 00:00:00 | |
| DL1NUX | 2026-08-31 11:26:38 | 51.40707 | 10.09660 | 59° | 106km/h | 7115m | -1.9m/s | 0°C | 0% | 0hPa | 0V | 00:00:00 | 00:00:00 | 00:00:00 | |
| DB0NH | 2026-08-31 11:26:38 | 51.40720 | 10.09697 | 60° | 106km/h | 7139m | -1.8m/s | 0°C | 0% | 0hPa | 4.5V | 00:00:00 | 00:00:00 | 00:00:00 | |
| SO1NDE-10 | 2026-08-31 11:26:37 | 51.40706 | 10.09660 | 60° | 106km/h | 7115m | -1.9m/s | 0°C | 0% | 0hPa | 4.5V | 00:00:00 | 00:00:00 | 00:00:00 | |
| AM1SDL-15 | 2026-08-31 11:26:34 | 51.40666 | 10.09550 | 60° | 106km/h | 7121m | -1.8m/s | 0°C | 0% | 0hPa | 4.5V | 00:00:00 | 00:00:00 | 00:00:00 | |
| DL1XH-west | 2026-08-31 11:26:32 | 51.40639 | 10.09477 | 59° | 106km/h | 7123m | -1.9m/s | -28.9°C | 0% | 0hPa | 4.5V | 00:00:00 | 00:00:00 | 00:00:00 | |
| DL1XH-15 | 2026-08-31 11:26:31 | 51.40584 | 10.09329 | 59° | 108km/h | 7133m | -1.9m/s | 0°C | 0% | 0hPa | 0V | 00:00:00 | 00:00:00 | 00:00:00 | |
| DL1NUX | 2026-08-31 11:26:28 | 51.40570 | 10.09292 | 59° | 106km/h | 7135m | -1.9m/s | 0°C | 0% | 0hPa | 0V | 00:00:00 | 00:00:00 | 00:00:00 | |
| DL1NUX | 2026-08-31 11:26:22 | 51.40434 | 10.08924 | 59° | 106km/h | 7156m | -1.9m/s | 0°C | 0% | 0hPa | 0V | 00:00:00 | 00:00:00 | 00:00:00 | |
| DL1XH-west | 2026-08-31 11:26:22 | 51.40489 | 10.09072 | 60° | 106km/h | 7145m | -2m/s | -29°C | 0% | 0hPa | 4.5V | 00:00:00 | 00:00:00 | 00:00:00 | |
| DL1XH-15 | 2026-08-31 11:26:21 | 51.40448 | 10.08961 | 59° | 108km/h | 7152m | -2m/s | 0°C | 0% | 0hPa | 0V | 00:00:00 | 00:00:00 | 00:00:00 | |
| HSKMA3-T | 2026-08-31 11:26:16 | 51.40420 | 10.08887 | 59° | 106km/h | 7156m | -1.9m/s | -29.1°C | 0% | 0hPa | 4.5V | 00:00:00 | 00:00:00 | 00:00:00 | |
| DL1XH-west | 2026-08-31 11:26:11 | 51.40338 | 10.08663 | 60° | 106km/h | 7169m | -2.1m/s | -29.2°C | 0% | 0hPa | 4.5V | 00:00:00 | 00:00:00 | 00:00:00 | |
| AM1SDL-15 | 2026-08-31 11:26:09 | 51.40324 | 10.08626 | 60° | 108km/h | 7173m | -2.0m/s | 0°C | 0% | 0hPa | 0V | 00:00:00 | 00:00:00 | 00:00:00 | |
| DL1NUX | 2026-08-31 11:26:08 | 51.40296 | 10.08552 | 59° | 106km/h | 7177m | -2.2m/s | 0°C | 0% | 0hPa | 0V | 00:00:00 | 00:00:00 | 00:00:00 | |
| SO1NDE-10 | 2026-08-31 11:26:07 | 51.40296 | 10.08551 | 60° | 106km/h | 7177m | -2.1m/s | 0°C | 0% | 0hPa | 4.5V | 00:00:00 | 00:00:00 | 00:00:00 | |
| HSKMA3-T | 2026-08-31 11:26:05 | 51.40255 | 10.08440 | 60° | 106km/h | 7182m | -2.1m/s | -29.2°C | 0% | 0hPa | 4.5V | 00:00:00 | 00:00:00 | 00:00:00 | |
| SONCRA | 2026-08-31 11:26:05 | 51.40255 | 10.08440 | 59° | 106km/h | 7182m | -2.1m/s | -29.2°C | -1.0% | -1.0hPa | 0V | 00:00:00 | 00:00:00 | 00:00:00 | |
| EDDB2-11 | 2026-08-31 11:26:04 | 51.40241 | 10.08403 | 59° | 106km/h | 7184m | -2.1m/s | -28.9°C | -1.0% | -1.0hPa | 0V | 00:00:00 | 00:00:00 | 00:00:00 | |
| DL1NUX | 2026-08-31 11:26:03 | 51.40159 | 10.08179 | 59° | 106km/h | 7198m | -2m/s | 0°C | 0% | 0hPa | 0V | 00:00:00 | 00:00:00 | 00:00:00 | |
| DL1XH-west | 2026-08-31 11:26:01 | 51.40200 | 10.08291 | 60° | 106km/h | 7190m | -2m/s | -29.3°C | 0% | 0hPa | 4.5V | 00:00:00 | 00:00:00 | 00:00:00 | |
| DB0NH | 2026-08-31 11:25:59 | 51.40186 | 10.08254 | 60° | 108km/h | 7194m | -2.0m/s | 0°C | 0% | 0hPa | 0V | 00:00:00 | 00:00:00 | 00:00:00 | |
| AM1SDL-15 | 2026-08-31 11:25:57 | 51.40159 | 10.08179 | 60° | 106km/h | 7199m | -1.9m/s | 0°C | 0% | 0hPa | 0V | 00:00:00 | 00:00:00 | 00:00:00 | |
| DL1XH-15 | 2026-08-31 11:25:55 | 51.40089 | 10.07995 | 59° | 106km/h | 7209m | -2.1m/s | 0°C | 0% | 0hPa | 0V | 00:00:00 | 00:00:00 | 00:00:00 | |
| HSKMA3-T | 2026-08-31 11:25:52 | 51.40076 | 10.07958 | 59° | 106km/h | 7209m | -2.1m/s | -29.4°C | 0% | 0hPa | 4.5V | 00:00:00 | 00:00:00 | 00:00:00 | |
| DF2AP-13 | 2026-08-31 11:25:51 | 51.40075 | 10.07958 | 60° | 108km/h | 7211m | -1.9m/s | 0°C | 0% | 0hPa | 4.5V | 00:00:00 | 00:00:00 | 00:00:00 | |
| DL1XH-west | 2026-08-31 11:25:49 | 51.40048 | 10.07884 | 59° | 106km/h | 7213m | -2.1m/s | -29.4°C | 0% | 0hPa | 4.5V | 00:00:00 | 00:00:00 | 00:00:00 | |
| DF8AY | 2026-08-31 11:25:49 | 51.39965 | 10.07663 | 59° | 106km/h | 7226m | -2.1m/s | -29.5°C | 0% | 0hPa | 4.5V | 00:00:00 | 00:00:00 | 00:00:00 | |
| DL1NUX | 2026-08-31 11:25:48 | 51.40020 | 10.07811 | 59° | 106km/h | 7219m | -2m/s | 0°C | 0% | 0hPa | 0V | 00:00:00 | 00:00:00 | 00:00:00 | |
| AM1SDL-15 | 2026-08-31 11:25:45 | 51.39993 | 10.07737 | 60° | 108km/h | 7224m | -2.0m/s | 0°C | 0% | 0hPa | 4.5V | 00:00:00 | 00:00:00 | 00:00:00 | |
| DL1XH-west | 2026-08-31 11:25:38 | 51.39895 | 10.07478 | 59° | 108km/h | 7237m | -2m/s | -29.6°C | 0% | 0hPa | 4.5V | 00:00:00 | 00:00:00 | 00:00:00 | |
| SO1NDE-10 | 2026-08-31 11:25:37 | 51.39881 | 10.07440 | 59° | 108km/h | 7239m | -2.0m/s | 0°C | 0% | 0hPa | 4.5V | 00:00:00 | 00:00:00 | 00:00:00 | |
| DF8AY | 2026-08-31 11:25:34 | 51.39810 | 10.07253 | 59° | 110km/h | 7249m | -2.1m/s | -29.7°C | 0% | 0hPa | 4.5V | 00:00:00 | 00:00:00 | 00:00:00 | |
| AM1SDL-15 | 2026-08-31 11:25:33 | 51.39824 | 10.07291 | 60° | 108km/h | 7249m | -2.0m/s | 0°C | 0% | 0hPa | 4.5V | 00:00:00 | 00:00:00 | 00:00:00 | |
| DB0NH | 2026-08-31 11:25:29 | 51.39768 | 10.07140 | 60° | 108km/h | 7258m | -2.1m/s | 0°C | 0% | 0hPa | 4.5V | 00:00:00 | 00:00:00 | 00:00:00 | |
| DL1XH-west | 2026-08-31 11:25:27 | 51.39741 | 10.07065 | 60° | 108km/h | 7261m | -2.2m/s | -29.7°C | 0% | 0hPa | 4.5V | 00:00:00 | 00:00:00 | 00:00:00 | |
| HSKMA3-T | 2026-08-31 11:25:26 | 51.39727 | 10.07028 | 59° | 108km/h | 7263m | -2.1m/s | -29.7°C | 0% | 0hPa | 4.5V | 00:00:00 | 00:00:00 | 00:00:00 | |
| DL1NUX | 2026-08-31 11:25:24 | 51.39671 | 10.06877 | 59° | 110km/h | 7272m | -2m/s | 0°C | 0% | 0hPa | 0V | 00:00:00 | 00:00:00 | 00:00:00 | |
| DF8AY | 2026-08-31 11:25:22 | 51.39657 | 10.06839 | 60° | 110km/h | 7274m | -2.1m/s | -29.8°C | 0% | 0hPa | 4.5V | 00:00:00 | 00:00:00 | 00:00:00 | |
| AM1SDL-15 | 2026-08-31 11:25:21 | 51.39656 | 10.06839 | 60° | 108km/h | 7276m | -2.2m/s | 0°C | 0% | 0hPa | 4.5V | 00:00:00 | 00:00:00 | 00:00:00 | |
| DL1XH-west | 2026-08-31 11:25:17 | 51.39601 | 10.06688 | 60° | 108km/h | 7283m | -2.1m/s | -29.8°C | 0% | 0hPa | 4.5V | 00:00:00 | 00:00:00 | 00:00:00 | |
| HSKMA3-T | 2026-08-31 11:25:13 | 51.39533 | 10.06501 | 59° | 108km/h | 7294m | -2.3m/s | -29.9°C | 0% | 0hPa | 4.5V | 00:00:00 | 00:00:00 | 00:00:00 | |
| DF8AY | 2026-08-31 11:25:11 | 51.39505 | 10.06426 | 60° | 108km/h | 7299m | -2.2m/s | -30°C | 0% | 0hPa | 4.5V | 00:00:00 | 00:00:00 | 00:00:00 | |
| AM1SDL-15 | 2026-08-31 11:25:09 | 51.39491 | 10.06388 | 61° | 110km/h | 7306m | -2.3m/s | 0°C | 0% | 0hPa | 0V | 00:00:00 | 00:00:00 | 00:00:00 | |
| DL1NUX | 2026-08-31 11:25:08 | 51.39450 | 10.06274 | 59° | 108km/h | 7313m | -2.3m/s | 0°C | 0% | 0hPa | 0V | 00:00:00 | 00:00:00 | 00:00:00 | |
| SO1NDE-10 | 2026-08-31 11:25:07 | 51.39463 | 10.06312 | 60° | 110km/h | 7308m | -2.2m/s | 0°C | 0% | 0hPa | 4.5V | 00:00:00 | 00:00:00 | 00:00:00 | |
| DL1XH-west | 2026-08-31 11:25:06 | 51.39450 | 10.06274 | 60° | 108km/h | 7308m | -2.2m/s | -30°C | 0% | 0hPa | 4.5V | 00:00:00 | 00:00:00 | 00:00:00 | |
| HSKMA3-T | 2026-08-31 11:25:03 | 51.39394 | 10.06124 | 59° | 110km/h | 7317m | -2.2m/s | -30.1°C | 0% | 0hPa | 4.5V | 00:00:00 | 00:00:00 | 00:00:00 | |
| EDDB2-11 | 2026-08-31 11:25:02 | 51.39380 | 10.06086 | 59° | 108km/h | 7320m | -2.2m/s | -29.9°C | -1.0% | -1.0hPa | 4.5V | 00:00:00 | 00:00:00 | 00:00:00 | |
| DF8AY | 2026-08-31 11:25:00 | 51.39352 | 10.06010 | 59° | 110km/h | 7324m | -2.3m/s | -30.1°C | 0% | 0hPa | 4.5V | 00:00:00 | 00:00:00 | 00:00:00 | |
| DB0NH | 2026-08-31 11:24:59 | 51.39352 | 10.06010 | 59° | 111km/h | 7329m | -2.3m/s | 0°C | 0% | 0hPa | 0V | 00:00:00 | 00:00:00 | 00:00:00 | |
| DL1NUX | 2026-08-31 11:24:58 | 51.39294 | 10.05859 | 58° | 110km/h | 7336m | -2.4m/s | 0°C | 0% | 0hPa | 0V | 00:00:00 | 00:00:00 | 00:00:00 | |
| AM1SDL-15 | 2026-08-31 11:24:57 | 51.39323 | 10.05934 | 59° | 110km/h | 7332m | -2.2m/s | 0°C | 0% | 0hPa | 4.5V | 00:00:00 | 00:00:00 | 00:00:00 | |
| DL1XH-west | 2026-08-31 11:24:56 | 51.39294 | 10.05859 | 59° | 110km/h | 7334m | -2.4m/s | -30.2°C | 0% | 0hPa | 4.5V | 00:00:00 | 00:00:00 | 00:00:00 | |
| HSKMA3-T | 2026-08-31 11:24:52 | 51.39237 | 10.05709 | 59° | 110km/h | 7343m | -2.3m/s | -30.2°C | 0% | 0hPa | 4.5V | 00:00:00 | 00:00:00 | 00:00:00 | |
| DF2AP-13 | 2026-08-31 11:24:51 | 51.39236 | 10.05708 | 59° | 111km/h | 7346m | -2.3m/s | 0°C | 0% | 0hPa | 4.5V | 00:00:00 | 00:00:00 | 00:00:00 | |
| DF8AY | 2026-08-31 11:24:50 | 51.39208 | 10.05633 | 58° | 110km/h | 7348m | -2.6m/s | -30.2°C | 0% | 0hPa | 4.5V | 00:00:00 | 00:00:00 | 00:00:00 | |
| DL1NUX | 2026-08-31 11:24:48 | 51.39149 | 10.05481 | 57° | 111km/h | 7360m | -2.3m/s | 0°C | 0% | 0hPa | 0V | 00:00:00 | 00:00:00 | 00:00:00 | |
| DL1XH-west | 2026-08-31 11:24:45 | 51.39134 | 10.05443 | 58° | 111km/h | 7360m | -2.3m/s | -30.2°C | 0% | 0hPa | 4.5V | 00:00:00 | 00:00:00 | 00:00:00 | |
| HSKMA3-T | 2026-08-31 11:24:38 | 51.39043 | 10.05216 | 57° | 111km/h | 7375m | -2.4m/s | -30.3°C | 0% | 0hPa | 4.6V | 00:00:00 | 00:00:00 | 00:00:00 | |
| DL1NUX | 2026-08-31 11:24:38 | 51.38997 | 10.05103 | 56° | 111km/h | 7385m | -2.4m/s | 0°C | 0% | 0hPa | 0V | 00:00:00 | 00:00:00 | 00:00:00 | |
| SO1NDE-10 | 2026-08-31 11:24:37 | 51.39028 | 10.05178 | 58° | 111km/h | 7380m | -2.3m/s | 0°C | 0% | 0hPa | 4.5V | 00:00:00 | 00:00:00 | 00:00:00 | |
| DL1XH-west | 2026-08-31 11:24:34 | 51.38982 | 10.05065 | 57° | 111km/h | 7385m | -2.4m/s | -30.4°C | 0% | 0hPa | 4.5V | 00:00:00 | 00:00:00 | 00:00:00 | |
| AM1SDL-15 | 2026-08-31 11:24:33 | 51.38966 | 10.05028 | 57° | 111km/h | 7390m | -2.5m/s | 0°C | 0% | 0hPa | 4.5V | 00:00:00 | 00:00:00 | 00:00:00 | |
| HSKMA3-T | 2026-08-31 11:24:28 | 51.38875 | 10.04801 | 57° | 111km/h | 7403m | -2.5m/s | -30.4°C | 0% | 0hPa | 4.5V | 00:00:00 | 00:00:00 | 00:00:00 | |
| DL1NUX | 2026-08-31 11:24:27 | 51.38844 | 10.04726 | 56° | 111km/h | 7410m | -2.5m/s | 0°C | 0% | 0hPa | 0V | 00:00:00 | 00:00:00 | 00:00:00 | |
| DL1XH-west | 2026-08-31 11:24:23 | 51.38812 | 10.04651 | 56° | 111km/h | 7413m | -2.5m/s | -30.4°C | 0% | 0hPa | 4.5V | 00:00:00 | 00:00:00 | 00:00:00 | |
| DF2AP-13 | 2026-08-31 11:24:21 | 51.38781 | 10.04575 | 57° | 111km/h | 7421m | -2.5m/s | 0°C | 0% | 0hPa | 4.5V | 00:00:00 | 00:00:00 | 00:00:00 | |
| DF8AY | 2026-08-31 11:24:17 | 51.38703 | 10.04387 | 57° | 111km/h | 7432m | -2.5m/s | -30.6°C | 0% | 0hPa | 4.5V | 00:00:00 | 00:00:00 | 00:00:00 | |
| DL1NUX | 2026-08-31 11:24:15 | 51.38672 | 10.04312 | 57° | 111km/h | 7440m | -2.6m/s | 0°C | 0% | 0hPa | 0V | 00:00:00 | 00:00:00 | 00:00:00 | |
| DL1XH-west | 2026-08-31 11:24:13 | 51.38657 | 10.04274 | 57° | 111km/h | 7440m | -2.6m/s | -30.6°C | 0% | 0hPa | 4.5V | 00:00:00 | 00:00:00 | 00:00:00 | |
| HSKMA3-T | 2026-08-31 11:24:11 | 51.38610 | 10.04161 | 57° | 111km/h | 7448m | -2.7m/s | -30.7°C | 0% | 0hPa | 4.5V | 00:00:00 | 00:00:00 | 00:00:00 | |
| DF8AY | 2026-08-31 11:24:07 | 51.38549 | 10.04011 | 57° | 110km/h | 7459m | -2.6m/s | -30.8°C | 0% | 0hPa | 4.5V | 00:00:00 | 00:00:00 | 00:00:00 | |
| DL1NUX | 2026-08-31 11:24:05 | 51.38519 | 10.03935 | 57° | 111km/h | 7467m | -2.6m/s | 0°C | 0% | 0hPa | 0V | 00:00:00 | 00:00:00 | 00:00:00 | |
| HSKMA3-T | 2026-08-31 11:24:00 | 51.38442 | 10.03747 | 57° | 110km/h | 7478m | -2.7m/s | -31°C | 0% | 0hPa | 4.5V | 00:00:00 | 00:00:00 | 00:00:00 | |
| DF8AY | 2026-08-31 11:23:56 | 51.38381 | 10.03596 | 57° | 111km/h | 7488m | -2.6m/s | -31°C | 0% | 0hPa | 4.5V | 00:00:00 | 00:00:00 | 00:00:00 | |
| DF2AP-13 | 2026-08-31 11:23:51 | 51.38321 | 10.03444 | 59° | 111km/h | 7502m | -2.7m/s | 0°C | 0% | 0hPa | 4.6V | 00:00:00 | 00:00:00 | 00:00:00 | |
| HSKMA3-T | 2026-08-31 11:23:49 | 51.38291 | 10.03368 | 58° | 111km/h | 7505m | -2.6m/s | -31.2°C | 0% | 0hPa | 4.6V | 00:00:00 | 00:00:00 | 00:00:00 | |
| DF8AY | 2026-08-31 11:23:45 | 51.38231 | 10.03215 | 57° | 111km/h | 7516m | -2.6m/s | -31.3°C | 0% | 0hPa | 4.5V | 00:00:00 | 00:00:00 | 00:00:00 | |
| DF8AY | 2026-08-31 11:23:36 | 51.37862 | 10.02298 | 57° | 113km/h | 7582m | -2.6m/s | -31.8°C | 0% | 0hPa | 4.5V | 00:00:00 | 00:00:00 | 00:00:00 | |
| DF8AY | 2026-08-31 11:23:23 | 51.37846 | 10.02260 | 57° | 113km/h | 7585m | -2.7m/s | -31.8°C | 0% | 0hPa | 4.5V | 00:00:00 | 00:00:00 | 00:00:00 | |
| DF2AP-13 | 2026-08-31 11:23:21 | 51.37862 | 10.02298 | 58° | 115km/h | 7585m | -2.7m/s | 0°C | 0% | 0hPa | 4.5V | 00:00:00 | 00:00:00 | 00:00:00 | |
| DF8AY | 2026-08-31 11:23:10 | 51.37673 | 10.01838 | 57° | 113km/h | 7617m | -2.8m/s | -32.1°C | 0% | 0hPa | 4.5V | 00:00:00 | 00:00:00 | 00:00:00 | |
| DO2JMG | 2026-08-31 11:23:06 | 51.37625 | 10.01722 | 56° | 113km/h | 7626m | -2.7m/s | -32.2°C | 0% | 0hPa | 4.5V | 00:00:00 | 00:00:00 | 00:00:00 | |
| HSKMA3-T | 2026-08-31 11:23:06 | 51.37609 | 10.01684 | 56° | 115km/h | 7629m | -2.8m/s | -32.2°C | 0% | 0hPa | 4.5V | 00:00:00 | 00:00:00 | 00:00:00 | |
| DF8AY | 2026-08-31 11:23:00 | 51.37511 | 10.01452 | 56° | 115km/h | 7646m | -2.8m/s | -32.4°C | 0% | 0hPa | 4.5V | 00:00:00 | 00:00:00 | 00:00:00 | |
| HSKMA3-T | 2026-08-31 11:22:56 | 51.37446 | 10.01297 | 56° | 115km/h | 7658m | -2.9m/s | -32.4°C | 0% | 0hPa | 4.5V | 00:00:00 | 00:00:00 | 00:00:00 | |
| DO2JMG | 2026-08-31 11:22:52 | 51.37397 | 10.01180 | 55° | 115km/h | 7668m | -2.8m/s | -32.5°C | 0% | 0hPa | 4.6V | 00:00:00 | 00:00:00 | 00:00:00 | |
| DB0NH | 2026-08-31 11:22:52 | 51.37397 | 10.01180 | 56° | 117km/h | 7673m | -2.8m/s | 0°C | 0% | 0hPa | 4.5V | 00:00:00 | 00:00:00 | 00:00:00 | |
| DF2AP-13 | 2026-08-31 11:22:51 | 51.37380 | 10.01142 | 55° | 117km/h | 7679m | -2.9m/s | 0°C | 0% | 0hPa | 4.5V | 00:00:00 | 00:00:00 | 00:00:00 | |
| DF8AY | 2026-08-31 11:22:49 | 51.37330 | 10.01026 | 55° | 117km/h | 7679m | -2.9m/s | -32.6°C | 0% | 0hPa | 4.5V | 00:00:00 | 00:00:00 | 00:00:00 | |
| DF8AY | 2026-08-31 11:22:38 | 51.37143 | 10.00600 | 55° | 117km/h | 7712m | -3m/s | -32.8°C | 0% | 0hPa | 4.5V | 00:00:00 | 00:00:00 | 00:00:00 | |
| HSKMA3-T | 2026-08-31 11:22:31 | 51.37040 | 10.00367 | 55° | 117km/h | 7730m | -3m/s | -32.9°C | 0% | 0hPa | 4.5V | 00:00:00 | 00:00:00 | 00:00:00 | |
| DF8AY | 2026-08-31 11:22:27 | 51.36954 | 10.00174 | 55° | 119km/h | 7745m | -2.8m/s | -33.1°C | 0% | 0hPa | 4.5V | 00:00:00 | 00:00:00 | 00:00:00 | |
| DB0NH | 2026-08-31 11:22:22 | 51.36885 | 10.00018 | 55° | 124km/h | 7772m | -3.0m/s | 0°C | 0% | 0hPa | 4.5V | 00:00:00 | 00:00:00 | 00:00:00 | |
| DF2AP-13 | 2026-08-31 11:22:21 | 51.36868 | 9.99980 | 55° | 120km/h | 7763m | -2.9m/s | 0°C | 0% | 0hPa | 4.5V | 00:00:00 | 00:00:00 | 00:00:00 | |
| HSKMA3-T | 2026-08-31 11:22:21 | 51.36850 | 9.99940 | 55° | 119km/h | 7763m | -2.9m/s | -33.2°C | 0% | 0hPa | 4.6V | 00:00:00 | 00:00:00 | 00:00:00 | |
| DF8AY | 2026-08-31 11:22:17 | 51.36782 | 9.99783 | 56° | 119km/h | 7776m | -3.1m/s | -33.3°C | 0% | 0hPa | 4.5V | 00:00:00 | 00:00:00 | 00:00:00 | |
| DF8AY | 2026-08-31 11:22:06 | 51.36592 | 9.99344 | 55° | 120km/h | 7810m | -3m/s | -33.6°C | 0% | 0hPa | 4.5V | 00:00:00 | 00:00:00 | 00:00:00 | |
| HSKMA3-T | 2026-08-31 11:21:57 | 50.94923 | 8.91372 | 0° | 0km/h | 23384m | 4m/s | 0°C | 0% | 0hPa | 4.6V | 00:00:00 | 00:00:00 | 00:00:00 | |
| DF8AY | 2026-08-31 11:21:54 | 51.36381 | 9.98861 | 55° | 122km/h | 7847m | -3m/s | -33.9°C | 0% | 0hPa | 4.5V | 00:00:00 | 00:00:00 | 00:00:00 | |
| DF2AP-13 | 2026-08-31 11:21:51 | 51.36345 | 9.98780 | 56° | 122km/h | 7857m | -2.8m/s | 0°C | 0% | 0hPa | 4.5V | 00:00:00 | 00:00:00 | 00:00:00 | |
| DF8AY | 2026-08-31 11:21:48 | 51.36169 | 9.98373 | 55° | 122km/h | 7884m | -3m/s | -34.2°C | 0% | 0hPa | 4.5V | 00:00:00 | 00:00:00 | 00:00:00 | |
| HSKMA3-T | 2026-08-31 11:21:44 | 50.94922 | 8.91365 | 155° | 4km/h | 23328m | 4.7m/s | 0°C | 0% | 0hPa | 4.6V | 00:00:00 | 00:00:00 | 00:00:00 | |
| DL3OBA | 2026-08-31 11:21:40 | 51.36151 | 9.98332 | 56° | 122km/h | 7887m | -2.9m/s | -34.2°C | 0% | 0hPa | 4.5V | 00:00:00 | 00:00:00 | 00:00:00 | |
| DF8AY | 2026-08-31 11:21:31 | 51.35974 | 9.97923 | 56° | 124km/h | 7919m | -3m/s | -34.5°C | 0% | 0hPa | 4.5V | 00:00:00 | 00:00:00 | 00:00:00 | |
| HSKMA3-T | 2026-08-31 11:21:25 | 51.35886 | 9.97716 | 56° | 124km/h | 7935m | -3.2m/s | -34.7°C | 0% | 0hPa | 4.5V | 00:00:00 | 00:00:00 | 00:00:00 | |
| DF8AY | 2026-08-31 11:21:21 | 51.35797 | 9.97508 | 56° | 126km/h | 7951m | -3.1m/s | -34.8°C | 0% | 0hPa | 4.5V | 00:00:00 | 00:00:00 | 00:00:00 | |
| HSKMA3-T | 2026-08-31 11:21:14 | 51.35673 | 9.97216 | 56° | 126km/h | 7974m | -3.1m/s | -35°C | 0% | 0hPa | 4.5V | 00:00:00 | 00:00:00 | 00:00:00 | |
| DF8AY | 2026-08-31 11:21:11 | 51.35620 | 9.97090 | 56° | 126km/h | 7983m | -3.1m/s | -35.1°C | 0% | 0hPa | 4.5V | 00:00:00 | 00:00:00 | 00:00:00 | |
| S3001 | 2026-08-31 11:21:05 | 51.35531 | 9.96880 | 55° | 124km/h | 7999m | -3.1m/s | -35.2°C | -1.0% | -1.0hPa | 4.5V | 00:00:00 | 00:00:00 | 00:00:00 | |
| HSKMA3-T | 2026-08-31 11:21:01 | 51.35442 | 9.96671 | 56° | 126km/h | 8015m | -3m/s | -35.3°C | 0% | 0hPa | 4.5V | 00:00:00 | 00:00:00 | 00:00:00 | |
| DF8AY | 2026-08-31 11:21:00 | 51.35424 | 9.96629 | 56° | 126km/h | 8018m | -3.1m/s | -35.4°C | 0% | 0hPa | 4.5V | 00:00:00 | 00:00:00 | 00:00:00 | |
| HSKMA3-T | 2026-08-31 11:20:50 | 51.35243 | 9.96210 | 55° | 126km/h | 8049m | -3m/s | -35.7°C | 0% | 0hPa | 4.5V | 00:00:00 | 00:00:00 | 00:00:00 | |
| DF2AP-13 | 2026-08-31 11:20:49 | 51.35243 | 9.96210 | 56° | 128km/h | 8053m | -2.9m/s | 0°C | 0% | 0hPa | 4.5V | 00:00:00 | 00:00:00 | 00:00:00 | |
| DL1XH-west | 2026-08-31 11:20:48 | 51.35207 | 9.96126 | 56° | 126km/h | 8055m | -3.1m/s | -35.7°C | 0% | 0hPa | 4.5V | 00:00:00 | 00:00:00 | 00:00:00 | |
| HSKMA3-T | 2026-08-31 11:20:40 | 51.35060 | 9.95787 | 56° | 128km/h | 8080m | -2.9m/s | -35.9°C | 0% | 0hPa | 4.5V | 00:00:00 | 00:00:00 | 00:00:00 | |
| DL1XH-west | 2026-08-31 11:20:38 | 51.35024 | 9.95702 | 56° | 128km/h | 8086m | -3m/s | -36°C | 0% | 0hPa | 0.4V | 00:00:00 | 00:00:00 | 00:00:00 | |
| DL1XH-west | 2026-08-31 11:20:26 | 51.34822 | 9.95229 | 56° | 130km/h | 8120m | -3m/s | -36.2°C | 0% | 0hPa | 4.5V | 00:00:00 | 00:00:00 | 00:00:00 | |
| DF2AP-13 | 2026-08-31 11:20:19 | 51.34693 | 9.94926 | 56° | 133km/h | 8151m | -2.9m/s | 0°C | 0% | 0hPa | 4.5V | 00:00:00 | 00:00:00 | 00:00:00 | |
| DB0NH | 2026-08-31 11:20:18 | 51.34674 | 9.94882 | 56° | 133km/h | 8148m | -3.0m/s | 0°C | 0% | 0hPa | 4.5V | 00:00:00 | 00:00:00 | 00:00:00 | |
| HSKMA3-T | 2026-08-31 11:20:16 | 51.34618 | 9.94751 | 56° | 130km/h | 8154m | -3m/s | -36.5°C | 0% | 0hPa | 4.5V | 00:00:00 | 00:00:00 | 00:00:00 | |
| DL1XH-west | 2026-08-31 11:20:15 | 51.34600 | 9.94708 | 56° | 131km/h | 8157m | -2.9m/s | -36.6°C | 0% | 0hPa | 4.5V | 00:00:00 | 00:00:00 | 00:00:00 | |
| DF8AY | 2026-08-31 11:20:06 | 51.34431 | 9.94311 | 56° | 133km/h | 8184m | -3m/s | -36.8°C | 0% | 0hPa | 4.5V | 00:00:00 | 00:00:00 | 00:00:00 | |
| DL1XH-west | 2026-08-31 11:20:05 | 51.34412 | 9.94267 | 56° | 133km/h | 8187m | -2.9m/s | -36.8°C | 0% | 0hPa | 4.5V | 00:00:00 | 00:00:00 | 00:00:00 | |
| S3001 | 2026-08-31 11:20:03 | 51.34355 | 9.94132 | 56° | 133km/h | 8196m | -2.9m/s | -36.8°C | -1.0% | -1.0hPa | 4.5V | 00:00:00 | 00:00:00 | 00:00:00 | |
| HSKMA3-T | 2026-08-31 11:20:01 | 51.34336 | 9.94088 | 56° | 133km/h | 8199m | -3m/s | -36.8°C | 0% | 0hPa | 4.5V | 00:00:00 | 00:00:00 | 00:00:00 | |
| DL1XH-west | 2026-08-31 11:19:54 | 51.34204 | 9.93773 | 56° | 135km/h | 8220m | -2.8m/s | -37°C | 0% | 0hPa | 4.5V | 00:00:00 | 00:00:00 | 00:00:00 | |
| HSKMA3-T | 2026-08-31 11:19:48 | 51.34091 | 9.93502 | 56° | 133km/h | 8237m | -2.9m/s | -37.1°C | 0% | 0hPa | 4.5V | 00:00:00 | 00:00:00 | 00:00:00 | |
| DF8AY | 2026-08-31 11:19:43 | 51.33942 | 9.93141 | 57° | 133km/h | 8260m | -2.8m/s | -37.3°C | 0% | 0hPa | 4.5V | 00:00:00 | 00:00:00 | 00:00:00 | |
| DL1XH-west | 2026-08-31 11:19:41 | 51.33979 | 9.93231 | 57° | 133km/h | 8254m | -2.8m/s | -37.2°C | 0% | 0hPa | 4.5V | 00:00:00 | 00:00:00 | 00:00:00 | |
| HSKMA3-T | 2026-08-31 11:19:37 | 51.33886 | 9.93006 | 57° | 133km/h | 8268m | -2.8m/s | -37.3°C | 0% | 0hPa | 4.5V | 00:00:00 | 00:00:00 | 00:00:00 | |
| DL1XH-west | 2026-08-31 11:19:31 | 51.33775 | 9.92735 | 57° | 133km/h | 8285m | -2.9m/s | -37.5°C | 0% | 0hPa | 4.5V | 00:00:00 | 00:00:00 | 00:00:00 | |
| DF8AY | 2026-08-31 11:19:30 | 51.33738 | 9.92644 | 57° | 133km/h | 8291m | -2.7m/s | -37.6°C | 0% | 0hPa | 4.5V | 00:00:00 | 00:00:00 | 00:00:00 | |
| HSKMA3-T | 2026-08-31 11:19:26 | 51.33702 | 9.92554 | 57° | 133km/h | 8296m | -2.8m/s | -37.6°C | 0% | 0hPa | 4.5V | 00:00:00 | 00:00:00 | 00:00:00 | |
| DL1XH-west | 2026-08-31 11:19:20 | 51.33573 | 9.92236 | 57° | 133km/h | 8316m | -2.7m/s | -37.8°C | 0% | 0hPa | 4.5V | 00:00:00 | 00:00:00 | 00:00:00 | |
| DF8AY | 2026-08-31 11:19:18 | 51.33537 | 9.92146 | 57° | 133km/h | 8321m | -2.7m/s | -37.8°C | 0% | 0hPa | 4.5V | 00:00:00 | 00:00:00 | 00:00:00 | |
| DF2AP-13 | 2026-08-31 11:19:18 | 51.33555 | 9.92191 | 58° | 133km/h | 8321m | -2.6m/s | 0°C | 0% | 0hPa | 4.5V | 00:00:00 | 00:00:00 | 00:00:00 | |
| HSKMA3-T | 2026-08-31 11:19:16 | 51.33500 | 9.92056 | 57° | 133km/h | 8327m | -2.8m/s | -37.9°C | 0% | 0hPa | 4.5V | 00:00:00 | 00:00:00 | 00:00:00 | |
| DL1XH-west | 2026-08-31 11:19:09 | 51.33372 | 9.91737 | 58° | 133km/h | 8346m | -2.7m/s | -38°C | 0% | 0hPa | 4.5V | 00:00:00 | 00:00:00 | 00:00:00 | |
| DF8AY | 2026-08-31 11:19:07 | 51.33336 | 9.91647 | 57° | 133km/h | 8352m | -2.8m/s | -38.1°C | 0% | 0hPa | 4.5V | 00:00:00 | 00:00:00 | 00:00:00 | |
| HSKMA3-T | 2026-08-31 11:19:03 | 51.33264 | 9.91466 | 58° | 133km/h | 8362m | -2.9m/s | -38.1°C | 0% | 0hPa | 4.5V | 00:00:00 | 00:00:00 | 00:00:00 | |
| DL1XH-west | 2026-08-31 11:18:58 | 51.33174 | 9.91237 | 58° | 135km/h | 8376m | -2.7m/s | -38.3°C | 0% | 0hPa | 4.4V | 00:00:00 | 00:00:00 | 00:00:00 | |
| DF8AY | 2026-08-31 11:18:56 | 51.33138 | 9.91145 | 58° | 133km/h | 8382m | -2.7m/s | -38.3°C | 0% | 0hPa | 4.4V | 00:00:00 | 00:00:00 | 00:00:00 | |
| HSKMA3-T | 2026-08-31 11:18:52 | 51.33066 | 9.90961 | 58° | 135km/h | 8393m | -2.7m/s | -38.3°C | 0% | 0hPa | 4.5V | 00:00:00 | 00:00:00 | 00:00:00 | |
| DF2AP-13 | 2026-08-31 11:18:48 | 51.33011 | 9.90823 | 58° | 135km/h | 8403m | -2.6m/s | 0°C | 0% | 0hPa | 4.5V | 00:00:00 | 00:00:00 | 00:00:00 | |
| DL1XH-west | 2026-08-31 11:18:47 | 51.32993 | 9.90777 | 58° | 135km/h | 8403m | -2.6m/s | -38.4°C | 0% | 0hPa | 4.5V | 00:00:00 | 00:00:00 | 00:00:00 | |
| DF8AY | 2026-08-31 11:18:46 | 51.32957 | 9.90685 | 58° | 135km/h | 8408m | -2.7m/s | -38.4°C | 0% | 0hPa | 4.5V | 00:00:00 | 00:00:00 | 00:00:00 | |
| DB0NH | 2026-08-31 11:18:44 | 51.32939 | 9.90638 | 58° | 135km/h | 8418m | -2.6m/s | 0°C | 0% | 0hPa | 4.5V | 00:00:00 | 00:00:00 | 00:00:00 | |
| HSKMA3-T | 2026-08-31 11:18:41 | 51.32867 | 9.90454 | 59° | 133km/h | 8421m | -2.7m/s | -38.6°C | 0% | 0hPa | 4.5V | 00:00:00 | 00:00:00 | 00:00:00 | |
| DL1XH-west | 2026-08-31 11:18:37 | 51.32814 | 9.90315 | 59° | 135km/h | 8429m | -2.6m/s | -38.6°C | 0% | 0hPa | 4.5V | 00:00:00 | 00:00:00 | 00:00:00 | |
| DF8AY | 2026-08-31 11:18:35 | 51.32759 | 9.90175 | 58° | 137km/h | 8437m | -2.6m/s | -38.7°C | 0% | 0hPa | 4.5V | 00:00:00 | 00:00:00 | 00:00:00 | |
| HSKMA3-T | 2026-08-31 11:18:30 | 51.32668 | 9.89942 | 58° | 135km/h | 8450m | -2.6m/s | -38.8°C | 0% | 0hPa | 4.5V | 00:00:00 | 00:00:00 | 00:00:00 | |
| DL1XH-west | 2026-08-31 11:18:26 | 51.32596 | 9.89756 | 59° | 135km/h | 8460m | -2.7m/s | -38.8°C | 0% | 0hPa | 4.5V | 00:00:00 | 00:00:00 | 00:00:00 | |
| DF8AY | 2026-08-31 11:18:24 | 51.32560 | 9.89663 | 58° | 137km/h | 8465m | -2.6m/s | -38.9°C | 0% | 0hPa | 4.5V | 00:00:00 | 00:00:00 | 00:00:00 | |
| THATR2-17 | 2026-08-31 11:18:23 | 51.32288 | 9.88964 | 58° | 137km/h | 8503m | 0m/s | 0°C | 0% | 0hPa | 4.5V | 00:00:00 | 00:00:00 | 00:00:00 | |
| HSKMA3-T | 2026-08-31 11:18:20 | 51.32488 | 9.89477 | 58° | 135km/h | 8475m | -2.8m/s | -39°C | 0% | 0hPa | 4.5V | 00:00:00 | 00:00:00 | 00:00:00 | |
| DF2AP-13 | 2026-08-31 11:18:18 | 51.32469 | 9.89430 | 58° | 137km/h | 8480m | -2.4m/s | 0°C | 0% | 0hPa | 4.5V | 00:00:00 | 00:00:00 | 00:00:00 | |
| DL1XH-west | 2026-08-31 11:18:15 | 51.32397 | 9.89244 | 58° | 137km/h | 8487m | -2.7m/s | -39.1°C | 0% | 0hPa | 4.5V | 00:00:00 | 00:00:00 | 00:00:00 | |
| DF8AY | 2026-08-31 11:18:14 | 51.32378 | 9.89198 | 58° | 135km/h | 8490m | -2.6m/s | -39.1°C | 0% | 0hPa | 4.5V | 00:00:00 | 00:00:00 | 00:00:00 | |
| DB0NH | 2026-08-31 11:18:13 | 51.32378 | 9.89198 | 59° | 131km/h | 8495m | -2.5m/s | 0°C | 0% | 0hPa | 4.5V | 00:00:00 | 00:00:00 | 00:00:00 | |
| DL3OBA | 2026-08-31 11:18:12 | 51.32360 | 9.89151 | 59° | 135km/h | 8493m | -2.5m/s | -39.1°C | 0% | 0hPa | 4.5V | 00:00:00 | 00:00:00 | 00:00:00 | |
| HSKMA3-T | 2026-08-31 11:18:09 | 51.32288 | 9.88964 | 58° | 137km/h | 8503m | -2.5m/s | -39.3°C | 0% | 0hPa | 4.5V | 00:00:00 | 00:00:00 | 00:00:00 | |
| DL1XH-west | 2026-08-31 11:18:04 | 51.32215 | 9.88777 | 58° | 137km/h | 8512m | -2.5m/s | -39.3°C | 0% | 0hPa | 4.5V | 00:00:00 | 00:00:00 | 00:00:00 | |
| DF8AY | 2026-08-31 11:18:03 | 51.32178 | 9.88683 | 58° | 137km/h | 8518m | -2.5m/s | -39.3°C | 0% | 0hPa | 4.5V | 00:00:00 | 00:00:00 | 00:00:00 | |
| DL1XH-west | 2026-08-31 11:17:51 | 51.31979 | 9.88170 | 58° | 135km/h | 8545m | -2.3m/s | -39.6°C | 0% | 0hPa | 4.5V | 00:00:00 | 00:00:00 | 00:00:00 | |
| DF2AP-13 | 2026-08-31 11:17:48 | 51.31925 | 9.88030 | 59° | 137km/h | 8555m | -2.4m/s | 0°C | 0% | 0hPa | 4.5V | 00:00:00 | 00:00:00 | 00:00:00 | |
| HSKMA3-T | 2026-08-31 11:17:47 | 51.31889 | 9.87937 | 59° | 135km/h | 8557m | -2.5m/s | -39.6°C | 0% | 0hPa | 4.5V | 00:00:00 | 00:00:00 | 00:00:00 | |
| DL1XH-west | 2026-08-31 11:17:41 | 51.31781 | 9.87657 | 59° | 135km/h | 8571m | -2.4m/s | -39.8°C | 0% | 0hPa | 4.5V | 00:00:00 | 00:00:00 | 00:00:00 | |
| DL3OBA | 2026-08-31 11:17:39 | 51.31763 | 9.87610 | 59° | 137km/h | 8574m | -2.4m/s | -39.8°C | 0% | 0hPa | 4.5V | 00:00:00 | 00:00:00 | 00:00:00 | |
| HSKMA3-T | 2026-08-31 11:17:37 | 51.31709 | 9.87470 | 58° | 137km/h | 8580m | -2.3m/s | -39.8°C | 0% | 0hPa | 4.5V | 00:00:00 | 00:00:00 | 00:00:00 | |
| DL1XH-west | 2026-08-31 11:17:30 | 51.31585 | 9.87140 | 60° | 137km/h | 8597m | -2.5m/s | -40°C | 0% | 0hPa | 4.5V | 00:00:00 | 00:00:00 | 00:00:00 | |
| HSKMA3-T | 2026-08-31 11:17:26 | 51.31514 | 9.86951 | 59° | 137km/h | 8607m | -2.5m/s | -40°C | 0% | 0hPa | 4.5V | 00:00:00 | 00:00:00 | 00:00:00 | |
| THATR2-17 | 2026-08-31 11:17:21 | 51.31026 | 9.85673 | 58° | 135km/h | 8667m | 0m/s | 0°C | 0% | 0hPa | 4.5V | 00:00:00 | 00:00:00 | 00:00:00 | |
| DL1XH-west | 2026-08-31 11:17:19 | 51.31388 | 9.86619 | 59° | 137km/h | 8623m | -2.2m/s | -40.2°C | 0% | 0hPa | 4.5V | 00:00:00 | 00:00:00 | 00:00:00 | |
| DF2AP-13 | 2026-08-31 11:17:18 | 51.31388 | 9.86619 | 59° | 137km/h | 8626m | -2.2m/s | 0°C | 0% | 0hPa | 4.5V | 00:00:00 | 00:00:00 | 00:00:00 | |
| HSKMA3-T | 2026-08-31 11:17:15 | 51.31316 | 9.86429 | 59° | 139km/h | 8632m | -2.3m/s | -40.2°C | 0% | 0hPa | 4.5V | 00:00:00 | 00:00:00 | 00:00:00 | |
| DL1XH-west | 2026-08-31 11:17:08 | 51.31208 | 9.86144 | 59° | 137km/h | 8645m | -2.3m/s | -40.3°C | 0% | 0hPa | 4.5V | 00:00:00 | 00:00:00 | 00:00:00 | |
| HSKMA3-T | 2026-08-31 11:17:04 | 51.31117 | 9.85909 | 58° | 137km/h | 8656m | -2.4m/s | -40.3°C | 0% | 0hPa | 4.4V | 00:00:00 | 00:00:00 | 00:00:00 | |
| DL1XH-west | 2026-08-31 11:16:58 | 51.31007 | 9.85626 | 58° | 137km/h | 8670m | -2.2m/s | -40.4°C | 0% | 0hPa | 4.4V | 00:00:00 | 00:00:00 | 00:00:00 | |
| HSKMA3-T | 2026-08-31 11:16:51 | 51.30879 | 9.85296 | 58° | 137km/h | 8686m | -2.3m/s | -40.5°C | 0% | 0hPa | 4.4V | 00:00:00 | 00:00:00 | 00:00:00 | |
| DF2AP-13 | 2026-08-31 11:16:48 | 51.30841 | 9.85202 | 58° | 137km/h | 8693m | -2.1m/s | 0°C | 0% | 0hPa | 4.4V | 00:00:00 | 00:00:00 | 00:00:00 | |
| DL1XH-west | 2026-08-31 11:16:47 | 51.30804 | 9.85108 | 58° | 137km/h | 8695m | -2.2m/s | -40.6°C | 0% | 0hPa | 4.4V | 00:00:00 | 00:00:00 | 00:00:00 | |
| HSKMA3-T | 2026-08-31 11:16:41 | 51.30695 | 9.84826 | 58° | 137km/h | 8708m | -2.2m/s | -40.7°C | 0% | 0hPa | 4.5V | 00:00:00 | 00:00:00 | 00:00:00 | |
| DL1XH-west | 2026-08-31 11:16:36 | 51.30621 | 9.84637 | 58° | 139km/h | 8717m | -2.1m/s | -40.8°C | 0% | 0hPa | 4.5V | 00:00:00 | 00:00:00 | 00:00:00 | |
| DF8AY | 2026-08-31 11:16:36 | 51.30602 | 9.84590 | 58° | 137km/h | 8719m | -2.3m/s | -40.8°C | 0% | 0hPa | 4.5V | 00:00:00 | 00:00:00 | 00:00:00 | |
| HSKMA3-T | 2026-08-31 11:16:32 | 51.30510 | 9.84356 | 58° | 137km/h | 8730m | -2.3m/s | -40.9°C | 0% | 0hPa | 4.5V | 00:00:00 | 00:00:00 | 00:00:00 | |
| DL1XH-west | 2026-08-31 11:16:25 | 51.30417 | 9.84122 | 58° | 139km/h | 8741m | -2.2m/s | -41°C | 0% | 0hPa | 4.5V | 00:00:00 | 00:00:00 | 00:00:00 | |
| DF8AY | 2026-08-31 11:16:25 | 51.30379 | 9.84028 | 58° | 139km/h | 8746m | -2.4m/s | -41°C | 0% | 0hPa | 4.5V | 00:00:00 | 00:00:00 | 00:00:00 | |
| DF2AP-13 | 2026-08-31 11:16:18 | 51.30285 | 9.83793 | 58° | 139km/h | 8768m | -2.1m/s | 0°C | 0% | 0hPa | 4.5V | 00:00:00 | 00:00:00 | 00:00:00 | |
| DL1XH-west | 2026-08-31 11:16:15 | 51.30229 | 9.83653 | 57° | 137km/h | 8763m | -2.2m/s | -41.2°C | 0% | 0hPa | 4.5V | 00:00:00 | 00:00:00 | 00:00:00 | |
| DF8AY | 2026-08-31 11:16:15 | 51.30210 | 9.83606 | 57° | 139km/h | 8765m | -2.3m/s | -41.2°C | 0% | 0hPa | 4.5V | 00:00:00 | 00:00:00 | 00:00:00 | |
| DL1XH-west | 2026-08-31 11:16:04 | 51.29999 | 9.83091 | 57° | 139km/h | 8789m | -2.2m/s | -41.4°C | 0% | 0hPa | 4.5V | 00:00:00 | 00:00:00 | 00:00:00 | |
| DF8AY | 2026-08-31 11:16:03 | 51.29980 | 9.83044 | 57° | 139km/h | 8791m | -2.1m/s | -41.4°C | 0% | 0hPa | 4.5V | 00:00:00 | 00:00:00 | 00:00:00 | |
| HSKMA3-T | 2026-08-31 11:15:58 | 51.29883 | 9.82810 | 56° | 139km/h | 8802m | -2.2m/s | -41.4°C | 0% | 0hPa | 4.5V | 00:00:00 | 00:00:00 | 00:00:00 | |
| DL1XH-west | 2026-08-31 11:15:53 | 51.29805 | 9.82623 | 57° | 141km/h | 8810m | -2m/s | -41.5°C | 0% | 0hPa | 4.5V | 00:00:00 | 00:00:00 | 00:00:00 | |
| DF8AY | 2026-08-31 11:15:53 | 51.29785 | 9.82575 | 57° | 141km/h | 8812m | -2.3m/s | -41.5°C | 0% | 0hPa | 4.5V | 00:00:00 | 00:00:00 | 00:00:00 | |
| DF2AP-13 | 2026-08-31 11:15:47 | 51.29686 | 9.82340 | 57° | 137km/h | 8825m | -2.0m/s | 0°C | 0% | 0hPa | 4.6V | 00:00:00 | 00:00:00 | 00:00:00 | |
| HSKMA3-T | 2026-08-31 11:15:46 | 51.29667 | 9.82293 | 56° | 139km/h | 8825m | -2.1m/s | -41.6°C | 0% | 0hPa | 4.6V | 00:00:00 | 00:00:00 | 00:00:00 | |
| DL1XH-west | 2026-08-31 11:15:42 | 51.29569 | 9.82060 | 56° | 139km/h | 8836m | -2.2m/s | -41.7°C | 0% | 0hPa | 4.5V | 00:00:00 | 00:00:00 | 00:00:00 | |
| DL3OBA | 2026-08-31 11:15:37 | 51.29490 | 9.81873 | 57° | 139km/h | 8845m | -2.3m/s | -41.8°C | 0% | 0hPa | 4.4V | 00:00:00 | 00:00:00 | 00:00:00 | |
| DL1XH-west | 2026-08-31 11:15:31 | 51.29372 | 9.81597 | 55° | 137km/h | 8857m | -2.4m/s | -41.9°C | 0% | 0hPa | 4.4V | 00:00:00 | 00:00:00 | 00:00:00 | |
| DF8AY | 2026-08-31 11:15:20 | 51.29138 | 9.81052 | 56° | 137km/h | 8883m | -2.4m/s | -41.8°C | 0% | 0hPa | 4.5V | 00:00:00 | 00:00:00 | 00:00:00 | |
| DF2AP-13 | 2026-08-31 11:15:17 | 51.29099 | 9.80960 | 57° | 126km/h | 8890m | -2.2m/s | 0°C | 0% | 0hPa | 4.5V | 00:00:00 | 00:00:00 | 00:00:00 | |
| DL1XH-west | 2026-08-31 11:15:09 | 51.28942 | 9.80595 | 56° | 137km/h | 8906m | -2.4m/s | -41.8°C | 0% | 0hPa | 4.5V | 00:00:00 | 00:00:00 | 00:00:00 | |
| DF8AY | 2026-08-31 11:15:08 | 51.28903 | 9.80503 | 56° | 137km/h | 8911m | -2.5m/s | -41.8°C | 0% | 0hPa | 4.5V | 00:00:00 | 00:00:00 | 00:00:00 | |
| DL1XH-west | 2026-08-31 11:14:59 | 51.28726 | 9.80092 | 56° | 137km/h | 8931m | -2.5m/s | -41.9°C | 0% | 0hPa | 4.5V | 00:00:00 | 00:00:00 | 00:00:00 | |
| DF8AY | 2026-08-31 11:14:57 | 51.28687 | 9.80000 | 56° | 137km/h | 8936m | -2.3m/s | -42°C | 0% | 0hPa | 4.5V | 00:00:00 | 00:00:00 | 00:00:00 | |
| DL1XH-west | 2026-08-31 11:14:49 | 51.28532 | 9.79632 | 56° | 139km/h | 8954m | -2.4m/s | -42.1°C | 0% | 0hPa | 4.4V | 00:00:00 | 00:00:00 | 00:00:00 | |
| DF8AY | 2026-08-31 11:14:46 | 51.28473 | 9.79494 | 56° | 137km/h | 8961m | -2.3m/s | -42.2°C | 0% | 0hPa | 4.4V | 00:00:00 | 00:00:00 | 00:00:00 | |
| DL1XH-west | 2026-08-31 11:14:37 | 51.28318 | 9.79125 | 57° | 139km/h | 8981m | -2.4m/s | -42.3°C | 0% | 0hPa | 4.4V | 00:00:00 | 00:00:00 | 00:00:00 | |
| DF8AY | 2026-08-31 11:14:36 | 51.28279 | 9.79031 | 57° | 139km/h | 8986m | -2.3m/s | -42.3°C | 0% | 0hPa | 4.4V | 00:00:00 | 00:00:00 | 00:00:00 | |
| DL1XH-west | 2026-08-31 11:14:27 | 51.28105 | 9.78612 | 57° | 139km/h | 9007m | -2.5m/s | -42.5°C | 0% | 0hPa | 4.5V | 00:00:00 | 00:00:00 | 00:00:00 | |
| DF8AY | 2026-08-31 11:14:25 | 51.28067 | 9.78518 | 57° | 139km/h | 9011m | -2.4m/s | -42.5°C | 0% | 0hPa | 4.5V | 00:00:00 | 00:00:00 | 00:00:00 | |
| DL1NUX | 2026-08-31 11:14:18 | 51.27856 | 9.78004 | 57° | 139km/h | 9053m | -2.4m/s | 0°C | 0% | 0hPa | 0V | 00:00:00 | 00:00:00 | 00:00:00 | |
| DL1XH-west | 2026-08-31 11:14:15 | 51.27895 | 9.78098 | 57° | 139km/h | 9032m | -2.4m/s | -42.7°C | 0% | 0hPa | 4.5V | 00:00:00 | 00:00:00 | 00:00:00 | |
| DF8AY | 2026-08-31 11:14:14 | 51.27857 | 9.78004 | 57° | 139km/h | 9037m | -2.3m/s | -42.7°C | 0% | 0hPa | 4.5V | 00:00:00 | 00:00:00 | 00:00:00 | |
| DL1XH-west | 2026-08-31 11:14:05 | 51.27703 | 9.77625 | 58° | 139km/h | 9055m | -2.5m/s | -42.9°C | 0% | 0hPa | 4.5V | 00:00:00 | 00:00:00 | 00:00:00 | |
| DF8AY | 2026-08-31 11:14:03 | 51.27646 | 9.77483 | 57° | 141km/h | 9062m | -2.4m/s | -42.9°C | 0% | 0hPa | 4.5V | 00:00:00 | 00:00:00 | 00:00:00 | |
| DL1NUX | 2026-08-31 11:14:01 | 51.27608 | 9.77388 | 57° | 141km/h | 9071m | -2.3m/s | 0°C | 0% | 0hPa | 0V | 00:00:00 | 00:00:00 | 00:00:00 | |
| DL1XH-west | 2026-08-31 11:13:55 | 51.27495 | 9.77103 | 59° | 139km/h | 9080m | -2.4m/s | -43°C | 0% | 0hPa | 4.5V | 00:00:00 | 00:00:00 | 00:00:00 | |
| DF8AY | 2026-08-31 11:13:53 | 51.27458 | 9.77008 | 58° | 139km/h | 9085m | -2.4m/s | -43.1°C | 0% | 0hPa | 4.5V | 00:00:00 | 00:00:00 | 00:00:00 | |
| DL1NUX | 2026-08-31 11:13:51 | 51.27345 | 9.76724 | 57° | 139km/h | 9103m | -2.4m/s | 0°C | 0% | 0hPa | 0V | 00:00:00 | 00:00:00 | 00:00:00 | |
| SO1NDE-10 | 2026-08-31 11:13:46 | 51.27345 | 9.76723 | 58° | 137km/h | 9103m | -2.4m/s | 0°C | 0% | 0hPa | 4.5V | 00:00:00 | 00:00:00 | 00:00:00 | |
| DL1XH-west | 2026-08-31 11:13:43 | 51.27289 | 9.76581 | 58° | 139km/h | 9105m | -2.5m/s | -43.1°C | 0% | 0hPa | 4.5V | 00:00:00 | 00:00:00 | 00:00:00 | |
| THATR2-17 | 2026-08-31 11:13:43 | 51.27024 | 9.75917 | 57° | 139km/h | 9139m | 0m/s | 0°C | 0% | 0hPa | 4.5V | 00:00:00 | 00:00:00 | 00:00:00 | |
| DF8AY | 2026-08-31 11:13:42 | 51.27251 | 9.76486 | 58° | 139km/h | 9110m | -2.3m/s | -43.2°C | 0% | 0hPa | 4.5V | 00:00:00 | 00:00:00 | 00:00:00 | |
| DL1NUX | 2026-08-31 11:13:38 | 51.27157 | 9.76249 | 57° | 141km/h | 9134m | -2.6m/s | 0°C | 0% | 0hPa | 0V | 00:00:00 | 00:00:00 | 00:00:00 | |
| DL1XH-west | 2026-08-31 11:13:33 | 51.27081 | 9.76059 | 58° | 139km/h | 9131m | -2.7m/s | -43.2°C | 0% | 0hPa | 4.5V | 00:00:00 | 00:00:00 | 00:00:00 | |
| DF8AY | 2026-08-31 11:13:31 | 51.27043 | 9.75965 | 58° | 139km/h | 9136m | -2.3m/s | -43.3°C | 0% | 0hPa | 4.5V | 00:00:00 | 00:00:00 | 00:00:00 | |
| DL1NUX | 2026-08-31 11:13:27 | 51.26892 | 9.75583 | 57° | 139km/h | 9156m | -2.6m/s | 0°C | 0% | 0hPa | 0V | 00:00:00 | 00:00:00 | 00:00:00 | |
| DL1XH-west | 2026-08-31 11:13:22 | 51.26872 | 9.75536 | 57° | 141km/h | 9158m | -2.4m/s | -43.4°C | 0% | 0hPa | 4.5V | 00:00:00 | 00:00:00 | 00:00:00 | |
| DF8AY | 2026-08-31 11:13:20 | 51.26834 | 9.75441 | 57° | 141km/h | 9163m | -2.5m/s | -43.4°C | 0% | 0hPa | 4.5V | 00:00:00 | 00:00:00 | 00:00:00 | |
| DL1XH-west | 2026-08-31 11:13:11 | 51.26683 | 9.75054 | 58° | 141km/h | 9182m | -2.7m/s | -43.5°C | 0% | 0hPa | 4.5V | 00:00:00 | 00:00:00 | 00:00:00 | |
| DF8AY | 2026-08-31 11:13:10 | 51.26645 | 9.74959 | 58° | 141km/h | 9187m | -2.5m/s | -43.5°C | 0% | 0hPa | 4.5V | 00:00:00 | 00:00:00 | 00:00:00 | |
| SONCRA | 2026-08-31 11:13:08 | 51.26607 | 9.74863 | 57° | 139km/h | 9192m | -2.6m/s | -43.5°C | -1.0% | -1.0hPa | 4.5V | 00:00:00 | 00:00:00 | 00:00:00 | |
| DL1XH-west | 2026-08-31 11:13:01 | 51.26477 | 9.74529 | 59° | 139km/h | 9209m | -2.6m/s | -43.6°C | 0% | 0hPa | 4.5V | 00:00:00 | 00:00:00 | 00:00:00 | |
| DF8AY | 2026-08-31 11:13:00 | 51.26459 | 9.74481 | 58° | 139km/h | 9211m | -2.5m/s | -43.6°C | 0% | 0hPa | 4.5V | 00:00:00 | 00:00:00 | 00:00:00 | |
| DL1XH-west | 2026-08-31 11:12:50 | 51.26275 | 9.74004 | 59° | 137km/h | 9236m | -2.5m/s | -43.7°C | 0% | 0hPa | 4.5V | 00:00:00 | 00:00:00 | 00:00:00 | |
| DF8AY | 2026-08-31 11:12:49 | 51.26257 | 9.73957 | 59° | 139km/h | 9238m | -2.5m/s | -43.7°C | 0% | 0hPa | 4.5V | 00:00:00 | 00:00:00 | 00:00:00 | |
| DL1NUX | 2026-08-31 11:12:45 | 51.26114 | 9.73574 | 59° | 139km/h | 9273m | -2.5m/s | 0°C | 0% | 0hPa | 0V | 00:00:00 | 00:00:00 | 00:00:00 | |
| DL1XH-west | 2026-08-31 11:12:39 | 51.26096 | 9.73526 | 60° | 137km/h | 9261m | -2.6m/s | -43.9°C | 0% | 0hPa | 4.4V | 00:00:00 | 00:00:00 | 00:00:00 | |
| DF8AY | 2026-08-31 11:12:39 | 51.26079 | 9.73478 | 60° | 137km/h | 9263m | -2.5m/s | -43.9°C | 0% | 0hPa | 4.4V | 00:00:00 | 00:00:00 | 00:00:00 | |
| DL1XH-west | 2026-08-31 11:12:28 | 51.25902 | 9.73005 | 60° | 137km/h | 9289m | -2.6m/s | -44.1°C | 0% | 0hPa | 4.5V | 00:00:00 | 00:00:00 | 00:00:00 | |
| DL1NUX | 2026-08-31 11:12:27 | 51.25867 | 9.72909 | 59° | 137km/h | 9296m | -2.7m/s | 0°C | 0% | 0hPa | 0V | 00:00:00 | 00:00:00 | 00:00:00 | |
| SO1NDE-10 | 2026-08-31 11:12:23 | 51.25814 | 9.72768 | 60° | 135km/h | 9304m | -2.6m/s | 0°C | 0% | 0hPa | 4.5V | 00:00:00 | 00:00:00 | 00:00:00 | |
| DL1XH-west | 2026-08-31 11:12:18 | 51.25708 | 9.72485 | 59° | 135km/h | 9317m | -2.4m/s | -44.3°C | 0% | 0hPa | 4.5V | 00:00:00 | 00:00:00 | 00:00:00 | |
| DL1XH-west | 2026-08-31 11:12:07 | 51.25515 | 9.71976 | 59° | 133km/h | 9345m | -2.5m/s | -44.4°C | 0% | 0hPa | 4.5V | 00:00:00 | 00:00:00 | 00:00:00 | |
| SONCRA | 2026-08-31 11:12:06 | 51.25497 | 9.71930 | 59° | 131km/h | 9348m | -2.7m/s | -44.5°C | -1.0% | -1.0hPa | 4.5V | 00:00:00 | 00:00:00 | 00:00:00 | |
| DF8AY | 2026-08-31 11:11:57 | 51.25340 | 9.71523 | 59° | 130km/h | 9372m | -2.7m/s | -44.6°C | 0% | 0hPa | 4.5V | 00:00:00 | 00:00:00 | 00:00:00 | |
| DL1XH-west | 2026-08-31 11:11:56 | 51.25323 | 9.71477 | 59° | 131km/h | 9375m | -2.8m/s | -44.6°C | 0% | 0hPa | 4.5V | 00:00:00 | 00:00:00 | 00:00:00 | |
| SO1NDE-10 | 2026-08-31 11:11:52 | 51.25271 | 9.71340 | 59° | 131km/h | 9389m | -2.7m/s | 0°C | 0% | 0hPa | 4.5V | 00:00:00 | 00:00:00 | 00:00:00 | |
| DF8AY | 2026-08-31 11:11:46 | 51.24980 | 9.70585 | 58° | 126km/h | 9431m | -2.7m/s | -45°C | 0% | 0hPa | 4.5V | 00:00:00 | 00:00:00 | 00:00:00 | |
| DL1XH-west | 2026-08-31 11:11:45 | 51.25151 | 9.71025 | 58° | 128km/h | 9403m | -2.6m/s | -44.8°C | 0% | 0hPa | 4.5V | 00:00:00 | 00:00:00 | 00:00:00 | |
| DL1XH-west | 2026-08-31 11:11:34 | 51.24963 | 9.70542 | 58° | 126km/h | 9433m | -2.8m/s | -45.1°C | 0% | 0hPa | 4.5V | 00:00:00 | 00:00:00 | 00:00:00 | |
| DF8AY | 2026-08-31 11:11:25 | 51.24795 | 9.70105 | 59° | 126km/h | 9459m | -3m/s | -45.1°C | 0% | 0hPa | 4.5V | 00:00:00 | 00:00:00 | 00:00:00 | |
| DL1XH-west | 2026-08-31 11:11:24 | 51.24779 | 9.70062 | 58° | 126km/h | 9462m | -2.8m/s | -45.2°C | 0% | 0hPa | 4.5V | 00:00:00 | 00:00:00 | 00:00:00 | |
| SO1NDE-10 | 2026-08-31 11:11:16 | 51.24663 | 9.69759 | 59° | 128km/h | 9485m | -2.8m/s | 0°C | 0% | 0hPa | 0V | 00:00:00 | 00:00:00 | 00:00:00 | |
| DL1NUX | 2026-08-31 11:11:15 | 51.24565 | 9.69502 | 58° | 124km/h | 0m | -2.7m/s | 0°C | 0% | 0hPa | 0V | 00:00:00 | 00:00:00 | 00:00:00 | |
| DF8AY | 2026-08-31 11:11:14 | 51.24613 | 9.69630 | 59° | 124km/h | 9490m | -2.6m/s | -45.4°C | 0% | 0hPa | 4.5V | 00:00:00 | 00:00:00 | 00:00:00 | |
| DL1XH-west | 2026-08-31 11:11:13 | 51.24597 | 9.69587 | 59° | 124km/h | 9493m | -2.8m/s | -45.4°C | 0% | 0hPa | 4.5V | 00:00:00 | 00:00:00 | 00:00:00 | |
| DL1NUX | 2026-08-31 11:11:08 | 51.24467 | 9.69241 | 60° | 126km/h | 9520m | -2.9m/s | 0°C | 0% | 0hPa | 0V | 00:00:00 | 00:00:00 | 00:00:00 | |
| DL1CLM-18 | 2026-08-31 11:11:03 | 51.24451 | 9.69197 | 61° | 126km/h | 9518m | -2.7m/s | -45.6°C | 0% | 0hPa | 4.5V | 00:00:00 | 00:00:00 | 00:00:00 | |
| DL1XH-west | 2026-08-31 11:11:02 | 51.24420 | 9.69110 | 60° | 124km/h | 9523m | -2.8m/s | -45.6°C | 0% | 0hPa | 4.5V | 00:00:00 | 00:00:00 | 00:00:00 | |
| DL1XH-west | 2026-08-31 11:10:52 | 51.24261 | 9.68686 | 59° | 122km/h | 9551m | -2.9m/s | -45.7°C | 0% | 0hPa | 4.5V | 00:00:00 | 00:00:00 | 00:00:00 | |
| DL1XH-west | 2026-08-31 11:10:40 | 51.24085 | 9.68229 | 59° | 120km/h | 9582m | -2.9m/s | -45.7°C | 0% | 0hPa | 4.5V | 00:00:00 | 00:00:00 | 00:00:00 | |
| DL1XH-west | 2026-08-31 11:10:30 | 51.23908 | 9.67774 | 58° | 120km/h | 9612m | -2.8m/s | -45.9°C | 0% | 0hPa | 4.4V | 00:00:00 | 00:00:00 | 00:00:00 | |
| DL1XH-west | 2026-08-31 11:10:20 | 51.23749 | 9.67361 | 59° | 120km/h | 9641m | -2.9m/s | -46.1°C | 0% | 0hPa | 4.5V | 00:00:00 | 00:00:00 | 00:00:00 | |
| DF8AY | 2026-08-31 11:10:19 | 51.23733 | 9.67319 | 59° | 120km/h | 9644m | -2.8m/s | -46.1°C | 0% | 0hPa | 4.5V | 00:00:00 | 00:00:00 | 00:00:00 | |
| DL1XH-west | 2026-08-31 11:10:08 | 51.23578 | 9.66901 | 60° | 120km/h | 9672m | -2.9m/s | -46.3°C | 0% | 0hPa | 4.5V | 00:00:00 | 00:00:00 | 00:00:00 | |
| SONCRA | 2026-08-31 11:10:02 | 51.23470 | 9.66609 | 59° | 119km/h | 9692m | -3.0m/s | -46.4°C | -1.0% | -1.0hPa | 4.5V | 00:00:00 | 00:00:00 | 00:00:00 | |
| DL1XH-west | 2026-08-31 11:09:57 | 51.23409 | 9.66442 | 60° | 120km/h | 9704m | -3m/s | -46.5°C | 0% | 0hPa | 4.5V | 00:00:00 | 00:00:00 | 00:00:00 | |
| DL1XH-west | 2026-08-31 11:09:47 | 51.23236 | 9.65983 | 59° | 122km/h | 9735m | -2.8m/s | -46.7°C | 0% | 0hPa | 4.5V | 00:00:00 | 00:00:00 | 00:00:00 | |
| DL1XH-west | 2026-08-31 11:09:36 | 51.23058 | 9.65519 | 59° | 124km/h | 9767m | -2.9m/s | -46.9°C | 0% | 0hPa | 4.5V | 00:00:00 | 00:00:00 | 00:00:00 | |
| DO8TBO-1 | 2026-08-31 11:09:33 | 51.22993 | 9.65349 | 59° | 122km/h | 9781m | -2.8m/s | 0°C | 0% | 0hPa | 4.5V | 00:00:00 | 00:00:00 | 00:00:00 | |
| DF8AY | 2026-08-31 11:09:26 | 51.22894 | 9.65091 | 58° | 126km/h | 9795m | -2.9m/s | -47°C | 0% | 0hPa | 4.5V | 00:00:00 | 00:00:00 | 00:00:00 | |
| DL1XH-west | 2026-08-31 11:09:23 | 51.22844 | 9.64962 | 58° | 124km/h | 9804m | -2.8m/s | -47.1°C | 0% | 0hPa | 4.5V | 00:00:00 | 00:00:00 | 00:00:00 | |
| DF8AY | 2026-08-31 11:09:15 | 51.22711 | 9.64624 | 58° | 124km/h | 9826m | -2.9m/s | -47.1°C | 0% | 0hPa | 4.5V | 00:00:00 | 00:00:00 | 00:00:00 | |
| DL1XH-west | 2026-08-31 11:09:12 | 51.22677 | 9.64539 | 58° | 124km/h | 9832m | -2.8m/s | -47.1°C | 0% | 0hPa | 4.5V | 00:00:00 | 00:00:00 | 00:00:00 | |
| DF2AP-13 | 2026-08-31 11:09:06 | 51.22576 | 9.64289 | 58° | 124km/h | 9852m | -2.8m/s | 0°C | 0% | 0hPa | 4.5V | 00:00:00 | 00:00:00 | 00:00:00 | |
| DF8AY | 2026-08-31 11:09:04 | 51.22526 | 9.64165 | 57° | 122km/h | 9858m | -2.9m/s | -47°C | 0% | 0hPa | 4.5V | 00:00:00 | 00:00:00 | 00:00:00 | |
| THATR2-17 | 2026-08-31 11:09:04 | 51.22459 | 9.63998 | 57° | 122km/h | 9869m | 0m/s | 0°C | 0% | 0hPa | 4.5V | 00:00:00 | 00:00:00 | 00:00:00 | |
| DL1XH-west | 2026-08-31 11:09:02 | 51.22492 | 9.64082 | 57° | 122km/h | 9863m | -2.9m/s | -47.1°C | 0% | 0hPa | 4.5V | 00:00:00 | 00:00:00 | 00:00:00 | |
| DF8AY | 2026-08-31 11:08:53 | 51.22340 | 9.63709 | 56° | 122km/h | 9889m | -2.7m/s | -47.3°C | 0% | 0hPa | 4.5V | 00:00:00 | 00:00:00 | 00:00:00 | |
| DL1XH-west | 2026-08-31 11:08:51 | 51.22306 | 9.63627 | 57° | 122km/h | 9894m | -2.8m/s | -47.3°C | 0% | 0hPa | 4.5V | 00:00:00 | 00:00:00 | 00:00:00 | |
| DF8AY | 2026-08-31 11:08:42 | 51.22153 | 9.63256 | 57° | 122km/h | 9919m | -2.7m/s | -47.5°C | 0% | 0hPa | 4.5V | 00:00:00 | 00:00:00 | 00:00:00 | |
| DL1XH-west | 2026-08-31 11:08:40 | 51.22119 | 9.63174 | 57° | 122km/h | 9925m | -2.7m/s | -47.5°C | 0% | 0hPa | 4.5V | 00:00:00 | 00:00:00 | 00:00:00 | |
| DO2JMG | 2026-08-31 11:08:34 | 51.22018 | 9.62929 | 57° | 120km/h | 9941m | -2.8m/s | -47.7°C | 0% | 0hPa | 4.5V | 00:00:00 | 00:00:00 | 00:00:00 | |
| DF8AY | 2026-08-31 11:08:32 | 51.21984 | 9.62848 | 57° | 120km/h | 9947m | -2.6m/s | -47.7°C | 0% | 0hPa | 4.5V | 00:00:00 | 00:00:00 | 00:00:00 | |
| DL1XH-west | 2026-08-31 11:08:29 | 51.21950 | 9.62766 | 57° | 122km/h | 9952m | -2.8m/s | -47.7°C | 0% | 0hPa | 4.5V | 00:00:00 | 00:00:00 | 00:00:00 | |
| DF8AY | 2026-08-31 11:08:21 | 51.21799 | 9.62399 | 57° | 122km/h | 9976m | -2.9m/s | -48.1°C | 0% | 0hPa | 4.5V | 00:00:00 | 00:00:00 | 00:00:00 | |
| DL1XH-west | 2026-08-31 11:08:18 | 51.21766 | 9.62317 | 57° | 120km/h | 9982m | -2.9m/s | -48°C | 0% | 0hPa | 4.5V | 00:00:00 | 00:00:00 | 00:00:00 | |
| DO2JMG | 2026-08-31 11:08:14 | 51.21684 | 9.62110 | 58° | 120km/h | 9996m | -2.8m/s | -48.1°C | 0% | 0hPa | 4.5V | 00:00:00 | 00:00:00 | 00:00:00 | |
| DL1CLM-18 | 2026-08-31 11:08:13 | 51.21684 | 9.62110 | 59° | 120km/h | 9996m | -2.8m/s | -48.1°C | 0% | 0hPa | 4.5V | 00:00:00 | 00:00:00 | 00:00:00 | |
| DL1XH-west | 2026-08-31 11:08:08 | 51.21587 | 9.61862 | 59° | 120km/h | 10012m | -2.7m/s | -48.2°C | 0% | 0hPa | 4.5V | 00:00:00 | 00:00:00 | 00:00:00 | |
| DF8AY | 2026-08-31 11:08:06 | 51.21554 | 9.61779 | 58° | 122km/h | 10017m | -2.6m/s | -48.3°C | 0% | 0hPa | 4.5V | 00:00:00 | 00:00:00 | 00:00:00 | |
| S3001 | 2026-08-31 11:08:05 | 51.21522 | 9.61696 | 57° | 120km/h | 10023m | -2.8m/s | -48.3°C | -1.0% | -1.0hPa | 4.5V | 00:00:00 | 00:00:00 | 00:00:00 | |
| DL1XH-west | 2026-08-31 11:07:57 | 51.21407 | 9.61407 | 58° | 122km/h | 10042m | -2.8m/s | -48.4°C | 0% | 0hPa | 4.5V | 00:00:00 | 00:00:00 | 00:00:00 | |
| DF8AY | 2026-08-31 11:07:55 | 51.21307 | 9.61159 | 57° | 122km/h | 10058m | -2.9m/s | -48.5°C | 0% | 0hPa | 4.5V | 00:00:00 | 00:00:00 | 00:00:00 | |
| DL1XH-west | 2026-08-31 11:07:46 | 51.21222 | 9.60955 | 57° | 122km/h | 10072m | -2.8m/s | -48.6°C | 0% | 0hPa | 4.5V | 00:00:00 | 00:00:00 | 00:00:00 | |
| DF8AY | 2026-08-31 11:07:41 | 51.21138 | 9.60750 | 57° | 122km/h | 10086m | -2.8m/s | -48.6°C | 0% | 0hPa | 4.5V | 00:00:00 | 00:00:00 | 00:00:00 | |
| DL1XH-west | 2026-08-31 11:07:35 | 51.21053 | 9.60545 | 56° | 122km/h | 10099m | -2.8m/s | -48.7°C | 0% | 0hPa | 4.5V | 00:00:00 | 00:00:00 | 00:00:00 | |
| DF8AY | 2026-08-31 11:07:29 | 51.20933 | 9.60259 | 56° | 122km/h | 10118m | -2.7m/s | -48.9°C | 0% | 0hPa | 4.5V | 00:00:00 | 00:00:00 | 00:00:00 | |
| DO2JMG | 2026-08-31 11:07:25 | 51.20881 | 9.60136 | 55° | 122km/h | 10126m | -2.7m/s | 0°C | 0% | 0hPa | 4.5V | 00:00:00 | 00:00:00 | 00:00:00 | |
| DL1XH-west | 2026-08-31 11:07:25 | 51.20863 | 9.60096 | 56° | 122km/h | 10129m | -2.8m/s | -48.9°C | 0% | 0hPa | 4.5V | 00:00:00 | 00:00:00 | 00:00:00 | |
| DF8AY | 2026-08-31 11:07:18 | 51.20742 | 9.59812 | 56° | 122km/h | 10147m | -2.6m/s | -49.1°C | 0% | 0hPa | 4.5V | 00:00:00 | 00:00:00 | 00:00:00 | |
| DL1XH-west | 2026-08-31 11:07:13 | 51.20670 | 9.59650 | 55° | 122km/h | 10158m | -2.6m/s | -49.1°C | 0% | 0hPa | 4.5V | 00:00:00 | 00:00:00 | 00:00:00 | |
| DF8AY | 2026-08-31 11:07:08 | 51.20563 | 9.59405 | 56° | 124km/h | 10174m | -2.7m/s | -49.3°C | 0% | 0hPa | 4.5V | 00:00:00 | 00:00:00 | 00:00:00 | |
| DL1XH-west | 2026-08-31 11:07:03 | 51.20492 | 9.59239 | 55° | 126km/h | 10184m | -2.6m/s | -49.3°C | 0% | 0hPa | 4.5V | 00:00:00 | 00:00:00 | 00:00:00 | |
| S3001 | 2026-08-31 11:07:03 | 51.20473 | 9.59198 | 54° | 124km/h | 10187m | -2.7m/s | -49.3°C | -1.0% | -1.0hPa | 4.5V | 00:00:00 | 00:00:00 | 00:00:00 | |
| DF8AY | 2026-08-31 11:06:56 | 51.20345 | 9.58913 | 55° | 126km/h | 10205m | -2.6m/s | -49.4°C | 0% | 0hPa | 4.5V | 00:00:00 | 00:00:00 | 00:00:00 | |
| DL1XH-west | 2026-08-31 11:06:52 | 51.20291 | 9.58789 | 55° | 126km/h | 10213m | -2.6m/s | -49.4°C | 0% | 0hPa | 4.5V | 00:00:00 | 00:00:00 | 00:00:00 | |
| DM0DOS-11 | 2026-08-31 11:06:50 | 51.20254 | 9.58706 | 54° | 128km/h | 10221m | -2.5m/s | 0°C | 0% | 0hPa | 0V | 00:00:00 | 00:00:00 | 00:00:00 | |
| DO2JMG | 2026-08-31 11:06:46 | 51.20160 | 9.58497 | 55° | 128km/h | 10232m | -2.5m/s | 0°C | 0% | 0hPa | 4.5V | 00:00:00 | 00:00:00 | 00:00:00 | |
| DL1XH-west | 2026-08-31 11:06:41 | 51.20086 | 9.58330 | 55° | 130km/h | 10242m | -2.6m/s | -49.3°C | 0% | 0hPa | 4.5V | 00:00:00 | 00:00:00 | 00:00:00 | |
| DL1CLM-18 | 2026-08-31 11:06:36 | 51.19991 | 9.58115 | 56° | 131km/h | 10256m | -2.6m/s | -49.3°C | 0% | 0hPa | 0V | 00:00:00 | 00:00:00 | 00:00:00 | |
| DM0DOS-11 | 2026-08-31 11:06:35 | 51.19879 | 9.57859 | 55° | 128km/h | 10274m | -2.6m/s | 0°C | 0% | 0hPa | 0V | 00:00:00 | 00:00:00 | 00:00:00 | |
| DL1XH-west | 2026-08-31 11:06:31 | 51.19879 | 9.57859 | 56° | 128km/h | 10271m | -2.5m/s | -49.3°C | 0% | 0hPa | 4.5V | 00:00:00 | 00:00:00 | 00:00:00 | |
| DF8AY | 2026-08-31 11:06:29 | 51.19842 | 9.57774 | 56° | 128km/h | 10276m | -2.6m/s | -49.3°C | 0% | 0hPa | 4.5V | 00:00:00 | 00:00:00 | 00:00:00 | |
| DM0DOS-11 | 2026-08-31 11:06:25 | 51.19691 | 9.57434 | 55° | 130km/h | 10300m | -2.5m/s | 0°C | 0% | 0hPa | 0V | 00:00:00 | 00:00:00 | 00:00:00 | |
| DL1XH-west | 2026-08-31 11:06:20 | 51.19673 | 9.57391 | 55° | 130km/h | 10300m | -2.5m/s | -49.2°C | 0% | 0hPa | 4.5V | 00:00:00 | 00:00:00 | 00:00:00 | |
| DL1NUX | 2026-08-31 11:06:18 | 51.19561 | 9.57132 | 55° | 130km/h | 10318m | -2.7m/s | 0°C | 0% | 0hPa | 0V | 00:00:00 | 00:00:00 | 00:00:00 | |
| DM0DOS-11 | 2026-08-31 11:06:14 | 51.19506 | 9.57002 | 56° | 131km/h | 10326m | -2.5m/s | 0°C | 0% | 0hPa | 0V | 00:00:00 | 00:00:00 | 00:00:00 | |
| DF8AY | 2026-08-31 11:06:14 | 51.19561 | 9.57132 | 56° | 130km/h | 10316m | -2.7m/s | -49.1°C | 0% | 0hPa | 4.5V | 00:00:00 | 00:00:00 | 00:00:00 | |
| DL1XH-west | 2026-08-31 11:06:09 | 51.19487 | 9.56958 | 57° | 131km/h | 10326m | -2.5m/s | -49.1°C | 0% | 0hPa | 4.5V | 00:00:00 | 00:00:00 | 00:00:00 | |
| DL1NUX | 2026-08-31 11:06:08 | 51.19379 | 9.56692 | 56° | 131km/h | 10342m | -2.5m/s | 0°C | 0% | 0hPa | 0V | 00:00:00 | 00:00:00 | 00:00:00 | |
| SO1NDE-10 | 2026-08-31 11:06:07 | 51.19451 | 9.56870 | 58° | 131km/h | 10331m | -2.6m/s | 0°C | 0% | 0hPa | 4.5V | 00:00:00 | 00:00:00 | 00:00:00 | |
| DF8AY | 2026-08-31 11:06:04 | 51.19379 | 9.56692 | 57° | 131km/h | 10342m | -2.5m/s | -49.1°C | 0% | 0hPa | 4.5V | 00:00:00 | 00:00:00 | 00:00:00 | |
| DL1XH-west | 2026-08-31 11:05:59 | 51.19288 | 9.56475 | 56° | 130km/h | 10355m | -2.7m/s | -49.1°C | 0% | 0hPa | 4.5V | 00:00:00 | 00:00:00 | 00:00:00 | |
| THATR2-17 | 2026-08-31 11:05:57 | 51.18878 | 9.55539 | 54° | 128km/h | 10416m | 0m/s | 0°C | 0% | 0hPa | 4.5V | 00:00:00 | 00:00:00 | 00:00:00 | |
| DF8AY | 2026-08-31 11:05:50 | 51.19123 | 9.56087 | 55° | 130km/h | 10380m | -2.7m/s | -49.1°C | 0% | 0hPa | 4.5V | 00:00:00 | 00:00:00 | 00:00:00 | |
| DL1XH-west | 2026-08-31 11:05:48 | 51.19085 | 9.56002 | 55° | 128km/h | 10385m | -2.6m/s | -49.1°C | 0% | 0hPa | 4.5V | 00:00:00 | 00:00:00 | 00:00:00 | |
| DO2JMG | 2026-08-31 11:05:46 | 51.19047 | 9.55918 | 55° | 130km/h | 10390m | -2.7m/s | -49.1°C | 0% | 0hPa | 4.5V | 00:00:00 | 00:00:00 | 00:00:00 | |
| DL1XH-west | 2026-08-31 11:05:37 | 51.18878 | 9.55539 | 54° | 130km/h | 10416m | -2.8m/s | -49.1°C | 0% | 0hPa | 4.5V | 00:00:00 | 00:00:00 | 00:00:00 | |
| DO2JMG | 2026-08-31 11:05:35 | 51.18839 | 9.55454 | 54° | 130km/h | 10422m | -2.7m/s | -49.1°C | 0% | 0hPa | 4.5V | 00:00:00 | 00:00:00 | 00:00:00 | |
| DL1XH-west | 2026-08-31 11:05:26 | 51.18670 | 9.55066 | 56° | 130km/h | 10447m | -2.9m/s | -49.1°C | 0% | 0hPa | 4.5V | 00:00:00 | 00:00:00 | 00:00:00 | |
| DO2JMG | 2026-08-31 11:05:24 | 51.18651 | 9.55023 | 55° | 130km/h | 10450m | -2.8m/s | -49.1°C | 0% | 0hPa | 4.5V | 00:00:00 | 00:00:00 | 00:00:00 | |
| DF2AP-13 | 2026-08-31 11:05:24 | 51.18651 | 9.55023 | 56° | 131km/h | 10450m | -2.8m/s | 0°C | 0% | 0hPa | 4.5V | 00:00:00 | 00:00:00 | 00:00:00 | |
| DF8AY | 2026-08-31 11:05:22 | 51.18523 | 9.54721 | 56° | 130km/h | 10470m | -2.8m/s | -49.1°C | 0% | 0hPa | 4.5V | 00:00:00 | 00:00:00 | 00:00:00 | |
| DL1XH-west | 2026-08-31 11:05:16 | 51.18486 | 9.54634 | 56° | 130km/h | 10476m | -2.7m/s | -49°C | 0% | 0hPa | 4.5V | 00:00:00 | 00:00:00 | 00:00:00 | |
| DL1XH-west | 2026-08-31 11:05:05 | 51.18281 | 9.54152 | 56° | 131km/h | 10507m | -2.7m/s | -49.1°C | 0% | 0hPa | 4.5V | 00:00:00 | 00:00:00 | 00:00:00 | |
| DF8AY | 2026-08-31 11:05:03 | 51.18244 | 9.54063 | 56° | 131km/h | 10513m | -2.8m/s | -49.1°C | 0% | 0hPa | 4.5V | 00:00:00 | 00:00:00 | 00:00:00 | |
| DB0NH | 2026-08-31 11:04:59 | 51.18188 | 9.53930 | 57° | 53km/h | 10524m | -2.8m/s | 0°C | 0% | 0hPa | 0V | 00:00:00 | 00:00:00 | 00:00:00 | |
| DL1NUX | 2026-08-31 11:04:58 | 51.18152 | 9.53841 | 56° | 133km/h | 10555m | -2.6m/s | 0°C | 0% | 0hPa | 0V | 00:00:00 | 00:00:00 | 00:00:00 | |
| DL1XH-west | 2026-08-31 11:04:54 | 51.18079 | 9.53663 | 57° | 131km/h | 10538m | -2.8m/s | -49.2°C | 0% | 0hPa | 4.5V | 00:00:00 | 00:00:00 | 00:00:00 | |
| DF2AP-13 | 2026-08-31 11:04:51 | 51.18043 | 9.53575 | 58° | 128km/h | 10561m | -2.6m/s | 0°C | 0% | 0hPa | 4.5V | 00:00:00 | 00:00:00 | 00:00:00 | |
| DF8AY | 2026-08-31 11:04:50 | 51.18007 | 9.53487 | 57° | 130km/h | 10549m | -2.8m/s | -49.1°C | 0% | 0hPa | 4.5V | 00:00:00 | 00:00:00 | 00:00:00 | |
| DL1XH-west | 2026-08-31 11:04:43 | 51.17881 | 9.53182 | 57° | 130km/h | 10569m | -2.7m/s | -49°C | 0% | 0hPa | 4.5V | 00:00:00 | 00:00:00 | 00:00:00 | |
| DF8AY | 2026-08-31 11:04:40 | 51.17740 | 9.52834 | 57° | 128km/h | 10591m | -2.7m/s | -49°C | 0% | 0hPa | 4.5V | 00:00:00 | 00:00:00 | 00:00:00 | |
| DL1XH-west | 2026-08-31 11:04:33 | 51.17704 | 9.52747 | 57° | 128km/h | 10596m | -2.8m/s | -49°C | 0% | 0hPa | 4.5V | 00:00:00 | 00:00:00 | 00:00:00 | |
| DF8AY | 2026-08-31 11:04:27 | 51.17599 | 9.52487 | 58° | 128km/h | 10613m | -2.7m/s | -49.1°C | 0% | 0hPa | 4.5V | 00:00:00 | 00:00:00 | 00:00:00 | |
| DL1XH-west | 2026-08-31 11:04:22 | 51.17512 | 9.52270 | 57° | 130km/h | 10626m | -2.8m/s | -49°C | 0% | 0hPa | 4.5V | 00:00:00 | 00:00:00 | 00:00:00 | |
| DF2AP-13 | 2026-08-31 11:04:19 | 51.17477 | 9.52183 | 58° | 130km/h | 10635m | -2.6m/s | 0°C | 0% | 0hPa | 4.5V | 00:00:00 | 00:00:00 | 00:00:00 | |
| DF8AY | 2026-08-31 11:04:16 | 51.17407 | 9.52010 | 57° | 128km/h | 10643m | -2.7m/s | -49.1°C | 0% | 0hPa | 4.5V | 00:00:00 | 00:00:00 | 00:00:00 | |
| DL1XH-west | 2026-08-31 11:04:11 | 51.17336 | 9.51838 | 56° | 128km/h | 10655m | -2.7m/s | -49.2°C | 0% | 0hPa | 4.5V | 00:00:00 | 00:00:00 | 00:00:00 | |
| DF8AY | 2026-08-31 11:04:05 | 51.17206 | 9.51536 | 56° | 128km/h | 10673m | -2.6m/s | -49.3°C | 0% | 0hPa | 4.5V | 00:00:00 | 00:00:00 | 00:00:00 | |
| DO2JMG | 2026-08-31 11:04:02 | 51.17151 | 9.51408 | 55° | 130km/h | 10682m | -2.9m/s | -49.4°C | 0% | 0hPa | 4.5V | 00:00:00 | 00:00:00 | 00:00:00 | |
| DL1XH-west | 2026-08-31 11:04:00 | 51.17114 | 9.51323 | 55° | 130km/h | 10687m | -2.5m/s | -49.4°C | 0% | 0hPa | 4.5V | 00:00:00 | 00:00:00 | 00:00:00 | |
| DF8AY | 2026-08-31 11:03:54 | 51.17001 | 9.51059 | 56° | 131km/h | 10704m | -2.7m/s | -49.4°C | 0% | 0hPa | 4.5V | 00:00:00 | 00:00:00 | 00:00:00 | |
| DO2JMG | 2026-08-31 11:03:52 | 51.16963 | 9.50972 | 56° | 130km/h | 10709m | -2.8m/s | -49.4°C | 0% | 0hPa | 4.5V | 00:00:00 | 00:00:00 | 00:00:00 | |
| DL1XH-west | 2026-08-31 11:03:49 | 51.16926 | 9.50886 | 55° | 130km/h | 10715m | -2.5m/s | -49.4°C | 0% | 0hPa | 4.5V | 00:00:00 | 00:00:00 | 00:00:00 | |
| DO2JMG | 2026-08-31 11:03:41 | 51.16759 | 9.50500 | 56° | 130km/h | 10739m | -2.7m/s | -49.1°C | 0% | 0hPa | 4.5V | 00:00:00 | 00:00:00 | 00:00:00 | |
| DL1XH-west | 2026-08-31 11:03:37 | 51.16686 | 9.50326 | 56° | 131km/h | 10750m | -2.6m/s | -49°C | 0% | 0hPa | 4.5V | 00:00:00 | 00:00:00 | 00:00:00 | |
| DO2JMG | 2026-08-31 11:03:30 | 51.16554 | 9.50022 | 55° | 130km/h | 10769m | -2.5m/s | -48.9°C | 0% | 0hPa | 4.5V | 00:00:00 | 00:00:00 | 00:00:00 | |
| DF8AY | 2026-08-31 11:03:28 | 51.16516 | 9.49936 | 55° | 130km/h | 10774m | -2.6m/s | -48.9°C | 0% | 0hPa | 4.5V | 00:00:00 | 00:00:00 | 00:00:00 | |
| DL1XH-west | 2026-08-31 11:03:26 | 51.16498 | 9.49892 | 55° | 130km/h | 10777m | -2.7m/s | -48.9°C | 0% | 0hPa | 4.5V | 00:00:00 | 00:00:00 | 00:00:00 | |
| SO1NDE-10 | 2026-08-31 11:03:25 | 51.16479 | 9.49849 | 56° | 130km/h | 10785m | -2.6m/s | 0°C | 0% | 0hPa | 0V | 00:00:00 | 00:00:00 | 00:00:00 | |
| DL1NUX | 2026-08-31 11:03:24 | 51.16366 | 9.49594 | 54° | 130km/h | 10796m | -2.7m/s | 0°C | 0% | 0hPa | 0V | 00:00:00 | 00:00:00 | 00:00:00 | |
| DO2JMG | 2026-08-31 11:03:19 | 51.16347 | 9.49551 | 55° | 130km/h | 10798m | -2.7m/s | -49°C | 0% | 0hPa | 4.5V | 00:00:00 | 00:00:00 | 00:00:00 | |
| DF2AP-13 | 2026-08-31 11:03:19 | 51.16366 | 9.49594 | 56° | 130km/h | 10799m | -2.7m/s | 0°C | 0% | 0hPa | 4.5V | 00:00:00 | 00:00:00 | 00:00:00 | |
| DF8AY | 2026-08-31 11:03:18 | 51.16310 | 9.49466 | 55° | 130km/h | 10804m | -2.5m/s | -49°C | 0% | 0hPa | 4.5V | 00:00:00 | 00:00:00 | 00:00:00 | |
| DL1XH-west | 2026-08-31 11:03:15 | 51.16291 | 9.49424 | 55° | 130km/h | 10807m | -2.5m/s | -49°C | 0% | 0hPa | 4.5V | 00:00:00 | 00:00:00 | 00:00:00 | |
| DL1NUX | 2026-08-31 11:03:14 | 51.16178 | 9.49172 | 54° | 128km/h | 10861m | -2.7m/s | 0°C | 0% | 0hPa | 0V | 00:00:00 | 00:00:00 | 00:00:00 | |
| DO2JMG | 2026-08-31 11:03:09 | 51.16159 | 9.49130 | 55° | 126km/h | 10826m | -2.7m/s | -49.2°C | 0% | 0hPa | 4.5V | 00:00:00 | 00:00:00 | 00:00:00 | |
| DF8AY | 2026-08-31 11:03:06 | 51.16103 | 9.49006 | 54° | 126km/h | 10834m | -2.7m/s | -49.2°C | 0% | 0hPa | 4.5V | 00:00:00 | 00:00:00 | 00:00:00 | |
| DL1XH-west | 2026-08-31 11:03:04 | 51.16066 | 9.48924 | 54° | 126km/h | 10839m | -2.7m/s | -49.3°C | 0% | 0hPa | 4.5V | 00:00:00 | 00:00:00 | 00:00:00 | |
| DL1NUX | 2026-08-31 11:03:03 | 51.15972 | 9.48718 | 53° | 126km/h | 10861m | -2.7m/s | 0°C | 0% | 0hPa | 0V | 00:00:00 | 00:00:00 | 00:00:00 | |
| DF8AY | 2026-08-31 11:02:56 | 51.15916 | 9.48596 | 54° | 126km/h | 10861m | -2.7m/s | -49.4°C | 0% | 0hPa | 4.5V | 00:00:00 | 00:00:00 | 00:00:00 | |
| SO1NDE-10 | 2026-08-31 11:02:55 | 51.15916 | 9.48596 | 54° | 128km/h | 10872m | -2.6m/s | 0°C | 0% | 0hPa | 4.5V | 00:00:00 | 00:00:00 | 00:00:00 | |
| DL1XH-west | 2026-08-31 11:02:53 | 51.15878 | 9.48515 | 54° | 126km/h | 10866m | -2.6m/s | -49.4°C | 0% | 0hPa | 4.5V | 00:00:00 | 00:00:00 | 00:00:00 | |
| DL1NUX | 2026-08-31 11:02:47 | 51.15746 | 9.48230 | 53° | 126km/h | 10896m | -2.6m/s | 0°C | 0% | 0hPa | 0V | 00:00:00 | 00:00:00 | 00:00:00 | |
| DL1XH-west | 2026-08-31 11:02:43 | 51.15689 | 9.48108 | 54° | 126km/h | 10893m | -2.5m/s | -49.6°C | 0% | 0hPa | 4.5V | 00:00:00 | 00:00:00 | 00:00:00 | |
| DF8AY | 2026-08-31 11:02:41 | 51.15632 | 9.47986 | 53° | 128km/h | 10901m | -2.6m/s | -49.6°C | 0% | 0hPa | 4.5V | 00:00:00 | 00:00:00 | 00:00:00 | |
| DL1NUX | 2026-08-31 11:02:40 | 51.15535 | 9.47780 | 53° | 128km/h | 10926m | -2.7m/s | 0°C | 0% | 0hPa | 0V | 00:00:00 | 00:00:00 | 00:00:00 | |
| DL1XH-west | 2026-08-31 11:02:32 | 51.15477 | 9.47656 | 53° | 128km/h | 10923m | -2.7m/s | -49.5°C | 0% | 0hPa | 4.5V | 00:00:00 | 00:00:00 | 00:00:00 | |
| DF8AY | 2026-08-31 11:02:30 | 51.15419 | 9.47532 | 54° | 128km/h | 10932m | -2.7m/s | 0°C | 0% | 0hPa | 0V | 00:00:00 | 00:00:00 | 00:00:00 | |
| DL1NUX | 2026-08-31 11:02:28 | 51.15305 | 9.47281 | 53° | 128km/h | 10951m | -2.8m/s | 0°C | 0% | 0hPa | 0V | 00:00:00 | 00:00:00 | 00:00:00 | |
| SO1NDE-10 | 2026-08-31 11:02:25 | 51.15343 | 9.47365 | 54° | 130km/h | 10946m | -2.6m/s | 0°C | 0% | 0hPa | 0V | 00:00:00 | 00:00:00 | 00:00:00 | |
| DF8AY | 2026-08-31 11:02:19 | 51.15209 | 9.47073 | 54° | 128km/h | 10961m | -2.6m/s | 0°C | 0% | 0hPa | 0V | 00:00:00 | 00:00:00 | 00:00:00 | |
| DL1NUX | 2026-08-31 11:02:18 | 51.15115 | 9.46862 | 54° | 130km/h | 10983m | -2.6m/s | 0°C | 0% | 0hPa | 0V | 00:00:00 | 00:00:00 | 00:00:00 | |
| DL1XH-west | 2026-08-31 11:02:17 | 51.15171 | 9.46989 | 55° | 128km/h | 10966m | -2.8m/s | -49.5°C | 0% | 0hPa | 4.5V | 00:00:00 | 00:00:00 | 00:00:00 | |
| DL1XH-west | 2026-08-31 11:02:06 | 51.14960 | 9.46527 | 54° | 130km/h | 10996m | -2.6m/s | -49.7°C | 0% | 0hPa | 4.5V | 00:00:00 | 00:00:00 | 00:00:00 | |
| DL1NUX | 2026-08-31 11:02:05 | 51.14902 | 9.46399 | 55° | 131km/h | 11007m | -2.5m/s | 0°C | 0% | 0hPa | 0V | 00:00:00 | 00:00:00 | 00:00:00 | |
| DL1NUX | 2026-08-31 11:01:55 | 51.14714 | 9.45979 | 54° | 130km/h | 11035m | -2.6m/s | 0°C | 0% | 0hPa | 0V | 00:00:00 | 00:00:00 | 00:00:00 | |
| SO1NDE-10 | 2026-08-31 11:01:55 | 51.14771 | 9.46104 | 55° | 131km/h | 11027m | -2.6m/s | 0°C | 0% | 0hPa | 0V | 00:00:00 | 00:00:00 | 00:00:00 | |
| DL1NUX | 2026-08-31 11:01:47 | 51.14523 | 9.45550 | 54° | 131km/h | 11063m | -3m/s | 0°C | 0% | 0hPa | 0V | 00:00:00 | 00:00:00 | 00:00:00 | |
| DF2AP-13 | 2026-08-31 11:01:39 | 51.14465 | 9.45419 | 56° | 131km/h | 11074m | -2.8m/s | 0°C | 0% | 0hPa | 0V | 00:00:00 | 00:00:00 | 00:00:00 | |
| DL1NUX | 2026-08-31 11:01:37 | 51.14333 | 9.45109 | 55° | 131km/h | 11094m | -2.8m/s | 0°C | 0% | 0hPa | 0V | 00:00:00 | 00:00:00 | 00:00:00 | |
| DL1XH-west | 2026-08-31 11:01:34 | 51.14276 | 9.44979 | 55° | 131km/h | 11096m | -2.7m/s | -49.8°C | 0% | 0hPa | 4.5V | 00:00:00 | 00:00:00 | 00:00:00 | |
| DO2JMG | 2026-08-31 11:01:32 | 51.14314 | 9.45066 | 55° | 131km/h | 11091m | -2.7m/s | 0°C | 0% | 0hPa | 4.5V | 00:00:00 | 00:00:00 | 00:00:00 | |
| SO1NDE-10 | 2026-08-31 11:01:25 | 51.14201 | 9.44803 | 57° | 126km/h | 11113m | -2.7m/s | 0°C | 0% | 0hPa | 4.5V | 00:00:00 | 00:00:00 | 00:00:00 | |
| DL1XH-west | 2026-08-31 11:01:24 | 51.14164 | 9.44713 | 57° | 133km/h | 11113m | -2.7m/s | -49.8°C | 0% | 0hPa | 4.5V | 00:00:00 | 00:00:00 | 00:00:00 | |
| S3001 | 2026-08-31 11:01:21 | 51.14128 | 9.44623 | 57° | 131km/h | 11119m | -2.8m/s | 0°C | -1.0% | -1.0hPa | 4.5V | 00:00:00 | 00:00:00 | 00:00:00 | |
| THATR2-17 | 2026-08-31 11:01:18 | 51.13713 | 9.43559 | 58° | 128km/h | 11187m | 0m/s | 0°C | 0% | 0hPa | 4.5V | 00:00:00 | 00:00:00 | 00:00:00 | |
| HSKMA3-T | 2026-08-31 11:01:14 | 51.13983 | 9.44270 | 58° | 130km/h | 11142m | -2.8m/s | -49.7°C | 0% | 0hPa | 4.5V | 00:00:00 | 00:00:00 | 00:00:00 | |
| DL1XH-west | 2026-08-31 11:01:12 | 51.13931 | 9.44137 | 58° | 130km/h | 11150m | -2.9m/s | -49.7°C | 0% | 0hPa | 4.5V | 00:00:00 | 00:00:00 | 00:00:00 | |
| DF2AP-13 | 2026-08-31 11:01:09 | 51.13914 | 9.44093 | 59° | 128km/h | 11156m | -2.6m/s | 0°C | 0% | 0hPa | 0V | 00:00:00 | 00:00:00 | 00:00:00 | |
| DC4HF-4 | 2026-08-31 11:01:08 | 51.13846 | 9.43915 | 58° | 128km/h | 11165m | -2.7m/s | 0°C | -1.0% | -1.0hPa | 0V | 00:00:00 | 00:00:00 | 00:00:00 | |
| DL1NUX | 2026-08-31 11:01:00 | 51.13443 | 9.42864 | 56° | 126km/h | 11256m | -3m/s | 0°C | 0% | 0hPa | 0V | 00:00:00 | 00:00:00 | 00:00:00 | |
| BIOWL1-15 | 2026-08-31 11:00:59 | 50.90774 | 8.85221 | 31° | 31km/h | 18265m | 4.5m/s | 0°C | 0% | 0hPa | 4.7V | 00:00:00 | 00:00:00 | 00:00:00 | |
| D01LWL | 2026-08-31 11:00:58 | 51.13646 | 9.43382 | 58° | 128km/h | 11199m | -3.0m/s | -51.1°C | -1.0% | -1.0hPa | 4.5V | 00:00:00 | 00:00:00 | 00:00:00 | |
| DL1XH-west | 2026-08-31 11:00:57 | 51.13218 | 9.42332 | 55° | 119km/h | 11275m | -3.2m/s | -49.3°C | 0% | 0hPa | 4.5V | 00:00:00 | 00:00:00 | 00:00:00 | |
| DO2JMG | 2026-08-31 11:00:56 | 51.13269 | 9.42451 | 56° | 120km/h | 11266m | -3m/s | -49.4°C | 0% | 0hPa | 4.5V | 00:00:00 | 00:00:00 | 00:00:00 | |
| HSKMA3-T | 2026-08-31 11:00:55 | 51.13201 | 9.42292 | 56° | 119km/h | 11278m | -2.8m/s | -49.3°C | 0% | 0hPa | 4.5V | 00:00:00 | 00:00:00 | 00:00:00 | |
| DF2AP-13 | 2026-08-31 11:00:55 | 51.13408 | 9.42780 | 57° | 119km/h | 11244m | -3.1m/s | 0°C | 0% | 0hPa | 0V | 00:00:00 | 00:00:00 | 00:00:00 | |
| DL1NUX | 2026-08-31 11:00:46 | 51.13200 | 9.42292 | 55° | 119km/h | 11278m | -2.8m/s | 0°C | 0% | 0hPa | 0V | 00:00:00 | 00:00:00 | 00:00:00 | |
| DO2JMG | 2026-08-31 11:00:43 | 51.13252 | 9.42411 | 55° | 120km/h | 11268m | -3m/s | -49.4°C | 0% | 0hPa | 4.5V | 00:00:00 | 00:00:00 | 00:00:00 | |
| HSKMA3-T | 2026-08-31 11:00:42 | 51.13184 | 9.42253 | 56° | 119km/h | 11281m | -3m/s | -49.3°C | 0% | 0hPa | 4.5V | 00:00:00 | 00:00:00 | 00:00:00 | |
| DO2JMG | 2026-08-31 11:00:20 | 51.13082 | 9.42015 | 55° | 117km/h | 11300m | -3.1m/s | -49.1°C | 0% | 0hPa | 4.5V | 00:00:00 | 00:00:00 | 00:00:00 | |
| HSKMA3-T | 2026-08-31 11:00:16 | 51.12999 | 9.41824 | 56° | 115km/h | 11315m | -3.1m/s | -49.1°C | 0% | 0hPa | 4.5V | 00:00:00 | 00:00:00 | 00:00:00 | |
| SO1NDE-10 | 2026-08-31 11:00:16 | 51.12999 | 9.41824 | 56° | 117km/h | 11330m | -3.2m/s | 0°C | 0% | 0hPa | 0V | 00:00:00 | 00:00:00 | 00:00:00 | |
| DL1NUX | 2026-08-31 11:00:13 | 51.12883 | 9.41561 | 53° | 111km/h | 11340m | -2.9m/s | 0°C | 0% | 0hPa | 0V | 00:00:00 | 00:00:00 | 00:00:00 | |
| DF2AP-13 | 2026-08-31 11:00:09 | 51.12917 | 9.41597 | 55° | 110km/h | 11337m | -3.1m/s | 0°C | 0% | 0hPa | 4.5V | 00:00:00 | 00:00:00 | 00:00:00 | |
| HSKMA3-T | 2026-08-31 11:00:06 | 51.12833 | 9.41455 | 53° | 110km/h | 11346m | -3.2m/s | -49°C | 0% | 0hPa | 4.5V | 00:00:00 | 00:00:00 | 00:00:00 | |
| DF8AY | 2026-08-31 11:00:00 | 51.12673 | 9.41098 | 55° | 108km/h | 11378m | -3m/s | -48.9°C | 0% | 0hPa | 8.6V | 00:00:00 | 00:00:00 | 00:00:00 | |
| DB0NH | 2026-08-31 10:59:51 | 50.90466 | 8.84982 | 19° | 24km/h | 18068m | 3.2m/s | 0°C | 0% | 0hPa | 4.5V | 00:00:00 | 00:00:00 | 00:00:00 | |
| DO2JMG | 2026-08-31 10:59:50 | 51.12577 | 9.40889 | 53° | 108km/h | 11396m | -3.1m/s | -48.7°C | 0% | 0hPa | 4.5V | 00:00:00 | 00:00:00 | 00:00:00 | |
| HSKMA3-T | 2026-08-31 10:59:44 | 51.12477 | 9.40682 | 53° | 110km/h | 11415m | -3m/s | -48.5°C | 0% | 0hPa | 4.5V | 00:00:00 | 00:00:00 | 00:00:00 | |
| DO2JMG | 2026-08-31 10:59:40 | 51.12411 | 9.40540 | 54° | 111km/h | 11428m | -3.2m/s | -48.4°C | 0% | 0hPa | 4.5V | 00:00:00 | 00:00:00 | 00:00:00 | |
| DF2AP-13 | 2026-08-31 10:59:39 | 51.12410 | 9.40540 | 55° | 115km/h | 11432m | -3.2m/s | 0°C | 0% | 0hPa | 4.5V | 00:00:00 | 00:00:00 | 00:00:00 | |
| HSKMA3-T | 2026-08-31 10:59:33 | 51.12295 | 9.40284 | 55° | 111km/h | 11451m | -3.1m/s | -48.3°C | 0% | 0hPa | 4.5V | 00:00:00 | 00:00:00 | 00:00:00 | |
| DO3MHA-11 | 2026-08-31 10:59:33 | 50.90366 | 8.84907 | 30° | 60km/h | 18006m | 3.4m/s | 0°C | 0% | 0hPa | 4.5V | 00:00:00 | 00:00:00 | 00:00:00 | |
| DO2JMG | 2026-08-31 10:59:29 | 51.12246 | 9.40173 | 55° | 113km/h | 11460m | -3.1m/s | -48.2°C | 0% | 0hPa | 4.5V | 00:00:00 | 00:00:00 | 00:00:00 | |
| HSKMA3-T | 2026-08-31 10:59:22 | 51.12116 | 9.39870 | 57° | 115km/h | 11485m | -3.2m/s | -48.3°C | 0% | 0hPa | 4.5V | 00:00:00 | 00:00:00 | 00:00:00 | |
| DB0NH | 2026-08-31 10:59:20 | 50.90311 | 8.84835 | 52° | 29km/h | 17956m | 4.0m/s | 0°C | 0% | 0hPa | 4.5V | 00:00:00 | 00:00:00 | 00:00:00 | |
| DL1XH-west | 2026-08-31 10:59:19 | 51.12084 | 9.39792 | 57° | 117km/h | 11492m | -3.3m/s | -48.3°C | 0% | 0hPa | 4.5V | 00:00:00 | 00:00:00 | 00:00:00 | |
| DF8AY | 2026-08-31 10:59:13 | 51.11919 | 9.39397 | 57° | 119km/h | 11525m | -3.3m/s | -48.3°C | 0% | 0hPa | 4.5V | 00:00:00 | 00:00:00 | 00:00:00 | |
| HSKMA3-T | 2026-08-31 10:59:12 | 51.11952 | 9.39477 | 57° | 119km/h | 11518m | -3.2m/s | -48.3°C | 0% | 0hPa | 4.5V | 00:00:00 | 00:00:00 | 00:00:00 | |
| DF2AP-13 | 2026-08-31 10:59:09 | 51.11919 | 9.39397 | 57° | 122km/h | 11528m | -3.2m/s | 0°C | 0% | 0hPa | 4.5V | 00:00:00 | 00:00:00 | 00:00:00 | |
| SONCRA | 2026-08-31 10:59:05 | 51.11837 | 9.39196 | 56° | 120km/h | 11542m | -3.5m/s | -48.4°C | -1.0% | -1.0hPa | 4.5V | 00:00:00 | 00:00:00 | 00:00:00 | |
| HSKMA3-T | 2026-08-31 10:59:01 | 51.11769 | 9.39034 | 57° | 120km/h | 11556m | -3.3m/s | -48.5°C | 0% | 0hPa | 4.5V | 00:00:00 | 00:00:00 | 00:00:00 | |
| DF8AY | 2026-08-31 10:58:57 | 51.11701 | 9.38871 | 57° | 122km/h | 11570m | -3.3m/s | -48.5°C | 0% | 0hPa | 4.5V | 00:00:00 | 00:00:00 | 00:00:00 | |
| DO8TBO-1 | 2026-08-31 10:58:52 | 51.11633 | 9.38706 | 57° | 124km/h | 11584m | -3.2m/s | 0°C | 0% | 0hPa | 4.5V | 00:00:00 | 00:00:00 | 00:00:00 | |
| HSKMA3-T | 2026-08-31 10:58:50 | 51.11582 | 9.38581 | 57° | 124km/h | 11594m | -3.5m/s | -48.7°C | 0% | 0hPa | 4.5V | 00:00:00 | 00:00:00 | 00:00:00 | |
| SO1NDE-10 | 2026-08-31 10:58:47 | 51.11547 | 9.38498 | 58° | 126km/h | 11608m | -3.4m/s | 0°C | 0% | 0hPa | 0V | 00:00:00 | 00:00:00 | 00:00:00 | |
| DL1NUX | 2026-08-31 10:58:46 | 51.11513 | 9.38414 | 57° | 124km/h | 11615m | -3.2m/s | 0°C | 0% | 0hPa | 0V | 00:00:00 | 00:00:00 | 00:00:00 | |
| HSKMA3-T | 2026-08-31 10:58:39 | 51.11393 | 9.38113 | 58° | 126km/h | 11632m | -3.6m/s | -48.9°C | 0% | 0hPa | 4.5V | 00:00:00 | 00:00:00 | 00:00:00 | |
| DL1NUX | 2026-08-31 10:58:33 | 51.11291 | 9.37853 | 58° | 130km/h | 11657m | -3.5m/s | 0°C | 0% | 0hPa | 0V | 00:00:00 | 00:00:00 | 00:00:00 | |
| DF8AY | 2026-08-31 10:58:32 | 51.11274 | 9.37809 | 58° | 130km/h | 11657m | -3.5m/s | -49°C | 0% | 0hPa | 4.5V | 00:00:00 | 00:00:00 | 00:00:00 | |
| DB0NH | 2026-08-31 10:58:32 | 50.90043 | 8.84524 | 21° | 66km/h | 17756m | 4.1m/s | 0°C | 0% | 0hPa | 4.5V | 00:00:00 | 00:00:00 | 00:00:00 | |
| HSKMA3-T | 2026-08-31 10:58:28 | 51.11223 | 9.37676 | 60° | 130km/h | 11668m | -3.6m/s | -49°C | 0% | 0hPa | 4.5V | 00:00:00 | 00:00:00 | 00:00:00 | |
| DL1NUX | 2026-08-31 10:58:27 | 51.11124 | 9.37408 | 57° | 126km/h | 11693m | -3.5m/s | 0°C | 0% | 0hPa | 0V | 00:00:00 | 00:00:00 | 00:00:00 | |
| DO2JMG | 2026-08-31 10:58:18 | 51.11042 | 9.37199 | 59° | 122km/h | 11707m | -3.5m/s | -49°C | 0% | 0hPa | 4.5V | 00:00:00 | 00:00:00 | 00:00:00 | |
| DL1NUX | 2026-08-31 10:58:13 | 51.10946 | 9.36942 | 59° | 124km/h | 11729m | -3.6m/s | 0°C | 0% | 0hPa | 0V | 00:00:00 | 00:00:00 | 00:00:00 | |
| DF2AP-13 | 2026-08-31 10:58:09 | 51.10914 | 9.36857 | 59° | 117km/h | 11740m | -3.4m/s | 0°C | 0% | 0hPa | 4.5V | 00:00:00 | 00:00:00 | 00:00:00 | |
| HSKMA3-T | 2026-08-31 10:58:07 | 51.10866 | 9.36734 | 59° | 120km/h | 11747m | -3.5m/s | -48.7°C | 0% | 0hPa | 4.5V | 00:00:00 | 00:00:00 | 00:00:00 | |
| DL1XH-west | 2026-08-31 10:58:04 | 51.10834 | 9.36650 | 59° | 120km/h | 11754m | -3.4m/s | -48.7°C | 0% | 0hPa | 4.5V | 00:00:00 | 00:00:00 | 00:00:00 | |
| DF8AY | 2026-08-31 10:58:03 | 51.10803 | 9.36566 | 60° | 122km/h | 11760m | -3.4m/s | -48.6°C | 0% | 0hPa | 4.5V | 00:00:00 | 00:00:00 | 00:00:00 | |
| DO8TBO-1 | 2026-08-31 10:57:59 | 51.10713 | 9.36312 | 61° | 115km/h | 11785m | -3.6m/s | 0°C | 0% | 0hPa | 4.5V | 00:00:00 | 00:00:00 | 00:00:00 | |
| HSKMA3-T | 2026-08-31 10:57:57 | 51.10713 | 9.36313 | 61° | 119km/h | 11782m | -3.4m/s | -48.7°C | 0% | 0hPa | 4.5V | 00:00:00 | 00:00:00 | 00:00:00 | |
| DL1XH-west | 2026-08-31 10:57:55 | 51.10684 | 9.36230 | 61° | 117km/h | 11789m | -3.5m/s | -48.7°C | 0% | 0hPa | 4.5V | 00:00:00 | 00:00:00 | 00:00:00 | |
| DF8AY | 2026-08-31 10:57:53 | 51.10655 | 9.36148 | 61° | 117km/h | 11796m | -3.4m/s | -48.7°C | 0% | 0hPa | 4.5V | 00:00:00 | 00:00:00 | 00:00:00 | |
| HSKMA3-T | 2026-08-31 10:57:46 | 51.10552 | 9.35865 | 60° | 113km/h | 11821m | -3.5m/s | -48.5°C | 0% | 0hPa | 4.5V | 00:00:00 | 00:00:00 | 00:00:00 | |
| DL1XH-west | 2026-08-31 10:57:43 | 51.10510 | 9.35749 | 60° | 111km/h | 11831m | -3.4m/s | -48.6°C | 0% | 0hPa | 4.5V | 00:00:00 | 00:00:00 | 00:00:00 | |
| DF8AY | 2026-08-31 10:57:41 | 51.10482 | 9.35671 | 61° | 111km/h | 11838m | -3.5m/s | -48.6°C | 0% | 0hPa | 4.5V | 00:00:00 | 00:00:00 | 00:00:00 | |
| THATR2-17 | 2026-08-31 10:57:40 | 51.10427 | 9.35513 | 61° | 113km/h | 11852m | 0m/s | 0°C | 0% | 0hPa | 4.5V | 00:00:00 | 00:00:00 | 00:00:00 | |
| DF2AP-13 | 2026-08-31 10:57:39 | 51.10469 | 9.35632 | 61° | 110km/h | 11846m | -3.5m/s | 0°C | 0% | 0hPa | 4.5V | 00:00:00 | 00:00:00 | 00:00:00 | |
| HSKMA3-T | 2026-08-31 10:57:35 | 51.10399 | 9.35433 | 62° | 115km/h | 11859m | -3.5m/s | -48.6°C | 0% | 0hPa | 4.5V | 00:00:00 | 00:00:00 | 00:00:00 | |
| DL1XH-west | 2026-08-31 10:57:32 | 51.10372 | 9.35351 | 62° | 115km/h | 11866m | -3.2m/s | -48.6°C | 0% | 0hPa | 4.5V | 00:00:00 | 00:00:00 | 00:00:00 | |
| DL1NUX | 2026-08-31 10:57:31 | 51.10293 | 9.35106 | 63° | 113km/h | 11890m | -3.3m/s | 0°C | 0% | 0hPa | 0V | 00:00:00 | 00:00:00 | 00:00:00 | |
| DF8AY | 2026-08-31 10:57:30 | 51.10332 | 9.35229 | 63° | 115km/h | 11877m | -3.3m/s | -48.5°C | 0% | 0hPa | 4.5V | 00:00:00 | 00:00:00 | 00:00:00 | |
| DO8TBO-1 | 2026-08-31 10:57:28 | 51.10306 | 9.35147 | 63° | 110km/h | 11894m | -3.3m/s | 0°C | 0% | 0hPa | 4.5V | 00:00:00 | 00:00:00 | 00:00:00 | |
| HSKMA3-T | 2026-08-31 10:57:25 | 51.10267 | 9.35025 | 63° | 113km/h | 11894m | -3.3m/s | -48.5°C | 0% | 0hPa | 4.5V | 00:00:00 | 00:00:00 | 00:00:00 | |
| DL1XH-west | 2026-08-31 10:57:23 | 51.10242 | 9.34944 | 64° | 113km/h | 11900m | -3.2m/s | -48.5°C | 0% | 0hPa | 4.5V | 00:00:00 | 00:00:00 | 00:00:00 | |
| DF8AY | 2026-08-31 10:57:20 | 51.10204 | 9.34822 | 64° | 111km/h | 11910m | -3.4m/s | -48.5°C | 0% | 0hPa | 4.5V | 00:00:00 | 00:00:00 | 00:00:00 | |
| DL1NUX | 2026-08-31 10:57:18 | 51.10167 | 9.34701 | 63° | 111km/h | 11923m | -3.2m/s | 0°C | 0% | 0hPa | 0V | 00:00:00 | 00:00:00 | 00:00:00 | |
| HSKMA3-T | 2026-08-31 10:57:13 | 51.10117 | 9.34543 | 63° | 110km/h | 11934m | -3.4m/s | -48.5°C | 0% | 0hPa | 4.5V | 00:00:00 | 00:00:00 | 00:00:00 | |
| DL1XH-west | 2026-08-31 10:57:11 | 51.10092 | 9.34465 | 64° | 108km/h | 11940m | -3.1m/s | -48.5°C | 0% | 0hPa | 4.5V | 00:00:00 | 00:00:00 | 00:00:00 | |
| DF8AY | 2026-08-31 10:57:10 | 51.10068 | 9.34388 | 64° | 106km/h | 11947m | -3.2m/s | -48.5°C | 0% | 0hPa | 4.5V | 00:00:00 | 00:00:00 | 00:00:00 | |
| DL1NUX | 2026-08-31 10:57:08 | 51.10046 | 9.34311 | 64° | 106km/h | 11956m | -3.1m/s | 0°C | 0% | 0hPa | 0V | 00:00:00 | 00:00:00 | 00:00:00 | |
| HSKMA3-T | 2026-08-31 10:57:02 | 51.09989 | 9.34121 | 64° | 104km/h | 11969m | -3.1m/s | -48.3°C | 0% | 0hPa | 4.5V | 00:00:00 | 00:00:00 | 00:00:00 | |
| DL1XH-west | 2026-08-31 10:56:59 | 51.09965 | 9.34046 | 64° | 104km/h | 11975m | -3m/s | -48.1°C | 0% | 0hPa | 4.5V | 00:00:00 | 00:00:00 | 00:00:00 | |
| DF8AY | 2026-08-31 10:56:58 | 51.09943 | 9.33970 | 65° | 104km/h | 11981m | -3.2m/s | -48°C | 0% | 0hPa | 4.5V | 00:00:00 | 00:00:00 | 00:00:00 | |
| DO8TBO-1 | 2026-08-31 10:56:57 | 51.09932 | 9.33932 | 66° | 104km/h | 11984m | -3.2m/s | 0°C | 0% | 0hPa | 4.5V | 00:00:00 | 00:00:00 | 00:00:00 | |
| DO2JMG | 2026-08-31 10:56:53 | 51.09899 | 9.33818 | 66° | 106km/h | 11993m | -3m/s | -48°C | 0% | 0hPa | 4.5V | 00:00:00 | 00:00:00 | 00:00:00 | |
| HSKMA3-T | 2026-08-31 10:56:51 | 51.09876 | 9.33740 | 65° | 108km/h | 11999m | -3m/s | -47.9°C | 0% | 0hPa | 4.5V | 00:00:00 | 00:00:00 | 00:00:00 | |
| SO1NDE-10 | 2026-08-31 10:56:49 | 51.09853 | 9.33663 | 65° | 100km/h | 12009m | -3.0m/s | 0°C | 0% | 0hPa | 0V | 00:00:00 | 00:00:00 | 00:00:00 | |
| DL1NUX | 2026-08-31 10:56:48 | 51.09818 | 9.33549 | 63° | 102km/h | 12018m | -3m/s | 0°C | 0% | 0hPa | 0V | 00:00:00 | 00:00:00 | 00:00:00 | |
| DF8AY | 2026-08-31 10:56:47 | 51.09818 | 9.33549 | 64° | 102km/h | 12015m | -3.2m/s | -47.9°C | 0% | 0hPa | 4.5V | 00:00:00 | 00:00:00 | 00:00:00 | |
| DL1XH-west | 2026-08-31 10:56:43 | 51.09748 | 9.33330 | 63° | 102km/h | 12035m | -3m/s | -47.9°C | 0% | 0hPa | 4.5V | 00:00:00 | 00:00:00 | 00:00:00 | |
| THATR2-17 | 2026-08-31 10:56:38 | 51.09536 | 9.32707 | 60° | 104km/h | 12088m | 0m/s | 0°C | 0% | 0hPa | 4.5V | 00:00:00 | 00:00:00 | 00:00:00 | |
| DO2JMG | 2026-08-31 10:56:37 | 51.09699 | 9.33182 | 62° | 104km/h | 12048m | -3m/s | -47.8°C | 0% | 0hPa | 4.5V | 00:00:00 | 00:00:00 | 00:00:00 | |
| DL1XH-west | 2026-08-31 10:56:31 | 51.09627 | 9.32963 | 62° | 102km/h | 12066m | -3.1m/s | -47.8°C | 0% | 0hPa | 4.5V | 00:00:00 | 00:00:00 | 00:00:00 | |
| DF2AP-13 | 2026-08-31 10:56:30 | 51.09627 | 9.32963 | 62° | 42km/h | 12069m | -3.0m/s | 0°C | 0% | 0hPa | 4.8V | 00:00:00 | 00:00:00 | 00:00:00 | |
| DO2JMG | 2026-08-31 10:56:26 | 51.09562 | 9.32780 | 60° | 106km/h | 12081m | -3.1m/s | -47.9°C | 0% | 0hPa | 4.8V | 00:00:00 | 00:00:00 | 00:00:00 | |
| HSKMA3-T | 2026-08-31 10:56:19 | 51.09486 | 9.32559 | 62° | 104km/h | 12099m | -2.9m/s | -47.9°C | 0% | 0hPa | 4.5V | 00:00:00 | 00:00:00 | 00:00:00 | |
| DL1XH-west | 2026-08-31 10:56:19 | 51.09473 | 9.32523 | 62° | 104km/h | 12102m | -3.1m/s | -47.9°C | 0% | 0hPa | 4.5V | 00:00:00 | 00:00:00 | 00:00:00 | |
| DF8AY | 2026-08-31 10:56:15 | 51.09396 | 9.32302 | 61° | 106km/h | 12119m | -2.9m/s | -47.8°C | 0% | 0hPa | 4.5V | 00:00:00 | 00:00:00 | 00:00:00 | |
| DL1XH-west | 2026-08-31 10:56:08 | 51.09346 | 9.32153 | 63° | 104km/h | 12131m | -3m/s | -47.8°C | 0% | 0hPa | 4.5V | 00:00:00 | 00:00:00 | 00:00:00 | |
| DF8AY | 2026-08-31 10:56:04 | 51.09285 | 9.31968 | 62° | 104km/h | 12147m | -3m/s | -47.8°C | 0% | 0hPa | 4.5V | 00:00:00 | 00:00:00 | 00:00:00 | |
| DL1XH-west | 2026-08-31 10:55:58 | 51.09211 | 9.31748 | 63° | 104km/h | 12165m | -3m/s | -47.5°C | 0% | 0hPa | 4.5V | 00:00:00 | 00:00:00 | 00:00:00 | |
| DF8AY | 2026-08-31 10:55:54 | 51.09164 | 9.31601 | 63° | 102km/h | 12177m | -2.9m/s | -47.5°C | 0% | 0hPa | 4.5V | 00:00:00 | 00:00:00 | 00:00:00 | |
| DL1XH-west | 2026-08-31 10:55:47 | 51.09078 | 9.31348 | 61° | 102km/h | 12198m | -3m/s | -47.3°C | 0% | 0hPa | 4.5V | 00:00:00 | 00:00:00 | 00:00:00 | |
| DF8AY | 2026-08-31 10:55:44 | 51.09041 | 9.31239 | 61° | 104km/h | 12207m | -2.9m/s | -47.3°C | 0% | 0hPa | 4.5V | 00:00:00 | 00:00:00 | 00:00:00 | |
| DL1XH-west | 2026-08-31 10:55:36 | 51.08938 | 9.30941 | 62° | 110km/h | 12230m | -2.9m/s | -47.3°C | 0% | 0hPa | 4.5V | 00:00:00 | 00:00:00 | 00:00:00 | |
| DF8AY | 2026-08-31 10:55:32 | 51.08887 | 9.30789 | 62° | 106km/h | 12242m | -2.9m/s | -47.2°C | 0% | 0hPa | 4.5V | 00:00:00 | 00:00:00 | 00:00:00 | |
| DL1XH-west | 2026-08-31 10:55:25 | 51.08808 | 9.30567 | 60° | 106km/h | 12259m | -2.9m/s | -47.2°C | 0% | 0hPa | 4.5V | 00:00:00 | 00:00:00 | 00:00:00 | |
| DF8AY | 2026-08-31 10:55:21 | 51.08743 | 9.30381 | 61° | 108km/h | 12273m | -2.8m/s | -47°C | 0% | 0hPa | 4.5V | 00:00:00 | 00:00:00 | 00:00:00 | |
| DL1XH-west | 2026-08-31 10:55:14 | 51.08662 | 9.30156 | 59° | 108km/h | 12291m | -2.8m/s | -47.1°C | 0% | 0hPa | 4.5V | 00:00:00 | 00:00:00 | 00:00:00 | |
| DF8AY | 2026-08-31 10:55:10 | 51.08591 | 9.29972 | 58° | 106km/h | 12306m | -2.9m/s | -46.9°C | 0% | 0hPa | 4.5V | 00:00:00 | 00:00:00 | 00:00:00 | |
| DL1XH-west | 2026-08-31 10:55:04 | 51.08519 | 9.29791 | 58° | 106km/h | 12321m | -3.1m/s | -46.6°C | 0% | 0hPa | 4.5V | 00:00:00 | 00:00:00 | 00:00:00 | |
| DF8AY | 2026-08-31 10:55:00 | 51.08448 | 9.29608 | 58° | 108km/h | 12336m | -3.1m/s | -46.6°C | 0% | 0hPa | 4.5V | 00:00:00 | 00:00:00 | 00:00:00 | |
| DL1XH-west | 2026-08-31 10:54:53 | 51.08343 | 9.29357 | 56° | 108km/h | 12357m | -3.1m/s | -46.7°C | 0% | 0hPa | 4.5V | 00:00:00 | 00:00:00 | 00:00:00 | |
| DF8AY | 2026-08-31 10:54:50 | 51.08299 | 9.29248 | 58° | 108km/h | 12366m | -3m/s | -46.7°C | 0% | 0hPa | 4.5V | 00:00:00 | 00:00:00 | 00:00:00 | |
| DL1XH-west | 2026-08-31 10:54:42 | 51.08182 | 9.28956 | 58° | 108km/h | 12390m | -2.9m/s | -46.4°C | 0% | 0hPa | 4.5V | 00:00:00 | 00:00:00 | 00:00:00 | |
| DF8AY | 2026-08-31 10:54:36 | 51.08096 | 9.28734 | 60° | 108km/h | 12408m | -3.1m/s | -46.4°C | 0% | 0hPa | 4.5V | 00:00:00 | 00:00:00 | 00:00:00 | |
| DL1XH-west | 2026-08-31 10:54:32 | 51.08041 | 9.28584 | 61° | 106km/h | 12420m | -2.9m/s | -46.4°C | 0% | 0hPa | 4.5V | 00:00:00 | 00:00:00 | 00:00:00 | |
| HSKMA3-T | 2026-08-31 10:54:25 | 51.07952 | 9.28324 | 61° | 106km/h | 12441m | -3m/s | 0°C | 0% | 0hPa | 4.8V | 00:00:00 | 00:00:00 | 00:00:00 | |
| DL1XH-west | 2026-08-31 10:54:21 | 51.07901 | 9.28174 | 62° | 104km/h | 12453m | -3.1m/s | -46.2°C | 0% | 0hPa | 4.5V | 00:00:00 | 00:00:00 | 00:00:00 | |
| DL1XH-west | 2026-08-31 10:54:10 | 51.07770 | 9.27777 | 62° | 100km/h | 12488m | -3.3m/s | -46.3°C | 0% | 0hPa | 4.5V | 00:00:00 | 00:00:00 | 00:00:00 | |
| DL1NUX | 2026-08-31 10:54:06 | 51.07687 | 9.27531 | 62° | 99km/h | 12514m | -3.1m/s | 0°C | 0% | 0hPa | 0V | 00:00:00 | 00:00:00 | 00:00:00 | |
| DL1NUX | 2026-08-31 10:53:57 | 51.07574 | 9.27180 | 63° | 97km/h | 12553m | -3.2m/s | 0°C | 0% | 0hPa | 0V | 00:00:00 | 00:00:00 | 00:00:00 | |
| DL1XH-west | 2026-08-31 10:53:55 | 51.07596 | 9.27251 | 64° | 99km/h | 12537m | -3.3m/s | -46.2°C | 0% | 0hPa | 4.5V | 00:00:00 | 00:00:00 | 00:00:00 | |
| DF8AY | 2026-08-31 10:53:51 | 51.07553 | 9.27110 | 64° | 97km/h | 12550m | -3.3m/s | -46.2°C | 0% | 0hPa | 4.8V | 00:00:00 | 00:00:00 | 00:00:00 | |
| DO8TBO-1 | 2026-08-31 10:53:48 | 51.07531 | 9.27040 | 64° | 97km/h | 12560m | -3.2m/s | 0°C | 0% | 0hPa | 4.5V | 00:00:00 | 00:00:00 | 00:00:00 | |
| DL1XH-west | 2026-08-31 10:53:44 | 51.07479 | 9.26867 | 65° | 95km/h | 12573m | -3.4m/s | -46.2°C | 0% | 0hPa | 4.5V | 00:00:00 | 00:00:00 | 00:00:00 | |
| SO1NDE-10 | 2026-08-31 10:53:39 | 51.07439 | 9.26730 | 65° | 88km/h | 12590m | -3.4m/s | 0°C | 0% | 0hPa | 0V | 00:00:00 | 00:00:00 | 00:00:00 | |
| DL1NUX | 2026-08-31 10:53:36 | 51.07397 | 9.26592 | 63° | 95km/h | 12603m | -3.4m/s | 0°C | 0% | 0hPa | 0V | 00:00:00 | 00:00:00 | 00:00:00 | |
| DL1XH-west | 2026-08-31 10:53:33 | 51.07376 | 9.26524 | 64° | 95km/h | 12606m | -3.5m/s | -46.1°C | 0% | 0hPa | 4.5V | 00:00:00 | 00:00:00 | 00:00:00 | |
| THATR2-17 | 2026-08-31 10:53:32 | 51.07012 | 9.25470 | 58° | 99km/h | 12712m | 0m/s | 0°C | 0% | 0hPa | 4.5V | 00:00:00 | 00:00:00 | 00:00:00 | |
| DL1XH-west | 2026-08-31 10:53:22 | 51.07253 | 9.26148 | 62° | 95km/h | 12643m | -3.4m/s | -46.2°C | 0% | 0hPa | 4.5V | 00:00:00 | 00:00:00 | 00:00:00 | |
| DL1XH-west | 2026-08-31 10:53:12 | 51.07125 | 9.25776 | 60° | 97km/h | 12682m | -3.5m/s | -46.4°C | 0% | 0hPa | 4.5V | 00:00:00 | 00:00:00 | 00:00:00 | |
| DO8TBO-1 | 2026-08-31 10:53:08 | 51.07089 | 9.25675 | 61° | 100km/h | 12702m | -3.5m/s | 0°C | 0% | 0hPa | 4.5V | 00:00:00 | 00:00:00 | 00:00:00 | |
| DL1XH-west | 2026-08-31 10:53:01 | 51.06985 | 9.25402 | 58° | 100km/h | 12719m | -3.4m/s | -46.6°C | 0% | 0hPa | 4.5V | 00:00:00 | 00:00:00 | 00:00:00 | |
| THATR2-17 | 2026-08-31 10:53:00 | 51.06972 | 9.25368 | 57° | 99km/h | 12723m | 0m/s | 0°C | 0% | 0hPa | 4.5V | 00:00:00 | 00:00:00 | 00:00:00 | |
| DF8AY | 2026-08-31 10:52:57 | 51.06932 | 9.25267 | 58° | 99km/h | 12733m | -3.6m/s | -46.7°C | 0% | 0hPa | 4.5V | 00:00:00 | 00:00:00 | 00:00:00 | |
| DL1XH-west | 2026-08-31 10:52:50 | 51.06835 | 9.25028 | 57° | 104km/h | 12758m | -3.4m/s | -46.8°C | 0% | 0hPa | 4.5V | 00:00:00 | 00:00:00 | 00:00:00 | |
| DF8AY | 2026-08-31 10:52:47 | 51.06722 | 9.24756 | 57° | 100km/h | 12786m | -3.5m/s | -46.9°C | 0% | 0hPa | 4.5V | 00:00:00 | 00:00:00 | 00:00:00 | |
| DL1XH-west | 2026-08-31 10:52:39 | 51.06694 | 9.24689 | 57° | 100km/h | 12793m | -3.6m/s | -47°C | 0% | 0hPa | 4.5V | 00:00:00 | 00:00:00 | 00:00:00 | |
| DO8TBO-1 | 2026-08-31 10:52:35 | 51.06639 | 9.24553 | 58° | 99km/h | 12811m | -3.4m/s | 0°C | 0% | 0hPa | 4.5V | 00:00:00 | 00:00:00 | 00:00:00 | |
| DF8AY | 2026-08-31 10:52:29 | 51.06452 | 9.24073 | 59° | 100km/h | 12856m | -3.5m/s | -47.1°C | 0% | 0hPa | 4.5V | 00:00:00 | 00:00:00 | 00:00:00 | |
| DL1XH-west | 2026-08-31 10:52:29 | 51.06519 | 9.24247 | 58° | 102km/h | 12838m | -3.5m/s | -47.1°C | 0% | 0hPa | 4.5V | 00:00:00 | 00:00:00 | 00:00:00 | |
| DL1XH-west | 2026-08-31 10:52:18 | 51.06400 | 9.23936 | 59° | 100km/h | 12870m | -3.5m/s | -47.2°C | 0% | 0hPa | 4.5V | 00:00:00 | 00:00:00 | 00:00:00 | |
| DF8AY | 2026-08-31 10:52:14 | 51.06348 | 9.23799 | 59° | 99km/h | 12885m | -3.6m/s | -47.3°C | 0% | 0hPa | 4.5V | 00:00:00 | 00:00:00 | 00:00:00 | |
| DL1XH-west | 2026-08-31 10:52:08 | 51.06272 | 9.23594 | 60° | 99km/h | 12907m | -3.6m/s | -47.3°C | 0% | 0hPa | 4.5V | 00:00:00 | 00:00:00 | 00:00:00 | |
| DO8TBO-1 | 2026-08-31 10:52:04 | 51.06234 | 9.23493 | 60° | 95km/h | 12921m | -3.4m/s | 0°C | 0% | 0hPa | 4.5V | 00:00:00 | 00:00:00 | 00:00:00 | |
| DF8AY | 2026-08-31 10:52:03 | 51.06209 | 9.23427 | 59° | 97km/h | 12925m | -3.6m/s | -47.3°C | 0% | 0hPa | 4.5V | 00:00:00 | 00:00:00 | 00:00:00 | |
| DM0DOS-11 | 2026-08-31 10:52:00 | 51.06147 | 9.23260 | 60° | 97km/h | 12954m | -3.8m/s | 0°C | 0% | 0hPa | 0V | 00:00:00 | 00:00:00 | 00:00:00 | |
| THATR2-17 | 2026-08-31 10:51:59 | 51.06015 | 9.22895 | 59° | 93km/h | 12984m | 0m/s | 0°C | 0% | 0hPa | 4.5V | 00:00:00 | 00:00:00 | 00:00:00 | |
| DL1XH-west | 2026-08-31 10:51:56 | 51.06135 | 9.23226 | 61° | 97km/h | 12946m | -3.5m/s | -47.3°C | 0% | 0hPa | 4.5V | 00:00:00 | 00:00:00 | 00:00:00 | |
| DF8AY | 2026-08-31 10:51:52 | 51.06075 | 9.23058 | 60° | 95km/h | 12965m | -3.7m/s | -47.5°C | 0% | 0hPa | 4.5V | 00:00:00 | 00:00:00 | 00:00:00 | |
| DM0DOS-11 | 2026-08-31 10:51:48 | 51.06003 | 9.22863 | 59° | 95km/h | 12995m | -3.5m/s | 0°C | 0% | 0hPa | 0V | 00:00:00 | 00:00:00 | 00:00:00 | |
| DL1XH-west | 2026-08-31 10:51:45 | 51.06003 | 9.22863 | 60° | 95km/h | 12987m | -3.8m/s | -47.6°C | 0% | 0hPa | 4.5V | 00:00:00 | 00:00:00 | 00:00:00 | |
| DF8AY | 2026-08-31 10:51:42 | 51.05955 | 9.22730 | 61° | 95km/h | 13002m | -3.6m/s | 0°C | 0% | 0hPa | 0V | 00:00:00 | 00:00:00 | 00:00:00 | |
| DM0DOS-11 | 2026-08-31 10:51:38 | 51.05853 | 9.22439 | 60° | 95km/h | 13039m | -3.7m/s | 0°C | 0% | 0hPa | 0V | 00:00:00 | 00:00:00 | 00:00:00 | |
| DL1XH-west | 2026-08-31 10:51:34 | 51.05865 | 9.22472 | 61° | 93km/h | 13031m | -3.5m/s | 0°C | 0% | 0hPa | 0V | 00:00:00 | 00:00:00 | 00:00:00 | |
| DM0DOS-11 | 2026-08-31 10:51:25 | 51.05735 | 9.22077 | 63° | 91km/h | 13080m | -3.7m/s | 0°C | 0% | 0hPa | 0V | 00:00:00 | 00:00:00 | 00:00:00 | |
| DM0DOS-11 | 2026-08-31 10:51:15 | 51.05634 | 9.21748 | 64° | 91km/h | 13113m | -3.7m/s | 0°C | 0% | 0hPa | 0V | 00:00:00 | 00:00:00 | 00:00:00 | |
| D01LWL | 2026-08-31 10:51:09 | 51.05522 | 9.21383 | 64° | 93km/h | 13155m | -3.8m/s | -47.6°C | -1.0% | -1.0hPa | 0V | 00:00:00 | 00:00:00 | 00:00:00 | |
| DO8TBO-1 | 2026-08-31 10:50:35 | 51.05264 | 9.20528 | 67° | 89km/h | 13256m | -3.7m/s | 0°C | 0% | 0hPa | 0V | 00:00:00 | 00:00:00 | 00:00:00 | |
| DO3MHA-11 | 2026-08-31 10:50:03 | 50.86844 | 8.76497 | 71° | 66km/h | 15844m | 3.6m/s | 0°C | 0% | 0hPa | 0V | 00:00:00 | 00:00:00 | 00:00:00 | |
| DL1NUX | 2026-08-31 10:49:55 | 51.04850 | 9.19182 | 63° | 88km/h | 13420m | -3.8m/s | 0°C | 0% | 0hPa | 0V | 00:00:00 | 00:00:00 | 00:00:00 | |
| DO8TBO-1 | 2026-08-31 10:49:43 | 51.04755 | 9.18863 | 65° | 88km/h | 13446m | -3.6m/s | 0°C | 0% | 0hPa | 0V | 00:00:00 | 00:00:00 | 00:00:00 | |
| DM0DOS-11 | 2026-08-31 10:49:29 | 51.04578 | 9.18211 | 68° | 89km/h | 13534m | -3.7m/s | 0°C | 0% | 0hPa | 0V | 00:00:00 | 00:00:00 | 00:00:00 | |
| DL1NUX | 2026-08-31 10:49:25 | 51.04587 | 9.18244 | 67° | 89km/h | 13565m | -3.9m/s | 0°C | 0% | 0hPa | 0V | 00:00:00 | 00:00:00 | 00:00:00 | |
| DM0DOS-11 | 2026-08-31 10:49:15 | 51.04491 | 9.17862 | 66° | 82km/h | 13569m | -3.9m/s | 0°C | 0% | 0hPa | 0V | 00:00:00 | 00:00:00 | 00:00:00 | |
| DO8TBO-1 | 2026-08-31 10:49:13 | 51.04499 | 9.17892 | 68° | 82km/h | 13558m | -4.0m/s | 0°C | 0% | 0hPa | 0V | 00:00:00 | 00:00:00 | 00:00:00 | |
| DL1NUX | 2026-08-31 10:49:08 | 51.04431 | 9.17650 | 65° | 82km/h | 13642m | -3.8m/s | 0°C | 0% | 0hPa | 0V | 00:00:00 | 00:00:00 | 00:00:00 | |
| DM0DOS-11 | 2026-08-31 10:49:03 | 51.04405 | 9.17561 | 65° | 80km/h | 13600m | -3.8m/s | 0°C | 0% | 0hPa | 0V | 00:00:00 | 00:00:00 | 00:00:00 | |
| DO3MHA-11 | 2026-08-31 10:48:59 | 50.86464 | 8.74805 | 70° | 77km/h | 15611m | 3.5m/s | 0°C | 0% | 0hPa | 4.5V | 00:00:00 | 00:00:00 | 00:00:00 | |
| DF8AY | 2026-08-31 10:48:49 | 51.04272 | 9.17153 | 61° | 82km/h | 13654m | -3.8m/s | -48.4°C | 0% | 0hPa | 4.5V | 00:00:00 | 00:00:00 | 00:00:00 | |
| DO2JMG | 2026-08-31 10:48:45 | 51.04229 | 9.17039 | 59° | 82km/h | 13670m | -3.8m/s | -48.4°C | 0% | 0hPa | 4.5V | 00:00:00 | 00:00:00 | 00:00:00 | |
| DO8TBO-1 | 2026-08-31 10:48:43 | 51.04218 | 9.17010 | 59° | 84km/h | 13678m | -3.7m/s | 0°C | 0% | 0hPa | 4.5V | 00:00:00 | 00:00:00 | 00:00:00 | |
| DF8AY | 2026-08-31 10:48:35 | 51.04060 | 9.16611 | 57° | 84km/h | 13728m | -3.8m/s | -48.5°C | 0% | 0hPa | 4.5V | 00:00:00 | 00:00:00 | 00:00:00 | |
| HSKMA3-T | 2026-08-31 10:48:33 | 51.04084 | 9.16667 | 57° | 84km/h | 13720m | -3.8m/s | -48.4°C | 0% | 0hPa | 4.5V | 00:00:00 | 00:00:00 | 00:00:00 | |
| HSKMA3-T | 2026-08-31 10:48:21 | 51.03967 | 9.16383 | 57° | 86km/h | 13759m | -4.1m/s | -48.7°C | 0% | 0hPa | 4.5V | 00:00:00 | 00:00:00 | 00:00:00 | |
| DF8AY | 2026-08-31 10:48:19 | 51.03942 | 9.16326 | 56° | 86km/h | 13768m | -4.2m/s | -48.8°C | 0% | 0hPa | 4.5V | 00:00:00 | 00:00:00 | 00:00:00 | |
| DL1NUX | 2026-08-31 10:48:17 | 51.03857 | 9.16126 | 56° | 88km/h | 13799m | -3.9m/s | 0°C | 0% | 0hPa | 0V | 00:00:00 | 00:00:00 | 00:00:00 | |
| BIOWL1-15 | 2026-08-31 10:48:11 | 51.03832 | 9.16068 | 56° | 88km/h | 13803m | -4m/s | -49°C | 0% | 0hPa | 4.5V | 00:00:00 | 00:00:00 | 00:00:00 | |
| DL1NUX | 2026-08-31 10:48:07 | 51.03727 | 9.15845 | 52° | 88km/h | 13835m | -4m/s | 0°C | 0% | 0hPa | 0V | 00:00:00 | 00:00:00 | 00:00:00 | |
| DF8AY | 2026-08-31 10:48:06 | 51.03768 | 9.15926 | 53° | 86km/h | 13823m | -4m/s | -49.1°C | 0% | 0hPa | 4.5V | 00:00:00 | 00:00:00 | 00:00:00 | |
| HSKMA3-T | 2026-08-31 10:48:02 | 51.03716 | 9.15817 | 53° | 84km/h | 13839m | -3.7m/s | -49.2°C | 0% | 0hPa | 4.5V | 00:00:00 | 00:00:00 | 00:00:00 | |
| BIOWL1-15 | 2026-08-31 10:48:00 | 51.03691 | 9.15762 | 54° | 86km/h | 13847m | -3.9m/s | -49.2°C | 0% | 0hPa | 4.5V | 00:00:00 | 00:00:00 | 00:00:00 | |
| DL1NUX | 2026-08-31 10:47:55 | 51.03581 | 9.15503 | 56° | 86km/h | 13886m | -4m/s | 0°C | 0% | 0hPa | 0V | 00:00:00 | 00:00:00 | 00:00:00 | |
| SO1NDE-10 | 2026-08-31 10:47:53 | 51.03616 | 9.15589 | 57° | 58km/h | 13875m | -4.0m/s | 0°C | 0% | 0hPa | 4.5V | 00:00:00 | 00:00:00 | 00:00:00 | |
| HSKMA3-T | 2026-08-31 10:47:51 | 51.03581 | 9.15503 | 57° | 86km/h | 13883m | -4m/s | -49°C | 0% | 0hPa | 4.5V | 00:00:00 | 00:00:00 | 00:00:00 | |
| DF8AY | 2026-08-31 10:47:49 | 51.03557 | 9.15445 | 57° | 86km/h | 13891m | -3.9m/s | -49°C | 0% | 0hPa | 4.5V | 00:00:00 | 00:00:00 | 00:00:00 | |
| DO3MHA-11 | 2026-08-31 10:47:45 | 51.03522 | 9.15357 | 59° | 82km/h | 13935m | -4.1m/s | 0°C | 0% | 0hPa | 4.5V | 00:00:00 | 00:00:00 | 00:00:00 | |
| DO8TBO-1 | 2026-08-31 10:47:43 | 51.03499 | 9.15298 | 59° | 84km/h | 13914m | -4.0m/s | 0°C | 0% | 0hPa | 4.5V | 00:00:00 | 00:00:00 | 00:00:00 | |
| HSKMA3-T | 2026-08-31 10:47:38 | 51.03434 | 9.15120 | 60° | 88km/h | 13934m | -4.1m/s | -49.1°C | 0% | 0hPa | 4.5V | 00:00:00 | 00:00:00 | 00:00:00 | |
| HSKMA3-T | 2026-08-31 10:47:25 | 51.03301 | 9.14728 | 62° | 84km/h | 13988m | -4.1m/s | -49.3°C | 0% | 0hPa | 4.5V | 00:00:00 | 00:00:00 | 00:00:00 | |
| DF8AY | 2026-08-31 10:47:24 | 51.03291 | 9.14699 | 62° | 84km/h | 13992m | -4m/s | -49.4°C | 0% | 0hPa | 4.5V | 00:00:00 | 00:00:00 | 00:00:00 | |
| HSKMA3-T | 2026-08-31 10:47:13 | 51.03193 | 9.14372 | 67° | 80km/h | 14037m | -4.1m/s | -49.4°C | 0% | 0hPa | 4.5V | 00:00:00 | 00:00:00 | 00:00:00 | |
| DF8AY | 2026-08-31 10:47:10 | 51.03170 | 9.14285 | 68° | 78km/h | 14049m | -4.4m/s | -49.3°C | 0% | 0hPa | 4.5V | 00:00:00 | 00:00:00 | 00:00:00 | |
| DO3MHA-11 | 2026-08-31 10:47:03 | 51.03127 | 9.14114 | 69° | 73km/h | 14079m | -4.3m/s | 0°C | 0% | 0hPa | 4.8V | 00:00:00 | 00:00:00 | 00:00:00 | |
| HSKMA3-T | 2026-08-31 10:47:02 | 51.03112 | 9.14057 | 68° | 75km/h | 14082m | -4m/s | -49.2°C | 0% | 0hPa | 4.8V | 00:00:00 | 00:00:00 | 00:00:00 | |
| DM0DOS-11 | 2026-08-31 10:47:00 | 51.03085 | 9.13947 | 69° | 71km/h | 14103m | -4.1m/s | 0°C | 0% | 0hPa | 0V | 00:00:00 | 00:00:00 | 00:00:00 | |
| DF8AY | 2026-08-31 10:47:00 | 51.03098 | 9.14002 | 68° | 73km/h | 14091m | -4.2m/s | -49.1°C | 0% | 0hPa | 4.5V | 00:00:00 | 00:00:00 | 00:00:00 | |
| DO3MHA-11 | 2026-08-31 10:46:53 | 51.03059 | 9.13841 | 70° | 69km/h | 14120m | -4.5m/s | 0°C | 0% | 0hPa | 0V | 00:00:00 | 00:00:00 | 00:00:00 | |
| DM0DOS-11 | 2026-08-31 10:46:48 | 51.03021 | 9.13684 | 67° | 71km/h | 14145m | -4.2m/s | 0°C | 0% | 0hPa | 0V | 00:00:00 | 00:00:00 | 00:00:00 | |
| DO2JMG | 2026-08-31 10:46:46 | 51.03007 | 9.13633 | 67° | 69km/h | 14150m | -4.2m/s | -49.1°C | 0% | 0hPa | 4.5V | 00:00:00 | 00:00:00 | 00:00:00 | |
| HSKMA3-T | 2026-08-31 10:46:43 | 51.02987 | 9.13556 | 67° | 68km/h | 14162m | -4.5m/s | -49°C | 0% | 0hPa | 4.5V | 00:00:00 | 00:00:00 | 00:00:00 | |
| DM0DOS-11 | 2026-08-31 10:46:41 | 51.02953 | 9.13429 | 65° | 71km/h | 14188m | -4.3m/s | 0°C | 0% | 0hPa | 0V | 00:00:00 | 00:00:00 | 00:00:00 | |
| DF8AY | 2026-08-31 10:46:38 | 51.02952 | 9.13429 | 66° | 71km/h | 14184m | -4.3m/s | -49.1°C | 0% | 0hPa | 4.5V | 00:00:00 | 00:00:00 | 00:00:00 | |
| DO8TBO-1 | 2026-08-31 10:46:37 | 51.02952 | 9.13429 | 66° | 71km/h | 14188m | -4.2m/s | 0°C | 0% | 0hPa | 4.5V | 00:00:00 | 00:00:00 | 00:00:00 | |
| DO2JMG | 2026-08-31 10:46:36 | 51.02937 | 9.13377 | 64° | 71km/h | 14192m | -4.4m/s | -49.1°C | 0% | 0hPa | 4.5V | 00:00:00 | 00:00:00 | 00:00:00 | |
| DM0DOS-11 | 2026-08-31 10:46:27 | 51.02869 | 9.13179 | 62° | 69km/h | 14231m | -4.3m/s | 0°C | 0% | 0hPa | 0V | 00:00:00 | 00:00:00 | 00:00:00 | |
| DL1XH-west | 2026-08-31 10:46:27 | 51.02861 | 9.13155 | 63° | 69km/h | 14232m | -4.3m/s | -49.3°C | 0% | 0hPa | 4.5V | 00:00:00 | 00:00:00 | 00:00:00 | |
| HSKMA3-T | 2026-08-31 10:46:26 | 51.02853 | 9.13130 | 62° | 69km/h | 14236m | -4.3m/s | -49.3°C | 0% | 0hPa | 4.5V | 00:00:00 | 00:00:00 | 00:00:00 | |
| DM0DOS-11 | 2026-08-31 10:46:22 | 51.02782 | 9.12933 | 57° | 71km/h | 14276m | -4.4m/s | 0°C | 0% | 0hPa | 0V | 00:00:00 | 00:00:00 | 00:00:00 | |
| DF8AY | 2026-08-31 10:46:16 | 51.02763 | 9.12885 | 58° | 71km/h | 14280m | -4.3m/s | -49.1°C | 0% | 0hPa | 4.5V | 00:00:00 | 00:00:00 | 00:00:00 | |
| HSKMA3-T | 2026-08-31 10:46:14 | 51.02754 | 9.12861 | 59° | 71km/h | 14285m | -4.3m/s | -49.1°C | 0% | 0hPa | 4.5V | 00:00:00 | 00:00:00 | 00:00:00 | |
| DL1XH-west | 2026-08-31 10:46:13 | 51.02745 | 9.12836 | 60° | 71km/h | 14289m | -4.3m/s | -49.1°C | 0% | 0hPa | 4.5V | 00:00:00 | 00:00:00 | 00:00:00 | |
| DM0DOS-11 | 2026-08-31 10:46:11 | 51.02694 | 9.12690 | 60° | 69km/h | 14320m | -4.4m/s | 0°C | 0% | 0hPa | 0V | 00:00:00 | 00:00:00 | 00:00:00 | |
| DO3MHA-11 | 2026-08-31 10:46:08 | 51.02702 | 9.12714 | 62° | 69km/h | 14316m | -4.2m/s | 0°C | 0% | 0hPa | 4.5V | 00:00:00 | 00:00:00 | 00:00:00 | |
| DF8AY | 2026-08-31 10:46:07 | 51.02676 | 9.12642 | 60° | 69km/h | 14324m | -4.4m/s | -48.9°C | 0% | 0hPa | 4.5V | 00:00:00 | 00:00:00 | 00:00:00 | |
| DO8TBO-1 | 2026-08-31 10:46:06 | 51.02685 | 9.12666 | 61° | 77km/h | 14324m | -4.3m/s | 0°C | 0% | 0hPa | 4.5V | 00:00:00 | 00:00:00 | 00:00:00 | |
| DL1XH-west | 2026-08-31 10:46:04 | 51.02658 | 9.12594 | 59° | 69km/h | 14333m | -4.2m/s | -48.9°C | 0% | 0hPa | 4.5V | 00:00:00 | 00:00:00 | 00:00:00 | |
| DM0DOS-11 | 2026-08-31 10:45:58 | 51.02601 | 9.12455 | 55° | 69km/h | 14363m | -4.2m/s | 0°C | 0% | 0hPa | 0V | 00:00:00 | 00:00:00 | 00:00:00 | |
| DO3MHA-11 | 2026-08-31 10:45:58 | 51.02611 | 9.12477 | 57° | 71km/h | 14359m | -4.2m/s | 0°C | 0% | 0hPa | 4.5V | 00:00:00 | 00:00:00 | 00:00:00 | |
| DF8AY | 2026-08-31 10:45:55 | 51.02571 | 9.12384 | 56° | 71km/h | 14372m | -4.2m/s | -48.9°C | 0% | 0hPa | 4.5V | 00:00:00 | 00:00:00 | 00:00:00 | |
| DL1XH-west | 2026-08-31 10:45:52 | 51.02551 | 9.12337 | 56° | 71km/h | 14380m | -4.3m/s | -48.9°C | 0% | 0hPa | 4.5V | 00:00:00 | 00:00:00 | 00:00:00 | |
| DM0DOS-11 | 2026-08-31 10:45:52 | 51.02501 | 9.12220 | 56° | 68km/h | 14406m | -4.3m/s | 0°C | 0% | 0hPa | 0V | 00:00:00 | 00:00:00 | 00:00:00 | |
| DO3MHA-11 | 2026-08-31 10:45:48 | 51.02511 | 9.12243 | 57° | 69km/h | 14402m | -4.2m/s | 0°C | 0% | 0hPa | 4.5V | 00:00:00 | 00:00:00 | 00:00:00 | |
| DF8AY | 2026-08-31 10:45:44 | 51.02473 | 9.12151 | 57° | 69km/h | 14415m | -4.2m/s | -49°C | 0% | 0hPa | 4.5V | 00:00:00 | 00:00:00 | 00:00:00 | |
| DL1XH-west | 2026-08-31 10:45:43 | 51.02454 | 9.12105 | 58° | 69km/h | 14423m | -4.2m/s | -49.1°C | 0% | 0hPa | 4.5V | 00:00:00 | 00:00:00 | 00:00:00 | |
| DM0DOS-11 | 2026-08-31 10:45:41 | 51.02407 | 9.11986 | 58° | 69km/h | 14447m | -3.8m/s | 0°C | 0% | 0hPa | 0V | 00:00:00 | 00:00:00 | 00:00:00 | |
| DM7RM-13 | 2026-08-31 10:45:40 | 51.02426 | 9.12034 | 59° | 69km/h | 14435m | -3.9m/s | -42.6°C | 0% | 0hPa | 4.5V | 00:00:00 | 00:00:00 | 00:00:00 | |
| DO3MHA-11 | 2026-08-31 10:45:37 | 51.02407 | 9.11985 | 59° | 66km/h | 14451m | -3.9m/s | 0°C | 0% | 0hPa | 4.5V | 00:00:00 | 00:00:00 | 00:00:00 | |
| DF8AY | 2026-08-31 10:45:29 | 51.02334 | 9.11782 | 62° | 68km/h | 14480m | -4.1m/s | -49.5°C | 0% | 0hPa | 4.5V | 00:00:00 | 00:00:00 | 00:00:00 | |
| DO3MHA-11 | 2026-08-31 10:45:27 | 51.02323 | 9.11758 | 63° | 64km/h | 14485m | -4.0m/s | 0°C | 0% | 0hPa | 0V | 00:00:00 | 00:00:00 | 00:00:00 | |
| DM0DOS-11 | 2026-08-31 10:45:19 | 51.02261 | 9.11529 | 66° | 60km/h | 14529m | -3.9m/s | 0°C | 0% | 0hPa | 0V | 00:00:00 | 00:00:00 | 00:00:00 | |
| DL1XH-west | 2026-08-31 10:45:17 | 51.02261 | 9.11529 | 67° | 60km/h | 14526m | -3.9m/s | -49.7°C | 0% | 0hPa | 4.5V | 00:00:00 | 00:00:00 | 00:00:00 | |
| DF8AY | 2026-08-31 10:45:16 | 51.02249 | 9.11484 | 66° | 62km/h | 14533m | -3.9m/s | -49.7°C | 0% | 0hPa | 4.5V | 00:00:00 | 00:00:00 | 00:00:00 | |
| DM0DOS-11 | 2026-08-31 10:45:09 | 51.02198 | 9.11307 | 66° | 60km/h | 14570m | -4m/s | 0°C | 0% | 0hPa | 0V | 00:00:00 | 00:00:00 | 00:00:00 | |
| DF8AY | 2026-08-31 10:45:08 | 51.02185 | 9.11261 | 66° | 62km/h | 14574m | -4.1m/s | -49.6°C | 0% | 0hPa | 4.5V | 00:00:00 | 00:00:00 | 00:00:00 | |
| HSKMA3-T | 2026-08-31 10:45:06 | 51.02172 | 9.11216 | 65° | 62km/h | 14583m | -4.2m/s | 0°C | 0% | 0hPa | 4.5V | 00:00:00 | 00:00:00 | 00:00:00 | |
| DL1XH-west | 2026-08-31 10:45:03 | 51.02165 | 9.11194 | 65° | 62km/h | 14587m | -4.3m/s | -49.6°C | 0% | 0hPa | 4.5V | 00:00:00 | 00:00:00 | 00:00:00 | |
| DM0DOS-11 | 2026-08-31 10:44:59 | 51.02132 | 9.11084 | 65° | 60km/h | 14612m | -4.3m/s | 0°C | 0% | 0hPa | 0V | 00:00:00 | 00:00:00 | 00:00:00 | |
| DF8AY | 2026-08-31 10:44:55 | 51.02113 | 9.11016 | 65° | 64km/h | 14621m | -4.3m/s | -50°C | 0% | 0hPa | 4.5V | 00:00:00 | 00:00:00 | 00:00:00 | |
| DO3MHA-11 | 2026-08-31 10:44:52 | 51.02099 | 9.10969 | 64° | 64km/h | 14635m | -4.3m/s | 0°C | 0% | 0hPa | 4.5V | 00:00:00 | 00:00:00 | 00:00:00 | |
| DL1XH-west | 2026-08-31 10:44:52 | 51.02092 | 9.10947 | 64° | 64km/h | 14635m | -4.3m/s | 0°C | 0% | 0hPa | 4.5V | 00:00:00 | 00:00:00 | 00:00:00 | |
| DK7TD | 2026-08-31 10:44:51 | 51.02085 | 9.10924 | 63° | 64km/h | 14639m | -4.5m/s | 0°C | 0% | 0hPa | 4.5V | 00:00:00 | 00:00:00 | 00:00:00 | |
| DM0DOS-11 | 2026-08-31 10:44:49 | 51.02063 | 9.10856 | 62° | 64km/h | 14657m | -4.3m/s | 0°C | 0% | 0hPa | 0V | 00:00:00 | 00:00:00 | 00:00:00 | |
| DM0DOS-11 | 2026-08-31 10:44:42 | 51.01979 | 9.10600 | 59° | 66km/h | 14706m | -4.4m/s | 0°C | 0% | 0hPa | 0V | 00:00:00 | 00:00:00 | 00:00:00 | |
| DO3MHA-11 | 2026-08-31 10:44:41 | 51.02019 | 9.10714 | 62° | 55km/h | 14711m | -4.4m/s | 0°C | 0% | 0hPa | 4.5V | 00:00:00 | 00:00:00 | 00:00:00 | |
| DL1XH-west | 2026-08-31 10:44:37 | 51.01979 | 9.10600 | 60° | 66km/h | 14701m | -4.3m/s | 0°C | 0% | 0hPa | 4.5V | 00:00:00 | 00:00:00 | 00:00:00 | |
| DJTTGO | 2026-08-31 10:44:34 | 51.01962 | 9.10554 | 62° | 66km/h | 14711m | -4.4m/s | -50.6°C | 0% | 0hPa | 0V | 00:00:00 | 00:00:00 | 00:00:00 | |
| DM0DOS-11 | 2026-08-31 10:44:30 | 51.01904 | 9.10388 | 59° | 69km/h | 14746m | -4.2m/s | 0°C | 0% | 0hPa | 0V | 00:00:00 | 00:00:00 | 00:00:00 | |
| DF8AY | 2026-08-31 10:44:20 | 51.01829 | 9.10196 | 59° | 71km/h | 14777m | -4.2m/s | -50.9°C | 0% | 0hPa | 4.5V | 00:00:00 | 00:00:00 | 00:00:00 | |
| DM0DOS-11 | 2026-08-31 10:44:19 | 51.01811 | 9.10147 | 59° | 69km/h | 14790m | -4.4m/s | 0°C | 0% | 0hPa | 0V | 00:00:00 | 00:00:00 | 00:00:00 | |
| DJTTGO | 2026-08-31 10:44:10 | 51.01740 | 9.09978 | 55° | 75km/h | 14817m | -4.4m/s | -51.2°C | 0% | 0hPa | 0V | 00:00:00 | 00:00:00 | 00:00:00 | |
| DM0DOS-11 | 2026-08-31 10:44:09 | 51.01707 | 9.09906 | 54° | 73km/h | 14833m | -4.2m/s | 0°C | 0% | 0hPa | 0V | 00:00:00 | 00:00:00 | 00:00:00 | |
| DF8AY | 2026-08-31 10:44:08 | 51.01697 | 9.09882 | 55° | 75km/h | 14833m | -4.2m/s | -51.3°C | 0% | 0hPa | 4.5V | 00:00:00 | 00:00:00 | 00:00:00 | |
| SONCRA | 2026-08-31 10:44:04 | 51.01665 | 9.09809 | 55° | 73km/h | 14846m | -4.2m/s | -51.3°C | -1.0% | -1.0hPa | 0V | 00:00:00 | 00:00:00 | 00:00:00 | |
| DM0DOS-11 | 2026-08-31 10:44:00 | 51.01595 | 9.09664 | 50° | 78km/h | 14877m | -4.3m/s | 0°C | 0% | 0hPa | 0V | 00:00:00 | 00:00:00 | 00:00:00 | |
| DF8AY | 2026-08-31 10:43:56 | 51.01570 | 9.09616 | 51° | 80km/h | 14881m | -4.2m/s | -51.6°C | 0% | 0hPa | 4.5V | 00:00:00 | 00:00:00 | 00:00:00 | |
| DL1CLM-18 | 2026-08-31 10:43:55 | 51.01558 | 9.09591 | 52° | 80km/h | 14886m | -4.7m/s | -51.6°C | 0% | 0hPa | 0V | 00:00:00 | 00:00:00 | 00:00:00 | |
| DM0DOS-11 | 2026-08-31 10:43:49 | 51.01474 | 9.09410 | 53° | 78km/h | 14922m | -4.3m/s | 0°C | 0% | 0hPa | 0V | 00:00:00 | 00:00:00 | 00:00:00 | |
| DJTTGO | 2026-08-31 10:43:46 | 51.01462 | 9.09385 | 55° | 78km/h | 14922m | -4.3m/s | -51.4°C | 0% | 0hPa | 4.5V | 00:00:00 | 00:00:00 | 00:00:00 | |
| DF8AY | 2026-08-31 10:43:45 | 51.01439 | 9.09335 | 54° | 77km/h | 14931m | -4.4m/s | -51.4°C | 0% | 0hPa | 4.5V | 00:00:00 | 00:00:00 | 00:00:00 | |
| HSKMA3-T | 2026-08-31 10:43:39 | 50.83780 | 8.68325 | 60° | 51km/h | 14395m | 3.7m/s | -48°C | 0% | 0hPa | 4.8V | 00:00:00 | 00:00:00 | 00:00:00 | |
| DF8AY | 2026-08-31 10:43:35 | 51.01331 | 9.09066 | 56° | 80km/h | 14975m | -4m/s | -51.5°C | 0% | 0hPa | 4.5V | 00:00:00 | 00:00:00 | 00:00:00 | |
| DM0DOS-11 | 2026-08-31 10:43:29 | 51.01257 | 9.08879 | 61° | 78km/h | 15014m | -4.5m/s | 0°C | 0% | 0hPa | 0V | 00:00:00 | 00:00:00 | 00:00:00 | |
| DO8TBO-1 | 2026-08-31 10:43:27 | 51.01248 | 9.08851 | 63° | 82km/h | 15015m | -4.5m/s | 0°C | 0% | 0hPa | 4.5V | 00:00:00 | 00:00:00 | 00:00:00 | |
| DF8AY | 2026-08-31 10:43:24 | 51.01219 | 9.08766 | 62° | 80km/h | 15024m | -4.5m/s | -51.7°C | 0% | 0hPa | 4.5V | 00:00:00 | 00:00:00 | 00:00:00 | |
| DJTTGO | 2026-08-31 10:43:21 | 51.01200 | 9.08708 | 62° | 82km/h | 15033m | -4.4m/s | -51.7°C | 0% | 0hPa | 0V | 00:00:00 | 00:00:00 | 00:00:00 | |
| DM0DOS-11 | 2026-08-31 10:43:19 | 51.01151 | 9.08565 | 61° | 82km/h | 15059m | -4.3m/s | 0°C | 0% | 0hPa | 0V | 00:00:00 | 00:00:00 | 00:00:00 | |
| DO2SHX-10 | 2026-08-31 10:43:17 | 51.01159 | 9.08594 | 62° | 82km/h | 15051m | -4.2m/s | 0°C | 0% | 0hPa | 4.5V | 00:00:00 | 00:00:00 | 00:00:00 | |
| DF8AY | 2026-08-31 10:43:11 | 51.01094 | 9.08388 | 65° | 84km/h | 15082m | -4.3m/s | -51.5°C | 0% | 0hPa | 4.5V | 00:00:00 | 00:00:00 | 00:00:00 | |
| DO2SHX-10 | 2026-08-31 10:43:11 | 51.01103 | 9.08417 | 65° | 73km/h | 15086m | -4.2m/s | 0°C | 0% | 0hPa | 0V | 00:00:00 | 00:00:00 | 00:00:00 | |
| DM0DOS-11 | 2026-08-31 10:43:09 | 51.01059 | 9.08270 | 65° | 78km/h | 15104m | -4.3m/s | 0°C | 0% | 0hPa | 0V | 00:00:00 | 00:00:00 | 00:00:00 | |
| DO2JMG | 2026-08-31 10:43:07 | 51.01059 | 9.08270 | 65° | 78km/h | 15099m | -4.2m/s | -51.5°C | 0% | 0hPa | 4.5V | 00:00:00 | 00:00:00 | 00:00:00 | |
| DK7TD | 2026-08-31 10:43:05 | 51.01042 | 9.08213 | 65° | 78km/h | 15108m | -4.3m/s | -51.4°C | 0% | 0hPa | 4.5V | 00:00:00 | 00:00:00 | 00:00:00 | |
| DF8AY | 2026-08-31 10:43:00 | 51.00999 | 9.08065 | 66° | 82km/h | 15130m | -4.3m/s | -51.5°C | 0% | 0hPa | 4.5V | 00:00:00 | 00:00:00 | 00:00:00 | |
| DO8TBO-1 | 2026-08-31 10:42:58 | 51.00975 | 9.07974 | 69° | 78km/h | 15144m | -4.2m/s | 0°C | 0% | 0hPa | 4.5V | 00:00:00 | 00:00:00 | 00:00:00 | |
| DO2JMG | 2026-08-31 10:42:57 | 51.00968 | 9.07945 | 69° | 78km/h | 15148m | -4.4m/s | -51.5°C | 0% | 0hPa | 4.5V | 00:00:00 | 00:00:00 | 00:00:00 | |
| DF8AY | 2026-08-31 10:42:50 | 51.00925 | 9.07773 | 68° | 80km/h | 15174m | -4.3m/s | -51.5°C | 0% | 0hPa | 4.5V | 00:00:00 | 00:00:00 | 00:00:00 | |
| DO2JMG | 2026-08-31 10:42:44 | 51.00888 | 9.07622 | 70° | 80km/h | 15196m | -4.4m/s | -51.4°C | 0% | 0hPa | 4.5V | 00:00:00 | 00:00:00 | 00:00:00 | |
| DM7RM-13 | 2026-08-31 10:42:40 | 51.00859 | 9.07501 | 70° | 78km/h | 15218m | -4.3m/s | -44.8°C | 0% | 0hPa | 4.5V | 00:00:00 | 00:00:00 | 00:00:00 | |
| AA1-15 | 2026-08-31 10:42:39 | 51.00844 | 9.07443 | 68° | 78km/h | 15223m | -4.3m/s | -51.2°C | 0% | 0hPa | 4.5V | 00:00:00 | 00:00:00 | 00:00:00 | |
| DO2JMG | 2026-08-31 10:42:34 | 51.00807 | 9.07301 | 66° | 77km/h | 15245m | -4.5m/s | -51.1°C | 0% | 0hPa | 4.5V | 00:00:00 | 00:00:00 | 00:00:00 | |
| DJTTGO | 2026-08-31 10:42:33 | 51.00807 | 9.07301 | 67° | 77km/h | 15245m | -4.4m/s | -51.1°C | 0% | 0hPa | 4.5V | 00:00:00 | 00:00:00 | 00:00:00 | |
| DK7TD | 2026-08-31 10:42:28 | 51.00760 | 9.07134 | 66° | 75km/h | 15272m | -4.4m/s | -51.2°C | 0% | 0hPa | 4.5V | 00:00:00 | 00:00:00 | 00:00:00 | |
| DO8TBO-1 | 2026-08-31 10:42:27 | 51.00760 | 9.07134 | 66° | 75km/h | 15281m | -4.3m/s | 0°C | 0% | 0hPa | 4.5V | 00:00:00 | 00:00:00 | 00:00:00 | |
| HSKMA3-T | 2026-08-31 10:42:25 | 51.00728 | 9.07026 | 64° | 75km/h | 15290m | -4.4m/s | -51.3°C | 0% | 0hPa | 4.5V | 00:00:00 | 00:00:00 | 00:00:00 | |
| DM7RM-13 | 2026-08-31 10:42:18 | 51.00686 | 9.06887 | 67° | 77km/h | 15318m | -4.5m/s | -45.1°C | 0% | 0hPa | 4.5V | 00:00:00 | 00:00:00 | 00:00:00 | |
| DF8AY | 2026-08-31 10:42:17 | 51.00671 | 9.06831 | 66° | 77km/h | 15322m | -4.5m/s | -51.5°C | 0% | 0hPa | 4.5V | 00:00:00 | 00:00:00 | 00:00:00 | |
| HSKMA3-T | 2026-08-31 10:42:13 | 51.00647 | 9.06749 | 63° | 73km/h | 15336m | -4.6m/s | -51.6°C | 0% | 0hPa | 4.5V | 00:00:00 | 00:00:00 | 00:00:00 | |
| DL1XH-west | 2026-08-31 10:42:11 | 51.00629 | 9.06697 | 60° | 75km/h | 15345m | -4.5m/s | -51.7°C | 0% | 0hPa | 4.5V | 00:00:00 | 00:00:00 | 00:00:00 | |
| DJTTGO | 2026-08-31 10:42:09 | 51.00610 | 9.06645 | 60° | 75km/h | 15355m | -4.6m/s | -51.7°C | 0% | 0hPa | 4.5V | 00:00:00 | 00:00:00 | 00:00:00 | |
| DF8AY | 2026-08-31 10:42:06 | 51.00572 | 9.06541 | 62° | 75km/h | 15374m | -4.5m/s | -51.8°C | 0% | 0hPa | 4.5V | 00:00:00 | 00:00:00 | 00:00:00 | |
| DO2JMG | 2026-08-31 10:42:04 | 51.00563 | 9.06514 | 62° | 75km/h | 15378m | -4.6m/s | -51.6°C | 0% | 0hPa | 4.5V | 00:00:00 | 00:00:00 | 00:00:00 | |
| HSKMA3-T | 2026-08-31 10:42:02 | 51.00537 | 9.06434 | 63° | 73km/h | 15392m | -4.7m/s | -51.6°C | 0% | 0hPa | 4.5V | 00:00:00 | 00:00:00 | 00:00:00 | |
| DO8TBO-1 | 2026-08-31 10:41:57 | 51.00503 | 9.06328 | 63° | 77km/h | 15421m | -4.7m/s | 0°C | 0% | 0hPa | 4.5V | 00:00:00 | 00:00:00 | 00:00:00 | |
| DF8AY | 2026-08-31 10:41:56 | 51.00485 | 9.06273 | 64° | 78km/h | 15420m | -4.7m/s | -51.5°C | 0% | 0hPa | 4.5V | 00:00:00 | 00:00:00 | 00:00:00 | |
| DK7TD | 2026-08-31 10:41:51 | 51.00442 | 9.06133 | 64° | 77km/h | 15444m | -4.8m/s | -51.6°C | 0% | 0hPa | 4.5V | 00:00:00 | 00:00:00 | 00:00:00 | |
| HSKMA3-T | 2026-08-31 10:41:49 | 51.00433 | 9.06105 | 64° | 77km/h | 15449m | -4.9m/s | -51.6°C | 0% | 0hPa | 4.5V | 00:00:00 | 00:00:00 | 00:00:00 | |
| DO2JMG | 2026-08-31 10:41:48 | 51.00424 | 9.06077 | 64° | 77km/h | 15454m | -4.6m/s | -51.6°C | 0% | 0hPa | 4.5V | 00:00:00 | 00:00:00 | 00:00:00 | |
| AA1-15 | 2026-08-31 10:41:48 | 51.00416 | 9.06049 | 64° | 77km/h | 15458m | -4.6m/s | -51.7°C | 0% | 0hPa | 4.5V | 00:00:00 | 00:00:00 | 00:00:00 | |
| DF8AY | 2026-08-31 10:41:45 | 51.00390 | 9.05966 | 64° | 77km/h | 15473m | -4.8m/s | -51.8°C | 0% | 0hPa | 4.5V | 00:00:00 | 00:00:00 | 00:00:00 | |
| DF5WG-10 | 2026-08-31 10:41:44 | 51.00390 | 9.05966 | 64° | 77km/h | 15478m | -4.7m/s | 0°C | 0% | 0hPa | 4.5V | 00:00:00 | 00:00:00 | 00:00:00 | |
| DK7TD | 2026-08-31 10:41:41 | 51.00356 | 9.05856 | 65° | 77km/h | 15492m | -4.8m/s | -51.9°C | 0% | 0hPa | 4.5V | 00:00:00 | 00:00:00 | 00:00:00 | |
| DO2JMG | 2026-08-31 10:41:38 | 51.00332 | 9.05773 | 65° | 77km/h | 15507m | -4.8m/s | -51.9°C | 0% | 0hPa | 4.5V | 00:00:00 | 00:00:00 | 00:00:00 | |
| DL3OBA | 2026-08-31 10:41:37 | 51.00332 | 9.05773 | 66° | 77km/h | 15507m | -4.8m/s | -51.9°C | 0% | 0hPa | 4.5V | 00:00:00 | 00:00:00 | 00:00:00 | |
| DF8AY | 2026-08-31 10:41:34 | 51.00300 | 9.05662 | 65° | 77km/h | 15526m | -4.7m/s | -52°C | 0% | 0hPa | 4.5V | 00:00:00 | 00:00:00 | 00:00:00 | |
| AA1-15 | 2026-08-31 10:41:32 | 51.00283 | 9.05606 | 65° | 77km/h | 15536m | -4.8m/s | -52°C | 0% | 0hPa | 4.5V | 00:00:00 | 00:00:00 | 00:00:00 | |
| DO2JMG | 2026-08-31 10:41:27 | 51.00251 | 9.05497 | 65° | 71km/h | 15556m | -4.9m/s | -52.1°C | 0% | 0hPa | 4.5V | 00:00:00 | 00:00:00 | 00:00:00 | |
| DO8TBO-1 | 2026-08-31 10:41:27 | 51.00251 | 9.05497 | 66° | 69km/h | 15561m | -4.9m/s | 0°C | 0% | 0hPa | 4.5V | 00:00:00 | 00:00:00 | 00:00:00 | |
| DL1CLM-18 | 2026-08-31 10:41:24 | 51.00222 | 9.05395 | 67° | 69km/h | 15576m | -4.9m/s | -52.2°C | 0% | 0hPa | 4.5V | 00:00:00 | 00:00:00 | 00:00:00 | |
| DF8AY | 2026-08-31 10:41:23 | 51.00215 | 9.05370 | 65° | 69km/h | 15580m | -4.8m/s | -52.2°C | 0% | 0hPa | 4.5V | 00:00:00 | 00:00:00 | 00:00:00 | |
| AA1-15 | 2026-08-31 10:41:21 | 51.00200 | 9.05320 | 66° | 71km/h | 15590m | -4.8m/s | -52.1°C | 0% | 0hPa | 4.5V | 00:00:00 | 00:00:00 | 00:00:00 | |
| DJTTGO | 2026-08-31 10:41:20 | 51.00200 | 9.05320 | 66° | 71km/h | 15591m | -4.8m/s | -52.1°C | 0% | 0hPa | 4.5V | 00:00:00 | 00:00:00 | 00:00:00 | |
| DL1XH-west | 2026-08-31 10:41:19 | 51.00186 | 9.05269 | 66° | 69km/h | 15600m | -4.8m/s | -52°C | 0% | 0hPa | 4.5V | 00:00:00 | 00:00:00 | 00:00:00 | |
| DO2JMG | 2026-08-31 10:41:17 | 51.00171 | 9.05219 | 66° | 66km/h | 15610m | -5m/s | -52°C | 0% | 0hPa | 4.5V | 00:00:00 | 00:00:00 | 00:00:00 | |
| DK7TD | 2026-08-31 10:41:15 | 51.00165 | 9.05195 | 66° | 66km/h | 15615m | -5.1m/s | -52°C | 0% | 0hPa | 4.5V | 00:00:00 | 00:00:00 | 00:00:00 | |
| DF5WG-10 | 2026-08-31 10:41:14 | 51.00158 | 9.05171 | 66° | 58km/h | 15645m | -5.0m/s | 0°C | 0% | 0hPa | 4.5V | 00:00:00 | 00:00:00 | 00:00:00 | |
| DF8AY | 2026-08-31 10:41:13 | 51.00145 | 9.05127 | 64° | 60km/h | 15630m | -5m/s | -51.9°C | 0% | 0hPa | 4.5V | 00:00:00 | 00:00:00 | 00:00:00 | |
| DL1XH-west | 2026-08-31 10:41:08 | 51.00110 | 9.05020 | 62° | 60km/h | 15655m | -5.1m/s | -51.7°C | 0% | 0hPa | 4.5V | 00:00:00 | 00:00:00 | 00:00:00 | |
| DO2JMG | 2026-08-31 10:41:05 | 51.00096 | 9.04977 | 62° | 60km/h | 15665m | -5.2m/s | -51.6°C | 0% | 0hPa | 4.5V | 00:00:00 | 00:00:00 | 00:00:00 | |
| DF8AY | 2026-08-31 10:41:02 | 51.00069 | 9.04897 | 62° | 53km/h | 15686m | -5.1m/s | -51.4°C | 0% | 0hPa | 4.5V | 00:00:00 | 00:00:00 | 00:00:00 | |
| DF5WG-10 | 2026-08-31 10:41:01 | 51.00069 | 9.04897 | 62° | 53km/h | 15692m | -5.0m/s | 0°C | 0% | 0hPa | 4.5V | 00:00:00 | 00:00:00 | 00:00:00 | |
| DJTTGO | 2026-08-31 10:40:56 | 51.00036 | 9.04809 | 60° | 51km/h | 15713m | -5.2m/s | 0°C | 0% | 0hPa | 4.5V | 00:00:00 | 00:00:00 | 00:00:00 | |
| DO2JMG | 2026-08-31 10:40:55 | 51.00023 | 9.04774 | 60° | 53km/h | 15723m | -5.1m/s | -51°C | 0% | 0hPa | 4.5V | 00:00:00 | 00:00:00 | 00:00:00 | |
| DF8AY | 2026-08-31 10:40:51 | 50.99996 | 9.04699 | 61° | 53km/h | 15744m | -5.2m/s | -50.3°C | 0% | 0hPa | 4.5V | 00:00:00 | 00:00:00 | 00:00:00 | |
| DF5WG-10 | 2026-08-31 10:40:51 | 51.00003 | 9.04717 | 62° | 53km/h | 15744m | -5.1m/s | 0°C | 0% | 0hPa | 4.5V | 00:00:00 | 00:00:00 | 00:00:00 | |
| DL8DAS-15 | 2026-08-31 10:40:46 | 50.99972 | 9.04623 | 64° | 51km/h | 15765m | -5.2m/s | -50.3°C | 0% | 0hPa | 4.5V | 00:00:00 | 00:00:00 | 00:00:00 | |
| DO2JMG | 2026-08-31 10:40:44 | 50.99961 | 9.04587 | 64° | 51km/h | 15776m | -5.3m/s | -50.3°C | 0% | 0hPa | 4.5V | 00:00:00 | 00:00:00 | 00:00:00 | |
| DF8AY | 2026-08-31 10:40:42 | 50.99931 | 9.04492 | 63° | 57km/h | 15802m | -5.4m/s | -50.4°C | 0% | 0hPa | 4.6V | 00:00:00 | 00:00:00 | 00:00:00 | |
| DF5WG-10 | 2026-08-31 10:40:41 | 50.99943 | 9.04531 | 63° | 55km/h | 15797m | -5.1m/s | 0°C | 0% | 0hPa | 4.6V | 00:00:00 | 00:00:00 | 00:00:00 | |
| DO2JMG | 2026-08-31 10:40:33 | 50.99896 | 9.04371 | 67° | 53km/h | 15834m | -5.3m/s | -50.6°C | 0% | 0hPa | 4.6V | 00:00:00 | 00:00:00 | 00:00:00 | |
| DJTTGO | 2026-08-31 10:40:33 | 50.99890 | 9.04352 | 68° | 53km/h | 15840m | -5.3m/s | -50.6°C | 0% | 0hPa | 4.6V | 00:00:00 | 00:00:00 | 00:00:00 | |
| DL8DAS-15 | 2026-08-31 10:40:32 | 50.99890 | 9.04352 | 68° | 53km/h | 15840m | -5.3m/s | -50.6°C | 0% | 0hPa | 4.6V | 00:00:00 | 00:00:00 | 00:00:00 | |
| DF5WG-10 | 2026-08-31 10:40:31 | 50.99885 | 9.04332 | 67° | 62km/h | 15850m | -5.4m/s | 0°C | 0% | 0hPa | 4.6V | 00:00:00 | 00:00:00 | 00:00:00 | |
| DF8AY | 2026-08-31 10:40:30 | 50.99868 | 9.04269 | 67° | 60km/h | 15861m | -5.3m/s | -50.8°C | 0% | 0hPa | 4.6V | 00:00:00 | 00:00:00 | 00:00:00 | |
| DK7TD | 2026-08-31 10:40:26 | 50.99849 | 9.04198 | 69° | 66km/h | 15877m | -5.4m/s | -50.8°C | 0% | 0hPa | 4.6V | 00:00:00 | 00:00:00 | 00:00:00 | |
| DO2JMG | 2026-08-31 10:40:23 | 50.99838 | 9.04149 | 70° | 64km/h | 15887m | -5.2m/s | -50.8°C | 0% | 0hPa | 4.6V | 00:00:00 | 00:00:00 | 00:00:00 | |
| DL1XH-west | 2026-08-31 10:40:23 | 50.99832 | 9.04125 | 72° | 64km/h | 15893m | -5.2m/s | -50.8°C | 0% | 0hPa | 4.6V | 00:00:00 | 00:00:00 | 00:00:00 | |
| DF5WG-10 | 2026-08-31 10:40:21 | 50.99827 | 9.04097 | 74° | 60km/h | 15904m | -5.4m/s | 0°C | 0% | 0hPa | 4.6V | 00:00:00 | 00:00:00 | 00:00:00 | |
| DF8AY | 2026-08-31 10:40:19 | 50.99814 | 9.04031 | 74° | 60km/h | 15915m | -5.3m/s | -50.6°C | 0% | 0hPa | 4.6V | 00:00:00 | 00:00:00 | 00:00:00 | |
| AA1-15 | 2026-08-31 10:40:12 | 50.99786 | 9.03874 | 76° | 55km/h | 15952m | -5.5m/s | -50°C | 0% | 0hPa | 4.6V | 00:00:00 | 00:00:00 | 00:00:00 | |
| DF5WG-10 | 2026-08-31 10:40:11 | 50.99786 | 9.03874 | 76° | 49km/h | 15963m | -5.3m/s | 0°C | 0% | 0hPa | 4.6V | 00:00:00 | 00:00:00 | 00:00:00 | |
| DF8AY | 2026-08-31 10:40:08 | 50.99773 | 9.03789 | 75° | 55km/h | 15973m | -5.4m/s | -50°C | 0% | 0hPa | 4.6V | 00:00:00 | 00:00:00 | 00:00:00 | |
| DL1XH-west | 2026-08-31 10:40:03 | 50.99751 | 9.03676 | 71° | 44km/h | 16005m | -5.2m/s | -50.1°C | 0% | 0hPa | 4.6V | 00:00:00 | 00:00:00 | 00:00:00 | |
| DF8AY | 2026-08-31 10:40:02 | 50.99730 | 9.03594 | 67° | 46km/h | 16031m | -5.1m/s | -49.9°C | 0% | 0hPa | 4.6V | 00:00:00 | 00:00:00 | 00:00:00 | |
| DO2JMG | 2026-08-31 10:40:02 | 50.99748 | 9.03660 | 70° | 44km/h | 16010m | -5.2m/s | -50.1°C | 0% | 0hPa | 4.6V | 00:00:00 | 00:00:00 | 00:00:00 | |
| DK7TD | 2026-08-31 10:40:02 | 50.99744 | 9.03644 | 68° | 44km/h | 16015m | -5.4m/s | -50°C | 0% | 0hPa | 4.6V | 00:00:00 | 00:00:00 | 00:00:00 | |
| DM7RM-13 | 2026-08-31 10:40:01 | 50.99748 | 9.03660 | 71° | 44km/h | 16010m | -5.2m/s | -43.6°C | 0% | 0hPa | 4.6V | 00:00:00 | 00:00:00 | 00:00:00 | |
| DF5WG-10 | 2026-08-31 10:39:59 | 50.99744 | 9.03644 | 67° | 46km/h | 16026m | -5.0m/s | 0°C | 0% | 0hPa | 4.6V | 00:00:00 | 00:00:00 | 00:00:00 | |
| DL1XH-west | 2026-08-31 10:39:51 | 50.99708 | 9.03508 | 66° | 46km/h | 16057m | -5.2m/s | -49.4°C | 0% | 0hPa | 4.6V | 00:00:00 | 00:00:00 | 00:00:00 | |
| DO2JMG | 2026-08-31 10:39:50 | 50.99703 | 9.03491 | 65° | 46km/h | 16062m | -5.3m/s | -49.3°C | 0% | 0hPa | 4.6V | 00:00:00 | 00:00:00 | 00:00:00 | |
| DF5WG-10 | 2026-08-31 10:39:48 | 50.99692 | 9.03458 | 62° | 47km/h | 16088m | -5.0m/s | 0°C | 0% | 0hPa | 4.5V | 00:00:00 | 00:00:00 | 00:00:00 | |
| DF8AY | 2026-08-31 10:39:46 | 50.99674 | 9.03409 | 61° | 49km/h | 16088m | -5m/s | -49.2°C | 0% | 0hPa | 4.5V | 00:00:00 | 00:00:00 | 00:00:00 | |
| DK7TD | 2026-08-31 10:39:40 | 50.99645 | 9.03322 | 63° | 49km/h | 16114m | -5.2m/s | -49.2°C | 0% | 0hPa | 4.6V | 00:00:00 | 00:00:00 | 00:00:00 | |
| DM7RM-13 | 2026-08-31 10:39:40 | 50.99645 | 9.03321 | 64° | 49km/h | 16114m | -5.2m/s | -42.7°C | 0% | 0hPa | 4.5V | 00:00:00 | 00:00:00 | 00:00:00 | |
| DO2JMG | 2026-08-31 10:39:39 | 50.99640 | 9.03304 | 63° | 49km/h | 16119m | -5.2m/s | -49.2°C | 0% | 0hPa | 4.5V | 00:00:00 | 00:00:00 | 00:00:00 | |
| DF5WG-10 | 2026-08-31 10:39:38 | 50.99632 | 9.03287 | 64° | 49km/h | 16125m | -5.2m/s | 0°C | 0% | 0hPa | 4.6V | 00:00:00 | 00:00:00 | 00:00:00 | |
| DL1XH-15 | 2026-08-31 10:39:38 | 50.99617 | 9.03233 | 65° | 51km/h | 16146m | -5m/s | 0°C | 0% | 0hPa | 0V | 00:00:00 | 00:00:00 | 00:00:00 | |
| DJTTGO | 2026-08-31 10:39:36 | 50.99623 | 9.03251 | 65° | 49km/h | 16135m | -5.1m/s | -49.0°C | 0% | 0hPa | 4.6V | 00:00:00 | 00:00:00 | 00:00:00 | |
| DL1XH-west | 2026-08-31 10:39:35 | 50.99617 | 9.03233 | 65° | 51km/h | 16140m | -5m/s | -48.9°C | 0% | 0hPa | 4.6V | 00:00:00 | 00:00:00 | 00:00:00 | |
| GOEST3-10 | 2026-08-31 10:39:35 | 50.99617 | 9.03233 | 66° | 51km/h | 16146m | -5.0m/s | 0°C | 0% | 0hPa | 4.6V | 00:00:00 | 00:00:00 | 00:00:00 | |
| DO3MHA-11 | 2026-08-31 10:39:34 | 50.99612 | 9.03214 | 67° | 49km/h | 16151m | -5.0m/s | 0°C | 0% | 0hPa | 4.6V | 00:00:00 | 00:00:00 | 00:00:00 | |
| DO2SHX-10 | 2026-08-31 10:39:29 | 50.99589 | 9.03117 | 64° | 47km/h | 16211m | -4.9m/s | 0°C | 0% | 0hPa | 4.6V | 00:00:00 | 00:00:00 | 00:00:00 | |
| DO2JMG | 2026-08-31 10:39:28 | 50.99584 | 9.03102 | 67° | 47km/h | 16176m | -4.9m/s | -48.8°C | 0% | 0hPa | 4.6V | 00:00:00 | 00:00:00 | 00:00:00 | |
| HSKMA3-T | 2026-08-31 10:39:27 | 50.99574 | 9.03068 | 63° | 47km/h | 16185m | -4.8m/s | -48.8°C | 0% | 0hPa | 4.6V | 00:00:00 | 00:00:00 | 00:00:00 | |
| DK7TD | 2026-08-31 10:39:26 | 50.99568 | 9.03051 | 62° | 47km/h | 16191m | -5.2m/s | -48.8°C | 0% | 0hPa | 4.6V | 00:00:00 | 00:00:00 | 00:00:00 | |
| DF5WG-10 | 2026-08-31 10:39:26 | 50.99574 | 9.03068 | 64° | 49km/h | 16196m | -5.0m/s | 0°C | 0% | 0hPa | 4.6V | 00:00:00 | 00:00:00 | 00:00:00 | |
| DF8AY | 2026-08-31 10:39:25 | 50.99562 | 9.03035 | 60° | 46km/h | 16196m | -5.1m/s | -48.8°C | 0% | 0hPa | 4.6V | 00:00:00 | 00:00:00 | 00:00:00 | |
| DO3MHA-11 | 2026-08-31 10:39:24 | 50.99562 | 9.03035 | 61° | 46km/h | 16201m | -4.9m/s | 0°C | 0% | 0hPa | 0V | 00:00:00 | 00:00:00 | 00:00:00 | |
| DO2SHX-10 | 2026-08-31 10:39:22 | 50.99551 | 9.03003 | 60° | 46km/h | 16211m | -4.9m/s | 0°C | 0% | 0hPa | 0V | 00:00:00 | 00:00:00 | 00:00:00 | |
| GOEST3-10 | 2026-08-31 10:39:19 | 50.99533 | 9.02955 | 61° | 44km/h | 16232m | -4.8m/s | 0°C | 0% | 0hPa | 0V | 00:00:00 | 00:00:00 | 00:00:00 | |
| DL1XH-15 | 2026-08-31 10:39:18 | 50.99510 | 9.02895 | 56° | 44km/h | 16247m | -5.1m/s | 0°C | 0% | 0hPa | 0V | 00:00:00 | 00:00:00 | 00:00:00 | |
| DO2JMG | 2026-08-31 10:39:18 | 50.99522 | 9.02924 | 58° | 44km/h | 16231m | -4.9m/s | -48.7°C | 0% | 0hPa | 4.6V | 00:00:00 | 00:00:00 | 00:00:00 | |
| DL1NUX | 2026-08-31 10:39:16 | 50.99484 | 9.02837 | 53° | 46km/h | 16267m | -5.1m/s | 0°C | 0% | 0hPa | 0V | 00:00:00 | 00:00:00 | 00:00:00 | |
| HSKMA3-T | 2026-08-31 10:39:16 | 50.99510 | 9.02895 | 57° | 44km/h | 16242m | -5.1m/s | -48.7°C | 0% | 0hPa | 4.6V | 00:00:00 | 00:00:00 | 00:00:00 | |
| DF8AY | 2026-08-31 10:39:15 | 50.99497 | 9.02866 | 55° | 44km/h | 16252m | -5m/s | -48.7°C | 0% | 0hPa | 4.6V | 00:00:00 | 00:00:00 | 00:00:00 | |
| DO2SHX-10 | 2026-08-31 10:39:14 | 50.99505 | 9.02880 | 55° | 46km/h | 16247m | -5.0m/s | 0°C | 0% | 0hPa | 0V | 00:00:00 | 00:00:00 | 00:00:00 | |
| DO3MHA-11 | 2026-08-31 10:39:13 | 50.99497 | 9.02866 | 55° | 46km/h | 16257m | -4.9m/s | 0°C | 0% | 0hPa | 0V | 00:00:00 | 00:00:00 | 00:00:00 | |
| DO2SHX-10 | 2026-08-31 10:39:10 | 50.99477 | 9.02822 | 54° | 53km/h | 16267m | -5.1m/s | 0°C | 0% | 0hPa | 0V | 00:00:00 | 00:00:00 | 00:00:00 | |
| DF1GD-15 | 2026-08-31 10:39:09 | 50.99463 | 9.02793 | 55° | 46km/h | 16272m | -5.1m/s | -48.8°C | 0% | 0hPa | 0V | 00:00:00 | 00:00:00 | 00:00:00 | |
| DL1XH-15 | 2026-08-31 10:39:08 | 50.99442 | 9.02748 | 53° | 47km/h | 16298m | -5.1m/s | 0°C | 0% | 0hPa | 0V | 00:00:00 | 00:00:00 | 00:00:00 | |
| DO2JMG | 2026-08-31 10:39:07 | 50.99456 | 9.02778 | 53° | 46km/h | 16283m | -5.1m/s | -48.8°C | 0% | 0hPa | 4.6V | 00:00:00 | 00:00:00 | 00:00:00 | |
| HSKMA3-T | 2026-08-31 10:39:05 | 50.99435 | 9.02733 | 53° | 47km/h | 16298m | -5.1m/s | -48.9°C | 0% | 0hPa | 4.5V | 00:00:00 | 00:00:00 | 00:00:00 | |
| SO1NDE-10 | 2026-08-31 10:39:04 | 50.99435 | 9.02733 | 54° | 60km/h | 16303m | -5.0m/s | 0°C | 0% | 0hPa | 4.5V | 00:00:00 | 00:00:00 | 00:00:00 | |
| DF8AY | 2026-08-31 10:39:03 | 50.99420 | 9.02702 | 54° | 49km/h | 16308m | -5.1m/s | -48.9°C | 0% | 0hPa | 4.5V | 00:00:00 | 00:00:00 | 00:00:00 | |
| GOEST3-10 | 2026-08-31 10:39:00 | 50.99399 | 9.02653 | 55° | 49km/h | 16324m | -5.3m/s | 0°C | 0% | 0hPa | 4.6V | 00:00:00 | 00:00:00 | 00:00:00 | |
| DO2JMG | 2026-08-31 10:38:58 | 50.99376 | 9.02605 | 52° | 49km/h | 16339m | -5m/s | -49°C | 0% | 0hPa | 4.6V | 00:00:00 | 00:00:00 | 00:00:00 | |
| DK7TD | 2026-08-31 10:38:56 | 50.99369 | 9.02589 | 52° | 49km/h | 16345m | -5.2m/s | -49.1°C | 0% | 0hPa | 4.6V | 00:00:00 | 00:00:00 | 00:00:00 | |
| DL1XH-west | 2026-08-31 10:38:54 | 50.99361 | 9.02573 | 52° | 49km/h | 16350m | -5.2m/s | -49.1°C | 0% | 0hPa | 4.6V | 00:00:00 | 00:00:00 | 00:00:00 | |
| GOEST3-10 | 2026-08-31 10:38:54 | 50.99361 | 9.02573 | 53° | 53km/h | 16355m | -4.9m/s | 0°C | 0% | 0hPa | 4.6V | 00:00:00 | 00:00:00 | 00:00:00 | |
| DF8AY | 2026-08-31 10:38:53 | 50.99345 | 9.02540 | 54° | 53km/h | 16360m | -5.1m/s | -49.2°C | 0% | 0hPa | 4.6V | 00:00:00 | 00:00:00 | 00:00:00 | |
| GOEST3-10 | 2026-08-31 10:38:49 | 50.99321 | 9.02489 | 53° | 55km/h | 16381m | -5.1m/s | 0°C | 0% | 0hPa | 0V | 00:00:00 | 00:00:00 | 00:00:00 | |
| DL1XH-15 | 2026-08-31 10:38:48 | 50.99286 | 9.02422 | 48° | 55km/h | 16428m | -5.1m/s | 0°C | 0% | 0hPa | 0V | 00:00:00 | 00:00:00 | 00:00:00 | |
| DO2JMG | 2026-08-31 10:38:45 | 50.99286 | 9.02422 | 49° | 55km/h | 16396m | -5.3m/s | -49.4°C | 0% | 0hPa | 4.6V | 00:00:00 | 00:00:00 | 00:00:00 | |
| GOEST3-10 | 2026-08-31 10:38:44 | 50.99277 | 9.02406 | 49° | 53km/h | 16423m | -5.1m/s | 0°C | 0% | 0hPa | 4.6V | 00:00:00 | 00:00:00 | 00:00:00 | |
| DO3MHA-11 | 2026-08-31 10:38:42 | 50.99259 | 9.02374 | 48° | 55km/h | 16433m | -5.1m/s | 0°C | 0% | 0hPa | 4.6V | 00:00:00 | 00:00:00 | 00:00:00 | |
| DL1XH-west | 2026-08-31 10:38:41 | 50.99250 | 9.02358 | 47° | 53km/h | 16417m | -5.2m/s | 0°C | 0% | 0hPa | 4.6V | 00:00:00 | 00:00:00 | 00:00:00 | |
| DK7TD | 2026-08-31 10:38:40 | 50.99231 | 9.02326 | 47° | 53km/h | 16428m | -5.1m/s | -49.7°C | 0% | 0hPa | 4.6V | 00:00:00 | 00:00:00 | 00:00:00 | |
| GOEST3-10 | 2026-08-31 10:38:39 | 50.99231 | 9.02326 | 48° | 53km/h | 16433m | -5.1m/s | 0°C | 0% | 0hPa | 0V | 00:00:00 | 00:00:00 | 00:00:00 | |
| DM7RM-13 | 2026-08-31 10:38:38 | 50.99222 | 9.02310 | 49° | 53km/h | 16433m | -5.2m/s | -43.1°C | 0% | 0hPa | 0V | 00:00:00 | 00:00:00 | 00:00:00 | |
| DL1XH-15 | 2026-08-31 10:38:35 | 50.99100 | 9.02096 | 44° | 53km/h | 16506m | -5.2m/s | 0°C | 0% | 0hPa | 0V | 00:00:00 | 00:00:00 | 00:00:00 | |
| DO2JMG | 2026-08-31 10:38:35 | 50.99184 | 9.02245 | 49° | 57km/h | 16454m | -5.2m/s | -49.8°C | 0% | 0hPa | 4.6V | 00:00:00 | 00:00:00 | 00:00:00 | |
| GOEST3-10 | 2026-08-31 10:38:34 | 50.99184 | 9.02245 | 49° | 57km/h | 16460m | -5.0m/s | 0°C | 0% | 0hPa | 4.6V | 00:00:00 | 00:00:00 | 00:00:00 | |
| DO3MHA-11 | 2026-08-31 10:38:32 | 50.99165 | 9.02209 | 50° | 55km/h | 16470m | -5.0m/s | 0°C | 0% | 0hPa | 4.6V | 00:00:00 | 00:00:00 | 00:00:00 | |
| DF8AY | 2026-08-31 10:38:31 | 50.99147 | 9.02174 | 50° | 57km/h | 16475m | -5.3m/s | -50°C | 0% | 0hPa | 4.6V | 00:00:00 | 00:00:00 | 00:00:00 | |
| HSKMA3-T | 2026-08-31 10:38:30 | 50.99137 | 9.02157 | 48° | 55km/h | 16480m | -5m/s | -50.1°C | 0% | 0hPa | 4.6V | 00:00:00 | 00:00:00 | 00:00:00 | |
| DL1XH-west | 2026-08-31 10:38:30 | 50.99109 | 9.02110 | 45° | 53km/h | 16495m | -4.9m/s | 0°C | 0% | 0hPa | 4.6V | 00:00:00 | 00:00:00 | 00:00:00 | |
| DL1XH-15 | 2026-08-31 10:38:30 | 50.99049 | 9.02013 | 49° | 60km/h | 16531m | -5.2m/s | 0°C | 0% | 0hPa | 0V | 00:00:00 | 00:00:00 | 00:00:00 | |
| DO2JMG | 2026-08-31 10:38:25 | 50.99090 | 9.02080 | 44° | 55km/h | 16506m | -5.2m/s | -50.3°C | 0% | 0hPa | 4.6V | 00:00:00 | 00:00:00 | 00:00:00 | |
| GOEST3-10 | 2026-08-31 10:38:24 | 50.99090 | 9.02080 | 44° | 58km/h | 16516m | -4.8m/s | 0°C | 0% | 0hPa | 4.6V | 00:00:00 | 00:00:00 | 00:00:00 | |
| DF1GD-15 | 2026-08-31 10:38:23 | 50.99080 | 9.02064 | 46° | 57km/h | 16511m | -5.2m/s | -50.3°C | 0% | 0hPa | 4.6V | 00:00:00 | 00:00:00 | 00:00:00 | |
| DO3MHA-11 | 2026-08-31 10:38:22 | 50.99069 | 9.02049 | 48° | 60km/h | 16521m | -5.1m/s | 0°C | 0% | 0hPa | 4.6V | 00:00:00 | 00:00:00 | 00:00:00 | |
| DK7TD | 2026-08-31 10:38:21 | 50.99049 | 9.02013 | 50° | 60km/h | 16526m | -5m/s | -50.5°C | 0% | 0hPa | 4.6V | 00:00:00 | 00:00:00 | 00:00:00 | |
| DL1XH-west | 2026-08-31 10:38:20 | 50.99040 | 9.01995 | 50° | 60km/h | 16531m | -5.2m/s | 0°C | 0% | 0hPa | 4.6V | 00:00:00 | 00:00:00 | 00:00:00 | |
| GOEST3-10 | 2026-08-31 10:38:20 | 50.99040 | 9.01995 | 50° | 60km/h | 16537m | -5.2m/s | 0°C | 0% | 0hPa | 0V | 00:00:00 | 00:00:00 | 00:00:00 | |
| DM7RM-13 | 2026-08-31 10:38:18 | 50.99030 | 9.01976 | 52° | 60km/h | 16537m | -5.2m/s | -44.1°C | 0% | 0hPa | 0V | 00:00:00 | 00:00:00 | 00:00:00 | |
| DL1XH-15 | 2026-08-31 10:38:15 | 50.98949 | 9.01834 | 49° | 62km/h | 16586m | -5.3m/s | 0°C | 0% | 0hPa | 0V | 00:00:00 | 00:00:00 | 00:00:00 | |
| DO2JMG | 2026-08-31 10:38:13 | 50.98980 | 9.01887 | 46° | 58km/h | 16564m | -5.6m/s | -50.6°C | 0% | 0hPa | 4.6V | 00:00:00 | 00:00:00 | 00:00:00 | |
| DO3MHA-11 | 2026-08-31 10:38:12 | 50.98969 | 9.01870 | 47° | 62km/h | 16575m | -5.5m/s | 0°C | 0% | 0hPa | 4.6V | 00:00:00 | 00:00:00 | 00:00:00 | |
| DF5WG-10 | 2026-08-31 10:38:11 | 50.98959 | 9.01852 | 48° | 62km/h | 16630m | -5.4m/s | 0°C | 0% | 0hPa | 4.6V | 00:00:00 | 00:00:00 | 00:00:00 | |
| HSKMA3-T | 2026-08-31 10:38:09 | 50.98939 | 9.01815 | 50° | 62km/h | 16586m | -5.3m/s | -50.7°C | 0% | 0hPa | 4.6V | 00:00:00 | 00:00:00 | 00:00:00 | |
| GOEST3-10 | 2026-08-31 10:38:08 | 50.98929 | 9.01796 | 52° | 60km/h | 16608m | -5.4m/s | 0°C | 0% | 0hPa | 0V | 00:00:00 | 00:00:00 | 00:00:00 | |
| DJTTGO | 2026-08-31 10:38:07 | 50.98919 | 9.01777 | 54° | 62km/h | 16597m | -5.4m/s | -50.8°C | 0% | 0hPa | 0V | 00:00:00 | 00:00:00 | 00:00:00 | |
| DL1XH-15 | 2026-08-31 10:38:05 | 50.98851 | 9.01637 | 51° | 68km/h | 16640m | -5.8m/s | 0°C | 0% | 0hPa | 0V | 00:00:00 | 00:00:00 | 00:00:00 | |
| DO2JMG | 2026-08-31 10:38:04 | 50.98882 | 9.01699 | 52° | 62km/h | 16619m | -5.6m/s | -50.9°C | 0% | 0hPa | 4.6V | 00:00:00 | 00:00:00 | 00:00:00 | |
| GOEST3-10 | 2026-08-31 10:38:03 | 50.98882 | 9.01701 | 52° | 66km/h | 16630m | -5.4m/s | 0°C | 0% | 0hPa | 0V | 00:00:00 | 00:00:00 | 00:00:00 | |
| DO3MHA-11 | 2026-08-31 10:38:02 | 50.98872 | 9.01679 | 53° | 66km/h | 16630m | -5.4m/s | 0°C | 0% | 0hPa | 0V | 00:00:00 | 00:00:00 | 00:00:00 | |
| DF1GD-15 | 2026-08-31 10:38:00 | 50.98851 | 9.01637 | 53° | 68km/h | 16635m | -5.5m/s | -50.8°C | 0% | 0hPa | 0V | 00:00:00 | 00:00:00 | 00:00:00 | |
| DL1NUX | 2026-08-31 10:37:59 | 50.98790 | 9.01509 | 55° | 64km/h | 16669m | -5.7m/s | 0°C | 0% | 0hPa | 0V | 00:00:00 | 00:00:00 | 00:00:00 | |
| DF8AY | 2026-08-31 10:37:59 | 50.98830 | 9.01595 | 52° | 68km/h | 16646m | -5.5m/s | -50.8°C | 0% | 0hPa | 4.6V | 00:00:00 | 00:00:00 | 00:00:00 | |
| DM7RM-13 | 2026-08-31 10:37:59 | 50.98820 | 9.01573 | 54° | 68km/h | 16652m | -5.7m/s | -44.4°C | 0% | 0hPa | 4.6V | 00:00:00 | 00:00:00 | 00:00:00 | |
| GOEST3-10 | 2026-08-31 10:37:58 | 50.98820 | 9.01573 | 54° | 66km/h | 16658m | -5.6m/s | 0°C | 0% | 0hPa | 4.6V | 00:00:00 | 00:00:00 | 00:00:00 | |
| DO2JMG | 2026-08-31 10:37:52 | 50.98763 | 9.01444 | 56° | 64km/h | 16686m | -5.7m/s | -50.9°C | 0% | 0hPa | 4.6V | 00:00:00 | 00:00:00 | 00:00:00 | |
| DF8AY | 2026-08-31 10:37:49 | 50.98735 | 9.01380 | 55° | 66km/h | 16704m | -5.9m/s | -50.8°C | 0% | 0hPa | 4.6V | 00:00:00 | 00:00:00 | 00:00:00 | |
| DL1NUX | 2026-08-31 10:37:48 | 50.98688 | 9.01271 | 56° | 68km/h | 16740m | -6m/s | 0°C | 0% | 0hPa | 0V | 00:00:00 | 00:00:00 | 00:00:00 | |
| GOEST3-10 | 2026-08-31 10:37:47 | 50.98726 | 9.01359 | 56° | 66km/h | 16716m | -5.8m/s | 0°C | 0% | 0hPa | 4.6V | 00:00:00 | 00:00:00 | 00:00:00 | |
| HSKMA3-T | 2026-08-31 10:37:46 | 50.98707 | 9.01315 | 56° | 66km/h | 16722m | -6.1m/s | -50.9°C | 0% | 0hPa | 4.6V | 00:00:00 | 00:00:00 | 00:00:00 | |
| DL1XH-15 | 2026-08-31 10:37:45 | 50.98661 | 9.01204 | 56° | 66km/h | 16764m | -6.4m/s | 0°C | 0% | 0hPa | 0V | 00:00:00 | 00:00:00 | 00:00:00 | |
| DJTTGO | 2026-08-31 10:37:43 | 50.98688 | 9.01271 | 57° | 68km/h | 16734m | -6.0m/s | -51.0°C | 0% | 0hPa | 4.6V | 00:00:00 | 00:00:00 | 00:00:00 | |
| DO3MHA-11 | 2026-08-31 10:37:42 | 50.98679 | 9.01249 | 57° | 66km/h | 16746m | -5.9m/s | 0°C | 0% | 0hPa | 4.6V | 00:00:00 | 00:00:00 | 00:00:00 | |
| DO2JMG | 2026-08-31 10:37:41 | 50.98661 | 9.01204 | 57° | 66km/h | 16752m | -6.1m/s | -51°C | 0% | 0hPa | 4.6V | 00:00:00 | 00:00:00 | 00:00:00 | |
| DD1CC2-15 | 2026-08-31 10:37:40 | 50.98660 | 9.01204 | 58° | 66km/h | 16764m | -6.4m/s | -44.6°C | 0% | 0hPa | 0V | 00:00:00 | 00:00:00 | 00:00:00 | |
| DF5WG-10 | 2026-08-31 10:37:39 | 50.98651 | 9.01182 | 57° | 66km/h | 16764m | -6.3m/s | 0°C | 0% | 0hPa | 0V | 00:00:00 | 00:00:00 | 00:00:00 | |
| DL1NUX | 2026-08-31 10:37:38 | 50.98598 | 9.01047 | 59° | 66km/h | 16793m | -5.9m/s | 0°C | 0% | 0hPa | 0V | 00:00:00 | 00:00:00 | 00:00:00 | |
| DF8AY | 2026-08-31 10:37:37 | 50.98624 | 9.01115 | 58° | 68km/h | 16776m | -5.9m/s | -51°C | 0% | 0hPa | 4.6V | 00:00:00 | 00:00:00 | 00:00:00 | |
| GOEST3-10 | 2026-08-31 10:37:37 | 50.98633 | 9.01138 | 59° | 66km/h | 16776m | -5.8m/s | 0°C | 0% | 0hPa | 4.6V | 00:00:00 | 00:00:00 | 00:00:00 | |
| HSKMA3-T | 2026-08-31 10:37:33 | 50.98590 | 9.01024 | 60° | 66km/h | 16799m | -5.7m/s | -51°C | 0% | 0hPa | 4.6V | 00:00:00 | 00:00:00 | 00:00:00 | |
| GOEST3-10 | 2026-08-31 10:37:32 | 50.98590 | 9.01024 | 60° | 64km/h | 16811m | -5.9m/s | 0°C | 0% | 0hPa | 4.6V | 00:00:00 | 00:00:00 | 00:00:00 | |
| DO2JMG | 2026-08-31 10:37:30 | 50.98573 | 9.00980 | 59° | 64km/h | 16811m | -5.9m/s | -51.1°C | 0% | 0hPa | 4.6V | 00:00:00 | 00:00:00 | 00:00:00 | |
| DK7TD | 2026-08-31 10:37:29 | 50.98558 | 9.00935 | 62° | 64km/h | 16823m | -6.2m/s | -51°C | 0% | 0hPa | 4.6V | 00:00:00 | 00:00:00 | 00:00:00 | |
| GOEST3-10 | 2026-08-31 10:37:27 | 50.98550 | 9.00913 | 64° | 62km/h | 16836m | -6.1m/s | 0°C | 0% | 0hPa | 4.6V | 00:00:00 | 00:00:00 | 00:00:00 | |
| DF8AY | 2026-08-31 10:37:26 | 50.98537 | 9.00867 | 66° | 64km/h | 16842m | -6.4m/s | -51°C | 0% | 0hPa | 4.6V | 00:00:00 | 00:00:00 | 00:00:00 | |
| HSKMA3-T | 2026-08-31 10:37:24 | 50.98514 | 9.00778 | 68° | 57km/h | 16868m | -6m/s | -50.7°C | 0% | 0hPa | 4.6V | 00:00:00 | 00:00:00 | 00:00:00 | |
| GOEST3-10 | 2026-08-31 10:37:24 | 50.98519 | 9.00797 | 68° | 55km/h | 16874m | -6.0m/s | 0°C | 0% | 0hPa | 4.6V | 00:00:00 | 00:00:00 | 00:00:00 | |
| AA1-15 | 2026-08-31 10:37:23 | 50.98508 | 9.00758 | 67° | 55km/h | 16874m | -6.1m/s | -50.4°C | 0% | 0hPa | 4.6V | 00:00:00 | 00:00:00 | 00:00:00 | |
| DL1CLM-18 | 2026-08-31 10:37:23 | 50.98508 | 9.00738 | 68° | 55km/h | 16880m | -6.7m/s | 0°C | 0% | 0hPa | 4.6V | 00:00:00 | 00:00:00 | 00:00:00 | |
| DJTTGO | 2026-08-31 10:37:22 | 50.98503 | 9.00738 | 68° | 53km/h | 16880m | -6.7m/s | -50.3°C | 0% | 0hPa | 4.6V | 00:00:00 | 00:00:00 | 00:00:00 | |
| DO2JMG | 2026-08-31 10:37:20 | 50.98503 | 9.00738 | 67° | 53km/h | 16880m | -6.7m/s | -50.3°C | 0% | 0hPa | 4.6V | 00:00:00 | 00:00:00 | 00:00:00 | |
| DD1CC2-15 | 2026-08-31 10:37:19 | 50.98503 | 9.00738 | 68° | 53km/h | 16880m | -6.7m/s | -43.9°C | 0% | 0hPa | 4.6V | 00:00:00 | 00:00:00 | 00:00:00 | |
| DK7TD | 2026-08-31 10:37:18 | 50.98498 | 9.00718 | 67° | 55km/h | 16887m | -6.2m/s | -50.2°C | 0% | 0hPa | 4.6V | 00:00:00 | 00:00:00 | 00:00:00 | |
| DL1XH-15 | 2026-08-31 10:37:18 | 50.98482 | 9.00657 | 69° | 55km/h | 16912m | -6.2m/s | 0°C | 0% | 0hPa | 0V | 00:00:00 | 00:00:00 | 00:00:00 | |
| DF8AY | 2026-08-31 10:37:16 | 50.98482 | 9.00657 | 70° | 55km/h | 16906m | -6.4m/s | -50.1°C | 0% | 0hPa | 4.6V | 00:00:00 | 00:00:00 | 00:00:00 | |
| HSKMA3-T | 2026-08-31 10:37:11 | 50.98464 | 9.00557 | 75° | 49km/h | 16938m | -6.4m/s | -49.7°C | 0% | 0hPa | 4.5V | 00:00:00 | 00:00:00 | 00:00:00 | |
| DF8AY | 2026-08-31 10:37:10 | 50.98442 | 9.00448 | 72° | 49km/h | 16976m | -6m/s | -49.3°C | 0% | 0hPa | 4.5V | 00:00:00 | 00:00:00 | 00:00:00 | |
| DO2JMG | 2026-08-31 10:37:09 | 50.98457 | 9.00521 | 73° | 47km/h | 16950m | -6.5m/s | -49.5°C | 0% | 0hPa | 4.6V | 00:00:00 | 00:00:00 | 00:00:00 | |
| DL1XH-15 | 2026-08-31 10:37:07 | 50.98435 | 9.00411 | 72° | 49km/h | 16999m | -5.9m/s | 0°C | 0% | 0hPa | 0V | 00:00:00 | 00:00:00 | 00:00:00 | |
| GOEST3-10 | 2026-08-31 10:37:06 | 50.98450 | 9.00485 | 73° | 47km/h | 16970m | -6.1m/s | 0°C | 0% | 0hPa | 4.5V | 00:00:00 | 00:00:00 | 00:00:00 | |
| DK7TD | 2026-08-31 10:37:03 | 50.98435 | 9.00411 | 73° | 49km/h | 16987m | -5.8m/s | -49.4°C | 0% | 0hPa | 4.5V | 00:00:00 | 00:00:00 | 00:00:00 | |
| GOEST3-10 | 2026-08-31 10:37:01 | 50.98431 | 9.00392 | 73° | 47km/h | 17005m | -5.6m/s | 0°C | 0% | 0hPa | 4.5V | 00:00:00 | 00:00:00 | 00:00:00 | |
| HSKMA3-T | 2026-08-31 10:37:00 | 50.98428 | 9.00374 | 72° | 47km/h | 16999m | -5.9m/s | -49.4°C | 0% | 0hPa | 4.5V | 00:00:00 | 00:00:00 | 00:00:00 | |
| DO2JMG | 2026-08-31 10:36:58 | 50.98415 | 9.00323 | 65° | 46km/h | 17017m | -5.7m/s | -49.4°C | 0% | 0hPa | 4.5V | 00:00:00 | 00:00:00 | 00:00:00 | |
| DL1XH-15 | 2026-08-31 10:36:56 | 50.98390 | 9.00225 | 69° | 44km/h | 17054m | -5m/s | 0°C | 0% | 0hPa | 0V | 00:00:00 | 00:00:00 | 00:00:00 | |
| GOEST3-10 | 2026-08-31 10:36:56 | 50.98410 | 9.00306 | 67° | 44km/h | 17028m | -5.3m/s | 0°C | 0% | 0hPa | 4.5V | 00:00:00 | 00:00:00 | 00:00:00 | |
| DF5WG-10 | 2026-08-31 10:36:55 | 50.98405 | 9.00290 | 67° | 44km/h | 17034m | -5.9m/s | 0°C | 0% | 0hPa | 4.5V | 00:00:00 | 00:00:00 | 00:00:00 | |
| DF8AY | 2026-08-31 10:36:54 | 50.98397 | 9.00257 | 70° | 42km/h | 17040m | -5.4m/s | -49.2°C | 0% | 0hPa | 4.5V | 00:00:00 | 00:00:00 | 00:00:00 | |
| HSKMA3-T | 2026-08-31 10:36:51 | 50.98381 | 9.00193 | 64° | 46km/h | 17059m | -4.6m/s | -49.2°C | 0% | 0hPa | 4.5V | 00:00:00 | 00:00:00 | 00:00:00 | |
| DJTTGO | 2026-08-31 10:36:50 | 50.98365 | 9.00149 | 56° | 40km/h | 17073m | -4.3m/s | -49.1°C | 0% | 0hPa | 4.6V | 00:00:00 | 00:00:00 | 00:00:00 | |
| DO2JMG | 2026-08-31 10:36:50 | 50.98371 | 9.00162 | 58° | 42km/h | 17069m | -4.6m/s | -49.1°C | 0% | 0hPa | 4.6V | 00:00:00 | 00:00:00 | 00:00:00 | |
| DK7TD | 2026-08-31 10:36:48 | 50.98354 | 9.00124 | 56° | 37km/h | 17082m | -4.6m/s | -49.1°C | 0% | 0hPa | 4.6V | 00:00:00 | 00:00:00 | 00:00:00 | |
| GOEST3-10 | 2026-08-31 10:36:48 | 50.98360 | 9.00136 | 57° | 37km/h | 17082m | -4.5m/s | 0°C | 0% | 0hPa | 4.6V | 00:00:00 | 00:00:00 | 00:00:00 | |
| DF8AY | 2026-08-31 10:36:46 | 50.98345 | 9.00100 | 61° | 37km/h | 17092m | -4.7m/s | -49.2°C | 0% | 0hPa | 4.6V | 00:00:00 | 00:00:00 | 00:00:00 | |
| GOEST3-10 | 2026-08-31 10:36:40 | 50.98336 | 9.00074 | 63° | 37km/h | 17111m | -4.8m/s | 0°C | 0% | 0hPa | 4.6V | 00:00:00 | 00:00:00 | 00:00:00 | |
| HSKMA3-T | 2026-08-31 10:36:39 | 50.98327 | 9.00049 | 56° | 37km/h | 17111m | -4.9m/s | -49.2°C | 0% | 0hPa | 4.6V | 00:00:00 | 00:00:00 | 00:00:00 | |
| DO2JMG | 2026-08-31 10:36:37 | 50.98316 | 9.00025 | 50° | 37km/h | 17122m | -5.3m/s | -49.3°C | 0% | 0hPa | 4.6V | 00:00:00 | 00:00:00 | 00:00:00 | |
| DF5WG-10 | 2026-08-31 10:36:35 | 50.98310 | 9.00015 | 49° | 31km/h | 17131m | -4.6m/s | 0°C | 0% | 0hPa | 4.6V | 00:00:00 | 00:00:00 | 00:00:00 | |
| DF8AY | 2026-08-31 10:36:33 | 50.98294 | 8.99985 | 48° | 31km/h | 17140m | -4.6m/s | -49.3°C | 0% | 0hPa | 4.6V | 00:00:00 | 00:00:00 | 00:00:00 | |
| GOEST3-10 | 2026-08-31 10:36:30 | 50.98283 | 8.99965 | 52° | 31km/h | 17165m | -5.0m/s | 0°C | 0% | 0hPa | 4.6V | 00:00:00 | 00:00:00 | 00:00:00 | |
| DK7TD | 2026-08-31 10:36:28 | 50.98273 | 8.99946 | 50° | 31km/h | 17160m | -4.9m/s | -49.4°C | 0% | 0hPa | 4.6V | 00:00:00 | 00:00:00 | 00:00:00 | |
| DL1NUX | 2026-08-31 10:36:28 | 50.98249 | 8.99904 | 44° | 27km/h | 17220m | -5.5m/s | 0°C | 0% | 0hPa | 0V | 00:00:00 | 00:00:00 | 00:00:00 | |
| HSKMA3-T | 2026-08-31 10:36:28 | 50.98268 | 8.99936 | 49° | 29km/h | 17165m | -5.1m/s | -49.2°C | 0% | 0hPa | 4.9V | 00:00:00 | 00:00:00 | 00:00:00 | |
| DL1XH-west | 2026-08-31 10:36:26 | 50.98258 | 8.99919 | 46° | 27km/h | 17175m | -5.6m/s | -49.2°C | 0% | 0hPa | 4.6V | 00:00:00 | 00:00:00 | 00:00:00 | |
| DF5WG-10 | 2026-08-31 10:36:25 | 50.98258 | 8.99919 | 47° | 27km/h | 17181m | -6.1m/s | 0°C | 0% | 0hPa | 4.6V | 00:00:00 | 00:00:00 | 00:00:00 | |
| DF8AY | 2026-08-31 10:36:22 | 50.98239 | 8.99889 | 43° | 27km/h | 17198m | -5.1m/s | -49.3°C | 0% | 0hPa | 4.6V | 00:00:00 | 00:00:00 | 00:00:00 | |
| DL1XH-15 | 2026-08-31 10:36:22 | 50.98218 | 8.99862 | 35° | 26km/h | 17225m | -5.3m/s | 0°C | 0% | 0hPa | 0V | 00:00:00 | 00:00:00 | 00:00:00 | |
| GOEST3-10 | 2026-08-31 10:36:21 | 50.98234 | 8.99882 | 41° | 26km/h | 17215m | -5.4m/s | 0°C | 0% | 0hPa | 0V | 00:00:00 | 00:00:00 | 00:00:00 | |
| DL1NUX | 2026-08-31 10:36:17 | 50.98191 | 8.99833 | 34° | 27km/h | 17252m | -5.6m/s | 0°C | 0% | 0hPa | 0V | 00:00:00 | 00:00:00 | 00:00:00 | |
| DF1GD-15 | 2026-08-31 10:36:16 | 50.98213 | 8.99856 | 36° | 26km/h | 17225m | -5.3m/s | -49.4°C | 0% | 0hPa | 4.6V | 00:00:00 | 00:00:00 | 00:00:00 | |
| DO2JMG | 2026-08-31 10:36:15 | 50.98202 | 8.99845 | 33° | 26km/h | 17236m | -5.4m/s | -49.3°C | 0% | 0hPa | 4.6V | 00:00:00 | 00:00:00 | 00:00:00 | |
| GOEST3-10 | 2026-08-31 10:36:15 | 50.98207 | 8.99851 | 34° | 26km/h | 17236m | -5.3m/s | 0°C | 0% | 0hPa | 4.6V | 00:00:00 | 00:00:00 | 00:00:00 | |
| DF8AY | 2026-08-31 10:36:11 | 50.98181 | 8.99821 | 37° | 26km/h | 17258m | -5.6m/s | -49.4°C | 0% | 0hPa | 4.6V | 00:00:00 | 00:00:00 | 00:00:00 | |
| GOEST3-10 | 2026-08-31 10:36:10 | 50.98180 | 8.99821 | 37° | 26km/h | 17264m | -5.4m/s | 0°C | 0% | 0hPa | 0V | 00:00:00 | 00:00:00 | 00:00:00 | |
| DL1XH-15 | 2026-08-31 10:36:09 | 50.98164 | 8.99803 | 31° | 26km/h | 17281m | -5.5m/s | 0°C | 0% | 0hPa | 0V | 00:00:00 | 00:00:00 | 00:00:00 | |
| DL1CLM-18 | 2026-08-31 10:36:08 | 50.98170 | 8.99809 | 37° | 26km/h | 17270m | -5.5m/s | -49.5°C | 0% | 0hPa | 0V | 00:00:00 | 00:00:00 | 00:00:00 | |
| DL1NUX | 2026-08-31 10:36:07 | 50.98137 | 8.99775 | 34° | 27km/h | 17303m | -5.6m/s | 0°C | 0% | 0hPa | 0V | 00:00:00 | 00:00:00 | 00:00:00 | |
| DO2JMG | 2026-08-31 10:36:05 | 50.98148 | 8.99786 | 32° | 27km/h | 17292m | -5.6m/s | -49.6°C | 0% | 0hPa | 4.6V | 00:00:00 | 00:00:00 | 00:00:00 | |
| BUE01 | 2026-08-31 10:36:02 | 50.98131 | 8.99769 | 33° | 26km/h | 17309m | -5.8m/s | -49.7°C | -1.0% | -1.0hPa | 4.6V | 00:00:00 | 00:00:00 | 00:00:00 | |
| DL1XH-west | 2026-08-31 10:36:01 | 50.98126 | 8.99763 | 36° | 26km/h | 17315m | -5.6m/s | -49.8°C | 0% | 0hPa | 4.6V | 00:00:00 | 00:00:00 | 00:00:00 | |
| DF8AY | 2026-08-31 10:36:00 | 50.98120 | 8.99757 | 36° | 26km/h | 17321m | -5.8m/s | -49.8°C | 0% | 0hPa | 4.6V | 00:00:00 | 00:00:00 | 00:00:00 | |
| GOEST3-10 | 2026-08-31 10:36:00 | 50.98125 | 8.99763 | 36° | 24km/h | 17321m | -5.7m/s | 0°C | 0% | 0hPa | 0V | 00:00:00 | 00:00:00 | 00:00:00 | |
| DL1XH-15 | 2026-08-31 10:35:58 | 50.98111 | 8.99746 | 36° | 24km/h | 17338m | -5.7m/s | 0°C | 0% | 0hPa | 0V | 00:00:00 | 00:00:00 | 00:00:00 | |
| DK7TD | 2026-08-31 10:35:56 | 50.98100 | 8.99736 | 31° | 24km/h | 17343m | -5.5m/s | -49.9°C | 0% | 0hPa | 4.6V | 00:00:00 | 00:00:00 | 00:00:00 | |
| DF5WG-10 | 2026-08-31 10:35:55 | 50.98100 | 8.99736 | 31° | 24km/h | 17350m | -5.5m/s | 0°C | 0% | 0hPa | 4.6V | 00:00:00 | 00:00:00 | 00:00:00 | |
| DO2JMG | 2026-08-31 10:35:54 | 50.98090 | 8.99727 | 26° | 24km/h | 17355m | -5.7m/s | -50°C | 0% | 0hPa | 4.6V | 00:00:00 | 00:00:00 | 00:00:00 | |
| DL1XH-west | 2026-08-31 10:35:51 | 50.98069 | 8.99710 | 28° | 24km/h | 17378m | -5.8m/s | -50.2°C | 0% | 0hPa | 4.6V | 00:00:00 | 00:00:00 | 00:00:00 | |
| GOEST3-10 | 2026-08-31 10:35:51 | 50.98074 | 8.99714 | 27° | 24km/h | 17378m | -5.8m/s | 0°C | 0% | 0hPa | 4.6V | 00:00:00 | 00:00:00 | 00:00:00 | |
| DL1XH-15 | 2026-08-31 10:35:50 | 50.98059 | 8.99701 | 27° | 24km/h | 17395m | -5.7m/s | 0°C | 0% | 0hPa | 0V | 00:00:00 | 00:00:00 | 00:00:00 | |
| HSKMA3-T | 2026-08-31 10:35:47 | 50.98053 | 8.99697 | 28° | 24km/h | 17396m | -5.7m/s | -50.3°C | 0% | 0hPa | 4.6V | 00:00:00 | 00:00:00 | 00:00:00 | |
| DF5WG-10 | 2026-08-31 10:35:45 | 50.98048 | 8.99693 | 28° | 22km/h | 17407m | -5.5m/s | 0°C | 0% | 0hPa | 4.6V | 00:00:00 | 00:00:00 | 00:00:00 | |
| DO2JMG | 2026-08-31 10:35:43 | 50.98032 | 8.99681 | 24° | 22km/h | 17418m | -5.4m/s | -50.5°C | 0% | 0hPa | 4.6V | 00:00:00 | 00:00:00 | 00:00:00 | |
| DK7TD | 2026-08-31 10:35:43 | 50.98027 | 8.99677 | 25° | 22km/h | 17424m | -5.5m/s | -50.5°C | 0% | 0hPa | 4.6V | 00:00:00 | 00:00:00 | 00:00:00 | |
| DL8DAS-15 | 2026-08-31 10:35:42 | 50.98032 | 8.99681 | 25° | 22km/h | 17418m | -5.4m/s | -50.5°C | 0% | 0hPa | 4.6V | 00:00:00 | 00:00:00 | 00:00:00 | |
| GOEST3-10 | 2026-08-31 10:35:40 | 50.98022 | 8.99674 | 23° | 24km/h | 17435m | -5.3m/s | 0°C | 0% | 0hPa | 4.6V | 00:00:00 | 00:00:00 | 00:00:00 | |
| DL1XH-west | 2026-08-31 10:35:39 | 50.98011 | 8.99667 | 23° | 24km/h | 17440m | -5.3m/s | -50.7°C | 0% | 0hPa | 4.6V | 00:00:00 | 00:00:00 | 00:00:00 | |
| HSKMA3-T | 2026-08-31 10:35:36 | 50.98000 | 8.99659 | 26° | 24km/h | 17451m | -5.5m/s | -50.8°C | 0% | 0hPa | 4.6V | 00:00:00 | 00:00:00 | 00:00:00 | |
| DF1GD-15 | 2026-08-31 10:35:34 | 50.97989 | 8.99651 | 26° | 24km/h | 17463m | -5.5m/s | -50.9°C | 0% | 0hPa | 4.6V | 00:00:00 | 00:00:00 | 00:00:00 | |
| DD1CC2-15 | 2026-08-31 10:35:33 | 50.97983 | 8.99647 | 26° | 26km/h | 17468m | -5.8m/s | -44.5°C | 0% | 0hPa | 4.6V | 00:00:00 | 00:00:00 | 00:00:00 | |
| DO2JMG | 2026-08-31 10:35:32 | 50.97972 | 8.99639 | 25° | 24km/h | 17480m | -5.8m/s | -51°C | 0% | 0hPa | 4.6V | 00:00:00 | 00:00:00 | 00:00:00 | |
| GOEST3-10 | 2026-08-31 10:35:30 | 50.97966 | 8.99634 | 24° | 26km/h | 17498m | -5.8m/s | 0°C | 0% | 0hPa | 4.6V | 00:00:00 | 00:00:00 | 00:00:00 | |
| DF8AY | 2026-08-31 10:35:28 | 50.97948 | 8.99622 | 22° | 26km/h | 17503m | -5.8m/s | -51.3°C | 0% | 0hPa | 4.6V | 00:00:00 | 00:00:00 | 00:00:00 | |
| DL1XH-15 | 2026-08-31 10:35:27 | 50.97948 | 8.99622 | 21° | 26km/h | 17509m | -5.9m/s | 0°C | 0% | 0hPa | 0V | 00:00:00 | 00:00:00 | 00:00:00 | |
| DL1XH-west | 2026-08-31 10:35:26 | 50.97942 | 8.99618 | 23° | 26km/h | 17509m | -5.9m/s | -51.3°C | 0% | 0hPa | 4.6V | 00:00:00 | 00:00:00 | 00:00:00 | |
| HSKMA3-T | 2026-08-31 10:35:26 | 50.97936 | 8.99614 | 21° | 27km/h | 17515m | -5.9m/s | -51.4°C | 0% | 0hPa | 4.6V | 00:00:00 | 00:00:00 | 00:00:00 | |
| DF5WG-10 | 2026-08-31 10:35:25 | 50.97936 | 8.99614 | 22° | 27km/h | 17521m | -5.8m/s | 0°C | 0% | 0hPa | 4.6V | 00:00:00 | 00:00:00 | 00:00:00 | |
| DM7RM-13 | 2026-08-31 10:35:24 | 50.97930 | 8.99610 | 21° | 26km/h | 17521m | -5.8m/s | -45.0°C | 0% | 0hPa | 4.6V | 00:00:00 | 00:00:00 | 00:00:00 | |
| DO2JMG | 2026-08-31 10:35:21 | 50.97905 | 8.99596 | 20° | 27km/h | 17545m | -6m/s | -51.6°C | 0% | 0hPa | 4.6V | 00:00:00 | 00:00:00 | 00:00:00 | |
| GOEST3-10 | 2026-08-31 10:35:20 | 50.97905 | 8.99596 | 21° | 27km/h | 17551m | -5.8m/s | 0°C | 0% | 0hPa | 0V | 00:00:00 | 00:00:00 | 00:00:00 | |
| DL1XH-15 | 2026-08-31 10:35:17 | 50.97886 | 8.99585 | 19° | 27km/h | 17569m | -6.1m/s | 0°C | 0% | 0hPa | 0V | 00:00:00 | 00:00:00 | 00:00:00 | |
| DF8AY | 2026-08-31 10:35:17 | 50.97879 | 8.99581 | 19° | 27km/h | 17569m | -6.1m/s | -51.8°C | 0% | 0hPa | 4.6V | 00:00:00 | 00:00:00 | 00:00:00 | |
| DK7TD | 2026-08-31 10:35:16 | 50.97872 | 8.99578 | 21° | 27km/h | 17575m | -6m/s | -51.8°C | 0% | 0hPa | 4.6V | 00:00:00 | 00:00:00 | 00:00:00 | |
| HSKMA3-T | 2026-08-31 10:35:15 | 50.97866 | 8.99574 | 20° | 27km/h | 17581m | -6.1m/s | -51.9°C | 0% | 0hPa | 4.6V | 00:00:00 | 00:00:00 | 00:00:00 | |
| DF1GD-15 | 2026-08-31 10:35:14 | 50.97866 | 8.99574 | 21° | 27km/h | 17588m | -5.8m/s | -51.9°C | 0% | 0hPa | 4.6V | 00:00:00 | 00:00:00 | 00:00:00 | |
| DL1XH-west | 2026-08-31 10:35:13 | 50.97853 | 8.99566 | 23° | 27km/h | 17593m | -6m/s | -52°C | 0% | 0hPa | 4.6V | 00:00:00 | 00:00:00 | 00:00:00 | |
| DL1XH-15 | 2026-08-31 10:35:12 | 50.97823 | 8.99546 | 20° | 26km/h | 17629m | -6m/s | 0°C | 0% | 0hPa | 0V | 00:00:00 | 00:00:00 | 00:00:00 | |
| DO2JMG | 2026-08-31 10:35:10 | 50.97841 | 8.99558 | 23° | 26km/h | 17605m | -5.8m/s | -52.1°C | 0% | 0hPa | 4.6V | 00:00:00 | 00:00:00 | 00:00:00 | |
| GOEST3-10 | 2026-08-31 10:35:10 | 50.97841 | 8.99558 | 24° | 26km/h | 17611m | -5.7m/s | 0°C | 0% | 0hPa | 4.6V | 00:00:00 | 00:00:00 | 00:00:00 | |
| DF8AY | 2026-08-31 10:35:06 | 50.97811 | 8.99540 | 20° | 27km/h | 17635m | -5.9m/s | -52.3°C | 0% | 0hPa | 4.6V | 00:00:00 | 00:00:00 | 00:00:00 | |
| DB0NH | 2026-08-31 10:35:05 | 50.97811 | 8.99540 | 21° | 26km/h | 17666m | -5.8m/s | 0°C | 0% | 0hPa | 4.6V | 00:00:00 | 00:00:00 | 00:00:00 | |
| HSKMA3-T | 2026-08-31 10:35:04 | 50.97798 | 8.99532 | 22° | 27km/h | 17647m | -5.8m/s | -52.4°C | 0% | 0hPa | 4.6V | 00:00:00 | 00:00:00 | 00:00:00 | |
| DL1XH-west | 2026-08-31 10:35:01 | 50.97785 | 8.99523 | 25° | 27km/h | 17659m | -6m/s | -52.5°C | 0% | 0hPa | 4.6V | 00:00:00 | 00:00:00 | 00:00:00 | |
| DJTTGO | 2026-08-31 10:35:01 | 50.97786 | 8.99523 | 26° | 27km/h | 17660m | -6.0m/s | -52.5°C | 0% | 0hPa | 4.6V | 00:00:00 | 00:00:00 | 00:00:00 | |
| DO2JMG | 2026-08-31 10:35:00 | 50.97773 | 8.99513 | 27° | 27km/h | 17671m | -6.1m/s | -52.6°C | 0% | 0hPa | 4.6V | 00:00:00 | 00:00:00 | 00:00:00 | |
| DK7TD | 2026-08-31 10:34:58 | 50.97762 | 8.99504 | 28° | 26km/h | 17684m | -6.2m/s | -52.6°C | 0% | 0hPa | 4.6V | 00:00:00 | 00:00:00 | 00:00:00 | |
| DL1XH-15 | 2026-08-31 10:34:57 | 50.97762 | 8.99504 | 27° | 26km/h | 17690m | -6.1m/s | 0°C | 0% | 0hPa | 0V | 00:00:00 | 00:00:00 | 00:00:00 | |
| DF8AY | 2026-08-31 10:34:56 | 50.97750 | 8.99495 | 23° | 26km/h | 17696m | -6m/s | -52.6°C | 0% | 0hPa | 4.6V | 00:00:00 | 00:00:00 | 00:00:00 | |
| DO3DL | 2026-08-31 10:34:55 | 50.97737 | 8.99486 | 22° | 27km/h | 17708m | -6.1m/s | -52.5°C | 0% | 0hPa | 4.6V | 00:00:00 | 00:00:00 | 00:00:00 | |
| HSKMA3-T | 2026-08-31 10:34:53 | 50.97730 | 8.99482 | 23° | 29km/h | 17714m | -6.1m/s | -52.4°C | 0% | 0hPa | 4.6V | 00:00:00 | 00:00:00 | 00:00:00 | |
| DL1XH-west | 2026-08-31 10:34:51 | 50.97715 | 8.99472 | 25° | 33km/h | 17726m | -6.1m/s | -52.3°C | 0% | 0hPa | 4.6V | 00:00:00 | 00:00:00 | 00:00:00 | |
| GOEST3-10 | 2026-08-31 10:34:50 | 50.97715 | 8.99472 | 26° | 35km/h | 17733m | -5.9m/s | 0°C | 0% | 0hPa | 4.6V | 00:00:00 | 00:00:00 | 00:00:00 | |
| AA1-15 | 2026-08-31 10:34:49 | 50.97708 | 8.99466 | 28° | 35km/h | 17732m | -5.9m/s | -52.3°C | 0% | 0hPa | 4.6V | 00:00:00 | 00:00:00 | 00:00:00 | |
| DL1XH-15 | 2026-08-31 10:34:47 | 50.97692 | 8.99452 | 29° | 37km/h | 17751m | -6.1m/s | 0°C | 0% | 0hPa | 0V | 00:00:00 | 00:00:00 | 00:00:00 | |
| DF8AY | 2026-08-31 10:34:45 | 50.97668 | 8.99431 | 30° | 35km/h | 17763m | -6.1m/s | -52°C | 0% | 0hPa | 4.6V | 00:00:00 | 00:00:00 | 00:00:00 | |
| HSKMA3-T | 2026-08-31 10:34:43 | 50.97653 | 8.99418 | 28° | 33km/h | 17776m | -6m/s | -51.8°C | 0% | 0hPa | 4.6V | 00:00:00 | 00:00:00 | 00:00:00 | |
| DL1XH-15 | 2026-08-31 10:34:42 | 50.97617 | 8.99388 | 27° | 31km/h | 17813m | -6m/s | 0°C | 0% | 0hPa | 0V | 00:00:00 | 00:00:00 | 00:00:00 | |
| DM7RM-13 | 2026-08-31 10:34:41 | 50.97645 | 8.99412 | 29° | 33km/h | 17782m | -6.3m/s | -45.3°C | 0% | 0hPa | 4.6V | 00:00:00 | 00:00:00 | 00:00:00 | |
| DO3DL | 2026-08-31 10:34:40 | 50.97638 | 8.99406 | 27° | 33km/h | 17788m | -6.1m/s | -51.5°C | 0% | 0hPa | 4.6V | 00:00:00 | 00:00:00 | 00:00:00 | |
| GOEST3-10 | 2026-08-31 10:34:39 | 50.97631 | 8.99400 | 27° | 31km/h | 17807m | -6.2m/s | 0°C | 0% | 0hPa | 4.6V | 00:00:00 | 00:00:00 | 00:00:00 | |
| DL1XH-west | 2026-08-31 10:34:38 | 50.97616 | 8.99388 | 28° | 31km/h | 17807m | -6.2m/s | -51.4°C | 0% | 0hPa | 4.6V | 00:00:00 | 00:00:00 | 00:00:00 | |
| DJTTGO | 2026-08-31 10:34:37 | 50.97616 | 8.99388 | 29° | 31km/h | 17807m | -6.2m/s | -51.4°C | 0% | 0hPa | 4.6V | 00:00:00 | 00:00:00 | 00:00:00 | |
| DF8AY | 2026-08-31 10:34:34 | 50.97590 | 8.99363 | 35° | 29km/h | 17831m | -6m/s | -51.5°C | 0% | 0hPa | 4.6V | 00:00:00 | 00:00:00 | 00:00:00 | |
| DF5WG-10 | 2026-08-31 10:34:34 | 50.97596 | 8.99370 | 35° | 27km/h | 17831m | -5.9m/s | 0°C | 0% | 0hPa | 4.6V | 00:00:00 | 00:00:00 | 00:00:00 | |
| HSKMA3-T | 2026-08-31 10:34:32 | 50.97579 | 8.99351 | 35° | 27km/h | 17844m | -6.2m/s | -51.5°C | 0% | 0hPa | 4.6V | 00:00:00 | 00:00:00 | 00:00:00 | |
| DK7TD | 2026-08-31 10:34:30 | 50.97567 | 8.99339 | 32° | 27km/h | 17856m | -6m/s | -51.5°C | 0% | 0hPa | 4.6V | 00:00:00 | 00:00:00 | 00:00:00 | |
| DF1GD-15 | 2026-08-31 10:34:30 | 50.97567 | 8.99338 | 33° | 27km/h | 17856m | -6.0m/s | -51.5°C | 0% | 0hPa | 4.6V | 00:00:00 | 00:00:00 | 00:00:00 | |
| GOEST3-10 | 2026-08-31 10:34:29 | 50.97567 | 8.99338 | 32° | 27km/h | 17862m | -6.2m/s | 0°C | 0% | 0hPa | 4.6V | 00:00:00 | 00:00:00 | 00:00:00 | |
| DL1XH-west | 2026-08-31 10:34:27 | 50.97555 | 8.99326 | 33° | 27km/h | 17869m | -6.3m/s | -51.5°C | 0% | 0hPa | 4.6V | 00:00:00 | 00:00:00 | 00:00:00 | |
| DL1XH-15 | 2026-08-31 10:34:27 | 50.97555 | 8.99326 | 33° | 27km/h | 17949m | -6m/s | 0°C | 0% | 0hPa | 0V | 00:00:00 | 00:00:00 | 00:00:00 | |
| DB0NH | 2026-08-31 10:34:25 | 50.97544 | 8.99314 | 43° | 26km/h | 17893m | -6.1m/s | 0°C | 0% | 0hPa | 4.6V | 00:00:00 | 00:00:00 | 00:00:00 | |
| DF5WG-10 | 2026-08-31 10:34:24 | 50.97539 | 8.99308 | 39° | 24km/h | 17893m | -6.1m/s | 0°C | 0% | 0hPa | 4.6V | 00:00:00 | 00:00:00 | 00:00:00 | |
| GOEST3-10 | 2026-08-31 10:34:23 | 50.97534 | 8.99301 | 41° | 24km/h | 17899m | -6.2m/s | 0°C | 0% | 0hPa | 4.6V | 00:00:00 | 00:00:00 | 00:00:00 | |
| DF8AY | 2026-08-31 10:34:23 | 50.97530 | 8.99295 | 41° | 24km/h | 17899m | -6.2m/s | -51.7°C | 0% | 0hPa | 4.6V | 00:00:00 | 00:00:00 | 00:00:00 | |
| HSKMA3-T | 2026-08-31 10:34:21 | 50.97521 | 8.99283 | 42° | 24km/h | 17912m | -6.2m/s | -51.8°C | 0% | 0hPa | 4.6V | 00:00:00 | 00:00:00 | 00:00:00 | |
| GOEST3-10 | 2026-08-31 10:34:18 | 50.97511 | 8.99270 | 42° | 26km/h | 17931m | -6.1m/s | 0°C | 0% | 0hPa | 0V | 00:00:00 | 00:00:00 | 00:00:00 | |
| DL1XH-15 | 2026-08-31 10:34:17 | 50.97493 | 8.99242 | 43° | 26km/h | 17955m | -5.9m/s | 0°C | 0% | 0hPa | 0V | 00:00:00 | 00:00:00 | 00:00:00 | |
| DO2JMG | 2026-08-31 10:34:17 | 50.97502 | 8.99256 | 42° | 26km/h | 17937m | -6.2m/s | -52°C | 0% | 0hPa | 4.6V | 00:00:00 | 00:00:00 | 00:00:00 | |
| DK7TD | 2026-08-31 10:34:15 | 50.97493 | 8.99242 | 44° | 26km/h | 17949m | -6.1m/s | -52°C | 0% | 0hPa | 4.6V | 00:00:00 | 00:00:00 | 00:00:00 | |
| DF5WG-10 | 2026-08-31 10:34:14 | 50.97493 | 8.99242 | 44° | 24km/h | 17956m | -5.9m/s | 0°C | 0% | 0hPa | 4.6V | 00:00:00 | 00:00:00 | 00:00:00 | |
| DF8AY | 2026-08-31 10:34:13 | 50.97484 | 8.99229 | 43° | 24km/h | 17962m | -5.9m/s | -52.1°C | 0% | 0hPa | 4.6V | 00:00:00 | 00:00:00 | 00:00:00 | |
| DD1CC2-15 | 2026-08-31 10:34:11 | 50.97479 | 8.99223 | 42° | 24km/h | 17968m | -6.0m/s | -45.8°C | 0% | 0hPa | 4.6V | 00:00:00 | 00:00:00 | 00:00:00 | |
| HSKMA3-T | 2026-08-31 10:34:10 | 50.97470 | 8.99210 | 44° | 24km/h | 17980m | -6.1m/s | -52.3°C | 0% | 0hPa | 4.6V | 00:00:00 | 00:00:00 | 00:00:00 | |
| GOEST3-10 | 2026-08-31 10:34:08 | 50.97465 | 8.99203 | 45° | 26km/h | 17986m | -6.0m/s | 0°C | 0% | 0hPa | 4.6V | 00:00:00 | 00:00:00 | 00:00:00 | |
| DO2JMG | 2026-08-31 10:34:05 | 50.97454 | 8.99180 | 56° | 26km/h | 18004m | -6.2m/s | -52.3°C | 0% | 0hPa | 4.6V | 00:00:00 | 00:00:00 | 00:00:00 | |
| DF5WG-10 | 2026-08-31 10:34:04 | 50.97450 | 8.99172 | 61° | 27km/h | 18016m | -6.1m/s | 0°C | 0% | 0hPa | 4.6V | 00:00:00 | 00:00:00 | 00:00:00 | |
| DF8AY | 2026-08-31 10:34:03 | 50.97440 | 8.99143 | 61° | 29km/h | 18028m | -5.8m/s | -52.1°C | 0% | 0hPa | 4.6V | 00:00:00 | 00:00:00 | 00:00:00 | |
| GOEST3-10 | 2026-08-31 10:34:02 | 50.97443 | 8.99153 | 61° | 27km/h | 18028m | -5.8m/s | 0°C | 0% | 0hPa | 4.6V | 00:00:00 | 00:00:00 | 00:00:00 | |
| HSKMA3-T | 2026-08-31 10:34:00 | 50.97433 | 8.99125 | 56° | 27km/h | 18040m | -5.8m/s | -52°C | 0% | 0hPa | 4.6V | 00:00:00 | 00:00:00 | 00:00:00 | |
| DL1XH-15 | 2026-08-31 10:33:57 | 50.97411 | 8.99087 | 40° | 26km/h | 18076m | -5.8m/s | 0°C | 0% | 0hPa | 0V | 00:00:00 | 00:00:00 | 00:00:00 | |
| GOEST3-10 | 2026-08-31 10:33:57 | 50.97425 | 8.99108 | 42° | 27km/h | 18058m | -5.7m/s | 0°C | 0% | 0hPa | 4.6V | 00:00:00 | 00:00:00 | 00:00:00 | |
| DO2JMG | 2026-08-31 10:33:55 | 50.97411 | 8.99087 | 41° | 26km/h | 18069m | -5.8m/s | -51.9°C | 0% | 0hPa | 4.6V | 00:00:00 | 00:00:00 | 00:00:00 | |
| DF5WG-10 | 2026-08-31 10:33:54 | 50.97410 | 8.99087 | 41° | 29km/h | 18076m | -5.8m/s | 0°C | 0% | 0hPa | 4.6V | 00:00:00 | 00:00:00 | 00:00:00 | |
| DF8AY | 2026-08-31 10:33:51 | 50.97388 | 8.99057 | 43° | 31km/h | 18093m | -5.7m/s | -51.5°C | 0% | 0hPa | 4.6V | 00:00:00 | 00:00:00 | 00:00:00 | |
| GOEST3-10 | 2026-08-31 10:33:51 | 50.97394 | 8.99064 | 43° | 29km/h | 18094m | -5.6m/s | 0°C | 0% | 0hPa | 4.6V | 00:00:00 | 00:00:00 | 00:00:00 | |
| HSKMA3-T | 2026-08-31 10:33:49 | 50.97377 | 8.99040 | 43° | 29km/h | 18105m | -5.9m/s | -51.4°C | 0% | 0hPa | 4.6V | 00:00:00 | 00:00:00 | 00:00:00 | |
| DL1XH-15 | 2026-08-31 10:33:47 | 50.97354 | 8.99015 | 26° | 29km/h | 18134m | -5.8m/s | 0°C | 0% | 0hPa | 0V | 00:00:00 | 00:00:00 | 00:00:00 | |
| GOEST3-10 | 2026-08-31 10:33:46 | 50.97366 | 8.99026 | 35° | 29km/h | 18123m | -5.5m/s | 0°C | 0% | 0hPa | 4.6V | 00:00:00 | 00:00:00 | 00:00:00 | |
| DL1XH-west | 2026-08-31 10:33:45 | 50.97354 | 8.99015 | 26° | 29km/h | 18129m | -5.6m/s | -51.5°C | 0% | 0hPa | 4.6V | 00:00:00 | 00:00:00 | 00:00:00 | |
| DF5WG-10 | 2026-08-31 10:33:44 | 50.97353 | 8.99015 | 27° | 29km/h | 18134m | -5.7m/s | 0°C | 0% | 0hPa | 4.6V | 00:00:00 | 00:00:00 | 00:00:00 | |
| DJTTGO | 2026-08-31 10:33:41 | 50.97333 | 8.98999 | 28° | 31km/h | 18146m | -6.0m/s | -51.4°C | 0% | 0hPa | 4.6V | 00:00:00 | 00:00:00 | 00:00:00 | |
| DF8AY | 2026-08-31 10:33:40 | 50.97320 | 8.98987 | 29° | 31km/h | 18158m | -6m/s | -51.4°C | 0% | 0hPa | 4.6V | 00:00:00 | 00:00:00 | 00:00:00 | |
| DM7RM-13 | 2026-08-31 10:33:39 | 50.97320 | 8.98987 | 30° | 31km/h | 18158m | -6.0m/s | -45.0°C | 0% | 0hPa | 4.6V | 00:00:00 | 00:00:00 | 00:00:00 | |
| HSKMA3-T | 2026-08-31 10:33:38 | 50.97306 | 8.98975 | 30° | 31km/h | 18170m | -6.3m/s | -51.3°C | 0% | 0hPa | 4.6V | 00:00:00 | 00:00:00 | 00:00:00 | |
| DL1XH-15 | 2026-08-31 10:33:37 | 50.97286 | 8.98959 | 18° | 31km/h | 18195m | -6.1m/s | 0°C | 0% | 0hPa | 0V | 00:00:00 | 00:00:00 | 00:00:00 | |
| GOEST3-10 | 2026-08-31 10:33:35 | 50.97293 | 8.98964 | 26° | 31km/h | 18189m | -6.1m/s | 0°C | 0% | 0hPa | 4.6V | 00:00:00 | 00:00:00 | 00:00:00 | |
| DL1XH-west | 2026-08-31 10:33:34 | 50.97279 | 8.98955 | 19° | 31km/h | 18195m | -6.1m/s | -51.5°C | 0% | 0hPa | 4.6V | 00:00:00 | 00:00:00 | 00:00:00 | |
| DK7TD | 2026-08-31 10:33:30 | 50.97247 | 8.98942 | 15° | 35km/h | 18219m | -5.9m/s | -51.7°C | 0% | 0hPa | 4.6V | 00:00:00 | 00:00:00 | 00:00:00 | |
| GOEST3-10 | 2026-08-31 10:33:30 | 50.97256 | 8.98945 | 14° | 35km/h | 18219m | -5.8m/s | 0°C | 0% | 0hPa | 4.6V | 00:00:00 | 00:00:00 | 00:00:00 | |
| DF8AY | 2026-08-31 10:33:29 | 50.97239 | 8.98938 | 14° | 35km/h | 18225m | -6.1m/s | -51.7°C | 0% | 0hPa | 4.6V | 00:00:00 | 00:00:00 | 00:00:00 | |
| DL1XH-15 | 2026-08-31 10:33:27 | 50.97206 | 8.98921 | 21° | 33km/h | 18261m | -6.1m/s | 0°C | 0% | 0hPa | 0V | 00:00:00 | 00:00:00 | 00:00:00 | |
| HSKMA3-T | 2026-08-31 10:33:27 | 50.97222 | 8.98930 | 18° | 35km/h | 18237m | -5.9m/s | -51.7°C | 0% | 0hPa | 4.6V | 00:00:00 | 00:00:00 | 00:00:00 | |
| GOEST3-10 | 2026-08-31 10:33:25 | 50.97214 | 8.98925 | 21° | 33km/h | 18249m | -6.1m/s | 0°C | 0% | 0hPa | 4.6V | 00:00:00 | 00:00:00 | 00:00:00 | |
| AA1-15 | 2026-08-31 10:33:23 | 50.97198 | 8.98917 | 21° | 33km/h | 18255m | -6.1m/s | -51.8°C | 0% | 0hPa | 4.6V | 00:00:00 | 00:00:00 | 00:00:00 | |
| DL1XH-west | 2026-08-31 10:33:22 | 50.97191 | 8.98912 | 21° | 31km/h | 18261m | -6.1m/s | -51.8°C | 0% | 0hPa | 4.6V | 00:00:00 | 00:00:00 | 00:00:00 | |
| DF8AY | 2026-08-31 10:33:19 | 50.97160 | 8.98894 | 20° | 35km/h | 18286m | -6.1m/s | -51.9°C | 0% | 0hPa | 4.6V | 00:00:00 | 00:00:00 | 00:00:00 | |
| DM7RM-13 | 2026-08-31 10:33:19 | 50.97160 | 8.98894 | 21° | 35km/h | 18286m | -6.1m/s | -45.6°C | 0% | 0hPa | 0V | 00:00:00 | 00:00:00 | 00:00:00 | |
| DL1XH-15 | 2026-08-31 10:33:17 | 50.97121 | 8.98868 | 27° | 33km/h | 18323m | -6m/s | 0°C | 0% | 0hPa | 0V | 00:00:00 | 00:00:00 | 00:00:00 | |
| HSKMA3-T | 2026-08-31 10:33:17 | 50.97144 | 8.98885 | 22° | 35km/h | 18298m | -6.1m/s | -52°C | 0% | 0hPa | 4.6V | 00:00:00 | 00:00:00 | 00:00:00 | |
| DF5WG-10 | 2026-08-31 10:33:14 | 50.97128 | 8.98873 | 28° | 33km/h | 18317m | -5.7m/s | 0°C | 0% | 0hPa | 4.6V | 00:00:00 | 00:00:00 | 00:00:00 | |
| GOEST3-10 | 2026-08-31 10:33:13 | 50.97121 | 8.98868 | 28° | 31km/h | 18323m | -6.0m/s | 0°C | 0% | 0hPa | 4.6V | 00:00:00 | 00:00:00 | 00:00:00 | |
| DO2JMG | 2026-08-31 10:33:12 | 50.97107 | 8.98856 | 28° | 31km/h | 18329m | -6.2m/s | -52.2°C | 0% | 0hPa | 4.6V | 00:00:00 | 00:00:00 | 00:00:00 | |
| DD1CC2-15 | 2026-08-31 10:33:09 | 50.97093 | 8.98845 | 25° | 31km/h | 18341m | -5.8m/s | -45.9°C | 0% | 0hPa | 4.6V | 00:00:00 | 00:00:00 | 00:00:00 | |
| GOEST3-10 | 2026-08-31 10:33:08 | 50.97086 | 8.98840 | 25° | 37km/h | 18347m | -5.9m/s | 0°C | 0% | 0hPa | 4.6V | 00:00:00 | 00:00:00 | 00:00:00 | |
| DL1XH-west | 2026-08-31 10:33:07 | 50.97078 | 8.98835 | 24° | 35km/h | 18353m | -6m/s | -52.3°C | 0% | 0hPa | 4.6V | 00:00:00 | 00:00:00 | 00:00:00 | |
| DL1XH-15 | 2026-08-31 10:33:07 | 50.97046 | 8.98804 | 39° | 38km/h | 18383m | -6m/s | 0°C | 0% | 0hPa | 0V | 00:00:00 | 00:00:00 | 00:00:00 | |
| HSKMA3-T | 2026-08-31 10:33:06 | 50.97062 | 8.98821 | 32° | 38km/h | 18365m | -6.2m/s | -52.4°C | 0% | 0hPa | 4.6V | 00:00:00 | 00:00:00 | 00:00:00 | |
| DF5WG-10 | 2026-08-31 10:33:05 | 50.97054 | 8.98813 | 35° | 35km/h | 18383m | -6.0m/s | 0°C | 0% | 0hPa | 4.6V | 00:00:00 | 00:00:00 | 00:00:00 | |
| GOEST3-10 | 2026-08-31 10:33:04 | 50.97046 | 8.98804 | 40° | 35km/h | 18383m | -6.0m/s | 0°C | 0% | 0hPa | 4.6V | 00:00:00 | 00:00:00 | 00:00:00 | |
| DO2JMG | 2026-08-31 10:33:02 | 50.97032 | 8.98784 | 43° | 35km/h | 18389m | -6.1m/s | -52.4°C | 0% | 0hPa | 4.6V | 00:00:00 | 00:00:00 | 00:00:00 | |
| DO3DL | 2026-08-31 10:32:59 | 50.97020 | 8.98766 | 41° | 33km/h | 18401m | -6.1m/s | -52.3°C | 0% | 0hPa | 4.6V | 00:00:00 | 00:00:00 | 00:00:00 | |
| GOEST3-10 | 2026-08-31 10:32:58 | 50.97014 | 8.98758 | 38° | 33km/h | 18413m | -5.7m/s | 0°C | 0% | 0hPa | 4.6V | 00:00:00 | 00:00:00 | 00:00:00 | |
| DK7TD | 2026-08-31 10:32:58 | 50.97007 | 8.98750 | 35° | 33km/h | 18413m | -5.7m/s | -52.2°C | 0% | 0hPa | 4.6V | 00:00:00 | 00:00:00 | 00:00:00 | |
| DF8AY | 2026-08-31 10:32:57 | 50.97000 | 8.98743 | 32° | 33km/h | 18419m | -5.9m/s | -52.1°C | 0% | 0hPa | 4.6V | 00:00:00 | 00:00:00 | 00:00:00 | |
| HSKMA3-T | 2026-08-31 10:32:55 | 50.96986 | 8.98729 | 31° | 37km/h | 18431m | -5.9m/s | -51.9°C | 0% | 0hPa | 4.6V | 00:00:00 | 00:00:00 | 00:00:00 | |
| DF5WG-10 | 2026-08-31 10:32:54 | 50.96986 | 8.98729 | 32° | 35km/h | 18437m | -5.6m/s | 0°C | 0% | 0hPa | 4.6V | 00:00:00 | 00:00:00 | 00:00:00 | |
| GOEST3-10 | 2026-08-31 10:32:53 | 50.96977 | 8.98721 | 33° | 37km/h | 18443m | -6.0m/s | 0°C | 0% | 0hPa | 4.6V | 00:00:00 | 00:00:00 | 00:00:00 | |
| DJTTGO | 2026-08-31 10:32:52 | 50.96969 | 8.98713 | 34° | 37km/h | 18443m | -6.0m/s | -51.7°C | 0% | 0hPa | 4.6V | 00:00:00 | 00:00:00 | 00:00:00 | |
| DL1XH-west | 2026-08-31 10:32:51 | 50.96954 | 8.98697 | 34° | 37km/h | 18455m | -5.9m/s | -51.5°C | 0% | 0hPa | 4.6V | 00:00:00 | 00:00:00 | 00:00:00 | |
| GOEST3-10 | 2026-08-31 10:32:48 | 50.96939 | 8.98681 | 35° | 35km/h | 18473m | -5.8m/s | 0°C | 0% | 0hPa | 0V | 00:00:00 | 00:00:00 | 00:00:00 | |
| DL1XH-15 | 2026-08-31 10:32:47 | 50.96904 | 8.98644 | 31° | 37km/h | 18503m | -5.8m/s | 0°C | 0% | 0hPa | 0V | 00:00:00 | 00:00:00 | 00:00:00 | |
| DF8AY | 2026-08-31 10:32:46 | 50.96919 | 8.98659 | 33° | 33km/h | 18485m | -6.2m/s | -51.5°C | 0% | 0hPa | 4.6V | 00:00:00 | 00:00:00 | 00:00:00 | |
| HSKMA3-T | 2026-08-31 10:32:44 | 50.96904 | 8.98644 | 32° | 37km/h | 18498m | -5.8m/s | -51.7°C | 0% | 0hPa | 4.6V | 00:00:00 | 00:00:00 | 00:00:00 | |
| DF5WG-10 | 2026-08-31 10:32:44 | 50.96911 | 8.98652 | 32° | 38km/h | 18498m | -5.7m/s | 0°C | 0% | 0hPa | 4.6V | 00:00:00 | 00:00:00 | 00:00:00 | |
| GOEST3-10 | 2026-08-31 10:32:42 | 50.96895 | 8.98636 | 33° | 40km/h | 18510m | -5.8m/s | 0°C | 0% | 0hPa | 4.6V | 00:00:00 | 00:00:00 | 00:00:00 | |
| DO2JMG | 2026-08-31 10:32:40 | 50.96870 | 8.98610 | 34° | 42km/h | 18522m | -6.3m/s | -51.8°C | 0% | 0hPa | 4.6V | 00:00:00 | 00:00:00 | 00:00:00 | |
| DD1CC2-15 | 2026-08-31 10:32:39 | 50.96869 | 8.98610 | 35° | 42km/h | 18522m | -6.3m/s | -45.5°C | 0% | 0hPa | 4.6V | 00:00:00 | 00:00:00 | 00:00:00 | |
| DL1XH-west | 2026-08-31 10:32:38 | 50.96853 | 8.98592 | 34° | 38km/h | 18535m | -6.3m/s | -51.9°C | 0% | 0hPa | 4.6V | 00:00:00 | 00:00:00 | 00:00:00 | |
| DL1XH-15 | 2026-08-31 10:32:38 | 50.96822 | 8.98562 | 30° | 35km/h | 18567m | -6.4m/s | 0°C | 0% | 0hPa | 0V | 00:00:00 | 00:00:00 | 00:00:00 | |
| DF8AY | 2026-08-31 10:32:37 | 50.96837 | 8.98576 | 31° | 37km/h | 18548m | -6.5m/s | -51.9°C | 0% | 0hPa | 4.6V | 00:00:00 | 00:00:00 | 00:00:00 | |
| GOEST3-10 | 2026-08-31 10:32:37 | 50.96853 | 8.98592 | 35° | 37km/h | 18541m | -6.4m/s | 0°C | 0% | 0hPa | 4.6V | 00:00:00 | 00:00:00 | 00:00:00 | |
| DF5WG-10 | 2026-08-31 10:32:34 | 50.96829 | 8.98569 | 32° | 35km/h | 18567m | -6.4m/s | 0°C | 0% | 0hPa | 4.6V | 00:00:00 | 00:00:00 | 00:00:00 | |
| HSKMA3-T | 2026-08-31 10:32:33 | 50.96814 | 8.98554 | 31° | 35km/h | 18567m | -6.4m/s | -51.9°C | 0% | 0hPa | 4.6V | 00:00:00 | 00:00:00 | 00:00:00 | |
| GOEST3-10 | 2026-08-31 10:32:32 | 50.96814 | 8.98554 | 31° | 35km/h | 18573m | -6.1m/s | 0°C | 0% | 0hPa | 0V | 00:00:00 | 00:00:00 | 00:00:00 | |
| DK7TD | 2026-08-31 10:32:31 | 50.96799 | 8.98539 | 34° | 37km/h | 18579m | -6.3m/s | -51.7°C | 0% | 0hPa | 0V | 00:00:00 | 00:00:00 | 00:00:00 | |
| DO2JMG | 2026-08-31 10:32:30 | 50.96784 | 8.98522 | 38° | 35km/h | 18592m | -6.3m/s | -51.6°C | 0% | 0hPa | 4.6V | 00:00:00 | 00:00:00 | 00:00:00 | |
| DJTTGO | 2026-08-31 10:32:28 | 50.96784 | 8.98522 | 39° | 35km/h | 18592m | -6.3m/s | -51.6°C | 0% | 0hPa | 4.6V | 00:00:00 | 00:00:00 | 00:00:00 | |
| GOEST3-10 | 2026-08-31 10:32:27 | 50.96777 | 8.98513 | 38° | 29km/h | 18605m | -5.9m/s | 0°C | 0% | 0hPa | 4.6V | 00:00:00 | 00:00:00 | 00:00:00 | |
| DF8AY | 2026-08-31 10:32:25 | 50.96759 | 8.98493 | 32° | 27km/h | 18617m | -6m/s | -51.4°C | 0% | 0hPa | 4.6V | 00:00:00 | 00:00:00 | 00:00:00 | |
| DF5WG-10 | 2026-08-31 10:32:24 | 50.96758 | 8.98493 | 32° | 27km/h | 18623m | -6.2m/s | 0°C | 0% | 0hPa | 4.6V | 00:00:00 | 00:00:00 | 00:00:00 | |
| HSKMA3-T | 2026-08-31 10:32:22 | 50.96747 | 8.98482 | 27° | 26km/h | 18629m | -6.1m/s | -51.3°C | 0% | 0hPa | 4.6V | 00:00:00 | 00:00:00 | 00:00:00 | |
| GOEST3-10 | 2026-08-31 10:32:22 | 50.96747 | 8.98482 | 27° | 27km/h | 18636m | -6.0m/s | 0°C | 0% | 0hPa | 0V | 00:00:00 | 00:00:00 | 00:00:00 | |
| DK7TD | 2026-08-31 10:32:21 | 50.96735 | 8.98473 | 26° | 27km/h | 18642m | -6.2m/s | 0°C | 0% | 0hPa | 0V | 00:00:00 | 00:00:00 | 00:00:00 | |
| DL1XH-west | 2026-08-31 10:32:18 | 50.96715 | 8.98459 | 24° | 31km/h | 18660m | -6.1m/s | -51°C | 0% | 0hPa | 4.6V | 00:00:00 | 00:00:00 | 00:00:00 | |
| DL1XH-15 | 2026-08-31 10:32:17 | 50.96687 | 8.98442 | 17° | 26km/h | 18711m | -6.3m/s | 0°C | 0% | 0hPa | 0V | 00:00:00 | 00:00:00 | 00:00:00 | |
| GOEST3-10 | 2026-08-31 10:32:17 | 50.96715 | 8.98459 | 25° | 29km/h | 18667m | -6.2m/s | 0°C | 0% | 0hPa | 4.6V | 00:00:00 | 00:00:00 | 00:00:00 | |
| DF8AY | 2026-08-31 10:32:14 | 50.96688 | 8.98442 | 18° | 26km/h | 18685m | -6.2m/s | -51.1°C | 0% | 0hPa | 4.6V | 00:00:00 | 00:00:00 | 00:00:00 | |
| HSKMA3-T | 2026-08-31 10:32:12 | 50.96675 | 8.98436 | 13° | 26km/h | 18698m | -6.2m/s | -51.2°C | 0% | 0hPa | 4.6V | 00:00:00 | 00:00:00 | 00:00:00 | |
| DF1GD-15 | 2026-08-31 10:32:10 | 50.96669 | 8.98434 | 16° | 26km/h | 18705m | -6.2m/s | -51.3°C | 0% | 0hPa | 4.6V | 00:00:00 | 00:00:00 | 00:00:00 | |
| DO2JMG | 2026-08-31 10:32:07 | 50.96649 | 8.98424 | 22° | 29km/h | 18724m | -6.1m/s | -51.4°C | 0% | 0hPa | 4.6V | 00:00:00 | 00:00:00 | 00:00:00 | |
| GOEST3-10 | 2026-08-31 10:32:07 | 50.96649 | 8.98424 | 23° | 31km/h | 18730m | -6.1m/s | 0°C | 0% | 0hPa | 4.6V | 00:00:00 | 00:00:00 | 00:00:00 | |
| DF8AY | 2026-08-31 10:32:04 | 50.96613 | 8.98399 | 24° | 31km/h | 18755m | -6.2m/s | -51.5°C | 0% | 0hPa | 4.6V | 00:00:00 | 00:00:00 | 00:00:00 | |
| HSKMA3-T | 2026-08-31 10:32:03 | 50.96599 | 8.98390 | 20° | 29km/h | 18767m | -5.9m/s | -51.5°C | 0% | 0hPa | 4.6V | 00:00:00 | 00:00:00 | 00:00:00 | |
| DL1XH-west | 2026-08-31 10:32:00 | 50.96592 | 8.98386 | 22° | 29km/h | 18773m | -6.1m/s | -51.5°C | 0% | 0hPa | 4.6V | 00:00:00 | 00:00:00 | 00:00:00 | |
| GOEST3-10 | 2026-08-31 10:31:57 | 50.96578 | 8.98378 | 26° | 31km/h | 18792m | -5.9m/s | 0°C | 0% | 0hPa | 4.6V | 00:00:00 | 00:00:00 | 00:00:00 | |
| DO2JMG | 2026-08-31 10:31:56 | 50.96571 | 8.98373 | 26° | 31km/h | 18792m | -5.9m/s | -51.6°C | 0% | 0hPa | 4.6V | 00:00:00 | 00:00:00 | 00:00:00 | |
| DD1CC2-15 | 2026-08-31 10:31:56 | 50.96571 | 8.98373 | 27° | 31km/h | 18792m | -5.9m/s | -45.2°C | 0% | 0hPa | 4.6V | 00:00:00 | 00:00:00 | 00:00:00 | |
| DF5WG-10 | 2026-08-31 10:31:54 | 50.96557 | 8.98361 | 32° | 33km/h | 18811m | -6.1m/s | 0°C | 0% | 0hPa | 4.6V | 00:00:00 | 00:00:00 | 00:00:00 | |
| DF8AY | 2026-08-31 10:31:53 | 50.96543 | 8.98346 | 33° | 33km/h | 18817m | -6.4m/s | -51.7°C | 0% | 0hPa | 4.6V | 00:00:00 | 00:00:00 | 00:00:00 | |
| GOEST3-10 | 2026-08-31 10:31:52 | 50.96543 | 8.98346 | 34° | 33km/h | 18824m | -6.2m/s | 0°C | 0% | 0hPa | 4.6V | 00:00:00 | 00:00:00 | 00:00:00 | |
| HSKMA3-T | 2026-08-31 10:31:50 | 50.96522 | 8.98324 | 34° | 33km/h | 18836m | -6.2m/s | -51.8°C | 0% | 0hPa | 4.6V | 00:00:00 | 00:00:00 | 00:00:00 | |
| GOEST3-10 | 2026-08-31 10:31:47 | 50.96508 | 8.98310 | 35° | 33km/h | 18855m | -6.0m/s | 0°C | 0% | 0hPa | 4.6V | 00:00:00 | 00:00:00 | 00:00:00 | |
| DO2JMG | 2026-08-31 10:31:45 | 50.96495 | 8.98295 | 36° | 33km/h | 18861m | -6m/s | -51.7°C | 0% | 0hPa | 4.6V | 00:00:00 | 00:00:00 | 00:00:00 | |
| DF5WG-10 | 2026-08-31 10:31:44 | 50.96489 | 8.98287 | 37° | 37km/h | 18868m | -6.3m/s | 0°C | 0% | 0hPa | 4.6V | 00:00:00 | 00:00:00 | 00:00:00 | |
| GOEST3-10 | 2026-08-31 10:31:42 | 50.96474 | 8.98271 | 32° | 37km/h | 18886m | -6.1m/s | 0°C | 0% | 0hPa | 4.6V | 00:00:00 | 00:00:00 | 00:00:00 | |
| DF8AY | 2026-08-31 10:31:42 | 50.96466 | 8.98264 | 31° | 37km/h | 18886m | -6.1m/s | -51.5°C | 0% | 0hPa | 4.6V | 00:00:00 | 00:00:00 | 00:00:00 | |
| HSKMA3-T | 2026-08-31 10:31:40 | 50.96450 | 8.98250 | 27° | 37km/h | 18898m | -6m/s | -51.5°C | 0% | 0hPa | 4.6V | 00:00:00 | 00:00:00 | 00:00:00 | |
| GOEST3-10 | 2026-08-31 10:31:37 | 50.96433 | 8.98236 | 29° | 37km/h | 18917m | -5.9m/s | 0°C | 0% | 0hPa | 4.6V | 00:00:00 | 00:00:00 | 00:00:00 | |
| DM7RM-13 | 2026-08-31 10:31:36 | 50.96424 | 8.98228 | 29° | 37km/h | 18917m | -6.0m/s | -45.1°C | 0% | 0hPa | 4.6V | 00:00:00 | 00:00:00 | 00:00:00 | |
| DO2JMG | 2026-08-31 10:31:35 | 50.96408 | 8.98213 | 31° | 37km/h | 18930m | -6.2m/s | -51.3°C | 0% | 0hPa | 4.6V | 00:00:00 | 00:00:00 | 00:00:00 | |
| DL1XH-15 | 2026-08-31 10:31:35 | 50.96353 | 8.98157 | 31° | 38km/h | 18980m | -6m/s | 0°C | 0% | 0hPa | 0V | 00:00:00 | 00:00:00 | 00:00:00 | |
| GOEST3-10 | 2026-08-31 10:31:32 | 50.96393 | 8.98197 | 36° | 37km/h | 18949m | -6.0m/s | 0°C | 0% | 0hPa | 4.6V | 00:00:00 | 00:00:00 | 00:00:00 | |
| DF8AY | 2026-08-31 10:31:31 | 50.96378 | 8.98181 | 33° | 37km/h | 18955m | -6m/s | -51.3°C | 0% | 0hPa | 4.6V | 00:00:00 | 00:00:00 | 00:00:00 | |
| HSKMA3-T | 2026-08-31 10:31:29 | 50.96362 | 8.98165 | 31° | 38km/h | 18967m | -6.2m/s | -51.4°C | 0% | 0hPa | 4.6V | 00:00:00 | 00:00:00 | 00:00:00 | |
| GOEST3-10 | 2026-08-31 10:31:27 | 50.96353 | 8.98157 | 32° | 38km/h | 18980m | -6.0m/s | 0°C | 0% | 0hPa | 4.6V | 00:00:00 | 00:00:00 | 00:00:00 | |
| DO2JMG | 2026-08-31 10:31:25 | 50.96328 | 8.98132 | 35° | 38km/h | 18993m | -6.2m/s | -51.6°C | 0% | 0hPa | 4.6V | 00:00:00 | 00:00:00 | 00:00:00 | |
| DF5WG-10 | 2026-08-31 10:31:24 | 50.96328 | 8.98132 | 35° | 37km/h | 18999m | -6.0m/s | 0°C | 0% | 0hPa | 0V | 00:00:00 | 00:00:00 | 00:00:00 | |
| DL1XH-15 | 2026-08-31 10:31:22 | 50.96278 | 8.98065 | 41° | 37km/h | 19043m | -6.5m/s | 0°C | 0% | 0hPa | 0V | 00:00:00 | 00:00:00 | 00:00:00 | |
| GOEST3-10 | 2026-08-31 10:31:22 | 50.96313 | 8.98114 | 41° | 37km/h | 19017m | -6.2m/s | 0°C | 0% | 0hPa | 4.6V | 00:00:00 | 00:00:00 | 00:00:00 | |
| DF8AY | 2026-08-31 10:31:20 | 50.96292 | 8.98085 | 42° | 35km/h | 19023m | -6.2m/s | -51.6°C | 0% | 0hPa | 4.6V | 00:00:00 | 00:00:00 | 00:00:00 | |
| HSKMA3-T | 2026-08-31 10:31:18 | 50.96278 | 8.98065 | 41° | 37km/h | 19036m | -6.4m/s | -51.7°C | 0% | 0hPa | 4.6V | 00:00:00 | 00:00:00 | 00:00:00 | |
| GOEST3-10 | 2026-08-31 10:31:17 | 50.96278 | 8.98065 | 42° | 40km/h | 19043m | -6.4m/s | 0°C | 0% | 0hPa | 4.6V | 00:00:00 | 00:00:00 | 00:00:00 | |
| DM7RM-13 | 2026-08-31 10:31:16 | 50.96271 | 8.98055 | 43° | 38km/h | 19043m | -6.5m/s | -45.4°C | 0% | 0hPa | 4.6V | 00:00:00 | 00:00:00 | 00:00:00 | |
| DO2JMG | 2026-08-31 10:31:14 | 50.96248 | 8.98023 | 45° | 42km/h | 19061m | -6.3m/s | -51.8°C | 0% | 0hPa | 4.6V | 00:00:00 | 00:00:00 | 00:00:00 | |
| GOEST3-10 | 2026-08-31 10:31:12 | 50.96240 | 8.98010 | 46° | 42km/h | 19074m | -6.1m/s | 0°C | 0% | 0hPa | 4.6V | 00:00:00 | 00:00:00 | 00:00:00 | |
| DF8AY | 2026-08-31 10:31:09 | 50.96213 | 8.97961 | 53° | 40km/h | 19093m | -6.3m/s | -51.8°C | 0% | 0hPa | 4.6V | 00:00:00 | 00:00:00 | 00:00:00 | |
| DJTTGO | 2026-08-31 10:31:08 | 50.96213 | 8.97960 | 53° | 40km/h | 19093m | -6.3m/s | -51.8°C | 0% | 0hPa | 4.6V | 00:00:00 | 00:00:00 | 00:00:00 | |
| HSKMA3-T | 2026-08-31 10:31:07 | 50.96200 | 8.97934 | 53° | 42km/h | 19106m | -6.5m/s | -51.7°C | 0% | 0hPa | 4.6V | 00:00:00 | 00:00:00 | 00:00:00 | |
| DF5WG-10 | 2026-08-31 10:31:05 | 50.96186 | 8.97907 | 52° | 40km/h | 19132m | -6.2m/s | 0°C | 0% | 0hPa | 4.6V | 00:00:00 | 00:00:00 | 00:00:00 | |
| DO2JMG | 2026-08-31 10:31:02 | 50.96173 | 8.97880 | 50° | 44km/h | 19132m | -6.3m/s | -51.7°C | 0% | 0hPa | 4.6V | 00:00:00 | 00:00:00 | 00:00:00 | |
| GOEST3-10 | 2026-08-31 10:31:02 | 50.96173 | 8.97880 | 50° | 42km/h | 19139m | -6.4m/s | 0°C | 0% | 0hPa | 4.6V | 00:00:00 | 00:00:00 | 00:00:00 | |
| DO2SHX-10 | 2026-08-31 10:31:01 | 50.96161 | 8.97867 | 51° | 40km/h | 19139m | -6.4m/s | 0°C | 0% | 0hPa | 4.6V | 00:00:00 | 00:00:00 | 00:00:00 | |
| DF8AY | 2026-08-31 10:30:59 | 50.96147 | 8.97828 | 56° | 38km/h | 19158m | -6.5m/s | -51.9°C | 0% | 0hPa | 4.6V | 00:00:00 | 00:00:00 | 00:00:00 | |
| DL1XH-15 | 2026-08-31 10:30:57 | 50.96136 | 8.97802 | 60° | 38km/h | 19179m | -6.8m/s | 0°C | 0% | 0hPa | 0V | 00:00:00 | 00:00:00 | 00:00:00 | |
| HSKMA3-T | 2026-08-31 10:30:57 | 50.96137 | 8.97802 | 61° | 38km/h | 19172m | -6.8m/s | -52°C | 0% | 0hPa | 4.6V | 00:00:00 | 00:00:00 | 00:00:00 | |
| DO3DL | 2026-08-31 10:30:55 | 50.96127 | 8.97774 | 63° | 40km/h | 19186m | -7.0m/s | -52.1°C | 0% | 0hPa | 4.6V | 00:00:00 | 00:00:00 | 00:00:00 | |
| DD1CC2-15 | 2026-08-31 10:30:53 | 50.96122 | 8.97760 | 63° | 44km/h | 19193m | -6.8m/s | -45.8°C | 0% | 0hPa | 4.6V | 00:00:00 | 00:00:00 | 00:00:00 | |
| DO2JMG | 2026-08-31 10:30:51 | 50.96111 | 8.97729 | 59° | 44km/h | 19206m | -7m/s | -52.2°C | 0% | 0hPa | 4.6V | 00:00:00 | 00:00:00 | 00:00:00 | |
| GOEST3-10 | 2026-08-31 10:30:51 | 50.96111 | 8.97729 | 60° | 42km/h | 19213m | -7.8m/s | 0°C | 0% | 0hPa | 0V | 00:00:00 | 00:00:00 | 00:00:00 | |
| DL1XH-15 | 2026-08-31 10:30:47 | 50.96084 | 8.97659 | 68° | 38km/h | 19248m | -6.7m/s | 0°C | 0% | 0hPa | 0V | 00:00:00 | 00:00:00 | 00:00:00 | |
| HSKMA3-T | 2026-08-31 10:30:46 | 50.96080 | 8.97644 | 68° | 38km/h | 19248m | -6.7m/s | -52.3°C | 0% | 0hPa | 4.6V | 00:00:00 | 00:00:00 | 00:00:00 | |
| GOEST3-10 | 2026-08-31 10:30:46 | 50.96084 | 8.97659 | 69° | 40km/h | 19248m | -6.6m/s | 0°C | 0% | 0hPa | 4.6V | 00:00:00 | 00:00:00 | 00:00:00 | |
| DJTTGO | 2026-08-31 10:30:43 | 50.96073 | 8.97614 | 75° | 42km/h | 19262m | -7.3m/s | -52.3°C | 0% | 0hPa | 4.6V | 00:00:00 | 00:00:00 | 00:00:00 | |
| DO2JMG | 2026-08-31 10:30:41 | 50.96068 | 8.97582 | 73° | 40km/h | 19275m | -6.7m/s | -52.3°C | 0% | 0hPa | 4.6V | 00:00:00 | 00:00:00 | 00:00:00 | |
| AA1-15 | 2026-08-31 10:30:41 | 50.96064 | 8.97566 | 71° | 40km/h | 19282m | -6.6m/s | -52.3°C | 0% | 0hPa | 4.6V | 00:00:00 | 00:00:00 | 00:00:00 | |
| DL1XH-15 | 2026-08-31 10:30:37 | 50.96048 | 8.97509 | 62° | 37km/h | 19317m | -7.5m/s | 0°C | 0% | 0hPa | 0V | 00:00:00 | 00:00:00 | 00:00:00 | |
| DF8AY | 2026-08-31 10:30:37 | 50.96048 | 8.97509 | 63° | 37km/h | 19310m | -7.4m/s | -52°C | 0% | 0hPa | 4.6V | 00:00:00 | 00:00:00 | 00:00:00 | |
| DO3DL | 2026-08-31 10:30:36 | 50.96040 | 8.97484 | 69° | 33km/h | 19325m | -7.4m/s | -52.0°C | 0% | 0hPa | 4.6V | 00:00:00 | 00:00:00 | 00:00:00 | |
| HSKMA3-T | 2026-08-31 10:30:35 | 50.96040 | 8.97484 | 68° | 33km/h | 19324m | -7.4m/s | -51.8°C | 0% | 0hPa | 4.6V | 00:00:00 | 00:00:00 | 00:00:00 | |
| DL1XH-west | 2026-08-31 10:30:33 | 50.96036 | 8.97459 | 81° | 31km/h | 19338m | -7m/s | -51.8°C | 0% | 0hPa | 4.6V | 00:00:00 | 00:00:00 | 00:00:00 | |
| GOEST3-10 | 2026-08-31 10:30:31 | 50.96034 | 8.97446 | 87° | 33km/h | 19353m | -7.3m/s | 0°C | 0% | 0hPa | 4.6V | 00:00:00 | 00:00:00 | 00:00:00 | |
| DO2JMG | 2026-08-31 10:30:30 | 50.96034 | 8.97434 | 88° | 33km/h | 19353m | -7.3m/s | -51.8°C | 0% | 0hPa | 4.6V | 00:00:00 | 00:00:00 | 00:00:00 | |
| DO3DL | 2026-08-31 10:30:30 | 50.96034 | 8.97421 | 85° | 33km/h | 19360m | -7.6m/s | -51.8°C | 0% | 0hPa | 0V | 00:00:00 | 00:00:00 | 00:00:00 | |
| DL1XH-15 | 2026-08-31 10:30:27 | 50.96027 | 8.97381 | 62° | 35km/h | 19389m | -7.3m/s | 0°C | 0% | 0hPa | 0V | 00:00:00 | 00:00:00 | 00:00:00 | |
| DF8AY | 2026-08-31 10:30:26 | 50.96023 | 8.97368 | 63° | 35km/h | 19389m | -7.3m/s | -51.9°C | 0% | 0hPa | 4.6V | 00:00:00 | 00:00:00 | 00:00:00 | |
| GOEST3-10 | 2026-08-31 10:30:26 | 50.96027 | 8.97380 | 63° | 35km/h | 19389m | -7.3m/s | 0°C | 0% | 0hPa | 4.6V | 00:00:00 | 00:00:00 | 00:00:00 | |
| DM7RM-13 | 2026-08-31 10:30:25 | 50.96023 | 8.97368 | 64° | 35km/h | 19389m | -7.3m/s | -45.5°C | 0% | 0hPa | 4.6V | 00:00:00 | 00:00:00 | 00:00:00 | |
| HSKMA3-T | 2026-08-31 10:30:24 | 50.96015 | 8.97344 | 62° | 35km/h | 19404m | -6.8m/s | -51.9°C | 0% | 0hPa | 4.6V | 00:00:00 | 00:00:00 | 00:00:00 | |
| DO3DL | 2026-08-31 10:30:23 | 50.96015 | 8.97344 | 63° | 35km/h | 19404m | -6.8m/s | -51.9°C | 0% | 0hPa | 28.8V | 00:00:00 | 00:00:00 | 00:00:00 | |
| GOEST3-10 | 2026-08-31 10:30:21 | 50.96008 | 8.97320 | 68° | 33km/h | 19426m | -7.4m/s | 0°C | 0% | 0hPa | 28.8V | 00:00:00 | 00:00:00 | 00:00:00 | |
| DO2JMG | 2026-08-31 10:30:20 | 50.96002 | 8.97295 | 73° | 35km/h | 19432m | -6.8m/s | -51.8°C | 0% | 0hPa | 28.8V | 00:00:00 | 00:00:00 | 00:00:00 | |
| DM0DOS-11 | 2026-08-31 10:30:19 | 50.95997 | 8.97269 | 73° | 35km/h | 19457m | -5.8m/s | 0°C | 0% | 0hPa | 0V | 00:00:00 | 00:00:00 | 00:00:00 | |
| DL1XH-15 | 2026-08-31 10:30:17 | 50.95995 | 8.97256 | 72° | 35km/h | 19457m | -5.8m/s | 0°C | 0% | 0hPa | 0V | 00:00:00 | 00:00:00 | 00:00:00 | |
| GOEST3-10 | 2026-08-31 10:30:16 | 50.95995 | 8.97256 | 73° | 33km/h | 19457m | -5.8m/s | 0°C | 0% | 0hPa | 4.6V | 00:00:00 | 00:00:00 | 00:00:00 | |
| DL1XH-west | 2026-08-31 10:30:15 | 50.95992 | 8.97243 | 71° | 35km/h | 19457m | -5.8m/s | -51.9°C | 0% | 0hPa | 4.6V | 00:00:00 | 00:00:00 | 00:00:00 | |
| HSKMA3-T | 2026-08-31 10:30:13 | 50.95983 | 8.97207 | 67° | 31km/h | 19474m | -5.7m/s | -52°C | 0% | 0hPa | 4.6V | 00:00:00 | 00:00:00 | 00:00:00 | |
| DD1CC2-15 | 2026-08-31 10:30:12 | 50.95984 | 8.97207 | 68° | 31km/h | 19474m | -5.7m/s | -45.6°C | 0% | 0hPa | 4.6V | 00:00:00 | 00:00:00 | 00:00:00 | |
| GOEST3-10 | 2026-08-31 10:30:11 | 50.95980 | 8.97196 | 70° | 33km/h | 19486m | -5.7m/s | 0°C | 0% | 0hPa | 4.6V | 00:00:00 | 00:00:00 | 00:00:00 | |
| DO3DL | 2026-08-31 10:30:10 | 50.95977 | 8.97184 | 70° | 31km/h | 19486m | -5.7m/s | -52.0°C | 0% | 0hPa | 4.6V | 00:00:00 | 00:00:00 | 00:00:00 | |
| AA1-15 | 2026-08-31 10:30:09 | 50.95972 | 8.97159 | 72° | 33km/h | 19497m | -5.8m/s | -52.1°C | 0% | 0hPa | 4.6V | 00:00:00 | 00:00:00 | 00:00:00 | |
| DL1XH-15 | 2026-08-31 10:30:07 | 50.95967 | 8.97133 | 76° | 35km/h | 19520m | -5.8m/s | 0°C | 0% | 0hPa | 0V | 00:00:00 | 00:00:00 | 00:00:00 | |
| GOEST3-10 | 2026-08-31 10:30:06 | 50.95967 | 8.97132 | 77° | 33km/h | 19515m | -5.8m/s | 0°C | 0% | 0hPa | 4.6V | 00:00:00 | 00:00:00 | 00:00:00 | |
| DL1XH-west | 2026-08-31 10:30:05 | 50.95963 | 8.97106 | 77° | 33km/h | 19520m | -5.8m/s | -52.2°C | 0% | 0hPa | 4.6V | 00:00:00 | 00:00:00 | 00:00:00 | |
| HSKMA3-T | 2026-08-31 10:30:03 | 50.95960 | 8.97082 | 78° | 29km/h | 19532m | -5.8m/s | -52.3°C | 0% | 0hPa | 4.6V | 00:00:00 | 00:00:00 | 00:00:00 | |
| GOEST3-10 | 2026-08-31 10:30:01 | 50.95958 | 8.97071 | 79° | 27km/h | 19543m | -5.6m/s | 0°C | 0% | 0hPa | 0V | 00:00:00 | 00:00:00 | 00:00:00 | |
| DM0DOS-11 | 2026-08-31 10:29:59 | 50.95950 | 8.97008 | 79° | 27km/h | 19577m | -5.8m/s | 0°C | 0% | 0hPa | 0V | 00:00:00 | 00:00:00 | 00:00:00 | |
| AA1-15 | 2026-08-31 10:29:58 | 50.95953 | 8.97029 | 80° | 27km/h | 19560m | -5.8m/s | -52.3°C | 0% | 0hPa | 4.6V | 00:00:00 | 00:00:00 | 00:00:00 | |
| DO2SHX-10 | 2026-08-31 10:29:57 | 50.95953 | 8.97029 | 80° | 22km/h | 19572m | -5.8m/s | 0°C | 0% | 0hPa | 0V | 00:00:00 | 00:00:00 | 00:00:00 | |
| DL1XH-15 | 2026-08-31 10:29:56 | 50.95944 | 8.96966 | 69° | 27km/h | 19601m | -5.9m/s | 0°C | 0% | 0hPa | 0V | 00:00:00 | 00:00:00 | 00:00:00 | |
| DJTTGO | 2026-08-31 10:29:55 | 50.95950 | 8.97008 | 81° | 27km/h | 19572m | -5.8m/s | -52.3°C | 0% | 0hPa | 4.6V | 00:00:00 | 00:00:00 | 00:00:00 | |
| DL1XH-west | 2026-08-31 10:29:54 | 50.95948 | 8.96987 | 78° | 27km/h | 19583m | -6m/s | -52.3°C | 0% | 0hPa | 4.6V | 00:00:00 | 00:00:00 | 00:00:00 | |
| DF5WG-10 | 2026-08-31 10:29:54 | 50.95949 | 8.96997 | 80° | 29km/h | 19578m | -5.8m/s | 0°C | 0% | 0hPa | 4.6V | 00:00:00 | 00:00:00 | 00:00:00 | |
| HSKMA3-T | 2026-08-31 10:29:52 | 50.95944 | 8.96966 | 70° | 27km/h | 19595m | -6m/s | -52.3°C | 0% | 0hPa | 4.6V | 00:00:00 | 00:00:00 | 00:00:00 | |
| GOEST3-10 | 2026-08-31 10:29:50 | 50.95941 | 8.96956 | 63° | 27km/h | 19607m | -6.0m/s | 0°C | 0% | 0hPa | 0V | 00:00:00 | 00:00:00 | 00:00:00 | |
| DM0DOS-11 | 2026-08-31 10:29:49 | 50.95924 | 8.96905 | 61° | 29km/h | 19636m | -5.9m/s | 0°C | 0% | 0hPa | 0V | 00:00:00 | 00:00:00 | 00:00:00 | |
| AA1-15 | 2026-08-31 10:29:48 | 50.95932 | 8.96926 | 61° | 29km/h | 19618m | -5.9m/s | -52.3°C | 0% | 0hPa | 4.6V | 00:00:00 | 00:00:00 | 00:00:00 | |
| GOEST3-10 | 2026-08-31 10:29:45 | 50.95924 | 8.96905 | 61° | 31km/h | 19631m | -5.9m/s | 0°C | 0% | 0hPa | 4.6V | 00:00:00 | 00:00:00 | 00:00:00 | |
| DL1XH-west | 2026-08-31 10:29:43 | 50.95913 | 8.96872 | 62° | 31km/h | 19648m | -6m/s | -52.2°C | 0% | 0hPa | 4.6V | 00:00:00 | 00:00:00 | 00:00:00 | |
| DM7RM-13 | 2026-08-31 10:29:43 | 50.95913 | 8.96872 | 63° | 31km/h | 19648m | -6.0m/s | -45.9°C | 0% | 0hPa | 4.6V | 00:00:00 | 00:00:00 | 00:00:00 | |
| HSKMA3-T | 2026-08-31 10:29:41 | 50.95906 | 8.96851 | 64° | 29km/h | 19660m | -6.1m/s | -52.1°C | 0% | 0hPa | 4.6V | 00:00:00 | 00:00:00 | 00:00:00 | |
| GOEST3-10 | 2026-08-31 10:29:40 | 50.95906 | 8.96851 | 64° | 24km/h | 19667m | -6.0m/s | 0°C | 0% | 0hPa | 4.6V | 00:00:00 | 00:00:00 | 00:00:00 | |
| SP3BTT-10 | 2026-08-31 10:29:37 | 50.95899 | 8.96822 | 65° | 16km/h | 19697m | -6.4m/s | 0°C | 0% | 0hPa | 4.6V | 00:00:00 | 00:00:00 | 00:00:00 | |
| AA1-15 | 2026-08-31 10:29:36 | 50.95897 | 8.96816 | 66° | 20km/h | 19684m | -6.1m/s | -51.8°C | 0% | 0hPa | 4.6V | 00:00:00 | 00:00:00 | 00:00:00 | |
| GOEST3-10 | 2026-08-31 10:29:35 | 50.95894 | 8.96809 | 65° | 20km/h | 19697m | -6.4m/s | 0°C | 0% | 0hPa | 4.6V | 00:00:00 | 00:00:00 | 00:00:00 | |
| DL1XH-west | 2026-08-31 10:29:33 | 50.95887 | 8.96789 | 55° | 20km/h | 19709m | -6.2m/s | -51.7°C | 0% | 0hPa | 4.6V | 00:00:00 | 00:00:00 | 00:00:00 | |
| DF2AP-13 | 2026-08-31 10:29:31 | 50.95884 | 8.96783 | 54° | 31km/h | 19746m | -6.2m/s | 0°C | 0% | 0hPa | 4.6V | 00:00:00 | 00:00:00 | 00:00:00 | |
| HSKMA3-T | 2026-08-31 10:29:30 | 50.95878 | 8.96771 | 49° | 20km/h | 19728m | -6.3m/s | -51.6°C | 0% | 0hPa | 4.6V | 00:00:00 | 00:00:00 | 00:00:00 | |
| DM0DOS-11 | 2026-08-31 10:29:29 | 50.95867 | 8.96749 | 44° | 15km/h | 19759m | -6.2m/s | 0°C | 0% | 0hPa | 0V | 00:00:00 | 00:00:00 | 00:00:00 | |
| DL1XH-15 | 2026-08-31 10:29:26 | 50.95856 | 8.96736 | 27° | 13km/h | 19784m | -6.4m/s | 0°C | 0% | 0hPa | 0V | 00:00:00 | 00:00:00 | 00:00:00 | |
| AA1-15 | 2026-08-31 10:29:26 | 50.95867 | 8.96749 | 44° | 15km/h | 19753m | -6.2m/s | -51.6°C | 0% | 0hPa | 4.6V | 00:00:00 | 00:00:00 | 00:00:00 | |
| GOEST3-10 | 2026-08-31 10:29:25 | 50.95867 | 8.96749 | 45° | 13km/h | 19759m | -6.2m/s | 0°C | 0% | 0hPa | 4.6V | 00:00:00 | 00:00:00 | 00:00:00 | |
| DJTTGO | 2026-08-31 10:29:23 | 50.95862 | 8.96742 | 36° | 13km/h | 19765m | -6.4m/s | -51.6°C | 0% | 0hPa | 4.6V | 00:00:00 | 00:00:00 | 00:00:00 | |
| DL1XH-west | 2026-08-31 10:29:22 | 50.95856 | 8.96736 | 28° | 15km/h | 19778m | -6.2m/s | -51.7°C | 0% | 0hPa | 4.6V | 00:00:00 | 00:00:00 | 00:00:00 | |
| DM7RM-13 | 2026-08-31 10:29:21 | 50.95856 | 8.96736 | 29° | 13km/h | 19778m | -6.2m/s | -45.3°C | 0% | 0hPa | 4.6V | 00:00:00 | 00:00:00 | 00:00:00 | |
| HSKMA3-T | 2026-08-31 10:29:20 | 50.95850 | 8.96730 | 27° | 16km/h | 19790m | -6.4m/s | -51.7°C | 0% | 0hPa | 4.6V | 00:00:00 | 00:00:00 | 00:00:00 | |
| DM0DOS-11 | 2026-08-31 10:29:19 | 50.95835 | 8.96716 | 29° | 15km/h | 19815m | -6.4m/s | 0°C | 0% | 0hPa | 0V | 00:00:00 | 00:00:00 | 00:00:00 | |
| DL1XH-15 | 2026-08-31 10:29:16 | 50.95821 | 8.96708 | 4° | 16km/h | 19847m | -6.4m/s | 0°C | 0% | 0hPa | 0V | 00:00:00 | 00:00:00 | 00:00:00 | |
| AA1-15 | 2026-08-31 10:29:15 | 50.95832 | 8.96713 | 23° | 15km/h | 19822m | -6.4m/s | -51.8°C | 0% | 0hPa | 4.6V | 00:00:00 | 00:00:00 | 00:00:00 | |
| GOEST3-10 | 2026-08-31 10:29:14 | 50.95832 | 8.96713 | 23° | 15km/h | 19828m | -6.3m/s | 0°C | 0% | 0hPa | 4.6V | 00:00:00 | 00:00:00 | 00:00:00 | |
| DF8AY | 2026-08-31 10:29:11 | 50.95817 | 8.96707 | 5° | 18km/h | 19847m | -6.5m/s | -51.8°C | 0% | 0hPa | 4.6V | 00:00:00 | 00:00:00 | 00:00:00 | |
| GOEST3-10 | 2026-08-31 10:29:09 | 50.95812 | 8.96707 | 2° | 22km/h | 19860m | -6.2m/s | 0°C | 0% | 0hPa | 4.6V | 00:00:00 | 00:00:00 | 00:00:00 | |
| DL1XH-west | 2026-08-31 10:29:08 | 50.95807 | 8.96707 | 2° | 22km/h | 19860m | -6.2m/s | -51.7°C | 0% | 0hPa | 4.6V | 00:00:00 | 00:00:00 | 00:00:00 | |
| DF1GD-15 | 2026-08-31 10:29:08 | 50.95807 | 8.96707 | 3° | 22km/h | 19860m | -6.2m/s | -51.7°C | 0% | 0hPa | 0V | 00:00:00 | 00:00:00 | 00:00:00 | |
| SP3BTT-10 | 2026-08-31 10:29:07 | 50.95801 | 8.96706 | 4° | 22km/h | 19866m | -6.3m/s | 0°C | 0% | 0hPa | 0V | 00:00:00 | 00:00:00 | 00:00:00 | |
| DL1XH-15 | 2026-08-31 10:29:06 | 50.95770 | 8.96702 | 358° | 20km/h | 19911m | -6.5m/s | 0°C | 0% | 0hPa | 0V | 00:00:00 | 00:00:00 | 00:00:00 | |
| AA1-15 | 2026-08-31 10:29:04 | 50.95784 | 8.96703 | 7° | 20km/h | 19886m | -6.4m/s | -51.5°C | 0% | 0hPa | 4.6V | 00:00:00 | 00:00:00 | 00:00:00 | |
| GOEST3-10 | 2026-08-31 10:29:04 | 50.95784 | 8.96703 | 8° | 20km/h | 19892m | -6.4m/s | 0°C | 0% | 0hPa | 4.6V | 00:00:00 | 00:00:00 | 00:00:00 | |
| DO2JMG | 2026-08-31 10:29:02 | 50.95770 | 8.96702 | 359° | 20km/h | 19905m | -6.3m/s | -51.1°C | 0% | 0hPa | 4.6V | 00:00:00 | 00:00:00 | 00:00:00 | |
| DF8AY | 2026-08-31 10:29:00 | 50.95760 | 8.96704 | 349° | 22km/h | 19918m | -6.6m/s | -51°C | 0% | 0hPa | 4.6V | 00:00:00 | 00:00:00 | 00:00:00 | |
| GOEST3-10 | 2026-08-31 10:28:59 | 50.95760 | 8.96704 | 349° | 26km/h | 19925m | -6.4m/s | 0°C | 0% | 0hPa | 4.6V | 00:00:00 | 00:00:00 | 00:00:00 | |
| HSKMA3-T | 2026-08-31 10:28:58 | 50.95748 | 8.96709 | 341° | 26km/h | 19931m | -6.3m/s | -51°C | 0% | 0hPa | 4.6V | 00:00:00 | 00:00:00 | 00:00:00 | |
| DL1XH-15 | 2026-08-31 10:28:56 | 50.95708 | 8.96719 | 2° | 22km/h | 19976m | -6.7m/s | 0°C | 0% | 0hPa | 0V | 00:00:00 | 00:00:00 | 00:00:00 | |
| AA1-15 | 2026-08-31 10:28:54 | 50.95720 | 8.96719 | 357° | 27km/h | 19957m | -6.5m/s | -50.9°C | 0% | 0hPa | 4.6V | 00:00:00 | 00:00:00 | 00:00:00 | |
| DF8AY | 2026-08-31 10:28:50 | 50.95697 | 8.96718 | 0° | 20km/h | 19983m | -6.6m/s | -50.9°C | 0% | 0hPa | 4.6V | 00:00:00 | 00:00:00 | 00:00:00 | |
| GOEST3-10 | 2026-08-31 10:28:49 | 50.95697 | 8.96718 | 1° | 22km/h | 19990m | -6.5m/s | 0°C | 0% | 0hPa | 4.6V | 00:00:00 | 00:00:00 | 00:00:00 | |
| DL1XH-west | 2026-08-31 10:28:47 | 50.95687 | 8.96720 | 343° | 20km/h | 19996m | -6.6m/s | -51°C | 0% | 0hPa | 4.6V | 00:00:00 | 00:00:00 | 00:00:00 | |
| HSKMA3-T | 2026-08-31 10:28:47 | 50.95682 | 8.96723 | 337° | 24km/h | 20003m | -6.4m/s | -51.1°C | 0% | 0hPa | 4.6V | 00:00:00 | 00:00:00 | 00:00:00 | |
| DO2JMG | 2026-08-31 10:28:45 | 50.95676 | 8.96727 | 338° | 27km/h | 20009m | -6.8m/s | -51.2°C | 0% | 0hPa | 4.6V | 00:00:00 | 00:00:00 | 00:00:00 | |
| GOEST3-10 | 2026-08-31 10:28:44 | 50.95669 | 8.96731 | 343° | 26km/h | 20025m | -8.2m/s | 0°C | 0% | 0hPa | 4.6V | 00:00:00 | 00:00:00 | 00:00:00 | |
| AA1-15 | 2026-08-31 10:28:43 | 50.95655 | 8.96736 | 355° | 27km/h | 20033m | -8.6m/s | -51.4°C | 0% | 0hPa | 4.6V | 00:00:00 | 00:00:00 | 00:00:00 | |
| DF8AY | 2026-08-31 10:28:39 | 50.95635 | 8.96728 | 39° | 15km/h | 20074m | -12.2m/s | -51.6°C | 0% | 0hPa | 4.6V | 00:00:00 | 00:00:00 | 00:00:00 | |
| GOEST3-10 | 2026-08-31 10:28:39 | 50.95638 | 8.96731 | 39° | 13km/h | 20074m | -12.2m/s | 0°C | 0% | 0hPa | 4.6V | 00:00:00 | 00:00:00 | 00:00:00 | |
| DL1XH-west | 2026-08-31 10:28:36 | 50.95630 | 8.96720 | 47° | 11km/h | 20098m | -12.2m/s | -51.7°C | 0% | 0hPa | 4.6V | 00:00:00 | 00:00:00 | 00:00:00 | |
| DL1XH-15 | 2026-08-31 10:28:36 | 50.95614 | 8.96722 | 342° | 24km/h | 20159m | -10.6m/s | 0°C | 0% | 0hPa | 0V | 00:00:00 | 00:00:00 | 00:00:00 | |
| DM7RM-13 | 2026-08-31 10:28:35 | 50.95628 | 8.96718 | 34° | 9km/h | 20110m | -10.9m/s | -45.2°C | 0% | 0hPa | 4.6V | 00:00:00 | 00:00:00 | 00:00:00 | |
| GOEST3-10 | 2026-08-31 10:28:34 | 50.95626 | 8.96715 | 343° | 20km/h | 20130m | -10.0m/s | 0°C | 0% | 0hPa | 4.6V | 00:00:00 | 00:00:00 | 00:00:00 | |
| DO2JMG | 2026-08-31 10:28:32 | 50.95614 | 8.96722 | 343° | 24km/h | 20149m | -9.9m/s | -51.6°C | 0% | 0hPa | 4.6V | 00:00:00 | 00:00:00 | 00:00:00 | |
| DD1CC2-15 | 2026-08-31 10:28:30 | 50.95608 | 8.96724 | 356° | 26km/h | 20160m | -10.6m/s | -45.2°C | 0% | 0hPa | 4.6V | 00:00:00 | 00:00:00 | 00:00:00 | |
| GOEST3-10 | 2026-08-31 10:28:29 | 50.95601 | 8.96724 | 5° | 27km/h | 20180m | -9.6m/s | 0°C | 0% | 0hPa | 4.6V | 00:00:00 | 00:00:00 | 00:00:00 | |
| DF8AY | 2026-08-31 10:28:28 | 50.95587 | 8.96718 | 25° | 29km/h | 20189m | -9.5m/s | -51.5°C | 0% | 0hPa | 4.6V | 00:00:00 | 00:00:00 | 00:00:00 | |
| DL1XH-15 | 2026-08-31 10:28:26 | 50.95560 | 8.96686 | 19° | 20km/h | 20255m | -9.6m/s | 0°C | 0% | 0hPa | 0V | 00:00:00 | 00:00:00 | 00:00:00 | |
| DL1XH-west | 2026-08-31 10:28:25 | 50.95576 | 8.96706 | 42° | 26km/h | 20208m | -8.6m/s | -51.5°C | 0% | 0hPa | 4.6V | 00:00:00 | 00:00:00 | 00:00:00 | |
| GOEST3-10 | 2026-08-31 10:28:24 | 50.95572 | 8.96699 | 46° | 20km/h | 20227m | -9.5m/s | 0°C | 0% | 0hPa | 4.6V | 00:00:00 | 00:00:00 | 00:00:00 | |
| SP3BTT-10 | 2026-08-31 10:28:22 | 50.95564 | 8.96690 | 32° | 16km/h | 20246m | -9.4m/s | 0°C | 0% | 0hPa | 4.6V | 00:00:00 | 00:00:00 | 00:00:00 | |
| AA1-15 | 2026-08-31 10:28:21 | 50.95555 | 8.96683 | 20° | 22km/h | 20255m | -9.6m/s | -51.3°C | 0% | 0hPa | 4.6V | 00:00:00 | 00:00:00 | 00:00:00 | |
| GOEST3-10 | 2026-08-31 10:28:19 | 50.95549 | 8.96680 | 19° | 24km/h | 20265m | -9.1m/s | 0°C | 0% | 0hPa | 4.6V | 00:00:00 | 00:00:00 | 00:00:00 | |
| DO2JMG | 2026-08-31 10:28:17 | 50.95534 | 8.96667 | 41° | 24km/h | 20296m | -11.4m/s | -51.2°C | 0% | 0hPa | 4.6V | 00:00:00 | 00:00:00 | 00:00:00 | |
| DL1XH-15 | 2026-08-31 10:28:16 | 50.95518 | 8.96638 | 45° | 15km/h | 20373m | -14.6m/s | 0°C | 0% | 0hPa | 0V | 00:00:00 | 00:00:00 | 00:00:00 | |
| HSKMA3-T | 2026-08-31 10:28:15 | 50.95526 | 8.96654 | 54° | 20km/h | 20319m | -12.4m/s | -51.2°C | 0% | 0hPa | 4.6V | 00:00:00 | 00:00:00 | 00:00:00 | |
| GOEST3-10 | 2026-08-31 10:28:14 | 50.95526 | 8.96654 | 55° | 16km/h | 20332m | -12.1m/s | 0°C | 0% | 0hPa | 4.6V | 00:00:00 | 00:00:00 | 00:00:00 | |
| AA1-15 | 2026-08-31 10:28:11 | 50.95516 | 8.96634 | 46° | 13km/h | 20373m | -14.6m/s | -51.3°C | 0% | 0hPa | 4.6V | 00:00:00 | 00:00:00 | 00:00:00 | |
| DJTTGO | 2026-08-31 10:28:10 | 50.95516 | 8.96634 | 47° | 13km/h | 20373m | -14.6m/s | 0°C | 0% | 0hPa | 0V | 00:00:00 | 00:00:00 | 00:00:00 | |
| GOEST3-10 | 2026-08-31 10:28:09 | 50.95514 | 8.96631 | 38° | 13km/h | 20403m | -14.5m/s | 0°C | 0% | 0hPa | 0V | 00:00:00 | 00:00:00 | 00:00:00 | |
| DL1XH-15 | 2026-08-31 10:28:06 | 50.95495 | 8.96608 | 54° | 11km/h | 20411m | 4.3m/s | 0°C | 0% | 0hPa | 0V | 00:00:00 | 00:00:00 | 00:00:00 | |
| DO2JMG | 2026-08-31 10:28:06 | 50.95503 | 8.96619 | 39° | 11km/h | 20446m | -14.6m/s | -51.1°C | 0% | 0hPa | 4.6V | 00:00:00 | 00:00:00 | 00:00:00 | |
| HSKMA3-T | 2026-08-31 10:28:04 | 50.95499 | 8.96614 | 42° | 9km/h | 20469m | -4m/s | -51°C | 0% | 0hPa | 4.6V | 00:00:00 | 00:00:00 | 00:00:00 | |
| SONCRA | 2026-08-31 10:28:02 | 50.95495 | 8.96608 | 54° | 11km/h | 20465m | 3.7m/s | -51.0°C | -1.0% | -1.0hPa | 4.6V | 00:00:00 | 00:00:00 | 00:00:00 | |
| AA1-15 | 2026-08-31 10:28:00 | 50.95491 | 8.96599 | 48° | 16km/h | 20456m | 3.7m/s | -51.1°C | 0% | 0hPa | 4.6V | 00:00:00 | 00:00:00 | 00:00:00 | |
| GOEST3-10 | 2026-08-31 10:27:59 | 50.95491 | 8.96599 | 49° | 13km/h | 20453m | 3.6m/s | 0°C | 0% | 0hPa | 4.6V | 00:00:00 | 00:00:00 | 00:00:00 | |
| DO2SHX-10 | 2026-08-31 10:27:56 | 50.95484 | 8.96586 | 46° | 11km/h | 20437m | 4.2m/s | 0°C | 0% | 0hPa | 4.6V | 00:00:00 | 00:00:00 | 00:00:00 | |
| DL1XH-west | 2026-08-31 10:27:55 | 50.95482 | 8.96583 | 35° | 9km/h | 20441m | 4.2m/s | -51.1°C | 0% | 0hPa | 4.6V | 00:00:00 | 00:00:00 | 00:00:00 | |
| DM7RM-13 | 2026-08-31 10:27:55 | 50.95480 | 8.96583 | 36° | 11km/h | 20437m | 4.2m/s | -44.7°C | 0% | 0hPa | 4.6V | 00:00:00 | 00:00:00 | 00:00:00 | |
| GOEST3-10 | 2026-08-31 10:27:54 | 50.95480 | 8.96580 | 28° | 9km/h | 20433m | 3.7m/s | 0°C | 0% | 0hPa | 4.6V | 00:00:00 | 00:00:00 | 00:00:00 | |
| HSKMA3-T | 2026-08-31 10:27:53 | 50.95476 | 8.96577 | 32° | 7km/h | 20428m | 4.6m/s | -51.1°C | 0% | 0hPa | 4.6V | 00:00:00 | 00:00:00 | 00:00:00 | |
| SP3BTT-10 | 2026-08-31 10:27:52 | 50.95476 | 8.96577 | 32° | 16km/h | 20419m | 4.9m/s | 0°C | 0% | 0hPa | 4.6V | 00:00:00 | 00:00:00 | 00:00:00 | |
| AA1-15 | 2026-08-31 10:27:49 | 50.95468 | 8.96568 | 51° | 13km/h | 20411m | 4.3m/s | -51.2°C | 0% | 0hPa | 4.6V | 00:00:00 | 00:00:00 | 00:00:00 | |
| GOEST3-10 | 2026-08-31 10:27:49 | 50.95471 | 8.96572 | 52° | 13km/h | 20411m | 4.2m/s | 0°C | 0% | 0hPa | 4.6V | 00:00:00 | 00:00:00 | 00:00:00 | |
| DJTTGO | 2026-08-31 10:27:46 | 50.95465 | 8.96559 | 55° | 13km/h | 20403m | 3.4m/s | -51.1°C | 0% | 0hPa | 4.6V | 00:00:00 | 00:00:00 | 00:00:00 | |
| DF8AY | 2026-08-31 10:27:45 | 50.95460 | 8.96550 | 42° | 16km/h | 20395m | 3.9m/s | -51°C | 0% | 0hPa | 4.6V | 00:00:00 | 00:00:00 | 00:00:00 | |
| GOEST3-10 | 2026-08-31 10:27:44 | 50.95460 | 8.96550 | 43° | 15km/h | 20392m | 3.0m/s | 0°C | 0% | 0hPa | 4.6V | 00:00:00 | 00:00:00 | 00:00:00 | |
| HSKMA3-T | 2026-08-31 10:27:42 | 50.95454 | 8.96542 | 45° | 15km/h | 20388m | 4.4m/s | -50.9°C | 0% | 0hPa | 4.6V | 00:00:00 | 00:00:00 | 00:00:00 | |
| DF5WG-10 | 2026-08-31 10:27:39 | 50.95447 | 8.96529 | 48° | 15km/h | 20368m | 4.0m/s | 0°C | 0% | 0hPa | 4.6V | 00:00:00 | 00:00:00 | 00:00:00 | |
| AA1-15 | 2026-08-31 10:27:38 | 50.95441 | 8.96519 | 45° | 18km/h | 20367m | 4.1m/s | -50.9°C | 0% | 0hPa | 4.6V | 00:00:00 | 00:00:00 | 00:00:00 | |
| DL1XH-west | 2026-08-31 10:27:34 | 50.95432 | 8.96504 | 38° | 18km/h | 20356m | 4.8m/s | -51.1°C | 0% | 0hPa | 4.6V | 00:00:00 | 00:00:00 | 00:00:00 | |
| DF8AY | 2026-08-31 10:27:34 | 50.95428 | 8.96499 | 35° | 20km/h | 20351m | 4m/s | -51°C | 0% | 0hPa | 4.6V | 00:00:00 | 00:00:00 | 00:00:00 | |
| DM7RM-13 | 2026-08-31 10:27:33 | 50.95428 | 8.96499 | 36° | 20km/h | 20351m | 4.0m/s | -44.6°C | 0% | 0hPa | 4.6V | 00:00:00 | 00:00:00 | 00:00:00 | |
| HSKMA3-T | 2026-08-31 10:27:31 | 50.95421 | 8.96490 | 46° | 16km/h | 20343m | 4.3m/s | -51°C | 0% | 0hPa | 4.6V | 00:00:00 | 00:00:00 | 00:00:00 | |
| DO3MHA-11 | 2026-08-31 10:27:30 | 50.95418 | 8.96486 | 51° | 18km/h | 20340m | 3.5m/s | 0°C | 0% | 0hPa | 4.6V | 00:00:00 | 00:00:00 | 00:00:00 | |
| GOEST3-10 | 2026-08-31 10:27:29 | 50.95416 | 8.96481 | 49° | 16km/h | 20328m | 3.7m/s | 0°C | 0% | 0hPa | 4.6V | 00:00:00 | 00:00:00 | 00:00:00 | |
| AA1-15 | 2026-08-31 10:27:28 | 50.95410 | 8.96471 | 44° | 18km/h | 20327m | 3.8m/s | -51.1°C | 0% | 0hPa | 4.6V | 00:00:00 | 00:00:00 | 00:00:00 | |
| DL1XH-15 | 2026-08-31 10:27:27 | 50.95396 | 8.96453 | 35° | 20km/h | 20307m | 4m/s | 0°C | 0% | 0hPa | 0V | 00:00:00 | 00:00:00 | 00:00:00 | |
| DO2SHX-10 | 2026-08-31 10:27:26 | 50.95406 | 8.96466 | 45° | 18km/h | 20279m | 3.5m/s | 0°C | 0% | 0hPa | 4.6V | 00:00:00 | 00:00:00 | 00:00:00 | |
| DF1GD-15 | 2026-08-31 10:27:25 | 50.95404 | 8.96461 | 41° | 16km/h | 20319m | 3.6m/s | -50.9°C | 0% | 0hPa | 4.6V | 00:00:00 | 00:00:00 | 00:00:00 | |
| GOEST3-10 | 2026-08-31 10:27:24 | 50.95400 | 8.96457 | 36° | 20km/h | 20311m | 3.7m/s | 0°C | 0% | 0hPa | 4.6V | 00:00:00 | 00:00:00 | 00:00:00 | |
| DL1XH-west | 2026-08-31 10:27:23 | 50.95396 | 8.96453 | 33° | 20km/h | 20311m | 3.7m/s | -51°C | 0% | 0hPa | 4.6V | 00:00:00 | 00:00:00 | 00:00:00 | |
| DF8AY | 2026-08-31 10:27:23 | 50.95392 | 8.96449 | 35° | 20km/h | 20307m | 4m/s | -51°C | 0% | 0hPa | 4.6V | 00:00:00 | 00:00:00 | 00:00:00 | |
| DL8DAS-15 | 2026-08-31 10:27:22 | 50.95392 | 8.96449 | 36° | 20km/h | 20307m | 4.0m/s | -51.0°C | 0% | 0hPa | 4.6V | 00:00:00 | 00:00:00 | 00:00:00 | |
| HSKMA3-T | 2026-08-31 10:27:21 | 50.95384 | 8.96439 | 44° | 18km/h | 20299m | 3.3m/s | -51.1°C | 0% | 0hPa | 4.6V | 00:00:00 | 00:00:00 | 00:00:00 | |
| SP3BTT-10 | 2026-08-31 10:27:21 | 50.95388 | 8.96444 | 45° | 22km/h | 20299m | 3.3m/s | 0°C | 0% | 0hPa | 0V | 00:00:00 | 00:00:00 | 00:00:00 | |
| DO3MHA-11 | 2026-08-31 10:27:20 | 50.95384 | 8.96438 | 45° | 20km/h | 20296m | 4.3m/s | 0°C | 0% | 0hPa | 0V | 00:00:00 | 00:00:00 | 00:00:00 | |
| GOEST3-10 | 2026-08-31 10:27:19 | 50.95381 | 8.96433 | 33° | 18km/h | 20291m | 4.4m/s | 0°C | 0% | 0hPa | 0V | 00:00:00 | 00:00:00 | 00:00:00 | |
| DL1XH-15 | 2026-08-31 10:27:17 | 50.95356 | 8.96409 | 22° | 24km/h | 20266m | 4m/s | 0°C | 0% | 0hPa | 0V | 00:00:00 | 00:00:00 | 00:00:00 | |
| AA1-15 | 2026-08-31 10:27:17 | 50.95369 | 8.96421 | 32° | 18km/h | 20283m | 4.3m/s | -51.2°C | 0% | 0hPa | 4.6V | 00:00:00 | 00:00:00 | 00:00:00 | |
| DF5WG-10 | 2026-08-31 10:27:16 | 50.95369 | 8.96421 | 32° | 22km/h | 20266m | 4.0m/s | 0°C | 0% | 0hPa | 4.6V | 00:00:00 | 00:00:00 | 00:00:00 | |
| GOEST3-10 | 2026-08-31 10:27:14 | 50.95361 | 8.96413 | 26° | 24km/h | 20270m | 4.1m/s | 0°C | 0% | 0hPa | 4.6V | 00:00:00 | 00:00:00 | 00:00:00 | |
| DL1XH-west | 2026-08-31 10:27:12 | 50.95350 | 8.96406 | 24° | 24km/h | 20266m | 4m/s | -51.3°C | 0% | 0hPa | 4.6V | 00:00:00 | 00:00:00 | 00:00:00 | |
| DM7RM-13 | 2026-08-31 10:27:12 | 50.95350 | 8.96406 | 25° | 24km/h | 20266m | 4.0m/s | -44.9°C | 0% | 0hPa | 4.6V | 00:00:00 | 00:00:00 | 00:00:00 | |
| HSKMA3-T | 2026-08-31 10:27:10 | 50.95335 | 8.96391 | 33° | 22km/h | 20255m | 4.3m/s | -51.4°C | 0% | 0hPa | 4.6V | 00:00:00 | 00:00:00 | 00:00:00 | |
| GOEST3-10 | 2026-08-31 10:27:09 | 50.95335 | 8.96391 | 34° | 24km/h | 20251m | 3.9m/s | 0°C | 0% | 0hPa | 4.6V | 00:00:00 | 00:00:00 | 00:00:00 | |
| DD1CC2-15 | 2026-08-31 10:27:08 | 50.95325 | 8.96381 | 30° | 26km/h | 20247m | 3.7m/s | -45.0°C | 0% | 0hPa | 4.6V | 00:00:00 | 00:00:00 | 00:00:00 | |
| DO2JMG | 2026-08-31 10:27:07 | 50.95325 | 8.96381 | 29° | 26km/h | 20246m | 3.7m/s | -51.4°C | 0% | 0hPa | 4.6V | 00:00:00 | 00:00:00 | 00:00:00 | |
| DL1XH-15 | 2026-08-31 10:27:07 | 50.95303 | 8.96362 | 18° | 26km/h | 20226m | 3.6m/s | 0°C | 0% | 0hPa | 0V | 00:00:00 | 00:00:00 | 00:00:00 | |
| AA1-15 | 2026-08-31 10:27:06 | 50.95314 | 8.96371 | 30° | 24km/h | 20238m | 3.7m/s | -51.4°C | 0% | 0hPa | 4.6V | 00:00:00 | 00:00:00 | 00:00:00 | |
| GOEST3-10 | 2026-08-31 10:27:04 | 50.95308 | 8.96365 | 19° | 24km/h | 20230m | 4.5m/s | 0°C | 0% | 0hPa | 4.6V | 00:00:00 | 00:00:00 | 00:00:00 | |
| DL1XH-west | 2026-08-31 10:27:01 | 50.95290 | 8.96358 | 13° | 24km/h | 20222m | 4.2m/s | -51.4°C | 0% | 0hPa | 4.6V | 00:00:00 | 00:00:00 | 00:00:00 | |
| HSKMA3-T | 2026-08-31 10:27:00 | 50.95280 | 8.96352 | 24° | 22km/h | 20214m | 3.6m/s | -51.4°C | 0% | 0hPa | 4.6V | 00:00:00 | 00:00:00 | 00:00:00 | |
| GOEST3-10 | 2026-08-31 10:26:59 | 50.95280 | 8.96352 | 25° | 24km/h | 20206m | 3.7m/s | 0°C | 0% | 0hPa | 4.6V | 00:00:00 | 00:00:00 | 00:00:00 | |
| DO2JMG | 2026-08-31 10:26:57 | 50.95263 | 8.96341 | 22° | 26km/h | 20202m | 3.5m/s | -51.3°C | 0% | 0hPa | 4.6V | 00:00:00 | 00:00:00 | 00:00:00 | |
| DL3OBA | 2026-08-31 10:26:56 | 50.95263 | 8.96341 | 23° | 26km/h | 20202m | 3.5m/s | -51.3°C | 0% | 0hPa | 4.6V | 00:00:00 | 00:00:00 | 00:00:00 | |
| AA1-15 | 2026-08-31 10:26:55 | 50.95252 | 8.96333 | 24° | 22km/h | 20194m | 3.9m/s | -51.3°C | 0% | 0hPa | 4.6V | 00:00:00 | 00:00:00 | 00:00:00 | |
| GOEST3-10 | 2026-08-31 10:26:54 | 50.95252 | 8.96333 | 24° | 20km/h | 20190m | 4.6m/s | 0°C | 0% | 0hPa | 4.6V | 00:00:00 | 00:00:00 | 00:00:00 | |
| SP3BTT-10 | 2026-08-31 10:26:51 | 50.95237 | 8.96325 | 9° | 20km/h | 20182m | 3.5m/s | 0°C | 0% | 0hPa | 4.6V | 00:00:00 | 00:00:00 | 00:00:00 | |
| DL1XH-west | 2026-08-31 10:26:50 | 50.95232 | 8.96324 | 8° | 18km/h | 20177m | 4.6m/s | -51.4°C | 0% | 0hPa | 4.6V | 00:00:00 | 00:00:00 | 00:00:00 | |
| DJTTGO | 2026-08-31 10:26:50 | 50.95232 | 8.96324 | 9° | 18km/h | 20178m | 4.6m/s | -51.4°C | 0% | 0hPa | 4.6V | 00:00:00 | 00:00:00 | 00:00:00 | |
| HSKMA3-T | 2026-08-31 10:26:49 | 50.95224 | 8.96322 | 10° | 16km/h | 20169m | 4.8m/s | -51.5°C | 0% | 0hPa | 4.6V | 00:00:00 | 00:00:00 | 00:00:00 | |
| DL1XH-15 | 2026-08-31 10:26:47 | 50.95200 | 8.96307 | 21° | 16km/h | 20142m | 3.8m/s | 0°C | 0% | 0hPa | 0V | 00:00:00 | 00:00:00 | 00:00:00 | |
| DO2JMG | 2026-08-31 10:26:46 | 50.95215 | 8.96320 | 17° | 20km/h | 20162m | 3.1m/s | -51.5°C | 0% | 0hPa | 4.6V | 00:00:00 | 00:00:00 | 00:00:00 | |
| AA1-15 | 2026-08-31 10:26:45 | 50.95207 | 8.96314 | 32° | 16km/h | 20154m | 3.7m/s | -51.5°C | 0% | 0hPa | 4.6V | 00:00:00 | 00:00:00 | 00:00:00 | |
| GOEST3-10 | 2026-08-31 10:26:44 | 50.95206 | 8.96314 | 32° | 16km/h | 20150m | 3.7m/s | 0°C | 0% | 0hPa | 4.6V | 00:00:00 | 00:00:00 | 00:00:00 | |
| DO8TBO-1 | 2026-08-31 10:26:43 | 50.95199 | 8.96307 | 22° | 18km/h | 20138m | 4.6m/s | 0°C | 0% | 0hPa | 4.6V | 00:00:00 | 00:00:00 | 00:00:00 | |
| DL1XH-west | 2026-08-31 10:26:40 | 50.95192 | 8.96302 | 22° | 16km/h | 20138m | 4.6m/s | -51.5°C | 0% | 0hPa | 4.6V | 00:00:00 | 00:00:00 | 00:00:00 | |
| DF8AY | 2026-08-31 10:26:40 | 50.95188 | 8.96300 | 20° | 15km/h | 20134m | 3.6m/s | -51.5°C | 0% | 0hPa | 4.6V | 00:00:00 | 00:00:00 | 00:00:00 | |
| GOEST3-10 | 2026-08-31 10:26:39 | 50.95188 | 8.96299 | 21° | 15km/h | 20130m | 3.7m/s | 0°C | 0% | 0hPa | 4.6V | 00:00:00 | 00:00:00 | 00:00:00 | |
| HSKMA3-T | 2026-08-31 10:26:38 | 50.95181 | 8.96296 | 8° | 15km/h | 20126m | 4.3m/s | -51.6°C | 0% | 0hPa | 4.6V | 00:00:00 | 00:00:00 | 00:00:00 | |
| DO2JMG | 2026-08-31 10:26:36 | 50.95173 | 8.96295 | 6° | 15km/h | 20118m | 4.6m/s | -51.6°C | 0% | 0hPa | 4.6V | 00:00:00 | 00:00:00 | 00:00:00 | |
| GOEST3-10 | 2026-08-31 10:26:34 | 50.95169 | 8.96293 | 6° | 16km/h | 20111m | 3.4m/s | 0°C | 0% | 0hPa | 4.6V | 00:00:00 | 00:00:00 | 00:00:00 | |
| AA1-15 | 2026-08-31 10:26:33 | 50.95166 | 8.96293 | 5° | 15km/h | 20110m | 3.4m/s | -51.6°C | 0% | 0hPa | 4.6V | 00:00:00 | 00:00:00 | 00:00:00 | |
| DL3OBA | 2026-08-31 10:26:33 | 50.95162 | 8.96292 | 4° | 16km/h | 20107m | 4.4m/s | -51.6°C | 0% | 0hPa | 4.6V | 00:00:00 | 00:00:00 | 00:00:00 | |
| DM7RM-13 | 2026-08-31 10:26:30 | 50.95152 | 8.96292 | 10° | 18km/h | 20099m | 4.5m/s | -45.2°C | 0% | 0hPa | 4.6V | 00:00:00 | 00:00:00 | 00:00:00 | |
| GOEST3-10 | 2026-08-31 10:26:29 | 50.95148 | 8.96290 | 14° | 20km/h | 20091m | 3.4m/s | 0°C | 0% | 0hPa | 4.6V | 00:00:00 | 00:00:00 | 00:00:00 | |
| DL1XH-west | 2026-08-31 10:26:29 | 50.95143 | 8.96288 | 13° | 20km/h | 20091m | 3.4m/s | -51.5°C | 0% | 0hPa | 4.6V | 00:00:00 | 00:00:00 | 00:00:00 | |
| HSKMA3-T | 2026-08-31 10:26:27 | 50.95133 | 8.96285 | 8° | 22km/h | 20083m | 3.6m/s | -51.4°C | 0% | 0hPa | 4.6V | 00:00:00 | 00:00:00 | 00:00:00 | |
| DD1CC2-15 | 2026-08-31 10:26:26 | 50.95133 | 8.96286 | 9° | 22km/h | 20083m | 3.7m/s | -45.0°C | 0% | 0hPa | 4.6V | 00:00:00 | 00:00:00 | 00:00:00 | |
| DO2JMG | 2026-08-31 10:26:25 | 50.95122 | 8.96283 | 8° | 20km/h | 20075m | 3.9m/s | -51.4°C | 0% | 0hPa | 4.6V | 00:00:00 | 00:00:00 | 00:00:00 | |
| DO2SHX-10 | 2026-08-31 10:26:24 | 50.95122 | 8.96283 | 8° | 20km/h | 20043m | 4.0m/s | 0°C | 0% | 0hPa | 4.6V | 00:00:00 | 00:00:00 | 00:00:00 | |
| AA1-15 | 2026-08-31 10:26:23 | 50.95117 | 8.96282 | 2° | 20km/h | 20071m | 3.3m/s | -51.4°C | 0% | 0hPa | 4.6V | 00:00:00 | 00:00:00 | 00:00:00 | |
| DF1GD-15 | 2026-08-31 10:26:23 | 50.95117 | 8.96281 | 357° | 20km/h | 20068m | 4.8m/s | -51.3°C | 0% | 0hPa | 4.6V | 00:00:00 | 00:00:00 | 00:00:00 | |
| GOEST3-10 | 2026-08-31 10:26:19 | 50.95095 | 8.96285 | 354° | 20km/h | 20052m | 3.3m/s | 0°C | 0% | 0hPa | 4.6V | 00:00:00 | 00:00:00 | 00:00:00 | |
| DL1XH-west | 2026-08-31 10:26:18 | 50.95090 | 8.96286 | 357° | 18km/h | 20051m | 3.4m/s | -51.2°C | 0% | 0hPa | 4.6V | 00:00:00 | 00:00:00 | 00:00:00 | |
| DO3DL | 2026-08-31 10:26:18 | 50.95090 | 8.96286 | 358° | 18km/h | 20052m | 3.4m/s | -51.2°C | 0% | 0hPa | 4.6V | 00:00:00 | 00:00:00 | 00:00:00 | |
| HSKMA3-T | 2026-08-31 10:26:17 | 50.95080 | 8.96287 | 355° | 22km/h | 20043m | 4m/s | -51.2°C | 0% | 0hPa | 4.6V | 00:00:00 | 00:00:00 | 00:00:00 | |
| DO2JMG | 2026-08-31 10:26:14 | 50.95064 | 8.96288 | 359° | 22km/h | 20031m | 3.8m/s | -51.1°C | 0% | 0hPa | 4.6V | 00:00:00 | 00:00:00 | 00:00:00 | |
| DO8TBO-1 | 2026-08-31 10:26:13 | 50.95057 | 8.96288 | 356° | 24km/h | 20027m | 4.3m/s | 0°C | 0% | 0hPa | 4.6V | 00:00:00 | 00:00:00 | 00:00:00 | |
| AA1-15 | 2026-08-31 10:26:12 | 50.95052 | 8.96289 | 354° | 26km/h | 20023m | 3.2m/s | -51°C | 0% | 0hPa | 4.6V | 00:00:00 | 00:00:00 | 00:00:00 | |
| DM7RM-13 | 2026-08-31 10:26:10 | 50.95046 | 8.96290 | 356° | 24km/h | 20019m | 3.9m/s | -44.6°C | 0% | 0hPa | 4.6V | 00:00:00 | 00:00:00 | 00:00:00 | |
| GOEST3-10 | 2026-08-31 10:26:09 | 50.95040 | 8.96291 | 359° | 20km/h | 20012m | 2.7m/s | 0°C | 0% | 0hPa | 4.6V | 00:00:00 | 00:00:00 | 00:00:00 | |
| DL1XH-west | 2026-08-31 10:26:08 | 50.95031 | 8.96291 | 353° | 20km/h | 20008m | 4.4m/s | -50.9°C | 0% | 0hPa | 4.6V | 00:00:00 | 00:00:00 | 00:00:00 | |
| DO2SHX-10 | 2026-08-31 10:26:07 | 50.95030 | 8.96291 | 353° | 20km/h | 20004m | 3.8m/s | 0°C | 0% | 0hPa | 4.6V | 00:00:00 | 00:00:00 | 00:00:00 | |
| HSKMA3-T | 2026-08-31 10:26:06 | 50.95020 | 8.96294 | 349° | 22km/h | 20000m | 3.5m/s | -50.9°C | 0% | 0hPa | 4.6V | 00:00:00 | 00:00:00 | 00:00:00 | |
| DO2SHX-10 | 2026-08-31 10:26:04 | 50.95014 | 8.96296 | 352° | 22km/h | 19988m | 4.1m/s | 0°C | 0% | 0hPa | 4.6V | 00:00:00 | 00:00:00 | 00:00:00 | |
| DO2JMG | 2026-08-31 10:26:03 | 50.95009 | 8.96297 | 354° | 22km/h | 19992m | 3.4m/s | -51°C | 0% | 0hPa | 4.6V | 00:00:00 | 00:00:00 | 00:00:00 | |
| AA1-15 | 2026-08-31 10:26:01 | 50.94990 | 8.96301 | 351° | 27km/h | 19981m | 3.3m/s | -51.1°C | 0% | 0hPa | 4.6V | 00:00:00 | 00:00:00 | 00:00:00 | |
| DF1GD-15 | 2026-08-31 10:26:00 | 50.94990 | 8.96301 | 352° | 27km/h | 19981m | 3.3m/s | -51.1°C | 0% | 0hPa | 4.6V | 00:00:00 | 00:00:00 | 00:00:00 | |
| GOEST3-10 | 2026-08-31 10:25:59 | 50.94983 | 8.96302 | 352° | 24km/h | 19977m | 4.7m/s | 0°C | 0% | 0hPa | 4.6V | 00:00:00 | 00:00:00 | 00:00:00 | |
| DL1XH-west | 2026-08-31 10:25:57 | 50.94972 | 8.96306 | 348° | 22km/h | 19969m | 3.6m/s | -51.3°C | 0% | 0hPa | 4.6V | 00:00:00 | 00:00:00 | 00:00:00 | |
| DF8AY | 2026-08-31 10:25:57 | 50.94966 | 8.96308 | 345° | 24km/h | 19965m | 4m/s | -51.2°C | 0% | 0hPa | 4.6V | 00:00:00 | 00:00:00 | 00:00:00 | |
| DO2SHX-10 | 2026-08-31 10:25:56 | 50.94966 | 8.96308 | 346° | 22km/h | 19958m | 4.5m/s | 0°C | 0% | 0hPa | 4.6V | 00:00:00 | 00:00:00 | 00:00:00 | |
| HSKMA3-T | 2026-08-31 10:25:55 | 50.94955 | 8.96313 | 342° | 22km/h | 19958m | 4.5m/s | -51.3°C | 0% | 0hPa | 4.6V | 00:00:00 | 00:00:00 | 00:00:00 | |
| GOEST3-10 | 2026-08-31 10:25:54 | 50.94955 | 8.96312 | 343° | 22km/h | 19954m | 3.5m/s | 0°C | 0% | 0hPa | 4.6V | 00:00:00 | 00:00:00 | 00:00:00 | |
| DO2JMG | 2026-08-31 10:25:53 | 50.94950 | 8.96315 | 341° | 18km/h | 19954m | 3.5m/s | -51.3°C | 0% | 0hPa | 4.6V | 00:00:00 | 00:00:00 | 00:00:00 | |
| AA1-15 | 2026-08-31 10:25:51 | 50.94935 | 8.96322 | 349° | 24km/h | 19943m | 3.5m/s | -51.4°C | 0% | 0hPa | 4.6V | 00:00:00 | 00:00:00 | 00:00:00 | |
| GOEST3-10 | 2026-08-31 10:25:49 | 50.94929 | 8.96324 | 354° | 22km/h | 19935m | 3.9m/s | 0°C | 0% | 0hPa | 4.6V | 00:00:00 | 00:00:00 | 00:00:00 | |
| DF8AY | 2026-08-31 10:25:47 | 50.94907 | 8.96324 | 7° | 24km/h | 19924m | 3.3m/s | -51.7°C | 0% | 0hPa | 4.6V | 00:00:00 | 00:00:00 | 00:00:00 | |
| DL1XH-15 | 2026-08-31 10:25:46 | 50.94886 | 8.96319 | 0° | 22km/h | 19904m | 2.7m/s | 0°C | 0% | 0hPa | 0V | 00:00:00 | 00:00:00 | 00:00:00 | |
| DD1CC2-15 | 2026-08-31 10:25:45 | 50.94907 | 8.96324 | 8° | 24km/h | 19924m | 3.3m/s | -45.4°C | 0% | 0hPa | 4.6V | 00:00:00 | 00:00:00 | 00:00:00 | |
| GOEST3-10 | 2026-08-31 10:25:44 | 50.94901 | 8.96323 | 12° | 20km/h | 19916m | 3.6m/s | 0°C | 0% | 0hPa | 4.6V | 00:00:00 | 00:00:00 | 00:00:00 | |
| DL1XH-west | 2026-08-31 10:25:43 | 50.94896 | 8.96321 | 11° | 20km/h | 19915m | 3.7m/s | -51.9°C | 0% | 0hPa | 4.6V | 00:00:00 | 00:00:00 | 00:00:00 | |
| DO2JMG | 2026-08-31 10:25:41 | 50.94886 | 8.96319 | 1° | 22km/h | 19908m | 3.7m/s | -51.9°C | 0% | 0hPa | 4.6V | 00:00:00 | 00:00:00 | 00:00:00 | |
| AA1-15 | 2026-08-31 10:25:40 | 50.94876 | 8.96319 | 357° | 18km/h | 19901m | 4.5m/s | -52°C | 0% | 0hPa | 4.6V | 00:00:00 | 00:00:00 | 00:00:00 | |
| GOEST3-10 | 2026-08-31 10:25:39 | 50.94875 | 8.96319 | 357° | 16km/h | 19897m | 3.6m/s | 0°C | 0% | 0hPa | 4.6V | 00:00:00 | 00:00:00 | 00:00:00 | |
| DF1GD-15 | 2026-08-31 10:25:38 | 50.94871 | 8.96319 | 358° | 15km/h | 19897m | 3.7m/s | -52.0°C | 0% | 0hPa | 4.6V | 00:00:00 | 00:00:00 | 00:00:00 | |
| DJTTGO | 2026-08-31 10:25:37 | 50.94868 | 8.96320 | 358° | 15km/h | 19893m | 3.6m/s | -52.0°C | 0% | 0hPa | 4.6V | 00:00:00 | 00:00:00 | 00:00:00 | |
| DF8AY | 2026-08-31 10:25:36 | 50.94859 | 8.96321 | 1° | 20km/h | 19885m | 3m/s | -52°C | 0% | 0hPa | 4.6V | 00:00:00 | 00:00:00 | 00:00:00 | |
| DO3DL | 2026-08-31 10:25:35 | 50.94859 | 8.96321 | 2° | 20km/h | 19885m | 3.0m/s | -52.0°C | 0% | 0hPa | 4.6V | 00:00:00 | 00:00:00 | 00:00:00 | |
| GOEST3-10 | 2026-08-31 10:25:34 | 50.94854 | 8.96321 | 11° | 18km/h | 19878m | 4.3m/s | 0°C | 0% | 0hPa | 4.6V | 00:00:00 | 00:00:00 | 00:00:00 | |
| DL1XH-west | 2026-08-31 10:25:33 | 50.94845 | 8.96316 | 29° | 18km/h | 19874m | 2.8m/s | -52.1°C | 0% | 0hPa | 4.6V | 00:00:00 | 00:00:00 | 00:00:00 | |
| DL3OBA | 2026-08-31 10:25:31 | 50.94840 | 8.96313 | 29° | 18km/h | 19871m | 4.6m/s | -52.1°C | 0% | 0hPa | 4.6V | 00:00:00 | 00:00:00 | 00:00:00 | |
| AA1-15 | 2026-08-31 10:25:29 | 50.94829 | 8.96304 | 24° | 15km/h | 19859m | 4.5m/s | -52°C | 0% | 0hPa | 4.6V | 00:00:00 | 00:00:00 | 00:00:00 | |
| DO2JMG | 2026-08-31 10:25:27 | 50.94824 | 8.96300 | 14° | 11km/h | 19851m | 4.3m/s | -51.9°C | 0% | 0hPa | 4.6V | 00:00:00 | 00:00:00 | 00:00:00 | |
| DF8AY | 2026-08-31 10:25:25 | 50.94817 | 8.96299 | 15° | 15km/h | 19844m | 3m/s | -52°C | 0% | 0hPa | 4.6V | 00:00:00 | 00:00:00 | 00:00:00 | |
| GOEST3-10 | 2026-08-31 10:25:24 | 50.94817 | 8.96299 | 16° | 13km/h | 19841m | 4.2m/s | 0°C | 0% | 0hPa | 4.6V | 00:00:00 | 00:00:00 | 00:00:00 | |
| DL1XH-west | 2026-08-31 10:25:22 | 50.94811 | 8.96295 | 38° | 13km/h | 19837m | 3.4m/s | -51.9°C | 0% | 0hPa | 4.6V | 00:00:00 | 00:00:00 | 00:00:00 | |
| DO3DL | 2026-08-31 10:25:21 | 50.94808 | 8.96292 | 43° | 13km/h | 19834m | 3.0m/s | -51.8°C | 0% | 0hPa | 4.6V | 00:00:00 | 00:00:00 | 00:00:00 | |
| GOEST3-10 | 2026-08-31 10:25:19 | 50.94803 | 8.96285 | 34° | 11km/h | 19819m | 4.1m/s | 0°C | 0% | 0hPa | 4.6V | 00:00:00 | 00:00:00 | 00:00:00 | |
| AA1-15 | 2026-08-31 10:25:18 | 50.94798 | 8.96280 | 38° | 11km/h | 19818m | 4.1m/s | -51.8°C | 0% | 0hPa | 4.6V | 00:00:00 | 00:00:00 | 00:00:00 | |
| DL1XH-15 | 2026-08-31 10:25:16 | 50.94784 | 8.96264 | 53° | 13km/h | 19793m | 3.5m/s | 0°C | 0% | 0hPa | 0V | 00:00:00 | 00:00:00 | 00:00:00 | |
| DO2JMG | 2026-08-31 10:25:16 | 50.94794 | 8.96275 | 30° | 11km/h | 19812m | 4.2m/s | -51.8°C | 0% | 0hPa | 4.6V | 00:00:00 | 00:00:00 | 00:00:00 | |
| DF8AY | 2026-08-31 10:25:14 | 50.94789 | 8.96271 | 32° | 13km/h | 19805m | 2.8m/s | -51.7°C | 0% | 0hPa | 4.6V | 00:00:00 | 00:00:00 | 00:00:00 | |
| DL1XH-west | 2026-08-31 10:25:12 | 50.94784 | 8.96264 | 54° | 13km/h | 19797m | 3.8m/s | -51.6°C | 0% | 0hPa | 4.6V | 00:00:00 | 00:00:00 | 00:00:00 | |
| DL3OBA | 2026-08-31 10:25:10 | 50.94781 | 8.96260 | 56° | 15km/h | 19794m | 3.5m/s | -51.7°C | 0% | 0hPa | 4.6V | 00:00:00 | 00:00:00 | 00:00:00 | |
| DM7RM-13 | 2026-08-31 10:25:09 | 50.94777 | 8.96249 | 52° | 16km/h | 19786m | 3.5m/s | -45.4°C | 0% | 0hPa | 4.6V | 00:00:00 | 00:00:00 | 00:00:00 | |
| AA1-15 | 2026-08-31 10:25:08 | 50.94774 | 8.96244 | 54° | 18km/h | 19782m | 4.7m/s | -51.8°C | 0% | 0hPa | 4.6V | 00:00:00 | 00:00:00 | 00:00:00 | |
| DL1XH-15 | 2026-08-31 10:25:06 | 50.94759 | 8.96213 | 63° | 16km/h | 19755m | 3.9m/s | 0°C | 0% | 0hPa | 0V | 00:00:00 | 00:00:00 | 00:00:00 | |
| DO2JMG | 2026-08-31 10:25:05 | 50.94766 | 8.96228 | 46° | 16km/h | 19770m | 3.5m/s | -51.9°C | 0% | 0hPa | 4.6V | 00:00:00 | 00:00:00 | 00:00:00 | |
| DC4HF-4 | 2026-08-31 10:25:04 | 50.94763 | 8.96224 | 50° | 16km/h | 19767m | 3.5m/s | -52.0°C | -1.0% | -1.0hPa | 4.6V | 00:00:00 | 00:00:00 | 00:00:00 | |
| THATR2-17 | 2026-08-31 10:25:03 | 50.94716 | 8.96052 | 77° | 24km/h | 19684m | 0m/s | 0°C | 0% | 0hPa | 4.6V | 00:00:00 | 00:00:00 | 00:00:00 | |
| EDDB2-11 | 2026-08-31 10:25:02 | 50.94758 | 8.96213 | 66° | 16km/h | 19759m | 3.2m/s | -52.7°C | -1.0% | -1.0hPa | 4.6V | 00:00:00 | 00:00:00 | 00:00:00 | |
| DL1XH-west | 2026-08-31 10:25:01 | 50.94757 | 8.96206 | 64° | 18km/h | 19755m | 3.9m/s | -52°C | 0% | 0hPa | 4.6V | 00:00:00 | 00:00:00 | 00:00:00 | |
| GOEST3-10 | 2026-08-31 10:24:59 | 50.94755 | 8.96200 | 63° | 18km/h | 19744m | 3.9m/s | 0°C | 0% | 0hPa | 4.6V | 00:00:00 | 00:00:00 | 00:00:00 | |
| DO3MHA-11 | 2026-08-31 10:24:58 | 50.94752 | 8.96193 | 58° | 20km/h | 19744m | 3.9m/s | 0°C | 0% | 0hPa | 4.6V | 00:00:00 | 00:00:00 | 00:00:00 | |
| AA1-15 | 2026-08-31 10:24:56 | 50.94747 | 8.96180 | 68° | 18km/h | 19740m | 3.9m/s | -51.9°C | 0% | 0hPa | 4.6V | 00:00:00 | 00:00:00 | 00:00:00 | |
| DO2JMG | 2026-08-31 10:24:54 | 50.94744 | 8.96166 | 66° | 18km/h | 19732m | 4.6m/s | -51.9°C | 0% | 0hPa | 4.6V | 00:00:00 | 00:00:00 | 00:00:00 | |
| DF8AY | 2026-08-31 10:24:53 | 50.94740 | 8.96152 | 69° | 20km/h | 19725m | 3.6m/s | -51.9°C | 0% | 0hPa | 4.6V | 00:00:00 | 00:00:00 | 00:00:00 | |
| DL1XH-west | 2026-08-31 10:24:50 | 50.94735 | 8.96127 | 68° | 24km/h | 19714m | 3.8m/s | -51.9°C | 0% | 0hPa | 4.6V | 00:00:00 | 00:00:00 | 00:00:00 | |
| DL3OBA | 2026-08-31 10:24:49 | 50.94734 | 8.96127 | 69° | 24km/h | 19714m | 3.8m/s | -51.9°C | 0% | 0hPa | 4.6V | 00:00:00 | 00:00:00 | 00:00:00 | |
| DO3MHA-11 | 2026-08-31 10:24:48 | 50.94732 | 8.96118 | 62° | 26km/h | 19707m | 2.9m/s | 0°C | 0% | 0hPa | 4.6V | 00:00:00 | 00:00:00 | 00:00:00 | |
| DF1GD-15 | 2026-08-31 10:24:47 | 50.94726 | 8.96099 | 66° | 27km/h | 19703m | 4.3m/s | -52.0°C | 0% | 0hPa | 4.6V | 00:00:00 | 00:00:00 | 00:00:00 | |
| AA1-15 | 2026-08-31 10:24:46 | 50.94723 | 8.96089 | 70° | 27km/h | 19699m | 3.6m/s | -52.1°C | 0% | 0hPa | 4.6V | 00:00:00 | 00:00:00 | 00:00:00 | |
| DM7RM-13 | 2026-08-31 10:24:45 | 50.94723 | 8.96089 | 71° | 27km/h | 19700m | 3.6m/s | -45.7°C | 0% | 0hPa | 4.6V | 00:00:00 | 00:00:00 | 00:00:00 | |
| DD1CC2-15 | 2026-08-31 10:24:44 | 50.94721 | 8.96079 | 74° | 26km/h | 19696m | 4.4m/s | -45.8°C | 0% | 0hPa | 4.6V | 00:00:00 | 00:00:00 | 00:00:00 | |
| DO2JMG | 2026-08-31 10:24:43 | 50.94720 | 8.96070 | 73° | 24km/h | 19691m | 3.8m/s | -52.2°C | 0% | 0hPa | 4.6V | 00:00:00 | 00:00:00 | 00:00:00 | |
| DO3DL | 2026-08-31 10:24:43 | 50.94720 | 8.96070 | 74° | 24km/h | 19692m | 3.8m/s | -52.2°C | 0% | 0hPa | 4.6V | 00:00:00 | 00:00:00 | 00:00:00 | |
| DF8AY | 2026-08-31 10:24:42 | 50.94716 | 8.96052 | 78° | 26km/h | 19684m | 3.8m/s | -52.3°C | 0% | 0hPa | 4.6V | 00:00:00 | 00:00:00 | 00:00:00 | |
| GOEST3-10 | 2026-08-31 10:24:41 | 50.94716 | 8.96051 | 78° | 27km/h | 19681m | 2.9m/s | 0°C | 0% | 0hPa | 4.6V | 00:00:00 | 00:00:00 | 00:00:00 | |
| DJTTGO | 2026-08-31 10:24:40 | 50.94715 | 8.96041 | 78° | 27km/h | 19681m | 3.0m/s | -52.3°C | 0% | 0hPa | 4.6V | 00:00:00 | 00:00:00 | 00:00:00 | |
| DL1XH-west | 2026-08-31 10:24:39 | 50.94713 | 8.96031 | 69° | 27km/h | 19677m | 3.9m/s | -52.3°C | 0% | 0hPa | 4.6V | 00:00:00 | 00:00:00 | 00:00:00 | |
| DL1XH-15 | 2026-08-31 10:24:37 | 50.94687 | 8.95958 | 60° | 33km/h | 19646m | 3.8m/s | 0°C | 0% | 0hPa | 0V | 00:00:00 | 00:00:00 | 00:00:00 | |
| GOEST3-10 | 2026-08-31 10:24:36 | 50.94702 | 8.96003 | 57° | 31km/h | 19654m | 4.3m/s | 0°C | 0% | 0hPa | 4.6V | 00:00:00 | 00:00:00 | 00:00:00 | |
| AA1-15 | 2026-08-31 10:24:35 | 50.94695 | 8.95982 | 64° | 33km/h | 19658m | 2.8m/s | -52.3°C | 0% | 0hPa | 4.6V | 00:00:00 | 00:00:00 | 00:00:00 | |
| DO2JMG | 2026-08-31 10:24:32 | 50.94687 | 8.95958 | 60° | 33km/h | 19650m | 3.2m/s | -52.3°C | 0% | 0hPa | 4.6V | 00:00:00 | 00:00:00 | 00:00:00 | |
| DF8AY | 2026-08-31 10:24:31 | 50.94680 | 8.95935 | 69° | 33km/h | 19643m | 4m/s | -52.3°C | 0% | 0hPa | 4.6V | 00:00:00 | 00:00:00 | 00:00:00 | |
| DO3DL | 2026-08-31 10:24:30 | 50.94680 | 8.95935 | 70° | 33km/h | 19643m | 4.0m/s | -52.3°C | 0% | 0hPa | 4.6V | 00:00:00 | 00:00:00 | 00:00:00 | |
| DL3OBA | 2026-08-31 10:24:29 | 50.94677 | 8.95923 | 74° | 31km/h | 19639m | 3.0m/s | -52.3°C | 0% | 0hPa | 4.6V | 00:00:00 | 00:00:00 | 00:00:00 | |
| DL1XH-west | 2026-08-31 10:24:28 | 50.94675 | 8.95911 | 71° | 29km/h | 19636m | 4.4m/s | -52.4°C | 0% | 0hPa | 4.6V | 00:00:00 | 00:00:00 | 00:00:00 | |
| DO3MHA-11 | 2026-08-31 10:24:28 | 50.94675 | 8.95911 | 71° | 31km/h | 19632m | 3.4m/s | 0°C | 0% | 0hPa | 0V | 00:00:00 | 00:00:00 | 00:00:00 | |
| DL1XH-15 | 2026-08-31 10:24:27 | 50.94659 | 8.95844 | 71° | 33km/h | 19610m | 3.8m/s | 0°C | 0% | 0hPa | 0V | 00:00:00 | 00:00:00 | 00:00:00 | |
| GOEST3-10 | 2026-08-31 10:24:26 | 50.94669 | 8.95890 | 68° | 31km/h | 19614m | 3.4m/s | 0°C | 0% | 0hPa | 4.6V | 00:00:00 | 00:00:00 | 00:00:00 | |
| DF1GD-15 | 2026-08-31 10:24:25 | 50.94667 | 8.95880 | 72° | 29km/h | 19625m | 4.0m/s | -52.4°C | 0% | 0hPa | 4.6V | 00:00:00 | 00:00:00 | 00:00:00 | |
| AA1-15 | 2026-08-31 10:24:24 | 50.94664 | 8.95868 | 73° | 31km/h | 19621m | 3.2m/s | -52.3°C | 0% | 0hPa | 4.6V | 00:00:00 | 00:00:00 | 00:00:00 | |
| DM7RM-13 | 2026-08-31 10:24:24 | 50.94664 | 8.95868 | 74° | 31km/h | 19621m | 3.2m/s | -46.0°C | 0% | 0hPa | 4.6V | 00:00:00 | 00:00:00 | 00:00:00 | |
| DD1CC2-15 | 2026-08-31 10:24:23 | 50.94662 | 8.95856 | 72° | 33km/h | 19618m | 4.3m/s | -46.1°C | 0% | 0hPa | 4.6V | 00:00:00 | 00:00:00 | 00:00:00 | |
| DO2JMG | 2026-08-31 10:24:22 | 50.94656 | 8.95832 | 72° | 33km/h | 19610m | 3.8m/s | -52.4°C | 0% | 0hPa | 4.6V | 00:00:00 | 00:00:00 | 00:00:00 | |
| GOEST3-10 | 2026-08-31 10:24:20 | 50.94654 | 8.95818 | 83° | 27km/h | 19603m | 3.6m/s | 0°C | 0% | 0hPa | 4.6V | 00:00:00 | 00:00:00 | 00:00:00 | |
| DF8AY | 2026-08-31 10:24:20 | 50.94653 | 8.95807 | 82° | 29km/h | 19602m | 3.6m/s | -52.3°C | 0% | 0hPa | 4.6V | 00:00:00 | 00:00:00 | 00:00:00 | |
| HSKMA3-T | 2026-08-31 10:24:18 | 50.94651 | 8.95786 | 80° | 24km/h | 19594m | 3.4m/s | -52.3°C | 0% | 0hPa | 4.6V | 00:00:00 | 00:00:00 | 00:00:00 | |
| DO3MHA-11 | 2026-08-31 10:24:18 | 50.94652 | 8.95795 | 81° | 27km/h | 19594m | 3.3m/s | 0°C | 0% | 0hPa | 4.6V | 00:00:00 | 00:00:00 | 00:00:00 | |
| DO3DL | 2026-08-31 10:24:17 | 50.94651 | 8.95786 | 81° | 24km/h | 19594m | 3.4m/s | -52.3°C | 0% | 0hPa | 4.6V | 00:00:00 | 00:00:00 | 00:00:00 | |
| DJTTGO | 2026-08-31 10:24:16 | 50.94649 | 8.95776 | 84° | 24km/h | 19591m | 3.4m/s | -52.3°C | 0% | 0hPa | 4.6V | 00:00:00 | 00:00:00 | 00:00:00 | |
| GOEST3-10 | 2026-08-31 10:24:15 | 50.94649 | 8.95766 | 87° | 27km/h | 19580m | 3.8m/s | 0°C | 0% | 0hPa | 4.6V | 00:00:00 | 00:00:00 | 00:00:00 | |
| DL1XH-west | 2026-08-31 10:24:13 | 50.94649 | 8.95745 | 85° | 27km/h | 19579m | 3.8m/s | -52.3°C | 0% | 0hPa | 4.6V | 00:00:00 | 00:00:00 | 00:00:00 | |
| DO2JMG | 2026-08-31 10:24:11 | 50.94646 | 8.95722 | 75° | 29km/h | 19572m | 2.9m/s | -52.3°C | 0% | 0hPa | 4.6V | 00:00:00 | 00:00:00 | 00:00:00 | |
| DO8TBO-1 | 2026-08-31 10:24:11 | 50.94646 | 8.95722 | 75° | 33km/h | 19569m | 4.0m/s | 0°C | 0% | 0hPa | 4.6V | 00:00:00 | 00:00:00 | 00:00:00 | |
| DO3DL | 2026-08-31 10:24:10 | 50.94644 | 8.95710 | 78° | 29km/h | 19569m | 4.1m/s | -52.3°C | 0% | 0hPa | 4.6V | 00:00:00 | 00:00:00 | 00:00:00 | |
| DF8AY | 2026-08-31 10:24:09 | 50.94642 | 8.95688 | 89° | 29km/h | 19561m | 3.6m/s | -52.3°C | 0% | 0hPa | 4.6V | 00:00:00 | 00:00:00 | 00:00:00 | |
| DO3MHA-11 | 2026-08-31 10:24:08 | 50.94642 | 8.95688 | 89° | 31km/h | 19557m | 4.5m/s | 0°C | 0% | 0hPa | 0V | 00:00:00 | 00:00:00 | 00:00:00 | |
| DL1XH-15 | 2026-08-31 10:24:07 | 50.94638 | 8.95615 | 80° | 33km/h | 19534m | 4m/s | 0°C | 0% | 0hPa | 0V | 00:00:00 | 00:00:00 | 00:00:00 | |
| HSKMA3-T | 2026-08-31 10:24:07 | 50.94641 | 8.95665 | 83° | 29km/h | 19553m | 3.5m/s | -52.2°C | 0% | 0hPa | 4.6V | 00:00:00 | 00:00:00 | 00:00:00 | |
| DL3OBA | 2026-08-31 10:24:06 | 50.94641 | 8.95665 | 84° | 29km/h | 19553m | 3.5m/s | -52.2°C | 0% | 0hPa | 4.6V | 00:00:00 | 00:00:00 | 00:00:00 | |
| DF1GD-15 | 2026-08-31 10:24:05 | 50.94640 | 8.95653 | 85° | 31km/h | 19549m | 4.2m/s | -52.2°C | 0% | 0hPa | 4.6V | 00:00:00 | 00:00:00 | 00:00:00 | |
| DO3DL | 2026-08-31 10:24:04 | 50.94640 | 8.95641 | 87° | 31km/h | 19545m | 4.0m/s | -52.2°C | 0% | 0hPa | 4.6V | 00:00:00 | 00:00:00 | 00:00:00 | |
| GOEST3-10 | 2026-08-31 10:24:03 | 50.94639 | 8.95628 | 85° | 33km/h | 19542m | 2.6m/s | 0°C | 0% | 0hPa | 4.6V | 00:00:00 | 00:00:00 | 00:00:00 | |
| DL1XH-west | 2026-08-31 10:24:02 | 50.94638 | 8.95615 | 80° | 33km/h | 19538m | 4.3m/s | -52.1°C | 0% | 0hPa | 4.6V | 00:00:00 | 00:00:00 | 00:00:00 | |
| DO2JMG | 2026-08-31 10:24:00 | 50.94633 | 8.95589 | 72° | 35km/h | 19530m | 3.4m/s | -52.1°C | 0% | 0hPa | 4.6V | 00:00:00 | 00:00:00 | 00:00:00 | |
| DF8AY | 2026-08-31 10:23:59 | 50.94629 | 8.95563 | 77° | 33km/h | 19522m | 3.5m/s | -52.2°C | 0% | 0hPa | 4.6V | 00:00:00 | 00:00:00 | 00:00:00 | |
| DO3MHA-11 | 2026-08-31 10:23:58 | 50.94629 | 8.95562 | 78° | 33km/h | 19518m | 4.5m/s | 0°C | 0% | 0hPa | 0V | 00:00:00 | 00:00:00 | 00:00:00 | |
| DL1XH-15 | 2026-08-31 10:23:57 | 50.94618 | 8.95489 | 75° | 35km/h | 19499m | 4.7m/s | 0°C | 0% | 0hPa | 0V | 00:00:00 | 00:00:00 | 00:00:00 | |
| HSKMA3-T | 2026-08-31 10:23:57 | 50.94625 | 8.95538 | 73° | 29km/h | 19514m | 3.6m/s | -52.1°C | 0% | 0hPa | 4.6V | 00:00:00 | 00:00:00 | 00:00:00 | |
| GOEST3-10 | 2026-08-31 10:23:53 | 50.94619 | 8.95502 | 80° | 35km/h | 19500m | 4.6m/s | 0°C | 0% | 0hPa | 4.6V | 00:00:00 | 00:00:00 | 00:00:00 | |
| AA1-15 | 2026-08-31 10:23:52 | 50.94615 | 8.95475 | 71° | 35km/h | 19495m | 3.3m/s | -51.9°C | 0% | 0hPa | 4.6V | 00:00:00 | 00:00:00 | 00:00:00 | |
| DM7RM-13 | 2026-08-31 10:23:51 | 50.94615 | 8.95475 | 72° | 35km/h | 19496m | 3.3m/s | -45.6°C | 0% | 0hPa | 4.6V | 00:00:00 | 00:00:00 | 00:00:00 | |
| DO2JMG | 2026-08-31 10:23:49 | 50.94609 | 8.95448 | 73° | 35km/h | 19488m | 4.2m/s | -51.9°C | 0% | 0hPa | 4.6V | 00:00:00 | 00:00:00 | 00:00:00 | |
| DF8AY | 2026-08-31 10:23:48 | 50.94604 | 8.95422 | 72° | 33km/h | 19480m | 4.6m/s | -51.9°C | 0% | 0hPa | 4.6V | 00:00:00 | 00:00:00 | 00:00:00 | |
| DO3MHA-11 | 2026-08-31 10:23:48 | 50.94607 | 8.95433 | 67° | 35km/h | 19481m | 4.5m/s | 0°C | 0% | 0hPa | 4.6V | 00:00:00 | 00:00:00 | 00:00:00 | |
| HSKMA3-T | 2026-08-31 10:23:46 | 50.94598 | 8.95398 | 68° | 33km/h | 19473m | 3.5m/s | -51.9°C | 0% | 0hPa | 4.6V | 00:00:00 | 00:00:00 | 00:00:00 | |
| DF1GD-15 | 2026-08-31 10:23:44 | 50.94595 | 8.95385 | 72° | 33km/h | 19469m | 4.3m/s | -51.8°C | 0% | 0hPa | 4.6V | 00:00:00 | 00:00:00 | 00:00:00 | |
| DD1CC2-15 | 2026-08-31 10:23:42 | 50.94590 | 8.95359 | 73° | 35km/h | 19462m | 4.4m/s | -45.5°C | 0% | 0hPa | 4.6V | 00:00:00 | 00:00:00 | 00:00:00 | |
| AA1-15 | 2026-08-31 10:23:41 | 50.94584 | 8.95332 | 70° | 35km/h | 19454m | 3.9m/s | -51.8°C | 0% | 0hPa | 4.6V | 00:00:00 | 00:00:00 | 00:00:00 | |
| GOEST3-10 | 2026-08-31 10:23:40 | 50.94584 | 8.95332 | 71° | 37km/h | 19450m | 4.0m/s | 0°C | 0% | 0hPa | 4.6V | 00:00:00 | 00:00:00 | 00:00:00 | |
| DO2JMG | 2026-08-31 10:23:38 | 50.94579 | 8.95305 | 73° | 37km/h | 19446m | 3.4m/s | -51.9°C | 0% | 0hPa | 4.6V | 00:00:00 | 00:00:00 | 00:00:00 | |
| DF8AY | 2026-08-31 10:23:37 | 50.94572 | 8.95278 | 65° | 37km/h | 19438m | 3.3m/s | -51.9°C | 0% | 0hPa | 4.6V | 00:00:00 | 00:00:00 | 00:00:00 | |
| DL1XH-west | 2026-08-31 10:23:35 | 50.94569 | 8.95264 | 67° | 37km/h | 19434m | 4.1m/s | -51.9°C | 0% | 0hPa | 4.6V | 00:00:00 | 00:00:00 | 00:00:00 | |
| HSKMA3-T | 2026-08-31 10:23:35 | 50.94565 | 8.95251 | 71° | 35km/h | 19430m | 3.8m/s | -51.9°C | 0% | 0hPa | 4.6V | 00:00:00 | 00:00:00 | 00:00:00 | |
| DO2SHX-10 | 2026-08-31 10:23:34 | 50.94565 | 8.95251 | 72° | 37km/h | 19396m | 4.5m/s | 0°C | 0% | 0hPa | 4.6V | 00:00:00 | 00:00:00 | 00:00:00 | |
| DO3DL | 2026-08-31 10:23:32 | 50.94560 | 8.95226 | 75° | 31km/h | 19423m | 4.6m/s | -51.9°C | 0% | 0hPa | 4.6V | 00:00:00 | 00:00:00 | 00:00:00 | |
| AA1-15 | 2026-08-31 10:23:31 | 50.94556 | 8.95202 | 76° | 31km/h | 19415m | 3.9m/s | -52°C | 0% | 0hPa | 4.6V | 00:00:00 | 00:00:00 | 00:00:00 | |
| GOEST3-10 | 2026-08-31 10:23:30 | 50.94556 | 8.95202 | 77° | 31km/h | 19412m | 3.7m/s | 0°C | 0% | 0hPa | 4.6V | 00:00:00 | 00:00:00 | 00:00:00 | |
| DO2JMG | 2026-08-31 10:23:28 | 50.94553 | 8.95176 | 80° | 35km/h | 19408m | 3.4m/s | -52°C | 0% | 0hPa | 4.6V | 00:00:00 | 00:00:00 | 00:00:00 | |
| DJTTGO | 2026-08-31 10:23:28 | 50.94553 | 8.95176 | 81° | 35km/h | 19408m | 3.4m/s | -52.0°C | 0% | 0hPa | 4.6V | 00:00:00 | 00:00:00 | 00:00:00 | |
| DF8AY | 2026-08-31 10:23:26 | 50.94545 | 8.95133 | 73° | 40km/h | 19396m | 4.5m/s | -51.9°C | 0% | 0hPa | 4.6V | 00:00:00 | 00:00:00 | 00:00:00 | |
| DO3DL | 2026-08-31 10:23:25 | 50.94546 | 8.95133 | 74° | 40km/h | 19396m | 4.5m/s | -51.9°C | 0% | 0hPa | 0V | 00:00:00 | 00:00:00 | 00:00:00 | |
| DL1XH-15 | 2026-08-31 10:23:24 | 50.94530 | 8.95050 | 81° | 33km/h | 19369m | 3.3m/s | 0°C | 0% | 0hPa | 0V | 00:00:00 | 00:00:00 | 00:00:00 | |
| DL1XH-west | 2026-08-31 10:23:23 | 50.94540 | 8.95103 | 73° | 38km/h | 19389m | 4.5m/s | -51.8°C | 0% | 0hPa | 4.6V | 00:00:00 | 00:00:00 | 00:00:00 | |
| DO2SHX-10 | 2026-08-31 10:23:23 | 50.94540 | 8.95103 | 73° | 38km/h | 19373m | 3.5m/s | 0°C | 0% | 0hPa | 4.6V | 00:00:00 | 00:00:00 | 00:00:00 | |
| DD1CC2-15 | 2026-08-31 10:23:22 | 50.94537 | 8.95089 | 71° | 37km/h | 19385m | 3.6m/s | -45.4°C | 0% | 0hPa | 4.6V | 00:00:00 | 00:00:00 | 00:00:00 | |
| AA1-15 | 2026-08-31 10:23:20 | 50.94530 | 8.95050 | 81° | 33km/h | 19373m | 3.6m/s | -51.8°C | 0% | 0hPa | 4.6V | 00:00:00 | 00:00:00 | 00:00:00 | |
| DO2SHX-10 | 2026-08-31 10:23:19 | 50.94530 | 8.95050 | 82° | 37km/h | 19333m | 2.7m/s | 0°C | 0% | 0hPa | 4.6V | 00:00:00 | 00:00:00 | 00:00:00 | |
| DL3OBA | 2026-08-31 10:23:18 | 50.94529 | 8.95037 | 83° | 33km/h | 19369m | 3.3m/s | -51.8°C | 0% | 0hPa | 4.6V | 00:00:00 | 00:00:00 | 00:00:00 | |
| DF8AY | 2026-08-31 10:23:16 | 50.94522 | 8.94995 | 73° | 38km/h | 19357m | 4.7m/s | -51.8°C | 0% | 0hPa | 4.6V | 00:00:00 | 00:00:00 | 00:00:00 | |
| DL1XH-15 | 2026-08-31 10:23:14 | 50.94501 | 8.94901 | 73° | 38km/h | 19330m | 4.3m/s | 0°C | 0% | 0hPa | 0V | 00:00:00 | 00:00:00 | 00:00:00 | |
| DL1XH-west | 2026-08-31 10:23:13 | 50.94512 | 8.94948 | 66° | 44km/h | 19345m | 3.8m/s | -51.9°C | 0% | 0hPa | 4.6V | 00:00:00 | 00:00:00 | 00:00:00 | |
| DO3DL | 2026-08-31 10:23:12 | 50.94512 | 8.94948 | 67° | 44km/h | 19345m | 3.8m/s | -51.9°C | 0% | 0hPa | 4.6V | 00:00:00 | 00:00:00 | 00:00:00 | |
| DM7RM-13 | 2026-08-31 10:23:10 | 50.94504 | 8.94917 | 72° | 40km/h | 19337m | 4.2m/s | -45.6°C | 0% | 0hPa | 4.6V | 00:00:00 | 00:00:00 | 00:00:00 | |
| AA1-15 | 2026-08-31 10:23:09 | 50.94499 | 8.94887 | 74° | 38km/h | 19330m | 4.3m/s | -52.1°C | 0% | 0hPa | 4.6V | 00:00:00 | 00:00:00 | 00:00:00 | |
| GOEST3-10 | 2026-08-31 10:23:08 | 50.94499 | 8.94887 | 74° | 40km/h | 19310m | 4.0m/s | 0°C | 0% | 0hPa | 4.6V | 00:00:00 | 00:00:00 | 00:00:00 | |
| DO2JMG | 2026-08-31 10:23:06 | 50.94493 | 8.94858 | 69° | 38km/h | 19322m | 3.3m/s | -52.2°C | 0% | 0hPa | 4.6V | 00:00:00 | 00:00:00 | 00:00:00 | |
| DF8AY | 2026-08-31 10:23:06 | 50.94486 | 8.94829 | 73° | 40km/h | 19314m | 3.7m/s | -52.3°C | 0% | 0hPa | 4.6V | 00:00:00 | 00:00:00 | 00:00:00 | |
| DL3AQ-11 | 2026-08-31 10:23:05 | 50.94486 | 8.94829 | 73° | 38km/h | 19314m | 3.7m/s | -52.3°C | -1.0% | -1.0hPa | 0V | 00:00:00 | 00:00:00 | 00:00:00 | |
| DL1XH-15 | 2026-08-31 10:23:04 | 50.94468 | 8.94751 | 71° | 42km/h | 19291m | 4.7m/s | 0°C | 0% | 0hPa | 0V | 00:00:00 | 00:00:00 | 00:00:00 | |
| DL1XH-west | 2026-08-31 10:23:02 | 50.94480 | 8.94798 | 68° | 42km/h | 19306m | 4.3m/s | -52.4°C | 0% | 0hPa | 4.6V | 00:00:00 | 00:00:00 | 00:00:00 | |
| DO3DL | 2026-08-31 10:22:59 | 50.94468 | 8.94751 | 72° | 42km/h | 19295m | 3.6m/s | -52.5°C | 0% | 0hPa | 4.6V | 00:00:00 | 00:00:00 | 00:00:00 | |
| AA1-15 | 2026-08-31 10:22:58 | 50.94461 | 8.94721 | 67° | 38km/h | 19287m | 3.8m/s | -52.6°C | 0% | 0hPa | 4.6V | 00:00:00 | 00:00:00 | 00:00:00 | |
| DL3OBA | 2026-08-31 10:22:57 | 50.94461 | 8.94721 | 68° | 38km/h | 19287m | 3.8m/s | -52.6°C | 0% | 0hPa | 4.6V | 00:00:00 | 00:00:00 | 00:00:00 | |
| DJTTGO | 2026-08-31 10:22:56 | 50.94457 | 8.94706 | 70° | 38km/h | 19283m | 4.3m/s | -52.5°C | 0% | 0hPa | 4.6V | 00:00:00 | 00:00:00 | 00:00:00 | |
| DO2JMG | 2026-08-31 10:22:55 | 50.94454 | 8.94692 | 71° | 40km/h | 19279m | 3.8m/s | -52.5°C | 0% | 0hPa | 4.6V | 00:00:00 | 00:00:00 | 00:00:00 | |
| DL1XH-15 | 2026-08-31 10:22:54 | 50.94425 | 8.94598 | 62° | 42km/h | 19248m | 3.6m/s | 0°C | 0% | 0hPa | 0V | 00:00:00 | 00:00:00 | 00:00:00 | |
| DF8AY | 2026-08-31 10:22:54 | 50.94446 | 8.94661 | 66° | 44km/h | 19271m | 4.7m/s | -52.5°C | 0% | 0hPa | 4.6V | 00:00:00 | 00:00:00 | 00:00:00 | |
| DO3DL | 2026-08-31 10:22:53 | 50.94446 | 8.94661 | 67° | 44km/h | 19271m | 4.7m/s | -52.5°C | 0% | 0hPa | 4.6V | 00:00:00 | 00:00:00 | 00:00:00 | |
| DL1XH-west | 2026-08-31 10:22:51 | 50.94436 | 8.94629 | 61° | 46km/h | 19263m | 4.3m/s | -52.4°C | 0% | 0hPa | 4.6V | 00:00:00 | 00:00:00 | 00:00:00 | |
| DM7RM-13 | 2026-08-31 10:22:50 | 50.94430 | 8.94614 | 63° | 44km/h | 19259m | 3.5m/s | -46.0°C | 0% | 0hPa | 4.6V | 00:00:00 | 00:00:00 | 00:00:00 | |
| AA1-15 | 2026-08-31 10:22:48 | 50.94415 | 8.94571 | 57° | 38km/h | 19248m | 3.6m/s | -52.3°C | 0% | 0hPa | 4.6V | 00:00:00 | 00:00:00 | 00:00:00 | |
| DO3DL | 2026-08-31 10:22:46 | 50.94410 | 8.94558 | 61° | 38km/h | 19244m | 4.5m/s | -52.3°C | 0% | 0hPa | 4.6V | 00:00:00 | 00:00:00 | 00:00:00 | |
| DO2JMG | 2026-08-31 10:22:45 | 50.94401 | 8.94529 | 65° | 42km/h | 19236m | 3.6m/s | -52.2°C | 0% | 0hPa | 4.6V | 00:00:00 | 00:00:00 | 00:00:00 | |
| DF8AY | 2026-08-31 10:22:44 | 50.94391 | 8.94500 | 59° | 44km/h | 19228m | 3.3m/s | -52.2°C | 0% | 0hPa | 4.6V | 00:00:00 | 00:00:00 | 00:00:00 | |
| DO3MHA-11 | 2026-08-31 10:22:42 | 50.94391 | 8.94500 | 59° | 42km/h | 19220m | 3.7m/s | 0°C | 0% | 0hPa | 4.6V | 00:00:00 | 00:00:00 | 00:00:00 | |
| DO8TBO-1 | 2026-08-31 10:22:41 | 50.94374 | 8.94455 | 57° | 44km/h | 19208m | 3.7m/s | 0°C | 0% | 0hPa | 4.6V | 00:00:00 | 00:00:00 | 00:00:00 | |
| DL1XH-west | 2026-08-31 10:22:40 | 50.94380 | 8.94470 | 60° | 42km/h | 19220m | 3.7m/s | -52.1°C | 0% | 0hPa | 4.6V | 00:00:00 | 00:00:00 | 00:00:00 | |
| DD1CC2-15 | 2026-08-31 10:22:40 | 50.94380 | 8.94470 | 61° | 42km/h | 19220m | 3.7m/s | -45.7°C | 0% | 0hPa | 4.6V | 00:00:00 | 00:00:00 | 00:00:00 | |
| DF5WG-10 | 2026-08-31 10:22:38 | 50.94369 | 8.94441 | 57° | 42km/h | 19157m | 4.3m/s | 0°C | 0% | 0hPa | 4.6V | 00:00:00 | 00:00:00 | 00:00:00 | |
| DL3OBA | 2026-08-31 10:22:37 | 50.94363 | 8.94427 | 55° | 44km/h | 19208m | 3.7m/s | -52.1°C | 0% | 0hPa | 4.6V | 00:00:00 | 00:00:00 | 00:00:00 | |
| AA1-15 | 2026-08-31 10:22:36 | 50.94356 | 8.94413 | 55° | 42km/h | 19205m | 3.7m/s | -52.1°C | 0% | 0hPa | 4.6V | 00:00:00 | 00:00:00 | 00:00:00 | |
| DO2JMG | 2026-08-31 10:22:34 | 50.94345 | 8.94385 | 60° | 40km/h | 19197m | 3.5m/s | -52°C | 0% | 0hPa | 4.6V | 00:00:00 | 00:00:00 | 00:00:00 | |
| DL1XH-15 | 2026-08-31 10:22:34 | 50.94315 | 8.94317 | 51° | 42km/h | 19168m | 3.9m/s | 0°C | 0% | 0hPa | 0V | 00:00:00 | 00:00:00 | 00:00:00 | |
| DF8AY | 2026-08-31 10:22:33 | 50.94334 | 8.94357 | 54° | 42km/h | 19188m | 3.8m/s | -51.8°C | 0% | 0hPa | 4.6V | 00:00:00 | 00:00:00 | 00:00:00 | |
| DJTTGO | 2026-08-31 10:22:32 | 50.94327 | 8.94343 | 55° | 42km/h | 19184m | 4.3m/s | -51.8°C | 0% | 0hPa | 4.6V | 00:00:00 | 00:00:00 | 00:00:00 | |
| DL1XH-west | 2026-08-31 10:22:30 | 50.94315 | 8.94317 | 52° | 42km/h | 19176m | 3.4m/s | -51.8°C | 0% | 0hPa | 4.6V | 00:00:00 | 00:00:00 | 00:00:00 | |
| DM7RM-13 | 2026-08-31 10:22:29 | 50.94315 | 8.94317 | 53° | 42km/h | 19176m | 3.4m/s | -45.4°C | 0% | 0hPa | 4.6V | 00:00:00 | 00:00:00 | 00:00:00 | |
| DO3DL | 2026-08-31 10:22:27 | 50.94301 | 8.94290 | 49° | 46km/h | 19168m | 3.9m/s | -51.7°C | 0% | 0hPa | 4.6V | 00:00:00 | 00:00:00 | 00:00:00 | |
| AA1-15 | 2026-08-31 10:22:26 | 50.94286 | 8.94263 | 53° | 44km/h | 19160m | 3.3m/s | -51.7°C | 0% | 0hPa | 4.6V | 00:00:00 | 00:00:00 | 00:00:00 | |
| GOEST3-10 | 2026-08-31 10:22:25 | 50.94286 | 8.94263 | 53° | 44km/h | 19157m | 4.3m/s | 0°C | 0% | 0hPa | 0V | 00:00:00 | 00:00:00 | 00:00:00 | |
| DL1XH-15 | 2026-08-31 10:22:24 | 50.94245 | 8.94182 | 49° | 40km/h | 19132m | 3.6m/s | 0°C | 0% | 0hPa | 0V | 00:00:00 | 00:00:00 | 00:00:00 | |
| DO2JMG | 2026-08-31 10:22:21 | 50.94258 | 8.94207 | 51° | 42km/h | 19144m | 4.2m/s | -51.8°C | 0% | 0hPa | 4.6V | 00:00:00 | 00:00:00 | 00:00:00 | |
| DO3DL | 2026-08-31 10:22:21 | 50.94251 | 8.94194 | 52° | 40km/h | 19141m | 3.5m/s | -51.8°C | 0% | 0hPa | 4.6V | 00:00:00 | 00:00:00 | 00:00:00 | |
| DL1XH-west | 2026-08-31 10:22:19 | 50.94245 | 8.94182 | 49° | 40km/h | 19137m | 4.6m/s | -51.7°C | 0% | 0hPa | 4.6V | 00:00:00 | 00:00:00 | 00:00:00 | |
| DO3MHA-11 | 2026-08-31 10:22:19 | 50.94245 | 8.94182 | 50° | 44km/h | 19133m | 3.6m/s | 0°C | 0% | 0hPa | 4.6V | 00:00:00 | 00:00:00 | 00:00:00 | |
| DL3OBA | 2026-08-31 10:22:16 | 50.94223 | 8.94144 | 51° | 44km/h | 19124m | 3.9m/s | -51.8°C | 0% | 0hPa | 4.6V | 00:00:00 | 00:00:00 | 00:00:00 | |
| AA1-15 | 2026-08-31 10:22:15 | 50.94209 | 8.94117 | 47° | 46km/h | 19116m | 4.7m/s | -51.8°C | 0% | 0hPa | 4.6V | 00:00:00 | 00:00:00 | 00:00:00 | |
| DO3DL | 2026-08-31 10:22:14 | 50.94209 | 8.94117 | 48° | 46km/h | 19116m | 4.7m/s | -51.8°C | 0% | 0hPa | 4.6V | 00:00:00 | 00:00:00 | 00:00:00 | |
| DO2JMG | 2026-08-31 10:22:11 | 50.94175 | 8.94068 | 44° | 42km/h | 19100m | 3.3m/s | -51.8°C | 0% | 0hPa | 4.6V | 00:00:00 | 00:00:00 | 00:00:00 | |
| DL1XH-west | 2026-08-31 10:22:09 | 50.94160 | 8.94045 | 41° | 42km/h | 19092m | 3.8m/s | -51.8°C | 0% | 0hPa | 4.7V | 00:00:00 | 00:00:00 | 00:00:00 | |
| DO3MHA-11 | 2026-08-31 10:22:08 | 50.94160 | 8.94045 | 42° | 42km/h | 19089m | 2.8m/s | 0°C | 0% | 0hPa | 4.7V | 00:00:00 | 00:00:00 | 00:00:00 | |
| DJTTGO | 2026-08-31 10:22:07 | 50.94152 | 8.94034 | 43° | 42km/h | 19089m | 2.8m/s | -51.8°C | 0% | 0hPa | 4.7V | 00:00:00 | 00:00:00 | 00:00:00 | |
| AA1-15 | 2026-08-31 10:22:05 | 50.94131 | 8.93998 | 51° | 42km/h | 19077m | 3m/s | -51.8°C | 0% | 0hPa | 4.7V | 00:00:00 | 00:00:00 | 00:00:00 | |
| DL1XH-15 | 2026-08-31 10:22:04 | 50.94094 | 8.93940 | 44° | 38km/h | 19054m | 4.7m/s | 0°C | 0% | 0hPa | 0V | 00:00:00 | 00:00:00 | 00:00:00 | |
| DO3DL | 2026-08-31 10:22:01 | 50.94108 | 8.93961 | 42° | 40km/h | 19066m | 4.0m/s | -51.8°C | 0% | 0hPa | 4.7V | 00:00:00 | 00:00:00 | 00:00:00 | |
| DO2JMG | 2026-08-31 10:22:00 | 50.94094 | 8.93940 | 44° | 38km/h | 19059m | 3.7m/s | -51.7°C | 0% | 0hPa | 4.7V | 00:00:00 | 00:00:00 | 00:00:00 | |
| DL1XH-west | 2026-08-31 10:21:58 | 50.94086 | 8.93929 | 42° | 40km/h | 19054m | 4.7m/s | -51.7°C | 0% | 0hPa | 4.7V | 00:00:00 | 00:00:00 | 00:00:00 | |
| HSKMA3-T | 2026-08-31 10:21:58 | 50.94079 | 8.93919 | 39° | 40km/h | 19050m | 3.9m/s | -51.7°C | 0% | 0hPa | 4.7V | 00:00:00 | 00:00:00 | 00:00:00 | |
| DO2SHX-10 | 2026-08-31 10:21:57 | 50.94079 | 8.93919 | 39° | 40km/h | 19042m | 4.1m/s | 0°C | 0% | 0hPa | 0V | 00:00:00 | 00:00:00 | 00:00:00 | |
| DL3OBA | 2026-08-31 10:21:56 | 50.94070 | 8.93909 | 41° | 40km/h | 19046m | 4.0m/s | -51.7°C | 0% | 0hPa | 0V | 00:00:00 | 00:00:00 | 00:00:00 | |
| DO3DL | 2026-08-31 10:21:55 | 50.94063 | 8.93898 | 43° | 40km/h | 19042m | 4.1m/s | -51.6°C | 0% | 0hPa | 0V | 00:00:00 | 00:00:00 | 00:00:00 | |
| DL1XH-15 | 2026-08-31 10:21:54 | 50.94019 | 8.93838 | 42° | 37km/h | 19018m | 3.6m/s | 0°C | 0% | 0hPa | 0V | 00:00:00 | 00:00:00 | 00:00:00 | |
| AA1-15 | 2026-08-31 10:21:54 | 50.94048 | 8.93877 | 40° | 40km/h | 19034m | 4.6m/s | -51.6°C | 0% | 0hPa | 4.7V | 00:00:00 | 00:00:00 | 00:00:00 | |
| DF2AP-13 | 2026-08-31 10:21:51 | 50.94033 | 8.93858 | 40° | 57km/h | 19022m | 3.7m/s | 0°C | 0% | 0hPa | 4.7V | 00:00:00 | 00:00:00 | 00:00:00 | |
| DO2JMG | 2026-08-31 10:21:49 | 50.94019 | 8.93838 | 43° | 37km/h | 19018m | 3.6m/s | -51.6°C | 0% | 0hPa | 4.7V | 00:00:00 | 00:00:00 | 00:00:00 | |
| DM7RM-13 | 2026-08-31 10:21:49 | 50.94012 | 8.93828 | 40° | 38km/h | 19014m | 4.3m/s | -45.2°C | 0% | 0hPa | 4.7V | 00:00:00 | 00:00:00 | 00:00:00 | |
| DO2SHX-10 | 2026-08-31 10:21:48 | 50.94012 | 8.93828 | 39° | 40km/h | 19010m | 3.6m/s | 0°C | 0% | 0hPa | 4.7V | 00:00:00 | 00:00:00 | 00:00:00 | |
| DL1XH-west | 2026-08-31 10:21:47 | 50.93995 | 8.93809 | 37° | 40km/h | 19006m | 4.9m/s | -51.6°C | 0% | 0hPa | 4.7V | 00:00:00 | 00:00:00 | 00:00:00 | |
| DO2SHX-10 | 2026-08-31 10:21:45 | 50.93987 | 8.93799 | 35° | 40km/h | 18998m | 3.8m/s | 0°C | 0% | 0hPa | 4.7V | 00:00:00 | 00:00:00 | 00:00:00 | |
| DF5WG-10 | 2026-08-31 10:21:44 | 50.93979 | 8.93790 | 35° | 38km/h | 18978m | 4.6m/s | 0°C | 0% | 0hPa | 4.7V | 00:00:00 | 00:00:00 | 00:00:00 | |
| AA1-15 | 2026-08-31 10:21:43 | 50.93962 | 8.93774 | 31° | 38km/h | 18990m | 4m/s | -51.7°C | 0% | 0hPa | 4.7V | 00:00:00 | 00:00:00 | 00:00:00 | |
| DO2SHX-10 | 2026-08-31 10:21:42 | 50.93962 | 8.93773 | 32° | 37km/h | 18986m | 4.4m/s | 0°C | 0% | 0hPa | 4.7V | 00:00:00 | 00:00:00 | 00:00:00 | |
| OE3JTB-15 | 2026-08-31 10:21:40 | 50.93947 | 8.93758 | 35° | 37km/h | 18978m | 4.6m/s | 0°C | 0% | 0hPa | 4.7V | 00:00:00 | 00:00:00 | 00:00:00 | |
| DF8AY | 2026-08-31 10:21:39 | 50.93932 | 8.93742 | 31° | 37km/h | 18973m | 4m/s | -51.5°C | 0% | 0hPa | 4.7V | 00:00:00 | 00:00:00 | 00:00:00 | |
| DL1XH-15 | 2026-08-31 10:21:37 | 50.93900 | 8.93709 | 30° | 40km/h | 18953m | 3.2m/s | 0°C | 0% | 0hPa | 0V | 00:00:00 | 00:00:00 | 00:00:00 | |
| DL1XH-west | 2026-08-31 10:21:36 | 50.93916 | 8.93726 | 35° | 37km/h | 18965m | 3.9m/s | -51.4°C | 0% | 0hPa | 4.7V | 00:00:00 | 00:00:00 | 00:00:00 | |
| DO2SHX-10 | 2026-08-31 10:21:36 | 50.93916 | 8.93726 | 36° | 38km/h | 18962m | 3.8m/s | 0°C | 0% | 0hPa | 4.7V | 00:00:00 | 00:00:00 | 00:00:00 | |
| DO3DL | 2026-08-31 10:21:35 | 50.93908 | 8.93717 | 36° | 38km/h | 18962m | 3.8m/s | -51.4°C | 0% | 0hPa | 4.7V | 00:00:00 | 00:00:00 | 00:00:00 | |
| DO2SHX-10 | 2026-08-31 10:21:33 | 50.93891 | 8.93700 | 31° | 40km/h | 18945m | 3.9m/s | 0°C | 0% | 0hPa | 4.7V | 00:00:00 | 00:00:00 | 00:00:00 | |
| AA1-15 | 2026-08-31 10:21:32 | 50.93875 | 8.93683 | 35° | 38km/h | 18945m | 4m/s | -51.2°C | 0% | 0hPa | 4.7V | 00:00:00 | 00:00:00 | 00:00:00 | |
| DO2SHX-10 | 2026-08-31 10:21:30 | 50.93867 | 8.93674 | 31° | 37km/h | 18933m | 3.8m/s | 0°C | 0% | 0hPa | 4.7V | 00:00:00 | 00:00:00 | 00:00:00 | |
| GOEST3-10 | 2026-08-31 10:21:29 | 50.93859 | 8.93667 | 31° | 37km/h | 18920m | 4.8m/s | 0°C | 0% | 0hPa | 4.7V | 00:00:00 | 00:00:00 | 00:00:00 | |
| DF8AY | 2026-08-31 10:21:28 | 50.93843 | 8.93653 | 31° | 35km/h | 18928m | 4.3m/s | -51.4°C | 0% | 0hPa | 4.7V | 00:00:00 | 00:00:00 | 00:00:00 | |
| DO2SHX-10 | 2026-08-31 10:21:27 | 50.93843 | 8.93653 | 32° | 35km/h | 18924m | 3.4m/s | 0°C | 0% | 0hPa | 4.7V | 00:00:00 | 00:00:00 | 00:00:00 | |
| DO2JMG | 2026-08-31 10:21:25 | 50.93828 | 8.93638 | 31° | 37km/h | 18920m | 4.8m/s | -51.6°C | 0% | 0hPa | 4.7V | 00:00:00 | 00:00:00 | 00:00:00 | |
| DO2SHX-10 | 2026-08-31 10:21:24 | 50.93819 | 8.93630 | 30° | 40km/h | 18912m | 4.5m/s | 0°C | 0% | 0hPa | 4.7V | 00:00:00 | 00:00:00 | 00:00:00 | |
| DO3DL | 2026-08-31 10:21:22 | 50.93802 | 8.93613 | 34° | 40km/h | 18907m | 4.0m/s | -51.7°C | 0% | 0hPa | 4.7V | 00:00:00 | 00:00:00 | 00:00:00 | |
| AA1-15 | 2026-08-31 10:21:21 | 50.93785 | 8.93597 | 28° | 38km/h | 18899m | 4.5m/s | -51.7°C | 0% | 0hPa | 4.7V | 00:00:00 | 00:00:00 | 00:00:00 | |
| DJTTGO | 2026-08-31 10:21:19 | 50.93777 | 8.93590 | 28° | 37km/h | 18895m | 3.7m/s | -51.7°C | 0% | 0hPa | 0V | 00:00:00 | 00:00:00 | 00:00:00 | |
| DO2SHX-10 | 2026-08-31 10:21:18 | 50.93769 | 8.93584 | 29° | 33km/h | 18866m | 4.2m/s | 0°C | 0% | 0hPa | 0V | 00:00:00 | 00:00:00 | 00:00:00 | |
| DL1XH-15 | 2026-08-31 10:21:17 | 50.93743 | 8.93558 | 33° | 33km/h | 18870m | 4.6m/s | 0°C | 0% | 0hPa | 0V | 00:00:00 | 00:00:00 | 00:00:00 | |
| DF8AY | 2026-08-31 10:21:17 | 50.93756 | 8.93572 | 34° | 29km/h | 18882m | 4.6m/s | -51.9°C | 0% | 0hPa | 4.7V | 00:00:00 | 00:00:00 | 00:00:00 | |
| DO3DL | 2026-08-31 10:21:16 | 50.93756 | 8.93571 | 35° | 29km/h | 18883m | 4.6m/s | -51.9°C | 0% | 0hPa | 4.7V | 00:00:00 | 00:00:00 | 00:00:00 | |
| DO2JMG | 2026-08-31 10:21:15 | 50.93743 | 8.93558 | 34° | 33km/h | 18874m | 3.6m/s | -52°C | 0% | 0hPa | 4.7V | 00:00:00 | 00:00:00 | 00:00:00 | |
| DO2SHX-10 | 2026-08-31 10:21:12 | 50.93729 | 8.93541 | 40° | 37km/h | 18857m | 3.5m/s | 0°C | 0% | 0hPa | 4.7V | 00:00:00 | 00:00:00 | 00:00:00 | |
| OE3JTB-15 | 2026-08-31 10:21:11 | 50.93722 | 8.93532 | 37° | 33km/h | 18857m | 3.5m/s | 0°C | 0% | 0hPa | 4.7V | 00:00:00 | 00:00:00 | 00:00:00 | |
| AA1-15 | 2026-08-31 10:21:10 | 50.93714 | 8.93524 | 34° | 38km/h | 18857m | 3.6m/s | -51.8°C | 0% | 0hPa | 4.7V | 00:00:00 | 00:00:00 | 00:00:00 | |
| DO8TBO-1 | 2026-08-31 10:21:10 | 50.93699 | 8.93507 | 36° | 31km/h | 18803m | 3.7m/s | 0°C | 0% | 0hPa | 4.7V | 00:00:00 | 00:00:00 | 00:00:00 | |
| DO3DL | 2026-08-31 10:21:09 | 50.93706 | 8.93515 | 36° | 37km/h | 18853m | 5.1m/s | -51.7°C | 0% | 0hPa | 4.7V | 00:00:00 | 00:00:00 | 00:00:00 | |
| DM7RM-13 | 2026-08-31 10:21:07 | 50.93692 | 8.93499 | 36° | 31km/h | 18845m | 3.1m/s | -45.3°C | 0% | 0hPa | 4.7V | 00:00:00 | 00:00:00 | 00:00:00 | |
| DF8AY | 2026-08-31 10:21:06 | 50.93678 | 8.93486 | 27° | 33km/h | 18836m | 4.1m/s | -51.7°C | 0% | 0hPa | 4.7V | 00:00:00 | 00:00:00 | 00:00:00 | |
| GOEST3-10 | 2026-08-31 10:21:06 | 50.93686 | 8.93492 | 28° | 33km/h | 18836m | 4.1m/s | 0°C | 0% | 0hPa | 4.7V | 00:00:00 | 00:00:00 | 00:00:00 | |
| DL1XH-west | 2026-08-31 10:21:03 | 50.93664 | 8.93474 | 31° | 31km/h | 18828m | 4.2m/s | -51.7°C | 0% | 0hPa | 4.7V | 00:00:00 | 00:00:00 | 00:00:00 | |
| DO2SHX-10 | 2026-08-31 10:21:03 | 50.93664 | 8.93473 | 32° | 31km/h | 18771m | 3.7m/s | 0°C | 0% | 0hPa | 4.7V | 00:00:00 | 00:00:00 | 00:00:00 | |
| GOEST3-10 | 2026-08-31 10:21:01 | 50.93651 | 8.93461 | 28° | 31km/h | 18816m | 3.7m/s | 0°C | 0% | 0hPa | 4.7V | 00:00:00 | 00:00:00 | 00:00:00 | |
| AA1-15 | 2026-08-31 10:21:00 | 50.93635 | 8.93449 | 25° | 35km/h | 18811m | 4.6m/s | -51.7°C | 0% | 0hPa | 4.7V | 00:00:00 | 00:00:00 | 00:00:00 | |
| DF8AY | 2026-08-31 10:20:57 | 50.93604 | 8.93427 | 21° | 35km/h | 18795m | 3.8m/s | -51.4°C | 0% | 0hPa | 4.7V | 00:00:00 | 00:00:00 | 00:00:00 | |
| DD1CC2-15 | 2026-08-31 10:20:56 | 50.93612 | 8.93432 | 24° | 35km/h | 18799m | 4.8m/s | -45.1°C | 0% | 0hPa | 4.7V | 00:00:00 | 00:00:00 | 00:00:00 | |
| DL3OBA | 2026-08-31 10:20:55 | 50.93597 | 8.93422 | 23° | 33km/h | 18791m | 4.1m/s | -51.4°C | 0% | 0hPa | 4.7V | 00:00:00 | 00:00:00 | 00:00:00 | |
| DL1XH-west | 2026-08-31 10:20:53 | 50.93582 | 8.93411 | 28° | 29km/h | 18783m | 3.3m/s | -51.5°C | 0% | 0hPa | 4.7V | 00:00:00 | 00:00:00 | 00:00:00 | |
| GOEST3-10 | 2026-08-31 10:20:51 | 50.93575 | 8.93406 | 26° | 35km/h | 18775m | 3.8m/s | 0°C | 0% | 0hPa | 4.7V | 00:00:00 | 00:00:00 | 00:00:00 | |
| AA1-15 | 2026-08-31 10:20:49 | 50.93560 | 8.93394 | 24° | 35km/h | 18771m | 3.8m/s | -51.5°C | 0% | 0hPa | 4.7V | 00:00:00 | 00:00:00 | 00:00:00 | |
| DO3DL | 2026-08-31 10:20:49 | 50.93552 | 8.93388 | 26° | 35km/h | 18767m | 4.5m/s | -51.4°C | 0% | 0hPa | 0V | 00:00:00 | 00:00:00 | 00:00:00 | |
| DL1XH-15 | 2026-08-31 10:20:47 | 50.93521 | 8.93369 | 15° | 33km/h | 18734m | 4.5m/s | 0°C | 0% | 0hPa | 0V | 00:00:00 | 00:00:00 | 00:00:00 | |
| GOEST3-10 | 2026-08-31 10:20:46 | 50.93536 | 8.93377 | 21° | 29km/h | 18750m | 3.0m/s | 0°C | 0% | 0hPa | 4.7V | 00:00:00 | 00:00:00 | 00:00:00 | |
| DF8AY | 2026-08-31 10:20:45 | 50.93521 | 8.93369 | 16° | 33km/h | 18750m | 3.1m/s | -51.2°C | 0% | 0hPa | 4.7V | 00:00:00 | 00:00:00 | 00:00:00 | |
| DO2SHX-10 | 2026-08-31 10:20:43 | 50.93513 | 8.93366 | 18° | 27km/h | 18742m | 4.1m/s | 0°C | 0% | 0hPa | 4.7V | 00:00:00 | 00:00:00 | 00:00:00 | |
| DO2JMG | 2026-08-31 10:20:42 | 50.93506 | 8.93362 | 19° | 27km/h | 18742m | 4.1m/s | -51.2°C | 0% | 0hPa | 4.7V | 00:00:00 | 00:00:00 | 00:00:00 | |
| OE3JTB-15 | 2026-08-31 10:20:42 | 50.93506 | 8.93362 | 19° | 29km/h | 18738m | 3.9m/s | 0°C | 0% | 0hPa | 4.7V | 00:00:00 | 00:00:00 | 00:00:00 | |
| GOEST3-10 | 2026-08-31 10:20:41 | 50.93499 | 8.93359 | 18° | 29km/h | 18734m | 4.5m/s | 0°C | 0% | 0hPa | 4.7V | 00:00:00 | 00:00:00 | 00:00:00 | |
| DO2SHX-10 | 2026-08-31 10:20:40 | 50.93493 | 8.93356 | 16° | 29km/h | 18731m | 3.2m/s | 0°C | 0% | 0hPa | 4.7V | 00:00:00 | 00:00:00 | 00:00:00 | |
| AA1-15 | 2026-08-31 10:20:38 | 50.93471 | 8.93346 | 17° | 29km/h | 18722m | 4m/s | -51.1°C | 0% | 0hPa | 4.7V | 00:00:00 | 00:00:00 | 00:00:00 | |
| DO2SHX-10 | 2026-08-31 10:20:37 | 50.93471 | 8.93346 | 18° | 31km/h | 18718m | 3.8m/s | 0°C | 0% | 0hPa | 4.7V | 00:00:00 | 00:00:00 | 00:00:00 | |
| DD1CC2-15 | 2026-08-31 10:20:36 | 50.93464 | 8.93343 | 19° | 29km/h | 18718m | 3.9m/s | -44.7°C | 0% | 0hPa | 4.7V | 00:00:00 | 00:00:00 | 00:00:00 | |
| DF8AY | 2026-08-31 10:20:35 | 50.93441 | 8.93332 | 17° | 29km/h | 18706m | 4.7m/s | -51.1°C | 0% | 0hPa | 4.7V | 00:00:00 | 00:00:00 | 00:00:00 | |
| DO2JMG | 2026-08-31 10:20:31 | 50.93428 | 8.93325 | 15° | 27km/h | 18698m | 4.5m/s | -51°C | 0% | 0hPa | 4.7V | 00:00:00 | 00:00:00 | 00:00:00 | |
| DO2SHX-10 | 2026-08-31 10:20:31 | 50.93428 | 8.93325 | 16° | 27km/h | 18694m | 4.0m/s | 0°C | 0% | 0hPa | 4.7V | 00:00:00 | 00:00:00 | 00:00:00 | |
| AA1-15 | 2026-08-31 10:20:28 | 50.93401 | 8.93313 | 22° | 27km/h | 18681m | 4.1m/s | -51°C | 0% | 0hPa | 4.7V | 00:00:00 | 00:00:00 | 00:00:00 | |
| DO2SHX-10 | 2026-08-31 10:20:28 | 50.93408 | 8.93317 | 19° | 27km/h | 18673m | 3.2m/s | 0°C | 0% | 0hPa | 0V | 00:00:00 | 00:00:00 | 00:00:00 | |
| DL1XH-15 | 2026-08-31 10:20:27 | 50.93367 | 8.93288 | 24° | 27km/h | 18657m | 4.6m/s | 0°C | 0% | 0hPa | 0V | 00:00:00 | 00:00:00 | 00:00:00 | |
| DM7RM-13 | 2026-08-31 10:20:26 | 50.93394 | 8.93308 | 24° | 31km/h | 18677m | 4.4m/s | -44.7°C | 0% | 0hPa | 4.7V | 00:00:00 | 00:00:00 | 00:00:00 | |
| DO2SHX-10 | 2026-08-31 10:20:25 | 50.93387 | 8.93303 | 25° | 29km/h | 18673m | 3.2m/s | 0°C | 0% | 0hPa | 4.7V | 00:00:00 | 00:00:00 | 00:00:00 | |
| DO3DL | 2026-08-31 10:20:24 | 50.93380 | 8.93298 | 26° | 31km/h | 18670m | 4.6m/s | -51.0°C | 0% | 0hPa | 4.7V | 00:00:00 | 00:00:00 | 00:00:00 | |
| DF8AY | 2026-08-31 10:20:23 | 50.93367 | 8.93288 | 24° | 27km/h | 18661m | 3.5m/s | -51.1°C | 0% | 0hPa | 4.7V | 00:00:00 | 00:00:00 | 00:00:00 | |
| DO2SHX-10 | 2026-08-31 10:20:21 | 50.93360 | 8.93284 | 21° | 29km/h | 18649m | 4.3m/s | 0°C | 0% | 0hPa | 4.7V | 00:00:00 | 00:00:00 | 00:00:00 | |
| DO2JMG | 2026-08-31 10:20:20 | 50.93354 | 8.93280 | 20° | 29km/h | 18653m | 3.7m/s | -51.3°C | 0% | 0hPa | 4.7V | 00:00:00 | 00:00:00 | 00:00:00 | |
| DO2SHX-10 | 2026-08-31 10:20:18 | 50.93340 | 8.93271 | 26° | 27km/h | 18617m | 4.5m/s | 0°C | 0% | 0hPa | 0V | 00:00:00 | 00:00:00 | 00:00:00 | |
| DL1XH-15 | 2026-08-31 10:20:17 | 50.93303 | 8.93233 | 36° | 31km/h | 18617m | 4.6m/s | 0°C | 0% | 0hPa | 0V | 00:00:00 | 00:00:00 | 00:00:00 | |
| AA1-15 | 2026-08-31 10:20:17 | 50.93328 | 8.93261 | 31° | 27km/h | 18637m | 4.6m/s | -51.4°C | 0% | 0hPa | 4.6V | 00:00:00 | 00:00:00 | 00:00:00 | |
| GOEST3-10 | 2026-08-31 10:20:16 | 50.93328 | 8.93261 | 31° | 31km/h | 18629m | 4.3m/s | 0°C | 0% | 0hPa | 4.6V | 00:00:00 | 00:00:00 | 00:00:00 | |
| DO2SHX-10 | 2026-08-31 10:20:15 | 50.93322 | 8.93254 | 33° | 31km/h | 18617m | 4.5m/s | 0°C | 0% | 0hPa | 4.6V | 00:00:00 | 00:00:00 | 00:00:00 | |
| DF8AY | 2026-08-31 10:20:13 | 50.93303 | 8.93233 | 37° | 31km/h | 18621m | 3.5m/s | -51.6°C | 0% | 0hPa | 4.6V | 00:00:00 | 00:00:00 | 00:00:00 | |
| DO2SHX-10 | 2026-08-31 10:20:12 | 50.93303 | 8.93233 | 37° | 31km/h | 18617m | 4.5m/s | 0°C | 0% | 0hPa | 4.6V | 00:00:00 | 00:00:00 | 00:00:00 | |
| HSKMA3-T | 2026-08-31 10:20:10 | 50.93290 | 8.93219 | 31° | 33km/h | 18613m | 3.5m/s | -51.7°C | 0% | 0hPa | 4.6V | 00:00:00 | 00:00:00 | 00:00:00 | |
| DL1XH-west | 2026-08-31 10:20:10 | 50.93283 | 8.93212 | 32° | 33km/h | 18609m | 4.7m/s | -51.7°C | 0% | 0hPa | 4.6V | 00:00:00 | 00:00:00 | 00:00:00 | |
| DO2SHX-10 | 2026-08-31 10:20:09 | 50.93283 | 8.93212 | 33° | 31km/h | 18605m | 3.4m/s | 0°C | 0% | 0hPa | 4.6V | 00:00:00 | 00:00:00 | 00:00:00 | |
| DO2SHX-10 | 2026-08-31 10:20:06 | 50.93263 | 8.93190 | 34° | 37km/h | 18589m | 4.6m/s | 0°C | 0% | 0hPa | 4.6V | 00:00:00 | 00:00:00 | 00:00:00 | |
| AA1-15 | 2026-08-31 10:20:04 | 50.93240 | 8.93166 | 35° | 35km/h | 18585m | 3.5m/s | -51.9°C | 0% | 0hPa | 4.6V | 00:00:00 | 00:00:00 | 00:00:00 | |
| GOEST3-10 | 2026-08-31 10:20:02 | 50.93233 | 8.93158 | 29° | 35km/h | 18577m | 3.8m/s | 0°C | 0% | 0hPa | 4.7V | 00:00:00 | 00:00:00 | 00:00:00 | |
| DF8AY | 2026-08-31 10:20:02 | 50.93225 | 8.93151 | 29° | 37km/h | 18577m | 3.8m/s | -51.9°C | 0% | 0hPa | 4.6V | 00:00:00 | 00:00:00 | 00:00:00 | |
| DO3MHA-11 | 2026-08-31 10:20:01 | 50.93225 | 8.93151 | 29° | 37km/h | 18573m | 4.0m/s | 0°C | 0% | 0hPa | 4.7V | 00:00:00 | 00:00:00 | 00:00:00 | |
| DO3DL | 2026-08-31 10:20:00 | 50.93217 | 8.93145 | 30° | 35km/h | 18573m | 4.1m/s | -51.9°C | 0% | 0hPa | 4.7V | 00:00:00 | 00:00:00 | 00:00:00 | |
| DL1XH-west | 2026-08-31 10:19:59 | 50.93210 | 8.93138 | 30° | 33km/h | 18569m | 4.1m/s | -51.9°C | 0% | 0hPa | 4.7V | 00:00:00 | 00:00:00 | 00:00:00 | |
| DJTTGO | 2026-08-31 10:19:58 | 50.93203 | 8.93132 | 31° | 33km/h | 18565m | 3.1m/s | -51.8°C | 0% | 0hPa | 0V | 00:00:00 | 00:00:00 | 00:00:00 | |
| DL1XH-15 | 2026-08-31 10:19:57 | 50.93155 | 8.93086 | 34° | 38km/h | 18539m | 3.7m/s | 0°C | 0% | 0hPa | 0V | 00:00:00 | 00:00:00 | 00:00:00 | |
| GOEST3-10 | 2026-08-31 10:19:57 | 50.93195 | 8.93125 | 29° | 38km/h | 18558m | 3.6m/s | 0°C | 0% | 0hPa | 4.7V | 00:00:00 | 00:00:00 | 00:00:00 | |
| DO3DL | 2026-08-31 10:19:55 | 50.93170 | 8.93103 | 33° | 38km/h | 18550m | 4.3m/s | -51.7°C | 0% | 0hPa | 4.7V | 00:00:00 | 00:00:00 | 00:00:00 | |
| DD1CC2-15 | 2026-08-31 10:19:54 | 50.93170 | 8.93103 | 33° | 38km/h | 18550m | 4.3m/s | -45.4°C | 0% | 0hPa | 4.7V | 00:00:00 | 00:00:00 | 00:00:00 | |
| AA1-15 | 2026-08-31 10:19:53 | 50.93155 | 8.93086 | 35° | 38km/h | 18543m | 4m/s | -51.7°C | 0% | 0hPa | 4.7V | 00:00:00 | 00:00:00 | 00:00:00 | |
| DF8AY | 2026-08-31 10:19:52 | 50.93137 | 8.93068 | 31° | 42km/h | 18535m | 3m/s | -51.6°C | 0% | 0hPa | 4.7V | 00:00:00 | 00:00:00 | 00:00:00 | |
| DO2SHX-10 | 2026-08-31 10:19:51 | 50.93164 | 8.93077 | 33° | 40km/h | 18539m | 3.6m/s | 0°C | 0% | 0hPa | 4.7V | 00:00:00 | 00:00:00 | 00:00:00 | |
| DO3MHA-11 | 2026-08-31 10:19:50 | 50.93137 | 8.93068 | 32° | 37km/h | 18528m | 3.7m/s | 0°C | 0% | 0hPa | 4.7V | 00:00:00 | 00:00:00 | 00:00:00 | |
| DL1XH-west | 2026-08-31 10:19:48 | 50.93121 | 8.93052 | 32° | 35km/h | 18527m | 3.8m/s | -51.5°C | 0% | 0hPa | 4.7V | 00:00:00 | 00:00:00 | 00:00:00 | |
| DL1XH-15 | 2026-08-31 10:19:47 | 50.93073 | 8.93010 | 34° | 35km/h | 18504m | 4.6m/s | 0°C | 0% | 0hPa | 0V | 00:00:00 | 00:00:00 | 00:00:00 | |
| DO2SHX-10 | 2026-08-31 10:19:47 | 50.93113 | 8.93045 | 31° | 35km/h | 18520m | 3.9m/s | 0°C | 0% | 0hPa | 4.7V | 00:00:00 | 00:00:00 | 00:00:00 | |
| DM7RM-13 | 2026-08-31 10:19:45 | 50.93098 | 8.93032 | 29° | 35km/h | 18516m | 3.6m/s | -45.2°C | 0% | 0hPa | 4.7V | 00:00:00 | 00:00:00 | 00:00:00 | |
| DO2SHX-10 | 2026-08-31 10:19:44 | 50.93090 | 8.93025 | 30° | 35km/h | 18508m | 3.2m/s | 0°C | 0% | 0hPa | 4.7V | 00:00:00 | 00:00:00 | 00:00:00 | |
| AA1-15 | 2026-08-31 10:19:42 | 50.93068 | 8.93002 | 35° | 38km/h | 18500m | 3.4m/s | -51.3°C | 0% | 0hPa | 4.7V | 00:00:00 | 00:00:00 | 00:00:00 | |
| DO3DL | 2026-08-31 10:19:41 | 50.93068 | 8.93002 | 36° | 38km/h | 18500m | 3.4m/s | -51.3°C | 0% | 0hPa | 4.7V | 00:00:00 | 00:00:00 | 00:00:00 | |
| DF8AY | 2026-08-31 10:19:40 | 50.93052 | 8.92984 | 37° | 38km/h | 18493m | 4.5m/s | -51.3°C | 0% | 0hPa | 4.7V | 00:00:00 | 00:00:00 | 00:00:00 | |
| DL1XH-west | 2026-08-31 10:19:38 | 50.93038 | 8.92967 | 35° | 35km/h | 18485m | 4.3m/s | -51.2°C | 0% | 0hPa | 4.7V | 00:00:00 | 00:00:00 | 00:00:00 | |
| DL1XH-15 | 2026-08-31 10:19:37 | 50.93002 | 8.92933 | 28° | 33km/h | 18461m | 3.9m/s | 0°C | 0% | 0hPa | 0V | 00:00:00 | 00:00:00 | 00:00:00 | |
| GOEST3-10 | 2026-08-31 10:19:37 | 50.93038 | 8.92967 | 36° | 33km/h | 18481m | 3.7m/s | 0°C | 0% | 0hPa | 4.7V | 00:00:00 | 00:00:00 | 00:00:00 | |
| DO3MHA-11 | 2026-08-31 10:19:36 | 50.93030 | 8.92958 | 31° | 33km/h | 18477m | 3.7m/s | 0°C | 0% | 0hPa | 4.7V | 00:00:00 | 00:00:00 | 00:00:00 | |
| OE3JTB-15 | 2026-08-31 10:19:35 | 50.93023 | 8.92952 | 31° | 33km/h | 18469m | 3.2m/s | 0°C | 0% | 0hPa | 4.7V | 00:00:00 | 00:00:00 | 00:00:00 | |
| DJTTGO | 2026-08-31 10:19:34 | 50.93016 | 8.92945 | 31° | 31km/h | 18473m | 4.4m/s | -51.2°C | 0% | 0hPa | 4.7V | 00:00:00 | 00:00:00 | 00:00:00 | |
| GOEST3-10 | 2026-08-31 10:19:32 | 50.93002 | 8.92933 | 29° | 37km/h | 18461m | 3.9m/s | 0°C | 0% | 0hPa | 4.7V | 00:00:00 | 00:00:00 | 00:00:00 | |
| AA1-15 | 2026-08-31 10:19:29 | 50.92969 | 8.92904 | 31° | 35km/h | 18449m | 3.7m/s | -51.4°C | 0% | 0hPa | 4.7V | 00:00:00 | 00:00:00 | 00:00:00 | |
| DO3DL | 2026-08-31 10:19:28 | 50.92969 | 8.92904 | 32° | 35km/h | 18450m | 3.7m/s | -51.4°C | 0% | 0hPa | 0V | 00:00:00 | 00:00:00 | 00:00:00 | |
| DL1XH-15 | 2026-08-31 10:19:27 | 50.92924 | 8.92865 | 25° | 29km/h | 18422m | 4.2m/s | 0°C | 0% | 0hPa | 0V | 00:00:00 | 00:00:00 | 00:00:00 | |
| DO2JMG | 2026-08-31 10:19:26 | 50.92954 | 8.92890 | 32° | 35km/h | 18442m | 4.2m/s | -51.5°C | 0% | 0hPa | 4.7V | 00:00:00 | 00:00:00 | 00:00:00 | |
| DO3MHA-11 | 2026-08-31 10:19:26 | 50.92954 | 8.92890 | 32° | 35km/h | 18427m | 3.4m/s | 0°C | 0% | 0hPa | 4.7V | 00:00:00 | 00:00:00 | 00:00:00 | |
| DM7RM-13 | 2026-08-31 10:19:25 | 50.92946 | 8.92882 | 30° | 37km/h | 18438m | 3.4m/s | -45.3°C | 0% | 0hPa | 4.7V | 00:00:00 | 00:00:00 | 00:00:00 | |
| DO3DL | 2026-08-31 10:19:23 | 50.92924 | 8.92865 | 27° | 29km/h | 18427m | 3.4m/s | -51.8°C | 0% | 0hPa | 4.7V | 00:00:00 | 00:00:00 | 00:00:00 | |
| GOEST3-10 | 2026-08-31 10:19:21 | 50.92917 | 8.92860 | 30° | 33km/h | 18415m | 4.0m/s | 0°C | 0% | 0hPa | 4.7V | 00:00:00 | 00:00:00 | 00:00:00 | |
| AA1-15 | 2026-08-31 10:19:19 | 50.92896 | 8.92839 | 36° | 31km/h | 18411m | 4.2m/s | -51.7°C | 0% | 0hPa | 4.7V | 00:00:00 | 00:00:00 | 00:00:00 | |
| DL1XH-15 | 2026-08-31 10:19:17 | 50.92858 | 8.92789 | 43° | 31km/h | 18383m | 4.4m/s | 0°C | 0% | 0hPa | 0V | 00:00:00 | 00:00:00 | 00:00:00 | |
| DO2JMG | 2026-08-31 10:19:16 | 50.92883 | 8.92824 | 39° | 33km/h | 18403m | 4.7m/s | -51.7°C | 0% | 0hPa | 4.7V | 00:00:00 | 00:00:00 | 00:00:00 | |
| GOEST3-10 | 2026-08-31 10:19:16 | 50.92900 | 8.92824 | 39° | 33km/h | 18399m | 3.7m/s | 0°C | 0% | 0hPa | 4.7V | 00:00:00 | 00:00:00 | 00:00:00 | |
| DO3DL | 2026-08-31 10:19:15 | 50.92877 | 8.92815 | 40° | 35km/h | 18399m | 3.7m/s | -51.8°C | 0% | 0hPa | 4.7V | 00:00:00 | 00:00:00 | 00:00:00 | |
| DD1CC2-15 | 2026-08-31 10:19:13 | 50.92864 | 8.92798 | 44° | 33km/h | 18391m | 3.9m/s | -45.7°C | 0% | 0hPa | 4.7V | 00:00:00 | 00:00:00 | 00:00:00 | |
| DO3MHA-11 | 2026-08-31 10:19:12 | 50.92858 | 8.92789 | 44° | 33km/h | 18387m | 4.0m/s | 0°C | 0% | 0hPa | 4.7V | 00:00:00 | 00:00:00 | 00:00:00 | |
| GOEST3-10 | 2026-08-31 10:19:11 | 50.92852 | 8.92780 | 44° | 33km/h | 18379m | 3.4m/s | 0°C | 0% | 0hPa | 4.7V | 00:00:00 | 00:00:00 | 00:00:00 | |
| DJTTGO | 2026-08-31 10:19:10 | 50.92845 | 8.92771 | 43° | 35km/h | 18379m | 3.5m/s | -52.1°C | 0% | 0hPa | 4.7V | 00:00:00 | 00:00:00 | 00:00:00 | |
| DO8TBO-1 | 2026-08-31 10:19:09 | 50.92832 | 8.92752 | 39° | 29km/h | 18367m | 3.9m/s | 0°C | 0% | 0hPa | 4.7V | 00:00:00 | 00:00:00 | 00:00:00 | |
| AA1-15 | 2026-08-31 10:19:08 | 50.92826 | 8.92744 | 39° | 33km/h | 18367m | 4m/s | -52°C | 0% | 0hPa | 4.7V | 00:00:00 | 00:00:00 | 00:00:00 | |
| DL1XH-15 | 2026-08-31 10:19:07 | 50.92793 | 8.92704 | 40° | 33km/h | 18343m | 4.2m/s | 0°C | 0% | 0hPa | 0V | 00:00:00 | 00:00:00 | 00:00:00 | |
| GOEST3-10 | 2026-08-31 10:19:06 | 50.92820 | 8.92736 | 36° | 33km/h | 18359m | 3.4m/s | 0°C | 0% | 0hPa | 4.7V | 00:00:00 | 00:00:00 | 00:00:00 | |
| DO2JMG | 2026-08-31 10:19:05 | 50.92813 | 8.92728 | 35° | 35km/h | 18359m | 3.5m/s | -52°C | 0% | 0hPa | 4.7V | 00:00:00 | 00:00:00 | 00:00:00 | |
| DM7RM-13 | 2026-08-31 10:19:04 | 50.92806 | 8.92721 | 38° | 33km/h | 18355m | 4.8m/s | -45.6°C | 0% | 0hPa | 0V | 00:00:00 | 00:00:00 | 00:00:00 | |
| DO3MHA-11 | 2026-08-31 10:19:02 | 50.92793 | 8.92704 | 41° | 31km/h | 18343m | 4.1m/s | 0°C | 0% | 0hPa | 0V | 00:00:00 | 00:00:00 | 00:00:00 | |
| GOEST3-10 | 2026-08-31 10:19:01 | 50.92787 | 8.92695 | 41° | 31km/h | 18339m | 3.4m/s | 0°C | 0% | 0hPa | 0V | 00:00:00 | 00:00:00 | 00:00:00 | |
| OE3JTB-15 | 2026-08-31 10:18:59 | 50.92773 | 8.92678 | 41° | 26km/h | 18319m | 3.2m/s | 0°C | 0% | 0hPa | 0V | 00:00:00 | 00:00:00 | 00:00:00 | |
| DL1XH-15 | 2026-08-31 10:18:57 | 50.92733 | 8.92631 | 31° | 26km/h | 18303m | 3.9m/s | 0°C | 0% | 0hPa | 0V | 00:00:00 | 00:00:00 | 00:00:00 | |
| DF8AY | 2026-08-31 10:18:57 | 50.92756 | 8.92656 | 37° | 29km/h | 18322m | 4.2m/s | -51.8°C | 0% | 0hPa | 4.7V | 00:00:00 | 00:00:00 | 00:00:00 | |
| DO3DL | 2026-08-31 10:18:56 | 50.92756 | 8.92656 | 38° | 29km/h | 18323m | 4.2m/s | -51.8°C | 0% | 0hPa | 4.7V | 00:00:00 | 00:00:00 | 00:00:00 | |
| GOEST3-10 | 2026-08-31 10:18:55 | 50.92750 | 8.92648 | 35° | 27km/h | 18303m | 3.9m/s | 0°C | 0% | 0hPa | 4.7V | 00:00:00 | 00:00:00 | 00:00:00 | |
| DO2JMG | 2026-08-31 10:18:54 | 50.92744 | 8.92643 | 34° | 29km/h | 18315m | 4.4m/s | -51.7°C | 0% | 0hPa | 4.7V | 00:00:00 | 00:00:00 | 00:00:00 | |
| DO3MHA-11 | 2026-08-31 10:18:52 | 50.92733 | 8.92631 | 32° | 26km/h | 18303m | 3.9m/s | 0°C | 0% | 0hPa | 4.7V | 00:00:00 | 00:00:00 | 00:00:00 | |
| DL3OBA | 2026-08-31 10:18:51 | 50.92727 | 8.92625 | 31° | 27km/h | 18303m | 3.9m/s | -51.6°C | 0% | 0hPa | 4.7V | 00:00:00 | 00:00:00 | 00:00:00 | |
| GOEST3-10 | 2026-08-31 10:18:50 | 50.92721 | 8.92620 | 31° | 27km/h | 18283m | 3.3m/s | 0°C | 0% | 0hPa | 4.7V | 00:00:00 | 00:00:00 | 00:00:00 | |
| AA1-15 | 2026-08-31 10:18:46 | 50.92692 | 8.92592 | 28° | 27km/h | 18279m | 4.7m/s | -51.3°C | 0% | 0hPa | 4.7V | 00:00:00 | 00:00:00 | 00:00:00 | |
| GOEST3-10 | 2026-08-31 10:18:45 | 50.92692 | 8.92592 | 28° | 26km/h | 18263m | 3.8m/s | 0°C | 0% | 0hPa | 4.7V | 00:00:00 | 00:00:00 | 00:00:00 | |
| DO2JMG | 2026-08-31 10:18:44 | 50.92680 | 8.92583 | 24° | 26km/h | 18271m | 4.4m/s | -51.3°C | 0% | 0hPa | 4.7V | 00:00:00 | 00:00:00 | 00:00:00 | |
| DO3MHA-11 | 2026-08-31 10:18:42 | 50.92674 | 8.92579 | 22° | 24km/h | 18263m | 3.8m/s | 0°C | 0% | 0hPa | 0V | 00:00:00 | 00:00:00 | 00:00:00 | |
| GOEST3-10 | 2026-08-31 10:18:40 | 50.92663 | 8.92572 | 22° | 24km/h | 18259m | 3.8m/s | 0°C | 0% | 0hPa | 0V | 00:00:00 | 00:00:00 | 00:00:00 | |
| DO8TBO-1 | 2026-08-31 10:18:39 | 50.92646 | 8.92562 | 23° | 24km/h | 18244m | 3.8m/s | 0°C | 0% | 0hPa | 0V | 00:00:00 | 00:00:00 | 00:00:00 | |
| DO3DL | 2026-08-31 10:18:38 | 50.92652 | 8.92565 | 22° | 24km/h | 18252m | 4.8m/s | -51.1°C | 0% | 0hPa | 0V | 00:00:00 | 00:00:00 | 00:00:00 | |
| DL1XH-15 | 2026-08-31 10:18:37 | 50.92617 | 8.92542 | 19° | 26km/h | 18224m | 3.4m/s | 0°C | 0% | 0hPa | 0V | 00:00:00 | 00:00:00 | 00:00:00 | |
| AA1-15 | 2026-08-31 10:18:35 | 50.92634 | 8.92553 | 26° | 24km/h | 18240m | 4m/s | -51°C | 0% | 0hPa | 4.7V | 00:00:00 | 00:00:00 | 00:00:00 | |
| GOEST3-10 | 2026-08-31 10:18:35 | 50.92634 | 8.92553 | 26° | 24km/h | 18236m | 3.3m/s | 0°C | 0% | 0hPa | 4.7V | 00:00:00 | 00:00:00 | 00:00:00 | |
| DO2JMG | 2026-08-31 10:18:33 | 50.92617 | 8.92542 | 19° | 26km/h | 18228m | 3.6m/s | -51°C | 0% | 0hPa | 4.7V | 00:00:00 | 00:00:00 | 00:00:00 | |
| DO3MHA-11 | 2026-08-31 10:18:32 | 50.92617 | 8.92542 | 20° | 24km/h | 18221m | 4.5m/s | 0°C | 0% | 0hPa | 0V | 00:00:00 | 00:00:00 | 00:00:00 | |
| DD1CC2-15 | 2026-08-31 10:18:31 | 50.92612 | 8.92538 | 20° | 24km/h | 18225m | 3.4m/s | -44.6°C | 0% | 0hPa | 0V | 00:00:00 | 00:00:00 | 00:00:00 | |
| OE3JTB-15 | 2026-08-31 10:18:30 | 50.92606 | 8.92536 | 21° | 22km/h | 18213m | 4.5m/s | 0°C | 0% | 0hPa | 0V | 00:00:00 | 00:00:00 | 00:00:00 | |
| DL1XH-15 | 2026-08-31 10:18:27 | 50.92561 | 8.92508 | 15° | 26km/h | 18185m | 4.9m/s | 0°C | 0% | 0hPa | 0V | 00:00:00 | 00:00:00 | 00:00:00 | |
| AA1-15 | 2026-08-31 10:18:25 | 50.92573 | 8.92514 | 20° | 22km/h | 18196m | 3.8m/s | -50.8°C | 0% | 0hPa | 4.7V | 00:00:00 | 00:00:00 | 00:00:00 | |
| GOEST3-10 | 2026-08-31 10:18:25 | 50.92578 | 8.92516 | 18° | 24km/h | 18197m | 3.8m/s | 0°C | 0% | 0hPa | 4.7V | 00:00:00 | 00:00:00 | 00:00:00 | |
| DM7RM-13 | 2026-08-31 10:18:23 | 50.92567 | 8.92510 | 18° | 24km/h | 18192m | 4.0m/s | -44.4°C | 0% | 0hPa | 4.7V | 00:00:00 | 00:00:00 | 00:00:00 | |
| DO2JMG | 2026-08-31 10:18:22 | 50.92561 | 8.92508 | 16° | 26km/h | 18189m | 3.2m/s | -50.8°C | 0% | 0hPa | 4.7V | 00:00:00 | 00:00:00 | 00:00:00 | |
| DO3MHA-11 | 2026-08-31 10:18:22 | 50.92561 | 8.92508 | 16° | 24km/h | 18185m | 4.9m/s | 0°C | 0% | 0hPa | 4.7V | 00:00:00 | 00:00:00 | 00:00:00 | |
| DJTTGO | 2026-08-31 10:18:21 | 50.92556 | 8.92505 | 18° | 24km/h | 18185m | 4.9m/s | -50.8°C | 0% | 0hPa | 4.7V | 00:00:00 | 00:00:00 | 00:00:00 | |
| GOEST3-10 | 2026-08-31 10:18:20 | 50.92550 | 8.92502 | 21° | 22km/h | 18169m | 3.3m/s | 0°C | 0% | 0hPa | 4.7V | 00:00:00 | 00:00:00 | 00:00:00 | |
| AA1-15 | 2026-08-31 10:18:14 | 50.92513 | 8.92479 | 22° | 20km/h | 18153m | 4.2m/s | -50.7°C | 0% | 0hPa | 4.7V | 00:00:00 | 00:00:00 | 00:00:00 | |
| DL1NUX | 2026-08-31 10:18:13 | 50.92490 | 8.92467 | 16° | 20km/h | 18116m | 4.1m/s | 0°C | 0% | 0hPa | 0V | 00:00:00 | 00:00:00 | 00:00:00 | |
| HSKMA3-T | 2026-08-31 10:18:12 | 50.92508 | 8.92476 | 19° | 22km/h | 18149m | 3.5m/s | -50.7°C | 0% | 0hPa | 4.7V | 00:00:00 | 00:00:00 | 00:00:00 | |
| DO2JMG | 2026-08-31 10:18:12 | 50.92503 | 8.92473 | 17° | 20km/h | 18145m | 4.8m/s | -50.6°C | 0% | 0hPa | 4.7V | 00:00:00 | 00:00:00 | 00:00:00 | |
| DD1CC2-15 | 2026-08-31 10:18:11 | 50.92503 | 8.92473 | 18° | 20km/h | 18141m | 3.8m/s | -44.1°C | 0% | 0hPa | 0V | 00:00:00 | 00:00:00 | 00:00:00 | |
| DL3OBA | 2026-08-31 10:18:10 | 50.92498 | 8.92471 | 17° | 18km/h | 18141m | 3.8m/s | -50.6°C | 0% | 0hPa | 0V | 00:00:00 | 00:00:00 | 00:00:00 | |
| DO8TBO-1 | 2026-08-31 10:18:09 | 50.92494 | 8.92469 | 15° | 22km/h | 18132m | 3.7m/s | 0°C | 0% | 0hPa | 0V | 00:00:00 | 00:00:00 | 00:00:00 | |
| GOEST3-10 | 2026-08-31 10:18:08 | 50.92490 | 8.92467 | 17° | 22km/h | 18120m | 3.7m/s | 0°C | 0% | 0hPa | 0V | 00:00:00 | 00:00:00 | 00:00:00 | |
| DL1XH-15 | 2026-08-31 10:18:07 | 50.92463 | 8.92439 | 41° | 22km/h | 18104m | 3.5m/s | 0°C | 0% | 0hPa | 0V | 00:00:00 | 00:00:00 | 00:00:00 | |
| AA1-15 | 2026-08-31 10:18:03 | 50.92463 | 8.92439 | 42° | 22km/h | 18108m | 4.3m/s | -50.7°C | 0% | 0hPa | 4.7V | 00:00:00 | 00:00:00 | 00:00:00 | |
| DO3MHA-11 | 2026-08-31 10:18:02 | 50.92463 | 8.92439 | 42° | 22km/h | 18105m | 3.5m/s | 0°C | 0% | 0hPa | 0V | 00:00:00 | 00:00:00 | 00:00:00 | |
| DL1NUX | 2026-08-31 10:18:01 | 50.92437 | 8.92416 | 27° | 22km/h | 18080m | 3.8m/s | 0°C | 0% | 0hPa | 0V | 00:00:00 | 00:00:00 | 00:00:00 | |
| DL1XH-west | 2026-08-31 10:18:01 | 50.92455 | 8.92429 | 29° | 18km/h | 18100m | 4.6m/s | -50.6°C | 0% | 0hPa | 4.7V | 00:00:00 | 00:00:00 | 00:00:00 | |
| SO1NDE-10 | 2026-08-31 10:17:58 | 50.92446 | 8.92422 | 24° | 22km/h | 18084m | 3.9m/s | 0°C | 0% | 0hPa | 0V | 00:00:00 | 00:00:00 | 00:00:00 | |
| DL1XH-15 | 2026-08-31 10:17:57 | 50.92418 | 8.92396 | 43° | 22km/h | 18057m | 3.9m/s | 0°C | 0% | 0hPa | 0V | 00:00:00 | 00:00:00 | 00:00:00 | |
| AA1-15 | 2026-08-31 10:17:53 | 50.92417 | 8.92396 | 43° | 22km/h | 18069m | 4m/s | -50.7°C | 0% | 0hPa | 4.7V | 00:00:00 | 00:00:00 | 00:00:00 | |
| DO3MHA-11 | 2026-08-31 10:17:52 | 50.92417 | 8.92396 | 44° | 22km/h | 18065m | 3.9m/s | 0°C | 0% | 0hPa | 0V | 00:00:00 | 00:00:00 | 00:00:00 | |
| DL1NUX | 2026-08-31 10:17:50 | 50.92391 | 8.92348 | 41° | 24km/h | 18036m | 3.5m/s | 0°C | 0% | 0hPa | 0V | 00:00:00 | 00:00:00 | 00:00:00 | |
| DJTTGO | 2026-08-31 10:17:50 | 50.92405 | 8.92376 | 52° | 24km/h | 18057m | 3.9m/s | -50.6°C | 0% | 0hPa | 0V | 00:00:00 | 00:00:00 | 00:00:00 | |
| DL1XH-west | 2026-08-31 10:17:50 | 50.92405 | 8.92376 | 51° | 24km/h | 18057m | 3.9m/s | -50.6°C | 0% | 0hPa | 4.7V | 00:00:00 | 00:00:00 | 00:00:00 | |
| DD1CC2-15 | 2026-08-31 10:17:49 | 50.92405 | 8.92376 | 52° | 24km/h | 18057m | 3.9m/s | -44.2°C | 0% | 0hPa | 0V | 00:00:00 | 00:00:00 | 00:00:00 | |
| GOEST3-10 | 2026-08-31 10:17:48 | 50.92402 | 8.92368 | 49° | 24km/h | 18049m | 3.2m/s | 0°C | 0% | 0hPa | 0V | 00:00:00 | 00:00:00 | 00:00:00 | |
| DL1XH-15 | 2026-08-31 10:17:47 | 50.92377 | 8.92332 | 43° | 22km/h | 18024m | 4.5m/s | 0°C | 0% | 0hPa | 0V | 00:00:00 | 00:00:00 | 00:00:00 | |
| AA1-15 | 2026-08-31 10:17:42 | 50.92373 | 8.92325 | 43° | 24km/h | 18024m | 4.5m/s | -50.6°C | 0% | 0hPa | 4.7V | 00:00:00 | 00:00:00 | 00:00:00 | |
| DO2SHX-10 | 2026-08-31 10:17:42 | 50.92377 | 8.92325 | 57° | 22km/h | 17985m | 4.2m/s | 0°C | 0% | 0hPa | 0V | 00:00:00 | 00:00:00 | 00:00:00 | |
| DL1NUX | 2026-08-31 10:17:40 | 50.92353 | 8.92283 | 52° | 24km/h | 18000m | 4m/s | 0°C | 0% | 0hPa | 0V | 00:00:00 | 00:00:00 | 00:00:00 | |
| DL1XH-west | 2026-08-31 10:17:39 | 50.92365 | 8.92312 | 52° | 24km/h | 18017m | 3.8m/s | -50.5°C | 0% | 0hPa | 4.7V | 00:00:00 | 00:00:00 | 00:00:00 | |
| DO8TBO-1 | 2026-08-31 10:17:39 | 50.92359 | 8.92297 | 57° | 22km/h | 18005m | 4.3m/s | 0°C | 0% | 0hPa | 0V | 00:00:00 | 00:00:00 | 00:00:00 | |
| DL1XH-15 | 2026-08-31 10:17:37 | 50.92342 | 8.92262 | 52° | 20km/h | 17985m | 4.2m/s | 0°C | 0% | 0hPa | 0V | 00:00:00 | 00:00:00 | 00:00:00 | |
| GOEST3-10 | 2026-08-31 10:17:37 | 50.92359 | 8.92297 | 60° | 22km/h | 18009m | 3.3m/s | 0°C | 0% | 0hPa | 4.7V | 00:00:00 | 00:00:00 | 00:00:00 | |
| DO2SHX-10 | 2026-08-31 10:17:36 | 50.92356 | 8.92290 | 57° | 20km/h | 17985m | 4.2m/s | 0°C | 0% | 0hPa | 4.7V | 00:00:00 | 00:00:00 | 00:00:00 | |
| SMARD9-10 | 2026-08-31 10:17:34 | 50.92349 | 8.92276 | 52° | 24km/h | 17997m | 3.1m/s | -50.4°C | 0% | 0hPa | 4.7V | 00:00:00 | 00:00:00 | 00:00:00 | |
| DO3MHA-11 | 2026-08-31 10:17:32 | 50.92342 | 8.92262 | 53° | 20km/h | 17985m | 4.2m/s | 0°C | 0% | 0hPa | 4.7V | 00:00:00 | 00:00:00 | 00:00:00 | |
| DF1GD-15 | 2026-08-31 10:17:31 | 50.92339 | 8.92256 | 54° | 20km/h | 17985m | 4.2m/s | -50.4°C | 0% | 0hPa | 4.7V | 00:00:00 | 00:00:00 | 00:00:00 | |
| AA1-15 | 2026-08-31 10:17:30 | 50.92336 | 8.92249 | 55° | 22km/h | 17980m | 4.3m/s | -50.5°C | 0% | 0hPa | 4.7V | 00:00:00 | 00:00:00 | 00:00:00 | |
| DL1NUX | 2026-08-31 10:17:30 | 50.92323 | 8.92216 | 54° | 18km/h | 17957m | 4.2m/s | 0°C | 0% | 0hPa | 0V | 00:00:00 | 00:00:00 | 00:00:00 | |
| DO2JMG | 2026-08-31 10:17:29 | 50.92330 | 8.92235 | 59° | 20km/h | 17973m | 4.3m/s | -50.6°C | 0% | 0hPa | 4.7V | 00:00:00 | 00:00:00 | 00:00:00 | |
| OE3JTB-15 | 2026-08-31 10:17:29 | 50.92333 | 8.92241 | 59° | 20km/h | 17973m | 4.2m/s | 0°C | 0% | 0hPa | 0V | 00:00:00 | 00:00:00 | 00:00:00 | |
| SO1NDE-10 | 2026-08-31 10:17:28 | 50.92330 | 8.92235 | 59° | 24km/h | 17969m | 3.8m/s | 0°C | 0% | 0hPa | 0V | 00:00:00 | 00:00:00 | 00:00:00 | |
| DL1XH-15 | 2026-08-31 10:17:27 | 50.92315 | 8.92200 | 56° | 18km/h | 17946m | 4.1m/s | 0°C | 0% | 0hPa | 0V | 00:00:00 | 00:00:00 | 00:00:00 | |
| GOEST3-10 | 2026-08-31 10:17:27 | 50.92327 | 8.92228 | 60° | 18km/h | 17966m | 3.7m/s | 0°C | 0% | 0hPa | 0V | 00:00:00 | 00:00:00 | 00:00:00 | |
| DO2SHX-10 | 2026-08-31 10:17:26 | 50.92325 | 8.92222 | 58° | 16km/h | 17962m | 3.7m/s | 0°C | 0% | 0hPa | 0V | 00:00:00 | 00:00:00 | 00:00:00 | |
| DJTTGO | 2026-08-31 10:17:25 | 50.92323 | 8.92216 | 55° | 18km/h | 17962m | 3.8m/s | -50.8°C | 0% | 0hPa | 0V | 00:00:00 | 00:00:00 | 00:00:00 | |
| DO2SHX-10 | 2026-08-31 10:17:22 | 50.92315 | 8.92201 | 61° | 22km/h | 17946m | 4.1m/s | 0°C | 0% | 0hPa | 0V | 00:00:00 | 00:00:00 | 00:00:00 | |
| DM7RM-13 | 2026-08-31 10:17:21 | 50.92312 | 8.92192 | 58° | 22km/h | 17946m | 4.1m/s | -44.5°C | 0% | 0hPa | 0V | 00:00:00 | 00:00:00 | 00:00:00 | |
| DL1NUX | 2026-08-31 10:17:20 | 50.92298 | 8.92140 | 75° | 26km/h | 17918m | 4.1m/s | 0°C | 0% | 0hPa | 0V | 00:00:00 | 00:00:00 | 00:00:00 | |
| DF8AY | 2026-08-31 10:17:20 | 50.92306 | 8.92176 | 64° | 24km/h | 17938m | 4.4m/s | -50.9°C | 0% | 0hPa | 4.7V | 00:00:00 | 00:00:00 | 00:00:00 | |
| DO2JMG | 2026-08-31 10:17:18 | 50.92302 | 8.92159 | 73° | 24km/h | 17930m | 3.9m/s | -50.9°C | 0% | 0hPa | 4.7V | 00:00:00 | 00:00:00 | 00:00:00 | |
| DL1XH-15 | 2026-08-31 10:17:17 | 50.92294 | 8.92113 | 75° | 24km/h | 17908m | 3.7m/s | 0°C | 0% | 0hPa | 0V | 00:00:00 | 00:00:00 | 00:00:00 | |
| DO2SHX-10 | 2026-08-31 10:17:15 | 50.92298 | 8.92140 | 76° | 24km/h | 17908m | 3.7m/s | 0°C | 0% | 0hPa | 4.7V | 00:00:00 | 00:00:00 | 00:00:00 | |
| DO3MHA-11 | 2026-08-31 10:17:12 | 50.92294 | 8.92113 | 76° | 26km/h | 17908m | 3.7m/s | 0°C | 0% | 0hPa | 4.7V | 00:00:00 | 00:00:00 | 00:00:00 | |
| DO2SHX-10 | 2026-08-31 10:17:11 | 50.92293 | 8.92103 | 75° | 26km/h | 17905m | 3.0m/s | 0°C | 0% | 0hPa | 4.7V | 00:00:00 | 00:00:00 | 00:00:00 | |
| GOEST3-10 | 2026-08-31 10:17:10 | 50.92291 | 8.92093 | 74° | 26km/h | 17901m | 4.1m/s | 0°C | 0% | 0hPa | 4.7V | 00:00:00 | 00:00:00 | 00:00:00 | |
| AA1-15 | 2026-08-31 10:17:09 | 50.92288 | 8.92074 | 80° | 26km/h | 17897m | 3.3m/s | -50.6°C | 0% | 0hPa | 4.7V | 00:00:00 | 00:00:00 | 00:00:00 | |
| DO2SHX-10 | 2026-08-31 10:17:08 | 50.92288 | 8.92073 | 80° | 26km/h | 17890m | 3.6m/s | 0°C | 0% | 0hPa | 0V | 00:00:00 | 00:00:00 | 00:00:00 | |
| DL1XH-15 | 2026-08-31 10:17:07 | 50.92278 | 8.92017 | 62° | 24km/h | 17871m | 3.2m/s | 0°C | 0% | 0hPa | 0V | 00:00:00 | 00:00:00 | 00:00:00 | |
| DL1XH-west | 2026-08-31 10:17:07 | 50.92285 | 8.92053 | 74° | 27km/h | 17890m | 3.7m/s | -50.5°C | 0% | 0hPa | 4.7V | 00:00:00 | 00:00:00 | 00:00:00 | |
| DD1CC2-15 | 2026-08-31 10:17:06 | 50.92285 | 8.92053 | 75° | 27km/h | 17890m | 3.7m/s | -44.1°C | 0% | 0hPa | 4.7V | 00:00:00 | 00:00:00 | 00:00:00 | |
| GOEST3-10 | 2026-08-31 10:17:05 | 50.92283 | 8.92042 | 73° | 24km/h | 17882m | 3.6m/s | 0°C | 0% | 0hPa | 4.7V | 00:00:00 | 00:00:00 | 00:00:00 | |
| DO2SHX-10 | 2026-08-31 10:17:04 | 50.92282 | 8.92034 | 73° | 24km/h | 17871m | 3.1m/s | 0°C | 0% | 0hPa | 4.7V | 00:00:00 | 00:00:00 | 00:00:00 | |
| DO3MHA-11 | 2026-08-31 10:17:02 | 50.92278 | 8.92017 | 63° | 22km/h | 17871m | 3.1m/s | 0°C | 0% | 0hPa | 4.7V | 00:00:00 | 00:00:00 | 00:00:00 | |
| DM7RM-13 | 2026-08-31 10:17:01 | 50.92275 | 8.92009 | 61° | 24km/h | 17871m | 3.2m/s | -44.1°C | 0% | 0hPa | 4.7V | 00:00:00 | 00:00:00 | 00:00:00 | |
| DO2SHX-10 | 2026-08-31 10:17:00 | 50.92272 | 8.92000 | 64° | 24km/h | 17833m | 3.7m/s | 0°C | 0% | 0hPa | 4.7V | 00:00:00 | 00:00:00 | 00:00:00 | |
| AA1-15 | 2026-08-31 10:16:59 | 50.92268 | 8.91983 | 70° | 24km/h | 17859m | 3.3m/s | -50.6°C | 0% | 0hPa | 4.7V | 00:00:00 | 00:00:00 | 00:00:00 | |
| SO1NDE-10 | 2026-08-31 10:16:58 | 50.92268 | 8.91982 | 71° | 24km/h | 17855m | 4.2m/s | 0°C | 0% | 0hPa | 0V | 00:00:00 | 00:00:00 | 00:00:00 | |
| DL1XH-15 | 2026-08-31 10:16:57 | 50.92257 | 8.91935 | 59° | 18km/h | 17832m | 3.7m/s | 0°C | 0% | 0hPa | 0V | 00:00:00 | 00:00:00 | 00:00:00 | |
| DO2SHX-10 | 2026-08-31 10:16:57 | 50.92266 | 8.91973 | 69° | 24km/h | 17833m | 3.7m/s | 0°C | 0% | 0hPa | 4.7V | 00:00:00 | 00:00:00 | 00:00:00 | |
| DO2JMG | 2026-08-31 10:16:56 | 50.92264 | 8.91965 | 71° | 24km/h | 17852m | 3.6m/s | -50.7°C | 0% | 0hPa | 4.7V | 00:00:00 | 00:00:00 | 00:00:00 | |
| GOEST3-10 | 2026-08-31 10:16:54 | 50.92260 | 8.91947 | 66° | 18km/h | 17840m | 4.4m/s | 0°C | 0% | 0hPa | 0V | 00:00:00 | 00:00:00 | 00:00:00 | |
| DO2SHX-10 | 2026-08-31 10:16:52 | 50.92257 | 8.91934 | 60° | 18km/h | 17833m | 3.7m/s | 0°C | 0% | 0hPa | 0V | 00:00:00 | 00:00:00 | 00:00:00 | |
| DL1NUX | 2026-08-31 10:16:50 | 50.92237 | 8.91881 | 59° | 26km/h | 17807m | 3.3m/s | 0°C | 0% | 0hPa | 0V | 00:00:00 | 00:00:00 | 00:00:00 | |
| DO2SHX-10 | 2026-08-31 10:16:49 | 50.92250 | 8.91914 | 63° | 24km/h | 17822m | 4.6m/s | 0°C | 0% | 0hPa | 4.7V | 00:00:00 | 00:00:00 | 00:00:00 | |
| AA1-15 | 2026-08-31 10:16:48 | 50.92244 | 8.91898 | 55° | 26km/h | 17818m | 3.4m/s | -50.8°C | 0% | 0hPa | 4.7V | 00:00:00 | 00:00:00 | 00:00:00 | |
| DL1XH-15 | 2026-08-31 10:16:47 | 50.92226 | 8.91857 | 41° | 22km/h | 17795m | 3.8m/s | 0°C | 0% | 0hPa | 0V | 00:00:00 | 00:00:00 | 00:00:00 | |
| DO2JMG | 2026-08-31 10:16:46 | 50.92237 | 8.91881 | 59° | 26km/h | 17810m | 4m/s | -50.8°C | 0% | 0hPa | 4.7V | 00:00:00 | 00:00:00 | 00:00:00 | |
| GOEST3-10 | 2026-08-31 10:16:43 | 50.92230 | 8.91864 | 50° | 22km/h | 17799m | 3.6m/s | 0°C | 0% | 0hPa | 0V | 00:00:00 | 00:00:00 | 00:00:00 | |
| DO3MHA-11 | 2026-08-31 10:16:42 | 50.92226 | 8.91857 | 42° | 24km/h | 17795m | 3.7m/s | 0°C | 0% | 0hPa | 0V | 00:00:00 | 00:00:00 | 00:00:00 | |
| DO8TBO-1 | 2026-08-31 10:16:39 | 50.92206 | 8.91828 | 41° | 29km/h | 17781m | 3.7m/s | 0°C | 0% | 0hPa | 0V | 00:00:00 | 00:00:00 | 00:00:00 | |
| DL1XH-15 | 2026-08-31 10:16:37 | 50.92185 | 8.91790 | 47° | 27km/h | 17758m | 3.7m/s | 0°C | 0% | 0hPa | 0V | 00:00:00 | 00:00:00 | 00:00:00 | |
| AA1-15 | 2026-08-31 10:16:37 | 50.92202 | 8.91822 | 44° | 24km/h | 17777m | 3.1m/s | -50.8°C | 0% | 0hPa | 4.7V | 00:00:00 | 00:00:00 | 00:00:00 | |
| DO2JMG | 2026-08-31 10:16:35 | 50.92193 | 8.91807 | 56° | 26km/h | 17769m | 3.7m/s | -50.8°C | 0% | 0hPa | 4.7V | 00:00:00 | 00:00:00 | 00:00:00 | |
| DO3MHA-11 | 2026-08-31 10:16:32 | 50.92185 | 8.91790 | 48° | 27km/h | 17758m | 3.6m/s | 0°C | 0% | 0hPa | 0V | 00:00:00 | 00:00:00 | 00:00:00 | |
| DL1NUX | 2026-08-31 10:16:30 | 50.92149 | 8.91747 | 34° | 27km/h | 17732m | 3.8m/s | 0°C | 0% | 0hPa | 0V | 00:00:00 | 00:00:00 | 00:00:00 | |
| GOEST3-10 | 2026-08-31 10:16:30 | 50.92175 | 8.91775 | 42° | 29km/h | 17750m | 3.3m/s | 0°C | 0% | 0hPa | 4.7V | 00:00:00 | 00:00:00 | 00:00:00 | |
| SO1NDE-10 | 2026-08-31 10:16:28 | 50.92166 | 8.91763 | 35° | 31km/h | 17743m | 4.1m/s | 0°C | 0% | 0hPa | 4.7V | 00:00:00 | 00:00:00 | 00:00:00 | |
| DL3OBA | 2026-08-31 10:16:27 | 50.92161 | 8.91758 | 32° | 26km/h | 17743m | 4.2m/s | -50.9°C | 0% | 0hPa | 4.7V | 00:00:00 | 00:00:00 | 00:00:00 | |
| AA1-15 | 2026-08-31 10:16:26 | 50.92149 | 8.91747 | 35° | 27km/h | 17736m | 4.2m/s | -51°C | 0% | 0hPa | 4.7V | 00:00:00 | 00:00:00 | 00:00:00 | |
| DF1GD-15 | 2026-08-31 10:16:25 | 50.92149 | 8.91747 | 36° | 27km/h | 17736m | 4.2m/s | -51.1°C | 0% | 0hPa | 4.7V | 00:00:00 | 00:00:00 | 00:00:00 | |
| DO2JMG | 2026-08-31 10:16:23 | 50.92138 | 8.91732 | 41° | 29km/h | 17728m | 3.7m/s | -51.5°C | 0% | 0hPa | 4.7V | 00:00:00 | 00:00:00 | 00:00:00 | |
| DO3MHA-11 | 2026-08-31 10:16:22 | 50.92132 | 8.91724 | 36° | 33km/h | 17721m | 3.0m/s | 0°C | 0% | 0hPa | 0V | 00:00:00 | 00:00:00 | 00:00:00 | |
| DL1NUX | 2026-08-31 10:16:20 | 50.92083 | 8.91683 | 26° | 35km/h | 17695m | 3.2m/s | 0°C | 0% | 0hPa | 0V | 00:00:00 | 00:00:00 | 00:00:00 | |
| DL1XH-15 | 2026-08-31 10:16:17 | 50.92060 | 8.91658 | 35° | 42km/h | 17684m | 3.4m/s | 0°C | 0% | 0hPa | 0V | 00:00:00 | 00:00:00 | 00:00:00 | |
| AA1-15 | 2026-08-31 10:16:16 | 50.92083 | 8.91683 | 27° | 35km/h | 17699m | 3.6m/s | -52°C | 0% | 0hPa | 4.7V | 00:00:00 | 00:00:00 | 00:00:00 | |
| DO2JMG | 2026-08-31 10:16:13 | 50.92060 | 8.91658 | 36° | 42km/h | 17688m | 3.3m/s | -52°C | 0% | 0hPa | 4.7V | 00:00:00 | 00:00:00 | 00:00:00 | |
| DO3MHA-11 | 2026-08-31 10:16:12 | 50.92060 | 8.91658 | 36° | 31km/h | 17684m | 3.4m/s | 0°C | 0% | 0hPa | 0V | 00:00:00 | 00:00:00 | 00:00:00 | |
| DL1NUX | 2026-08-31 10:16:10 | 50.92012 | 8.91618 | 17° | 26km/h | 17657m | 3.8m/s | 0°C | 0% | 0hPa | 0V | 00:00:00 | 00:00:00 | 00:00:00 | |
| DO8TBO-1 | 2026-08-31 10:16:09 | 50.92025 | 8.91621 | 10° | 27km/h | 17665m | 3.4m/s | 0°C | 0% | 0hPa | 0V | 00:00:00 | 00:00:00 | 00:00:00 | |
| DL1XH-15 | 2026-08-31 10:16:07 | 50.91994 | 8.91607 | 28° | 26km/h | 17647m | 3.7m/s | 0°C | 0% | 0hPa | 0V | 00:00:00 | 00:00:00 | 00:00:00 | |
| AA1-15 | 2026-08-31 10:16:04 | 50.92006 | 8.91615 | 18° | 24km/h | 17657m | 3.8m/s | -52°C | 0% | 0hPa | 4.7V | 00:00:00 | 00:00:00 | 00:00:00 | |
| DD1CC2-15 | 2026-08-31 10:16:04 | 50.92006 | 8.91615 | 19° | 24km/h | 17657m | 3.8m/s | -45.6°C | 0% | 0hPa | 4.7V | 00:00:00 | 00:00:00 | 00:00:00 | |
| DO2JMG | 2026-08-31 10:16:02 | 50.91994 | 8.91607 | 29° | 26km/h | 17651m | 4.2m/s | -52°C | 0% | 0hPa | 4.7V | 00:00:00 | 00:00:00 | 00:00:00 | |
| DO3MHA-11 | 2026-08-31 10:16:02 | 50.91994 | 8.91607 | 29° | 27km/h | 17647m | 3.7m/s | 0°C | 0% | 0hPa | 0V | 00:00:00 | 00:00:00 | 00:00:00 | |
| DL1NUX | 2026-08-31 10:16:00 | 50.91951 | 8.91565 | 17° | 27km/h | 17620m | 3.5m/s | 0°C | 0% | 0hPa | 0V | 00:00:00 | 00:00:00 | 00:00:00 | |
| SO1NDE-10 | 2026-08-31 10:15:58 | 50.91971 | 8.91577 | 22° | 27km/h | 17631m | 3.8m/s | 0°C | 0% | 0hPa | 4.7V | 00:00:00 | 00:00:00 | 00:00:00 | |
| AA1-15 | 2026-08-31 10:15:54 | 50.91938 | 8.91560 | 15° | 26km/h | 17616m | 4m/s | -51.9°C | 0% | 0hPa | 4.7V | 00:00:00 | 00:00:00 | 00:00:00 | |
| DO3MHA-11 | 2026-08-31 10:15:52 | 50.91932 | 8.91557 | 22° | 29km/h | 17609m | 3.1m/s | 0°C | 0% | 0hPa | 4.7V | 00:00:00 | 00:00:00 | 00:00:00 | |
| DL1XH-west | 2026-08-31 10:15:51 | 50.91925 | 8.91553 | 21° | 29km/h | 17609m | 3.1m/s | -51.9°C | 0% | 0hPa | 4.7V | 00:00:00 | 00:00:00 | 00:00:00 | |
| DL1NUX | 2026-08-31 10:15:50 | 50.91884 | 8.91525 | 15° | 29km/h | 17581m | 3.5m/s | 0°C | 0% | 0hPa | 0V | 00:00:00 | 00:00:00 | 00:00:00 | |
| DO2JMG | 2026-08-31 10:15:50 | 50.91912 | 8.91543 | 28° | 27km/h | 17601m | 3.4m/s | -51.9°C | 0% | 0hPa | 4.7V | 00:00:00 | 00:00:00 | 00:00:00 | |
| DJTTGO | 2026-08-31 10:15:49 | 50.91906 | 8.91538 | 27° | 29km/h | 17597m | 4.4m/s | -51.9°C | 0% | 0hPa | 0V | 00:00:00 | 00:00:00 | 00:00:00 | |
| DL1CLM-18 | 2026-08-31 10:15:48 | 50.91906 | 8.91538 | 27° | 29km/h | 17597m | 4.4m/s | -51.9°C | 0% | 0hPa | 0V | 00:00:00 | 00:00:00 | 00:00:00 | |
| DL1XH-15 | 2026-08-31 10:15:47 | 50.91864 | 8.91517 | 10° | 29km/h | 17570m | 4m/s | 0°C | 0% | 0hPa | 0V | 00:00:00 | 00:00:00 | 00:00:00 | |
| DF1GD-15 | 2026-08-31 10:15:46 | 50.91891 | 8.91529 | 20° | 31km/h | 17590m | 3.4m/s | -51.7°C | 0% | 0hPa | 4.7V | 00:00:00 | 00:00:00 | 00:00:00 | |
| DL3AQ-11 | 2026-08-31 10:15:45 | 50.91877 | 8.91522 | 15° | 26km/h | 17582m | 3.5m/s | -51.6°C | -1.0% | -1.0hPa | 4.7V | 00:00:00 | 00:00:00 | 00:00:00 | |
| THATR2-17 | 2026-08-31 10:15:44 | 50.91782 | 8.91486 | 8° | 27km/h | 17525m | 0m/s | 0°C | 0% | 0hPa | 4.7V | 00:00:00 | 00:00:00 | 00:00:00 | |
| AA1-15 | 2026-08-31 10:15:43 | 50.91864 | 8.91517 | 11° | 29km/h | 17574m | 3.9m/s | -51.5°C | 0% | 0hPa | 4.7V | 00:00:00 | 00:00:00 | 00:00:00 | |
| DO3MHA-11 | 2026-08-31 10:15:42 | 50.91864 | 8.91517 | 11° | 27km/h | 17570m | 4.0m/s | 0°C | 0% | 0hPa | 4.7V | 00:00:00 | 00:00:00 | 00:00:00 | |
| DL1XH-west | 2026-08-31 10:15:41 | 50.91850 | 8.91513 | 13° | 26km/h | 17566m | 4.1m/s | -51.4°C | 0% | 0hPa | 4.7V | 00:00:00 | 00:00:00 | 00:00:00 | |
| DL1NUX | 2026-08-31 10:15:40 | 50.91817 | 8.91500 | 16° | 26km/h | 17521m | 4.5m/s | 0°C | 0% | 0hPa | 0V | 00:00:00 | 00:00:00 | 00:00:00 | |
| DO2JMG | 2026-08-31 10:15:39 | 50.91837 | 8.91508 | 13° | 27km/h | 17557m | 4m/s | -51.4°C | 0% | 0hPa | 4.7V | 00:00:00 | 00:00:00 | 00:00:00 | |
| DL1XH-15 | 2026-08-31 10:15:37 | 50.91796 | 8.91491 | 14° | 29km/h | 17529m | 4.2m/s | 0°C | 0% | 0hPa | 0V | 00:00:00 | 00:00:00 | 00:00:00 | |
| AA1-15 | 2026-08-31 10:15:32 | 50.91797 | 8.91491 | 14° | 29km/h | 17533m | 4m/s | -51.3°C | 0% | 0hPa | 4.7V | 00:00:00 | 00:00:00 | 00:00:00 | |
| DO3MHA-11 | 2026-08-31 10:15:32 | 50.91797 | 8.91491 | 15° | 27km/h | 17529m | 4.2m/s | 0°C | 0% | 0hPa | 0V | 00:00:00 | 00:00:00 | 00:00:00 | |
| DL1NUX | 2026-08-31 10:15:30 | 50.91747 | 8.91482 | 7° | 26km/h | 17500m | 3.8m/s | 0°C | 0% | 0hPa | 0V | 00:00:00 | 00:00:00 | 00:00:00 | |
| DL1XH-west | 2026-08-31 10:15:30 | 50.91775 | 8.91485 | 5° | 31km/h | 17521m | 4.5m/s | -51.3°C | 0% | 0hPa | 4.7V | 00:00:00 | 00:00:00 | 00:00:00 | |
| DO2JMG | 2026-08-31 10:15:28 | 50.91767 | 8.91484 | 3° | 31km/h | 17517m | 3.3m/s | -51.3°C | 0% | 0hPa | 4.7V | 00:00:00 | 00:00:00 | 00:00:00 | |
| DL1XH-15 | 2026-08-31 10:15:27 | 50.91728 | 8.91475 | 12° | 22km/h | 17487m | 3.8m/s | 0°C | 0% | 0hPa | 0V | 00:00:00 | 00:00:00 | 00:00:00 | |
| SO1NDE-10 | 2026-08-31 10:15:27 | 50.91760 | 8.91484 | 4° | 26km/h | 17509m | 4.2m/s | 0°C | 0% | 0hPa | 4.7V | 00:00:00 | 00:00:00 | 00:00:00 | |
| DL3OBA | 2026-08-31 10:15:26 | 50.91753 | 8.91483 | 6° | 26km/h | 17509m | 4.2m/s | -51.2°C | 0% | 0hPa | 4.7V | 00:00:00 | 00:00:00 | 00:00:00 | |
| AA1-15 | 2026-08-31 10:15:22 | 50.91723 | 8.91473 | 13° | 22km/h | 17487m | 3.8m/s | -51°C | 0% | 0hPa | 4.7V | 00:00:00 | 00:00:00 | 00:00:00 | |
| DL1XH-west | 2026-08-31 10:15:19 | 50.91711 | 8.91469 | 10° | 26km/h | 17478m | 3.2m/s | -50.9°C | 0% | 0hPa | 4.7V | 00:00:00 | 00:00:00 | 00:00:00 | |
| DL1NUX | 2026-08-31 10:15:18 | 50.91673 | 8.91455 | 8° | 26km/h | 17448m | 3.5m/s | 0°C | 0% | 0hPa | 0V | 00:00:00 | 00:00:00 | 00:00:00 | |
| DL1XH-15 | 2026-08-31 10:15:17 | 50.91667 | 8.91454 | 9° | 22km/h | 17448m | 3.5m/s | 0°C | 0% | 0hPa | 0V | 00:00:00 | 00:00:00 | 00:00:00 | |
| DO2JMG | 2026-08-31 10:15:17 | 50.91692 | 8.91463 | 16° | 26km/h | 17467m | 3.6m/s | -50.8°C | 0% | 0hPa | 4.7V | 00:00:00 | 00:00:00 | 00:00:00 | |
| DJTTGO | 2026-08-31 10:15:17 | 50.91692 | 8.91463 | 17° | 26km/h | 17468m | 3.6m/s | -50.8°C | 0% | 0hPa | 4.7V | 00:00:00 | 00:00:00 | 00:00:00 | |
| DO2SHX-10 | 2026-08-31 10:15:14 | 50.91679 | 8.91457 | 13° | 24km/h | 17457m | 3.3m/s | 0°C | 0% | 0hPa | 4.7V | 00:00:00 | 00:00:00 | 00:00:00 | |
| DO3MHA-11 | 2026-08-31 10:15:12 | 50.91667 | 8.91454 | 10° | 26km/h | 17449m | 3.5m/s | 0°C | 0% | 0hPa | 4.7V | 00:00:00 | 00:00:00 | 00:00:00 | |
| AA1-15 | 2026-08-31 10:15:11 | 50.91658 | 8.91452 | 9° | 18km/h | 17445m | 3.8m/s | -50.7°C | 0% | 0hPa | 4.7V | 00:00:00 | 00:00:00 | 00:00:00 | |
| DO2SHX-10 | 2026-08-31 10:15:11 | 50.91662 | 8.91454 | 11° | 20km/h | 17445m | 3.7m/s | 0°C | 0% | 0hPa | 4.7V | 00:00:00 | 00:00:00 | 00:00:00 | |
| DL1XH-west | 2026-08-31 10:15:09 | 50.91646 | 8.91448 | 12° | 26km/h | 17436m | 3.6m/s | -50.6°C | 0% | 0hPa | 4.7V | 00:00:00 | 00:00:00 | 00:00:00 | |
| DO2SHX-10 | 2026-08-31 10:15:08 | 50.91646 | 8.91448 | 12° | 26km/h | 17433m | 4.2m/s | 0°C | 0% | 0hPa | 0V | 00:00:00 | 00:00:00 | 00:00:00 | |
| DL1XH-15 | 2026-08-31 10:15:07 | 50.91601 | 8.91437 | 15° | 29km/h | 17409m | 4.2m/s | 0°C | 0% | 0hPa | 0V | 00:00:00 | 00:00:00 | 00:00:00 | |
| DO2JMG | 2026-08-31 10:15:07 | 50.91633 | 8.91444 | 13° | 27km/h | 17429m | 3.2m/s | -50.6°C | 0% | 0hPa | 4.7V | 00:00:00 | 00:00:00 | 00:00:00 | |
| DL1NUX | 2026-08-31 10:15:06 | 50.91609 | 8.91438 | 5° | 33km/h | 17414m | 5m/s | 0°C | 0% | 0hPa | 0V | 00:00:00 | 00:00:00 | 00:00:00 | |
| DL3OBA | 2026-08-31 10:15:05 | 50.91626 | 8.91442 | 11° | 31km/h | 17425m | 4.2m/s | -50.6°C | 0% | 0hPa | 4.7V | 00:00:00 | 00:00:00 | 00:00:00 | |
| DO2SHX-10 | 2026-08-31 10:15:04 | 50.91618 | 8.91439 | 10° | 33km/h | 17414m | 4.9m/s | 0°C | 0% | 0hPa | 4.7V | 00:00:00 | 00:00:00 | 00:00:00 | |
| DO3MHA-11 | 2026-08-31 10:15:02 | 50.91601 | 8.91437 | 16° | 26km/h | 17409m | 4.2m/s | 0°C | 0% | 0hPa | 4.7V | 00:00:00 | 00:00:00 | 00:00:00 | |
| DO2SHX-10 | 2026-08-31 10:15:01 | 50.91594 | 8.91434 | 16° | 27km/h | 17400m | 4.9m/s | 0°C | 0% | 0hPa | 4.7V | 00:00:00 | 00:00:00 | 00:00:00 | |
| AA1-15 | 2026-08-31 10:15:00 | 50.91589 | 8.91431 | 20° | 24km/h | 17405m | 4.6m/s | -50.3°C | 0% | 0hPa | 4.7V | 00:00:00 | 00:00:00 | 00:00:00 | |
| DF8AY | 2026-08-31 10:15:00 | 50.91583 | 8.91428 | 18° | 22km/h | 17400m | 4.9m/s | -50.3°C | 0% | 0hPa | 4.7V | 00:00:00 | 00:00:00 | 00:00:00 | |
| DL1XH-west | 2026-08-31 10:14:57 | 50.91573 | 8.91423 | 15° | 22km/h | 17392m | 4.4m/s | -50.4°C | 0% | 0hPa | 4.7V | 00:00:00 | 00:00:00 | 00:00:00 | |
| DL1XH-15 | 2026-08-31 10:14:57 | 50.91535 | 8.91404 | 21° | 38km/h | 17369m | 3.4m/s | 0°C | 0% | 0hPa | 0V | 00:00:00 | 00:00:00 | 00:00:00 | |
| SO1NDE-10 | 2026-08-31 10:14:57 | 50.91573 | 8.91423 | 15° | 26km/h | 17387m | 4.0m/s | 0°C | 0% | 0hPa | 4.7V | 00:00:00 | 00:00:00 | 00:00:00 | |
| DO2JMG | 2026-08-31 10:14:56 | 50.91561 | 8.91418 | 16° | 29km/h | 17383m | 3.8m/s | -50.3°C | 0% | 0hPa | 4.7V | 00:00:00 | 00:00:00 | 00:00:00 | |
| DO2SHX-10 | 2026-08-31 10:14:54 | 50.91553 | 8.91414 | 18° | 35km/h | 17379m | 4.1m/s | 0°C | 0% | 0hPa | 0V | 00:00:00 | 00:00:00 | 00:00:00 | |
| DL1NUX | 2026-08-31 10:14:53 | 50.91544 | 8.91409 | 20° | 40km/h | 17372m | 3.9m/s | 0°C | 0% | 0hPa | 0V | 00:00:00 | 00:00:00 | 00:00:00 | |
| DO3MHA-11 | 2026-08-31 10:14:52 | 50.91535 | 8.91404 | 22° | 26km/h | 17369m | 3.4m/s | 0°C | 0% | 0hPa | 4.7V | 00:00:00 | 00:00:00 | 00:00:00 | |
| DO2SHX-10 | 2026-08-31 10:14:50 | 50.91520 | 8.91392 | 31° | 26km/h | 17361m | 4.8m/s | 0°C | 0% | 0hPa | 4.7V | 00:00:00 | 00:00:00 | 00:00:00 | |
| AA1-15 | 2026-08-31 10:14:49 | 50.91510 | 8.91381 | 38° | 22km/h | 17357m | 3.9m/s | -50°C | 0% | 0hPa | 4.7V | 00:00:00 | 00:00:00 | 00:00:00 | |
| DL1XH-west | 2026-08-31 10:14:47 | 50.91501 | 8.91372 | 14° | 18km/h | 17349m | 4.5m/s | -49.9°C | 0% | 0hPa | 4.7V | 00:00:00 | 00:00:00 | 00:00:00 | |
| DL1XH-15 | 2026-08-31 10:14:45 | 50.91465 | 8.91356 | 19° | 29km/h | 17318m | 3.3m/s | 0°C | 0% | 0hPa | 0V | 00:00:00 | 00:00:00 | 00:00:00 | |
| DO2JMG | 2026-08-31 10:14:45 | 50.91492 | 8.91369 | 8° | 24km/h | 17342m | 4.7m/s | -49.9°C | 0% | 0hPa | 4.7V | 00:00:00 | 00:00:00 | 00:00:00 | |
| DO2SHX-10 | 2026-08-31 10:14:43 | 50.91485 | 8.91368 | 21° | 29km/h | 17328m | 4.8m/s | 0°C | 0% | 0hPa | 4.7V | 00:00:00 | 00:00:00 | 00:00:00 | |
| DO3MHA-11 | 2026-08-31 10:14:42 | 50.91479 | 8.91364 | 19° | 26km/h | 17328m | 4.8m/s | 0°C | 0% | 0hPa | 4.7V | 00:00:00 | 00:00:00 | 00:00:00 | |
| DO2SHX-10 | 2026-08-31 10:14:40 | 50.91464 | 8.91356 | 20° | 27km/h | 17304m | 4.9m/s | 0°C | 0% | 0hPa | 4.7V | 00:00:00 | 00:00:00 | 00:00:00 | |
| AA1-15 | 2026-08-31 10:14:39 | 50.91452 | 8.91347 | 28° | 27km/h | 17314m | 5.2m/s | -49.7°C | 0% | 0hPa | 4.7V | 00:00:00 | 00:00:00 | 00:00:00 | |
| DO2SHX-10 | 2026-08-31 10:14:37 | 50.91446 | 8.91341 | 38° | 24km/h | 17304m | 4.9m/s | 0°C | 0% | 0hPa | 4.7V | 00:00:00 | 00:00:00 | 00:00:00 | |
| DL1XH-west | 2026-08-31 10:14:36 | 50.91442 | 8.91335 | 40° | 24km/h | 17304m | 4.9m/s | -49.7°C | 0% | 0hPa | 4.7V | 00:00:00 | 00:00:00 | 00:00:00 | |
| DL1NUX | 2026-08-31 10:14:35 | 50.91426 | 8.91315 | 42° | 22km/h | 17287m | 3.9m/s | 0°C | 0% | 0hPa | 0V | 00:00:00 | 00:00:00 | 00:00:00 | |
| DL1XH-15 | 2026-08-31 10:14:35 | 50.91416 | 8.91304 | 37° | 22km/h | 17274m | 4.7m/s | 0°C | 0% | 0hPa | 0V | 00:00:00 | 00:00:00 | 00:00:00 | |
| DO2JMG | 2026-08-31 10:14:34 | 50.91433 | 8.91325 | 37° | 20km/h | 17295m | 3.5m/s | -49.6°C | 0% | 0hPa | 4.7V | 00:00:00 | 00:00:00 | 00:00:00 | |
| DO2SHX-10 | 2026-08-31 10:14:34 | 50.91433 | 8.91325 | 38° | 31km/h | 17296m | 3.4m/s | 0°C | 0% | 0hPa | 5.2V | 00:00:00 | 00:00:00 | 00:00:00 | |
| DO3MHA-11 | 2026-08-31 10:14:32 | 50.91425 | 8.91314 | 40° | 24km/h | 17283m | 4.6m/s | 0°C | 0% | 0hPa | 5.2V | 00:00:00 | 00:00:00 | 00:00:00 | |
| DJTTGO | 2026-08-31 10:14:28 | 50.91406 | 8.91292 | 41° | 24km/h | 17270m | 5.0m/s | -49.3°C | 0% | 0hPa | 5.2V | 00:00:00 | 00:00:00 | 00:00:00 | |
| BIOWL1-15 | 2026-08-31 10:14:27 | 50.59308 | 7.97897 | 60° | 142km/h | 8539m | 3.5m/s | 0°C | 0% | 0hPa | 5.2V | 00:00:00 | 00:00:00 | 00:00:00 | |
| SO1NDE-10 | 2026-08-31 10:14:27 | 50.91402 | 8.91286 | 39° | 27km/h | 17262m | 4.2m/s | 0°C | 0% | 0hPa | 4.7V | 00:00:00 | 00:00:00 | 00:00:00 | |
| DL1XH-west | 2026-08-31 10:14:25 | 50.91392 | 8.91275 | 27° | 26km/h | 17257m | 4.3m/s | -49.2°C | 0% | 0hPa | 4.7V | 00:00:00 | 00:00:00 | 00:00:00 | |
| DL1XH-15 | 2026-08-31 10:14:25 | 50.91361 | 8.91246 | 31° | 26km/h | 17233m | 3.7m/s | 0°C | 0% | 0hPa | 0V | 00:00:00 | 00:00:00 | 00:00:00 | |
| DL3OBA | 2026-08-31 10:14:24 | 50.91386 | 8.91270 | 26° | 27km/h | 17254m | 3.1m/s | -49.2°C | 0% | 0hPa | 0V | 00:00:00 | 00:00:00 | 00:00:00 | |
| DL1NUX | 2026-08-31 10:14:23 | 50.91373 | 8.91259 | 33° | 29km/h | 17241m | 3.6m/s | 0°C | 0% | 0hPa | 0V | 00:00:00 | 00:00:00 | 00:00:00 | |
| DO3MHA-11 | 2026-08-31 10:14:22 | 50.91373 | 8.91259 | 34° | 26km/h | 17241m | 3.6m/s | 0°C | 0% | 0hPa | 5.2V | 00:00:00 | 00:00:00 | 00:00:00 | |
| BIOWL1-15 | 2026-08-31 10:14:16 | 50.59107 | 7.97364 | 60° | 144km/h | 8506m | 2.8m/s | 0°C | 0% | 0hPa | 5.2V | 00:00:00 | 00:00:00 | 00:00:00 | |
| DL1XH-15 | 2026-08-31 10:14:15 | 50.91302 | 8.91196 | 17° | 27km/h | 17193m | 3.9m/s | 0°C | 0% | 0hPa | 0V | 00:00:00 | 00:00:00 | 00:00:00 | |
| DL1XH-west | 2026-08-31 10:14:14 | 50.91331 | 8.91214 | 26° | 27km/h | 17212m | 4.1m/s | -48.9°C | 0% | 0hPa | 4.7V | 00:00:00 | 00:00:00 | 00:00:00 | |
| DD1CC2-15 | 2026-08-31 10:14:14 | 50.91331 | 8.91214 | 27° | 27km/h | 17213m | 4.1m/s | -42.3°C | 0% | 0hPa | 0V | 00:00:00 | 00:00:00 | 00:00:00 | |
| DL1NUX | 2026-08-31 10:14:13 | 50.91317 | 8.91204 | 22° | 33km/h | 17201m | 4.3m/s | 0°C | 0% | 0hPa | 0V | 00:00:00 | 00:00:00 | 00:00:00 | |
| DO2JMG | 2026-08-31 10:14:12 | 50.91317 | 8.91204 | 23° | 33km/h | 17205m | 2.7m/s | -48.5°C | 0% | 0hPa | 4.7V | 00:00:00 | 00:00:00 | 00:00:00 | |
| DO3MHA-11 | 2026-08-31 10:14:12 | 50.91317 | 8.91204 | 23° | 27km/h | 17201m | 4.3m/s | 0°C | 0% | 0hPa | 4.7V | 00:00:00 | 00:00:00 | 00:00:00 | |
| DO8TBO-1 | 2026-08-31 10:14:08 | 50.91283 | 8.91182 | 35° | 31km/h | 17174m | 3.7m/s | 0°C | 0% | 0hPa | 4.7V | 00:00:00 | 00:00:00 | 00:00:00 | |
| DF8AY | 2026-08-31 10:14:06 | 50.91273 | 8.91168 | 50° | 26km/h | 17178m | 4m/s | -48.6°C | 0% | 0hPa | 4.7V | 00:00:00 | 00:00:00 | 00:00:00 | |
| DL1XH-15 | 2026-08-31 10:14:05 | 50.91251 | 8.91120 | 32° | 27km/h | 17138m | 4m/s | 0°C | 0% | 0hPa | 0V | 00:00:00 | 00:00:00 | 00:00:00 | |
| DL1XH-west | 2026-08-31 10:14:04 | 50.91265 | 8.91150 | 57° | 29km/h | 17169m | 4.9m/s | -48.5°C | 0% | 0hPa | 4.7V | 00:00:00 | 00:00:00 | 00:00:00 | |
| DL3OBA | 2026-08-31 10:14:03 | 50.91265 | 8.91150 | 58° | 29km/h | 17170m | 4.9m/s | -48.5°C | 0% | 0hPa | 4.7V | 00:00:00 | 00:00:00 | 00:00:00 | |
| DO3MHA-11 | 2026-08-31 10:14:02 | 50.91261 | 8.91138 | 51° | 26km/h | 17162m | 4.0m/s | 0°C | 0% | 0hPa | 4.7V | 00:00:00 | 00:00:00 | 00:00:00 | |
| GOEST3-10 | 2026-08-31 10:14:00 | 50.91251 | 8.91121 | 42° | 24km/h | 17157m | 4.1m/s | 0°C | 0% | 0hPa | 4.7V | 00:00:00 | 00:00:00 | 00:00:00 | |
| DO2JMG | 2026-08-31 10:13:57 | 50.91234 | 8.91105 | 24° | 27km/h | 17145m | 3.2m/s | -48.5°C | 0% | 0hPa | 4.7V | 00:00:00 | 00:00:00 | 00:00:00 | |
| SO1NDE-10 | 2026-08-31 10:13:57 | 50.91234 | 8.91105 | 24° | 31km/h | 17142m | 3.4m/s | 0°C | 0% | 0hPa | 4.7V | 00:00:00 | 00:00:00 | 00:00:00 | |
| AA1-15 | 2026-08-31 10:13:55 | 50.91222 | 8.91098 | 27° | 22km/h | 17138m | 4m/s | -48.5°C | 0% | 0hPa | 4.7V | 00:00:00 | 00:00:00 | 00:00:00 | |
| DL1XH-15 | 2026-08-31 10:13:55 | 50.91198 | 8.91062 | 49° | 35km/h | 17116m | 3m/s | 0°C | 0% | 0hPa | 0V | 00:00:00 | 00:00:00 | 00:00:00 | |
| GOEST3-10 | 2026-08-31 10:13:54 | 50.91218 | 8.91094 | 37° | 27km/h | 17116m | 3.0m/s | 0°C | 0% | 0hPa | 4.7V | 00:00:00 | 00:00:00 | 00:00:00 | |
| DL1NUX | 2026-08-31 10:13:54 | 50.91209 | 8.91082 | 48° | 29km/h | 17123m | 3.4m/s | 0°C | 0% | 0hPa | 0V | 00:00:00 | 00:00:00 | 00:00:00 | |
| HSKMA3-T | 2026-08-31 10:13:53 | 50.91209 | 8.91082 | 49° | 29km/h | 17127m | 3.9m/s | -48.7°C | 0% | 0hPa | 4.7V | 00:00:00 | 00:00:00 | 00:00:00 | |
| DO3MHA-11 | 2026-08-31 10:13:52 | 50.91209 | 8.91082 | 49° | 27km/h | 17123m | 3.4m/s | 0°C | 0% | 0hPa | 4.7V | 00:00:00 | 00:00:00 | 00:00:00 | |
| GOEST3-10 | 2026-08-31 10:13:49 | 50.91193 | 8.91051 | 48° | 27km/h | 17116m | 3.0m/s | 0°C | 0% | 0hPa | 4.7V | 00:00:00 | 00:00:00 | 00:00:00 | |
| DO2JMG | 2026-08-31 10:13:47 | 50.91174 | 8.91026 | 32° | 27km/h | 17106m | 2.5m/s | -49.1°C | 0% | 0hPa | 4.7V | 00:00:00 | 00:00:00 | 00:00:00 | |
| DL1XH-15 | 2026-08-31 10:13:45 | 50.91146 | 8.90990 | 51° | 40km/h | 17081m | 4.6m/s | 0°C | 0% | 0hPa | 0V | 00:00:00 | 00:00:00 | 00:00:00 | |
| AA1-15 | 2026-08-31 10:13:44 | 50.91164 | 8.91017 | 33° | 16km/h | 17098m | 2.8m/s | -49.1°C | 0% | 0hPa | 4.7V | 00:00:00 | 00:00:00 | 00:00:00 | |
| DL1NUX | 2026-08-31 10:13:44 | 50.91157 | 8.91009 | 44° | 22km/h | 17090m | 3.8m/s | 0°C | 0% | 0hPa | 0V | 00:00:00 | 00:00:00 | 00:00:00 | |
| DL1XH-west | 2026-08-31 10:13:43 | 50.91157 | 8.91009 | 45° | 22km/h | 17093m | 3.1m/s | -49.1°C | 0% | 0hPa | 4.7V | 00:00:00 | 00:00:00 | 00:00:00 | |
| DO3MHA-11 | 2026-08-31 10:13:42 | 50.91157 | 8.91009 | 45° | 37km/h | 17090m | 3.8m/s | 0°C | 0% | 0hPa | 0V | 00:00:00 | 00:00:00 | 00:00:00 | |
| GOEST3-10 | 2026-08-31 10:13:41 | 50.91152 | 8.91001 | 49° | 33km/h | 17077m | 4.6m/s | 0°C | 0% | 0hPa | 0V | 00:00:00 | 00:00:00 | 00:00:00 | |
| DO8TBO-1 | 2026-08-31 10:13:37 | 50.91115 | 8.90922 | 65° | 42km/h | 17060m | 4.0m/s | !°C | 0% | 0hPa | 0V | 00:00:00 | 00:00:00 | 00:00:00 | |
| DL1NUX | 2026-08-31 10:13:36 | 50.91101 | 8.90880 | 48° | 31km/h | 17034m | 3.9m/s | 0°C | 0% | 0hPa | 0V | 00:00:00 | 00:00:00 | 00:00:00 | |
| DO2JMG | 2026-08-31 10:13:36 | 50.91115 | 8.90922 | 65° | 35km/h | 17064m | 5m/s | -49.1°C | 0% | 0hPa | 4.7V | 00:00:00 | 00:00:00 | 00:00:00 | |
| BIOWL1-15 | 2026-08-31 10:13:34 | 50.91109 | 8.90899 | 64° | 27km/h | 17055m | 4.4m/s | -49.3°C | 0% | 0hPa | 5.2V | 00:00:00 | 00:00:00 | 00:00:00 | |
| DD1CC2-15 | 2026-08-31 10:13:33 | 50.91106 | 8.90889 | 55° | 27km/h | 17051m | 4.3m/s | -42.8°C | 0% | 0hPa | 4.7V | 00:00:00 | 00:00:00 | 00:00:00 | |
| DO3MHA-11 | 2026-08-31 10:13:32 | 50.91106 | 8.90890 | 49° | 35km/h | 17047m | 3.6m/s | 0°C | 0% | 0hPa | 4.7V | 00:00:00 | 00:00:00 | 00:00:00 | |
| DL1XH-west | 2026-08-31 10:13:31 | 50.91101 | 8.90880 | 48° | 31km/h | 17047m | 3.6m/s | -49.3°C | 0% | 0hPa | 4.7V | 00:00:00 | 00:00:00 | 00:00:00 | |
| DJTTGO | 2026-08-31 10:13:31 | 50.91101 | 8.90880 | 49° | 31km/h | 17047m | 3.7m/s | -49.3°C | 0% | 0hPa | 5.2V | 00:00:00 | 00:00:00 | 00:00:00 | |
| GOEST3-10 | 2026-08-31 10:13:30 | 50.91095 | 8.90872 | 64° | 46km/h | 17026m | 5.2m/s | 0°C | 0% | 0hPa | 5.2V | 00:00:00 | 00:00:00 | 00:00:00 | |
| SO1NDE-10 | 2026-08-31 10:13:27 | 50.91081 | 8.90830 | 66° | 46km/h | 17026m | 5.2m/s | 0°C | 0% | 0hPa | 5.2V | 00:00:00 | 00:00:00 | 00:00:00 | |
| BIOWL1-15 | 2026-08-31 10:13:25 | 50.91063 | 8.90781 | 59° | 35km/h | 17013m | 5.4m/s | 0°C | 0% | 0hPa | 5.2V | 00:00:00 | 00:00:00 | 00:00:00 | |
| DO2JMG | 2026-08-31 10:13:25 | 50.91068 | 8.90792 | 57° | 33km/h | 17018m | 4.1m/s | -49.7°C | 0% | 0hPa | 4.7V | 00:00:00 | 00:00:00 | 00:00:00 | |
| DF8AY | 2026-08-31 10:13:23 | 50.91058 | 8.90768 | 59° | 38km/h | 17008m | 3.4m/s | -49.7°C | 0% | 0hPa | 4.7V | 00:00:00 | 00:00:00 | 00:00:00 | |
| DL1NUX | 2026-08-31 10:13:22 | 50.91047 | 8.90742 | 50° | 44km/h | 16996m | 3.8m/s | 0°C | 0% | 0hPa | 0V | 00:00:00 | 00:00:00 | 00:00:00 | |
| DO3MHA-11 | 2026-08-31 10:13:22 | 50.91058 | 8.90768 | 60° | 44km/h | 17004m | 4.4m/s | 0°C | 0% | 0hPa | 4.7V | 00:00:00 | 00:00:00 | 00:00:00 | |
| DL1XH-west | 2026-08-31 10:13:20 | 50.91046 | 8.90742 | 50° | 44km/h | 17000m | 3.8m/s | -50.1°C | 0% | 0hPa | 4.7V | 00:00:00 | 00:00:00 | 00:00:00 | |
| DL1CLM-18 | 2026-08-31 10:13:15 | 50.91012 | 8.90666 | 61° | 44km/h | 16983m | 4.6m/s | -50.2°C | 0% | 0hPa | 4.7V | 00:00:00 | 00:00:00 | 00:00:00 | |
| DO2JMG | 2026-08-31 10:13:14 | 50.91007 | 8.90650 | 60° | 44km/h | 16978m | 4m/s | -50.2°C | 0% | 0hPa | 4.7V | 00:00:00 | 00:00:00 | 00:00:00 | |
| BIOWL1-15 | 2026-08-31 10:13:13 | 50.57973 | 7.94293 | 60° | 137km/h | 8323m | 3.4m/s | 0°C | 0% | 0hPa | 5.2V | 00:00:00 | 00:00:00 | 00:00:00 | |
| DL1NUX | 2026-08-31 10:13:12 | 50.90985 | 8.90586 | 62° | 47km/h | 16959m | 4.3m/s | 0°C | 0% | 0hPa | 0V | 00:00:00 | 00:00:00 | 00:00:00 | |
| DO3MHA-11 | 2026-08-31 10:13:12 | 50.90995 | 8.90619 | 63° | 49km/h | 16966m | 4.2m/s | 0°C | 0% | 0hPa | 4.7V | 00:00:00 | 00:00:00 | 00:00:00 | |
| DD1CC2-15 | 2026-08-31 10:13:11 | 50.90990 | 8.90602 | 65° | 47km/h | 16966m | 4.2m/s | -43.7°C | 0% | 0hPa | 4.7V | 00:00:00 | 00:00:00 | 00:00:00 | |
| DL1XH-west | 2026-08-31 10:13:10 | 50.90980 | 8.90568 | 63° | 49km/h | 16959m | 4.3m/s | -50.2°C | 0% | 0hPa | 4.7V | 00:00:00 | 00:00:00 | 00:00:00 | |
| DO8TBO-1 | 2026-08-31 10:13:07 | 50.90954 | 8.90496 | 62° | 60km/h | 16940m | 4.2m/s | 0°C | 0% | 0hPa | 4.7V | 00:00:00 | 00:00:00 | 00:00:00 | |
| DO2JMG | 2026-08-31 10:13:04 | 50.90942 | 8.90462 | 59° | 53km/h | 16937m | 3.3m/s | -50.3°C | 0% | 0hPa | 4.7V | 00:00:00 | 00:00:00 | 00:00:00 | |
| DF8AY | 2026-08-31 10:13:02 | 50.90928 | 8.90426 | 60° | 51km/h | 16930m | 4.4m/s | -50.3°C | 0% | 0hPa | 4.7V | 00:00:00 | 00:00:00 | 00:00:00 | |
| DL1XH-west | 2026-08-31 10:12:59 | 50.90916 | 8.90390 | 62° | 53km/h | 16922m | 3.2m/s | -50.3°C | 0% | 0hPa | 4.7V | 00:00:00 | 00:00:00 | 00:00:00 | |
| DJTTGO | 2026-08-31 10:12:59 | 50.90916 | 8.90390 | 63° | 53km/h | 16923m | 3.2m/s | -50.3°C | 0% | 0hPa | 4.7V | 00:00:00 | 00:00:00 | 00:00:00 | |
| SO1NDE-10 | 2026-08-31 10:12:57 | 50.90902 | 8.90350 | 63° | 62km/h | 16911m | 3.8m/s | 0°C | 0% | 0hPa | 4.7V | 00:00:00 | 00:00:00 | 00:00:00 | |
| DO2JMG | 2026-08-31 10:12:52 | 50.90868 | 8.90250 | 58° | 57km/h | 16896m | 3.4m/s | -51°C | 0% | 0hPa | 4.7V | 00:00:00 | 00:00:00 | 00:00:00 | |
| DL1NUX | 2026-08-31 10:12:52 | 50.90854 | 8.90211 | 62° | 58km/h | 16885m | 3.3m/s | 0°C | 0% | 0hPa | 0V | 00:00:00 | 00:00:00 | 00:00:00 | |
| DF8AY | 2026-08-31 10:12:52 | 50.90854 | 8.90211 | 62° | 58km/h | 16888m | 3.7m/s | -50.9°C | 0% | 0hPa | 4.7V | 00:00:00 | 00:00:00 | 00:00:00 | |
| DD1CC2-15 | 2026-08-31 10:12:51 | 50.90861 | 8.90231 | 60° | 57km/h | 16893m | 4.0m/s | -44.5°C | 0% | 0hPa | 4.7V | 00:00:00 | 00:00:00 | 00:00:00 | |
| DL1XH-west | 2026-08-31 10:12:49 | 50.90840 | 8.90167 | 64° | 64km/h | 16881m | 4.5m/s | -50.8°C | 0% | 0hPa | 4.7V | 00:00:00 | 00:00:00 | 00:00:00 | |
| DO3DL | 2026-08-31 10:12:45 | 50.90817 | 8.90098 | 63° | 66km/h | 16869m | 3.4m/s | -50.8°C | 0% | 0hPa | 4.7V | 00:00:00 | 00:00:00 | 00:00:00 | |
| DO2JMG | 2026-08-31 10:12:42 | 50.90782 | 8.90010 | 54° | 68km/h | 16854m | 3.8m/s | -50.7°C | 0% | 0hPa | 4.7V | 00:00:00 | 00:00:00 | 00:00:00 | |
| DL3OBA | 2026-08-31 10:12:41 | 50.90782 | 8.90010 | 55° | 68km/h | 16854m | 3.8m/s | -50.7°C | 0% | 0hPa | 4.7V | 00:00:00 | 00:00:00 | 00:00:00 | |
| DF8AY | 2026-08-31 10:12:40 | 50.90762 | 8.89965 | 56° | 68km/h | 16846m | 3.6m/s | -50.7°C | 0% | 0hPa | 4.7V | 00:00:00 | 00:00:00 | 00:00:00 | |
| DO3DL | 2026-08-31 10:12:39 | 50.90762 | 8.89965 | 57° | 68km/h | 16846m | 3.6m/s | -50.7°C | 0% | 0hPa | 4.7V | 00:00:00 | 00:00:00 | 00:00:00 | |
| DL1XH-west | 2026-08-31 10:12:38 | 50.90743 | 8.89920 | 56° | 68km/h | 16838m | 3.3m/s | -50.6°C | 0% | 0hPa | 4.7V | 00:00:00 | 00:00:00 | 00:00:00 | |
| THATR2-17 | 2026-08-31 10:12:38 | 50.90512 | 8.89346 | 55° | 69km/h | 16729m | 0m/s | 0°C | 0% | 0hPa | 4.7V | 00:00:00 | 00:00:00 | 00:00:00 | |
| DO8TBO-1 | 2026-08-31 10:12:37 | 50.90726 | 8.89875 | 60° | 66km/h | 16826m | 4.9m/s | 0°C | 0% | 0hPa | 4.7V | 00:00:00 | 00:00:00 | 00:00:00 | |
| DJTTGO | 2026-08-31 10:12:35 | 50.90726 | 8.89875 | 61° | 64km/h | 16830m | 3.8m/s | -50.6°C | 0% | 0hPa | 4.7V | 00:00:00 | 00:00:00 | 00:00:00 | |
| DO3DL | 2026-08-31 10:12:33 | 50.90701 | 8.89810 | 60° | 66km/h | 16818m | 4.5m/s | -50.7°C | 0% | 0hPa | 4.7V | 00:00:00 | 00:00:00 | 00:00:00 | |
| DO3MHA-11 | 2026-08-31 10:12:32 | 50.90701 | 8.89810 | 59° | 66km/h | 16813m | 3.7m/s | 0°C | 0% | 0hPa | 4.7V | 00:00:00 | 00:00:00 | 00:00:00 | |
| DO2JMG | 2026-08-31 10:12:31 | 50.90692 | 8.89787 | 60° | 66km/h | 16813m | 3.7m/s | -50.7°C | 0% | 0hPa | 4.7V | 00:00:00 | 00:00:00 | 00:00:00 | |
| DD1CC2-15 | 2026-08-31 10:12:30 | 50.90683 | 8.89764 | 60° | 68km/h | 16810m | 3.8m/s | -44.3°C | 0% | 0hPa | 4.7V | 00:00:00 | 00:00:00 | 00:00:00 | |
| DF8AY | 2026-08-31 10:12:29 | 50.90665 | 8.89719 | 57° | 68km/h | 16801m | 4.4m/s | -50.7°C | 0% | 0hPa | 4.7V | 00:00:00 | 00:00:00 | 00:00:00 | |
| DL1XH-west | 2026-08-31 10:12:27 | 50.90656 | 8.89697 | 58° | 66km/h | 16796m | 4.4m/s | -50.8°C | 0% | 0hPa | 4.7V | 00:00:00 | 00:00:00 | 00:00:00 | |
| SO1NDE-10 | 2026-08-31 10:12:27 | 50.90656 | 8.89696 | 59° | 66km/h | 16793m | 3.0m/s | 0°C | 0% | 0hPa | 0V | 00:00:00 | 00:00:00 | 00:00:00 | |
| DO3DL | 2026-08-31 10:12:26 | 50.90622 | 8.89611 | 60° | 64km/h | 16793m | 3.1m/s | -50.8°C | 0% | 0hPa | 0V | 00:00:00 | 00:00:00 | 00:00:00 | |
| DL1NUX | 2026-08-31 10:12:25 | 50.90598 | 8.89543 | 59° | 68km/h | 16762m | 3.5m/s | 0°C | 0% | 0hPa | 0V | 00:00:00 | 00:00:00 | 00:00:00 | |
| DF2AP-13 | 2026-08-31 10:12:24 | 50.90630 | 8.89632 | 58° | 68km/h | 16754m | 4.0m/s | 0°C | 0% | 0hPa | 4.7V | 00:00:00 | 00:00:00 | 00:00:00 | |
| DO3MHA-11 | 2026-08-31 10:12:22 | 50.90614 | 8.89588 | 62° | 66km/h | 16771m | 4.1m/s | 0°C | 0% | 0hPa | 4.7V | 00:00:00 | 00:00:00 | 00:00:00 | |
| DL3OBA | 2026-08-31 10:12:21 | 50.90606 | 8.89566 | 62° | 66km/h | 16771m | 4.1m/s | -51.1°C | 0% | 0hPa | 4.7V | 00:00:00 | 00:00:00 | 00:00:00 | |
| DO2JMG | 2026-08-31 10:12:20 | 50.90598 | 8.89543 | 59° | 68km/h | 16767m | 4.4m/s | -51.1°C | 0% | 0hPa | 4.7V | 00:00:00 | 00:00:00 | 00:00:00 | |
| DF8AY | 2026-08-31 10:12:19 | 50.90580 | 8.89497 | 58° | 68km/h | 16759m | 4.6m/s | -51.1°C | 0% | 0hPa | 4.7V | 00:00:00 | 00:00:00 | 00:00:00 | |
| DO3DL | 2026-08-31 10:12:18 | 50.90580 | 8.89497 | 59° | 68km/h | 16759m | 4.6m/s | -51.1°C | 0% | 0hPa | 4.7V | 00:00:00 | 00:00:00 | 00:00:00 | |
| DL1XH-west | 2026-08-31 10:12:17 | 50.90562 | 8.89453 | 55° | 66km/h | 16750m | 4.4m/s | -51.2°C | 0% | 0hPa | 4.7V | 00:00:00 | 00:00:00 | 00:00:00 | |
| DL1NUX | 2026-08-31 10:12:14 | 50.90493 | 8.89299 | 57° | 71km/h | 16717m | 3.5m/s | 0°C | 0% | 0hPa | 0V | 00:00:00 | 00:00:00 | 00:00:00 | |
| DO3MHA-11 | 2026-08-31 10:12:12 | 50.90522 | 8.89369 | 56° | 69km/h | 16729m | 4.4m/s | 0°C | 0% | 0hPa | 4.7V | 00:00:00 | 00:00:00 | 00:00:00 | |
| DJTTGO | 2026-08-31 10:12:11 | 50.90512 | 8.89346 | 56° | 69km/h | 16729m | 4.5m/s | -51.2°C | 0% | 0hPa | 4.7V | 00:00:00 | 00:00:00 | 00:00:00 | |
| DO2JMG | 2026-08-31 10:12:10 | 50.90493 | 8.89299 | 58° | 71km/h | 16721m | 4.5m/s | -51.1°C | 0% | 0hPa | 4.7V | 00:00:00 | 00:00:00 | 00:00:00 | |
| DF8AY | 2026-08-31 10:12:09 | 50.90473 | 8.89252 | 56° | 71km/h | 16713m | 4.8m/s | -51.1°C | 0% | 0hPa | 4.7V | 00:00:00 | 00:00:00 | 00:00:00 | |
| DO8TBO-1 | 2026-08-31 10:12:07 | 50.90463 | 8.89229 | 51° | 66km/h | 16705m | 4.5m/s | 0°C | 0% | 0hPa | 4.7V | 00:00:00 | 00:00:00 | 00:00:00 | |
| THATR2-17 | 2026-08-31 10:12:06 | 50.90463 | 8.89229 | 52° | 69km/h | 16709m | 0m/s | 0°C | 0% | 0hPa | 4.7V | 00:00:00 | 00:00:00 | 00:00:00 | |
| DL1XH-west | 2026-08-31 10:12:05 | 50.90452 | 8.89208 | 51° | 68km/h | 16705m | 4.5m/s | -51.1°C | 0% | 0hPa | 4.7V | 00:00:00 | 00:00:00 | 00:00:00 | |
| DL1NUX | 2026-08-31 10:12:04 | 50.90390 | 8.89087 | 55° | 66km/h | 16677m | 3.2m/s | 0°C | 0% | 0hPa | 0V | 00:00:00 | 00:00:00 | 00:00:00 | |
| DO3MHA-11 | 2026-08-31 10:12:02 | 50.90421 | 8.89148 | 51° | 68km/h | 16689m | 3.5m/s | 0°C | 0% | 0hPa | 4.7V | 00:00:00 | 00:00:00 | 00:00:00 | |
| DL3OBA | 2026-08-31 10:12:00 | 50.90400 | 8.89108 | 53° | 66km/h | 16685m | 3.9m/s | -51.1°C | 0% | 0hPa | 4.7V | 00:00:00 | 00:00:00 | 00:00:00 | |
| DO3DL | 2026-08-31 10:11:59 | 50.90390 | 8.89086 | 56° | 66km/h | 16681m | 4.1m/s | -51.1°C | 0% | 0hPa | 4.7V | 00:00:00 | 00:00:00 | 00:00:00 | |
| DF8AY | 2026-08-31 10:11:57 | 50.90361 | 8.89020 | 53° | 69km/h | 16670m | 3.7m/s | -51.1°C | 0% | 0hPa | 4.7V | 00:00:00 | 00:00:00 | 00:00:00 | |
| DL1XH-west | 2026-08-31 10:11:55 | 50.90339 | 8.88976 | 51° | 69km/h | 16661m | 3.7m/s | -51°C | 0% | 0hPa | 4.7V | 00:00:00 | 00:00:00 | 00:00:00 | |
| DL1XH-15 | 2026-08-31 10:11:54 | 50.90284 | 8.88877 | 53° | 62km/h | 16639m | 4.2m/s | 0°C | 0% | 0hPa | 0V | 00:00:00 | 00:00:00 | 00:00:00 | |
| DF2AP-13 | 2026-08-31 10:11:53 | 50.90328 | 8.88954 | 47° | 62km/h | 16654m | 3.4m/s | 0°C | 0% | 0hPa | 0V | 00:00:00 | 00:00:00 | 00:00:00 | |
| DO3MHA-11 | 2026-08-31 10:11:52 | 50.90317 | 8.88935 | 47° | 62km/h | 16650m | 3.3m/s | 0°C | 0% | 0hPa | 0V | 00:00:00 | 00:00:00 | 00:00:00 | |
| DL1NUX | 2026-08-31 10:11:49 | 50.90275 | 8.88856 | 55° | 62km/h | 16635m | 3.4m/s | 0°C | 0% | 0hPa | 0V | 00:00:00 | 00:00:00 | 00:00:00 | |
| DO2SHX-10 | 2026-08-31 10:11:49 | 50.90284 | 8.88877 | 54° | 60km/h | 16631m | 4.3m/s | 0°C | 0% | 0hPa | 4.7V | 00:00:00 | 00:00:00 | 00:00:00 | |
| DF8AY | 2026-08-31 10:11:46 | 50.90250 | 8.88795 | 55° | 60km/h | 16627m | 3.5m/s | -50.7°C | 0% | 0hPa | 4.7V | 00:00:00 | 00:00:00 | 00:00:00 | |
| DL1XH-15 | 2026-08-31 10:11:44 | 50.90186 | 8.88681 | 47° | 64km/h | 16600m | 3m/s | 0°C | 0% | 0hPa | 0V | 00:00:00 | 00:00:00 | 00:00:00 | |
| DL1XH-west | 2026-08-31 10:11:44 | 50.90231 | 8.88756 | 50° | 66km/h | 16619m | 4m/s | -50.7°C | 0% | 0hPa | 4.7V | 00:00:00 | 00:00:00 | 00:00:00 | |
| DO3DL | 2026-08-31 10:11:43 | 50.90219 | 8.88736 | 48° | 66km/h | 16615m | 4.1m/s | -50.7°C | 0% | 0hPa | 0V | 00:00:00 | 00:00:00 | 00:00:00 | |
| DO3MHA-11 | 2026-08-31 10:11:42 | 50.90219 | 8.88736 | 46° | 62km/h | 16611m | 3.8m/s | 0°C | 0% | 0hPa | 0V | 00:00:00 | 00:00:00 | 00:00:00 | |
| DO2SHX-10 | 2026-08-31 10:11:41 | 50.90208 | 8.88717 | 46° | 64km/h | 16604m | 4.0m/s | 0°C | 0% | 0hPa | 0V | 00:00:00 | 00:00:00 | 00:00:00 | |
| DL3OBA | 2026-08-31 10:11:40 | 50.90197 | 8.88699 | 47° | 64km/h | 16608m | 2.8m/s | -50.5°C | 0% | 0hPa | 0V | 00:00:00 | 00:00:00 | 00:00:00 | |
| DL1NUX | 2026-08-31 10:11:39 | 50.90175 | 8.88661 | 53° | 66km/h | 16597m | 2.9m/s | 0°C | 0% | 0hPa | 0V | 00:00:00 | 00:00:00 | 00:00:00 | |
| DO2SHX-10 | 2026-08-31 10:11:38 | 50.90174 | 8.88661 | 51° | 64km/h | 16601m | 3.0m/s | 0°C | 0% | 0hPa | 4.7V | 00:00:00 | 00:00:00 | 00:00:00 | |
| DO8TBO-1 | 2026-08-31 10:11:37 | 50.90165 | 8.88640 | 54° | 60km/h | 16594m | 4.3m/s | 0°C | 0% | 0hPa | 4.7V | 00:00:00 | 00:00:00 | 00:00:00 | |
| DF8AY | 2026-08-31 10:11:36 | 50.90148 | 8.88600 | 57° | 58km/h | 16589m | 3.7m/s | -50.4°C | 0% | 0hPa | 4.7V | 00:00:00 | 00:00:00 | 00:00:00 | |
| DO2SHX-10 | 2026-08-31 10:11:35 | 50.90147 | 8.88600 | 57° | 58km/h | 16581m | 3.3m/s | 0°C | 0% | 0hPa | 0V | 00:00:00 | 00:00:00 | 00:00:00 | |
| DL1XH-15 | 2026-08-31 10:11:34 | 50.90099 | 8.88481 | 53° | 62km/h | 16562m | 2.8m/s | 0°C | 0% | 0hPa | 0V | 00:00:00 | 00:00:00 | 00:00:00 | |
| DL1XH-west | 2026-08-31 10:11:33 | 50.90124 | 8.88541 | 58° | 58km/h | 16577m | 3.7m/s | -50.4°C | 0% | 0hPa | 4.7V | 00:00:00 | 00:00:00 | 00:00:00 | |
| DO3MHA-11 | 2026-08-31 10:11:32 | 50.90123 | 8.88541 | 59° | 62km/h | 16574m | 4.6m/s | 0°C | 0% | 0hPa | 0V | 00:00:00 | 00:00:00 | 00:00:00 | |
| DO2SHX-10 | 2026-08-31 10:11:31 | 50.90116 | 8.88521 | 58° | 60km/h | 16569m | 3.8m/s | 0°C | 0% | 0hPa | 0V | 00:00:00 | 00:00:00 | 00:00:00 | |
| DO3DL | 2026-08-31 10:11:30 | 50.90108 | 8.88501 | 58° | 60km/h | 16569m | 3.9m/s | -50.4°C | 0% | 0hPa | 0V | 00:00:00 | 00:00:00 | 00:00:00 | |
| DL1NUX | 2026-08-31 10:11:29 | 50.90090 | 8.88460 | 53° | 64km/h | 16558m | 4.3m/s | 0°C | 0% | 0hPa | 0V | 00:00:00 | 00:00:00 | 00:00:00 | |
| DO2SHX-10 | 2026-08-31 10:11:28 | 50.90090 | 8.88460 | 54° | 64km/h | 16559m | 4.2m/s | 0°C | 0% | 0hPa | 0V | 00:00:00 | 00:00:00 | 00:00:00 | |
| SO1NDE-10 | 2026-08-31 10:11:27 | 50.90080 | 8.88439 | 55° | 60km/h | 16559m | 4.2m/s | 0°C | 0% | 0hPa | 0V | 00:00:00 | 00:00:00 | 00:00:00 | |
| DO2SHX-10 | 2026-08-31 10:11:25 | 50.90061 | 8.88397 | 57° | 62km/h | 16551m | 3.8m/s | 0°C | 0% | 0hPa | 0V | 00:00:00 | 00:00:00 | 00:00:00 | |
| DF8AY | 2026-08-31 10:11:25 | 50.90053 | 8.88376 | 57° | 64km/h | 16547m | 3.9m/s | -50.1°C | 0% | 0hPa | 4.7V | 00:00:00 | 00:00:00 | 00:00:00 | |
| DL1XH-15 | 2026-08-31 10:11:24 | 50.90014 | 8.88268 | 57° | 60km/h | 16525m | 3.8m/s | 0°C | 0% | 0hPa | 0V | 00:00:00 | 00:00:00 | 00:00:00 | |
| DL1XH-west | 2026-08-31 10:11:23 | 50.90037 | 8.88333 | 61° | 64km/h | 16540m | 4.2m/s | -50°C | 0% | 0hPa | 4.7V | 00:00:00 | 00:00:00 | 00:00:00 | |
| DO3MHA-11 | 2026-08-31 10:11:22 | 50.90037 | 8.88333 | 62° | 60km/h | 16536m | 3.0m/s | 0°C | 0% | 0hPa | 0V | 00:00:00 | 00:00:00 | 00:00:00 | |
| DL1NUX | 2026-08-31 10:11:19 | 50.90005 | 8.88248 | 57° | 60km/h | 16517m | 3.2m/s | 0°C | 0% | 0hPa | 0V | 00:00:00 | 00:00:00 | 00:00:00 | |
| DO3DL | 2026-08-31 10:11:17 | 50.89997 | 8.88228 | 59° | 60km/h | 16521m | 4.0m/s | -50.0°C | 0% | 0hPa | 0V | 00:00:00 | 00:00:00 | 00:00:00 | |
| DL1XH-15 | 2026-08-31 10:11:14 | 50.89927 | 8.88073 | 54° | 60km/h | 16491m | 3.8m/s | 0°C | 0% | 0hPa | 0V | 00:00:00 | 00:00:00 | 00:00:00 | |
| DF8AY | 2026-08-31 10:11:14 | 50.89962 | 8.88151 | 53° | 60km/h | 16507m | 4m/s | -49.8°C | 0% | 0hPa | 4.7V | 00:00:00 | 00:00:00 | 00:00:00 | |
| DL1XH-west | 2026-08-31 10:11:12 | 50.89945 | 8.88112 | 55° | 58km/h | 16500m | 3.3m/s | -49.6°C | 0% | 0hPa | 4.7V | 00:00:00 | 00:00:00 | 00:00:00 | |
| DO3DL | 2026-08-31 10:11:11 | 50.89944 | 8.88112 | 56° | 58km/h | 16501m | 3.3m/s | -49.6°C | 0% | 0hPa | 0V | 00:00:00 | 00:00:00 | 00:00:00 | |
| DL1NUX | 2026-08-31 10:11:09 | 50.89919 | 8.88054 | 56° | 60km/h | 16487m | 3m/s | 0°C | 0% | 0hPa | 0V | 00:00:00 | 00:00:00 | 00:00:00 | |
| DD1CC2-15 | 2026-08-31 10:11:09 | 50.89919 | 8.88054 | 57° | 60km/h | 16491m | 3.8m/s | -43.1°C | 0% | 0hPa | 4.7V | 00:00:00 | 00:00:00 | 00:00:00 | |
| DO8TBO-1 | 2026-08-31 10:11:07 | 50.89910 | 8.88033 | 59° | 60km/h | 16484m | 3.5m/s | 0°C | 0% | 0hPa | 4.7V | 00:00:00 | 00:00:00 | 00:00:00 | |
| DL3AQ-11 | 2026-08-31 10:11:05 | 50.89876 | 8.87955 | 54° | 60km/h | 16474m | 3.2m/s | -49.5°C | -1.0% | -1.0hPa | 4.7V | 00:00:00 | 00:00:00 | 00:00:00 | |
| THATR2-17 | 2026-08-31 10:11:04 | 50.89796 | 8.87777 | 56° | 60km/h | 16445m | 0m/s | 0°C | 0% | 0hPa | 4.7V | 00:00:00 | 00:00:00 | 00:00:00 | |
| DF8AY | 2026-08-31 10:11:03 | 50.89867 | 8.87935 | 54° | 58km/h | 16471m | 3.1m/s | -49.5°C | 0% | 0hPa | 4.7V | 00:00:00 | 00:00:00 | 00:00:00 | |
| AA1-15 | 2026-08-31 10:11:02 | 50.89858 | 8.87917 | 53° | 57km/h | 16467m | 4.2m/s | -49.4°C | 0% | 0hPa | 4.7V | 00:00:00 | 00:00:00 | 00:00:00 | |
| DL1XH-west | 2026-08-31 10:11:01 | 50.89849 | 8.87899 | 51° | 57km/h | 16464m | 2.4m/s | -49.4°C | 0% | 0hPa | 4.7V | 00:00:00 | 00:00:00 | 00:00:00 | |
| DL1NUX | 2026-08-31 10:10:59 | 50.89832 | 8.87862 | 54° | 62km/h | 16454m | 2.8m/s | 0°C | 0% | 0hPa | 0V | 00:00:00 | 00:00:00 | 00:00:00 | |
| DO2SHX-10 | 2026-08-31 10:10:59 | 50.89840 | 8.87883 | 55° | 60km/h | 16457m | 3.5m/s | 0°C | 0% | 0hPa | 0V | 00:00:00 | 00:00:00 | 00:00:00 | |
| DO3DL | 2026-08-31 10:10:58 | 50.89832 | 8.87862 | 55° | 62km/h | 16457m | 3.5m/s | -49.4°C | 0% | 0hPa | 0V | 00:00:00 | 00:00:00 | 00:00:00 | |
| SO1NDE-10 | 2026-08-31 10:10:57 | 50.89822 | 8.87840 | 58° | 62km/h | 16451m | 3.8m/s | 0°C | 0% | 0hPa | 0V | 00:00:00 | 00:00:00 | 00:00:00 | |
| DO2SHX-10 | 2026-08-31 10:10:56 | 50.89813 | 8.87819 | 58° | 64km/h | 16448m | 2.5m/s | 0°C | 0% | 0hPa | 0V | 00:00:00 | 00:00:00 | 00:00:00 | |
| DL1XH-15 | 2026-08-31 10:10:54 | 50.89751 | 8.87684 | 49° | 60km/h | 16426m | 2.3m/s | 0°C | 0% | 0hPa | 0V | 00:00:00 | 00:00:00 | 00:00:00 | |
| DF8AY | 2026-08-31 10:10:53 | 50.89778 | 8.87737 | 52° | 58km/h | 16438m | 3.4m/s | -49.2°C | 0% | 0hPa | 4.7V | 00:00:00 | 00:00:00 | 00:00:00 | |
| DO3MHA-11 | 2026-08-31 10:10:52 | 50.89778 | 8.87737 | 53° | 62km/h | 16435m | 2.9m/s | 0°C | 0% | 0hPa | 0V | 00:00:00 | 00:00:00 | 00:00:00 | |
| DL1NUX | 2026-08-31 10:10:49 | 50.89741 | 8.87667 | 56° | 62km/h | 16422m | 3.7m/s | 0°C | 0% | 0hPa | 0V | 00:00:00 | 00:00:00 | 00:00:00 | |
| DD1CC2-15 | 2026-08-31 10:10:48 | 50.89741 | 8.87665 | 52° | 62km/h | 16426m | 2.3m/s | -42.4°C | 0% | 0hPa | 0V | 00:00:00 | 00:00:00 | 00:00:00 | |
| DO2SHX-10 | 2026-08-31 10:10:47 | 50.89731 | 8.87645 | 54° | 64km/h | 16419m | 3.2m/s | 0°C | 0% | 0hPa | 0V | 00:00:00 | 00:00:00 | 00:00:00 | |
| DL1XH-15 | 2026-08-31 10:10:45 | 50.89659 | 8.87478 | 53° | 62km/h | 16390m | 3.4m/s | 0°C | 0% | 0hPa | 0V | 00:00:00 | 00:00:00 | 00:00:00 | |
| DO2SHX-10 | 2026-08-31 10:10:44 | 50.89704 | 8.87581 | 57° | 66km/h | 16409m | 3.5m/s | 0°C | 0% | 0hPa | 4.7V | 00:00:00 | 00:00:00 | 00:00:00 | |
| DF8AY | 2026-08-31 10:10:42 | 50.89677 | 8.87518 | 57° | 60km/h | 16401m | 2.9m/s | -48.9°C | 0% | 0hPa | 4.7V | 00:00:00 | 00:00:00 | 00:00:00 | |
| DO2SHX-10 | 2026-08-31 10:10:41 | 50.89677 | 8.87518 | 57° | 60km/h | 16394m | 3.5m/s | 0°C | 0% | 0hPa | 0V | 00:00:00 | 00:00:00 | 00:00:00 | |
| DL1NUX | 2026-08-31 10:10:39 | 50.89650 | 8.87458 | 54° | 62km/h | 16386m | 3.7m/s | 0°C | 0% | 0hPa | 0V | 00:00:00 | 00:00:00 | 00:00:00 | |
| DL3OBA | 2026-08-31 10:10:39 | 50.89650 | 8.87458 | 55° | 62km/h | 16390m | 3.4m/s | -48.9°C | 0% | 0hPa | 4.7V | 00:00:00 | 00:00:00 | 00:00:00 | |
| DO2SHX-10 | 2026-08-31 10:10:36 | 50.89632 | 8.87418 | 56° | 62km/h | 16380m | 3.7m/s | 0°C | 0% | 0hPa | 4.7V | 00:00:00 | 00:00:00 | 00:00:00 | |
| DO2JMG | 2026-08-31 10:10:34 | 50.89605 | 8.87357 | 55° | 64km/h | 16373m | 4.5m/s | -48.8°C | 0% | 0hPa | 4.7V | 00:00:00 | 00:00:00 | 00:00:00 | |
| DO3DL | 2026-08-31 10:10:33 | 50.89596 | 8.87336 | 58° | 64km/h | 16369m | 3.5m/s | -48.9°C | 0% | 0hPa | 4.7V | 00:00:00 | 00:00:00 | 00:00:00 | |
| DO3MHA-11 | 2026-08-31 10:10:32 | 50.89596 | 8.87336 | 58° | 66km/h | 16366m | 3.1m/s | 0°C | 0% | 0hPa | 4.7V | 00:00:00 | 00:00:00 | 00:00:00 | |
| DF8AY | 2026-08-31 10:10:31 | 50.89578 | 8.87292 | 57° | 68km/h | 16362m | 4.4m/s | -49°C | 0% | 0hPa | 4.7V | 00:00:00 | 00:00:00 | 00:00:00 | |
| DO2SHX-10 | 2026-08-31 10:10:30 | 50.89578 | 8.87292 | 57° | 66km/h | 16358m | 3.7m/s | 0°C | 0% | 0hPa | 0V | 00:00:00 | 00:00:00 | 00:00:00 | |
| DL1NUX | 2026-08-31 10:10:29 | 50.89560 | 8.87248 | 56° | 66km/h | 16349m | 3.7m/s | 0°C | 0% | 0hPa | 0V | 00:00:00 | 00:00:00 | 00:00:00 | |
| DL1XH-west | 2026-08-31 10:10:28 | 50.89559 | 8.87248 | 57° | 66km/h | 16354m | 4.7m/s | -49.1°C | 0% | 0hPa | 4.7V | 00:00:00 | 00:00:00 | 00:00:00 | |
| SO1NDE-10 | 2026-08-31 10:10:27 | 50.89550 | 8.87227 | 57° | 66km/h | 16342m | 3.9m/s | 0°C | 0% | 0hPa | 0V | 00:00:00 | 00:00:00 | 00:00:00 | |
| DO3DL | 2026-08-31 10:10:25 | 50.89532 | 8.87184 | 54° | 66km/h | 16342m | 4.0m/s | -49.3°C | 0% | 0hPa | 0V | 00:00:00 | 00:00:00 | 00:00:00 | |
| DL1XH-15 | 2026-08-31 10:10:24 | 50.89476 | 8.87055 | 55° | 62km/h | 16315m | 3.3m/s | 0°C | 0% | 0hPa | 0V | 00:00:00 | 00:00:00 | 00:00:00 | |
| DO2SHX-10 | 2026-08-31 10:10:24 | 50.89521 | 8.87163 | 55° | 66km/h | 16330m | 3.2m/s | 0°C | 0% | 0hPa | 0V | 00:00:00 | 00:00:00 | 00:00:00 | |
| DF2AP-13 | 2026-08-31 10:10:23 | 50.89512 | 8.87141 | 57° | 64km/h | 16330m | 3.2m/s | 0°C | 0% | 0hPa | 0V | 00:00:00 | 00:00:00 | 00:00:00 | |
| DO3MHA-11 | 2026-08-31 10:10:22 | 50.89503 | 8.87119 | 57° | 64km/h | 16326m | 4.1m/s | 0°C | 0% | 0hPa | 0V | 00:00:00 | 00:00:00 | 00:00:00 | |
| DO2SHX-10 | 2026-08-31 10:10:21 | 50.89494 | 8.87097 | 57° | 64km/h | 16323m | 2.9m/s | 0°C | 0% | 0hPa | 0V | 00:00:00 | 00:00:00 | 00:00:00 | |
| DL1NUX | 2026-08-31 10:10:19 | 50.89467 | 8.87035 | 55° | 60km/h | 16312m | 2.9m/s | 0°C | 0% | 0hPa | 0V | 00:00:00 | 00:00:00 | 00:00:00 | |
| AA1-15 | 2026-08-31 10:10:18 | 50.89458 | 8.87015 | 56° | 60km/h | 16312m | 2.9m/s | -49.9°C | 0% | 0hPa | 4.7V | 00:00:00 | 00:00:00 | 00:00:00 | |
| DO2SHX-10 | 2026-08-31 10:10:18 | 50.89467 | 8.87034 | 56° | 60km/h | 16313m | 2.9m/s | 0°C | 0% | 0hPa | 4.7V | 00:00:00 | 00:00:00 | 00:00:00 | |
| BIOWL1-15 | 2026-08-31 10:10:15 | 50.89421 | 8.86933 | 57° | 66km/h | 16298m | 3.2m/s | -50.1°C | 0% | 0hPa | 4.7V | 00:00:00 | 00:00:00 | 00:00:00 | |
| DO2SHX-10 | 2026-08-31 10:10:15 | 50.89440 | 8.86975 | 54° | 66km/h | 16302m | 4.2m/s | 0°C | 0% | 0hPa | 0V | 00:00:00 | 00:00:00 | 00:00:00 | |
| DL1XH-15 | 2026-08-31 10:10:14 | 50.89382 | 8.86843 | 55° | 66km/h | 16280m | 3.8m/s | 0°C | 0% | 0hPa | 0V | 00:00:00 | 00:00:00 | 00:00:00 | |
| DB0NH | 2026-08-31 10:10:14 | 50.89431 | 8.86955 | 57° | 80km/h | 16299m | 3.2m/s | 0°C | 0% | 0hPa | 0V | 00:00:00 | 00:00:00 | 00:00:00 | |
| DO3DL | 2026-08-31 10:10:13 | 50.89421 | 8.86933 | 57° | 66km/h | 16299m | 3.2m/s | -50.1°C | 0% | 0hPa | 0V | 00:00:00 | 00:00:00 | 00:00:00 | |
| DO3MHA-11 | 2026-08-31 10:10:12 | 50.89412 | 8.86911 | 56° | 66km/h | 16291m | 3.4m/s | 0°C | 0% | 0hPa | 0V | 00:00:00 | 00:00:00 | 00:00:00 | |
| DL1NUX | 2026-08-31 10:10:09 | 50.89373 | 8.86822 | 55° | 64km/h | 16276m | 3.9m/s | 0°C | 0% | 0hPa | 0V | 00:00:00 | 00:00:00 | 00:00:00 | |
| DF8AY | 2026-08-31 10:10:09 | 50.89373 | 8.86822 | 56° | 64km/h | 16280m | 3.8m/s | -50.4°C | 0% | 0hPa | 4.7V | 00:00:00 | 00:00:00 | 00:00:00 | |
| DL1XH-west | 2026-08-31 10:10:07 | 50.89355 | 8.86780 | 57° | 64km/h | 16273m | 2.6m/s | -50.3°C | 0% | 0hPa | 4.7V | 00:00:00 | 00:00:00 | 00:00:00 | |
| DD1CC2-15 | 2026-08-31 10:10:06 | 50.89355 | 8.86780 | 58° | 64km/h | 16273m | 2.6m/s | -43.8°C | 0% | 0hPa | 0V | 00:00:00 | 00:00:00 | 00:00:00 | |
| DL1XH-15 | 2026-08-31 10:10:04 | 50.89304 | 8.86615 | 65° | 69km/h | 16239m | 2.9m/s | 0°C | 0% | 0hPa | 0V | 00:00:00 | 00:00:00 | 00:00:00 | |
| DO3MHA-11 | 2026-08-31 10:10:02 | 50.89326 | 8.86690 | 65° | 66km/h | 16254m | 3.1m/s | 0°C | 0% | 0hPa | 0V | 00:00:00 | 00:00:00 | 00:00:00 | |
| DO3DL | 2026-08-31 10:10:00 | 50.89304 | 8.86615 | 67° | 69km/h | 16246m | 3.4m/s | -50.5°C | 0% | 0hPa | 0V | 00:00:00 | 00:00:00 | 00:00:00 | |
| DL1NUX | 2026-08-31 10:09:59 | 50.89297 | 8.86590 | 63° | 69km/h | 16239m | 2.9m/s | 0°C | 0% | 0hPa | 0V | 00:00:00 | 00:00:00 | 00:00:00 | |
| DF8AY | 2026-08-31 10:09:59 | 50.89297 | 8.86590 | 64° | 69km/h | 16242m | 4m/s | -50.5°C | 0% | 0hPa | 4.7V | 00:00:00 | 00:00:00 | 00:00:00 | |
| SO1NDE-10 | 2026-08-31 10:09:57 | 50.89289 | 8.86566 | 63° | 62km/h | 16236m | 4.3m/s | 0°C | 0% | 0hPa | 4.7V | 00:00:00 | 00:00:00 | 00:00:00 | |
| DL1XH-west | 2026-08-31 10:09:56 | 50.89282 | 8.86543 | 64° | 62km/h | 16235m | 4.3m/s | -50.6°C | 0% | 0hPa | 4.7V | 00:00:00 | 00:00:00 | 00:00:00 | |
| DO3DL | 2026-08-31 10:09:54 | 50.89264 | 8.86478 | 68° | 60km/h | 16225m | 3.9m/s | -50.6°C | 0% | 0hPa | 0V | 00:00:00 | 00:00:00 | 00:00:00 | |
| DF2AP-13 | 2026-08-31 10:09:53 | 50.89263 | 8.86478 | 67° | 62km/h | 16207m | 2.8m/s | 0°C | 0% | 0hPa | 0V | 00:00:00 | 00:00:00 | 00:00:00 | |
| DO3MHA-11 | 2026-08-31 10:09:52 | 50.89258 | 8.86457 | 71° | 64km/h | 16217m | 3.8m/s | 0°C | 0% | 0hPa | 0V | 00:00:00 | 00:00:00 | 00:00:00 | |
| DL1NUX | 2026-08-31 10:09:49 | 50.89236 | 8.86359 | 69° | 68km/h | 16207m | 2.8m/s | 0°C | 0% | 0hPa | 0V | 00:00:00 | 00:00:00 | 00:00:00 | |
| DF8AY | 2026-08-31 10:09:49 | 50.89230 | 8.86334 | 71° | 66km/h | 16203m | 4.5m/s | -50.7°C | 0% | 0hPa | 4.7V | 00:00:00 | 00:00:00 | 00:00:00 | |
| DO3DL | 2026-08-31 10:09:47 | 50.89230 | 8.86334 | 72° | 66km/h | 16203m | 4.5m/s | -50.7°C | 0% | 0hPa | 5.2V | 00:00:00 | 00:00:00 | 00:00:00 | |
| DD1CC2-15 | 2026-08-31 10:09:46 | 50.89225 | 8.86310 | 73° | 64km/h | 16199m | 3.4m/s | -44.5°C | 0% | 0hPa | 5.2V | 00:00:00 | 00:00:00 | 00:00:00 | |
| BIOWL1-15 | 2026-08-31 10:09:45 | 50.89220 | 8.86286 | 72° | 62km/h | 16196m | 3.4m/s | 0°C | 0% | 0hPa | 5.2V | 00:00:00 | 00:00:00 | 00:00:00 | |
| DJTTGO | 2026-08-31 10:09:45 | 50.89219 | 8.86286 | 73° | 62km/h | 16196m | 3.3m/s | -51.0°C | 0% | 0hPa | 0V | 00:00:00 | 00:00:00 | 00:00:00 | |
| DO3MHA-11 | 2026-08-31 10:09:42 | 50.89204 | 8.86218 | 70° | 62km/h | 16182m | 3.0m/s | 0°C | 0% | 0hPa | 0V | 00:00:00 | 00:00:00 | 00:00:00 | |
| DO3DL | 2026-08-31 10:09:40 | 50.89194 | 8.86175 | 72° | 58km/h | 16178m | 4.0m/s | -51.2°C | 0% | 0hPa | 0V | 00:00:00 | 00:00:00 | 00:00:00 | |
| DL1NUX | 2026-08-31 10:09:39 | 50.89186 | 8.86127 | 76° | 62km/h | 16167m | 3.8m/s | 0°C | 0% | 0hPa | 0V | 00:00:00 | 00:00:00 | 00:00:00 | |
| DO8TBO-1 | 2026-08-31 10:09:37 | 50.89182 | 8.86103 | 82° | 68km/h | 16164m | 3.2m/s | 0°C | 0% | 0hPa | 4.7V | 00:00:00 | 00:00:00 | 00:00:00 | |
| DO2JMG | 2026-08-31 10:09:36 | 50.89180 | 8.86077 | 81° | 66km/h | 16164m | 3.3m/s | -51.3°C | 0% | 0hPa | 4.7V | 00:00:00 | 00:00:00 | 00:00:00 | |
| AA1-15 | 2026-08-31 10:09:35 | 50.89177 | 8.86051 | 81° | 66km/h | 16160m | 3.6m/s | -51.4°C | 0% | 0hPa | 4.7V | 00:00:00 | 00:00:00 | 00:00:00 | |
| DL1XH-west | 2026-08-31 10:09:34 | 50.89175 | 8.86025 | 80° | 66km/h | 16157m | 3.2m/s | -51.4°C | 0% | 0hPa | 4.7V | 00:00:00 | 00:00:00 | 00:00:00 | |
| DO3DL | 2026-08-31 10:09:34 | 50.89174 | 8.86025 | 81° | 66km/h | 16157m | 3.2m/s | -51.4°C | 0% | 0hPa | 0V | 00:00:00 | 00:00:00 | 00:00:00 | |
| DO3MHA-11 | 2026-08-31 10:09:32 | 50.89169 | 8.85975 | 82° | 66km/h | 16146m | 3.8m/s | 0°C | 0% | 0hPa | 0V | 00:00:00 | 00:00:00 | 00:00:00 | |
| DL1NUX | 2026-08-31 10:09:29 | 50.89157 | 8.85880 | 79° | 64km/h | 16132m | 3.5m/s | 0°C | 0% | 0hPa | 0V | 00:00:00 | 00:00:00 | 00:00:00 | |
| DO2JMG | 2026-08-31 10:09:26 | 50.89149 | 8.85802 | 81° | 69km/h | 16125m | 3.4m/s | -52.1°C | 0% | 0hPa | 4.7V | 00:00:00 | 00:00:00 | 00:00:00 | |
| DD1CC2-15 | 2026-08-31 10:09:25 | 50.89149 | 8.85801 | 82° | 69km/h | 16125m | 3.4m/s | -45.8°C | 0% | 0hPa | 4.7V | 00:00:00 | 00:00:00 | 00:00:00 | |
| DL1XH-west | 2026-08-31 10:09:24 | 50.89144 | 8.85747 | 81° | 69km/h | 16117m | 3m/s | -52.4°C | 0% | 0hPa | 4.7V | 00:00:00 | 00:00:00 | 00:00:00 | |
| DF2AP-13 | 2026-08-31 10:09:23 | 50.89143 | 8.85747 | 82° | 66km/h | 16114m | 4.1m/s | 0°C | 0% | 0hPa | 0V | 00:00:00 | 00:00:00 | 00:00:00 | |
| DO3MHA-11 | 2026-08-31 10:09:21 | 50.89137 | 8.85692 | 78° | 73km/h | 16106m | 4.4m/s | 0°C | 0% | 0hPa | 0V | 00:00:00 | 00:00:00 | 00:00:00 | |
| DL1NUX | 2026-08-31 10:09:19 | 50.89125 | 8.85609 | 74° | 73km/h | 16092m | 2.6m/s | 0°C | 0% | 0hPa | 0V | 00:00:00 | 00:00:00 | 00:00:00 | |
| DO2JMG | 2026-08-31 10:09:16 | 50.89111 | 8.85522 | 75° | 75km/h | 16089m | 4.1m/s | -52.7°C | 0% | 0hPa | 4.7V | 00:00:00 | 00:00:00 | 00:00:00 | |
| DO3DL | 2026-08-31 10:09:14 | 50.89106 | 8.85493 | 77° | 73km/h | 16085m | 3.8m/s | -52.7°C | 0% | 0hPa | 4.7V | 00:00:00 | 00:00:00 | 00:00:00 | |
| AA1-15 | 2026-08-31 10:09:13 | 50.89101 | 8.85465 | 76° | 71km/h | 16081m | 3.5m/s | -52.7°C | 0% | 0hPa | 4.7V | 00:00:00 | 00:00:00 | 00:00:00 | |
| DL1XH-west | 2026-08-31 10:09:13 | 50.89097 | 8.85437 | 74° | 71km/h | 16078m | 3.8m/s | -52.6°C | 0% | 0hPa | 4.7V | 00:00:00 | 00:00:00 | 00:00:00 | |
| DO3MHA-11 | 2026-08-31 10:09:11 | 50.89092 | 8.85410 | 74° | 66km/h | 16071m | 4.3m/s | 0°C | 0% | 0hPa | 0V | 00:00:00 | 00:00:00 | 00:00:00 | |
| DL1NUX | 2026-08-31 10:09:09 | 50.89078 | 8.85334 | 73° | 66km/h | 16055m | 4.2m/s | 0°C | 0% | 0hPa | 0V | 00:00:00 | 00:00:00 | 00:00:00 | |
| DO3DL | 2026-08-31 10:09:08 | 50.89078 | 8.85334 | 75° | 66km/h | 16063m | 4.3m/s | -52.5°C | 0% | 0hPa | 0V | 00:00:00 | 00:00:00 | 00:00:00 | |
| DM0DOS-11 | 2026-08-31 10:09:07 | 50.89053 | 8.85179 | 73° | 64km/h | 16032m | 3.7m/s | 0°C | 0% | 0hPa | 0V | 00:00:00 | 00:00:00 | 00:00:00 | |
| DO8TBO-1 | 2026-08-31 10:09:07 | 50.89073 | 8.85308 | 74° | 58km/h | 16059m | 3.2m/s | 0°C | 0% | 0hPa | 4.7V | 00:00:00 | 00:00:00 | 00:00:00 | |
| DO2JMG | 2026-08-31 10:09:05 | 50.89061 | 8.85230 | 78° | 68km/h | 16047m | 4m/s | -52.5°C | 0% | 0hPa | 4.7V | 00:00:00 | 00:00:00 | 00:00:00 | |
| DL3AQ-11 | 2026-08-31 10:09:05 | 50.89061 | 8.85230 | 77° | 66km/h | 16047m | 4.0m/s | -52.5°C | -1.0% | -1.0hPa | 0V | 00:00:00 | 00:00:00 | 00:00:00 | |
| DL1XH-15 | 2026-08-31 10:09:03 | 50.89035 | 8.85091 | 70° | 58km/h | 16017m | 3.5m/s | 0°C | 0% | 0hPa | 0V | 00:00:00 | 00:00:00 | 00:00:00 | |
| DL1XH-west | 2026-08-31 10:09:03 | 50.89053 | 8.85179 | 74° | 64km/h | 16040m | 3m/s | -52.5°C | 0% | 0hPa | 4.7V | 00:00:00 | 00:00:00 | 00:00:00 | |
| AA1-15 | 2026-08-31 10:09:01 | 50.89044 | 8.85133 | 74° | 58km/h | 16032m | 3.7m/s | -52.4°C | 0% | 0hPa | 4.7V | 00:00:00 | 00:00:00 | 00:00:00 | |
| DL1NUX | 2026-08-31 10:08:59 | 50.89029 | 8.85067 | 68° | 58km/h | 16017m | 3.5m/s | 0°C | 0% | 0hPa | 0V | 00:00:00 | 00:00:00 | 00:00:00 | |
| SO1NDE-10 | 2026-08-31 10:08:57 | 50.89029 | 8.85067 | 69° | 57km/h | 16017m | 3.4m/s | 0°C | 0% | 0hPa | 4.7V | 00:00:00 | 00:00:00 | 00:00:00 | |
| DL3OBA | 2026-08-31 10:08:56 | 50.89024 | 8.85045 | 71° | 58km/h | 16017m | 3.5m/s | -52.4°C | 0% | 0hPa | 4.7V | 00:00:00 | 00:00:00 | 00:00:00 | |
| DO3DL | 2026-08-31 10:08:55 | 50.89019 | 8.85023 | 72° | 62km/h | 16014m | 3.7m/s | -52.4°C | 0% | 0hPa | 4.7V | 00:00:00 | 00:00:00 | 00:00:00 | |
| DO2JMG | 2026-08-31 10:08:54 | 50.89008 | 8.84974 | 72° | 66km/h | 16006m | 3.4m/s | -52.4°C | 0% | 0hPa | 4.7V | 00:00:00 | 00:00:00 | 00:00:00 | |
| DL1XH-west | 2026-08-31 10:08:51 | 50.88999 | 8.84925 | 74° | 62km/h | 15999m | 3.2m/s | -52.3°C | 0% | 0hPa | 4.8V | 00:00:00 | 00:00:00 | 00:00:00 | |
| DO3MHA-11 | 2026-08-31 10:08:51 | 50.88999 | 8.84925 | 75° | 58km/h | 15995m | 4.3m/s | 0°C | 0% | 0hPa | 4.8V | 00:00:00 | 00:00:00 | 00:00:00 | |
| AA1-15 | 2026-08-31 10:08:50 | 50.88990 | 8.84879 | 69° | 58km/h | 15991m | 3.4m/s | -52.3°C | 0% | 0hPa | 4.8V | 00:00:00 | 00:00:00 | 00:00:00 | |
| DL1NUX | 2026-08-31 10:08:48 | 50.88955 | 8.84755 | 67° | 60km/h | 15965m | 3.6m/s | 0°C | 0% | 0hPa | 0V | 00:00:00 | 00:00:00 | 00:00:00 | |
| DL1XH-15 | 2026-08-31 10:08:47 | 50.88979 | 8.84838 | 66° | 53km/h | 15979m | 3.5m/s | 0°C | 0% | 0hPa | 0V | 00:00:00 | 00:00:00 | 00:00:00 | |
| DM0DOS-11 | 2026-08-31 10:08:47 | 50.88948 | 8.84733 | 67° | 60km/h | 15961m | 3.9m/s | 0°C | 0% | 0hPa | 0V | 00:00:00 | 00:00:00 | 00:00:00 | |
| DD1CC2-15 | 2026-08-31 10:08:44 | 50.88961 | 8.84777 | 65° | 60km/h | 15973m | 2.9m/s | -45.8°C | 0% | 0hPa | 4.8V | 00:00:00 | 00:00:00 | 00:00:00 | |
| DO2JMG | 2026-08-31 10:08:43 | 50.88948 | 8.84733 | 68° | 60km/h | 15965m | 3.6m/s | -52.2°C | 0% | 0hPa | 4.8V | 00:00:00 | 00:00:00 | 00:00:00 | |
| DO3DL | 2026-08-31 10:08:42 | 50.88948 | 8.84733 | 69° | 60km/h | 15965m | 3.6m/s | -52.2°C | 0% | 0hPa | 4.8V | 00:00:00 | 00:00:00 | 00:00:00 | |
| DL1XH-west | 2026-08-31 10:08:41 | 50.88937 | 8.84689 | 66° | 62km/h | 15957m | 3.9m/s | -52.2°C | 0% | 0hPa | 4.8V | 00:00:00 | 00:00:00 | 00:00:00 | |
| DO3MHA-11 | 2026-08-31 10:08:41 | 50.88942 | 8.84711 | 67° | 57km/h | 15958m | 3.8m/s | 0°C | 0% | 0hPa | 0V | 00:00:00 | 00:00:00 | 00:00:00 | |
| DL1NUX | 2026-08-31 10:08:38 | 50.88895 | 8.84546 | 65° | 57km/h | 15927m | 3.5m/s | 0°C | 0% | 0hPa | 0V | 00:00:00 | 00:00:00 | 00:00:00 | |
| DM0DOS-11 | 2026-08-31 10:08:37 | 50.88889 | 8.84525 | 64° | 58km/h | 15923m | 3.1m/s | 0°C | 0% | 0hPa | 0V | 00:00:00 | 00:00:00 | 00:00:00 | |
| DL1XH-15 | 2026-08-31 10:08:37 | 50.88919 | 8.84625 | 63° | 55km/h | 15942m | 3.6m/s | 0°C | 0% | 0hPa | 0V | 00:00:00 | 00:00:00 | 00:00:00 | |
| DO3DL | 2026-08-31 10:08:36 | 50.88907 | 8.84586 | 64° | 55km/h | 15938m | 3.8m/s | -52.3°C | 0% | 0hPa | 4.8V | 00:00:00 | 00:00:00 | 00:00:00 | |
| DL3OBA | 2026-08-31 10:08:35 | 50.88907 | 8.84586 | 64° | 55km/h | 15938m | 3.8m/s | -52.3°C | 0% | 0hPa | 4.8V | 00:00:00 | 00:00:00 | 00:00:00 | |
| DO2JMG | 2026-08-31 10:08:32 | 50.88889 | 8.84525 | 64° | 58km/h | 15927m | 3.5m/s | -52.3°C | 0% | 0hPa | 4.8V | 00:00:00 | 00:00:00 | 00:00:00 | |
| DL1XH-15 | 2026-08-31 10:08:32 | 50.88859 | 8.84418 | 67° | 57km/h | 15905m | 3.3m/s | 0°C | 0% | 0hPa | 0V | 00:00:00 | 00:00:00 | 00:00:00 | |
| DO3MHA-11 | 2026-08-31 10:08:31 | 50.88882 | 8.84504 | 65° | 55km/h | 15920m | 4.2m/s | 0°C | 0% | 0hPa | 4.8V | 00:00:00 | 00:00:00 | 00:00:00 | |
| DL1XH-west | 2026-08-31 10:08:30 | 50.88870 | 8.84460 | 68° | 58km/h | 15916m | 3.2m/s | -52.4°C | 0% | 0hPa | 4.8V | 00:00:00 | 00:00:00 | 00:00:00 | |
| DO8TBO-1 | 2026-08-31 10:08:29 | 50.88870 | 8.84460 | 68° | 58km/h | 15912m | 4.0m/s | 0°C | 0% | 0hPa | 0V | 00:00:00 | 00:00:00 | 00:00:00 | |
| DL1NUX | 2026-08-31 10:08:28 | 50.88839 | 8.84339 | 67° | 51km/h | 15890m | 3.2m/s | 0°C | 0% | 0hPa | 0V | 00:00:00 | 00:00:00 | 00:00:00 | |
| AA1-15 | 2026-08-31 10:08:28 | 50.88859 | 8.84418 | 68° | 57km/h | 15908m | 3.2m/s | -52.6°C | 0% | 0hPa | 4.8V | 00:00:00 | 00:00:00 | 00:00:00 | |
| DM0DOS-11 | 2026-08-31 10:08:27 | 50.88834 | 8.84320 | 67° | 53km/h | 15886m | 4.3m/s | 0°C | 0% | 0hPa | 0V | 00:00:00 | 00:00:00 | 00:00:00 | |
| DD1CC2-15 | 2026-08-31 10:08:24 | 50.88844 | 8.84358 | 70° | 51km/h | 15898m | 3.3m/s | -46.6°C | 0% | 0hPa | 4.8V | 00:00:00 | 00:00:00 | 00:00:00 | |
| DO3DL | 2026-08-31 10:08:23 | 50.88839 | 8.84339 | 68° | 51km/h | 15894m | 4.2m/s | -53.0°C | 0% | 0hPa | 4.8V | 00:00:00 | 00:00:00 | 00:00:00 | |
| DO2JMG | 2026-08-31 10:08:21 | 50.88829 | 8.84300 | 68° | 53km/h | 15886m | 4.3m/s | -53.1°C | 0% | 0hPa | 4.8V | 00:00:00 | 00:00:00 | 00:00:00 | |
| DO3MHA-11 | 2026-08-31 10:08:21 | 50.88829 | 8.84300 | 68° | 57km/h | 15883m | 3.2m/s | 0°C | 0% | 0hPa | 4.8V | 00:00:00 | 00:00:00 | 00:00:00 | |
| DL1XH-west | 2026-08-31 10:08:19 | 50.88819 | 8.84259 | 69° | 57km/h | 15879m | 3.2m/s | -53.3°C | 0% | 0hPa | 4.8V | 00:00:00 | 00:00:00 | 00:00:00 | |
| DL1NUX | 2026-08-31 10:08:18 | 50.88789 | 8.84130 | 70° | 57km/h | 15854m | 3.6m/s | 0°C | 0% | 0hPa | 0V | 00:00:00 | 00:00:00 | 00:00:00 | |
| DM0DOS-11 | 2026-08-31 10:08:17 | 50.88784 | 8.84108 | 70° | 57km/h | 15850m | 4.2m/s | 0°C | 0% | 0hPa | 0V | 00:00:00 | 00:00:00 | 00:00:00 | |
| DL1XH-15 | 2026-08-31 10:08:17 | 50.88808 | 8.84216 | 69° | 60km/h | 15868m | 4.4m/s | 0°C | 0% | 0hPa | 0V | 00:00:00 | 00:00:00 | 00:00:00 | |
| DF2AP-13 | 2026-08-31 10:08:17 | 50.88808 | 8.84216 | 70° | 62km/h | 15868m | 4.4m/s | 0°C | 0% | 0hPa | 4.8V | 00:00:00 | 00:00:00 | 00:00:00 | |
| AA1-15 | 2026-08-31 10:08:17 | 50.88803 | 8.84194 | 70° | 58km/h | 15868m | 4.4m/s | -53.4°C | 0% | 0hPa | 4.8V | 00:00:00 | 00:00:00 | 00:00:00 | |
| DO3DL | 2026-08-31 10:08:16 | 50.88803 | 8.84194 | 71° | 58km/h | 15868m | 4.4m/s | -53.4°C | 0% | 0hPa | 4.8V | 00:00:00 | 00:00:00 | 00:00:00 | |
| DL3OBA | 2026-08-31 10:08:14 | 50.88793 | 8.84151 | 73° | 57km/h | 15861m | 3.5m/s | -53.5°C | 0% | 0hPa | 4.8V | 00:00:00 | 00:00:00 | 00:00:00 | |
| DO2JMG | 2026-08-31 10:08:11 | 50.88780 | 8.84087 | 71° | 57km/h | 15850m | 4.2m/s | -53.6°C | 0% | 0hPa | 4.8V | 00:00:00 | 00:00:00 | 00:00:00 | |
| DO3MHA-11 | 2026-08-31 10:08:11 | 50.88780 | 8.84087 | 70° | 62km/h | 15846m | 2.7m/s | 0°C | 0% | 0hPa | 0V | 00:00:00 | 00:00:00 | 00:00:00 | |
| DO3DL | 2026-08-31 10:08:10 | 50.88775 | 8.84065 | 71° | 58km/h | 15846m | 2.8m/s | -53.6°C | 0% | 0hPa | 0V | 00:00:00 | 00:00:00 | 00:00:00 | |
| DL1NUX | 2026-08-31 10:08:08 | 50.88734 | 8.83899 | 70° | 62km/h | 15817m | 3.2m/s | 0°C | 0% | 0hPa | 0V | 00:00:00 | 00:00:00 | 00:00:00 | |
| DM0DOS-11 | 2026-08-31 10:08:07 | 50.88729 | 8.83876 | 72° | 60km/h | 15817m | 3.2m/s | 0°C | 0% | 0hPa | 0V | 00:00:00 | 00:00:00 | 00:00:00 | |
| DL1XH-15 | 2026-08-31 10:08:07 | 50.88757 | 8.83994 | 69° | 64km/h | 15828m | 4.3m/s | 0°C | 0% | 0hPa | 0V | 00:00:00 | 00:00:00 | 00:00:00 | |
| BIOWL1-15 | 2026-08-31 10:08:06 | 50.88751 | 8.83972 | 70° | 64km/h | 15832m | 3.6m/s | -53.6°C | 0% | 0hPa | 4.8V | 00:00:00 | 00:00:00 | 00:00:00 | |
| DD1CC2-15 | 2026-08-31 10:08:03 | 50.88734 | 8.83899 | 72° | 62km/h | 15821m | 4.3m/s | -47.2°C | 0% | 0hPa | 4.8V | 00:00:00 | 00:00:00 | 00:00:00 | |
| DO3MHA-11 | 2026-08-31 10:08:01 | 50.88725 | 8.83853 | 72° | 64km/h | 15809m | 3.9m/s | 0°C | 0% | 0hPa | 4.8V | 00:00:00 | 00:00:00 | 00:00:00 | |
| DO2JMG | 2026-08-31 10:08:00 | 50.88714 | 8.83807 | 68° | 64km/h | 15806m | 2.8m/s | -53.5°C | 0% | 0hPa | 4.8V | 00:00:00 | 00:00:00 | 00:00:00 | |
| DO8TBO-1 | 2026-08-31 10:07:59 | 50.88714 | 8.83807 | 68° | 69km/h | 15803m | 4.0m/s | 0°C | 0% | 0hPa | 0V | 00:00:00 | 00:00:00 | 00:00:00 | |
| DL1NUX | 2026-08-31 10:07:58 | 50.88677 | 8.83661 | 69° | 64km/h | 15780m | 3.8m/s | 0°C | 0% | 0hPa | 0V | 00:00:00 | 00:00:00 | 00:00:00 | |
| DL1XH-west | 2026-08-31 10:07:58 | 50.88702 | 8.83760 | 69° | 64km/h | 15799m | 3.5m/s | -53.7°C | 0% | 0hPa | 4.8V | 00:00:00 | 00:00:00 | 00:00:00 | |
| DL1XH-15 | 2026-08-31 10:07:57 | 50.88702 | 8.83760 | 68° | 64km/h | 15795m | 4m/s | 0°C | 0% | 0hPa | 0V | 00:00:00 | 00:00:00 | 00:00:00 | |
| AA1-15 | 2026-08-31 10:07:56 | 50.88690 | 8.83711 | 68° | 68km/h | 15791m | 3.5m/s | -53.8°C | 0% | 0hPa | 4.8V | 00:00:00 | 00:00:00 | 00:00:00 | |
| DL3OBA | 2026-08-31 10:07:54 | 50.88683 | 8.83686 | 70° | 68km/h | 15788m | 4.0m/s | -53.9°C | 0% | 0hPa | 0V | 00:00:00 | 00:00:00 | 00:00:00 | |
| DO3MHA-11 | 2026-08-31 10:07:51 | 50.88666 | 8.83614 | 70° | 69km/h | 15773m | 3.3m/s | 0°C | 0% | 0hPa | 0V | 00:00:00 | 00:00:00 | 00:00:00 | |
| SO1NDE-10 | 2026-08-31 10:07:48 | 50.88650 | 8.83542 | 74° | 73km/h | 15762m | 3.7m/s | 0°C | 0% | 0hPa | 0V | 00:00:00 | 00:00:00 | 00:00:00 | |
| DL1XH-15 | 2026-08-31 10:07:47 | 50.88645 | 8.83518 | 71° | 66km/h | 15758m | 3.7m/s | 0°C | 0% | 0hPa | 0V | 00:00:00 | 00:00:00 | 00:00:00 | |
| DL1XH-west | 2026-08-31 10:07:47 | 50.88640 | 8.83491 | 71° | 69km/h | 15758m | 3.7m/s | -53.9°C | 0% | 0hPa | 4.8V | 00:00:00 | 00:00:00 | 00:00:00 | |
| DF2AP-13 | 2026-08-31 10:07:47 | 50.88645 | 8.83518 | 72° | 73km/h | 15758m | 3.6m/s | 0°C | 0% | 0hPa | 4.7V | 00:00:00 | 00:00:00 | 00:00:00 | |
| BIOWL1-15 | 2026-08-31 10:07:45 | 50.88628 | 8.83437 | 71° | 73km/h | 15751m | 4.5m/s | -53.8°C | 0% | 0hPa | 4.7V | 00:00:00 | 00:00:00 | 00:00:00 | |
| DO3DL | 2026-08-31 10:07:44 | 50.88628 | 8.83437 | 72° | 73km/h | 15751m | 4.5m/s | -53.8°C | 0% | 0hPa | 4.7V | 00:00:00 | 00:00:00 | 00:00:00 | |
| DD1CC2-15 | 2026-08-31 10:07:43 | 50.88622 | 8.83409 | 73° | 75km/h | 15747m | 3.2m/s | -47.6°C | 0% | 0hPa | 4.7V | 00:00:00 | 00:00:00 | 00:00:00 | |
| DO3MHA-11 | 2026-08-31 10:07:41 | 50.88610 | 8.83351 | 72° | 73km/h | 15737m | 3.4m/s | 0°C | 0% | 0hPa | 4.7V | 00:00:00 | 00:00:00 | 00:00:00 | |
| DO2JMG | 2026-08-31 10:07:39 | 50.88593 | 8.83267 | 73° | 71km/h | 15730m | 2.8m/s | -53.8°C | 0% | 0hPa | 4.7V | 00:00:00 | 00:00:00 | 00:00:00 | |
| DL1NUX | 2026-08-31 10:07:38 | 50.88562 | 8.83130 | 70° | 77km/h | 15707m | 3.6m/s | 0°C | 0% | 0hPa | 0V | 00:00:00 | 00:00:00 | 00:00:00 | |
| DO3DL | 2026-08-31 10:07:38 | 50.88587 | 8.83240 | 72° | 71km/h | 15726m | 4.1m/s | -53.7°C | 0% | 0hPa | 4.7V | 00:00:00 | 00:00:00 | 00:00:00 | |
| DL1XH-west | 2026-08-31 10:07:37 | 50.88581 | 8.83213 | 70° | 71km/h | 15722m | 3.6m/s | -53.8°C | 0% | 0hPa | 4.7V | 00:00:00 | 00:00:00 | 00:00:00 | |
| GOEST3-10 | 2026-08-31 10:07:36 | 50.88581 | 8.83213 | 70° | 73km/h | 15719m | 4.3m/s | 0°C | 0% | 0hPa | 4.7V | 00:00:00 | 00:00:00 | 00:00:00 | |
| AA1-15 | 2026-08-31 10:07:34 | 50.88562 | 8.83130 | 70° | 77km/h | 15711m | 4.2m/s | -53.8°C | 0% | 0hPa | 4.7V | 00:00:00 | 00:00:00 | 00:00:00 | |
| DL3OBA | 2026-08-31 10:07:33 | 50.88562 | 8.83130 | 71° | 77km/h | 15711m | 4.2m/s | -53.8°C | 0% | 0hPa | 0V | 00:00:00 | 00:00:00 | 00:00:00 | |
| DL1XH-15 | 2026-08-31 10:07:32 | 50.88526 | 8.82962 | 71° | 68km/h | 15684m | 3.4m/s | 0°C | 0% | 0hPa | 0V | 00:00:00 | 00:00:00 | 00:00:00 | |
| DO3MHA-11 | 2026-08-31 10:07:31 | 50.88549 | 8.83072 | 72° | 71km/h | 15699m | 2.9m/s | 0°C | 0% | 0hPa | 0V | 00:00:00 | 00:00:00 | 00:00:00 | |
| DO8TBO-1 | 2026-08-31 10:07:29 | 50.88537 | 8.83015 | 72° | 71km/h | 15692m | 2.9m/s | 0°C | 0% | 0hPa | 0V | 00:00:00 | 00:00:00 | 00:00:00 | |
| DL1NUX | 2026-08-31 10:07:28 | 50.88503 | 8.82858 | 68° | 71km/h | 15671m | 3.9m/s | 0°C | 0% | 0hPa | 0V | 00:00:00 | 00:00:00 | 00:00:00 | |
| DO2JMG | 2026-08-31 10:07:28 | 50.88526 | 8.82962 | 71° | 68km/h | 15688m | 4m/s | -53.8°C | 0% | 0hPa | 4.8V | 00:00:00 | 00:00:00 | 00:00:00 | |
| THATR2-17 | 2026-08-31 10:07:27 | 50.88520 | 8.82936 | 72° | 68km/h | 15684m | 0m/s | 0°C | 0% | 0hPa | 4.8V | 00:00:00 | 00:00:00 | 00:00:00 | |
| DL1XH-west | 2026-08-31 10:07:26 | 50.88515 | 8.82911 | 71° | 68km/h | 15681m | 3.3m/s | -53.8°C | 0% | 0hPa | 4.8V | 00:00:00 | 00:00:00 | 00:00:00 | |
| BIOWL1-15 | 2026-08-31 10:07:24 | 50.88503 | 8.82858 | 68° | 71km/h | 15674m | 2.8m/s | -53.7°C | 0% | 0hPa | 4.8V | 00:00:00 | 00:00:00 | 00:00:00 | |
| DD1CC2-15 | 2026-08-31 10:07:22 | 50.88495 | 8.82831 | 70° | 75km/h | 15671m | 3.9m/s | -47.4°C | 0% | 0hPa | 0V | 00:00:00 | 00:00:00 | 00:00:00 | |
| DO3MHA-11 | 2026-08-31 10:07:21 | 50.88489 | 8.82803 | 71° | 71km/h | 15664m | 4.2m/s | 0°C | 0% | 0hPa | 0V | 00:00:00 | 00:00:00 | 00:00:00 | |
| GOEST3-10 | 2026-08-31 10:07:19 | 50.88477 | 8.82747 | 70° | 69km/h | 15660m | 3.4m/s | 0°C | 0% | 0hPa | 0V | 00:00:00 | 00:00:00 | 00:00:00 | |
| SO1NDE-10 | 2026-08-31 10:07:18 | 50.88470 | 8.82720 | 71° | 71km/h | 15652m | 3.0m/s | 0°C | 0% | 0hPa | 0V | 00:00:00 | 00:00:00 | 00:00:00 | |
| DL1XH-15 | 2026-08-31 10:07:17 | 50.88464 | 8.82692 | 70° | 71km/h | 15648m | 4.5m/s | 0°C | 0% | 0hPa | 0V | 00:00:00 | 00:00:00 | 00:00:00 | |
| DO2JMG | 2026-08-31 10:07:17 | 50.88458 | 8.82667 | 70° | 69km/h | 15648m | 4.5m/s | -53.5°C | 0% | 0hPa | 4.8V | 00:00:00 | 00:00:00 | 00:00:00 | |
| DF2AP-13 | 2026-08-31 10:07:17 | 50.88464 | 8.82691 | 69° | 71km/h | 15648m | 4.4m/s | 0°C | 0% | 0hPa | 4.8V | 00:00:00 | 00:00:00 | 00:00:00 | |
| DL1XH-west | 2026-08-31 10:07:15 | 50.88446 | 8.82617 | 68° | 68km/h | 15641m | 3.2m/s | -53.5°C | 0% | 0hPa | 4.8V | 00:00:00 | 00:00:00 | 00:00:00 | |
| AA1-15 | 2026-08-31 10:07:13 | 50.88434 | 8.82565 | 70° | 71km/h | 15634m | 3.5m/s | -53.5°C | 0% | 0hPa | 4.8V | 00:00:00 | 00:00:00 | 00:00:00 | |
| DL1XH-15 | 2026-08-31 10:07:12 | 50.88403 | 8.82429 | 69° | 71km/h | 15608m | 3.8m/s | 0°C | 0% | 0hPa | 0V | 00:00:00 | 00:00:00 | 00:00:00 | |
| DL1NUX | 2026-08-31 10:07:08 | 50.88376 | 8.82325 | 66° | 69km/h | 15597m | 3.1m/s | 0°C | 0% | 0hPa | 0V | 00:00:00 | 00:00:00 | 00:00:00 | |
| DO2JMG | 2026-08-31 10:07:06 | 50.88390 | 8.82377 | 68° | 69km/h | 15608m | 3.8m/s | -53.3°C | 0% | 0hPa | 4.8V | 00:00:00 | 00:00:00 | 00:00:00 | |
| DO3DL | 2026-08-31 10:07:05 | 50.88390 | 8.82377 | 69° | 69km/h | 15608m | 3.8m/s | -53.3°C | 0% | 0hPa | 4.8V | 00:00:00 | 00:00:00 | 00:00:00 | |
| DL1XH-west | 2026-08-31 10:07:04 | 50.88376 | 8.82325 | 67° | 69km/h | 15601m | 4.3m/s | -53.2°C | 0% | 0hPa | 4.8V | 00:00:00 | 00:00:00 | 00:00:00 | |
| AA1-15 | 2026-08-31 10:07:02 | 50.88363 | 8.82275 | 68° | 69km/h | 15593m | 4.2m/s | -53.2°C | 0% | 0hPa | 4.8V | 00:00:00 | 00:00:00 | 00:00:00 | |
| DO3MHA-11 | 2026-08-31 10:07:01 | 50.88362 | 8.82275 | 68° | 71km/h | 15590m | 3.4m/s | 0°C | 0% | 0hPa | 0V | 00:00:00 | 00:00:00 | 00:00:00 | |
| DO8TBO-1 | 2026-08-31 10:06:59 | 50.88349 | 8.82221 | 70° | 73km/h | 15583m | 3.4m/s | 0°C | 0% | 0hPa | 0V | 00:00:00 | 00:00:00 | 00:00:00 | |
| DL1NUX | 2026-08-31 10:06:58 | 50.88308 | 8.82062 | 65° | 68km/h | 15561m | 4m/s | 0°C | 0% | 0hPa | 0V | 00:00:00 | 00:00:00 | 00:00:00 | |
| DL1XH-15 | 2026-08-31 10:06:57 | 50.88329 | 8.82140 | 68° | 73km/h | 15572m | 3m/s | 0°C | 0% | 0hPa | 0V | 00:00:00 | 00:00:00 | 00:00:00 | |
| DJTTGO | 2026-08-31 10:06:57 | 50.88329 | 8.82140 | 69° | 73km/h | 15576m | 3.8m/s | -53.1°C | 0% | 0hPa | 4.8V | 00:00:00 | 00:00:00 | 00:00:00 | |
| DO3DL | 2026-08-31 10:06:56 | 50.88329 | 8.82140 | 69° | 73km/h | 15576m | 3.8m/s | -53.1°C | 0% | 0hPa | 4.8V | 00:00:00 | 00:00:00 | 00:00:00 | |
| DO2JMG | 2026-08-31 10:06:55 | 50.88322 | 8.82113 | 68° | 71km/h | 15572m | 3m/s | -53°C | 0% | 0hPa | 4.8V | 00:00:00 | 00:00:00 | 00:00:00 | |
| GOEST3-10 | 2026-08-31 10:06:55 | 50.88322 | 8.82113 | 68° | 73km/h | 15569m | 4.3m/s | 0°C | 0% | 0hPa | 4.8V | 00:00:00 | 00:00:00 | 00:00:00 | |
| DL1XH-west | 2026-08-31 10:06:53 | 50.88300 | 8.82037 | 66° | 68km/h | 15561m | 4m/s | -53°C | 0% | 0hPa | 4.8V | 00:00:00 | 00:00:00 | 00:00:00 | |
| DL3OBA | 2026-08-31 10:06:52 | 50.88300 | 8.82037 | 67° | 68km/h | 15562m | 4.0m/s | -53.0°C | 0% | 0hPa | 4.8V | 00:00:00 | 00:00:00 | 00:00:00 | |
| AA1-15 | 2026-08-31 10:06:51 | 50.88286 | 8.81986 | 66° | 71km/h | 15554m | 3.3m/s | -53°C | 0% | 0hPa | 4.8V | 00:00:00 | 00:00:00 | 00:00:00 | |
| DO3MHA-11 | 2026-08-31 10:06:51 | 50.88293 | 8.82013 | 67° | 73km/h | 15554m | 3.3m/s | 0°C | 0% | 0hPa | 0V | 00:00:00 | 00:00:00 | 00:00:00 | |
| DO3DL | 2026-08-31 10:06:50 | 50.88279 | 8.81960 | 66° | 73km/h | 15551m | 3.8m/s | -53.0°C | 0% | 0hPa | 0V | 00:00:00 | 00:00:00 | 00:00:00 | |
| SO1NDE-10 | 2026-08-31 10:06:48 | 50.88271 | 8.81933 | 65° | 73km/h | 15544m | 4.0m/s | 0°C | 0% | 0hPa | 0V | 00:00:00 | 00:00:00 | 00:00:00 | |
| DL1XH-15 | 2026-08-31 10:06:47 | 50.88255 | 8.81878 | 66° | 75km/h | 15537m | 3.6m/s | 0°C | 0% | 0hPa | 0V | 00:00:00 | 00:00:00 | 00:00:00 | |
| DF2AP-13 | 2026-08-31 10:06:47 | 50.88262 | 8.81905 | 67° | 71km/h | 15540m | 3.0m/s | 0°C | 0% | 0hPa | 4.8V | 00:00:00 | 00:00:00 | 00:00:00 | |
| DO2JMG | 2026-08-31 10:06:45 | 50.88239 | 8.81825 | 64° | 71km/h | 15533m | 3.6m/s | -53°C | 0% | 0hPa | 4.8V | 00:00:00 | 00:00:00 | 00:00:00 | |
| DO3DL | 2026-08-31 10:06:44 | 50.88231 | 8.81800 | 64° | 71km/h | 15530m | 3.2m/s | -53.0°C | 0% | 0hPa | 4.8V | 00:00:00 | 00:00:00 | 00:00:00 | |
| DL1XH-west | 2026-08-31 10:06:42 | 50.88223 | 8.81774 | 64° | 71km/h | 15526m | 4m/s | -53°C | 0% | 0hPa | 4.8V | 00:00:00 | 00:00:00 | 00:00:00 | |
| AA1-15 | 2026-08-31 10:06:41 | 50.88208 | 8.81723 | 64° | 71km/h | 15519m | 4m/s | -53.1°C | 0% | 0hPa | 4.8V | 00:00:00 | 00:00:00 | 00:00:00 | |
| DL1NUX | 2026-08-31 10:06:38 | 50.88149 | 8.81533 | 63° | 77km/h | 15491m | 3.1m/s | 0°C | 0% | 0hPa | 0V | 00:00:00 | 00:00:00 | 00:00:00 | |
| DL1XH-15 | 2026-08-31 10:06:37 | 50.88175 | 8.81616 | 63° | 77km/h | 15501m | 3.9m/s | 0°C | 0% | 0hPa | 0V | 00:00:00 | 00:00:00 | 00:00:00 | |
| NBG1-10 | 2026-08-31 10:06:37 | 50.88183 | 8.81644 | 67° | 77km/h | 15505m | 3.1m/s | 0°C | 0% | 0hPa | 4.8V | 00:00:00 | 00:00:00 | 00:00:00 | |
| BIOWL1-15 | 2026-08-31 10:06:34 | 50.88141 | 8.81506 | 62° | 75km/h | 15491m | 3.1m/s | -53.4°C | 0% | 0hPa | 4.8V | 00:00:00 | 00:00:00 | 00:00:00 | |
| DF8AY | 2026-08-31 10:06:34 | 50.88149 | 8.81533 | 64° | 77km/h | 15494m | 3.8m/s | -53.4°C | 0% | 0hPa | 4.8V | 00:00:00 | 00:00:00 | 00:00:00 | |
| DL1XH-west | 2026-08-31 10:06:32 | 50.88132 | 8.81480 | 60° | 73km/h | 15487m | 3.8m/s | -53.4°C | 0% | 0hPa | 4.8V | 00:00:00 | 00:00:00 | 00:00:00 | |
| DO3MHA-11 | 2026-08-31 10:06:31 | 50.88132 | 8.81480 | 61° | 69km/h | 15484m | 3.0m/s | 0°C | 0% | 0hPa | 4.8V | 00:00:00 | 00:00:00 | 00:00:00 | |
| AA1-15 | 2026-08-31 10:06:30 | 50.88113 | 8.81431 | 61° | 69km/h | 15480m | 4.1m/s | -53.4°C | 0% | 0hPa | 4.8V | 00:00:00 | 00:00:00 | 00:00:00 | |
| DO8TBO-1 | 2026-08-31 10:06:29 | 50.88113 | 8.81430 | 61° | 71km/h | 15477m | 3.3m/s | 0°C | 0% | 0hPa | 0V | 00:00:00 | 00:00:00 | 00:00:00 | |
| DL1XH-15 | 2026-08-31 10:06:27 | 50.88089 | 8.81358 | 62° | 69km/h | 15465m | 4.6m/s | 0°C | 0% | 0hPa | 0V | 00:00:00 | 00:00:00 | 00:00:00 | |
| DO2JMG | 2026-08-31 10:06:25 | 50.88074 | 8.81307 | 66° | 69km/h | 15461m | 3m/s | -53.1°C | 0% | 0hPa | 4.8V | 00:00:00 | 00:00:00 | 00:00:00 | |
| DO3DL | 2026-08-31 10:06:24 | 50.88074 | 8.81307 | 67° | 71km/h | 15461m | 3.0m/s | -53.2°C | 0% | 0hPa | 4.8V | 00:00:00 | 00:00:00 | 00:00:00 | |
| DF8AY | 2026-08-31 10:06:23 | 50.88058 | 8.81256 | 62° | 71km/h | 15454m | 3m/s | -53.2°C | 0% | 0hPa | 4.8V | 00:00:00 | 00:00:00 | 00:00:00 | |
| DL1XH-west | 2026-08-31 10:06:21 | 50.88042 | 8.81208 | 63° | 68km/h | 15447m | 3.7m/s | -53.2°C | 0% | 0hPa | 4.8V | 00:00:00 | 00:00:00 | 00:00:00 | |
| DD1CC2-15 | 2026-08-31 10:06:21 | 50.88042 | 8.81208 | 64° | 68km/h | 15447m | 3.7m/s | -46.9°C | 0% | 0hPa | 4.8V | 00:00:00 | 00:00:00 | 00:00:00 | |
| GOEST3-10 | 2026-08-31 10:06:20 | 50.88042 | 8.81208 | 63° | 66km/h | 15438m | 3.2m/s | 0°C | 0% | 0hPa | 4.8V | 00:00:00 | 00:00:00 | 00:00:00 | |
| AA1-15 | 2026-08-31 10:06:19 | 50.88027 | 8.81160 | 63° | 66km/h | 15441m | 3.4m/s | -53.2°C | 0% | 0hPa | 4.8V | 00:00:00 | 00:00:00 | 00:00:00 | |
| SO1NDE-10 | 2026-08-31 10:06:18 | 50.88027 | 8.81160 | 63° | 71km/h | 15438m | 3.2m/s | 0°C | 0% | 0hPa | 0V | 00:00:00 | 00:00:00 | 00:00:00 | |
| DL1XH-15 | 2026-08-31 10:06:17 | 50.88011 | 8.81113 | 63° | 66km/h | 15431m | 3.6m/s | 0°C | 0% | 0hPa | 0V | 00:00:00 | 00:00:00 | 00:00:00 | |
| DF2AP-13 | 2026-08-31 10:06:17 | 50.88019 | 8.81137 | 64° | 73km/h | 15434m | 3.0m/s | 0°C | 0% | 0hPa | 4.8V | 00:00:00 | 00:00:00 | 00:00:00 | |
| DJTTGO | 2026-08-31 10:06:16 | 50.88011 | 8.81113 | 64° | 66km/h | 15434m | 3.1m/s | -53.3°C | 0% | 0hPa | 4.8V | 00:00:00 | 00:00:00 | 00:00:00 | |
| DO2JMG | 2026-08-31 10:06:14 | 50.87996 | 8.81064 | 66° | 69km/h | 15427m | 2.7m/s | -53.3°C | 0% | 0hPa | 4.8V | 00:00:00 | 00:00:00 | 00:00:00 | |
| DF8AY | 2026-08-31 10:06:13 | 50.87981 | 8.81012 | 65° | 75km/h | 15420m | 3.2m/s | -53.3°C | 0% | 0hPa | 4.8V | 00:00:00 | 00:00:00 | 00:00:00 | |
| DO3DL | 2026-08-31 10:06:12 | 50.87981 | 8.81012 | 66° | 75km/h | 15420m | 3.2m/s | -53.3°C | 0% | 0hPa | 0V | 00:00:00 | 00:00:00 | 00:00:00 | |
| DO3MHA-11 | 2026-08-31 10:06:11 | 50.87973 | 8.80985 | 66° | 73km/h | 15414m | 3.4m/s | 0°C | 0% | 0hPa | 0V | 00:00:00 | 00:00:00 | 00:00:00 | |
| GOEST3-10 | 2026-08-31 10:06:10 | 50.87965 | 8.80956 | 68° | 71km/h | 15410m | 3.1m/s | 0°C | 0% | 0hPa | 0V | 00:00:00 | 00:00:00 | 00:00:00 | |
| DL1XH-west | 2026-08-31 10:06:10 | 50.87958 | 8.80930 | 68° | 73km/h | 15410m | 3.1m/s | -53.1°C | 0% | 0hPa | 4.8V | 00:00:00 | 00:00:00 | 00:00:00 | |
| DL1NUX | 2026-08-31 10:06:08 | 50.87914 | 8.80777 | 64° | 73km/h | 15385m | 2.5m/s | 0°C | 0% | 0hPa | 0V | 00:00:00 | 00:00:00 | 00:00:00 | |
| DL1XH-15 | 2026-08-31 10:06:07 | 50.87937 | 8.80853 | 64° | 69km/h | 15399m | 3.8m/s | 0°C | 0% | 0hPa | 0V | 00:00:00 | 00:00:00 | 00:00:00 | |
| GOEST3-10 | 2026-08-31 10:06:05 | 50.87929 | 8.80828 | 66° | 73km/h | 15382m | 3.9m/s | 0°C | 0% | 0hPa | 4.8V | 00:00:00 | 00:00:00 | 00:00:00 | |
| DO2JMG | 2026-08-31 10:06:03 | 50.87914 | 8.80777 | 64° | 73km/h | 15388m | 3.5m/s | -53°C | 0% | 0hPa | 4.8V | 00:00:00 | 00:00:00 | 00:00:00 | |
| DF8AY | 2026-08-31 10:06:02 | 50.87898 | 8.80722 | 66° | 77km/h | 15382m | 3.9m/s | -53°C | 0% | 0hPa | 4.8V | 00:00:00 | 00:00:00 | 00:00:00 | |
| DD1CC2-15 | 2026-08-31 10:06:01 | 50.87890 | 8.80694 | 70° | 77km/h | 15378m | 3.1m/s | -46.7°C | 0% | 0hPa | 4.8V | 00:00:00 | 00:00:00 | 00:00:00 | |
| DL1XH-west | 2026-08-31 10:05:59 | 50.87884 | 8.80665 | 69° | 77km/h | 15375m | 3.5m/s | -53°C | 0% | 0hPa | 4.8V | 00:00:00 | 00:00:00 | 00:00:00 | |
| DO8TBO-1 | 2026-08-31 10:05:59 | 50.87884 | 8.80665 | 69° | 73km/h | 15371m | 3.4m/s | 0°C | 0% | 0hPa | 0V | 00:00:00 | 00:00:00 | 00:00:00 | |
| DL1NUX | 2026-08-31 10:05:58 | 50.87843 | 8.80504 | 68° | 71km/h | 15350m | 4.1m/s | 0°C | 0% | 0hPa | 0V | 00:00:00 | 00:00:00 | 00:00:00 | |
| DL1XH-15 | 2026-08-31 10:05:57 | 50.87863 | 8.80582 | 69° | 73km/h | 15360m | 3.1m/s | 0°C | 0% | 0hPa | 0V | 00:00:00 | 00:00:00 | 00:00:00 | |
| AA1-15 | 2026-08-31 10:05:57 | 50.87863 | 8.80582 | 69° | 73km/h | 15364m | 3.9m/s | -53°C | 0% | 0hPa | 4.8V | 00:00:00 | 00:00:00 | 00:00:00 | |
| GOEST3-10 | 2026-08-31 10:05:55 | 50.87856 | 8.80555 | 69° | 71km/h | 15353m | 2.7m/s | 0°C | 0% | 0hPa | 4.8V | 00:00:00 | 00:00:00 | 00:00:00 | |
| DO2JMG | 2026-08-31 10:05:53 | 50.87836 | 8.80476 | 68° | 73km/h | 15350m | 4.1m/s | -52.9°C | 0% | 0hPa | 4.8V | 00:00:00 | 00:00:00 | 00:00:00 | |
| DO3DL | 2026-08-31 10:05:52 | 50.87836 | 8.80476 | 69° | 73km/h | 15350m | 4.1m/s | -52.9°C | 0% | 0hPa | 4.8V | 00:00:00 | 00:00:00 | 00:00:00 | |
| DO3MHA-11 | 2026-08-31 10:05:51 | 50.87830 | 8.80449 | 71° | 75km/h | 15343m | 3.4m/s | 0°C | 0% | 0hPa | 4.8V | 00:00:00 | 00:00:00 | 00:00:00 | |
| DF8AY | 2026-08-31 10:05:51 | 50.87823 | 8.80420 | 70° | 75km/h | 15343m | 3.4m/s | -52.8°C | 0% | 0hPa | 4.8V | 00:00:00 | 00:00:00 | 00:00:00 | |
| GOEST3-10 | 2026-08-31 10:05:50 | 50.87823 | 8.80420 | 71° | 77km/h | 15339m | 3.6m/s | 0°C | 0% | 0hPa | 4.8V | 00:00:00 | 00:00:00 | 00:00:00 | |
| DL1XH-west | 2026-08-31 10:05:49 | 50.87810 | 8.80364 | 70° | 77km/h | 15336m | 3.5m/s | -52.8°C | 0% | 0hPa | 4.8V | 00:00:00 | 00:00:00 | 00:00:00 | |
| DL1NUX | 2026-08-31 10:05:48 | 50.87777 | 8.80221 | 69° | 73km/h | 15314m | 3.1m/s | 0°C | 0% | 0hPa | 0V | 00:00:00 | 00:00:00 | 00:00:00 | |
| SO1NDE-10 | 2026-08-31 10:05:48 | 50.87810 | 8.80364 | 70° | 75km/h | 15332m | 3.6m/s | 0°C | 0% | 0hPa | 0V | 00:00:00 | 00:00:00 | 00:00:00 | |
| DL1XH-15 | 2026-08-31 10:05:47 | 50.87797 | 8.80305 | 70° | 77km/h | 15325m | 3.7m/s | 0°C | 0% | 0hPa | 0V | 00:00:00 | 00:00:00 | 00:00:00 | |
| DF2AP-13 | 2026-08-31 10:05:47 | 50.87803 | 8.80334 | 71° | 73km/h | 15329m | 3.2m/s | 0°C | 0% | 0hPa | 4.8V | 00:00:00 | 00:00:00 | 00:00:00 | |
| AA1-15 | 2026-08-31 10:05:47 | 50.87797 | 8.80305 | 70° | 77km/h | 15328m | 3.2m/s | -52.9°C | 0% | 0hPa | 4.8V | 00:00:00 | 00:00:00 | 00:00:00 | |
| GOEST3-10 | 2026-08-31 10:05:45 | 50.87790 | 8.80277 | 70° | 73km/h | 15322m | 3.1m/s | 0°C | 0% | 0hPa | 4.8V | 00:00:00 | 00:00:00 | 00:00:00 | |
| DO2JMG | 2026-08-31 10:05:42 | 50.87764 | 8.80166 | 70° | 71km/h | 15311m | 4.1m/s | -52.8°C | 0% | 0hPa | 4.8V | 00:00:00 | 00:00:00 | 00:00:00 | |
| DO3MHA-11 | 2026-08-31 10:05:41 | 50.87764 | 8.80166 | 71° | 73km/h | 15307m | 3.5m/s | 0°C | 0% | 0hPa | 4.8V | 00:00:00 | 00:00:00 | 00:00:00 | |
| DF8AY | 2026-08-31 10:05:40 | 50.87752 | 8.80112 | 72° | 71km/h | 15303m | 3.9m/s | -52.8°C | 0% | 0hPa | 4.8V | 00:00:00 | 00:00:00 | 00:00:00 | |
| DO3DL | 2026-08-31 10:05:39 | 50.87753 | 8.80112 | 73° | 71km/h | 15303m | 3.9m/s | -52.8°C | 0% | 0hPa | 0V | 00:00:00 | 00:00:00 | 00:00:00 | |
| DL1XH-15 | 2026-08-31 10:05:37 | 50.87735 | 8.80031 | 68° | 73km/h | 15288m | 3.9m/s | 0°C | 0% | 0hPa | 0V | 00:00:00 | 00:00:00 | 00:00:00 | |
| DL1NUX | 2026-08-31 10:05:36 | 50.87701 | 8.79893 | 69° | 73km/h | 15270m | 3.2m/s | 0°C | 0% | 0hPa | 0V | 00:00:00 | 00:00:00 | 00:00:00 | |
| AA1-15 | 2026-08-31 10:05:36 | 50.87728 | 8.80003 | 69° | 75km/h | 15288m | 3.9m/s | -52.8°C | 0% | 0hPa | 4.8V | 00:00:00 | 00:00:00 | 00:00:00 | |
| GOEST3-10 | 2026-08-31 10:05:35 | 50.87728 | 8.80003 | 69° | 75km/h | 15285m | 3.0m/s | 0°C | 0% | 0hPa | 4.8V | 00:00:00 | 00:00:00 | 00:00:00 | |
| DO2JMG | 2026-08-31 10:05:32 | 50.87701 | 8.79893 | 70° | 73km/h | 15274m | 4.2m/s | -52.8°C | 0% | 0hPa | 4.8V | 00:00:00 | 00:00:00 | 00:00:00 | |
| DO3MHA-11 | 2026-08-31 10:05:31 | 50.87701 | 8.79892 | 70° | 73km/h | 15270m | 3.2m/s | 0°C | 0% | 0hPa | 4.8V | 00:00:00 | 00:00:00 | 00:00:00 | |
| GOEST3-10 | 2026-08-31 10:05:30 | 50.87695 | 8.79865 | 72° | 71km/h | 15267m | 3.5m/s | 0°C | 0% | 0hPa | 4.8V | 00:00:00 | 00:00:00 | 00:00:00 | |
| BIOWL1-15 | 2026-08-31 10:05:29 | 50.87683 | 8.79811 | 70° | 71km/h | 15263m | 3.5m/s | 0°C | 0% | 0hPa | 4.8V | 00:00:00 | 00:00:00 | 00:00:00 | |
| DL1XH-15 | 2026-08-31 10:05:27 | 50.87670 | 8.79758 | 69° | 73km/h | 15252m | 3.5m/s | 0°C | 0% | 0hPa | 0V | 00:00:00 | 00:00:00 | 00:00:00 | |
| DL1XH-west | 2026-08-31 10:05:26 | 50.87670 | 8.79758 | 69° | 73km/h | 15256m | 3.5m/s | -52.8°C | 0% | 0hPa | 4.8V | 00:00:00 | 00:00:00 | 00:00:00 | |
| DL1NUX | 2026-08-31 10:05:26 | 50.87632 | 8.79620 | 65° | 77km/h | 15234m | 4m/s | 0°C | 0% | 0hPa | 0V | 00:00:00 | 00:00:00 | 00:00:00 | |
| AA1-15 | 2026-08-31 10:05:25 | 50.87656 | 8.79704 | 65° | 75km/h | 15249m | 3.7m/s | -52.8°C | 0% | 0hPa | 4.8V | 00:00:00 | 00:00:00 | 00:00:00 | |
| DO3MHA-11 | 2026-08-31 10:05:21 | 50.87632 | 8.79620 | 66° | 75km/h | 15234m | 4.0m/s | 0°C | 0% | 0hPa | 4.8V | 00:00:00 | 00:00:00 | 00:00:00 | |
| DO2JMG | 2026-08-31 10:05:20 | 50.87624 | 8.79593 | 65° | 77km/h | 15234m | 4m/s | -52.8°C | 0% | 0hPa | 4.8V | 00:00:00 | 00:00:00 | 00:00:00 | |
| GOEST3-10 | 2026-08-31 10:05:20 | 50.87624 | 8.79593 | 66° | 75km/h | 15227m | 4.1m/s | 0°C | 0% | 0hPa | 4.8V | 00:00:00 | 00:00:00 | 00:00:00 | |
| DF8AY | 2026-08-31 10:05:19 | 50.87609 | 8.79538 | 68° | 73km/h | 15227m | 4.2m/s | -52.8°C | 0% | 0hPa | 4.8V | 00:00:00 | 00:00:00 | 00:00:00 | |
| SO1NDE-10 | 2026-08-31 10:05:18 | 50.87609 | 8.79538 | 68° | 75km/h | 15224m | 2.2m/s | 0°C | 0% | 0hPa | 0V | 00:00:00 | 00:00:00 | 00:00:00 | |
| DL1XH-15 | 2026-08-31 10:05:17 | 50.87595 | 8.79484 | 67° | 73km/h | 15217m | 3.5m/s | 0°C | 0% | 0hPa | 0V | 00:00:00 | 00:00:00 | 00:00:00 | |
| DF2AP-13 | 2026-08-31 10:05:17 | 50.87602 | 8.79511 | 69° | 75km/h | 15220m | 3.4m/s | 0°C | 0% | 0hPa | 4.8V | 00:00:00 | 00:00:00 | 00:00:00 | |
| DL1XH-west | 2026-08-31 10:05:16 | 50.87595 | 8.79484 | 68° | 73km/h | 15220m | 3.5m/s | -52.7°C | 0% | 0hPa | 4.8V | 00:00:00 | 00:00:00 | 00:00:00 | |
| DL1NUX | 2026-08-31 10:05:16 | 50.87556 | 8.79349 | 63° | 77km/h | 15199m | 3.2m/s | 0°C | 0% | 0hPa | 0V | 00:00:00 | 00:00:00 | 00:00:00 | |
| NBG1-10 | 2026-08-31 10:05:15 | 50.87588 | 8.79457 | 66° | 64km/h | 15200m | 3.2m/s | 0°C | 0% | 0hPa | 4.8V | 00:00:00 | 00:00:00 | 00:00:00 | |
| AA1-15 | 2026-08-31 10:05:14 | 50.87573 | 8.79404 | 66° | 75km/h | 15210m | 3.6m/s | -52.8°C | 0% | 0hPa | 4.8V | 00:00:00 | 00:00:00 | 00:00:00 | |
| DO3DL | 2026-08-31 10:05:13 | 50.87573 | 8.79404 | 67° | 75km/h | 15210m | 3.6m/s | -52.8°C | 0% | 0hPa | 4.8V | 00:00:00 | 00:00:00 | 00:00:00 | |
| DO3MHA-11 | 2026-08-31 10:05:11 | 50.87556 | 8.79349 | 64° | 77km/h | 15200m | 3.2m/s | 0°C | 0% | 0hPa | 4.8V | 00:00:00 | 00:00:00 | 00:00:00 | |
| DL3OBA | 2026-08-31 10:05:10 | 50.87548 | 8.79322 | 63° | 77km/h | 15200m | 3.3m/s | -52.7°C | 0% | 0hPa | 4.8V | 00:00:00 | 00:00:00 | 00:00:00 | |
| DO2JMG | 2026-08-31 10:05:09 | 50.87539 | 8.79295 | 63° | 77km/h | 15196m | 4.3m/s | -52.6°C | 0% | 0hPa | 4.8V | 00:00:00 | 00:00:00 | 00:00:00 | |
| DL1XH-15 | 2026-08-31 10:05:07 | 50.87513 | 8.79211 | 63° | 77km/h | 15185m | 3.4m/s | 0°C | 0% | 0hPa | 0V | 00:00:00 | 00:00:00 | 00:00:00 | |
| DL1NUX | 2026-08-31 10:05:06 | 50.87469 | 8.79073 | 61° | 77km/h | 15164m | 3.4m/s | 0°C | 0% | 0hPa | 0V | 00:00:00 | 00:00:00 | 00:00:00 | |
| DL1XH-west | 2026-08-31 10:05:05 | 50.87504 | 8.79184 | 63° | 77km/h | 15182m | 2.4m/s | -52.6°C | 0% | 0hPa | 4.8V | 00:00:00 | 00:00:00 | 00:00:00 | |
| DL3AQ-11 | 2026-08-31 10:05:05 | 50.87487 | 8.79129 | 63° | 78km/h | 15176m | 3.0m/s | -52.6°C | -1.0% | -1.0hPa | 0V | 00:00:00 | 00:00:00 | 00:00:00 | |
| DM0DOS-11 | 2026-08-31 10:05:04 | 50.87451 | 8.79021 | 63° | 75km/h | 15158m | 3.2m/s | 0°C | 0% | 0hPa | 0V | 00:00:00 | 00:00:00 | 00:00:00 | |
| AA1-15 | 2026-08-31 10:05:03 | 50.87487 | 8.79129 | 64° | 78km/h | 15175m | 3m/s | -52.6°C | 0% | 0hPa | 4.8V | 00:00:00 | 00:00:00 | 00:00:00 | |
| DO3MHA-11 | 2026-08-31 10:05:01 | 50.87469 | 8.79073 | 62° | 73km/h | 15165m | 3.4m/s | 0°C | 0% | 0hPa | 4.8V | 00:00:00 | 00:00:00 | 00:00:00 | |
| DO3DL | 2026-08-31 10:05:00 | 50.87460 | 8.79047 | 63° | 75km/h | 15165m | 3.4m/s | -52.5°C | 0% | 0hPa | 4.8V | 00:00:00 | 00:00:00 | 00:00:00 | |
| DO2JMG | 2026-08-31 10:04:59 | 50.87442 | 8.78994 | 63° | 75km/h | 15158m | 3.2m/s | -52.5°C | 0% | 0hPa | 4.8V | 00:00:00 | 00:00:00 | 00:00:00 | |
| GOEST3-10 | 2026-08-31 10:04:58 | 50.87442 | 8.78993 | 64° | 75km/h | 15155m | 3.2m/s | 0°C | 0% | 0hPa | 0V | 00:00:00 | 00:00:00 | 00:00:00 | |
| DL1XH-15 | 2026-08-31 10:04:57 | 50.87424 | 8.78940 | 60° | 75km/h | 15147m | 3.4m/s | 0°C | 0% | 0hPa | 0V | 00:00:00 | 00:00:00 | 00:00:00 | |
| DF8AY | 2026-08-31 10:04:57 | 50.87424 | 8.78940 | 60° | 75km/h | 15151m | 3.5m/s | -52.5°C | 0% | 0hPa | 4.8V | 00:00:00 | 00:00:00 | 00:00:00 | |
| DL1XH-west | 2026-08-31 10:04:54 | 50.87405 | 8.78890 | 59° | 71km/h | 15144m | 3.4m/s | -52.5°C | 0% | 0hPa | 4.8V | 00:00:00 | 00:00:00 | 00:00:00 | |
| DM0DOS-11 | 2026-08-31 10:04:54 | 50.87361 | 8.78766 | 59° | 75km/h | 15122m | 4.1m/s | 0°C | 0% | 0hPa | 0V | 00:00:00 | 00:00:00 | 00:00:00 | |
| AA1-15 | 2026-08-31 10:04:53 | 50.87388 | 8.78841 | 62° | 71km/h | 15137m | 3.1m/s | -52.4°C | 0% | 0hPa | 4.8V | 00:00:00 | 00:00:00 | 00:00:00 | |
| GOEST3-10 | 2026-08-31 10:04:53 | 50.87396 | 8.78865 | 62° | 71km/h | 15137m | 3.0m/s | 0°C | 0% | 0hPa | 4.8V | 00:00:00 | 00:00:00 | 00:00:00 | |
| DF8AY | 2026-08-31 10:04:51 | 50.87319 | 8.78662 | 58° | 77km/h | 15111m | 3.3m/s | -52.3°C | 0% | 0hPa | 4.8V | 00:00:00 | 00:00:00 | 00:00:00 | |
| DO3MHA-11 | 2026-08-31 10:04:51 | 50.87379 | 8.78816 | 61° | 73km/h | 15130m | 3.4m/s | 0°C | 0% | 0hPa | 4.8V | 00:00:00 | 00:00:00 | 00:00:00 | |
| DL3OBA | 2026-08-31 10:04:49 | 50.87361 | 8.78766 | 61° | 75km/h | 15126m | 3.6m/s | -52.4°C | 0% | 0hPa | 4.8V | 00:00:00 | 00:00:00 | 00:00:00 | |
| DO2JMG | 2026-08-31 10:04:48 | 50.87341 | 8.78714 | 57° | 77km/h | 15119m | 3.4m/s | -52.4°C | 0% | 0hPa | 4.8V | 00:00:00 | 00:00:00 | 00:00:00 | |
| DF2AP-13 | 2026-08-31 10:04:47 | 50.87340 | 8.78714 | 57° | 71km/h | 15115m | 3.9m/s | 0°C | 0% | 0hPa | 0V | 00:00:00 | 00:00:00 | 00:00:00 | |
| DL1NUX | 2026-08-31 10:04:46 | 50.87280 | 8.78565 | 58° | 69km/h | 15093m | 2.9m/s | 0°C | 0% | 0hPa | 0V | 00:00:00 | 00:00:00 | 00:00:00 | |
| DM0DOS-11 | 2026-08-31 10:04:44 | 50.87262 | 8.78517 | 56° | 73km/h | 15086m | 3.3m/s | 0°C | 0% | 0hPa | 0V | 00:00:00 | 00:00:00 | 00:00:00 | |
| DL1XH-west | 2026-08-31 10:04:44 | 50.87299 | 8.78613 | 57° | 71km/h | 15104m | 3.4m/s | -52.3°C | 0% | 0hPa | 4.8V | 00:00:00 | 00:00:00 | 00:00:00 | |
| GOEST3-10 | 2026-08-31 10:04:43 | 50.87299 | 8.78612 | 57° | 71km/h | 15094m | 2.9m/s | 0°C | 0% | 0hPa | 4.8V | 00:00:00 | 00:00:00 | 00:00:00 | |
| DO3MHA-11 | 2026-08-31 10:04:41 | 50.87280 | 8.78565 | 59° | 73km/h | 15094m | 2.9m/s | 0°C | 0% | 0hPa | 4.8V | 00:00:00 | 00:00:00 | 00:00:00 | |
| AA1-15 | 2026-08-31 10:04:39 | 50.87261 | 8.78517 | 57° | 73km/h | 15090m | 4.1m/s | -52.4°C | 0% | 0hPa | 4.8V | 00:00:00 | 00:00:00 | 00:00:00 | |
| GOEST3-10 | 2026-08-31 10:04:38 | 50.87251 | 8.78492 | 56° | 75km/h | 15086m | 3.3m/s | 0°C | 0% | 0hPa | 4.8V | 00:00:00 | 00:00:00 | 00:00:00 | |
| DO2JMG | 2026-08-31 10:04:37 | 50.87240 | 8.78468 | 56° | 75km/h | 15082m | 4.1m/s | -52.4°C | 0% | 0hPa | 4.8V | 00:00:00 | 00:00:00 | 00:00:00 | |
| DD1CC2-15 | 2026-08-31 10:04:37 | 50.87240 | 8.78468 | 57° | 75km/h | 15083m | 4.1m/s | -46.0°C | 0% | 0hPa | 4.8V | 00:00:00 | 00:00:00 | 00:00:00 | |
| DF8AY | 2026-08-31 10:04:36 | 50.87219 | 8.78418 | 56° | 73km/h | 15076m | 3.5m/s | -52.3°C | 0% | 0hPa | 4.8V | 00:00:00 | 00:00:00 | 00:00:00 | |
| DM0DOS-11 | 2026-08-31 10:04:34 | 50.87162 | 8.78283 | 55° | 66km/h | 15050m | 3.8m/s | 0°C | 0% | 0hPa | 0V | 00:00:00 | 00:00:00 | 00:00:00 | |
| DL1XH-west | 2026-08-31 10:04:33 | 50.87189 | 8.78348 | 57° | 68km/h | 15064m | 3.5m/s | -52.2°C | 0% | 0hPa | 4.8V | 00:00:00 | 00:00:00 | 00:00:00 | |
| DL1XH-15 | 2026-08-31 10:04:31 | 50.87131 | 8.78215 | 52° | 71km/h | 15039m | 3.1m/s | 0°C | 0% | 0hPa | 0V | 00:00:00 | 00:00:00 | 00:00:00 | |
| DO3MHA-11 | 2026-08-31 10:04:31 | 50.87180 | 8.78325 | 56° | 69km/h | 15057m | 3.7m/s | 0°C | 0% | 0hPa | 4.8V | 00:00:00 | 00:00:00 | 00:00:00 | |
| AA1-15 | 2026-08-31 10:04:29 | 50.87152 | 8.78261 | 55° | 68km/h | 15050m | 3.8m/s | -52.2°C | 0% | 0hPa | 4.8V | 00:00:00 | 00:00:00 | 00:00:00 | |
| GOEST3-10 | 2026-08-31 10:04:28 | 50.87152 | 8.78260 | 56° | 71km/h | 15046m | 3.3m/s | 0°C | 0% | 0hPa | 4.8V | 00:00:00 | 00:00:00 | 00:00:00 | |
| DO2JMG | 2026-08-31 10:04:26 | 50.87131 | 8.78215 | 53° | 71km/h | 15042m | 4.1m/s | -52.2°C | 0% | 0hPa | 4.8V | 00:00:00 | 00:00:00 | 00:00:00 | |
| DF8AY | 2026-08-31 10:04:25 | 50.87109 | 8.78169 | 53° | 73km/h | 15035m | 3.7m/s | -52.2°C | 0% | 0hPa | 4.8V | 00:00:00 | 00:00:00 | 00:00:00 | |
| DM0DOS-11 | 2026-08-31 10:04:24 | 50.87057 | 8.78060 | 56° | 66km/h | 15010m | 3.2m/s | 0°C | 0% | 0hPa | 0V | 00:00:00 | 00:00:00 | 00:00:00 | |
| GOEST3-10 | 2026-08-31 10:04:23 | 50.87098 | 8.78146 | 54° | 68km/h | 15028m | 3.6m/s | 0°C | 0% | 0hPa | 4.8V | 00:00:00 | 00:00:00 | 00:00:00 | |
| DL1XH-west | 2026-08-31 10:04:22 | 50.87087 | 8.78124 | 52° | 69km/h | 15028m | 3.7m/s | -52.1°C | 0% | 0hPa | 4.8V | 00:00:00 | 00:00:00 | 00:00:00 | |
| THATR2-17 | 2026-08-31 10:04:21 | 50.87018 | 8.77975 | 52° | 66km/h | 15003m | 0m/s | 0°C | 0% | 0hPa | 4.8V | 00:00:00 | 00:00:00 | 00:00:00 | |
| AA1-15 | 2026-08-31 10:04:18 | 50.87038 | 8.78017 | 53° | 66km/h | 15010m | 3.2m/s | -52°C | 0% | 0hPa | 4.8V | 00:00:00 | 00:00:00 | 00:00:00 | |
| DF2AP-13 | 2026-08-31 10:04:17 | 50.87038 | 8.78017 | 53° | 66km/h | 15007m | 3.8m/s | 0°C | 0% | 0hPa | 0V | 00:00:00 | 00:00:00 | 00:00:00 | |
| DL1NUX | 2026-08-31 10:04:16 | 50.86974 | 8.77891 | 52° | 66km/h | 14985m | 3.6m/s | 0°C | 0% | 0hPa | 0V | 00:00:00 | 00:00:00 | 00:00:00 | |
| DO3DL | 2026-08-31 10:04:15 | 50.87017 | 8.77975 | 54° | 68km/h | 15003m | 3.5m/s | -51.9°C | 0% | 0hPa | 4.8V | 00:00:00 | 00:00:00 | 00:00:00 | |
| DF8AY | 2026-08-31 10:04:14 | 50.86996 | 8.77933 | 50° | 68km/h | 14996m | 3.2m/s | -51.9°C | 0% | 0hPa | 4.8V | 00:00:00 | 00:00:00 | 00:00:00 | |
| GOEST3-10 | 2026-08-31 10:04:13 | 50.86996 | 8.77933 | 50° | 68km/h | 14992m | 4.0m/s | 0°C | 0% | 0hPa | 4.8V | 00:00:00 | 00:00:00 | 00:00:00 | |
| DL1XH-west | 2026-08-31 10:04:11 | 50.86974 | 8.77891 | 52° | 66km/h | 14988m | 3.4m/s | -51.9°C | 0% | 0hPa | 4.8V | 00:00:00 | 00:00:00 | 00:00:00 | |
| DO3MHA-11 | 2026-08-31 10:04:11 | 50.86974 | 8.77891 | 53° | 66km/h | 14985m | 3.6m/s | 0°C | 0% | 0hPa | 0V | 00:00:00 | 00:00:00 | 00:00:00 | |
| DM0DOS-11 | 2026-08-31 10:04:09 | 50.86944 | 8.77830 | 51° | 64km/h | 14974m | 3.3m/s | 0°C | 0% | 0hPa | 0V | 00:00:00 | 00:00:00 | 00:00:00 | |
| DO3DL | 2026-08-31 10:04:09 | 50.86944 | 8.77830 | 53° | 64km/h | 14978m | 3.4m/s | -51.9°C | 0% | 0hPa | 4.8V | 00:00:00 | 00:00:00 | 00:00:00 | |
| GOEST3-10 | 2026-08-31 10:04:08 | 50.86944 | 8.77830 | 52° | 66km/h | 14975m | 3.2m/s | 0°C | 0% | 0hPa | 4.8V | 00:00:00 | 00:00:00 | 00:00:00 | |
| AA1-15 | 2026-08-31 10:04:07 | 50.86934 | 8.77809 | 53° | 64km/h | 14974m | 3.3m/s | -51.8°C | 0% | 0hPa | 4.8V | 00:00:00 | 00:00:00 | 00:00:00 | |
| DL1NUX | 2026-08-31 10:04:05 | 50.86859 | 8.77666 | 47° | 66km/h | 14946m | 3.1m/s | 0°C | 0% | 0hPa | 0V | 00:00:00 | 00:00:00 | 00:00:00 | |
| D01LWL | 2026-08-31 10:04:04 | 50.86892 | 8.77727 | 49° | 68km/h | 14960m | 4.3m/s | -51.9°C | -1.0% | -1.0hPa | 0V | 00:00:00 | 00:00:00 | 00:00:00 | |
| DM0DOS-11 | 2026-08-31 10:04:03 | 50.86837 | 8.77628 | 50° | 64km/h | 14940m | 2.8m/s | 0°C | 0% | 0hPa | 0V | 00:00:00 | 00:00:00 | 00:00:00 | |
| DF8AY | 2026-08-31 10:04:03 | 50.86881 | 8.77706 | 51° | 68km/h | 14957m | 2.9m/s | -51.9°C | 0% | 0hPa | 4.8V | 00:00:00 | 00:00:00 | 00:00:00 | |
| DO3DL | 2026-08-31 10:04:02 | 50.86880 | 8.77706 | 51° | 68km/h | 14957m | 2.9m/s | -51.9°C | 0% | 0hPa | 0V | 00:00:00 | 00:00:00 | 00:00:00 | |
| DL1XH-15 | 2026-08-31 10:04:01 | 50.86818 | 8.77587 | 51° | 64km/h | 14933m | 3.1m/s | 0°C | 0% | 0hPa | 0V | 00:00:00 | 00:00:00 | 00:00:00 | |
| DL1XH-west | 2026-08-31 10:04:01 | 50.86859 | 8.77666 | 48° | 66km/h | 14950m | 3.4m/s | -51.9°C | 0% | 0hPa | 4.8V | 00:00:00 | 00:00:00 | 00:00:00 | |
| DO8TBO-1 | 2026-08-31 10:03:59 | 50.86848 | 8.77647 | 51° | 62km/h | 14943m | 3.8m/s | 0°C | 0% | 0hPa | 4.8V | 00:00:00 | 00:00:00 | 00:00:00 | |
| GOEST3-10 | 2026-08-31 10:03:58 | 50.86837 | 8.77627 | 51° | 66km/h | 14940m | 2.8m/s | 0°C | 0% | 0hPa | 4.8V | 00:00:00 | 00:00:00 | 00:00:00 | |
| AA1-15 | 2026-08-31 10:03:57 | 50.86818 | 8.77587 | 52° | 66km/h | 14936m | 3.9m/s | -51.9°C | 0% | 0hPa | 4.8V | 00:00:00 | 00:00:00 | 00:00:00 | |
| DL1NUX | 2026-08-31 10:03:55 | 50.86752 | 8.77467 | 46° | 64km/h | 14912m | 4.4m/s | 0°C | 0% | 0hPa | 0V | 00:00:00 | 00:00:00 | 00:00:00 | |
| DF8AY | 2026-08-31 10:03:53 | 50.86774 | 8.77506 | 49° | 66km/h | 14923m | 3.2m/s | -51.8°C | 0% | 0hPa | 4.8V | 00:00:00 | 00:00:00 | 00:00:00 | |
| DL1XH-15 | 2026-08-31 10:03:51 | 50.86712 | 8.77396 | 51° | 58km/h | 14897m | 4.2m/s | 0°C | 0% | 0hPa | 0V | 00:00:00 | 00:00:00 | 00:00:00 | |
| DO3MHA-11 | 2026-08-31 10:03:51 | 50.86763 | 8.77486 | 48° | 60km/h | 14916m | 2.9m/s | 0°C | 0% | 0hPa | 4.8V | 00:00:00 | 00:00:00 | 00:00:00 | |
| DO2JMG | 2026-08-31 10:03:50 | 50.86741 | 8.77449 | 47° | 62km/h | 14912m | 4.4m/s | -51.7°C | 0% | 0hPa | 4.8V | 00:00:00 | 00:00:00 | 00:00:00 | |
| DO3DL | 2026-08-31 10:03:49 | 50.86741 | 8.77449 | 48° | 62km/h | 14912m | 4.4m/s | -51.7°C | 0% | 0hPa | 4.8V | 00:00:00 | 00:00:00 | 00:00:00 | |
| SO1NDE-10 | 2026-08-31 10:03:48 | 50.86731 | 8.77431 | 50° | 58km/h | 14905m | 3.9m/s | 0°C | 0% | 0hPa | 4.8V | 00:00:00 | 00:00:00 | 00:00:00 | |
| DF2AP-13 | 2026-08-31 10:03:47 | 50.86721 | 8.77414 | 50° | 58km/h | 14901m | 3.2m/s | 0°C | 0% | 0hPa | 4.8V | 00:00:00 | 00:00:00 | 00:00:00 | |
| AA1-15 | 2026-08-31 10:03:44 | 50.86684 | 8.77341 | 50° | 58km/h | 14890m | 4m/s | -51.5°C | 0% | 0hPa | 4.8V | 00:00:00 | 00:00:00 | 00:00:00 | |
| GOEST3-10 | 2026-08-31 10:03:43 | 50.86684 | 8.77341 | 51° | 60km/h | 14887m | 3.0m/s | 0°C | 0% | 0hPa | 4.8V | 00:00:00 | 00:00:00 | 00:00:00 | |
| DF8AY | 2026-08-31 10:03:42 | 50.86663 | 8.77306 | 47° | 60km/h | 14883m | 4.4m/s | -51.5°C | 0% | 0hPa | 4.8V | 00:00:00 | 00:00:00 | 00:00:00 | |
| DL1XH-15 | 2026-08-31 10:03:41 | 50.86612 | 8.77216 | 51° | 60km/h | 14861m | 3.2m/s | 0°C | 0% | 0hPa | 0V | 00:00:00 | 00:00:00 | 00:00:00 | |
| DO3MHA-11 | 2026-08-31 10:03:41 | 50.86663 | 8.77306 | 47° | 60km/h | 14879m | 3.3m/s | 0°C | 0% | 0hPa | 0V | 00:00:00 | 00:00:00 | 00:00:00 | |
| DM0DOS-11 | 2026-08-31 10:03:39 | 50.86632 | 8.77253 | 46° | 60km/h | 14868m | 4.3m/s | 0°C | 0% | 0hPa | 0V | 00:00:00 | 00:00:00 | 00:00:00 | |
| GOEST3-10 | 2026-08-31 10:03:38 | 50.86632 | 8.77253 | 47° | 60km/h | 14868m | 4.2m/s | 0°C | 0% | 0hPa | 4.8V | 00:00:00 | 00:00:00 | 00:00:00 | |
| DO2JMG | 2026-08-31 10:03:37 | 50.86612 | 8.77216 | 52° | 60km/h | 14865m | 2.8m/s | -51.4°C | 0% | 0hPa | 4.8V | 00:00:00 | 00:00:00 | 00:00:00 | |
| DO3DL | 2026-08-31 10:03:36 | 50.86612 | 8.77216 | 53° | 60km/h | 14865m | 2.8m/s | -51.4°C | 0% | 0hPa | 0V | 00:00:00 | 00:00:00 | 00:00:00 | |
| DL1NUX | 2026-08-31 10:03:35 | 50.86553 | 8.77109 | 46° | 58km/h | 14840m | 3.3m/s | 0°C | 0% | 0hPa | 0V | 00:00:00 | 00:00:00 | 00:00:00 | |
| DD1CC2-15 | 2026-08-31 10:03:34 | 50.86593 | 8.77180 | 50° | 58km/h | 14858m | 3.3m/s | -44.8°C | 0% | 0hPa | 0V | 00:00:00 | 00:00:00 | 00:00:00 | |
| DM0DOS-11 | 2026-08-31 10:03:33 | 50.86534 | 8.77074 | 50° | 58km/h | 14834m | 2.8m/s | 0°C | 0% | 0hPa | 0V | 00:00:00 | 00:00:00 | 00:00:00 | |
| AA1-15 | 2026-08-31 10:03:33 | 50.86574 | 8.77145 | 49° | 60km/h | 14851m | 3.8m/s | -51.2°C | 0% | 0hPa | 4.8V | 00:00:00 | 00:00:00 | 00:00:00 | |
| DF8AY | 2026-08-31 10:03:32 | 50.86553 | 8.77109 | 47° | 58km/h | 14844m | 3.4m/s | -51.2°C | 0% | 0hPa | 4.8V | 00:00:00 | 00:00:00 | 00:00:00 | |
| DO3DL | 2026-08-31 10:03:31 | 50.86553 | 8.77109 | 48° | 58km/h | 14844m | 3.4m/s | -51.2°C | 0% | 0hPa | 4.8V | 00:00:00 | 00:00:00 | 00:00:00 | |
| DL1XH-west | 2026-08-31 10:03:29 | 50.86534 | 8.77074 | 51° | 58km/h | 14837m | 3.7m/s | -51.1°C | 0% | 0hPa | 4.8V | 00:00:00 | 00:00:00 | 00:00:00 | |
| GOEST3-10 | 2026-08-31 10:03:28 | 50.86534 | 8.77074 | 51° | 58km/h | 14834m | 2.8m/s | 0°C | 0% | 0hPa | 0V | 00:00:00 | 00:00:00 | 00:00:00 | |
| DL1XH-15 | 2026-08-31 10:03:27 | 50.86515 | 8.77037 | 52° | 58km/h | 14826m | 3m/s | 0°C | 0% | 0hPa | 0V | 00:00:00 | 00:00:00 | 00:00:00 | |
| DO2JMG | 2026-08-31 10:03:27 | 50.86515 | 8.77037 | 52° | 58km/h | 14830m | 4.1m/s | -51°C | 0% | 0hPa | 4.8V | 00:00:00 | 00:00:00 | 00:00:00 | |
| DJTTGO | 2026-08-31 10:03:26 | 50.86515 | 8.77037 | 53° | 58km/h | 14830m | 4.1m/s | -51.0°C | 0% | 0hPa | 4.8V | 00:00:00 | 00:00:00 | 00:00:00 | |
| GOEST3-10 | 2026-08-31 10:03:23 | 50.86488 | 8.76984 | 54° | 55km/h | 14816m | 3.9m/s | 0°C | 0% | 0hPa | 4.8V | 00:00:00 | 00:00:00 | 00:00:00 | |
| AA1-15 | 2026-08-31 10:03:22 | 50.86472 | 8.76948 | 52° | 53km/h | 14812m | 2.9m/s | -51°C | 0% | 0hPa | 4.8V | 00:00:00 | 00:00:00 | 00:00:00 | |
| DO3MHA-11 | 2026-08-31 10:03:21 | 50.86471 | 8.76948 | 52° | 57km/h | 14809m | 3.4m/s | 0°C | 0% | 0hPa | 4.8V | 00:00:00 | 00:00:00 | 00:00:00 | |
| DF8AY | 2026-08-31 10:03:20 | 50.86455 | 8.76914 | 53° | 57km/h | 14805m | 3.1m/s | -50.9°C | 0% | 0hPa | 4.8V | 00:00:00 | 00:00:00 | 00:00:00 | |
| GOEST3-10 | 2026-08-31 10:03:18 | 50.86446 | 8.76896 | 51° | 57km/h | 14799m | 3.3m/s | 0°C | 0% | 0hPa | 0V | 00:00:00 | 00:00:00 | 00:00:00 | |
| DL1XH-15 | 2026-08-31 10:03:17 | 50.86428 | 8.76861 | 51° | 57km/h | 14792m | 3.2m/s | 0°C | 0% | 0hPa | 0V | 00:00:00 | 00:00:00 | 00:00:00 | |
| DF2AP-13 | 2026-08-31 10:03:17 | 50.86437 | 8.76878 | 51° | 55km/h | 14796m | 3.2m/s | 0°C | 0% | 0hPa | 4.8V | 00:00:00 | 00:00:00 | 00:00:00 | |
| DO2JMG | 2026-08-31 10:03:16 | 50.86419 | 8.76843 | 52° | 57km/h | 14792m | 3.2m/s | -50.9°C | 0% | 0hPa | 4.8V | 00:00:00 | 00:00:00 | 00:00:00 | |
| DD1CC2-15 | 2026-08-31 10:03:14 | 50.86410 | 8.76825 | 53° | 57km/h | 14789m | 3.3m/s | -44.4°C | 0% | 0hPa | 4.8V | 00:00:00 | 00:00:00 | 00:00:00 | |
| AA1-15 | 2026-08-31 10:03:12 | 50.86384 | 8.76774 | 52° | 57km/h | 14779m | 3.1m/s | -50.7°C | 0% | 0hPa | 4.8V | 00:00:00 | 00:00:00 | 00:00:00 | |
| DO3MHA-11 | 2026-08-31 10:03:11 | 50.86384 | 8.76774 | 53° | 57km/h | 14776m | 2.5m/s | 0°C | 0% | 0hPa | 4.8V | 00:00:00 | 00:00:00 | 00:00:00 | |
| DO3DL | 2026-08-31 10:03:10 | 50.86375 | 8.76756 | 53° | 55km/h | 14776m | 2.6m/s | -50.7°C | 0% | 0hPa | 4.8V | 00:00:00 | 00:00:00 | 00:00:00 | |
| DF8AY | 2026-08-31 10:03:09 | 50.86358 | 8.76722 | 51° | 53km/h | 14769m | 2.8m/s | -50.8°C | 0% | 0hPa | 4.8V | 00:00:00 | 00:00:00 | 00:00:00 | |
| DL1XH-15 | 2026-08-31 10:03:07 | 50.86340 | 8.76689 | 48° | 57km/h | 14759m | 3.8m/s | 0°C | 0% | 0hPa | 0V | 00:00:00 | 00:00:00 | 00:00:00 | |
| DL1XH-west | 2026-08-31 10:03:07 | 50.86340 | 8.76689 | 48° | 57km/h | 14763m | 3.2m/s | -50.8°C | 0% | 0hPa | 4.8V | 00:00:00 | 00:00:00 | 00:00:00 | |
| DL3OBA | 2026-08-31 10:03:06 | 50.86340 | 8.76689 | 49° | 57km/h | 14763m | 3.2m/s | -50.8°C | 0% | 0hPa | 0V | 00:00:00 | 00:00:00 | 00:00:00 | |
| DL1NUX | 2026-08-31 10:03:05 | 50.86283 | 8.76586 | 51° | 53km/h | 14738m | 3.6m/s | 0°C | 0% | 0hPa | 0V | 00:00:00 | 00:00:00 | 00:00:00 | |
| DO2JMG | 2026-08-31 10:03:05 | 50.86321 | 8.76655 | 48° | 57km/h | 14756m | 3.2m/s | -50.7°C | 0% | 0hPa | 4.8V | 00:00:00 | 00:00:00 | 00:00:00 | |
| DO3DL | 2026-08-31 10:03:04 | 50.86321 | 8.76655 | 49° | 57km/h | 14756m | 3.2m/s | -50.7°C | 0% | 0hPa | 4.8V | 00:00:00 | 00:00:00 | 00:00:00 | |
| GOEST3-10 | 2026-08-31 10:03:02 | 50.86302 | 8.76621 | 50° | 57km/h | 14745m | 3.7m/s | 0°C | 0% | 0hPa | 4.8V | 00:00:00 | 00:00:00 | 00:00:00 | |
| DO3MHA-11 | 2026-08-31 10:03:01 | 50.86292 | 8.76603 | 52° | 55km/h | 14742m | 3.1m/s | 0°C | 0% | 0hPa | 4.8V | 00:00:00 | 00:00:00 | 00:00:00 | |
| AA1-15 | 2026-08-31 10:02:59 | 50.86267 | 8.76552 | 53° | 55km/h | 14735m | 3.5m/s | -50.4°C | 0% | 0hPa | 4.8V | 00:00:00 | 00:00:00 | 00:00:00 | |
| DL1XH-15 | 2026-08-31 10:02:57 | 50.86250 | 8.76517 | 53° | 55km/h | 14725m | 3m/s | 0°C | 0% | 0hPa | 0V | 00:00:00 | 00:00:00 | 00:00:00 | |
| DL1XH-west | 2026-08-31 10:02:57 | 50.86250 | 8.76517 | 54° | 55km/h | 14729m | 3.7m/s | -50.3°C | 0% | 0hPa | 4.8V | 00:00:00 | 00:00:00 | 00:00:00 | |
| DL1NUX | 2026-08-31 10:02:55 | 50.86197 | 8.76417 | 52° | 53km/h | 14704m | 3.5m/s | 0°C | 0% | 0hPa | 0V | 00:00:00 | 00:00:00 | 00:00:00 | |
| DO2JMG | 2026-08-31 10:02:54 | 50.86225 | 8.76465 | 49° | 57km/h | 14718m | 3.4m/s | -50.3°C | 0% | 0hPa | 4.8V | 00:00:00 | 00:00:00 | 00:00:00 | |
| DO3MHA-11 | 2026-08-31 10:02:51 | 50.86206 | 8.76433 | 49° | 55km/h | 14708m | 2.8m/s | 0°C | 0% | 0hPa | 4.8V | 00:00:00 | 00:00:00 | 00:00:00 | |
| AA1-15 | 2026-08-31 10:02:48 | 50.86173 | 8.76365 | 54° | 55km/h | 14697m | 3.9m/s | -50.2°C | 0% | 0hPa | 4.8V | 00:00:00 | 00:00:00 | 00:00:00 | |
| DL1XH-west | 2026-08-31 10:02:47 | 50.86165 | 8.76348 | 54° | 53km/h | 14694m | 3.4m/s | -50.2°C | 0% | 0hPa | 4.8V | 00:00:00 | 00:00:00 | 00:00:00 | |
| HSKMA3-T | 2026-08-31 10:02:46 | 50.86157 | 8.76331 | 54° | 53km/h | 14690m | 3.3m/s | -50.3°C | 0% | 0hPa | 4.8V | 00:00:00 | 00:00:00 | 00:00:00 | |
| GOEST3-10 | 2026-08-31 10:02:46 | 50.86164 | 8.76348 | 54° | 55km/h | 14690m | 3.2m/s | 0°C | 0% | 0hPa | 0V | 00:00:00 | 00:00:00 | 00:00:00 | |
| DL1NUX | 2026-08-31 10:02:45 | 50.86116 | 8.76244 | 55° | 55km/h | 14670m | 3.3m/s | 0°C | 0% | 0hPa | 0V | 00:00:00 | 00:00:00 | 00:00:00 | |
| DO3DL | 2026-08-31 10:02:44 | 50.86148 | 8.76314 | 54° | 55km/h | 14687m | 3.6m/s | -50.3°C | 0% | 0hPa | 4.8V | 00:00:00 | 00:00:00 | 00:00:00 | |
| DO2JMG | 2026-08-31 10:02:43 | 50.86140 | 8.76296 | 53° | 55km/h | 14683m | 3m/s | -50.4°C | 0% | 0hPa | 4.8V | 00:00:00 | 00:00:00 | 00:00:00 | |
| DO3MHA-11 | 2026-08-31 10:02:41 | 50.86124 | 8.76262 | 56° | 55km/h | 14673m | 3.5m/s | 0°C | 0% | 0hPa | 4.8V | 00:00:00 | 00:00:00 | 00:00:00 | |
| DO3DL | 2026-08-31 10:02:39 | 50.86101 | 8.76209 | 57° | 51km/h | 14666m | 3.2m/s | -50.3°C | 0% | 0hPa | 4.8V | 00:00:00 | 00:00:00 | 00:00:00 | |
| AA1-15 | 2026-08-31 10:02:37 | 50.86093 | 8.76192 | 56° | 51km/h | 14663m | 3.1m/s | -50.3°C | 0% | 0hPa | 4.8V | 00:00:00 | 00:00:00 | 00:00:00 | |
| DF8AY | 2026-08-31 10:02:37 | 50.86086 | 8.76174 | 55° | 55km/h | 14660m | 3.6m/s | -50.3°C | 0% | 0hPa | 4.8V | 00:00:00 | 00:00:00 | 00:00:00 | |
| DL1NUX | 2026-08-31 10:02:36 | 50.86036 | 8.76068 | 54° | 55km/h | 14636m | 3m/s | 0°C | 0% | 0hPa | 0V | 00:00:00 | 00:00:00 | 00:00:00 | |
| BIOWL1-15 | 2026-08-31 10:02:35 | 50.86069 | 8.76138 | 54° | 55km/h | 14653m | 3.9m/s | -50.3°C | 0% | 0hPa | 5.3V | 00:00:00 | 00:00:00 | 00:00:00 | |
| DO2JMG | 2026-08-31 10:02:33 | 50.86053 | 8.76103 | 53° | 55km/h | 14646m | 4.1m/s | -50.2°C | 0% | 0hPa | 4.8V | 00:00:00 | 00:00:00 | 00:00:00 | |
| DL1XH-15 | 2026-08-31 10:02:31 | 50.86007 | 8.75993 | 58° | 57km/h | 14622m | 4m/s | 0°C | 0% | 0hPa | 0V | 00:00:00 | 00:00:00 | 00:00:00 | |
| DO8TBO-1 | 2026-08-31 10:02:29 | 50.86029 | 8.76049 | 59° | 53km/h | 14633m | 3.2m/s | 0°C | 0% | 0hPa | 4.8V | 00:00:00 | 00:00:00 | 00:00:00 | |
| AA1-15 | 2026-08-31 10:02:26 | 50.86000 | 8.75974 | 59° | 57km/h | 14622m | 4m/s | -49.9°C | 0% | 0hPa | 4.8V | 00:00:00 | 00:00:00 | 00:00:00 | |
| GOEST3-10 | 2026-08-31 10:02:25 | 50.86000 | 8.75974 | 59° | 55km/h | 14619m | 3.0m/s | 0°C | 0% | 0hPa | 4.8V | 00:00:00 | 00:00:00 | 00:00:00 | |
| HSKMA3-T | 2026-08-31 10:02:24 | 50.85985 | 8.75937 | 57° | 55km/h | 14615m | 4.1m/s | -49.8°C | 0% | 0hPa | 4.8V | 00:00:00 | 00:00:00 | 00:00:00 | |
| DO2JMG | 2026-08-31 10:02:22 | 50.85970 | 8.75902 | 56° | 53km/h | 14608m | 3.8m/s | -49.8°C | 0% | 0hPa | 4.8V | 00:00:00 | 00:00:00 | 00:00:00 | |
| DL1XH-15 | 2026-08-31 10:02:21 | 50.85934 | 8.75810 | 61° | 53km/h | 14587m | 3.5m/s | 0°C | 0% | 0hPa | 0V | 00:00:00 | 00:00:00 | 00:00:00 | |
| DO3MHA-11 | 2026-08-31 10:02:21 | 50.85969 | 8.75901 | 57° | 53km/h | 14605m | 2.8m/s | 0°C | 0% | 0hPa | 4.8V | 00:00:00 | 00:00:00 | 00:00:00 | |
| GOEST3-10 | 2026-08-31 10:02:20 | 50.85962 | 8.75884 | 59° | 53km/h | 14601m | 3.8m/s | 0°C | 0% | 0hPa | 4.8V | 00:00:00 | 00:00:00 | 00:00:00 | |
| DO3DL | 2026-08-31 10:02:19 | 50.85955 | 8.75866 | 59° | 53km/h | 14601m | 3.9m/s | -49.7°C | 0% | 0hPa | 4.8V | 00:00:00 | 00:00:00 | 00:00:00 | |
| SO1NDE-10 | 2026-08-31 10:02:18 | 50.85948 | 8.75848 | 61° | 51km/h | 14594m | 3.7m/s | 0°C | 0% | 0hPa | 4.8V | 00:00:00 | 00:00:00 | 00:00:00 | |
| DF2AP-13 | 2026-08-31 10:02:17 | 50.85941 | 8.75829 | 61° | 51km/h | 14591m | 3.1m/s | 0°C | 0% | 0hPa | 4.8V | 00:00:00 | 00:00:00 | 00:00:00 | |
| AA1-15 | 2026-08-31 10:02:15 | 50.85928 | 8.75791 | 61° | 55km/h | 14587m | 3.5m/s | -49.5°C | 0% | 0hPa | 4.8V | 00:00:00 | 00:00:00 | 00:00:00 | |
| GOEST3-10 | 2026-08-31 10:02:15 | 50.85928 | 8.75791 | 61° | 51km/h | 14577m | 3.6m/s | 0°C | 0% | 0hPa | 4.8V | 00:00:00 | 00:00:00 | 00:00:00 | |
| DL1NUX | 2026-08-31 10:02:15 | 50.85892 | 8.75703 | 54° | 51km/h | 14554m | 2.1m/s | 0°C | 0% | 0hPa | 0V | 00:00:00 | 00:00:00 | 00:00:00 | |
| HSKMA3-T | 2026-08-31 10:02:13 | 50.85906 | 8.75736 | 57° | 51km/h | 14577m | 3.6m/s | -49.5°C | 0% | 0hPa | 4.8V | 00:00:00 | 00:00:00 | 00:00:00 | |
| DD1CC2-15 | 2026-08-31 10:02:12 | 50.85906 | 8.75736 | 58° | 51km/h | 14577m | 3.7m/s | -43.0°C | 0% | 0hPa | 0V | 00:00:00 | 00:00:00 | 00:00:00 | |
| DL1XH-15 | 2026-08-31 10:02:11 | 50.85865 | 8.75635 | 59° | 53km/h | 14550m | 3.7m/s | 0°C | 0% | 0hPa | 0V | 00:00:00 | 00:00:00 | 00:00:00 | |
| DO2JMG | 2026-08-31 10:02:11 | 50.85892 | 8.75703 | 55° | 51km/h | 14570m | 3.5m/s | -49.5°C | 0% | 0hPa | 4.8V | 00:00:00 | 00:00:00 | 00:00:00 | |
| GOEST3-10 | 2026-08-31 10:02:09 | 50.85885 | 8.75686 | 58° | 53km/h | 14560m | 3.0m/s | 0°C | 0% | 0hPa | 4.8V | 00:00:00 | 00:00:00 | 00:00:00 | |
| DO3DL | 2026-08-31 10:02:06 | 50.85864 | 8.75635 | 60° | 53km/h | 14557m | 3.9m/s | -49.6°C | 0% | 0hPa | 4.8V | 00:00:00 | 00:00:00 | 00:00:00 | |
| DL3OBA | 2026-08-31 10:02:05 | 50.85858 | 8.75616 | 61° | 55km/h | 14554m | 2.1m/s | -49.5°C | 0% | 0hPa | 4.8V | 00:00:00 | 00:00:00 | 00:00:00 | |
| AA1-15 | 2026-08-31 10:02:04 | 50.85851 | 8.75598 | 60° | 53km/h | 14551m | 3.7m/s | -49.5°C | 0% | 0hPa | 4.8V | 00:00:00 | 00:00:00 | 00:00:00 | |
| GOEST3-10 | 2026-08-31 10:02:04 | 50.85851 | 8.75598 | 61° | 51km/h | 14544m | 3.1m/s | 0°C | 0% | 0hPa | 4.8V | 00:00:00 | 00:00:00 | 00:00:00 | |
| DL1XH-west | 2026-08-31 10:02:02 | 50.85838 | 8.75562 | 59° | 51km/h | 14544m | 3.2m/s | -49.4°C | 0% | 0hPa | 4.8V | 00:00:00 | 00:00:00 | 00:00:00 | |
| DO3MHA-11 | 2026-08-31 10:02:01 | 50.85831 | 8.75545 | 57° | 51km/h | 14537m | 3.0m/s | 0°C | 0% | 0hPa | 4.8V | 00:00:00 | 00:00:00 | 00:00:00 | |
| DO2JMG | 2026-08-31 10:02:00 | 50.85824 | 8.75528 | 55° | 51km/h | 14537m | 3m/s | -49.4°C | 0% | 0hPa | 4.8V | 00:00:00 | 00:00:00 | 00:00:00 | |
| DO8TBO-1 | 2026-08-31 10:01:59 | 50.85817 | 8.75512 | 56° | 55km/h | 14530m | 2.6m/s | 0°C | 0% | 0hPa | 0V | 00:00:00 | 00:00:00 | 00:00:00 | |
| DL1NUX | 2026-08-31 10:01:58 | 50.85789 | 8.75444 | 58° | 51km/h | 14516m | 3.3m/s | 0°C | 0% | 0hPa | 0V | 00:00:00 | 00:00:00 | 00:00:00 | |
| AA1-15 | 2026-08-31 10:01:54 | 50.85775 | 8.75410 | 58° | 51km/h | 14513m | 3.7m/s | -49.3°C | 0% | 0hPa | 4.8V | 00:00:00 | 00:00:00 | 00:00:00 | |
| DO3DL | 2026-08-31 10:01:53 | 50.85775 | 8.75410 | 59° | 51km/h | 14513m | 3.7m/s | -49.3°C | 0% | 0hPa | 4.8V | 00:00:00 | 00:00:00 | 00:00:00 | |
| HSKMA3-T | 2026-08-31 10:01:52 | 50.85762 | 8.75375 | 58° | 51km/h | 14506m | 3.5m/s | -49.3°C | 0% | 0hPa | 4.8V | 00:00:00 | 00:00:00 | 00:00:00 | |
| DO3MHA-11 | 2026-08-31 10:01:51 | 50.85762 | 8.75375 | 59° | 51km/h | 14502m | 3.2m/s | 0°C | 0% | 0hPa | 4.8V | 00:00:00 | 00:00:00 | 00:00:00 | |
| DO2JMG | 2026-08-31 10:01:49 | 50.85749 | 8.75342 | 59° | 49km/h | 14499m | 3.4m/s | -49.3°C | 0% | 0hPa | 4.8V | 00:00:00 | 00:00:00 | 00:00:00 | |
| DL1NUX | 2026-08-31 10:01:48 | 50.85724 | 8.75274 | 61° | 49km/h | 14482m | 4m/s | 0°C | 0% | 0hPa | 0V | 00:00:00 | 00:00:00 | 00:00:00 | |
| SO1NDE-10 | 2026-08-31 10:01:48 | 50.85742 | 8.75325 | 60° | 58km/h | 14492m | 3.0m/s | 0°C | 0% | 0hPa | 4.8V | 00:00:00 | 00:00:00 | 00:00:00 | |
| DF2AP-13 | 2026-08-31 10:01:47 | 50.85736 | 8.75307 | 61° | 57km/h | 14488m | 3.3m/s | 0°C | 0% | 0hPa | 4.8V | 00:00:00 | 00:00:00 | 00:00:00 | |
| DO3DL | 2026-08-31 10:01:46 | 50.85730 | 8.75290 | 63° | 49km/h | 14488m | 3.4m/s | -49.3°C | 0% | 0hPa | 4.8V | 00:00:00 | 00:00:00 | 00:00:00 | |
| DL3OBA | 2026-08-31 10:01:44 | 50.85718 | 8.75254 | 63° | 53km/h | 14482m | 4.0m/s | -49.3°C | 0% | 0hPa | 4.8V | 00:00:00 | 00:00:00 | 00:00:00 | |
| AA1-15 | 2026-08-31 10:01:43 | 50.85704 | 8.75215 | 62° | 57km/h | 14474m | 4m/s | -49.3°C | 0% | 0hPa | 4.8V | 00:00:00 | 00:00:00 | 00:00:00 | |
| GOEST3-10 | 2026-08-31 10:01:42 | 50.85704 | 8.75215 | 63° | 57km/h | 14471m | 2.5m/s | 0°C | 0% | 0hPa | 4.8V | 00:00:00 | 00:00:00 | 00:00:00 | |
| HSKMA3-T | 2026-08-31 10:01:41 | 50.85691 | 8.75175 | 61° | 58km/h | 14467m | 3.9m/s | -49.3°C | 0% | 0hPa | 4.8V | 00:00:00 | 00:00:00 | 00:00:00 | |
| DO3DL | 2026-08-31 10:01:40 | 50.85691 | 8.75175 | 62° | 58km/h | 14467m | 3.9m/s | -49.3°C | 0% | 0hPa | 4.8V | 00:00:00 | 00:00:00 | 00:00:00 | |
| DO2JMG | 2026-08-31 10:01:39 | 50.85684 | 8.75155 | 60° | 58km/h | 14464m | 2.8m/s | -49.3°C | 0% | 0hPa | 4.8V | 00:00:00 | 00:00:00 | 00:00:00 | |
| DL1NUX | 2026-08-31 10:01:38 | 50.85654 | 8.75076 | 58° | 57km/h | 14447m | 4m/s | 0°C | 0% | 0hPa | 0V | 00:00:00 | 00:00:00 | 00:00:00 | |
| GOEST3-10 | 2026-08-31 10:01:37 | 50.85669 | 8.75115 | 59° | 57km/h | 14454m | 3.7m/s | 0°C | 0% | 0hPa | 4.8V | 00:00:00 | 00:00:00 | 00:00:00 | |
| AA1-15 | 2026-08-31 10:01:33 | 50.85632 | 8.75017 | 60° | 57km/h | 14441m | 3.8m/s | -49.3°C | 0% | 0hPa | 4.8V | 00:00:00 | 00:00:00 | 00:00:00 | |
| GOEST3-10 | 2026-08-31 10:01:32 | 50.85632 | 8.75017 | 61° | 58km/h | 14428m | 2.8m/s | 0°C | 0% | 0hPa | 0V | 00:00:00 | 00:00:00 | 00:00:00 | |
| DO3MHA-11 | 2026-08-31 10:01:31 | 50.85625 | 8.74997 | 59° | 58km/h | 14434m | 3.2m/s | 0°C | 0% | 0hPa | 0V | 00:00:00 | 00:00:00 | 00:00:00 | |
| DL1XH-15 | 2026-08-31 10:01:30 | 50.85575 | 8.74881 | 54° | 57km/h | 14414m | 2.2m/s | 0°C | 0% | 0hPa | 0V | 00:00:00 | 00:00:00 | 00:00:00 | |
| HSKMA3-T | 2026-08-31 10:01:30 | 50.85609 | 8.74957 | 58° | 58km/h | 14431m | 3m/s | -49.2°C | 0% | 0hPa | 4.8V | 00:00:00 | 00:00:00 | 00:00:00 | |
| DO8TBO-1 | 2026-08-31 10:01:29 | 50.85609 | 8.74957 | 58° | 62km/h | 14428m | 2.8m/s | 0°C | 0% | 0hPa | 0V | 00:00:00 | 00:00:00 | 00:00:00 | |
| DL1NUX | 2026-08-31 10:01:28 | 50.85567 | 8.74863 | 55° | 58km/h | 14414m | 2.2m/s | 0°C | 0% | 0hPa | 0V | 00:00:00 | 00:00:00 | 00:00:00 | |
| DO3DL | 2026-08-31 10:01:27 | 50.85592 | 8.74919 | 54° | 58km/h | 14424m | 4.0m/s | -49.2°C | 0% | 0hPa | 4.8V | 00:00:00 | 00:00:00 | 00:00:00 | |
| GOEST3-10 | 2026-08-31 10:01:26 | 50.85584 | 8.74900 | 55° | 58km/h | 14417m | 3.5m/s | 0°C | 0% | 0hPa | 4.8V | 00:00:00 | 00:00:00 | 00:00:00 | |
| DL3OBA | 2026-08-31 10:01:24 | 50.85567 | 8.74863 | 56° | 57km/h | 14414m | 2.2m/s | -49.2°C | 0% | 0hPa | 4.8V | 00:00:00 | 00:00:00 | 00:00:00 | |
| AA1-15 | 2026-08-31 10:01:22 | 50.85540 | 8.74805 | 53° | 64km/h | 14404m | 2.9m/s | -49.2°C | 0% | 0hPa | 4.8V | 00:00:00 | 00:00:00 | 00:00:00 | |
| DO3MHA-11 | 2026-08-31 10:01:21 | 50.85540 | 8.74805 | 54° | 62km/h | 14401m | 3.4m/s | 0°C | 0% | 0hPa | 4.8V | 00:00:00 | 00:00:00 | 00:00:00 | |
| DO3DL | 2026-08-31 10:01:20 | 50.85530 | 8.74785 | 56° | 64km/h | 14401m | 3.5m/s | -49.2°C | 0% | 0hPa | 4.8V | 00:00:00 | 00:00:00 | 00:00:00 | |
| DL1XH-west | 2026-08-31 10:01:19 | 50.85521 | 8.74764 | 55° | 64km/h | 14398m | 2.8m/s | -49.1°C | 0% | 0hPa | 4.8V | 00:00:00 | 00:00:00 | 00:00:00 | |
| DL1NUX | 2026-08-31 10:01:18 | 50.85474 | 8.74664 | 49° | 62km/h | 14378m | 2.8m/s | 0°C | 0% | 0hPa | 0V | 00:00:00 | 00:00:00 | 00:00:00 | |
| DO2JMG | 2026-08-31 10:01:17 | 50.85493 | 8.74703 | 54° | 62km/h | 14388m | 3.6m/s | -49.2°C | 0% | 0hPa | 4.8V | 00:00:00 | 00:00:00 | 00:00:00 | |
| NBG1-10 | 2026-08-31 10:01:16 | 50.85493 | 8.74703 | 54° | 78km/h | 14385m | 3.2m/s | 0°C | 0% | 0hPa | 4.8V | 00:00:00 | 00:00:00 | 00:00:00 | |
| DO3DL | 2026-08-31 10:01:14 | 50.85473 | 8.74664 | 50° | 62km/h | 14381m | 3.4m/s | -49.1°C | 0% | 0hPa | 4.8V | 00:00:00 | 00:00:00 | 00:00:00 | |
| DO3MHA-11 | 2026-08-31 10:01:11 | 50.85442 | 8.74608 | 48° | 64km/h | 14368m | 3.5m/s | 0°C | 0% | 0hPa | 4.8V | 00:00:00 | 00:00:00 | 00:00:00 | |
| AA1-15 | 2026-08-31 10:01:11 | 50.85431 | 8.74589 | 48° | 66km/h | 14368m | 3.6m/s | -49°C | 0% | 0hPa | 4.8V | 00:00:00 | 00:00:00 | 00:00:00 | |
| GOEST3-10 | 2026-08-31 10:01:10 | 50.85431 | 8.74589 | 48° | 64km/h | 14365m | 3.3m/s | 0°C | 0% | 0hPa | 4.8V | 00:00:00 | 00:00:00 | 00:00:00 | |
| HSKMA3-T | 2026-08-31 10:01:09 | 50.85409 | 8.74550 | 47° | 66km/h | 14361m | 3.2m/s | -49°C | 0% | 0hPa | 4.8V | 00:00:00 | 00:00:00 | 00:00:00 | |
| DL1NUX | 2026-08-31 10:01:08 | 50.85368 | 8.74474 | 48° | 64km/h | 14345m | 3.5m/s | 0°C | 0% | 0hPa | 0V | 00:00:00 | 00:00:00 | 00:00:00 | |
| DO3DL | 2026-08-31 10:01:08 | 50.85398 | 8.74531 | 51° | 64km/h | 14358m | 3.6m/s | -49.1°C | 0% | 0hPa | 4.8V | 00:00:00 | 00:00:00 | 00:00:00 | |
| DO2JMG | 2026-08-31 10:01:07 | 50.85388 | 8.74512 | 51° | 62km/h | 14355m | 2.4m/s | -49.1°C | 0% | 0hPa | 4.8V | 00:00:00 | 00:00:00 | 00:00:00 | |
| GOEST3-10 | 2026-08-31 10:01:05 | 50.85378 | 8.74493 | 51° | 66km/h | 14341m | 3.5m/s | 0°C | 0% | 0hPa | 4.8V | 00:00:00 | 00:00:00 | 00:00:00 | |
| DO3DL | 2026-08-31 10:01:02 | 50.85334 | 8.74415 | 48° | 68km/h | 14338m | 3.3m/s | -49.1°C | 0% | 0hPa | 4.8V | 00:00:00 | 00:00:00 | 00:00:00 | |
| DO3MHA-11 | 2026-08-31 10:01:01 | 50.85334 | 8.74415 | 47° | 66km/h | 14335m | 3.3m/s | 0°C | 0% | 0hPa | 4.8V | 00:00:00 | 00:00:00 | 00:00:00 | |
| AA1-15 | 2026-08-31 10:01:00 | 50.85310 | 8.74377 | 46° | 68km/h | 14331m | 3m/s | -49°C | 0% | 0hPa | 4.8V | 00:00:00 | 00:00:00 | 00:00:00 | |
| DO8TBO-1 | 2026-08-31 10:00:59 | 50.85310 | 8.74377 | 47° | 66km/h | 14328m | 3.2m/s | 0°C | 0% | 0hPa | 4.8V | 00:00:00 | 00:00:00 | 00:00:00 | |
| HSKMA3-T | 2026-08-31 10:00:58 | 50.85288 | 8.74337 | 50° | 66km/h | 14325m | 2.6m/s | -49°C | 0% | 0hPa | 4.8V | 00:00:00 | 00:00:00 | 00:00:00 | |
| DL1XH-15 | 2026-08-31 10:00:57 | 50.85266 | 8.74297 | 49° | 64km/h | 14316m | 3.8m/s | 0°C | 0% | 0hPa | 0V | 00:00:00 | 00:00:00 | 00:00:00 | |
| DO2JMG | 2026-08-31 10:00:56 | 50.85267 | 8.74297 | 49° | 64km/h | 14319m | 2.8m/s | -48.9°C | 0% | 0hPa | 4.8V | 00:00:00 | 00:00:00 | 00:00:00 | |
| DO3DL | 2026-08-31 10:00:55 | 50.85266 | 8.74297 | 50° | 64km/h | 14319m | 2.8m/s | -48.9°C | 0% | 0hPa | 4.8V | 00:00:00 | 00:00:00 | 00:00:00 | |
| GOEST3-10 | 2026-08-31 10:00:54 | 50.85256 | 8.74276 | 50° | 66km/h | 14309m | 3.6m/s | 0°C | 0% | 0hPa | 4.8V | 00:00:00 | 00:00:00 | 00:00:00 | |
| DO3MHA-11 | 2026-08-31 10:00:51 | 50.85223 | 8.74217 | 48° | 64km/h | 14303m | 2.5m/s | 0°C | 0% | 0hPa | 4.8V | 00:00:00 | 00:00:00 | 00:00:00 | |
| DD1CC2-15 | 2026-08-31 10:00:50 | 50.85212 | 8.74198 | 48° | 66km/h | 14303m | 2.5m/s | -42.5°C | 0% | 0hPa | 4.8V | 00:00:00 | 00:00:00 | 00:00:00 | |
| AA1-15 | 2026-08-31 10:00:49 | 50.85190 | 8.74159 | 50° | 66km/h | 14296m | 3.2m/s | -49°C | 0% | 0hPa | 4.8V | 00:00:00 | 00:00:00 | 00:00:00 | |
| DO3DL | 2026-08-31 10:00:49 | 50.85190 | 8.74159 | 51° | 66km/h | 14296m | 3.2m/s | -49.0°C | 0% | 0hPa | 0V | 00:00:00 | 00:00:00 | 00:00:00 | |
| DL1NUX | 2026-08-31 10:00:48 | 50.85148 | 8.74082 | 51° | 64km/h | 14280m | 3.1m/s | 0°C | 0% | 0hPa | 0V | 00:00:00 | 00:00:00 | 00:00:00 | |
| HSKMA3-T | 2026-08-31 10:00:47 | 50.85169 | 8.74120 | 49° | 62km/h | 14290m | 3.1m/s | -49°C | 0% | 0hPa | 4.8V | 00:00:00 | 00:00:00 | 00:00:00 | |
| DJTTGO | 2026-08-31 10:00:45 | 50.85158 | 8.74101 | 50° | 62km/h | 14287m | 2.9m/s | -49.0°C | 0% | 0hPa | 4.8V | 00:00:00 | 00:00:00 | 00:00:00 | |
| DO2JMG | 2026-08-31 10:00:44 | 50.85138 | 8.74061 | 53° | 66km/h | 14280m | 3.1m/s | -49°C | 0% | 0hPa | 4.8V | 00:00:00 | 00:00:00 | 00:00:00 | |
| GOEST3-10 | 2026-08-31 10:00:43 | 50.85139 | 8.74061 | 53° | 68km/h | 14280m | 3.0m/s | 0°C | 0% | 0hPa | 4.8V | 00:00:00 | 00:00:00 | 00:00:00 | |
| DO3DL | 2026-08-31 10:00:42 | 50.85128 | 8.74040 | 53° | 66km/h | 14276m | 4.1m/s | -49.0°C | 0% | 0hPa | 4.8V | 00:00:00 | 00:00:00 | 00:00:00 | |
| DO3MHA-11 | 2026-08-31 10:00:41 | 50.85118 | 8.74021 | 51° | 69km/h | 14269m | 3.4m/s | 0°C | 0% | 0hPa | 4.8V | 00:00:00 | 00:00:00 | 00:00:00 | |
| AA1-15 | 2026-08-31 10:00:38 | 50.85086 | 8.73956 | 53° | 69km/h | 14262m | 3.2m/s | -49.1°C | 0% | 0hPa | 4.8V | 00:00:00 | 00:00:00 | 00:00:00 | |
| GOEST3-10 | 2026-08-31 10:00:38 | 50.85086 | 8.73956 | 53° | 69km/h | 14259m | 3.2m/s | 0°C | 0% | 0hPa | 0V | 00:00:00 | 00:00:00 | 00:00:00 | |
| DM0DOS-11 | 2026-08-31 10:00:37 | 50.85027 | 8.73819 | 56° | 68km/h | 14239m | 3.9m/s | 0°C | 0% | 0hPa | 0V | 00:00:00 | 00:00:00 | 00:00:00 | |
| DL1XH-west | 2026-08-31 10:00:37 | 50.85065 | 8.73912 | 55° | 69km/h | 14255m | 3.4m/s | -49.1°C | 0% | 0hPa | 4.8V | 00:00:00 | 00:00:00 | 00:00:00 | |
| HSKMA3-T | 2026-08-31 10:00:36 | 50.85055 | 8.73888 | 57° | 71km/h | 14252m | 3.4m/s | -49.1°C | 0% | 0hPa | 4.8V | 00:00:00 | 00:00:00 | 00:00:00 | |
| DO3DL | 2026-08-31 10:00:35 | 50.85055 | 8.73888 | 58° | 71km/h | 14252m | 3.4m/s | -49.1°C | 0% | 0hPa | 0V | 00:00:00 | 00:00:00 | 00:00:00 | |
| GOEST3-10 | 2026-08-31 10:00:33 | 50.85036 | 8.73841 | 58° | 68km/h | 14243m | 2.8m/s | 0°C | 0% | 0hPa | 0V | 00:00:00 | 00:00:00 | 00:00:00 | |
| DO3MHA-11 | 2026-08-31 10:00:31 | 50.85018 | 8.73796 | 57° | 68km/h | 14236m | 2.7m/s | 0°C | 0% | 0hPa | 0V | 00:00:00 | 00:00:00 | 00:00:00 | |
| DL1XH-15 | 2026-08-31 10:00:30 | 50.84960 | 8.73662 | 56° | 69km/h | 14215m | 3.8m/s | 0°C | 0% | 0hPa | 0V | 00:00:00 | 00:00:00 | 00:00:00 | |
| DO2JMG | 2026-08-31 10:00:30 | 50.84999 | 8.73751 | 56° | 68km/h | 14233m | 3.1m/s | -49.1°C | 0% | 0hPa | 4.8V | 00:00:00 | 00:00:00 | 00:00:00 | |
| DO8TBO-1 | 2026-08-31 10:00:29 | 50.84999 | 8.73751 | 57° | 69km/h | 14230m | 3.3m/s | 0°C | 0% | 0hPa | 4.8V | 00:00:00 | 00:00:00 | 00:00:00 | |
| AA1-15 | 2026-08-31 10:00:28 | 50.84980 | 8.73707 | 55° | 66km/h | 14226m | 2.9m/s | -49.2°C | 0% | 0hPa | 4.8V | 00:00:00 | 00:00:00 | 00:00:00 | |
| DM0DOS-11 | 2026-08-31 10:00:27 | 50.84931 | 8.73595 | 55° | 68km/h | 14205m | 3.5m/s | 0°C | 0% | 0hPa | 0V | 00:00:00 | 00:00:00 | 00:00:00 | |
| HSKMA3-T | 2026-08-31 10:00:26 | 50.84960 | 8.73662 | 56° | 69km/h | 14219m | 2.9m/s | -49.2°C | 0% | 0hPa | 4.8V | 00:00:00 | 00:00:00 | 00:00:00 | |
| DL3OBA | 2026-08-31 10:00:23 | 50.84931 | 8.73595 | 57° | 68km/h | 14209m | 3.3m/s | -49.2°C | 0% | 0hPa | 4.8V | 00:00:00 | 00:00:00 | 00:00:00 | |
| DO3DL | 2026-08-31 10:00:22 | 50.84931 | 8.73595 | 57° | 68km/h | 14209m | 3.3m/s | -49.2°C | 0% | 0hPa | 4.8V | 00:00:00 | 00:00:00 | 00:00:00 | |
| DO3MHA-11 | 2026-08-31 10:00:21 | 50.84922 | 8.73572 | 57° | 69km/h | 14202m | 3.7m/s | 0°C | 0% | 0hPa | 4.8V | 00:00:00 | 00:00:00 | 00:00:00 | |
| DO2JMG | 2026-08-31 10:00:19 | 50.84894 | 8.73505 | 58° | 68km/h | 14195m | 3.4m/s | -49.2°C | 0% | 0hPa | 4.8V | 00:00:00 | 00:00:00 | 00:00:00 | |
| DL1NUX | 2026-08-31 10:00:18 | 50.84856 | 8.73408 | 59° | 69km/h | 14179m | 3m/s | 0°C | 0% | 0hPa | 0V | 00:00:00 | 00:00:00 | 00:00:00 | |
| AA1-15 | 2026-08-31 10:00:18 | 50.84885 | 8.73481 | 58° | 69km/h | 14191m | 3.3m/s | -49.2°C | 0% | 0hPa | 4.8V | 00:00:00 | 00:00:00 | 00:00:00 | |
| DF8AY | 2026-08-31 10:00:17 | 50.84875 | 8.73457 | 58° | 73km/h | 14188m | 2m/s | -49.2°C | 0% | 0hPa | 4.8V | 00:00:00 | 00:00:00 | 00:00:00 | |
| DF2AP-13 | 2026-08-31 10:00:17 | 50.84885 | 8.73481 | 59° | 75km/h | 14189m | 2.0m/s | 0°C | 0% | 0hPa | 4.8V | 00:00:00 | 00:00:00 | 00:00:00 | |
| DO3DL | 2026-08-31 10:00:16 | 50.84875 | 8.73457 | 59° | 73km/h | 14189m | 2.0m/s | -49.2°C | 0% | 0hPa | 4.8V | 00:00:00 | 00:00:00 | 00:00:00 | |
| HSKMA3-T | 2026-08-31 10:00:15 | 50.84856 | 8.73408 | 60° | 69km/h | 14182m | 2.9m/s | -49.2°C | 0% | 0hPa | 4.8V | 00:00:00 | 00:00:00 | 00:00:00 | |
| DM0DOS-11 | 2026-08-31 10:00:14 | 50.84838 | 8.73359 | 59° | 73km/h | 14172m | 2.8m/s | 0°C | 0% | 0hPa | 0V | 00:00:00 | 00:00:00 | 00:00:00 | |
| GOEST3-10 | 2026-08-31 10:00:13 | 50.84847 | 8.73384 | 60° | 71km/h | 14176m | 3.3m/s | 0°C | 0% | 0hPa | 0V | 00:00:00 | 00:00:00 | 00:00:00 | |
| THATR2-17 | 2026-08-31 10:00:12 | 50.84578 | 8.72545 | 59° | 77km/h | 14078m | 0m/s | 0°C | 0% | 0hPa | 0V | 00:00:00 | 00:00:00 | 00:00:00 | |
| DO3MHA-11 | 2026-08-31 10:00:11 | 50.84829 | 8.73334 | 60° | 73km/h | 14169m | 3.5m/s | 0°C | 0% | 0hPa | 0V | 00:00:00 | 00:00:00 | 00:00:00 | |
| DL1XH-15 | 2026-08-31 10:00:10 | 50.84773 | 8.73186 | 62° | 71km/h | 14143m | 2.8m/s | 0°C | 0% | 0hPa | 0V | 00:00:00 | 00:00:00 | 00:00:00 | |
| DO3DL | 2026-08-31 10:00:10 | 50.84810 | 8.73285 | 60° | 71km/h | 14166m | 2.8m/s | -49.2°C | 0% | 0hPa | 4.8V | 00:00:00 | 00:00:00 | 00:00:00 | |
| DD1CC2-15 | 2026-08-31 10:00:09 | 50.84810 | 8.73285 | 60° | 71km/h | 14166m | 2.8m/s | -42.7°C | 0% | 0hPa | 4.8V | 00:00:00 | 00:00:00 | 00:00:00 | |
| GOEST3-10 | 2026-08-31 10:00:08 | 50.84801 | 8.73261 | 58° | 73km/h | 14159m | 2.9m/s | 0°C | 0% | 0hPa | 4.8V | 00:00:00 | 00:00:00 | 00:00:00 | |
| AA1-15 | 2026-08-31 10:00:06 | 50.84773 | 8.73186 | 62° | 71km/h | 14153m | 3.3m/s | -49.2°C | 0% | 0hPa | 4.8V | 00:00:00 | 00:00:00 | 00:00:00 | |
| DJTTGO | 2026-08-31 10:00:05 | 50.84773 | 8.73186 | 63° | 71km/h | 14153m | 3.3m/s | -49.2°C | 0% | 0hPa | 4.8V | 00:00:00 | 00:00:00 | 00:00:00 | |
| HSKMA3-T | 2026-08-31 10:00:04 | 50.84757 | 8.73133 | 64° | 75km/h | 14146m | 3.7m/s | -49.2°C | 0% | 0hPa | 4.8V | 00:00:00 | 00:00:00 | 00:00:00 | |
| DO2JMG | 2026-08-31 10:00:02 | 50.84740 | 8.73077 | 66° | 78km/h | 14140m | 3.6m/s | -49.2°C | 0% | 0hPa | 4.8V | 00:00:00 | 00:00:00 | 00:00:00 | |
| DO3MHA-11 | 2026-08-31 10:00:01 | 50.84740 | 8.73077 | 66° | 77km/h | 14137m | 2.9m/s | 0°C | 0% | 0hPa | 0V | 00:00:00 | 00:00:00 | 00:00:00 | |
| DL1XH-15 | 2026-08-31 10:00:00 | 50.84691 | 8.72911 | 64° | 77km/h | 14117m | 3.7m/s | 0°C | 0% | 0hPa | 0V | 00:00:00 | 00:00:00 | 00:00:00 | |
| DO8TBO-1 | 2026-08-31 09:59:59 | 50.84725 | 8.73021 | 67° | 78km/h | 14121m | 2.6m/s | 0°C | 0% | 0hPa | 4.8V | 00:00:00 | 00:00:00 | 00:00:00 | |
| GOEST3-10 | 2026-08-31 09:59:58 | 50.84717 | 8.72993 | 63° | 77km/h | 14127m | 2.5m/s | 0°C | 0% | 0hPa | 4.8V | 00:00:00 | 00:00:00 | 00:00:00 | |
| DO3DL | 2026-08-31 09:59:57 | 50.84699 | 8.72939 | 65° | 77km/h | 14124m | 3.8m/s | -49.1°C | 0% | 0hPa | 4.8V | 00:00:00 | 00:00:00 | 00:00:00 | |
| AA1-15 | 2026-08-31 09:59:56 | 50.84691 | 8.72911 | 64° | 77km/h | 14121m | 2.7m/s | -49.1°C | 0% | 0hPa | 4.8V | 00:00:00 | 00:00:00 | 00:00:00 | |
| HSKMA3-T | 2026-08-31 09:59:53 | 50.84665 | 8.72828 | 64° | 78km/h | 14110m | 3.7m/s | -49.1°C | 0% | 0hPa | 4.8V | 00:00:00 | 00:00:00 | 00:00:00 | |
| GOEST3-10 | 2026-08-31 09:59:53 | 50.84673 | 8.72857 | 67° | 78km/h | 14107m | 2.5m/s | 0°C | 0% | 0hPa | 0V | 00:00:00 | 00:00:00 | 00:00:00 | |
| DO3MHA-11 | 2026-08-31 09:59:51 | 50.84656 | 8.72799 | 66° | 78km/h | 14104m | 4.0m/s | 0°C | 0% | 0hPa | 0V | 00:00:00 | 00:00:00 | 00:00:00 | |
| DO2JMG | 2026-08-31 09:59:51 | 50.84648 | 8.72770 | 66° | 78km/h | 14104m | 4m/s | -49°C | 0% | 0hPa | 4.8V | 00:00:00 | 00:00:00 | 00:00:00 | |
| DL1XH-15 | 2026-08-31 09:59:50 | 50.84607 | 8.72627 | 60° | 78km/h | 14085m | 2.6m/s | 0°C | 0% | 0hPa | 0V | 00:00:00 | 00:00:00 | 00:00:00 | |
| DD1CC2-15 | 2026-08-31 09:59:49 | 50.84640 | 8.72741 | 66° | 78km/h | 14101m | 2.5m/s | -42.4°C | 0% | 0hPa | 5.3V | 00:00:00 | 00:00:00 | 00:00:00 | |
| GOEST3-10 | 2026-08-31 09:59:47 | 50.84623 | 8.72684 | 66° | 78km/h | 14092m | 2.8m/s | 0°C | 0% | 0hPa | 5.3V | 00:00:00 | 00:00:00 | 00:00:00 | |
| BIOWL1-15 | 2026-08-31 09:59:45 | 50.84606 | 8.72628 | 64° | 78km/h | 14088m | 3.7m/s | 0°C | 0% | 0hPa | 5.3V | 00:00:00 | 00:00:00 | 00:00:00 | |
| AA1-15 | 2026-08-31 09:59:45 | 50.84597 | 8.72600 | 61° | 78km/h | 14085m | 2.6m/s | -48.9°C | 0% | 0hPa | 4.8V | 00:00:00 | 00:00:00 | 00:00:00 | |
| DL1XH-west | 2026-08-31 09:59:42 | 50.84578 | 8.72545 | 60° | 78km/h | 14078m | 3m/s | -48.8°C | 0% | 0hPa | 4.8V | 00:00:00 | 00:00:00 | 00:00:00 | |
| GOEST3-10 | 2026-08-31 09:59:42 | 50.84577 | 8.72545 | 60° | 78km/h | 14076m | 2.7m/s | 0°C | 0% | 0hPa | 4.8V | 00:00:00 | 00:00:00 | 00:00:00 | |
| DO3MHA-11 | 2026-08-31 09:59:41 | 50.84567 | 8.72518 | 60° | 78km/h | 14073m | 3.5m/s | 0°C | 0% | 0hPa | 4.8V | 00:00:00 | 00:00:00 | 00:00:00 | |
| DO2JMG | 2026-08-31 09:59:40 | 50.84557 | 8.72491 | 59° | 80km/h | 14072m | 3.6m/s | -48.8°C | 0% | 0hPa | 4.8V | 00:00:00 | 00:00:00 | 00:00:00 | |
| DL1XH-15 | 2026-08-31 09:59:40 | 50.84509 | 8.72354 | 61° | 80km/h | 14054m | 3.6m/s | 0°C | 0% | 0hPa | 0V | 00:00:00 | 00:00:00 | 00:00:00 | |
| GOEST3-10 | 2026-08-31 09:59:37 | 50.84527 | 8.72409 | 62° | 78km/h | 14061m | 3.3m/s | 0°C | 0% | 0hPa | 4.8V | 00:00:00 | 00:00:00 | 00:00:00 | |
| AA1-15 | 2026-08-31 09:59:34 | 50.84499 | 8.72326 | 61° | 78km/h | 14054m | 3.6m/s | -48.9°C | 0% | 0hPa | 4.8V | 00:00:00 | 00:00:00 | 00:00:00 | |
| DF8AY | 2026-08-31 09:59:34 | 50.84489 | 8.72298 | 60° | 77km/h | 14051m | 2.7m/s | -48.9°C | 0% | 0hPa | 4.8V | 00:00:00 | 00:00:00 | 00:00:00 | |
| HSKMA3-T | 2026-08-31 09:59:32 | 50.84469 | 8.72244 | 60° | 80km/h | 14044m | 2.9m/s | -48.9°C | 0% | 0hPa | 4.8V | 00:00:00 | 00:00:00 | 00:00:00 | |
| GOEST3-10 | 2026-08-31 09:59:32 | 50.84479 | 8.72271 | 61° | 78km/h | 14042m | 3.2m/s | 0°C | 0% | 0hPa | 0V | 00:00:00 | 00:00:00 | 00:00:00 | |
| DO3MHA-11 | 2026-08-31 09:59:31 | 50.84469 | 8.72244 | 61° | 80km/h | 14042m | 3.2m/s | 0°C | 0% | 0hPa | 0V | 00:00:00 | 00:00:00 | 00:00:00 | |
| DL1XH-15 | 2026-08-31 09:59:30 | 50.84409 | 8.72079 | 60° | 78km/h | 14021m | 3.7m/s | 0°C | 0% | 0hPa | 0V | 00:00:00 | 00:00:00 | 00:00:00 | |
| DO2JMG | 2026-08-31 09:59:29 | 50.84449 | 8.72189 | 60° | 78km/h | 14038m | 3.2m/s | -48.9°C | 0% | 0hPa | 4.8V | 00:00:00 | 00:00:00 | 00:00:00 | |
| DD1CC2-15 | 2026-08-31 09:59:29 | 50.84439 | 8.72162 | 61° | 78km/h | 14035m | 3.5m/s | -42.4°C | 0% | 0hPa | 4.8V | 00:00:00 | 00:00:00 | 00:00:00 | |
| DO3DL | 2026-08-31 09:59:28 | 50.84439 | 8.72162 | 61° | 78km/h | 14035m | 3.5m/s | -48.9°C | 0% | 0hPa | 4.8V | 00:00:00 | 00:00:00 | 00:00:00 | |
| GOEST3-10 | 2026-08-31 09:59:27 | 50.84429 | 8.72134 | 61° | 80km/h | 14028m | 3.6m/s | 0°C | 0% | 0hPa | 4.8V | 00:00:00 | 00:00:00 | 00:00:00 | |
| DJTTGO | 2026-08-31 09:59:24 | 50.84399 | 8.72051 | 62° | 82km/h | 14021m | 3.7m/s | -48.9°C | 0% | 0hPa | 4.8V | 00:00:00 | 00:00:00 | 00:00:00 | |
| AA1-15 | 2026-08-31 09:59:23 | 50.84378 | 8.71993 | 61° | 84km/h | 14015m | 2.8m/s | -48.9°C | 0% | 0hPa | 4.8V | 00:00:00 | 00:00:00 | 00:00:00 | |
| GOEST3-10 | 2026-08-31 09:59:22 | 50.84378 | 8.71992 | 61° | 82km/h | 14012m | 3.5m/s | 0°C | 0% | 0hPa | 0V | 00:00:00 | 00:00:00 | 00:00:00 | |
| DO3MHA-11 | 2026-08-31 09:59:21 | 50.84368 | 8.71963 | 63° | 82km/h | 14009m | 2.7m/s | 0°C | 0% | 0hPa | 0V | 00:00:00 | 00:00:00 | 00:00:00 | |
| HSKMA3-T | 2026-08-31 09:59:21 | 50.84358 | 8.71935 | 62° | 80km/h | 14009m | 2.7m/s | -48.9°C | 0% | 0hPa | 4.8V | 00:00:00 | 00:00:00 | 00:00:00 | |
| DL1XH-15 | 2026-08-31 09:59:20 | 50.84309 | 8.71792 | 60° | 82km/h | 13989m | 3.4m/s | 0°C | 0% | 0hPa | 0V | 00:00:00 | 00:00:00 | 00:00:00 | |
| BIOWL1-15 | 2026-08-31 09:59:19 | 50.84349 | 8.71907 | 62° | 80km/h | 14005m | 3.7m/s | -48.9°C | 0% | 0hPa | 4.8V | 00:00:00 | 00:00:00 | 00:00:00 | |
| DO2JMG | 2026-08-31 09:59:18 | 50.84339 | 8.71878 | 61° | 82km/h | 14002m | 2.8m/s | -48.9°C | 0% | 0hPa | 4.8V | 00:00:00 | 00:00:00 | 00:00:00 | |
| DL1NUX | 2026-08-31 09:59:18 | 50.84319 | 8.71821 | 60° | 80km/h | 13992m | 3.2m/s | 0°C | 0% | 0hPa | 0V | 00:00:00 | 00:00:00 | 00:00:00 | |
| DF2AP-13 | 2026-08-31 09:59:17 | 50.84329 | 8.71849 | 61° | 86km/h | 13996m | 3.2m/s | 0°C | 0% | 0hPa | 4.8V | 00:00:00 | 00:00:00 | 00:00:00 | |
| DO3DL | 2026-08-31 09:59:16 | 50.84308 | 8.71792 | 62° | 82km/h | 13993m | 3.2m/s | -48.8°C | 0% | 0hPa | 4.8V | 00:00:00 | 00:00:00 | 00:00:00 | |
| AA1-15 | 2026-08-31 09:59:12 | 50.84278 | 8.71704 | 62° | 86km/h | 13983m | 3.6m/s | -48.7°C | 0% | 0hPa | 4.8V | 00:00:00 | 00:00:00 | 00:00:00 | |
| GOEST3-10 | 2026-08-31 09:59:12 | 50.84277 | 8.71704 | 62° | 86km/h | 13980m | 2.9m/s | 0°C | 0% | 0hPa | 0V | 00:00:00 | 00:00:00 | 00:00:00 | |
| DO3MHA-11 | 2026-08-31 09:59:11 | 50.84267 | 8.71673 | 63° | 86km/h | 13977m | 3.6m/s | 0°C | 0% | 0hPa | 0V | 00:00:00 | 00:00:00 | 00:00:00 | |
| DL1XH-15 | 2026-08-31 09:59:10 | 50.84209 | 8.71489 | 63° | 86km/h | 13946m | 3.2m/s | 0°C | 0% | 0hPa | 0V | 00:00:00 | 00:00:00 | 00:00:00 | |
| DL1XH-west | 2026-08-31 09:59:10 | 50.84248 | 8.71613 | 63° | 88km/h | 13973m | 3.4m/s | -48.8°C | 0% | 0hPa | 4.8V | 00:00:00 | 00:00:00 | 00:00:00 | |
| DO3DL | 2026-08-31 09:59:09 | 50.84247 | 8.71612 | 64° | 88km/h | 13973m | 3.4m/s | -48.8°C | 0% | 0hPa | 4.8V | 00:00:00 | 00:00:00 | 00:00:00 | |
| DD1CC2-15 | 2026-08-31 09:59:08 | 50.84238 | 8.71582 | 64° | 86km/h | 13970m | 3.7m/s | -42.1°C | 0% | 0hPa | 4.8V | 00:00:00 | 00:00:00 | 00:00:00 | |
| DO2JMG | 2026-08-31 09:59:07 | 50.84228 | 8.71551 | 64° | 86km/h | 13966m | 3.2m/s | -48.7°C | 0% | 0hPa | 4.8V | 00:00:00 | 00:00:00 | 00:00:00 | |
| GOEST3-10 | 2026-08-31 09:59:07 | 50.84228 | 8.71551 | 65° | 86km/h | 13959m | 2.5m/s | 0°C | 0% | 0hPa | 0V | 00:00:00 | 00:00:00 | 00:00:00 | |
| DO3DL | 2026-08-31 09:59:03 | 50.84190 | 8.71428 | 64° | 84km/h | 13953m | 2.8m/s | -48.7°C | 0% | 0hPa | 0V | 00:00:00 | 00:00:00 | 00:00:00 | |
| GOEST3-10 | 2026-08-31 09:59:02 | 50.84180 | 8.71399 | 62° | 88km/h | 13946m | 3.1m/s | 0°C | 0% | 0hPa | 0V | 00:00:00 | 00:00:00 | 00:00:00 | |
| AA1-15 | 2026-08-31 09:59:02 | 50.84169 | 8.71368 | 62° | 88km/h | 13946m | 3.2m/s | -48.7°C | 0% | 0hPa | 4.8V | 00:00:00 | 00:00:00 | 00:00:00 | |
| DL1NUX | 2026-08-31 09:59:01 | 50.84118 | 8.71212 | 63° | 88km/h | 13925m | 3.1m/s | 0°C | 0% | 0hPa | 0V | 00:00:00 | 00:00:00 | 00:00:00 | |
| DO3MHA-11 | 2026-08-31 09:59:01 | 50.84169 | 8.71368 | 62° | 88km/h | 13942m | 3.8m/s | 0°C | 0% | 0hPa | 4.8V | 00:00:00 | 00:00:00 | 00:00:00 | |
| HSKMA3-T | 2026-08-31 09:59:00 | 50.84148 | 8.71306 | 62° | 88km/h | 13939m | 3.3m/s | -48.7°C | 0% | 0hPa | 4.8V | 00:00:00 | 00:00:00 | 00:00:00 | |
| DO8TBO-1 | 2026-08-31 09:58:59 | 50.84148 | 8.71306 | 63° | 88km/h | 13935m | 3.7m/s | 0°C | 0% | 0hPa | 4.8V | 00:00:00 | 00:00:00 | 00:00:00 | |
| DO2JMG | 2026-08-31 09:58:57 | 50.84117 | 8.71212 | 63° | 88km/h | 13928m | 3.5m/s | -48.7°C | 0% | 0hPa | 4.8V | 00:00:00 | 00:00:00 | 00:00:00 | |
| DO3DL | 2026-08-31 09:58:56 | 50.84118 | 8.71212 | 64° | 88km/h | 13928m | 3.5m/s | -48.7°C | 0% | 0hPa | 4.8V | 00:00:00 | 00:00:00 | 00:00:00 | |
| GOEST3-10 | 2026-08-31 09:58:52 | 50.84075 | 8.71092 | 59° | 88km/h | 13912m | 3.6m/s | 0°C | 0% | 0hPa | 4.8V | 00:00:00 | 00:00:00 | 00:00:00 | |
| AA1-15 | 2026-08-31 09:58:51 | 50.84064 | 8.71062 | 59° | 86km/h | 13912m | 3.7m/s | -48.7°C | 0% | 0hPa | 4.8V | 00:00:00 | 00:00:00 | 00:00:00 | |
| DL1NUX | 2026-08-31 09:58:51 | 50.84010 | 8.70911 | 61° | 88km/h | 13891m | 3.7m/s | 0°C | 0% | 0hPa | 0V | 00:00:00 | 00:00:00 | 00:00:00 | |
| DF8AY | 2026-08-31 09:58:51 | 50.84053 | 8.71033 | 60° | 86km/h | 13909m | 2.9m/s | -48.7°C | 0% | 0hPa | 4.8V | 00:00:00 | 00:00:00 | 00:00:00 | |
| DO3MHA-11 | 2026-08-31 09:58:51 | 50.84064 | 8.71062 | 60° | 88km/h | 13909m | 2.9m/s | 0°C | 0% | 0hPa | 4.8V | 00:00:00 | 00:00:00 | 00:00:00 | |
| HSKMA3-T | 2026-08-31 09:58:49 | 50.84032 | 8.70972 | 61° | 89km/h | 13901m | 3.3m/s | -48.8°C | 0% | 0hPa | 4.8V | 00:00:00 | 00:00:00 | 00:00:00 | |
| DO3DL | 2026-08-31 09:58:48 | 50.84032 | 8.70972 | 62° | 89km/h | 13901m | 3.3m/s | -48.8°C | 0% | 0hPa | 4.8V | 00:00:00 | 00:00:00 | 00:00:00 | |
| SO1NDE-10 | 2026-08-31 09:58:47 | 50.84021 | 8.70941 | 62° | 86km/h | 13894m | 3.3m/s | 0°C | 0% | 0hPa | 4.8V | 00:00:00 | 00:00:00 | 00:00:00 | |
| DO2JMG | 2026-08-31 09:58:46 | 50.84010 | 8.70911 | 62° | 88km/h | 13894m | 3.4m/s | -48.8°C | 0% | 0hPa | 4.8V | 00:00:00 | 00:00:00 | 00:00:00 | |
| DJTTGO | 2026-08-31 09:58:44 | 50.83989 | 8.70849 | 62° | 88km/h | 13887m | 3.3m/s | -48.9°C | 0% | 0hPa | 4.8V | 00:00:00 | 00:00:00 | 00:00:00 | |
| DO3DL | 2026-08-31 09:58:42 | 50.83968 | 8.70789 | 62° | 84km/h | 13880m | 3.0m/s | -48.9°C | 0% | 0hPa | 4.8V | 00:00:00 | 00:00:00 | 00:00:00 | |
| DO3MHA-11 | 2026-08-31 09:58:41 | 50.83957 | 8.70759 | 61° | 88km/h | 13874m | 3.5m/s | 0°C | 0% | 0hPa | 4.8V | 00:00:00 | 00:00:00 | 00:00:00 | |
| DF8AY | 2026-08-31 09:58:40 | 50.83935 | 8.70699 | 59° | 88km/h | 13870m | 3.2m/s | -49°C | 0% | 0hPa | 4.8V | 00:00:00 | 00:00:00 | 00:00:00 | |
| THATR2-17 | 2026-08-31 09:58:39 | 50.83776 | 8.70326 | 55° | 88km/h | 13826m | 0m/s | 0°C | 0% | 0hPa | 4.8V | 00:00:00 | 00:00:00 | 00:00:00 | |
| HSKMA3-T | 2026-08-31 09:58:38 | 50.83911 | 8.70640 | 57° | 89km/h | 13864m | 3.2m/s | -49.1°C | 0% | 0hPa | 4.8V | 00:00:00 | 00:00:00 | 00:00:00 | |
| AA1-15 | 2026-08-31 09:58:36 | 50.83899 | 8.70610 | 57° | 91km/h | 13860m | 3.5m/s | -49.1°C | 0% | 0hPa | 4.8V | 00:00:00 | 00:00:00 | 00:00:00 | |
| GOEST3-10 | 2026-08-31 09:58:36 | 50.83899 | 8.70609 | 57° | 88km/h | 13853m | 3.3m/s | 0°C | 0% | 0hPa | 4.8V | 00:00:00 | 00:00:00 | 00:00:00 | |
| DO2JMG | 2026-08-31 09:58:35 | 50.83886 | 8.70579 | 56° | 89km/h | 13857m | 3.3m/s | -49.2°C | 0% | 0hPa | 4.8V | 00:00:00 | 00:00:00 | 00:00:00 | |
| DL1NUX | 2026-08-31 09:58:31 | 50.83776 | 8.70326 | 55° | 88km/h | 13819m | 3m/s | 0°C | 0% | 0hPa | 0V | 00:00:00 | 00:00:00 | 00:00:00 | |
| DO3MHA-11 | 2026-08-31 09:58:31 | 50.83837 | 8.70466 | 57° | 86km/h | 13840m | 4.0m/s | 0°C | 0% | 0hPa | 4.8V | 00:00:00 | 00:00:00 | 00:00:00 | |
| DF8AY | 2026-08-31 09:58:29 | 50.83801 | 8.70383 | 55° | 84km/h | 13833m | 3.1m/s | -49.2°C | 0% | 0hPa | 4.8V | 00:00:00 | 00:00:00 | 00:00:00 | |
| DO3DL | 2026-08-31 09:58:28 | 50.83801 | 8.70382 | 56° | 84km/h | 13833m | 3.1m/s | -49.2°C | 0% | 0hPa | 4.8V | 00:00:00 | 00:00:00 | 00:00:00 | |
| HSKMA3-T | 2026-08-31 09:58:27 | 50.83776 | 8.70326 | 55° | 88km/h | 13826m | 3.3m/s | -49.1°C | 0% | 0hPa | 4.8V | 00:00:00 | 00:00:00 | 00:00:00 | |
| GOEST3-10 | 2026-08-31 09:58:26 | 50.83775 | 8.70326 | 56° | 86km/h | 13823m | 3.5m/s | 0°C | 0% | 0hPa | 4.8V | 00:00:00 | 00:00:00 | 00:00:00 | |
| AA1-15 | 2026-08-31 09:58:25 | 50.83763 | 8.70297 | 56° | 88km/h | 13822m | 3.5m/s | -49.1°C | 0% | 0hPa | 4.8V | 00:00:00 | 00:00:00 | 00:00:00 | |
| DO2JMG | 2026-08-31 09:58:24 | 50.83751 | 8.70269 | 55° | 86km/h | 13819m | 3m/s | -49°C | 0% | 0hPa | 4.8V | 00:00:00 | 00:00:00 | 00:00:00 | |
| DO3DL | 2026-08-31 09:58:22 | 50.83725 | 8.70214 | 53° | 86km/h | 13812m | 2.7m/s | -49.0°C | 0% | 0hPa | 4.8V | 00:00:00 | 00:00:00 | 00:00:00 | |
| DO3MHA-11 | 2026-08-31 09:58:21 | 50.83712 | 8.70187 | 54° | 84km/h | 13805m | 3.5m/s | 0°C | 0% | 0hPa | 4.8V | 00:00:00 | 00:00:00 | 00:00:00 | |
| DF8AY | 2026-08-31 09:58:19 | 50.83675 | 8.70110 | 54° | 80km/h | 13797m | 3.9m/s | -49°C | 0% | 0hPa | 4.8V | 00:00:00 | 00:00:00 | 00:00:00 | |
| DF2AP-13 | 2026-08-31 09:58:17 | 50.83663 | 8.70083 | 56° | 86km/h | 13790m | 3.8m/s | 0°C | 0% | 0hPa | 4.8V | 00:00:00 | 00:00:00 | 00:00:00 | |
| DL1XH-west | 2026-08-31 09:58:16 | 50.83651 | 8.70055 | 57° | 84km/h | 13790m | 3.9m/s | -48.9°C | 0% | 0hPa | 4.8V | 00:00:00 | 00:00:00 | 00:00:00 | |
| GOEST3-10 | 2026-08-31 09:58:16 | 50.83651 | 8.70055 | 57° | 88km/h | 13786m | 3.5m/s | 0°C | 0% | 0hPa | 4.8V | 00:00:00 | 00:00:00 | 00:00:00 | |
| DO3DL | 2026-08-31 09:58:15 | 50.83640 | 8.70027 | 58° | 86km/h | 13786m | 3.6m/s | -48.9°C | 0% | 0hPa | 4.8V | 00:00:00 | 00:00:00 | 00:00:00 | |
| BIOWL1-15 | 2026-08-31 09:58:14 | 50.83627 | 8.69997 | 57° | 89km/h | 13782m | 3.9m/s | 0°C | 0% | 0hPa | 4.8V | 00:00:00 | 00:00:00 | 00:00:00 | |
| DO2JMG | 2026-08-31 09:58:14 | 50.83615 | 8.69967 | 56° | 89km/h | 13778m | 3.3m/s | -48.9°C | 0% | 0hPa | 4.8V | 00:00:00 | 00:00:00 | 00:00:00 | |
| DO3MHA-11 | 2026-08-31 09:58:11 | 50.83590 | 8.69909 | 56° | 84km/h | 13768m | 4.0m/s | 0°C | 0% | 0hPa | 0V | 00:00:00 | 00:00:00 | 00:00:00 | |
| DL1XH-15 | 2026-08-31 09:58:10 | 50.83518 | 8.69743 | 55° | 84km/h | 13746m | 3.4m/s | 0°C | 0% | 0hPa | 0V | 00:00:00 | 00:00:00 | 00:00:00 | |
| DL1NUX | 2026-08-31 09:58:10 | 50.83565 | 8.69854 | 54° | 86km/h | 13760m | 3.4m/s | 0°C | 0% | 0hPa | 0V | 00:00:00 | 00:00:00 | 00:00:00 | |
| DO3DL | 2026-08-31 09:58:09 | 50.83565 | 8.69854 | 56° | 86km/h | 13764m | 3.3m/s | -48.7°C | 0% | 0hPa | 4.8V | 00:00:00 | 00:00:00 | 00:00:00 | |
| HSKMA3-T | 2026-08-31 09:58:06 | 50.83518 | 8.69743 | 56° | 84km/h | 13750m | 3.6m/s | -48.7°C | 0% | 0hPa | 4.8V | 00:00:00 | 00:00:00 | 00:00:00 | |
| DO2JMG | 2026-08-31 09:58:03 | 50.83494 | 8.69689 | 56° | 84km/h | 13742m | 3.8m/s | -48.6°C | 0% | 0hPa | 4.8V | 00:00:00 | 00:00:00 | 00:00:00 | |
| DO3DL | 2026-08-31 09:58:02 | 50.83482 | 8.69661 | 56° | 84km/h | 13739m | 3.7m/s | -48.7°C | 0% | 0hPa | 0V | 00:00:00 | 00:00:00 | 00:00:00 | |
| DO3MHA-11 | 2026-08-31 09:58:01 | 50.83469 | 8.69633 | 55° | 86km/h | 13731m | 3.8m/s | 0°C | 0% | 0hPa | 0V | 00:00:00 | 00:00:00 | 00:00:00 | |
| DL1NUX | 2026-08-31 09:58:00 | 50.83444 | 8.69576 | 57° | 88km/h | 13723m | 2.6m/s | 0°C | 0% | 0hPa | 0V | 00:00:00 | 00:00:00 | 00:00:00 | |
| DL3OBA | 2026-08-31 09:57:58 | 50.83432 | 8.69547 | 58° | 86km/h | 13724m | 2.6m/s | -48.6°C | 0% | 0hPa | 4.8V | 00:00:00 | 00:00:00 | 00:00:00 | |
| DF8AY | 2026-08-31 09:57:57 | 50.83408 | 8.69490 | 57° | 86km/h | 13716m | 3.4m/s | -48.5°C | 0% | 0hPa | 4.8V | 00:00:00 | 00:00:00 | 00:00:00 | |
| GOEST3-10 | 2026-08-31 09:57:56 | 50.83408 | 8.69490 | 57° | 84km/h | 13713m | 4.0m/s | 0°C | 0% | 0hPa | 0V | 00:00:00 | 00:00:00 | 00:00:00 | |
| DL1XH-15 | 2026-08-31 09:57:55 | 50.83341 | 8.69319 | 58° | 86km/h | 13689m | 3.9m/s | 0°C | 0% | 0hPa | 0V | 00:00:00 | 00:00:00 | 00:00:00 | |
| DL1XH-west | 2026-08-31 09:57:55 | 50.83385 | 8.69433 | 59° | 84km/h | 13708m | 3.6m/s | -48.5°C | 0% | 0hPa | 4.8V | 00:00:00 | 00:00:00 | 00:00:00 | |
| DO2JMG | 2026-08-31 09:57:53 | 50.83363 | 8.69376 | 57° | 84km/h | 13701m | 3.4m/s | -48.5°C | 0% | 0hPa | 4.8V | 00:00:00 | 00:00:00 | 00:00:00 | |
| GOEST3-10 | 2026-08-31 09:57:51 | 50.83351 | 8.69347 | 58° | 86km/h | 13693m | 3.3m/s | 0°C | 0% | 0hPa | 0V | 00:00:00 | 00:00:00 | 00:00:00 | |
| DL1NUX | 2026-08-31 09:57:50 | 50.83329 | 8.69289 | 58° | 86km/h | 13686m | 3.8m/s | 0°C | 0% | 0hPa | 0V | 00:00:00 | 00:00:00 | 00:00:00 | |
| DO3DL | 2026-08-31 09:57:50 | 50.83329 | 8.69289 | 59° | 86km/h | 13690m | 3.9m/s | -48.5°C | 0% | 0hPa | 4.8V | 00:00:00 | 00:00:00 | 00:00:00 | |
| SO1NDE-10 | 2026-08-31 09:57:47 | 50.83306 | 8.69231 | 57° | 84km/h | 13679m | 4.3m/s | 0°C | 0% | 0hPa | 4.8V | 00:00:00 | 00:00:00 | 00:00:00 | |
| DF8AY | 2026-08-31 09:57:46 | 50.83283 | 8.69173 | 60° | 84km/h | 13675m | 3.2m/s | -48.4°C | 0% | 0hPa | 4.8V | 00:00:00 | 00:00:00 | 00:00:00 | |
| GOEST3-10 | 2026-08-31 09:57:45 | 50.83283 | 8.69173 | 61° | 84km/h | 13671m | 3.9m/s | 0°C | 0% | 0hPa | 4.8V | 00:00:00 | 00:00:00 | 00:00:00 | |
| DL1XH-west | 2026-08-31 09:57:44 | 50.83262 | 8.69115 | 59° | 84km/h | 13667m | 3.7m/s | -48.4°C | 0% | 0hPa | 4.8V | 00:00:00 | 00:00:00 | 00:00:00 | |
| DO3DL | 2026-08-31 09:57:43 | 50.83262 | 8.69115 | 60° | 84km/h | 13667m | 3.7m/s | -48.4°C | 0% | 0hPa | 4.8V | 00:00:00 | 00:00:00 | 00:00:00 | |
| DO2JMG | 2026-08-31 09:57:42 | 50.83251 | 8.69086 | 60° | 84km/h | 13663m | 3.9m/s | -48.4°C | 0% | 0hPa | 4.8V | 00:00:00 | 00:00:00 | 00:00:00 | |
| HSKMA3-T | 2026-08-31 09:57:42 | 50.83240 | 8.69056 | 61° | 86km/h | 13660m | 3.5m/s | -48.4°C | 0% | 0hPa | 4.8V | 00:00:00 | 00:00:00 | 00:00:00 | |
| NBG1-10 | 2026-08-31 09:57:42 | 50.83251 | 8.69084 | 59° | 84km/h | 13660m | 3.4m/s | 0°C | 0% | 0hPa | 0V | 00:00:00 | 00:00:00 | 00:00:00 | |
| DO3MHA-11 | 2026-08-31 09:57:41 | 50.83240 | 8.69056 | 61° | 84km/h | 13656m | 3.4m/s | 0°C | 0% | 0hPa | 0V | 00:00:00 | 00:00:00 | 00:00:00 | |
| DL1NUX | 2026-08-31 09:57:40 | 50.83218 | 8.68997 | 58° | 88km/h | 13648m | 3.8m/s | 0°C | 0% | 0hPa | 0V | 00:00:00 | 00:00:00 | 00:00:00 | |
| GOEST3-10 | 2026-08-31 09:57:40 | 50.83230 | 8.69026 | 59° | 86km/h | 13652m | 4.1m/s | 0°C | 0% | 0hPa | 4.8V | 00:00:00 | 00:00:00 | 00:00:00 | |
| AA1-15 | 2026-08-31 09:57:39 | 50.83219 | 8.68997 | 59° | 88km/h | 13652m | 4.2m/s | -48.3°C | 0% | 0hPa | 4.8V | 00:00:00 | 00:00:00 | 00:00:00 | |
| DL3OBA | 2026-08-31 09:57:38 | 50.83207 | 8.68967 | 60° | 86km/h | 13648m | 3.8m/s | -48.3°C | 0% | 0hPa | 4.8V | 00:00:00 | 00:00:00 | 00:00:00 | |
| DO3DL | 2026-08-31 09:57:37 | 50.83185 | 8.68908 | 60° | 86km/h | 13641m | 3.2m/s | -48.3°C | 0% | 0hPa | 4.8V | 00:00:00 | 00:00:00 | 00:00:00 | |
| DF8AY | 2026-08-31 09:57:36 | 50.83174 | 8.68879 | 59° | 84km/h | 13637m | 4m/s | -48.3°C | 0% | 0hPa | 4.8V | 00:00:00 | 00:00:00 | 00:00:00 | |
| DL1XH-15 | 2026-08-31 09:57:35 | 50.83125 | 8.68736 | 62° | 82km/h | 13615m | 3.5m/s | 0°C | 0% | 0hPa | 0V | 00:00:00 | 00:00:00 | 00:00:00 | |
| GOEST3-10 | 2026-08-31 09:57:35 | 50.83174 | 8.68879 | 59° | 82km/h | 13634m | 3.2m/s | 0°C | 0% | 0hPa | 4.8V | 00:00:00 | 00:00:00 | 00:00:00 | |
| DL1XH-west | 2026-08-31 09:57:33 | 50.83144 | 8.68794 | 64° | 82km/h | 13625m | 3.3m/s | -48.3°C | 0% | 0hPa | 4.8V | 00:00:00 | 00:00:00 | 00:00:00 | |
| DO3MHA-11 | 2026-08-31 09:57:31 | 50.83134 | 8.68764 | 63° | 82km/h | 13618m | 3.5m/s | 0°C | 0% | 0hPa | 0V | 00:00:00 | 00:00:00 | 00:00:00 | |
| DL1NUX | 2026-08-31 09:57:30 | 50.83116 | 8.68707 | 62° | 82km/h | 13611m | 4.2m/s | 0°C | 0% | 0hPa | 0V | 00:00:00 | 00:00:00 | 00:00:00 | |
| DO8TBO-1 | 2026-08-31 09:57:29 | 50.83106 | 8.68677 | 63° | 86km/h | 13607m | 3.0m/s | 0°C | 0% | 0hPa | 0V | 00:00:00 | 00:00:00 | 00:00:00 | |
| AA1-15 | 2026-08-31 09:57:29 | 50.83106 | 8.68677 | 63° | 82km/h | 13611m | 4.2m/s | -48.1°C | 0% | 0hPa | 4.8V | 00:00:00 | 00:00:00 | 00:00:00 | |
| DL1XH-15 | 2026-08-31 09:57:25 | 50.83033 | 8.68439 | 64° | 86km/h | 13576m | 4.7m/s | 0°C | 0% | 0hPa | 0V | 00:00:00 | 00:00:00 | 00:00:00 | |
| DF8AY | 2026-08-31 09:57:25 | 50.83068 | 8.68561 | 63° | 80km/h | 13596m | 3.8m/s | -48.2°C | 0% | 0hPa | 4.8V | 00:00:00 | 00:00:00 | 00:00:00 | |
| DO3DL | 2026-08-31 09:57:23 | 50.83059 | 8.68531 | 66° | 82km/h | 13592m | 3.9m/s | -48.3°C | 0% | 0hPa | 4.8V | 00:00:00 | 00:00:00 | 00:00:00 | |
| DL1XH-west | 2026-08-31 09:57:22 | 50.83050 | 8.68501 | 66° | 84km/h | 13588m | 3.6m/s | -48.3°C | 0% | 0hPa | 4.8V | 00:00:00 | 00:00:00 | 00:00:00 | |
| DO3MHA-11 | 2026-08-31 09:57:21 | 50.83042 | 8.68470 | 66° | 88km/h | 13580m | 3.5m/s | 0°C | 0% | 0hPa | 4.8V | 00:00:00 | 00:00:00 | 00:00:00 | |
| BIOWL1-15 | 2026-08-31 09:57:20 | 50.82984 | 8.68283 | 64° | 88km/h | 13560m | 4.3m/s | -48.3°C | 0% | 0hPa | 4.8V | 00:00:00 | 00:00:00 | 00:00:00 | |
| DL1NUX | 2026-08-31 09:57:20 | 50.83023 | 8.68408 | 65° | 86km/h | 13571m | 3.9m/s | 0°C | 0% | 0hPa | 0V | 00:00:00 | 00:00:00 | 00:00:00 | |
| GOEST3-10 | 2026-08-31 09:57:20 | 50.83032 | 8.68439 | 65° | 88km/h | 13576m | 4.6m/s | 0°C | 0% | 0hPa | 4.8V | 00:00:00 | 00:00:00 | 00:00:00 | |
| AA1-15 | 2026-08-31 09:57:18 | 50.83004 | 8.68345 | 63° | 88km/h | 13568m | 3.8m/s | -48.2°C | 0% | 0hPa | 4.8V | 00:00:00 | 00:00:00 | 00:00:00 | |
| DF2AP-13 | 2026-08-31 09:57:17 | 50.83004 | 8.68345 | 63° | 88km/h | 13564m | 3.2m/s | 0°C | 0% | 0hPa | 4.8V | 00:00:00 | 00:00:00 | 00:00:00 | |
| DJTTGO | 2026-08-31 09:57:16 | 50.82994 | 8.68314 | 64° | 88km/h | 13564m | 3.3m/s | -48.3°C | 0% | 0hPa | 4.8V | 00:00:00 | 00:00:00 | 00:00:00 | |
| GOEST3-10 | 2026-08-31 09:57:15 | 50.82984 | 8.68283 | 65° | 88km/h | 13556m | 3.2m/s | 0°C | 0% | 0hPa | 4.8V | 00:00:00 | 00:00:00 | 00:00:00 | |
| DF8AY | 2026-08-31 09:57:14 | 50.82966 | 8.68219 | 66° | 88km/h | 13552m | 4.6m/s | -48.3°C | 0% | 0hPa | 4.8V | 00:00:00 | 00:00:00 | 00:00:00 | |
| DL1XH-west | 2026-08-31 09:57:12 | 50.82949 | 8.68155 | 69° | 88km/h | 13544m | 4.4m/s | -48.3°C | 0% | 0hPa | 4.8V | 00:00:00 | 00:00:00 | 00:00:00 | |
| DO3MHA-11 | 2026-08-31 09:57:11 | 50.82949 | 8.68155 | 69° | 88km/h | 13540m | 3.6m/s | 0°C | 0% | 0hPa | 0V | 00:00:00 | 00:00:00 | 00:00:00 | |
| DL1NUX | 2026-08-31 09:57:10 | 50.82933 | 8.68090 | 68° | 88km/h | 13532m | 2.9m/s | 0°C | 0% | 0hPa | 0V | 00:00:00 | 00:00:00 | 00:00:00 | |
| GOEST3-10 | 2026-08-31 09:57:10 | 50.82941 | 8.68122 | 69° | 88km/h | 13536m | 4.2m/s | 0°C | 0% | 0hPa | 4.8V | 00:00:00 | 00:00:00 | 00:00:00 | |
| DO2JMG | 2026-08-31 09:57:09 | 50.82933 | 8.68090 | 69° | 88km/h | 13536m | 4.2m/s | -48.2°C | 0% | 0hPa | 4.8V | 00:00:00 | 00:00:00 | 00:00:00 | |
| AA1-15 | 2026-08-31 09:57:07 | 50.82916 | 8.68025 | 67° | 89km/h | 13529m | 4.2m/s | -48.2°C | 0% | 0hPa | 4.8V | 00:00:00 | 00:00:00 | 00:00:00 | |
| NBG1-10 | 2026-08-31 09:57:07 | 50.82916 | 8.68025 | 68° | 89km/h | 13521m | 4.2m/s | 0°C | 0% | 0hPa | 0V | 00:00:00 | 00:00:00 | 00:00:00 | |
| DL1XH-15 | 2026-08-31 09:57:05 | 50.82856 | 8.67797 | 67° | 86km/h | 13489m | 3.5m/s | 0°C | 0% | 0hPa | 0V | 00:00:00 | 00:00:00 | 00:00:00 | |
| DF8AY | 2026-08-31 09:57:05 | 50.82873 | 8.67862 | 68° | 89km/h | 13509m | 3.5m/s | -48.2°C | 0% | 0hPa | 4.8V | 00:00:00 | 00:00:00 | 00:00:00 | |
| GOEST3-10 | 2026-08-31 09:57:05 | 50.82899 | 8.67959 | 67° | 88km/h | 13517m | 3.5m/s | 0°C | 0% | 0hPa | 4.8V | 00:00:00 | 00:00:00 | 00:00:00 | |
| DD1CC2-15 | 2026-08-31 09:57:04 | 50.82890 | 8.67927 | 68° | 88km/h | 13517m | 3.6m/s | -41.6°C | 0% | 0hPa | 4.8V | 00:00:00 | 00:00:00 | 00:00:00 | |
| DO3MHA-11 | 2026-08-31 09:57:01 | 50.82864 | 8.67829 | 68° | 88km/h | 13501m | 3.4m/s | 0°C | 0% | 0hPa | 4.8V | 00:00:00 | 00:00:00 | 00:00:00 | |
| GOEST3-10 | 2026-08-31 09:57:00 | 50.82856 | 8.67797 | 68° | 88km/h | 13493m | 3.4m/s | 0°C | 0% | 0hPa | 4.8V | 00:00:00 | 00:00:00 | 00:00:00 | |
| DL1NUX | 2026-08-31 09:57:00 | 50.82848 | 8.67765 | 68° | 88km/h | 13493m | 3.5m/s | 0°C | 0% | 0hPa | 0V | 00:00:00 | 00:00:00 | 00:00:00 | |
| DO2JMG | 2026-08-31 09:56:58 | 50.82839 | 8.67733 | 68° | 88km/h | 13493m | 3.5m/s | -48.1°C | 0% | 0hPa | 4.8V | 00:00:00 | 00:00:00 | 00:00:00 | |
| DO8TBO-1 | 2026-08-31 09:56:58 | 50.82831 | 8.67699 | 68° | 89km/h | 13486m | 3.8m/s | 0°C | 0% | 0hPa | 4.8V | 00:00:00 | 00:00:00 | 00:00:00 | |
| AA1-15 | 2026-08-31 09:56:57 | 50.82823 | 8.67667 | 67° | 86km/h | 13486m | 3.9m/s | -48°C | 0% | 0hPa | 4.8V | 00:00:00 | 00:00:00 | 00:00:00 | |
| GOEST3-10 | 2026-08-31 09:56:55 | 50.82814 | 8.67636 | 68° | 88km/h | 13471m | 4.1m/s | 0°C | 0% | 0hPa | 4.9V | 00:00:00 | 00:00:00 | 00:00:00 | |
| DF8AY | 2026-08-31 09:56:53 | 50.82788 | 8.67538 | 67° | 89km/h | 13471m | 4.1m/s | -48°C | 0% | 0hPa | 4.9V | 00:00:00 | 00:00:00 | 00:00:00 | |
| DO3MHA-11 | 2026-08-31 09:56:51 | 50.82779 | 8.67506 | 67° | 89km/h | 13463m | 4.3m/s | 0°C | 0% | 0hPa | 4.9V | 00:00:00 | 00:00:00 | 00:00:00 | |
| DL1XH-west | 2026-08-31 09:56:50 | 50.82762 | 8.67440 | 67° | 89km/h | 13459m | 3.9m/s | -48°C | 0% | 0hPa | 4.9V | 00:00:00 | 00:00:00 | 00:00:00 | |
| DL1XH-15 | 2026-08-31 09:56:50 | 50.82726 | 8.67311 | 67° | 89km/h | 13439m | 4.3m/s | 0°C | 0% | 0hPa | 0V | 00:00:00 | 00:00:00 | 00:00:00 | |
| DL1NUX | 2026-08-31 09:56:50 | 50.82762 | 8.67440 | 66° | 89km/h | 13454m | 4.2m/s | 0°C | 0% | 0hPa | 0V | 00:00:00 | 00:00:00 | 00:00:00 | |
| GOEST3-10 | 2026-08-31 09:56:49 | 50.82762 | 8.67440 | 67° | 89km/h | 13439m | 4.3m/s | 0°C | 0% | 0hPa | 4.9V | 00:00:00 | 00:00:00 | 00:00:00 | |
| DO2JMG | 2026-08-31 09:56:47 | 50.82744 | 8.67376 | 66° | 88km/h | 13451m | 3.5m/s | -47.9°C | 0% | 0hPa | 4.9V | 00:00:00 | 00:00:00 | 00:00:00 | |
| DF2AP-13 | 2026-08-31 09:56:47 | 50.82744 | 8.67376 | 67° | 89km/h | 13447m | 4.1m/s | 0°C | 0% | 0hPa | 4.9V | 00:00:00 | 00:00:00 | 00:00:00 | |
| AA1-15 | 2026-08-31 09:56:46 | 50.82726 | 8.67311 | 67° | 89km/h | 13443m | 3.3m/s | -47.9°C | 0% | 0hPa | 4.9V | 00:00:00 | 00:00:00 | 00:00:00 | |
| DO3DL | 2026-08-31 09:56:45 | 50.82726 | 8.67310 | 68° | 89km/h | 13443m | 3.3m/s | -47.9°C | 0% | 0hPa | 0V | 00:00:00 | 00:00:00 | 00:00:00 | |
| DL1NUX | 2026-08-31 09:56:44 | 50.82671 | 8.67115 | 65° | 89km/h | 13416m | 3.3m/s | 0°C | 0% | 0hPa | 0V | 00:00:00 | 00:00:00 | 00:00:00 | |
| DF8AY | 2026-08-31 09:56:42 | 50.82690 | 8.67181 | 65° | 91km/h | 13428m | 3.6m/s | -47.9°C | 0% | 0hPa | 4.9V | 00:00:00 | 00:00:00 | 00:00:00 | |
| DO3MHA-11 | 2026-08-31 09:56:41 | 50.82690 | 8.67181 | 66° | 89km/h | 13425m | 3.4m/s | 0°C | 0% | 0hPa | 4.9V | 00:00:00 | 00:00:00 | 00:00:00 | |
| DL1XH-west | 2026-08-31 09:56:39 | 50.82670 | 8.67115 | 66° | 89km/h | 13420m | 4.5m/s | -47.8°C | 0% | 0hPa | 4.9V | 00:00:00 | 00:00:00 | 00:00:00 | |
| DO3DL | 2026-08-31 09:56:39 | 50.82661 | 8.67082 | 67° | 88km/h | 13416m | 3.3m/s | -47.8°C | 0% | 0hPa | 0V | 00:00:00 | 00:00:00 | 00:00:00 | |
| DM0DOS-11 | 2026-08-31 09:56:38 | 50.82626 | 8.66953 | 66° | 88km/h | 13397m | 3.9m/s | 0°C | 0% | 0hPa | 0V | 00:00:00 | 00:00:00 | 00:00:00 | |
| DO2JMG | 2026-08-31 09:56:37 | 50.82643 | 8.67018 | 67° | 89km/h | 13409m | 3.7m/s | -47.8°C | 0% | 0hPa | 4.9V | 00:00:00 | 00:00:00 | 00:00:00 | |
| DL3OBA | 2026-08-31 09:56:36 | 50.82643 | 8.67018 | 68° | 89km/h | 13409m | 3.7m/s | -47.8°C | 0% | 0hPa | 4.9V | 00:00:00 | 00:00:00 | 00:00:00 | |
| AA1-15 | 2026-08-31 09:56:35 | 50.82625 | 8.66953 | 67° | 88km/h | 13401m | 3.6m/s | -47.8°C | 0% | 0hPa | 4.9V | 00:00:00 | 00:00:00 | 00:00:00 | |
| DO3DL | 2026-08-31 09:56:32 | 50.82608 | 8.66888 | 67° | 89km/h | 13394m | 3.7m/s | -47.7°C | 0% | 0hPa | 4.9V | 00:00:00 | 00:00:00 | 00:00:00 | |
| DF8AY | 2026-08-31 09:56:31 | 50.82589 | 8.66822 | 66° | 89km/h | 13386m | 4.1m/s | -47.6°C | 0% | 0hPa | 4.9V | 00:00:00 | 00:00:00 | 00:00:00 | |
| DO3MHA-11 | 2026-08-31 09:56:31 | 50.82599 | 8.66854 | 66° | 89km/h | 13386m | 4.1m/s | 0°C | 0% | 0hPa | 4.9V | 00:00:00 | 00:00:00 | 00:00:00 | |
| DL1XH-west | 2026-08-31 09:56:29 | 50.82570 | 8.66757 | 64° | 89km/h | 13379m | 4.2m/s | -47.5°C | 0% | 0hPa | 4.9V | 00:00:00 | 00:00:00 | 00:00:00 | |
| DM0DOS-11 | 2026-08-31 09:56:28 | 50.82529 | 8.66629 | 62° | 89km/h | 13359m | 3m/s | 0°C | 0% | 0hPa | 0V | 00:00:00 | 00:00:00 | 00:00:00 | |
| DO2JMG | 2026-08-31 09:56:26 | 50.82550 | 8.66692 | 63° | 89km/h | 13371m | 4.4m/s | -47.5°C | 0% | 0hPa | 4.9V | 00:00:00 | 00:00:00 | 00:00:00 | |
| BIOWL1-15 | 2026-08-31 09:56:26 | 50.82529 | 8.66629 | 63° | 89km/h | 13363m | 4.5m/s | -47.4°C | 0% | 0hPa | 4.9V | 00:00:00 | 00:00:00 | 00:00:00 | |
| DL1NUX | 2026-08-31 09:56:24 | 50.82478 | 8.66471 | 65° | 91km/h | 13340m | 4.1m/s | 0°C | 0% | 0hPa | 0V | 00:00:00 | 00:00:00 | 00:00:00 | |
| NBG1-10 | 2026-08-31 09:56:24 | 50.82529 | 8.66629 | 63° | 91km/h | 13359m | 2.9m/s | 0°C | 0% | 0hPa | 4.9V | 00:00:00 | 00:00:00 | 00:00:00 | |
| DD1CC2-15 | 2026-08-31 09:56:23 | 50.82518 | 8.66597 | 64° | 89km/h | 13359m | 3.0m/s | -40.8°C | 0% | 0hPa | 4.9V | 00:00:00 | 00:00:00 | 00:00:00 | |
| DO3MHA-11 | 2026-08-31 09:56:21 | 50.82498 | 8.66534 | 63° | 89km/h | 13348m | 4.3m/s | 0°C | 0% | 0hPa | 4.9V | 00:00:00 | 00:00:00 | 00:00:00 | |
| DF8AY | 2026-08-31 09:56:20 | 50.82478 | 8.66471 | 66° | 91km/h | 13344m | 3.5m/s | -47.3°C | 0% | 0hPa | 4.9V | 00:00:00 | 00:00:00 | 00:00:00 | |
| DO3DL | 2026-08-31 09:56:19 | 50.82478 | 8.66471 | 67° | 91km/h | 13344m | 3.5m/s | -47.3°C | 0% | 0hPa | 4.9V | 00:00:00 | 00:00:00 | 00:00:00 | |
| DL1XH-west | 2026-08-31 09:56:18 | 50.82460 | 8.66405 | 66° | 89km/h | 13337m | 3.6m/s | -47.2°C | 0% | 0hPa | 4.9V | 00:00:00 | 00:00:00 | 00:00:00 | |
| DL3OBA | 2026-08-31 09:56:16 | 50.82450 | 8.66372 | 66° | 89km/h | 13333m | 3.2m/s | -47.2°C | 0% | 0hPa | 0V | 00:00:00 | 00:00:00 | 00:00:00 | |
| DM0DOS-11 | 2026-08-31 09:56:14 | 50.82430 | 8.66306 | 63° | 91km/h | 13322m | 4.1m/s | 0°C | 0% | 0hPa | 0V | 00:00:00 | 00:00:00 | 00:00:00 | |
| DL1NUX | 2026-08-31 09:56:14 | 50.82378 | 8.66144 | 64° | 91km/h | 13303m | 3.7m/s | 0°C | 0% | 0hPa | 0V | 00:00:00 | 00:00:00 | 00:00:00 | |
| DO2JMG | 2026-08-31 09:56:13 | 50.82420 | 8.66274 | 63° | 91km/h | 13322m | 4.1m/s | -47.2°C | 0% | 0hPa | 4.9V | 00:00:00 | 00:00:00 | 00:00:00 | |
| DO3DL | 2026-08-31 09:56:13 | 50.82420 | 8.66274 | 64° | 91km/h | 13322m | 4.1m/s | -47.2°C | 0% | 0hPa | 4.9V | 00:00:00 | 00:00:00 | 00:00:00 | |
| BIOWL1-15 | 2026-08-31 09:56:11 | 50.82399 | 8.66210 | 62° | 91km/h | 13314m | 4.2m/s | -47.2°C | 0% | 0hPa | 4.9V | 00:00:00 | 00:00:00 | 00:00:00 | |
| DO3MHA-11 | 2026-08-31 09:56:11 | 50.82399 | 8.66210 | 63° | 91km/h | 13311m | 3.0m/s | 0°C | 0% | 0hPa | 4.9V | 00:00:00 | 00:00:00 | 00:00:00 | |
| DF8AY | 2026-08-31 09:56:09 | 50.82368 | 8.66112 | 64° | 89km/h | 13303m | 3.7m/s | -47.1°C | 0% | 0hPa | 4.9V | 00:00:00 | 00:00:00 | 00:00:00 | |
| DL1XH-west | 2026-08-31 09:56:07 | 50.82348 | 8.66046 | 65° | 91km/h | 13296m | 3.7m/s | -47.1°C | 0% | 0hPa | 4.9V | 00:00:00 | 00:00:00 | 00:00:00 | |
| DL1XH-15 | 2026-08-31 09:56:07 | 50.82328 | 8.65979 | 64° | 93km/h | 13286m | 3m/s | 0°C | 0% | 0hPa | 0V | 00:00:00 | 00:00:00 | 00:00:00 | |
| HSKMA3-T | 2026-08-31 09:56:05 | 50.82328 | 8.65979 | 64° | 93km/h | 13289m | 3.6m/s | -47.1°C | 0% | 0hPa | 4.9V | 00:00:00 | 00:00:00 | 00:00:00 | |
| DO3DL | 2026-08-31 09:56:05 | 50.82328 | 8.66013 | 66° | 93km/h | 13293m | 3.0m/s | -47.1°C | 0% | 0hPa | 4.9V | 00:00:00 | 00:00:00 | 00:00:00 | |
| DD1CC8 | 2026-08-31 09:56:04 | 50.82317 | 8.65946 | 63° | 91km/h | 13286m | 3.0m/s | -47.1°C | -1.0% | -1.0hPa | 4.9V | 00:00:00 | 00:00:00 | 00:00:00 | |
| DL1NUX | 2026-08-31 09:56:04 | 50.82273 | 8.65816 | 60° | 91km/h | 13268m | 4.2m/s | 0°C | 0% | 0hPa | 0V | 00:00:00 | 00:00:00 | 00:00:00 | |
| DO3MHA-11 | 2026-08-31 09:56:01 | 50.82295 | 8.65880 | 61° | 91km/h | 13275m | 3.8m/s | 0°C | 0% | 0hPa | 4.9V | 00:00:00 | 00:00:00 | 00:00:00 | |
| DF8AY | 2026-08-31 09:55:59 | 50.82261 | 8.65784 | 61° | 91km/h | 13268m | 4.2m/s | -47.1°C | 0% | 0hPa | 4.9V | 00:00:00 | 00:00:00 | 00:00:00 | |
| DO8TBO-1 | 2026-08-31 09:55:58 | 50.82250 | 8.65752 | 62° | 95km/h | 13261m | 4.3m/s | 0°C | 0% | 0hPa | 0V | 00:00:00 | 00:00:00 | 00:00:00 | |
| DL1XH-15 | 2026-08-31 09:55:57 | 50.82218 | 8.65655 | 61° | 91km/h | 13250m | 3.4m/s | 0°C | 0% | 0hPa | 0V | 00:00:00 | 00:00:00 | 00:00:00 | |
| DL1XH-west | 2026-08-31 09:55:57 | 50.82239 | 8.65719 | 62° | 91km/h | 13260m | 4.3m/s | -47°C | 0% | 0hPa | 4.9V | 00:00:00 | 00:00:00 | 00:00:00 | |
| DL3OBA | 2026-08-31 09:55:55 | 50.82228 | 8.65687 | 64° | 89km/h | 13257m | 3.1m/s | -46.9°C | 0% | 0hPa | 4.9V | 00:00:00 | 00:00:00 | 00:00:00 | |
| HSKMA3-T | 2026-08-31 09:55:54 | 50.82207 | 8.65623 | 62° | 93km/h | 13250m | 3.4m/s | -47°C | 0% | 0hPa | 4.9V | 00:00:00 | 00:00:00 | 00:00:00 | |
| DL1NUX | 2026-08-31 09:55:54 | 50.82162 | 8.65491 | 61° | 95km/h | 13233m | 3.1m/s | 0°C | 0% | 0hPa | 0V | 00:00:00 | 00:00:00 | 00:00:00 | |
| DO3DL | 2026-08-31 09:55:53 | 50.82207 | 8.65623 | 63° | 93km/h | 13250m | 3.4m/s | -47.0°C | 0% | 0hPa | 4.9V | 00:00:00 | 00:00:00 | 00:00:00 | |
| DO3MHA-11 | 2026-08-31 09:55:51 | 50.82184 | 8.65557 | 62° | 93km/h | 13240m | 2.6m/s | 0°C | 0% | 0hPa | 4.9V | 00:00:00 | 00:00:00 | 00:00:00 | |
| DO2JMG | 2026-08-31 09:55:48 | 50.82139 | 8.65423 | 63° | 95km/h | 13229m | 3.8m/s | -46.7°C | 0% | 0hPa | 4.9V | 00:00:00 | 00:00:00 | 00:00:00 | |
| SO1NDE-10 | 2026-08-31 09:55:48 | 50.82139 | 8.65423 | 64° | 97km/h | 13226m | 3.2m/s | 0°C | 0% | 0hPa | 0V | 00:00:00 | 00:00:00 | 00:00:00 | |
| DF2AP-13 | 2026-08-31 09:55:47 | 50.82139 | 8.65423 | 64° | 97km/h | 13226m | 3.2m/s | 0°C | 0% | 0hPa | 0V | 00:00:00 | 00:00:00 | 00:00:00 | |
| DL1XH-15 | 2026-08-31 09:55:46 | 50.82079 | 8.65222 | 62° | 95km/h | 13205m | 3.9m/s | 0°C | 0% | 0hPa | 0V | 00:00:00 | 00:00:00 | 00:00:00 | |
| DL1XH-west | 2026-08-31 09:55:46 | 50.82119 | 8.65356 | 66° | 91km/h | 13222m | 3m/s | -46.7°C | 0% | 0hPa | 4.9V | 00:00:00 | 00:00:00 | 00:00:00 | |
| DL1NUX | 2026-08-31 09:55:44 | 50.82056 | 8.65152 | 62° | 99km/h | 13199m | 3.7m/s | 0°C | 0% | 0hPa | 0V | 00:00:00 | 00:00:00 | 00:00:00 | |
| HSKMA3-T | 2026-08-31 09:55:43 | 50.82100 | 8.65289 | 65° | 93km/h | 13216m | 3.4m/s | -46.7°C | 0% | 0hPa | 4.9V | 00:00:00 | 00:00:00 | 00:00:00 | |
| DD1CC2-15 | 2026-08-31 09:55:42 | 50.82089 | 8.65255 | 65° | 93km/h | 13212m | 3.4m/s | -40.1°C | 0% | 0hPa | 4.9V | 00:00:00 | 00:00:00 | 00:00:00 | |
| DO3MHA-11 | 2026-08-31 09:55:41 | 50.82078 | 8.65222 | 63° | 97km/h | 13205m | 3.8m/s | 0°C | 0% | 0hPa | 4.9V | 00:00:00 | 00:00:00 | 00:00:00 | |
| DL1CLM-18 | 2026-08-31 09:55:40 | 50.82056 | 8.65153 | 63° | 99km/h | 13202m | 2.4m/s | -46.8°C | 0% | 0hPa | 4.9V | 00:00:00 | 00:00:00 | 00:00:00 | |
| DO3DL | 2026-08-31 09:55:39 | 50.82056 | 8.65153 | 63° | 99km/h | 13202m | 2.4m/s | -46.8°C | 0% | 0hPa | 4.9V | 00:00:00 | 00:00:00 | 00:00:00 | |
| DF8AY | 2026-08-31 09:55:38 | 50.82033 | 8.65084 | 63° | 95km/h | 13196m | 2.8m/s | -46.8°C | 0% | 0hPa | 4.9V | 00:00:00 | 00:00:00 | 00:00:00 | |
| DM0DOS-11 | 2026-08-31 09:55:37 | 50.82002 | 8.64979 | 66° | 97km/h | 13183m | 3.1m/s | 0°C | 0% | 0hPa | 0V | 00:00:00 | 00:00:00 | 00:00:00 | |
| DO2JMG | 2026-08-31 09:55:36 | 50.82022 | 8.65050 | 64° | 95km/h | 13193m | 3.2m/s | -46.8°C | 0% | 0hPa | 4.9V | 00:00:00 | 00:00:00 | 00:00:00 | |
| DL1XH-west | 2026-08-31 09:55:35 | 50.82002 | 8.64979 | 67° | 97km/h | 13186m | 3.4m/s | -46.8°C | 0% | 0hPa | 4.9V | 00:00:00 | 00:00:00 | 00:00:00 | |
| DL1NUX | 2026-08-31 09:55:34 | 50.81955 | 8.64800 | 67° | 99km/h | 13167m | 2.8m/s | 0°C | 0% | 0hPa | 0V | 00:00:00 | 00:00:00 | 00:00:00 | |
| HSKMA3-T | 2026-08-31 09:55:33 | 50.81983 | 8.64909 | 67° | 97km/h | 13180m | 2.6m/s | -46.8°C | 0% | 0hPa | 4.9V | 00:00:00 | 00:00:00 | 00:00:00 | |
| THATR2-17 | 2026-08-31 09:55:32 | 50.81720 | 8.64011 | 64° | 99km/h | 13097m | 0m/s | 0°C | 0% | 0hPa | 0V | 00:00:00 | 00:00:00 | 00:00:00 | |
| DO3MHA-11 | 2026-08-31 09:55:31 | 50.81973 | 8.64873 | 68° | 99km/h | 13174m | 2.8m/s | 0°C | 0% | 0hPa | 0V | 00:00:00 | 00:00:00 | 00:00:00 | |
| DO8TBO-1 | 2026-08-31 09:55:28 | 50.81935 | 8.64728 | 67° | 99km/h | 13161m | 2.7m/s | 0°C | 0% | 0hPa | 0V | 00:00:00 | 00:00:00 | 00:00:00 | |
| DM0DOS-11 | 2026-08-31 09:55:27 | 50.81905 | 8.64618 | 65° | 99km/h | 13154m | 3.1m/s | 0°C | 0% | 0hPa | 0V | 00:00:00 | 00:00:00 | 00:00:00 | |
| DO2JMG | 2026-08-31 09:55:26 | 50.81925 | 8.64691 | 67° | 100km/h | 13161m | 2.7m/s | -46.8°C | 0% | 0hPa | 4.9V | 00:00:00 | 00:00:00 | 00:00:00 | |
| DL1XH-15 | 2026-08-31 09:55:26 | 50.81872 | 8.64510 | 63° | 100km/h | 13141m | 3m/s | 0°C | 0% | 0hPa | 0V | 00:00:00 | 00:00:00 | 00:00:00 | |
| DL1XH-west | 2026-08-31 09:55:24 | 50.81895 | 8.64583 | 65° | 100km/h | 13151m | 3.4m/s | -46.7°C | 0% | 0hPa | 4.9V | 00:00:00 | 00:00:00 | 00:00:00 | |
| HSKMA3-T | 2026-08-31 09:55:22 | 50.81872 | 8.64510 | 64° | 100km/h | 13144m | 3.6m/s | -46.7°C | 0% | 0hPa | 4.9V | 00:00:00 | 00:00:00 | 00:00:00 | |
| DO3MHA-11 | 2026-08-31 09:55:21 | 50.81872 | 8.64510 | 64° | 99km/h | 13141m | 2.9m/s | 0°C | 0% | 0hPa | 0V | 00:00:00 | 00:00:00 | 00:00:00 | |
| DL1NUX | 2026-08-31 09:55:19 | 50.81839 | 8.64403 | 64° | 100km/h | 13130m | 3.7m/s | 0°C | 0% | 0hPa | 0V | 00:00:00 | 00:00:00 | 00:00:00 | |
| DO3DL | 2026-08-31 09:55:19 | 50.81839 | 8.64403 | 66° | 100km/h | 13134m | 3.2m/s | -46.9°C | 0% | 0hPa | 4.9V | 00:00:00 | 00:00:00 | 00:00:00 | |
| NBG1-10 | 2026-08-31 09:55:18 | 50.81839 | 8.64403 | 65° | 99km/h | 13131m | 3.6m/s | 0°C | 0% | 0hPa | 4.9V | 00:00:00 | 00:00:00 | 00:00:00 | |
| DF2AP-13 | 2026-08-31 09:55:17 | 50.81829 | 8.64367 | 65° | 99km/h | 13127m | 2.8m/s | 0°C | 0% | 0hPa | 4.9V | 00:00:00 | 00:00:00 | 00:00:00 | |
| DO2JMG | 2026-08-31 09:55:16 | 50.81808 | 8.64296 | 65° | 99km/h | 13124m | 4m/s | -47°C | 0% | 0hPa | 4.9V | 00:00:00 | 00:00:00 | 00:00:00 | |
| DL3OBA | 2026-08-31 09:55:14 | 50.81797 | 8.64259 | 66° | 100km/h | 13121m | 2.8m/s | -47.0°C | 0% | 0hPa | 4.9V | 00:00:00 | 00:00:00 | 00:00:00 | |
| DF8AY | 2026-08-31 09:55:13 | 50.81775 | 8.64188 | 64° | 99km/h | 13114m | 3.2m/s | -47°C | 0% | 0hPa | 4.9V | 00:00:00 | 00:00:00 | 00:00:00 | |
| HSKMA3-T | 2026-08-31 09:55:11 | 50.81753 | 8.64117 | 63° | 99km/h | 13107m | 2.9m/s | -47°C | 0% | 0hPa | 4.9V | 00:00:00 | 00:00:00 | 00:00:00 | |
| DO3MHA-11 | 2026-08-31 09:55:11 | 50.81764 | 8.64152 | 64° | 100km/h | 13107m | 2.8m/s | 0°C | 0% | 0hPa | 0V | 00:00:00 | 00:00:00 | 00:00:00 | |
| DO3DL | 2026-08-31 09:55:10 | 50.81753 | 8.64117 | 64° | 99km/h | 13107m | 2.8m/s | -47.0°C | 0% | 0hPa | 0V | 00:00:00 | 00:00:00 | 00:00:00 | |
| DL1NUX | 2026-08-31 09:55:09 | 50.81731 | 8.64047 | 64° | 99km/h | 13097m | 3.1m/s | 0°C | 0% | 0hPa | 0V | 00:00:00 | 00:00:00 | 00:00:00 | |
| DJTTGO | 2026-08-31 09:55:06 | 50.81709 | 8.63975 | 66° | 102km/h | 13094m | 3.0m/s | -47.2°C | 0% | 0hPa | 4.8V | 00:00:00 | 00:00:00 | 00:00:00 | |
| DO2JMG | 2026-08-31 09:55:04 | 50.81688 | 8.63901 | 66° | 100km/h | 13088m | 3.8m/s | -47.2°C | 0% | 0hPa | 4.8V | 00:00:00 | 00:00:00 | 00:00:00 | |
| DO3DL | 2026-08-31 09:55:03 | 50.81678 | 8.63864 | 67° | 99km/h | 13084m | 2.6m/s | -47.1°C | 0% | 0hPa | 4.9V | 00:00:00 | 00:00:00 | 00:00:00 | |
| BIOWL1-15 | 2026-08-31 09:55:02 | 50.81668 | 8.63829 | 65° | 99km/h | 13081m | 3.7m/s | -47.1°C | 0% | 0hPa | 4.9V | 00:00:00 | 00:00:00 | 00:00:00 | |
| HSKMA3-T | 2026-08-31 09:55:01 | 50.81645 | 8.63758 | 63° | 99km/h | 13075m | 3.1m/s | -47.1°C | 0% | 0hPa | 4.8V | 00:00:00 | 00:00:00 | 00:00:00 | |
| DO3MHA-11 | 2026-08-31 09:55:01 | 50.81656 | 8.63793 | 63° | 99km/h | 13075m | 3.1m/s | 0°C | 0% | 0hPa | 0V | 00:00:00 | 00:00:00 | 00:00:00 | |
| DL1NUX | 2026-08-31 09:54:59 | 50.81622 | 8.63688 | 63° | 99km/h | 13065m | 3.3m/s | 0°C | 0% | 0hPa | 0V | 00:00:00 | 00:00:00 | 00:00:00 | |
| DO8TBO-1 | 2026-08-31 09:54:57 | 50.81611 | 8.63652 | 64° | 100km/h | 13063m | 2.2m/s | 0°C | 0% | 0hPa | 0V | 00:00:00 | 00:00:00 | 00:00:00 | |
| DL1XH-15 | 2026-08-31 09:54:56 | 50.81545 | 8.63442 | 62° | 97km/h | 13044m | 3.2m/s | 0°C | 0% | 0hPa | 0V | 00:00:00 | 00:00:00 | 00:00:00 | |
| DL3OBA | 2026-08-31 09:54:54 | 50.81578 | 8.63545 | 66° | 97km/h | 13056m | 2.7m/s | -47.2°C | 0% | 0hPa | 4.9V | 00:00:00 | 00:00:00 | 00:00:00 | |
| DF8AY | 2026-08-31 09:54:52 | 50.81545 | 8.63442 | 62° | 97km/h | 13047m | 2.7m/s | -47.2°C | 0% | 0hPa | 4.9V | 00:00:00 | 00:00:00 | 00:00:00 | |
| DO3MHA-11 | 2026-08-31 09:54:51 | 50.81545 | 8.63442 | 63° | 99km/h | 13044m | 3.2m/s | 0°C | 0% | 0hPa | 0V | 00:00:00 | 00:00:00 | 00:00:00 | |
| BIOWL7-15 | 2026-08-31 09:54:50 | 50.81534 | 8.63408 | 63° | 95km/h | 13044m | 3.2m/s | -47.2°C | 0% | 0hPa | 0V | 00:00:00 | 00:00:00 | 00:00:00 | |
| DL1NUX | 2026-08-31 09:54:49 | 50.81511 | 8.63340 | 61° | 99km/h | 13034m | 3.3m/s | 0°C | 0% | 0hPa | 0V | 00:00:00 | 00:00:00 | 00:00:00 | |
| DF2AP-13 | 2026-08-31 09:54:47 | 50.81500 | 8.63305 | 63° | 100km/h | 13031m | 2.9m/s | 0°C | 0% | 0hPa | 4.9V | 00:00:00 | 00:00:00 | 00:00:00 | |
| NBG1-10 | 2026-08-31 09:54:45 | 50.81477 | 8.63235 | 65° | 102km/h | 13025m | 3.1m/s | 0°C | 0% | 0hPa | 4.9V | 00:00:00 | 00:00:00 | 00:00:00 | |
| DO3DL | 2026-08-31 09:54:44 | 50.81466 | 8.63199 | 65° | 100km/h | 13025m | 3.2m/s | -47.2°C | 0% | 0hPa | 4.9V | 00:00:00 | 00:00:00 | 00:00:00 | |
| DO3MHA-11 | 2026-08-31 09:54:41 | 50.81435 | 8.63092 | 66° | 100km/h | 13013m | 3.2m/s | 0°C | 0% | 0hPa | 4.9V | 00:00:00 | 00:00:00 | 00:00:00 | |
| DL1XH-west | 2026-08-31 09:54:40 | 50.81424 | 8.63055 | 65° | 100km/h | 13013m | 3.2m/s | -47.1°C | 0% | 0hPa | 4.9V | 00:00:00 | 00:00:00 | 00:00:00 | |
| DL1NUX | 2026-08-31 09:54:39 | 50.81403 | 8.62982 | 65° | 102km/h | 13003m | 2.7m/s | 0°C | 0% | 0hPa | 0V | 00:00:00 | 00:00:00 | 00:00:00 | |
| DO2JMG | 2026-08-31 09:54:38 | 50.81403 | 8.62982 | 65° | 102km/h | 13006m | 3.5m/s | -47.1°C | 0% | 0hPa | 4.9V | 00:00:00 | 00:00:00 | 00:00:00 | |
| DO3DL | 2026-08-31 09:54:38 | 50.81403 | 8.62982 | 66° | 102km/h | 13007m | 3.5m/s | -47.1°C | 0% | 0hPa | 0V | 00:00:00 | 00:00:00 | 00:00:00 | |
| DL1XH-15 | 2026-08-31 09:54:36 | 50.81326 | 8.62728 | 64° | 102km/h | 12982m | 2.4m/s | 0°C | 0% | 0hPa | 0V | 00:00:00 | 00:00:00 | 00:00:00 | |
| DM0DOS-11 | 2026-08-31 09:54:34 | 50.81304 | 8.62653 | 66° | 104km/h | 12973m | 3.5m/s | 0°C | 0% | 0hPa | 0V | 00:00:00 | 00:00:00 | 00:00:00 | |
| DL3OBA | 2026-08-31 09:54:33 | 50.81347 | 8.62801 | 65° | 100km/h | 12991m | 2.6m/s | -47.2°C | 0% | 0hPa | 0V | 00:00:00 | 00:00:00 | 00:00:00 | |
| DO3MHA-11 | 2026-08-31 09:54:31 | 50.81326 | 8.62728 | 65° | 102km/h | 12983m | 2.4m/s | 0°C | 0% | 0hPa | 0V | 00:00:00 | 00:00:00 | 00:00:00 | |
| DL1NUX | 2026-08-31 09:54:29 | 50.81293 | 8.62615 | 65° | 102km/h | 12973m | 3.5m/s | 0°C | 0% | 0hPa | 0V | 00:00:00 | 00:00:00 | 00:00:00 | |
| BIOWL1-15 | 2026-08-31 09:54:28 | 50.81250 | 8.62467 | 64° | 100km/h | 12964m | 2.7m/s | -47.2°C | 0% | 0hPa | 4.9V | 00:00:00 | 00:00:00 | 00:00:00 | |
| DO2JMG | 2026-08-31 09:54:28 | 50.81283 | 8.62578 | 66° | 102km/h | 12973m | 3.5m/s | -47.2°C | 0% | 0hPa | 4.9V | 00:00:00 | 00:00:00 | 00:00:00 | |
| DO8TBO-1 | 2026-08-31 09:54:27 | 50.81283 | 8.62577 | 66° | 102km/h | 12970m | 2.3m/s | 0°C | 0% | 0hPa | 0V | 00:00:00 | 00:00:00 | 00:00:00 | |
| DL1XH-15 | 2026-08-31 09:54:26 | 50.81216 | 8.62358 | 64° | 102km/h | 12952m | 2.4m/s | 0°C | 0% | 0hPa | 0V | 00:00:00 | 00:00:00 | 00:00:00 | |
| DO3DL | 2026-08-31 09:54:25 | 50.81261 | 8.62504 | 65° | 100km/h | 12968m | 3.4m/s | -47.1°C | 0% | 0hPa | 0V | 00:00:00 | 00:00:00 | 00:00:00 | |
| DM0DOS-11 | 2026-08-31 09:54:22 | 50.81194 | 8.62283 | 64° | 104km/h | 12946m | 2.8m/s | 0°C | 0% | 0hPa | 0V | 00:00:00 | 00:00:00 | 00:00:00 | |
| DO3MHA-11 | 2026-08-31 09:54:21 | 50.81216 | 8.62358 | 65° | 102km/h | 12952m | 2.3m/s | 0°C | 0% | 0hPa | 0V | 00:00:00 | 00:00:00 | 00:00:00 | |
| DD1CC2-15 | 2026-08-31 09:54:20 | 50.81205 | 8.62321 | 66° | 102km/h | 12952m | 2.4m/s | -40.5°C | 0% | 0hPa | 0V | 00:00:00 | 00:00:00 | 00:00:00 | |
| DL1NUX | 2026-08-31 09:54:19 | 50.81182 | 8.62246 | 64° | 106km/h | 12943m | 3.4m/s | 0°C | 0% | 0hPa | 0V | 00:00:00 | 00:00:00 | 00:00:00 | |
| DO3DL | 2026-08-31 09:54:18 | 50.81182 | 8.62245 | 65° | 106km/h | 12946m | 2.8m/s | -47.1°C | 0% | 0hPa | 4.9V | 00:00:00 | 00:00:00 | 00:00:00 | |
| DO2JMG | 2026-08-31 09:54:17 | 50.81160 | 8.62170 | 66° | 102km/h | 12940m | 2.7m/s | -47.1°C | 0% | 0hPa | 4.9V | 00:00:00 | 00:00:00 | 00:00:00 | |
| DL1XH-15 | 2026-08-31 09:54:16 | 50.81102 | 8.61990 | 61° | 100km/h | 12922m | 3m/s | 0°C | 0% | 0hPa | 0V | 00:00:00 | 00:00:00 | 00:00:00 | |
| BIOWL1-15 | 2026-08-31 09:54:15 | 50.81149 | 8.62133 | 65° | 102km/h | 12937m | 3.1m/s | -47.1°C | 0% | 0hPa | 4.9V | 00:00:00 | 00:00:00 | 00:00:00 | |
| DL3OBA | 2026-08-31 09:54:13 | 50.81126 | 8.62060 | 63° | 100km/h | 12931m | 2.5m/s | -47.1°C | 0% | 0hPa | 0V | 00:00:00 | 00:00:00 | 00:00:00 | |
| DM0DOS-11 | 2026-08-31 09:54:12 | 50.81078 | 8.61918 | 61° | 102km/h | 12916m | 3.4m/s | 0°C | 0% | 0hPa | 0V | 00:00:00 | 00:00:00 | 00:00:00 | |
| NBG1-10 | 2026-08-31 09:54:12 | 50.81114 | 8.62025 | 63° | 102km/h | 12925m | 2.7m/s | 0°C | 0% | 0hPa | 0V | 00:00:00 | 00:00:00 | 00:00:00 | |
| DO3MHA-11 | 2026-08-31 09:54:11 | 50.81103 | 8.61990 | 62° | 102km/h | 12922m | 2.9m/s | 0°C | 0% | 0hPa | 0V | 00:00:00 | 00:00:00 | 00:00:00 | |
| DL1NUX | 2026-08-31 09:54:09 | 50.81065 | 8.61882 | 61° | 102km/h | 12913m | 2.7m/s | 0°C | 0% | 0hPa | 0V | 00:00:00 | 00:00:00 | 00:00:00 | |
| DF8AY | 2026-08-31 09:54:09 | 50.81065 | 8.61882 | 61° | 102km/h | 12916m | 3.4m/s | -47.1°C | 0% | 0hPa | 4.9V | 00:00:00 | 00:00:00 | 00:00:00 | |
| DO2JMG | 2026-08-31 09:54:07 | 50.81041 | 8.61811 | 62° | 102km/h | 12909m | 3.4m/s | -47.2°C | 0% | 0hPa | 4.9V | 00:00:00 | 00:00:00 | 00:00:00 | |
| DL1XH-15 | 2026-08-31 09:54:06 | 50.80981 | 8.61632 | 61° | 100km/h | 12891m | 3.3m/s | 0°C | 0% | 0hPa | 0V | 00:00:00 | 00:00:00 | 00:00:00 | |
| DB0ND-19 | 2026-08-31 09:54:05 | 50.81017 | 8.61739 | 62° | 100km/h | 12903m | 3.6m/s | -47.6°C | -1.0% | -1.0hPa | 0V | 00:00:00 | 00:00:00 | 00:00:00 | |
| DM0DOS-11 | 2026-08-31 09:54:02 | 50.80956 | 8.61562 | 60° | 100km/h | 12884m | 3.4m/s | 0°C | 0% | 0hPa | 0V | 00:00:00 | 00:00:00 | 00:00:00 | |
| BIOWL1-15 | 2026-08-31 09:54:02 | 50.80981 | 8.61632 | 61° | 100km/h | 12894m | 2.3m/s | -47.1°C | 0% | 0hPa | 4.9V | 00:00:00 | 00:00:00 | 00:00:00 | |
| DO3MHA-11 | 2026-08-31 09:54:01 | 50.80981 | 8.61632 | 62° | 102km/h | 12891m | 3.3m/s | 0°C | 0% | 0hPa | 0V | 00:00:00 | 00:00:00 | 00:00:00 | |
| DO3DL | 2026-08-31 09:54:00 | 50.80956 | 8.61562 | 62° | 100km/h | 12888m | 3.1m/s | -47.1°C | 0% | 0hPa | 0V | 00:00:00 | 00:00:00 | 00:00:00 | |
| DL1NUX | 2026-08-31 09:53:59 | 50.80943 | 8.61526 | 60° | 102km/h | 12881m | 3.2m/s | 0°C | 0% | 0hPa | 0V | 00:00:00 | 00:00:00 | 00:00:00 | |
| DF8AY | 2026-08-31 09:53:59 | 50.80943 | 8.61526 | 60° | 102km/h | 12884m | 3.4m/s | -47°C | 0% | 0hPa | 4.9V | 00:00:00 | 00:00:00 | 00:00:00 | |
| DL1XH-west | 2026-08-31 09:53:58 | 50.80930 | 8.61491 | 60° | 102km/h | 12881m | 3.2m/s | -47°C | 0% | 0hPa | 4.9V | 00:00:00 | 00:00:00 | 00:00:00 | |
| DO8TBO-1 | 2026-08-31 09:53:57 | 50.80930 | 8.61491 | 61° | 104km/h | 12878m | 3.1m/s | 0°C | 0% | 0hPa | 0V | 00:00:00 | 00:00:00 | 00:00:00 | |
| DL1XH-15 | 2026-08-31 09:53:56 | 50.80856 | 8.61278 | 61° | 100km/h | 12860m | 3.4m/s | 0°C | 0% | 0hPa | 0V | 00:00:00 | 00:00:00 | 00:00:00 | |
| HSKMA3-T | 2026-08-31 09:53:56 | 50.80905 | 8.61420 | 62° | 100km/h | 12875m | 2.2m/s | -47°C | 0% | 0hPa | 4.9V | 00:00:00 | 00:00:00 | 00:00:00 | |
| DL3OBA | 2026-08-31 09:53:53 | 50.80869 | 8.61313 | 62° | 100km/h | 12867m | 3.5m/s | -46.9°C | 0% | 0hPa | 0V | 00:00:00 | 00:00:00 | 00:00:00 | |
| DM0DOS-11 | 2026-08-31 09:53:52 | 50.80831 | 8.61207 | 60° | 104km/h | 12854m | 3.3m/s | 0°C | 0% | 0hPa | 0V | 00:00:00 | 00:00:00 | 00:00:00 | |
| BIOWL1-15 | 2026-08-31 09:53:52 | 50.80856 | 8.61278 | 61° | 100km/h | 12863m | 2.5m/s | -46.9°C | 0% | 0hPa | 4.9V | 00:00:00 | 00:00:00 | 00:00:00 | |
| DO3MHA-11 | 2026-08-31 09:53:51 | 50.80856 | 8.61278 | 62° | 104km/h | 12861m | 3.3m/s | 0°C | 0% | 0hPa | 0V | 00:00:00 | 00:00:00 | 00:00:00 | |
| DL1NUX | 2026-08-31 09:53:49 | 50.80819 | 8.61171 | 60° | 104km/h | 12852m | 2.7m/s | 0°C | 0% | 0hPa | 0V | 00:00:00 | 00:00:00 | 00:00:00 | |
| DF8AY | 2026-08-31 09:53:48 | 50.80754 | 8.60989 | 61° | 104km/h | 12841m | 3.4m/s | -46.8°C | 0% | 0hPa | 4.9V | 00:00:00 | 00:00:00 | 00:00:00 | |
| DO2JMG | 2026-08-31 09:53:47 | 50.80806 | 8.61135 | 61° | 102km/h | 12852m | 2.7m/s | -46.8°C | 0% | 0hPa | 4.9V | 00:00:00 | 00:00:00 | 00:00:00 | |
| DL1XH-west | 2026-08-31 09:53:47 | 50.80793 | 8.61099 | 61° | 104km/h | 12849m | 2.6m/s | -46.8°C | 0% | 0hPa | 4.9V | 00:00:00 | 00:00:00 | 00:00:00 | |
| DF2AP-13 | 2026-08-31 09:53:47 | 50.80806 | 8.61136 | 61° | 106km/h | 12849m | 2.6m/s | 0°C | 0% | 0hPa | 0V | 00:00:00 | 00:00:00 | 00:00:00 | |
| DL1XH-15 | 2026-08-31 09:53:46 | 50.80729 | 8.60918 | 61° | 102km/h | 12832m | 2.9m/s | 0°C | 0% | 0hPa | 0V | 00:00:00 | 00:00:00 | 00:00:00 | |
| HSKMA3-T | 2026-08-31 09:53:45 | 50.80767 | 8.61026 | 61° | 106km/h | 12843m | 2.1m/s | -46.8°C | 0% | 0hPa | 4.9V | 00:00:00 | 00:00:00 | 00:00:00 | |
| DM0DOS-11 | 2026-08-31 09:53:42 | 50.80704 | 8.60846 | 61° | 102km/h | 12825m | 2.9m/s | 0°C | 0% | 0hPa | 0V | 00:00:00 | 00:00:00 | 00:00:00 | |
| BIOWL1-15 | 2026-08-31 09:53:41 | 50.80638 | 8.60659 | 60° | 108km/h | 12813m | 3m/s | -46.7°C | 0% | 0hPa | 4.9V | 00:00:00 | 00:00:00 | 00:00:00 | |
| DO3MHA-11 | 2026-08-31 09:53:41 | 50.80729 | 8.60918 | 62° | 106km/h | 12832m | 2.9m/s | 0°C | 0% | 0hPa | 0V | 00:00:00 | 00:00:00 | 00:00:00 | |
| DL1NUX | 2026-08-31 09:53:39 | 50.80692 | 8.60809 | 61° | 104km/h | 12822m | 3.6m/s | 0°C | 0% | 0hPa | 0V | 00:00:00 | 00:00:00 | 00:00:00 | |
| DL1XH-west | 2026-08-31 09:53:37 | 50.80666 | 8.60735 | 61° | 110km/h | 12819m | 2.9m/s | -46.7°C | 0% | 0hPa | 4.9V | 00:00:00 | 00:00:00 | 00:00:00 | |
| DL1XH-15 | 2026-08-31 09:53:36 | 50.80599 | 8.60546 | 62° | 106km/h | 12800m | 3.7m/s | 0°C | 0% | 0hPa | 0V | 00:00:00 | 00:00:00 | 00:00:00 | |
| DO3DL | 2026-08-31 09:53:34 | 50.80599 | 8.60546 | 64° | 108km/h | 12803m | 2.7m/s | -46.7°C | 0% | 0hPa | 0V | 00:00:00 | 00:00:00 | 00:00:00 | |
| HSKMA3-T | 2026-08-31 09:53:34 | 50.80625 | 8.60621 | 61° | 108km/h | 12810m | 2.8m/s | -46.7°C | 0% | 0hPa | 4.9V | 00:00:00 | 00:00:00 | 00:00:00 | |
| DM0DOS-11 | 2026-08-31 09:53:32 | 50.80574 | 8.60472 | 61° | 104km/h | 12794m | 4m/s | 0°C | 0% | 0hPa | 0V | 00:00:00 | 00:00:00 | 00:00:00 | |
| BIOWL1-15 | 2026-08-31 09:53:32 | 50.80574 | 8.60472 | 61° | 104km/h | 12797m | 2.5m/s | -46.6°C | 0% | 0hPa | 4.9V | 00:00:00 | 00:00:00 | 00:00:00 | |
| DB0NH | 2026-08-31 09:53:31 | 50.80599 | 8.60546 | 63° | 106km/h | 12794m | 3.9m/s | 0°C | 0% | 0hPa | 0V | 00:00:00 | 00:00:00 | 00:00:00 | |
| DL1NUX | 2026-08-31 09:53:29 | 50.80548 | 8.60397 | 60° | 108km/h | 12787m | 3.3m/s | 0°C | 0% | 0hPa | 0V | 00:00:00 | 00:00:00 | 00:00:00 | |
| DO8TBO-1 | 2026-08-31 09:53:27 | 50.80548 | 8.60397 | 61° | 108km/h | 12787m | 3.2m/s | 0°C | 0% | 0hPa | 0V | 00:00:00 | 00:00:00 | 00:00:00 | |
| DL1XH-15 | 2026-08-31 09:53:26 | 50.80466 | 8.60172 | 61° | 106km/h | 12767m | 3.5m/s | 0°C | 0% | 0hPa | 0V | 00:00:00 | 00:00:00 | 00:00:00 | |
| DF8AY | 2026-08-31 09:53:26 | 50.80521 | 8.60322 | 59° | 108km/h | 12784m | 3.2m/s | -46.5°C | 0% | 0hPa | 4.9V | 00:00:00 | 00:00:00 | 00:00:00 | |
| DO3DL | 2026-08-31 09:53:25 | 50.80506 | 8.60284 | 61° | 110km/h | 12781m | 3.6m/s | -46.5°C | 0% | 0hPa | 4.9V | 00:00:00 | 00:00:00 | 00:00:00 | |
| HSKMA3-T | 2026-08-31 09:53:24 | 50.80493 | 8.60247 | 60° | 110km/h | 12777m | 3m/s | -46.6°C | 0% | 0hPa | 4.9V | 00:00:00 | 00:00:00 | 00:00:00 | |
| DM0DOS-11 | 2026-08-31 09:53:22 | 50.80440 | 8.60098 | 62° | 106km/h | 12764m | 3.2m/s | 0°C | 0% | 0hPa | 0V | 00:00:00 | 00:00:00 | 00:00:00 | |
| DO3MHA-11 | 2026-08-31 09:53:21 | 50.80466 | 8.60172 | 62° | 106km/h | 12767m | 3.4m/s | 0°C | 0% | 0hPa | 4.9V | 00:00:00 | 00:00:00 | 00:00:00 | |
| BIOWL1-15 | 2026-08-31 09:53:20 | 50.80440 | 8.60098 | 63° | 106km/h | 12764m | 3.2m/s | -46.5°C | 0% | 0hPa | 4.9V | 00:00:00 | 00:00:00 | 00:00:00 | |
| DL1NUX | 2026-08-31 09:53:19 | 50.80416 | 8.60024 | 62° | 104km/h | 12754m | 3.2m/s | 0°C | 0% | 0hPa | 0V | 00:00:00 | 00:00:00 | 00:00:00 | |
| DD1CC2-15 | 2026-08-31 09:53:18 | 50.80428 | 8.60060 | 64° | 104km/h | 12761m | 3.2m/s | -39.9°C | 0% | 0hPa | 4.9V | 00:00:00 | 00:00:00 | 00:00:00 | |
| DF2AP-13 | 2026-08-31 09:53:17 | 50.80416 | 8.60024 | 63° | 106km/h | 12754m | 3.1m/s | 0°C | 0% | 0hPa | 4.9V | 00:00:00 | 00:00:00 | 00:00:00 | |
| DF8AY | 2026-08-31 09:53:15 | 50.80322 | 8.59758 | 60° | 110km/h | 12734m | 4m/s | -46.3°C | 0% | 0hPa | 4.9V | 00:00:00 | 00:00:00 | 00:00:00 | |
| DL1XH-west | 2026-08-31 09:53:15 | 50.80378 | 8.59911 | 61° | 110km/h | 12747m | 3.3m/s | -46.4°C | 0% | 0hPa | 4.9V | 00:00:00 | 00:00:00 | 00:00:00 | |
| HSKMA3-T | 2026-08-31 09:53:13 | 50.80350 | 8.59835 | 60° | 111km/h | 12741m | 3.8m/s | -46.3°C | 0% | 0hPa | 4.9V | 00:00:00 | 00:00:00 | 00:00:00 | |
| DO3MHA-11 | 2026-08-31 09:53:11 | 50.80336 | 8.59796 | 60° | 106km/h | 12734m | 3.9m/s | 0°C | 0% | 0hPa | 4.9V | 00:00:00 | 00:00:00 | 00:00:00 | |
| DO3DL | 2026-08-31 09:53:10 | 50.80322 | 8.59758 | 61° | 110km/h | 12734m | 4.0m/s | -46.3°C | 0% | 0hPa | 4.9V | 00:00:00 | 00:00:00 | 00:00:00 | |
| BIOWL1-15 | 2026-08-31 09:53:09 | 50.80295 | 8.59684 | 60° | 106km/h | 12727m | 4m/s | -46.2°C | 0% | 0hPa | 4.9V | 00:00:00 | 00:00:00 | 00:00:00 | |
| DO2KSM | 2026-08-31 09:53:08 | 50.80281 | 8.59647 | 62° | 106km/h | 12724m | 3.1m/s | -46.2°C | 0% | 0hPa | 0V | 00:00:00 | 00:00:00 | 00:00:00 | |
| DM0DOS-11 | 2026-08-31 09:53:07 | 50.80243 | 8.59539 | 60° | 104km/h | 12713m | 3.8m/s | 0°C | 0% | 0hPa | 0V | 00:00:00 | 00:00:00 | 00:00:00 | |
| DL1XH-15 | 2026-08-31 09:53:06 | 50.80203 | 8.59427 | 60° | 108km/h | 12699m | 2.8m/s | 0°C | 0% | 0hPa | 0V | 00:00:00 | 00:00:00 | 00:00:00 | |
| DF8AY | 2026-08-31 09:53:04 | 50.80229 | 8.59502 | 61° | 108km/h | 12710m | 3m/s | -46.1°C | 0% | 0hPa | 4.9V | 00:00:00 | 00:00:00 | 00:00:00 | |
| DO3DL | 2026-08-31 09:53:03 | 50.80230 | 8.59502 | 62° | 108km/h | 12710m | 3.0m/s | -46.1°C | 0% | 0hPa | 4.9V | 00:00:00 | 00:00:00 | 00:00:00 | |
| HSKMA3-T | 2026-08-31 09:53:02 | 50.80203 | 8.59427 | 60° | 108km/h | 12703m | 3.5m/s | -46.1°C | 0% | 0hPa | 4.9V | 00:00:00 | 00:00:00 | 00:00:00 | |
| BIOWL1-15 | 2026-08-31 09:53:02 | 50.80147 | 8.59275 | 60° | 108km/h | 12690m | 3.6m/s | -46°C | 0% | 0hPa | 4.9V | 00:00:00 | 00:00:00 | 00:00:00 | |
| DO3MHA-11 | 2026-08-31 09:53:01 | 50.80203 | 8.59427 | 61° | 106km/h | 12700m | 2.7m/s | 0°C | 0% | 0hPa | 0V | 00:00:00 | 00:00:00 | 00:00:00 | |
| DB0NH | 2026-08-31 09:53:00 | 50.80189 | 8.59388 | 60° | 108km/h | 12680m | 2.9m/s | 0°C | 0% | 0hPa | 0V | 00:00:00 | 00:00:00 | 00:00:00 | |
| DL1NUX | 2026-08-31 09:52:59 | 50.80147 | 8.59275 | 59° | 108km/h | 12687m | 2.8m/s | 0°C | 0% | 0hPa | 0V | 00:00:00 | 00:00:00 | 00:00:00 | |
| NBG1-10 | 2026-08-31 09:52:59 | 50.80175 | 8.59351 | 60° | 106km/h | 12690m | 3.6m/s | 0°C | 0% | 0hPa | 4.9V | 00:00:00 | 00:00:00 | 00:00:00 | |
| DD1CC2-15 | 2026-08-31 09:52:58 | 50.80161 | 8.59313 | 61° | 111km/h | 12693m | 2.5m/s | -39.3°C | 0% | 0hPa | 4.9V | 00:00:00 | 00:00:00 | 00:00:00 | |
| DO8TBO-1 | 2026-08-31 09:52:57 | 50.80147 | 8.59275 | 60° | 106km/h | 12687m | 2.8m/s | 0°C | 0% | 0hPa | 4.9V | 00:00:00 | 00:00:00 | 00:00:00 | |
| DO3DL | 2026-08-31 09:52:56 | 50.80133 | 8.59238 | 61° | 104km/h | 12687m | 2.8m/s | -46.0°C | 0% | 0hPa | 4.9V | 00:00:00 | 00:00:00 | 00:00:00 | |
| DF8AY | 2026-08-31 09:52:53 | 50.80084 | 8.59093 | 61° | 102km/h | 12673m | 2.9m/s | -46°C | 0% | 0hPa | 4.9V | 00:00:00 | 00:00:00 | 00:00:00 | |
| HSKMA3-T | 2026-08-31 09:52:51 | 50.80058 | 8.59020 | 61° | 108km/h | 12666m | 3.3m/s | -46°C | 0% | 0hPa | 4.9V | 00:00:00 | 00:00:00 | 00:00:00 | |
| DL3OBA | 2026-08-31 09:52:51 | 50.80058 | 8.59020 | 62° | 108km/h | 12666m | 3.3m/s | -46.0°C | 0% | 0hPa | 4.9V | 00:00:00 | 00:00:00 | 00:00:00 | |
| DO3DL | 2026-08-31 09:52:50 | 50.80058 | 8.59020 | 62° | 108km/h | 12666m | 3.3m/s | -46.0°C | 0% | 0hPa | 4.9V | 00:00:00 | 00:00:00 | 00:00:00 | |
| BIOWL1-15 | 2026-08-31 09:52:49 | 50.80017 | 8.58907 | 60° | 110km/h | 12655m | 4m/s | -46°C | 0% | 0hPa | 4.9V | 00:00:00 | 00:00:00 | 00:00:00 | |
| DL1NUX | 2026-08-31 09:52:49 | 50.80017 | 8.58907 | 59° | 110km/h | 12655m | 4m/s | 0°C | 0% | 0hPa | 0V | 00:00:00 | 00:00:00 | 00:00:00 | |
| DO2JMG | 2026-08-31 09:52:47 | 50.80003 | 8.58870 | 60° | 110km/h | 12652m | 2.7m/s | -46°C | 0% | 0hPa | 4.9V | 00:00:00 | 00:00:00 | 00:00:00 | |
| DO2KSM | 2026-08-31 09:52:46 | 50.80003 | 8.58869 | 61° | 110km/h | 12652m | 2.7m/s | -46.0°C | 0% | 0hPa | 4.9V | 00:00:00 | 00:00:00 | 00:00:00 | |
| DL1XH-west | 2026-08-31 09:52:43 | 50.79949 | 8.58725 | 60° | 102km/h | 12638m | 3.1m/s | -45.9°C | 0% | 0hPa | 4.9V | 00:00:00 | 00:00:00 | 00:00:00 | |
| BIOWL7-15 | 2026-08-31 09:52:42 | 50.79936 | 8.58689 | 61° | 104km/h | 12635m | 2.6m/s | -45.8°C | 0% | 0hPa | 4.9V | 00:00:00 | 00:00:00 | 00:00:00 | |
| HSKMA3-T | 2026-08-31 09:52:41 | 50.79923 | 8.58653 | 59° | 106km/h | 12631m | 3.5m/s | -45.9°C | 0% | 0hPa | 4.9V | 00:00:00 | 00:00:00 | 00:00:00 | |
| DL1NUX | 2026-08-31 09:52:39 | 50.79838 | 8.58425 | 59° | 108km/h | 12607m | 3.4m/s | 0°C | 0% | 0hPa | 0V | 00:00:00 | 00:00:00 | 00:00:00 | |
| DO3DL | 2026-08-31 09:52:38 | 50.79880 | 8.58540 | 61° | 113km/h | 12621m | 3.3m/s | -45.8°C | 0% | 0hPa | 4.9V | 00:00:00 | 00:00:00 | 00:00:00 | |
| DD1CC2-15 | 2026-08-31 09:52:37 | 50.79880 | 8.58540 | 61° | 113km/h | 12621m | 3.3m/s | -39.1°C | 0% | 0hPa | 4.9V | 00:00:00 | 00:00:00 | 00:00:00 | |
| DF8AY | 2026-08-31 09:52:32 | 50.79799 | 8.58315 | 63° | 104km/h | 12600m | 3.7m/s | -45.7°C | 0% | 0hPa | 4.9V | 00:00:00 | 00:00:00 | 00:00:00 | |
| DO3MHA-11 | 2026-08-31 09:52:31 | 50.79799 | 8.58315 | 63° | 106km/h | 12596m | 3.7m/s | 0°C | 0% | 0hPa | 4.9V | 00:00:00 | 00:00:00 | 00:00:00 | |
| HSKMA3-T | 2026-08-31 09:52:30 | 50.79774 | 8.58241 | 63° | 106km/h | 12593m | 2.7m/s | -45.7°C | 0% | 0hPa | 4.9V | 00:00:00 | 00:00:00 | 00:00:00 | |
| DL1XH-15 | 2026-08-31 09:52:29 | 50.79738 | 8.58126 | 62° | 108km/h | 12578m | 3.2m/s | 0°C | 0% | 0hPa | 0V | 00:00:00 | 00:00:00 | 00:00:00 | |
| DL1NUX | 2026-08-31 09:52:29 | 50.79713 | 8.58051 | 62° | 108km/h | 12568m | 3.2m/s | 0°C | 0% | 0hPa | 0V | 00:00:00 | 00:00:00 | 00:00:00 | |
| DO8TBO-1 | 2026-08-31 09:52:27 | 50.79751 | 8.58165 | 65° | 110km/h | 12582m | 4.0m/s | 0°C | 0% | 0hPa | 4.9V | 00:00:00 | 00:00:00 | 00:00:00 | |
| NBG1-10 | 2026-08-31 09:52:26 | 50.79738 | 8.58126 | 63° | 110km/h | 12575m | 4.0m/s | 0°C | 0% | 0hPa | 4.9V | 00:00:00 | 00:00:00 | 00:00:00 | |
| DO2KSM | 2026-08-31 09:52:25 | 50.79725 | 8.58088 | 63° | 108km/h | 12578m | 3.2m/s | 0°C | 0% | 0hPa | 4.9V | 00:00:00 | 00:00:00 | 00:00:00 | |
| DO3DL | 2026-08-31 09:52:24 | 50.79713 | 8.58051 | 63° | 108km/h | 12575m | 4.1m/s | -45.7°C | 0% | 0hPa | 4.9V | 00:00:00 | 00:00:00 | 00:00:00 | |
| DO2JMG | 2026-08-31 09:52:23 | 50.79688 | 8.57975 | 63° | 106km/h | 12568m | 3.2m/s | -45.7°C | 0% | 0hPa | 4.9V | 00:00:00 | 00:00:00 | 00:00:00 | |
| DF8AY | 2026-08-31 09:52:21 | 50.79663 | 8.57900 | 62° | 106km/h | 12561m | 3.5m/s | -45.7°C | 0% | 0hPa | 4.9V | 00:00:00 | 00:00:00 | 00:00:00 | |
| HSKMA3-T | 2026-08-31 09:52:19 | 50.79639 | 8.57825 | 64° | 106km/h | 12554m | 3.1m/s | -45.6°C | 0% | 0hPa | 4.9V | 00:00:00 | 00:00:00 | 00:00:00 | |
| DL1XH-15 | 2026-08-31 09:52:19 | 50.79615 | 8.57749 | 62° | 108km/h | 12543m | 4.1m/s | 0°C | 0% | 0hPa | 0V | 00:00:00 | 00:00:00 | 00:00:00 | |
| DL1NUX | 2026-08-31 09:52:18 | 50.79577 | 8.57633 | 62° | 110km/h | 12532m | 3m/s | 0°C | 0% | 0hPa | 0V | 00:00:00 | 00:00:00 | 00:00:00 | |
| DF2AP-13 | 2026-08-31 09:52:17 | 50.79627 | 8.57787 | 63° | 111km/h | 12547m | 3.2m/s | 0°C | 0% | 0hPa | 4.9V | 00:00:00 | 00:00:00 | 00:00:00 | |
| DO3DL | 2026-08-31 09:52:16 | 50.79602 | 8.57710 | 64° | 110km/h | 12543m | 4.1m/s | -45.5°C | 0% | 0hPa | 4.9V | 00:00:00 | 00:00:00 | 00:00:00 | |
| BIOWL1-15 | 2026-08-31 09:52:15 | 50.79538 | 8.57515 | 64° | 111km/h | 12525m | 3.1m/s | -45.5°C | 0% | 0hPa | 4.9V | 00:00:00 | 00:00:00 | 00:00:00 | |
| DO2JMG | 2026-08-31 09:52:13 | 50.79564 | 8.57594 | 62° | 111km/h | 12532m | 3m/s | -45.5°C | 0% | 0hPa | 4.9V | 00:00:00 | 00:00:00 | 00:00:00 | |
| DF8AY | 2026-08-31 09:52:10 | 50.79525 | 8.57475 | 64° | 113km/h | 12522m | 3.3m/s | -45.5°C | 0% | 0hPa | 4.9V | 00:00:00 | 00:00:00 | 00:00:00 | |
| DB0NH | 2026-08-31 09:52:10 | 50.79538 | 8.57515 | 63° | 113km/h | 12522m | 3.2m/s | 0°C | 0% | 0hPa | 0V | 00:00:00 | 00:00:00 | 00:00:00 | |
| DO3DL | 2026-08-31 09:52:09 | 50.79525 | 8.57475 | 64° | 113km/h | 12522m | 3.3m/s | -45.5°C | 0% | 0hPa | 0V | 00:00:00 | 00:00:00 | 00:00:00 | |
| DL1NUX | 2026-08-31 09:52:08 | 50.79448 | 8.57236 | 62° | 111km/h | 12497m | 3.8m/s | 0°C | 0% | 0hPa | 0V | 00:00:00 | 00:00:00 | 00:00:00 | |
| HSKMA3-T | 2026-08-31 09:52:08 | 50.79499 | 8.57394 | 63° | 113km/h | 12515m | 3.8m/s | -45.5°C | 0% | 0hPa | 4.9V | 00:00:00 | 00:00:00 | 00:00:00 | |
| DO3DL | 2026-08-31 09:52:03 | 50.79447 | 8.57236 | 63° | 111km/h | 12501m | 2.9m/s | -45.5°C | 0% | 0hPa | 4.9V | 00:00:00 | 00:00:00 | 00:00:00 | |
| DO3MHA-11 | 2026-08-31 09:52:01 | 50.79422 | 8.57157 | 63° | 113km/h | 12491m | 3.7m/s | 0°C | 0% | 0hPa | 4.9V | 00:00:00 | 00:00:00 | 00:00:00 | |
| DL1XH-west | 2026-08-31 09:52:00 | 50.79396 | 8.57078 | 62° | 111km/h | 12487m | 3m/s | -45.5°C | 0% | 0hPa | 4.9V | 00:00:00 | 00:00:00 | 00:00:00 | |
| DL1XH-15 | 2026-08-31 09:51:59 | 50.79356 | 8.56960 | 61° | 113km/h | 12473m | 3.1m/s | 0°C | 0% | 0hPa | 0V | 00:00:00 | 00:00:00 | 00:00:00 | |
| DL1NUX | 2026-08-31 09:51:58 | 50.79315 | 8.56841 | 61° | 113km/h | 12462m | 3.7m/s | 0°C | 0% | 0hPa | 0V | 00:00:00 | 00:00:00 | 00:00:00 | |
| HSKMA3-T | 2026-08-31 09:51:57 | 50.79356 | 8.56960 | 62° | 113km/h | 12477m | 4.2m/s | -45.5°C | 0% | 0hPa | 4.9V | 00:00:00 | 00:00:00 | 00:00:00 | |
| EDDB2-11 | 2026-08-31 09:51:56 | 50.79342 | 8.56920 | 61° | 113km/h | 12473m | 3.1m/s | -45.9°C | -1.0% | -1.0hPa | 0V | 00:00:00 | 00:00:00 | 00:00:00 | |
| THATR2-17 | 2026-08-31 09:51:55 | 50.79220 | 8.56566 | 60° | 111km/h | 12442m | 0m/s | 0°C | 0% | 0hPa | 0V | 00:00:00 | 00:00:00 | 00:00:00 | |
| NBG1-10 | 2026-08-31 09:51:53 | 50.79315 | 8.56840 | 62° | 115km/h | 12459m | 3.1m/s | 0°C | 0% | 0hPa | 0V | 00:00:00 | 00:00:00 | 00:00:00 | |
| DO3MHA-11 | 2026-08-31 09:51:51 | 50.79288 | 8.56761 | 62° | 113km/h | 12456m | 2.9m/s | 0°C | 0% | 0hPa | 0V | 00:00:00 | 00:00:00 | 00:00:00 | |
| DO3DL | 2026-08-31 09:51:50 | 50.79274 | 8.56722 | 62° | 113km/h | 12456m | 2.9m/s | -45.6°C | 0% | 0hPa | 0V | 00:00:00 | 00:00:00 | 00:00:00 | |
| DL1XH-15 | 2026-08-31 09:51:49 | 50.79220 | 8.56566 | 60° | 111km/h | 12439m | 3.5m/s | 0°C | 0% | 0hPa | 0V | 00:00:00 | 00:00:00 | 00:00:00 | |
| BIOWL1-15 | 2026-08-31 09:51:49 | 50.79247 | 8.56643 | 62° | 111km/h | 12449m | 2.9m/s | -45.7°C | 0% | 0hPa | 4.9V | 00:00:00 | 00:00:00 | 00:00:00 | |
| DL1NUX | 2026-08-31 09:51:48 | 50.79178 | 8.56446 | 61° | 115km/h | 12429m | 3.1m/s | 0°C | 0% | 0hPa | 0V | 00:00:00 | 00:00:00 | 00:00:00 | |
| HSKMA3-T | 2026-08-31 09:51:47 | 50.79220 | 8.56566 | 60° | 111km/h | 12442m | 3.4m/s | -45.7°C | 0% | 0hPa | 4.9V | 00:00:00 | 00:00:00 | 00:00:00 | |
| DJ3KS | 2026-08-31 09:51:46 | 50.79206 | 8.56527 | 62° | 113km/h | 12439m | 3.6m/s | -39.0°C | 0% | 0hPa | 0V | 00:00:00 | 00:00:00 | 00:00:00 | |
| SO1NDE-10 | 2026-08-31 09:51:43 | 50.79178 | 8.56446 | 62° | 117km/h | 12429m | 3.0m/s | 0°C | 0% | 0hPa | 0V | 00:00:00 | 00:00:00 | 00:00:00 | |
| DO3MHA-11 | 2026-08-31 09:51:41 | 50.79150 | 8.56364 | 63° | 115km/h | 12422m | 3.0m/s | 0°C | 0% | 0hPa | 0V | 00:00:00 | 00:00:00 | 00:00:00 | |
| DB0NH | 2026-08-31 09:51:40 | 50.79136 | 8.56323 | 62° | 117km/h | 12418m | 3.3m/s | 0°C | 0% | 0hPa | 0V | 00:00:00 | 00:00:00 | 00:00:00 | |
| DL1NUX | 2026-08-31 09:51:38 | 50.79034 | 8.56043 | 59° | 113km/h | 12393m | 2.8m/s | 0°C | 0% | 0hPa | 0V | 00:00:00 | 00:00:00 | 00:00:00 | |
| DF8AY | 2026-08-31 09:51:38 | 50.79094 | 8.56201 | 60° | 117km/h | 12411m | 4.2m/s | -45.8°C | 0% | 0hPa | 4.9V | 00:00:00 | 00:00:00 | 00:00:00 | |
| DO3DL | 2026-08-31 09:51:37 | 50.79094 | 8.56201 | 61° | 117km/h | 12411m | 4.2m/s | -45.8°C | 0% | 0hPa | 4.9V | 00:00:00 | 00:00:00 | 00:00:00 | |
| BIOWL1-15 | 2026-08-31 09:51:37 | 50.79005 | 8.55964 | 60° | 115km/h | 12390m | 3.5m/s | -45.9°C | 0% | 0hPa | 4.9V | 00:00:00 | 00:00:00 | 00:00:00 | |
| HSKMA3-T | 2026-08-31 09:51:36 | 50.79064 | 8.56121 | 59° | 115km/h | 12404m | 3.7m/s | -45.8°C | 0% | 0hPa | 4.9V | 00:00:00 | 00:00:00 | 00:00:00 | |
| DO3MHA-11 | 2026-08-31 09:51:31 | 50.79005 | 8.55964 | 61° | 117km/h | 12387m | 3.1m/s | 0°C | 0% | 0hPa | 4.9V | 00:00:00 | 00:00:00 | 00:00:00 | |
| DO3DL | 2026-08-31 09:51:30 | 50.78991 | 8.55924 | 62° | 115km/h | 12387m | 3.1m/s | -46.0°C | 0% | 0hPa | 4.9V | 00:00:00 | 00:00:00 | 00:00:00 | |
| DF8AY | 2026-08-31 09:51:28 | 50.78949 | 8.55801 | 61° | 119km/h | 12377m | 3m/s | -45.9°C | 0% | 0hPa | 4.9V | 00:00:00 | 00:00:00 | 00:00:00 | |
| DL1XH-west | 2026-08-31 09:51:27 | 50.78934 | 8.55760 | 61° | 117km/h | 12374m | 3.6m/s | -45.9°C | 0% | 0hPa | 4.9V | 00:00:00 | 00:00:00 | 00:00:00 | |
| HSKMA3-T | 2026-08-31 09:51:25 | 50.78905 | 8.55680 | 60° | 115km/h | 12367m | 3.9m/s | -46°C | 0% | 0hPa | 4.9V | 00:00:00 | 00:00:00 | 00:00:00 | |
| BIOWL1-15 | 2026-08-31 09:51:24 | 50.78875 | 8.55600 | 59° | 115km/h | 12360m | 3.7m/s | -46.2°C | 0% | 0hPa | 4.9V | 00:00:00 | 00:00:00 | 00:00:00 | |
| DM0DOS-11 | 2026-08-31 09:51:23 | 50.78815 | 8.55438 | 60° | 119km/h | 12339m | 3.3m/s | 0°C | 0% | 0hPa | 0V | 00:00:00 | 00:00:00 | 00:00:00 | |
| DO3MHA-11 | 2026-08-31 09:51:21 | 50.78860 | 8.55561 | 60° | 119km/h | 12353m | 3.8m/s | 0°C | 0% | 0hPa | 0V | 00:00:00 | 00:00:00 | 00:00:00 | |
| NBG1-10 | 2026-08-31 09:51:20 | 50.78845 | 8.55520 | 60° | 117km/h | 12350m | 3.0m/s | 0°C | 0% | 0hPa | 0V | 00:00:00 | 00:00:00 | 00:00:00 | |
| DL1NUX | 2026-08-31 09:51:18 | 50.78740 | 8.55232 | 59° | 119km/h | 12326m | 3.6m/s | 0°C | 0% | 0hPa | 0V | 00:00:00 | 00:00:00 | 00:00:00 | |
| DF8AY | 2026-08-31 09:51:17 | 50.78709 | 8.55150 | 60° | 120km/h | 12322m | 2.7m/s | -46.2°C | 0% | 0hPa | 4.9V | 00:00:00 | 00:00:00 | 00:00:00 | |
| DF2AP-13 | 2026-08-31 09:51:17 | 50.78800 | 8.55396 | 61° | 117km/h | 12340m | 3.2m/s | 0°C | 0% | 0hPa | 4.9V | 00:00:00 | 00:00:00 | 00:00:00 | |
| DL1XH-west | 2026-08-31 09:51:16 | 50.78786 | 8.55355 | 60° | 119km/h | 12339m | 3.3m/s | -46°C | 0% | 0hPa | 4.9V | 00:00:00 | 00:00:00 | 00:00:00 | |
| DD1CC2-15 | 2026-08-31 09:51:15 | 50.78770 | 8.55314 | 61° | 119km/h | 12336m | 3.4m/s | -39.4°C | 0% | 0hPa | 4.9V | 00:00:00 | 00:00:00 | 00:00:00 | |
| HSKMA3-T | 2026-08-31 09:51:14 | 50.78740 | 8.55232 | 59° | 119km/h | 12329m | 3.2m/s | -46.2°C | 0% | 0hPa | 4.9V | 00:00:00 | 00:00:00 | 00:00:00 | |
| SO1NDE-10 | 2026-08-31 09:51:13 | 50.78740 | 8.55232 | 60° | 117km/h | 12326m | 3.5m/s | 0°C | 0% | 0hPa | 4.9V | 00:00:00 | 00:00:00 | 00:00:00 | |
| BIOWL1-15 | 2026-08-31 09:51:12 | 50.78694 | 8.55109 | 59° | 120km/h | 12319m | 3.6m/s | -46.2°C | 0% | 0hPa | 4.9V | 00:00:00 | 00:00:00 | 00:00:00 | |
| DM0DOS-11 | 2026-08-31 09:51:11 | 50.78663 | 8.55026 | 59° | 119km/h | 12309m | 3.1m/s | 0°C | 0% | 0hPa | 0V | 00:00:00 | 00:00:00 | 00:00:00 | |
| DO3MHA-11 | 2026-08-31 09:51:11 | 50.78709 | 8.55150 | 60° | 117km/h | 12319m | 3.6m/s | 0°C | 0% | 0hPa | 0V | 00:00:00 | 00:00:00 | 00:00:00 | |
| DB0NH | 2026-08-31 09:51:10 | 50.78693 | 8.55108 | 60° | 115km/h | 12319m | 3.6m/s | 0°C | 0% | 0hPa | 0V | 00:00:00 | 00:00:00 | 00:00:00 | |
| DL1XH-15 | 2026-08-31 09:51:09 | 50.78617 | 8.54904 | 58° | 115km/h | 12299m | 3.2m/s | 0°C | 0% | 0hPa | 0V | 00:00:00 | 00:00:00 | 00:00:00 | |
| DL1NUX | 2026-08-31 09:51:08 | 50.78587 | 8.54826 | 59° | 113km/h | 12292m | 2.8m/s | 0°C | 0% | 0hPa | 0V | 00:00:00 | 00:00:00 | 00:00:00 | |
| DL1XH-west | 2026-08-31 09:51:06 | 50.78617 | 8.54904 | 59° | 115km/h | 12302m | 3.4m/s | -46.5°C | 0% | 0hPa | 4.9V | 00:00:00 | 00:00:00 | 00:00:00 | |
| BIOWL1-15 | 2026-08-31 09:51:05 | 50.78542 | 8.54710 | 58° | 115km/h | 12285m | 3.3m/s | -46.6°C | 0% | 0hPa | 4.9V | 00:00:00 | 00:00:00 | 00:00:00 | |
| DO3DL | 2026-08-31 09:51:05 | 50.78602 | 8.54865 | 60° | 115km/h | 12299m | 3.3m/s | -46.5°C | 0% | 0hPa | 4.9V | 00:00:00 | 00:00:00 | 00:00:00 | |
| HSKMA3-T | 2026-08-31 09:51:03 | 50.78587 | 8.54826 | 59° | 113km/h | 12295m | 3.5m/s | -46.6°C | 0% | 0hPa | 4.9V | 00:00:00 | 00:00:00 | 00:00:00 | |
| DO3MHA-11 | 2026-08-31 09:51:01 | 50.78558 | 8.54749 | 59° | 115km/h | 12286m | 3.3m/s | 0°C | 0% | 0hPa | 0V | 00:00:00 | 00:00:00 | 00:00:00 | |
| DM0DOS-11 | 2026-08-31 09:51:00 | 50.78512 | 8.54630 | 58° | 117km/h | 12265m | 3.3m/s | 0°C | 0% | 0hPa | 0V | 00:00:00 | 00:00:00 | 00:00:00 | |
| DL1XH-15 | 2026-08-31 09:50:59 | 50.78465 | 8.54510 | 58° | 115km/h | 12265m | 3.3m/s | 0°C | 0% | 0hPa | 0V | 00:00:00 | 00:00:00 | 00:00:00 | |
| DO3DL | 2026-08-31 09:50:58 | 50.78512 | 8.54630 | 60° | 117km/h | 12279m | 3.3m/s | -46.5°C | 0% | 0hPa | 4.9V | 00:00:00 | 00:00:00 | 00:00:00 | |
| DO8TBO-1 | 2026-08-31 09:50:57 | 50.78496 | 8.54587 | 58° | 117km/h | 12261m | 3.0m/s | 0°C | 0% | 0hPa | 4.9V | 00:00:00 | 00:00:00 | 00:00:00 | |
| DL1XH-west | 2026-08-31 09:50:55 | 50.78449 | 8.54472 | 58° | 115km/h | 12265m | 3.3m/s | -46.4°C | 0% | 0hPa | 4.9V | 00:00:00 | 00:00:00 | 00:00:00 | |
| HSKMA3-T | 2026-08-31 09:50:53 | 50.78419 | 8.54395 | 58° | 113km/h | 12258m | 3.7m/s | -46.4°C | 0% | 0hPa | 4.9V | 00:00:00 | 00:00:00 | 00:00:00 | |
| DO3DL | 2026-08-31 09:50:52 | 50.78404 | 8.54356 | 60° | 113km/h | 12255m | 2.9m/s | -46.4°C | 0% | 0hPa | 0V | 00:00:00 | 00:00:00 | 00:00:00 | |
| DO3MHA-11 | 2026-08-31 09:50:51 | 50.78404 | 8.54356 | 60° | 117km/h | 12251m | 3.3m/s | 0°C | 0% | 0hPa | 0V | 00:00:00 | 00:00:00 | 00:00:00 | |
| BIOWL1-15 | 2026-08-31 09:50:51 | 50.78389 | 8.54317 | 59° | 115km/h | 12251m | 3.4m/s | -46.4°C | 0% | 0hPa | 4.9V | 00:00:00 | 00:00:00 | 00:00:00 | |
| DL1NUX | 2026-08-31 09:50:49 | 50.78282 | 8.54033 | 59° | 117km/h | 12225m | 2.4m/s | 0°C | 0% | 0hPa | 0V | 00:00:00 | 00:00:00 | 00:00:00 | |
| DF2AP-13 | 2026-08-31 09:50:47 | 50.78343 | 8.54197 | 60° | 117km/h | 12238m | 3.3m/s | 0°C | 0% | 0hPa | 0V | 00:00:00 | 00:00:00 | 00:00:00 | |
| DL1XH-15 | 2026-08-31 09:50:46 | 50.78312 | 8.54115 | 59° | 120km/h | 12228m | 3.7m/s | 0°C | 0% | 0hPa | 0V | 00:00:00 | 00:00:00 | 00:00:00 | |
| DO3DL | 2026-08-31 09:50:45 | 50.78312 | 8.54114 | 60° | 120km/h | 12235m | 3.7m/s | -46.4°C | 0% | 0hPa | 4.9V | 00:00:00 | 00:00:00 | 00:00:00 | |
| DL1XH-west | 2026-08-31 09:50:44 | 50.78282 | 8.54033 | 60° | 117km/h | 12228m | 3.7m/s | -46.4°C | 0% | 0hPa | 4.9V | 00:00:00 | 00:00:00 | 00:00:00 | |
| SO1NDE-10 | 2026-08-31 09:50:43 | 50.78282 | 8.54033 | 60° | 115km/h | 12225m | 2.4m/s | 0°C | 0% | 0hPa | 4.9V | 00:00:00 | 00:00:00 | 00:00:00 | |
| HSKMA3-T | 2026-08-31 09:50:42 | 50.78252 | 8.53953 | 60° | 115km/h | 12222m | 3.5m/s | -46.4°C | 0% | 0hPa | 4.9V | 00:00:00 | 00:00:00 | 00:00:00 | |
| DO3MHA-11 | 2026-08-31 09:50:41 | 50.78252 | 8.53953 | 60° | 117km/h | 12218m | 3.0m/s | 0°C | 0% | 0hPa | 4.9V | 00:00:00 | 00:00:00 | 00:00:00 | |
| BIOWL1-15 | 2026-08-31 09:50:40 | 50.78238 | 8.53914 | 59° | 115km/h | 12218m | 3m/s | -46.5°C | 0% | 0hPa | 4.9V | 00:00:00 | 00:00:00 | 00:00:00 | |
| DO3DL | 2026-08-31 09:50:39 | 50.78223 | 8.53874 | 61° | 115km/h | 12215m | 3.9m/s | -46.5°C | 0% | 0hPa | 0V | 00:00:00 | 00:00:00 | 00:00:00 | |
| DL1NUX | 2026-08-31 09:50:38 | 50.78136 | 8.53633 | 59° | 119km/h | 12191m | 2.6m/s | 0°C | 0% | 0hPa | 0V | 00:00:00 | 00:00:00 | 00:00:00 | |
| DM0DOS-11 | 2026-08-31 09:50:37 | 50.78165 | 8.53714 | 60° | 117km/h | 12197m | 3.1m/s | 0°C | 0% | 0hPa | 0V | 00:00:00 | 00:00:00 | 00:00:00 | |
| DD1CC2-15 | 2026-08-31 09:50:35 | 50.78151 | 8.53673 | 62° | 117km/h | 12197m | 3.1m/s | -39.9°C | 0% | 0hPa | 4.9V | 00:00:00 | 00:00:00 | 00:00:00 | |
| DO2KSM | 2026-08-31 09:50:34 | 50.78136 | 8.53632 | 61° | 119km/h | 12194m | 3.6m/s | -46.5°C | 0% | 0hPa | 4.9V | 00:00:00 | 00:00:00 | 00:00:00 | |
| DL1XH-west | 2026-08-31 09:50:33 | 50.78121 | 8.53592 | 60° | 119km/h | 12191m | 2.6m/s | -46.5°C | 0% | 0hPa | 4.9V | 00:00:00 | 00:00:00 | 00:00:00 | |
| HSKMA3-T | 2026-08-31 09:50:31 | 50.78091 | 8.53509 | 60° | 119km/h | 12185m | 2.8m/s | -46.4°C | 0% | 0hPa | 4.9V | 00:00:00 | 00:00:00 | 00:00:00 | |
| DO3MHA-11 | 2026-08-31 09:50:31 | 50.78106 | 8.53550 | 61° | 115km/h | 12185m | 2.8m/s | 0°C | 0% | 0hPa | 4.9V | 00:00:00 | 00:00:00 | 00:00:00 | |
| BIOWL1-15 | 2026-08-31 09:50:30 | 50.78061 | 8.53427 | 60° | 117km/h | 12178m | 2.7m/s | -46.4°C | 0% | 0hPa | 4.9V | 00:00:00 | 00:00:00 | 00:00:00 | |
| DL1NUX | 2026-08-31 09:50:28 | 50.77988 | 8.53234 | 59° | 113km/h | 12158m | 2.7m/s | 0°C | 0% | 0hPa | 0V | 00:00:00 | 00:00:00 | 00:00:00 | |
| DO8TBO-1 | 2026-08-31 09:50:27 | 50.78046 | 8.53387 | 60° | 113km/h | 12172m | 2.6m/s | 0°C | 0% | 0hPa | 0V | 00:00:00 | 00:00:00 | 00:00:00 | |
| DO3DL | 2026-08-31 09:50:26 | 50.78032 | 8.53349 | 60° | 111km/h | 12172m | 2.7m/s | -46.4°C | 0% | 0hPa | 0V | 00:00:00 | 00:00:00 | 00:00:00 | |
| DM0DOS-11 | 2026-08-31 09:50:25 | 50.78017 | 8.53311 | 58° | 111km/h | 12165m | 2.9m/s | 0°C | 0% | 0hPa | 0V | 00:00:00 | 00:00:00 | 00:00:00 | |
| DJ3KS | 2026-08-31 09:50:24 | 50.78002 | 8.53272 | 60° | 113km/h | 12165m | 2.9m/s | -39.7°C | 0% | 0hPa | 4.9V | 00:00:00 | 00:00:00 | 00:00:00 | |
| DL1XH-west | 2026-08-31 09:50:22 | 50.77974 | 8.53195 | 60° | 113km/h | 12158m | 2.7m/s | -46.4°C | 0% | 0hPa | 4.9V | 00:00:00 | 00:00:00 | 00:00:00 | |
| HSKMA3-T | 2026-08-31 09:50:21 | 50.77945 | 8.53115 | 60° | 115km/h | 12152m | 2.9m/s | -46.4°C | 0% | 0hPa | 4.9V | 00:00:00 | 00:00:00 | 00:00:00 | |
| DM0DOS-11 | 2026-08-31 09:50:20 | 50.77875 | 8.52916 | 61° | 111km/h | 12133m | 2.8m/s | 0°C | 0% | 0hPa | 0V | 00:00:00 | 00:00:00 | 00:00:00 | |
| DO3DL | 2026-08-31 09:50:19 | 50.77930 | 8.53075 | 62° | 115km/h | 12149m | 3.7m/s | -46.4°C | 0% | 0hPa | 4.9V | 00:00:00 | 00:00:00 | 00:00:00 | |
| BIOWL1-15 | 2026-08-31 09:50:18 | 50.77903 | 8.52995 | 61° | 113km/h | 12143m | 3.6m/s | -46.5°C | 0% | 0hPa | 4.9V | 00:00:00 | 00:00:00 | 00:00:00 | |
| DL1NUX | 2026-08-31 09:50:18 | 50.77848 | 8.52840 | 60° | 110km/h | 12104m | 3.1m/s | 0°C | 0% | 0hPa | 0V | 00:00:00 | 00:00:00 | 00:00:00 | |
| DF2AP-13 | 2026-08-31 09:50:17 | 50.77903 | 8.52995 | 62° | 115km/h | 12140m | 3.1m/s | 0°C | 0% | 0hPa | 4.9V | 00:00:00 | 00:00:00 | 00:00:00 | |
| DO2JMG | 2026-08-31 09:50:16 | 50.77875 | 8.52916 | 61° | 111km/h | 12136m | 3.8m/s | -46.5°C | 0% | 0hPa | 4.9V | 00:00:00 | 00:00:00 | 00:00:00 | |
| DD1CC2-15 | 2026-08-31 09:50:14 | 50.77862 | 8.52878 | 62° | 110km/h | 12133m | 2.8m/s | -39.8°C | 0% | 0hPa | 4.9V | 00:00:00 | 00:00:00 | 00:00:00 | |
| SO1NDE-10 | 2026-08-31 09:50:13 | 50.77848 | 8.52840 | 61° | 115km/h | 12104m | 3.1m/s | 0°C | 0% | 0hPa | 4.9V | 00:00:00 | 00:00:00 | 00:00:00 | |
| DL1XH-west | 2026-08-31 09:50:12 | 50.77821 | 8.52764 | 61° | 110km/h | 12123m | 3.5m/s | -46.5°C | 0% | 0hPa | 4.9V | 00:00:00 | 00:00:00 | 00:00:00 | |
| DL1XH-15 | 2026-08-31 09:50:11 | 50.77753 | 8.52564 | 64° | 117km/h | 12104m | 3.1m/s | 0°C | 0% | 0hPa | 0V | 00:00:00 | 00:00:00 | 00:00:00 | |
| DO3MHA-11 | 2026-08-31 09:50:11 | 50.77821 | 8.52764 | 61° | 113km/h | 12120m | 2.6m/s | 0°C | 0% | 0hPa | 0V | 00:00:00 | 00:00:00 | 00:00:00 | |
| DM0DOS-11 | 2026-08-31 09:50:10 | 50.77740 | 8.52522 | 64° | 117km/h | 12101m | 3m/s | 0°C | 0% | 0hPa | 0V | 00:00:00 | 00:00:00 | 00:00:00 | |
| HSKMA3-T | 2026-08-31 09:50:10 | 50.77794 | 8.52688 | 61° | 113km/h | 12117m | 3.8m/s | -46.5°C | 0% | 0hPa | 4.9V | 00:00:00 | 00:00:00 | 00:00:00 | |
| DL3OBA | 2026-08-31 09:50:07 | 50.77753 | 8.52564 | 65° | 117km/h | 12107m | 3.5m/s | -46.5°C | 0% | 0hPa | 4.9V | 00:00:00 | 00:00:00 | 00:00:00 | |
| DO3DL | 2026-08-31 09:50:06 | 50.77753 | 8.52564 | 65° | 117km/h | 12107m | 3.5m/s | -46.5°C | 0% | 0hPa | 4.9V | 00:00:00 | 00:00:00 | 00:00:00 | |
| DO2JMG | 2026-08-31 09:50:04 | 50.77728 | 8.52480 | 64° | 117km/h | 12101m | 3m/s | -46.8°C | 0% | 0hPa | 4.9V | 00:00:00 | 00:00:00 | 00:00:00 | |
| DL1XH-15 | 2026-08-31 09:50:02 | 50.77626 | 8.52152 | 63° | 122km/h | 12067m | 3.3m/s | 0°C | 0% | 0hPa | 0V | 00:00:00 | 00:00:00 | 00:00:00 | |
| DL1XH-west | 2026-08-31 09:50:01 | 50.77678 | 8.52319 | 63° | 113km/h | 12087m | 3.2m/s | -46.8°C | 0% | 0hPa | 4.9V | 00:00:00 | 00:00:00 | 00:00:00 | |
| DO3MHA-11 | 2026-08-31 09:50:01 | 50.77691 | 8.52359 | 64° | 117km/h | 12087m | 3.1m/s | 0°C | 0% | 0hPa | 0V | 00:00:00 | 00:00:00 | 00:00:00 | |
| DM0DOS-11 | 2026-08-31 09:50:00 | 50.77613 | 8.52108 | 64° | 122km/h | 12067m | 3.3m/s | 0°C | 0% | 0hPa | 0V | 00:00:00 | 00:00:00 | 00:00:00 | |
| HSKMA3-T | 2026-08-31 09:49:59 | 50.77652 | 8.52237 | 64° | 115km/h | 12081m | 3.3m/s | -46.7°C | 0% | 0hPa | 4.9V | 00:00:00 | 00:00:00 | 00:00:00 | |
| DO8TBO-1 | 2026-08-31 09:49:57 | 50.77639 | 8.52195 | 64° | 117km/h | 12074m | 3.2m/s | 0°C | 0% | 0hPa | 4.9V | 00:00:00 | 00:00:00 | 00:00:00 | |
| DO2JMG | 2026-08-31 09:49:54 | 50.77600 | 8.52064 | 65° | 120km/h | 12067m | 3.3m/s | -46.7°C | 0% | 0hPa | 4.9V | 00:00:00 | 00:00:00 | 00:00:00 | |
| DO3DL | 2026-08-31 09:49:53 | 50.77587 | 8.52020 | 67° | 119km/h | 12065m | 2.3m/s | -46.7°C | 0% | 0hPa | 0V | 00:00:00 | 00:00:00 | 00:00:00 | |
| DB0NH | 2026-08-31 09:49:52 | 50.77575 | 8.51977 | 66° | 124km/h | 12058m | 2.9m/s | 0°C | 0% | 0hPa | 0V | 00:00:00 | 00:00:00 | 00:00:00 | |
| DO3MHA-11 | 2026-08-31 09:49:51 | 50.77562 | 8.51934 | 64° | 117km/h | 12055m | 3.5m/s | 0°C | 0% | 0hPa | 0V | 00:00:00 | 00:00:00 | 00:00:00 | |
| DM0DOS-11 | 2026-08-31 09:49:50 | 50.77486 | 8.51684 | 65° | 117km/h | 12035m | 3.8m/s | 0°C | 0% | 0hPa | 0V | 00:00:00 | 00:00:00 | 00:00:00 | |
| DL1XH-west | 2026-08-31 09:49:50 | 50.77536 | 8.51851 | 64° | 115km/h | 12051m | 3m/s | -46.7°C | 0% | 0hPa | 4.9V | 00:00:00 | 00:00:00 | 00:00:00 | |
| DL1NUX | 2026-08-31 09:49:49 | 50.77511 | 8.51768 | 63° | 117km/h | 12041m | 3.9m/s | 0°C | 0% | 0hPa | 0V | 00:00:00 | 00:00:00 | 00:00:00 | |
| HSKMA3-T | 2026-08-31 09:49:48 | 50.77511 | 8.51768 | 64° | 117km/h | 12045m | 2.9m/s | -46.8°C | 0% | 0hPa | 4.9V | 00:00:00 | 00:00:00 | 00:00:00 | |
| DF2AP-13 | 2026-08-31 09:49:47 | 50.77510 | 8.51768 | 64° | 115km/h | 12041m | 3.8m/s | 0°C | 0% | 0hPa | 4.9V | 00:00:00 | 00:00:00 | 00:00:00 | |
| DL3OBA | 2026-08-31 09:49:46 | 50.77498 | 8.51726 | 66° | 117km/h | 12041m | 3.9m/s | -46.8°C | 0% | 0hPa | 4.9V | 00:00:00 | 00:00:00 | 00:00:00 | |
| DO2JMG | 2026-08-31 09:49:41 | 50.77436 | 8.51516 | 65° | 113km/h | 12025m | 2.9m/s | -47°C | 0% | 0hPa | 4.9V | 00:00:00 | 00:00:00 | 00:00:00 | |
| DO3MHA-11 | 2026-08-31 09:49:41 | 50.77436 | 8.51516 | 65° | 113km/h | 12022m | 3.3m/s | 0°C | 0% | 0hPa | 4.9V | 00:00:00 | 00:00:00 | 00:00:00 | |
| DO3DL | 2026-08-31 09:49:40 | 50.77424 | 8.51475 | 65° | 111km/h | 12022m | 3.3m/s | -47.0°C | 0% | 0hPa | 4.9V | 00:00:00 | 00:00:00 | 00:00:00 | |
| DL1XH-west | 2026-08-31 09:49:39 | 50.77411 | 8.51436 | 63° | 113km/h | 12019m | 2.9m/s | -47°C | 0% | 0hPa | 4.9V | 00:00:00 | 00:00:00 | 00:00:00 | |
| DL1NUX | 2026-08-31 09:49:39 | 50.77385 | 8.51358 | 63° | 110km/h | 12009m | 3.1m/s | 0°C | 0% | 0hPa | 0V | 00:00:00 | 00:00:00 | 00:00:00 | |
| NBG1-10 | 2026-08-31 09:49:38 | 50.77398 | 8.51396 | 63° | 117km/h | 12012m | 2.8m/s | 0°C | 0% | 0hPa | 4.9V | 00:00:00 | 00:00:00 | 00:00:00 | |
| HSKMA3-T | 2026-08-31 09:49:37 | 50.77373 | 8.51318 | 63° | 110km/h | 12009m | 3.1m/s | -47.1°C | 0% | 0hPa | 4.9V | 00:00:00 | 00:00:00 | 00:00:00 | |
| DO3DL | 2026-08-31 09:49:34 | 50.77347 | 8.51237 | 65° | 115km/h | 12002m | 3.0m/s | -47.0°C | 0% | 0hPa | 0V | 00:00:00 | 00:00:00 | 00:00:00 | |
| DD1CC2-15 | 2026-08-31 09:49:32 | 50.77309 | 8.51111 | 65° | 119km/h | 11996m | 3.4m/s | -40.4°C | 0% | 0hPa | 0V | 00:00:00 | 00:00:00 | 00:00:00 | |
| DL1XH-15 | 2026-08-31 09:49:31 | 50.77296 | 8.51069 | 63° | 117km/h | 11986m | 2.9m/s | 0°C | 0% | 0hPa | 0V | 00:00:00 | 00:00:00 | 00:00:00 | |
| DO3MHA-11 | 2026-08-31 09:49:31 | 50.77309 | 8.51111 | 64° | 117km/h | 11989m | 3.1m/s | 0°C | 0% | 0hPa | 4.9V | 00:00:00 | 00:00:00 | 00:00:00 | |
| DO2JMG | 2026-08-31 09:49:30 | 50.77296 | 8.51069 | 64° | 117km/h | 11989m | 3.1m/s | -47.1°C | 0% | 0hPa | 4.9V | 00:00:00 | 00:00:00 | 00:00:00 | |
| DL1XH-west | 2026-08-31 09:49:29 | 50.77270 | 8.50986 | 64° | 117km/h | 11983m | 3.3m/s | -47.2°C | 0% | 0hPa | 4.9V | 00:00:00 | 00:00:00 | 00:00:00 | |
| DO3DL | 2026-08-31 09:49:28 | 50.77257 | 8.50944 | 64° | 117km/h | 11980m | 2.9m/s | -47.2°C | 0% | 0hPa | 4.9V | 00:00:00 | 00:00:00 | 00:00:00 | |
| HSKMA3-T | 2026-08-31 09:49:27 | 50.77243 | 8.50902 | 64° | 117km/h | 11977m | 2.9m/s | -47.2°C | 0% | 0hPa | 4.9V | 00:00:00 | 00:00:00 | 00:00:00 | |
| DL1XH-15 | 2026-08-31 09:49:25 | 50.77168 | 8.50650 | 64° | 115km/h | 11958m | 2.9m/s | 0°C | 0% | 0hPa | 0V | 00:00:00 | 00:00:00 | 00:00:00 | |
| DO3MHA-11 | 2026-08-31 09:49:21 | 50.77180 | 8.50691 | 65° | 115km/h | 11958m | 2.8m/s | 0°C | 0% | 0hPa | 4.9V | 00:00:00 | 00:00:00 | 00:00:00 | |
| DO2JMG | 2026-08-31 09:49:20 | 50.77168 | 8.50650 | 64° | 115km/h | 11958m | 2.9m/s | -47.1°C | 0% | 0hPa | 4.9V | 00:00:00 | 00:00:00 | 00:00:00 | |
| DM0DOS-11 | 2026-08-31 09:49:20 | 50.77102 | 8.50444 | 63° | 115km/h | 11940m | 2.3m/s | 0°C | 0% | 0hPa | 0V | 00:00:00 | 00:00:00 | 00:00:00 | |
| BIOWL1-15 | 2026-08-31 09:49:19 | 50.77155 | 8.50609 | 63° | 117km/h | 11955m | 3m/s | -47.1°C | 0% | 0hPa | 4.9V | 00:00:00 | 00:00:00 | 00:00:00 | |
| DL1NUX | 2026-08-31 09:49:19 | 50.77128 | 8.50526 | 62° | 115km/h | 11946m | 2.3m/s | 0°C | 0% | 0hPa | 0V | 00:00:00 | 00:00:00 | 00:00:00 | |
| DO8TBO-1 | 2026-08-31 09:49:19 | 50.77155 | 8.50608 | 64° | 120km/h | 11952m | 2.5m/s | 0°C | 0% | 0hPa | 4.9V | 00:00:00 | 00:00:00 | 00:00:00 | |
| Es werden nur die letzten 3500 von 5161 Frames angezeigt. GPX/KML und Diagramme bleiben verfügbar. | |||||||||||||||